<?xml version='1.0' encoding='UTF-8'?><gpx version="1.1" creator="JPX - https://github.com/jenetics/jpx" xmlns="http://www.topografix.com/GPX/1/1"><trk><trkseg><trkpt lat="39.2659126" lon="16.7085411"><ele>986.3333333333334</ele><time>2026-03-28T11:11:04.177Z</time></trkpt><trkpt lat="39.2658279" lon="16.708579"><ele>986.6666666666667</ele><time>2026-03-28T11:16:49.154Z</time></trkpt><trkpt lat="39.2658474" lon="16.7086573"><ele>987.0</ele><time>2026-03-28T11:16:53.177Z</time></trkpt><trkpt lat="39.2658753" lon="16.7087381"><ele>987.3333333333333</ele><time>2026-03-28T11:17:06.177Z</time></trkpt><trkpt lat="39.2659189" lon="16.7087998"><ele>987.6666666666666</ele><time>2026-03-28T11:17:10.168Z</time></trkpt><trkpt lat="39.2659466" lon="16.7088811"><ele>988.0</ele><time>2026-03-28T11:17:13.174Z</time></trkpt><trkpt lat="39.2659076" lon="16.708998"><ele>988.0</ele><time>2026-03-28T11:17:15.173Z</time></trkpt><trkpt lat="39.2658796" lon="16.7091692"><ele>988.0</ele><time>2026-03-28T11:17:17.17Z</time></trkpt><trkpt lat="39.2658727" lon="16.7092929"><ele>988.0</ele><time>2026-03-28T11:17:18.17Z</time></trkpt><trkpt lat="39.2658496" lon="16.7094133"><ele>988.0</ele><time>2026-03-28T11:17:19.172Z</time></trkpt><trkpt lat="39.2658023" lon="16.7095149"><ele>988.0</ele><time>2026-03-28T11:17:20.173Z</time></trkpt><trkpt lat="39.2657412" lon="16.709597"><ele>988.3333333333333</ele><time>2026-03-28T11:17:21.172Z</time></trkpt><trkpt lat="39.2656745" lon="16.7096688"><ele>988.6666666666666</ele><time>2026-03-28T11:17:22.175Z</time></trkpt><trkpt lat="39.2656055" lon="16.7097346"><ele>989.0</ele><time>2026-03-28T11:17:23.171Z</time></trkpt><trkpt lat="39.2655397" lon="16.7098008"><ele>989.3333333333333</ele><time>2026-03-28T11:17:24.172Z</time></trkpt><trkpt lat="39.2654784" lon="16.7098759"><ele>989.6666666666666</ele><time>2026-03-28T11:17:25.178Z</time></trkpt><trkpt lat="39.2654266" lon="16.7099647"><ele>990.0</ele><time>2026-03-28T11:17:26.175Z</time></trkpt><trkpt lat="39.2653854" lon="16.7100622"><ele>988.0</ele><time>2026-03-28T11:17:27.172Z</time></trkpt><trkpt lat="39.2653492" lon="16.7101631"><ele>986.0</ele><time>2026-03-28T11:17:28.175Z</time></trkpt><trkpt lat="39.2653203" lon="16.7102673"><ele>984.0</ele><time>2026-03-28T11:17:29.169Z</time></trkpt><trkpt lat="39.2653082" lon="16.7103785"><ele>982.0</ele><time>2026-03-28T11:17:30.165Z</time></trkpt><trkpt lat="39.265318" lon="16.7104924"><ele>980.0</ele><time>2026-03-28T11:17:31.166Z</time></trkpt><trkpt lat="39.2653512" lon="16.7106003"><ele>978.0</ele><time>2026-03-28T11:17:32.174Z</time></trkpt><trkpt lat="39.265382" lon="16.710711"><ele>978.0</ele><time>2026-03-28T11:17:33.18Z</time></trkpt><trkpt lat="39.2653938" lon="16.71083"><ele>978.0</ele><time>2026-03-28T11:17:34.169Z</time></trkpt><trkpt lat="39.2653805" lon="16.7109505"><ele>978.0</ele><time>2026-03-28T11:17:35.187Z</time></trkpt><trkpt lat="39.2653503" lon="16.7110603"><ele>978.0</ele><time>2026-03-28T11:17:36.173Z</time></trkpt><trkpt lat="39.2653063" lon="16.711163"><ele>978.0</ele><time>2026-03-28T11:17:37.175Z</time></trkpt><trkpt lat="39.2652494" lon="16.7112567"><ele>978.0</ele><time>2026-03-28T11:17:38.172Z</time></trkpt><trkpt lat="39.26519" lon="16.7113465"><ele>978.0</ele><time>2026-03-28T11:17:39.17Z</time></trkpt><trkpt lat="39.2651386" lon="16.7114398"><ele>978.0</ele><time>2026-03-28T11:17:40.174Z</time></trkpt><trkpt lat="39.265104" lon="16.7115394"><ele>978.0</ele><time>2026-03-28T11:17:41.172Z</time></trkpt><trkpt lat="39.2650868" lon="16.711647"><ele>978.0</ele><time>2026-03-28T11:17:42.17Z</time></trkpt><trkpt lat="39.2650943" lon="16.7117534"><ele>978.0</ele><time>2026-03-28T11:17:43.176Z</time></trkpt><trkpt lat="39.265105" lon="16.7118525"><ele>976.8333333333334</ele><time>2026-03-28T11:17:44.17Z</time></trkpt><trkpt lat="39.2651414" lon="16.7119434"><ele>975.6666666666667</ele><time>2026-03-28T11:17:45.175Z</time></trkpt><trkpt lat="39.2651924" lon="16.7120297"><ele>974.5</ele><time>2026-03-28T11:17:46.169Z</time></trkpt><trkpt lat="39.2652502" lon="16.7121129"><ele>973.3333333333334</ele><time>2026-03-28T11:17:47.18Z</time></trkpt><trkpt lat="39.2653045" lon="16.712207"><ele>972.1666666666667</ele><time>2026-03-28T11:17:48.17Z</time></trkpt><trkpt lat="39.2653424" lon="16.7123181"><ele>971.0</ele><time>2026-03-28T11:17:49.167Z</time></trkpt><trkpt lat="39.2653555" lon="16.7124441"><ele>971.0</ele><time>2026-03-28T11:17:50.173Z</time></trkpt><trkpt lat="39.2653217" lon="16.7125691"><ele>970.9999999999999</ele><time>2026-03-28T11:17:51.174Z</time></trkpt><trkpt lat="39.2652737" lon="16.7126883"><ele>970.9999999999999</ele><time>2026-03-28T11:17:52.17Z</time></trkpt><trkpt lat="39.265221" lon="16.7128045"><ele>971.0</ele><time>2026-03-28T11:17:53.175Z</time></trkpt><trkpt lat="39.2651699" lon="16.7129214"><ele>971.0</ele><time>2026-03-28T11:17:54.168Z</time></trkpt><trkpt lat="39.2651202" lon="16.7130384"><ele>971.5999999999999</ele><time>2026-03-28T11:17:55.171Z</time></trkpt><trkpt lat="39.2650709" lon="16.7131571"><ele>972.1999999999999</ele><time>2026-03-28T11:17:56.171Z</time></trkpt><trkpt lat="39.2650196" lon="16.7132761"><ele>972.8000000000001</ele><time>2026-03-28T11:17:57.18Z</time></trkpt><trkpt lat="39.2649688" lon="16.7133914"><ele>973.4000000000001</ele><time>2026-03-28T11:17:58.171Z</time></trkpt><trkpt lat="39.2649198" lon="16.7135003"><ele>974.0</ele><time>2026-03-28T11:17:59.181Z</time></trkpt><trkpt lat="39.2648725" lon="16.7136057"><ele>972.5</ele><time>2026-03-28T11:18:00.166Z</time></trkpt><trkpt lat="39.2648244" lon="16.7137161"><ele>971.0</ele><time>2026-03-28T11:18:01.171Z</time></trkpt><trkpt lat="39.2647732" lon="16.7138361"><ele>969.5</ele><time>2026-03-28T11:18:02.179Z</time></trkpt><trkpt lat="39.264717" lon="16.713973"><ele>968.0</ele><time>2026-03-28T11:18:03.174Z</time></trkpt><trkpt lat="39.2646543" lon="16.7141217"><ele>968.0</ele><time>2026-03-28T11:18:04.173Z</time></trkpt><trkpt lat="39.2645863" lon="16.7142808"><ele>968.0</ele><time>2026-03-28T11:18:05.176Z</time></trkpt><trkpt lat="39.2645106" lon="16.714463"><ele>968.0</ele><time>2026-03-28T11:18:06.178Z</time></trkpt><trkpt lat="39.2644307" lon="16.7146555"><ele>970.6666666666667</ele><time>2026-03-28T11:18:07.186Z</time></trkpt><trkpt lat="39.2643524" lon="16.714843"><ele>973.3333333333333</ele><time>2026-03-28T11:18:08.18Z</time></trkpt><trkpt lat="39.264275" lon="16.715028"><ele>976.0</ele><time>2026-03-28T11:18:09.175Z</time></trkpt><trkpt lat="39.2641963" lon="16.7152192"><ele>976.0</ele><time>2026-03-28T11:18:10.18Z</time></trkpt><trkpt lat="39.2641162" lon="16.7154102"><ele>976.0</ele><time>2026-03-28T11:18:11.186Z</time></trkpt><trkpt lat="39.2640365" lon="16.7156007"><ele>976.0</ele><time>2026-03-28T11:18:12.176Z</time></trkpt><trkpt lat="39.2639561" lon="16.7157928"><ele>976.0</ele><time>2026-03-28T11:18:13.175Z</time></trkpt><trkpt lat="39.2638761" lon="16.7159854"><ele>976.0</ele><time>2026-03-28T11:18:14.179Z</time></trkpt><trkpt lat="39.2637968" lon="16.7161765"><ele>976.0</ele><time>2026-03-28T11:18:15.178Z</time></trkpt><trkpt lat="39.2637201" lon="16.716365"><ele>976.0</ele><time>2026-03-28T11:18:16.172Z</time></trkpt><trkpt lat="39.2636465" lon="16.7165522"><ele>976.0</ele><time>2026-03-28T11:18:17.184Z</time></trkpt><trkpt lat="39.263573" lon="16.7167365"><ele>976.0</ele><time>2026-03-28T11:18:18.184Z</time></trkpt><trkpt lat="39.2634968" lon="16.7169138"><ele>975.5</ele><time>2026-03-28T11:18:19.177Z</time></trkpt><trkpt lat="39.2634127" lon="16.7170774"><ele>975.0</ele><time>2026-03-28T11:18:20.178Z</time></trkpt><trkpt lat="39.2633176" lon="16.7172218"><ele>974.5</ele><time>2026-03-28T11:18:21.171Z</time></trkpt><trkpt lat="39.2632083" lon="16.7173438"><ele>974.0</ele><time>2026-03-28T11:18:22.178Z</time></trkpt><trkpt lat="39.263087" lon="16.717437"><ele>973.75</ele><time>2026-03-28T11:18:23.179Z</time></trkpt><trkpt lat="39.2629599" lon="16.7175161"><ele>973.5</ele><time>2026-03-28T11:18:24.178Z</time></trkpt><trkpt lat="39.262833" lon="16.7175844"><ele>973.25</ele><time>2026-03-28T11:18:25.183Z</time></trkpt><trkpt lat="39.2627122" lon="16.7176463"><ele>973.0</ele><time>2026-03-28T11:18:26.176Z</time></trkpt><trkpt lat="39.2625976" lon="16.7177093"><ele>972.75</ele><time>2026-03-28T11:18:27.179Z</time></trkpt><trkpt lat="39.2624887" lon="16.7177733"><ele>972.5</ele><time>2026-03-28T11:18:28.181Z</time></trkpt><trkpt lat="39.2623829" lon="16.7178338"><ele>972.25</ele><time>2026-03-28T11:18:29.173Z</time></trkpt><trkpt lat="39.2622798" lon="16.7178934"><ele>972.0</ele><time>2026-03-28T11:18:30.176Z</time></trkpt><trkpt lat="39.2621802" lon="16.7179511"><ele>973.6</ele><time>2026-03-28T11:18:31.18Z</time></trkpt><trkpt lat="39.2620843" lon="16.718005"><ele>975.2</ele><time>2026-03-28T11:18:32.179Z</time></trkpt><trkpt lat="39.2619899" lon="16.7180568"><ele>976.8</ele><time>2026-03-28T11:18:33.18Z</time></trkpt><trkpt lat="39.2618981" lon="16.7181122"><ele>978.4</ele><time>2026-03-28T11:18:34.178Z</time></trkpt><trkpt lat="39.2618113" lon="16.7181757"><ele>980.0</ele><time>2026-03-28T11:18:35.176Z</time></trkpt><trkpt lat="39.2617339" lon="16.7182535"><ele>980.0000000000001</ele><time>2026-03-28T11:18:36.176Z</time></trkpt><trkpt lat="39.2616707" lon="16.7183403"><ele>980.0</ele><time>2026-03-28T11:18:37.175Z</time></trkpt><trkpt lat="39.26162" lon="16.7184258"><ele>980.0</ele><time>2026-03-28T11:18:38.174Z</time></trkpt><trkpt lat="39.2615824" lon="16.7184961"><ele>980.0</ele><time>2026-03-28T11:18:39.185Z</time></trkpt><trkpt lat="39.2615226" lon="16.7186084"><ele>980.0000000000001</ele><time>2026-03-28T11:18:44.175Z</time></trkpt><trkpt lat="39.2614701" lon="16.718675"><ele>980.0</ele><time>2026-03-28T11:18:46.18Z</time></trkpt><trkpt lat="39.2614023" lon="16.7187215"><ele>983.0</ele><time>2026-03-28T11:18:48.172Z</time></trkpt><trkpt lat="39.2613083" lon="16.7188202"><ele>986.0</ele><time>2026-03-28T11:18:50.18Z</time></trkpt><trkpt lat="39.2612435" lon="16.7188856"><ele>989.0</ele><time>2026-03-28T11:18:51.178Z</time></trkpt><trkpt lat="39.2611688" lon="16.7189463"><ele>992.0</ele><time>2026-03-28T11:18:52.173Z</time></trkpt><trkpt lat="39.2610896" lon="16.7189996"><ele>995.0</ele><time>2026-03-28T11:18:53.18Z</time></trkpt><trkpt lat="39.2610116" lon="16.7190295"><ele>995.0000000000001</ele><time>2026-03-28T11:18:54.174Z</time></trkpt><trkpt lat="39.2609389" lon="16.7190489"><ele>995.0</ele><time>2026-03-28T11:18:55.18Z</time></trkpt><trkpt lat="39.2608756" lon="16.71906"><ele>995.0</ele><time>2026-03-28T11:18:56.18Z</time></trkpt><trkpt lat="39.2607972" lon="16.7190764"><ele>995.0</ele><time>2026-03-28T11:19:04.171Z</time></trkpt><trkpt lat="39.2607006" lon="16.7191016"><ele>995.0000000000001</ele><time>2026-03-28T11:19:06.181Z</time></trkpt><trkpt lat="39.2605997" lon="16.7191586"><ele>995.0</ele><time>2026-03-28T11:19:16.182Z</time></trkpt><trkpt lat="39.2605421" lon="16.7192018"><ele>997.6666666666667</ele><time>2026-03-28T11:19:19.188Z</time></trkpt><trkpt lat="39.2604682" lon="16.7192618"><ele>1000.3333333333334</ele><time>2026-03-28T11:19:22.191Z</time></trkpt><trkpt lat="39.2603749" lon="16.7193292"><ele>1003.0</ele><time>2026-03-28T11:19:27.18Z</time></trkpt><trkpt lat="39.2603086" lon="16.7193418"><ele>1005.6666666666667</ele><time>2026-03-28T11:19:30.175Z</time></trkpt><trkpt lat="39.2602183" lon="16.719352"><ele>1008.3333333333334</ele><time>2026-03-28T11:19:34.175Z</time></trkpt><trkpt lat="39.2601365" lon="16.7193801"><ele>1011.0</ele><time>2026-03-28T11:19:37.183Z</time></trkpt><trkpt lat="39.2600659" lon="16.7194412"><ele>1012.3333333333334</ele><time>2026-03-28T11:19:40.196Z</time></trkpt><trkpt lat="39.2599942" lon="16.7194643"><ele>1013.6666666666667</ele><time>2026-03-28T11:19:42.174Z</time></trkpt><trkpt lat="39.2599223" lon="16.7194837"><ele>1015.0</ele><time>2026-03-28T11:19:44.174Z</time></trkpt><trkpt lat="39.2598366" lon="16.7194917"><ele>1016.3333333333334</ele><time>2026-03-28T11:19:46.18Z</time></trkpt><trkpt lat="39.2597618" lon="16.719499"><ele>1017.6666666666667</ele><time>2026-03-28T11:19:48.177Z</time></trkpt><trkpt lat="39.2596835" lon="16.7195039"><ele>1019.0</ele><time>2026-03-28T11:19:50.181Z</time></trkpt><trkpt lat="39.2596203" lon="16.71952"><ele>1020.857142857143</ele><time>2026-03-28T11:19:52.183Z</time></trkpt><trkpt lat="39.2595522" lon="16.7195647"><ele>1022.7142857142858</ele><time>2026-03-28T11:19:54.173Z</time></trkpt><trkpt lat="39.2594932" lon="16.7196084"><ele>1024.5714285714284</ele><time>2026-03-28T11:19:56.178Z</time></trkpt><trkpt lat="39.259427" lon="16.7196278"><ele>1026.4285714285716</ele><time>2026-03-28T11:20:00.18Z</time></trkpt><trkpt lat="39.2593546" lon="16.7196476"><ele>1028.2857142857142</ele><time>2026-03-28T11:20:02.179Z</time></trkpt><trkpt lat="39.2592862" lon="16.7196572"><ele>1030.142857142857</ele><time>2026-03-28T11:20:04.192Z</time></trkpt><trkpt lat="39.2591998" lon="16.7196749"><ele>1032.0</ele><time>2026-03-28T11:20:07.181Z</time></trkpt><trkpt lat="39.2591323" lon="16.7196803"><ele>1031.9999999999998</ele><time>2026-03-28T11:20:09.182Z</time></trkpt><trkpt lat="39.2590631" lon="16.7196787"><ele>1032.0</ele><time>2026-03-28T11:20:11.187Z</time></trkpt><trkpt lat="39.2589783" lon="16.719679"><ele>1032.0</ele><time>2026-03-28T11:20:14.177Z</time></trkpt><trkpt lat="39.2589123" lon="16.7197001"><ele>1032.0</ele><time>2026-03-28T11:20:16.191Z</time></trkpt><trkpt lat="39.2588423" lon="16.7197183"><ele>1032.0</ele><time>2026-03-28T11:20:18.174Z</time></trkpt><trkpt lat="39.2587636" lon="16.7197401"><ele>1031.9999999999998</ele><time>2026-03-28T11:20:20.183Z</time></trkpt><trkpt lat="39.2586971" lon="16.7197567"><ele>1032.0</ele><time>2026-03-28T11:20:22.182Z</time></trkpt><trkpt lat="39.2586203" lon="16.7197782"><ele>1034.2</ele><time>2026-03-28T11:20:24.179Z</time></trkpt><trkpt lat="39.2585407" lon="16.7197982"><ele>1036.4</ele><time>2026-03-28T11:20:26.188Z</time></trkpt><trkpt lat="39.2584754" lon="16.7198313"><ele>1038.6</ele><time>2026-03-28T11:20:28.181Z</time></trkpt><trkpt lat="39.2583952" lon="16.7199227"><ele>1040.8</ele><time>2026-03-28T11:20:33.176Z</time></trkpt><trkpt lat="39.2583032" lon="16.720006"><ele>1043.0</ele><time>2026-03-28T11:20:35.185Z</time></trkpt><trkpt lat="39.2582212" lon="16.7201388"><ele>1043.0</ele><time>2026-03-28T11:20:37.189Z</time></trkpt><trkpt lat="39.258162" lon="16.7202044"><ele>1043.0</ele><time>2026-03-28T11:20:38.179Z</time></trkpt><trkpt lat="39.258093" lon="16.7202433"><ele>1043.0</ele><time>2026-03-28T11:20:39.18Z</time></trkpt><trkpt lat="39.2580289" lon="16.7202686"><ele>1043.0</ele><time>2026-03-28T11:20:40.179Z</time></trkpt><trkpt lat="39.257931" lon="16.7202946"><ele>1043.0</ele><time>2026-03-28T11:20:42.178Z</time></trkpt><trkpt lat="39.2578288" lon="16.7203207"><ele>1043.0</ele><time>2026-03-28T11:20:44.177Z</time></trkpt><trkpt lat="39.2577649" lon="16.720364"><ele>1044.3333333333335</ele><time>2026-03-28T11:20:45.184Z</time></trkpt><trkpt lat="39.2576977" lon="16.7204193"><ele>1045.6666666666667</ele><time>2026-03-28T11:20:46.175Z</time></trkpt><trkpt lat="39.257638" lon="16.720493"><ele>1047.0</ele><time>2026-03-28T11:20:47.18Z</time></trkpt><trkpt lat="39.2575968" lon="16.7205847"><ele>1048.3333333333333</ele><time>2026-03-28T11:20:48.172Z</time></trkpt><trkpt lat="39.2575539" lon="16.7206783"><ele>1049.6666666666665</ele><time>2026-03-28T11:20:49.177Z</time></trkpt><trkpt lat="39.2575098" lon="16.7207703"><ele>1051.0</ele><time>2026-03-28T11:20:50.178Z</time></trkpt><trkpt lat="39.257472" lon="16.7208637"><ele>1051.0</ele><time>2026-03-28T11:20:51.178Z</time></trkpt><trkpt lat="39.2574183" lon="16.7209459"><ele>1051.0</ele><time>2026-03-28T11:20:52.178Z</time></trkpt><trkpt lat="39.2573524" lon="16.7210208"><ele>1051.0</ele><time>2026-03-28T11:20:53.188Z</time></trkpt><trkpt lat="39.2572731" lon="16.7210819"><ele>1051.0</ele><time>2026-03-28T11:20:54.179Z</time></trkpt><trkpt lat="39.2571912" lon="16.7211422"><ele>1051.0</ele><time>2026-03-28T11:20:55.179Z</time></trkpt><trkpt lat="39.2571144" lon="16.7211977"><ele>1051.0</ele><time>2026-03-28T11:20:56.178Z</time></trkpt><trkpt lat="39.2570421" lon="16.7212517"><ele>1051.3999999999999</ele><time>2026-03-28T11:20:57.185Z</time></trkpt><trkpt lat="39.256968" lon="16.7213108"><ele>1051.8</ele><time>2026-03-28T11:20:58.18Z</time></trkpt><trkpt lat="39.2568925" lon="16.7213792"><ele>1052.1999999999998</ele><time>2026-03-28T11:20:59.186Z</time></trkpt><trkpt lat="39.2568165" lon="16.7214605"><ele>1052.6</ele><time>2026-03-28T11:21:00.175Z</time></trkpt><trkpt lat="39.2567491" lon="16.7215562"><ele>1053.0</ele><time>2026-03-28T11:21:01.179Z</time></trkpt><trkpt lat="39.2566929" lon="16.7216663"><ele>1053.0</ele><time>2026-03-28T11:21:02.183Z</time></trkpt><trkpt lat="39.2566326" lon="16.7217739"><ele>1053.0</ele><time>2026-03-28T11:21:03.183Z</time></trkpt><trkpt lat="39.256547" lon="16.7218652"><ele>1053.0</ele><time>2026-03-28T11:21:04.18Z</time></trkpt><trkpt lat="39.2564583" lon="16.7219576"><ele>1053.0</ele><time>2026-03-28T11:21:05.188Z</time></trkpt><trkpt lat="39.2563656" lon="16.7220472"><ele>1053.0</ele><time>2026-03-28T11:21:06.174Z</time></trkpt><trkpt lat="39.2562728" lon="16.7221405"><ele>1052.0</ele><time>2026-03-28T11:21:07.181Z</time></trkpt><trkpt lat="39.2561758" lon="16.7222356"><ele>1051.0</ele><time>2026-03-28T11:21:08.189Z</time></trkpt><trkpt lat="39.2560805" lon="16.7223295"><ele>1050.0</ele><time>2026-03-28T11:21:09.18Z</time></trkpt><trkpt lat="39.2559853" lon="16.72242"><ele>1049.0</ele><time>2026-03-28T11:21:10.183Z</time></trkpt><trkpt lat="39.255892" lon="16.7224996"><ele>1049.0</ele><time>2026-03-28T11:21:11.184Z</time></trkpt><trkpt lat="39.2558019" lon="16.7225571"><ele>1049.0</ele><time>2026-03-28T11:21:12.192Z</time></trkpt><trkpt lat="39.2557134" lon="16.7225976"><ele>1049.0</ele><time>2026-03-28T11:21:13.181Z</time></trkpt><trkpt lat="39.2556313" lon="16.7226337"><ele>1049.0</ele><time>2026-03-28T11:21:14.176Z</time></trkpt><trkpt lat="39.2555623" lon="16.7226832"><ele>1049.0</ele><time>2026-03-28T11:21:15.18Z</time></trkpt><trkpt lat="39.2554968" lon="16.7227456"><ele>1049.0</ele><time>2026-03-28T11:21:16.18Z</time></trkpt><trkpt lat="39.2554338" lon="16.722811"><ele>1048.0</ele><time>2026-03-28T11:21:17.187Z</time></trkpt><trkpt lat="39.2553835" lon="16.7228994"><ele>1047.0</ele><time>2026-03-28T11:21:18.184Z</time></trkpt><trkpt lat="39.255336" lon="16.722997"><ele>1046.0</ele><time>2026-03-28T11:21:19.193Z</time></trkpt><trkpt lat="39.2552872" lon="16.7230982"><ele>1045.0</ele><time>2026-03-28T11:21:20.18Z</time></trkpt><trkpt lat="39.2552487" lon="16.7232151"><ele>1044.0</ele><time>2026-03-28T11:21:21.185Z</time></trkpt><trkpt lat="39.2552299" lon="16.7233551"><ele>1044.0</ele><time>2026-03-28T11:21:22.178Z</time></trkpt><trkpt lat="39.2552209" lon="16.7235069"><ele>1044.0</ele><time>2026-03-28T11:21:23.179Z</time></trkpt><trkpt lat="39.2552074" lon="16.7236547"><ele>1044.0</ele><time>2026-03-28T11:21:24.178Z</time></trkpt><trkpt lat="39.2551969" lon="16.7238038"><ele>1044.0</ele><time>2026-03-28T11:21:25.182Z</time></trkpt><trkpt lat="39.2551816" lon="16.7239456"><ele>1044.2</ele><time>2026-03-28T11:21:26.181Z</time></trkpt><trkpt lat="39.2551371" lon="16.7240802"><ele>1044.4</ele><time>2026-03-28T11:21:27.18Z</time></trkpt><trkpt lat="39.2550767" lon="16.7242077"><ele>1044.6</ele><time>2026-03-28T11:21:28.185Z</time></trkpt><trkpt lat="39.2550119" lon="16.7243271"><ele>1044.8</ele><time>2026-03-28T11:21:29.181Z</time></trkpt><trkpt lat="39.2549503" lon="16.7244349"><ele>1045.0</ele><time>2026-03-28T11:21:30.181Z</time></trkpt><trkpt lat="39.2548926" lon="16.7245272"><ele>1044.6666666666665</ele><time>2026-03-28T11:21:31.188Z</time></trkpt><trkpt lat="39.2548478" lon="16.7246271"><ele>1044.3333333333333</ele><time>2026-03-28T11:21:32.184Z</time></trkpt><trkpt lat="39.2548128" lon="16.7247256"><ele>1044.0</ele><time>2026-03-28T11:21:33.176Z</time></trkpt><trkpt lat="39.254782" lon="16.724807"><ele>1043.6666666666667</ele><time>2026-03-28T11:21:34.178Z</time></trkpt><trkpt lat="39.2547414" lon="16.7249114"><ele>1043.3333333333335</ele><time>2026-03-28T11:21:36.198Z</time></trkpt><trkpt lat="39.2547224" lon="16.7249891"><ele>1043.0</ele><time>2026-03-28T11:21:38.204Z</time></trkpt><trkpt lat="39.254695" lon="16.7250712"><ele>1047.0</ele><time>2026-03-28T11:21:40.179Z</time></trkpt><trkpt lat="39.2546518" lon="16.7251384"><ele>1051.0</ele><time>2026-03-28T11:21:42.18Z</time></trkpt><trkpt lat="39.2546022" lon="16.7252263"><ele>1055.0</ele><time>2026-03-28T11:21:44.179Z</time></trkpt><trkpt lat="39.2545415" lon="16.7253067"><ele>1059.0</ele><time>2026-03-28T11:21:46.177Z</time></trkpt><trkpt lat="39.2544694" lon="16.7253991"><ele>1063.0</ele><time>2026-03-28T11:21:48.185Z</time></trkpt><trkpt lat="39.2544003" lon="16.725477"><ele>1067.0</ele><time>2026-03-28T11:21:51.179Z</time></trkpt><trkpt lat="39.2543468" lon="16.7255613"><ele>1067.0</ele><time>2026-03-28T11:21:54.184Z</time></trkpt><trkpt lat="39.2542844" lon="16.7256397"><ele>1067.0</ele><time>2026-03-28T11:21:57.177Z</time></trkpt><trkpt lat="39.2542108" lon="16.7256858"><ele>1067.0</ele><time>2026-03-28T11:22:00.175Z</time></trkpt><trkpt lat="39.2541482" lon="16.7257705"><ele>1067.0</ele><time>2026-03-28T11:22:03.179Z</time></trkpt><trkpt lat="39.2541006" lon="16.725896"><ele>1067.0</ele><time>2026-03-28T11:22:06.18Z</time></trkpt><trkpt lat="39.2541002" lon="16.7260389"><ele>1067.3333333333335</ele><time>2026-03-28T11:22:08.178Z</time></trkpt><trkpt lat="39.2541259" lon="16.7261383"><ele>1067.6666666666667</ele><time>2026-03-28T11:22:10.181Z</time></trkpt><trkpt lat="39.2541454" lon="16.7262186"><ele>1068.0</ele><time>2026-03-28T11:22:12.187Z</time></trkpt><trkpt lat="39.2541492" lon="16.7263169"><ele>1068.3333333333333</ele><time>2026-03-28T11:22:14.173Z</time></trkpt><trkpt lat="39.2541409" lon="16.7264222"><ele>1068.6666666666665</ele><time>2026-03-28T11:22:16.178Z</time></trkpt><trkpt lat="39.254132" lon="16.7265488"><ele>1069.0</ele><time>2026-03-28T11:22:18.184Z</time></trkpt><trkpt lat="39.2540748" lon="16.7266654"><ele>1069.0</ele><time>2026-03-28T11:22:20.196Z</time></trkpt><trkpt lat="39.2540158" lon="16.7267775"><ele>1069.0</ele><time>2026-03-28T11:22:22.179Z</time></trkpt><trkpt lat="39.2539734" lon="16.7269127"><ele>1069.0</ele><time>2026-03-28T11:22:24.181Z</time></trkpt><trkpt lat="39.253922" lon="16.7270273"><ele>1069.0</ele><time>2026-03-28T11:22:26.176Z</time></trkpt><trkpt lat="39.2538745" lon="16.7271376"><ele>1069.0</ele><time>2026-03-28T11:22:28.178Z</time></trkpt><trkpt lat="39.2538191" lon="16.7272688"><ele>1073.6666666666665</ele><time>2026-03-28T11:22:30.178Z</time></trkpt><trkpt lat="39.2537786" lon="16.7273858"><ele>1078.3333333333333</ele><time>2026-03-28T11:22:32.176Z</time></trkpt><trkpt lat="39.2537542" lon="16.7274811"><ele>1083.0</ele><time>2026-03-28T11:22:34.185Z</time></trkpt><trkpt lat="39.2537207" lon="16.7275837"><ele>1087.6666666666667</ele><time>2026-03-28T11:22:36.184Z</time></trkpt><trkpt lat="39.2536831" lon="16.7276795"><ele>1092.3333333333335</ele><time>2026-03-28T11:22:38.19Z</time></trkpt><trkpt lat="39.253656" lon="16.7277676"><ele>1097.0</ele><time>2026-03-28T11:22:40.185Z</time></trkpt><trkpt lat="39.2536267" lon="16.72786"><ele>1098.4</ele><time>2026-03-28T11:22:42.178Z</time></trkpt><trkpt lat="39.2535886" lon="16.727955"><ele>1099.8000000000002</ele><time>2026-03-28T11:22:44.168Z</time></trkpt><trkpt lat="39.2535674" lon="16.7280749"><ele>1101.2</ele><time>2026-03-28T11:22:46.175Z</time></trkpt><trkpt lat="39.2535332" lon="16.7281863"><ele>1102.6000000000001</ele><time>2026-03-28T11:22:48.189Z</time></trkpt><trkpt lat="39.253503" lon="16.7283033"><ele>1104.0</ele><time>2026-03-28T11:22:50.173Z</time></trkpt><trkpt lat="39.2534747" lon="16.7284098"><ele>1104.0</ele><time>2026-03-28T11:22:52.171Z</time></trkpt><trkpt lat="39.2534508" lon="16.7285087"><ele>1104.0</ele><time>2026-03-28T11:22:54.17Z</time></trkpt><trkpt lat="39.2534158" lon="16.7286135"><ele>1104.0</ele><time>2026-03-28T11:22:56.184Z</time></trkpt><trkpt lat="39.2533786" lon="16.7287171"><ele>1104.0</ele><time>2026-03-28T11:22:58.186Z</time></trkpt><trkpt lat="39.2533337" lon="16.7288187"><ele>1104.0</ele><time>2026-03-28T11:23:00.2Z</time></trkpt><trkpt lat="39.2532434" lon="16.7288958"><ele>1104.4285714285716</ele><time>2026-03-28T11:23:02.169Z</time></trkpt><trkpt lat="39.2531793" lon="16.7289175"><ele>1104.857142857143</ele><time>2026-03-28T11:23:03.195Z</time></trkpt><trkpt lat="39.2531111" lon="16.7289413"><ele>1105.2857142857142</ele><time>2026-03-28T11:23:04.176Z</time></trkpt><trkpt lat="39.2530446" lon="16.7289658"><ele>1105.7142857142858</ele><time>2026-03-28T11:23:05.194Z</time></trkpt><trkpt lat="39.2529731" lon="16.7289928"><ele>1106.142857142857</ele><time>2026-03-28T11:23:06.172Z</time></trkpt><trkpt lat="39.2528952" lon="16.729015"><ele>1106.5714285714287</ele><time>2026-03-28T11:23:07.188Z</time></trkpt><trkpt lat="39.2528173" lon="16.7290255"><ele>1107.0</ele><time>2026-03-28T11:23:08.204Z</time></trkpt><trkpt lat="39.2527418" lon="16.7290399"><ele>1107.8</ele><time>2026-03-28T11:23:09.17Z</time></trkpt><trkpt lat="39.252662" lon="16.729062"><ele>1108.6</ele><time>2026-03-28T11:23:10.178Z</time></trkpt><trkpt lat="39.2525771" lon="16.7290993"><ele>1109.3999999999999</ele><time>2026-03-28T11:23:11.172Z</time></trkpt><trkpt lat="39.2524969" lon="16.7291348"><ele>1110.2</ele><time>2026-03-28T11:23:12.177Z</time></trkpt><trkpt lat="39.2524243" lon="16.7291689"><ele>1111.0</ele><time>2026-03-28T11:23:13.195Z</time></trkpt><trkpt lat="39.2523358" lon="16.72928"><ele>1111.0</ele><time>2026-03-28T11:23:15.188Z</time></trkpt><trkpt lat="39.252313" lon="16.7293611"><ele>1111.0</ele><time>2026-03-28T11:23:16.17Z</time></trkpt><trkpt lat="39.2522419" lon="16.7294546"><ele>1111.0</ele><time>2026-03-28T11:23:18.203Z</time></trkpt><trkpt lat="39.2521829" lon="16.7295029"><ele>1111.0</ele><time>2026-03-28T11:23:21.21Z</time></trkpt><trkpt lat="39.2521244" lon="16.7295406"><ele>1111.0</ele><time>2026-03-28T11:23:23.194Z</time></trkpt><trkpt lat="39.2520432" lon="16.7295886"><ele>1111.0</ele><time>2026-03-28T11:23:26.184Z</time></trkpt><trkpt lat="39.2519527" lon="16.7296397"><ele>1108.8</ele><time>2026-03-28T11:23:28.17Z</time></trkpt><trkpt lat="39.2518512" lon="16.7297003"><ele>1106.6</ele><time>2026-03-28T11:23:30.174Z</time></trkpt><trkpt lat="39.2517623" lon="16.729758"><ele>1104.4</ele><time>2026-03-28T11:23:32.17Z</time></trkpt><trkpt lat="39.251679" lon="16.7298111"><ele>1102.2</ele><time>2026-03-28T11:23:34.183Z</time></trkpt><trkpt lat="39.2515681" lon="16.7298922"><ele>1100.0</ele><time>2026-03-28T11:23:36.171Z</time></trkpt><trkpt lat="39.2515121" lon="16.7299443"><ele>1100.0</ele><time>2026-03-28T11:23:37.174Z</time></trkpt><trkpt lat="39.2514588" lon="16.7299971"><ele>1100.0</ele><time>2026-03-28T11:23:38.189Z</time></trkpt><trkpt lat="39.2513989" lon="16.730056"><ele>1100.0</ele><time>2026-03-28T11:23:39.172Z</time></trkpt><trkpt lat="39.251341" lon="16.7301134"><ele>1100.0</ele><time>2026-03-28T11:23:40.173Z</time></trkpt><trkpt lat="39.2512801" lon="16.7301716"><ele>1100.0</ele><time>2026-03-28T11:23:41.173Z</time></trkpt><trkpt lat="39.2512244" lon="16.7302265"><ele>1100.0</ele><time>2026-03-28T11:23:42.171Z</time></trkpt><trkpt lat="39.2511757" lon="16.7302781"><ele>1100.0</ele><time>2026-03-28T11:23:43.171Z</time></trkpt><trkpt lat="39.2510877" lon="16.7303827"><ele>1101.0</ele><time>2026-03-28T11:23:45.169Z</time></trkpt><trkpt lat="39.2510264" lon="16.7304554"><ele>1102.0</ele><time>2026-03-28T11:23:46.187Z</time></trkpt><trkpt lat="39.2509641" lon="16.7305364"><ele>1103.0</ele><time>2026-03-28T11:23:47.174Z</time></trkpt><trkpt lat="39.2508944" lon="16.7306313"><ele>1104.0</ele><time>2026-03-28T11:23:48.172Z</time></trkpt><trkpt lat="39.2507889" lon="16.7307543"><ele>1105.0</ele><time>2026-03-28T11:23:49.174Z</time></trkpt><trkpt lat="39.2506642" lon="16.7308725"><ele>1105.75</ele><time>2026-03-28T11:23:50.17Z</time></trkpt><trkpt lat="39.2505547" lon="16.7309864"><ele>1106.5</ele><time>2026-03-28T11:23:51.171Z</time></trkpt><trkpt lat="39.2504592" lon="16.7310893"><ele>1107.25</ele><time>2026-03-28T11:23:52.171Z</time></trkpt><trkpt lat="39.2503876" lon="16.7311831"><ele>1108.0</ele><time>2026-03-28T11:23:53.169Z</time></trkpt><trkpt lat="39.2503303" lon="16.7312633"><ele>1107.0</ele><time>2026-03-28T11:23:54.166Z</time></trkpt><trkpt lat="39.2502826" lon="16.7313348"><ele>1106.0</ele><time>2026-03-28T11:23:55.17Z</time></trkpt><trkpt lat="39.2502371" lon="16.7313985"><ele>1105.0</ele><time>2026-03-28T11:23:56.17Z</time></trkpt><trkpt lat="39.2501865" lon="16.7314606"><ele>1104.0</ele><time>2026-03-28T11:23:57.17Z</time></trkpt><trkpt lat="39.2501319" lon="16.7315284"><ele>1103.0</ele><time>2026-03-28T11:23:58.167Z</time></trkpt><trkpt lat="39.2500785" lon="16.7316063"><ele>1102.0</ele><time>2026-03-28T11:23:59.164Z</time></trkpt><trkpt lat="39.2500268" lon="16.7317003"><ele>1102.0</ele><time>2026-03-28T11:24:00.17Z</time></trkpt><trkpt lat="39.249979" lon="16.7317986"><ele>1102.0</ele><time>2026-03-28T11:24:01.17Z</time></trkpt><trkpt lat="39.2499383" lon="16.7319089"><ele>1102.0</ele><time>2026-03-28T11:24:02.166Z</time></trkpt><trkpt lat="39.2499082" lon="16.7320426"><ele>1102.0</ele><time>2026-03-28T11:24:03.184Z</time></trkpt><trkpt lat="39.2498993" lon="16.7321873"><ele>1102.0</ele><time>2026-03-28T11:24:04.168Z</time></trkpt><trkpt lat="39.2499167" lon="16.732328"><ele>1102.2</ele><time>2026-03-28T11:24:05.167Z</time></trkpt><trkpt lat="39.2499377" lon="16.7324509"><ele>1102.4</ele><time>2026-03-28T11:24:06.168Z</time></trkpt><trkpt lat="39.2499549" lon="16.7325623"><ele>1102.6</ele><time>2026-03-28T11:24:07.17Z</time></trkpt><trkpt lat="39.2499834" lon="16.7326488"><ele>1102.8</ele><time>2026-03-28T11:24:08.169Z</time></trkpt><trkpt lat="39.2500205" lon="16.732715"><ele>1103.0</ele><time>2026-03-28T11:24:09.17Z</time></trkpt><trkpt lat="39.2501216" lon="16.7328248"><ele>1103.8</ele><time>2026-03-28T11:24:11.175Z</time></trkpt><trkpt lat="39.2501768" lon="16.73289"><ele>1104.6</ele><time>2026-03-28T11:24:12.192Z</time></trkpt><trkpt lat="39.2502318" lon="16.7329533"><ele>1105.4</ele><time>2026-03-28T11:24:13.171Z</time></trkpt><trkpt lat="39.2502838" lon="16.7330987"><ele>1106.2</ele><time>2026-03-28T11:24:15.169Z</time></trkpt><trkpt lat="39.2503422" lon="16.7332283"><ele>1107.0</ele><time>2026-03-28T11:24:17.174Z</time></trkpt><trkpt lat="39.2503991" lon="16.7333588"><ele>1107.0</ele><time>2026-03-28T11:24:19.173Z</time></trkpt><trkpt lat="39.2504098" lon="16.7334492"><ele>1107.0</ele><time>2026-03-28T11:24:20.176Z</time></trkpt><trkpt lat="39.2504053" lon="16.7335441"><ele>1107.0</ele><time>2026-03-28T11:24:21.175Z</time></trkpt><trkpt lat="39.2503934" lon="16.7336306"><ele>1107.0</ele><time>2026-03-28T11:24:22.169Z</time></trkpt><trkpt lat="39.2503787" lon="16.7337272"><ele>1107.0</ele><time>2026-03-28T11:24:23.182Z</time></trkpt><trkpt lat="39.2503506" lon="16.733823"><ele>1107.0</ele><time>2026-03-28T11:24:24.17Z</time></trkpt><trkpt lat="39.2503167" lon="16.7339171"><ele>1107.0</ele><time>2026-03-28T11:24:25.17Z</time></trkpt><trkpt lat="39.2502823" lon="16.734004"><ele>1107.6</ele><time>2026-03-28T11:24:26.174Z</time></trkpt><trkpt lat="39.2502468" lon="16.7340859"><ele>1108.2</ele><time>2026-03-28T11:24:27.167Z</time></trkpt><trkpt lat="39.2502128" lon="16.7341599"><ele>1108.8</ele><time>2026-03-28T11:24:28.189Z</time></trkpt><trkpt lat="39.250154" lon="16.7342938"><ele>1109.4</ele><time>2026-03-28T11:24:30.172Z</time></trkpt><trkpt lat="39.2500649" lon="16.7344541"><ele>1110.0</ele><time>2026-03-28T11:24:32.168Z</time></trkpt><trkpt lat="39.2500616" lon="16.7345651"><ele>1110.2</ele><time>2026-03-28T11:24:33.166Z</time></trkpt><trkpt lat="39.2500729" lon="16.7347002"><ele>1110.4</ele><time>2026-03-28T11:24:34.166Z</time></trkpt><trkpt lat="39.2501068" lon="16.7348536"><ele>1110.6</ele><time>2026-03-28T11:24:35.184Z</time></trkpt><trkpt lat="39.2501534" lon="16.7349824"><ele>1110.8</ele><time>2026-03-28T11:24:36.167Z</time></trkpt><trkpt lat="39.2502026" lon="16.73509"><ele>1111.0</ele><time>2026-03-28T11:24:37.168Z</time></trkpt><trkpt lat="39.2502508" lon="16.7351749"><ele>1110.5714285714287</ele><time>2026-03-28T11:24:38.172Z</time></trkpt><trkpt lat="39.2503014" lon="16.7352279"><ele>1110.1428571428573</ele><time>2026-03-28T11:24:39.171Z</time></trkpt><trkpt lat="39.2503552" lon="16.7352729"><ele>1109.7142857142858</ele><time>2026-03-28T11:24:40.168Z</time></trkpt><trkpt lat="39.2504192" lon="16.7352876"><ele>1109.2857142857142</ele><time>2026-03-28T11:24:41.165Z</time></trkpt><trkpt lat="39.2504837" lon="16.7352907"><ele>1108.8571428571427</ele><time>2026-03-28T11:24:42.167Z</time></trkpt><trkpt lat="39.2505654" lon="16.7352717"><ele>1108.4285714285713</ele><time>2026-03-28T11:24:44.169Z</time></trkpt><trkpt lat="39.2506481" lon="16.7352703"><ele>1108.0</ele><time>2026-03-28T11:24:48.17Z</time></trkpt><trkpt lat="39.2507185" lon="16.7352908"><ele>1107.8</ele><time>2026-03-28T11:24:50.178Z</time></trkpt><trkpt lat="39.250817" lon="16.7353174"><ele>1107.6</ele><time>2026-03-28T11:24:52.172Z</time></trkpt><trkpt lat="39.2509461" lon="16.7353201"><ele>1107.4</ele><time>2026-03-28T11:24:54.194Z</time></trkpt><trkpt lat="39.2510099" lon="16.7353282"><ele>1107.2</ele><time>2026-03-28T11:24:55.2Z</time></trkpt><trkpt lat="39.251105" lon="16.7353922"><ele>1107.0</ele><time>2026-03-28T11:24:57.198Z</time></trkpt><trkpt lat="39.2511301" lon="16.7354748"><ele>1107.0</ele><time>2026-03-28T11:24:58.201Z</time></trkpt><trkpt lat="39.2511446" lon="16.7355634"><ele>1107.0</ele><time>2026-03-28T11:24:59.204Z</time></trkpt><trkpt lat="39.2511529" lon="16.7356575"><ele>1107.0</ele><time>2026-03-28T11:25:00.2Z</time></trkpt><trkpt lat="39.2511589" lon="16.7357426"><ele>1107.0</ele><time>2026-03-28T11:25:01.195Z</time></trkpt><trkpt lat="39.251164" lon="16.7358255"><ele>1107.0</ele><time>2026-03-28T11:25:02.168Z</time></trkpt><trkpt lat="39.2512007" lon="16.7359705"><ele>1107.0</ele><time>2026-03-28T11:25:04.178Z</time></trkpt><trkpt lat="39.2512862" lon="16.7360908"><ele>1107.75</ele><time>2026-03-28T11:25:06.177Z</time></trkpt><trkpt lat="39.251379" lon="16.7361924"><ele>1108.5</ele><time>2026-03-28T11:25:08.204Z</time></trkpt><trkpt lat="39.2514772" lon="16.736257"><ele>1109.25</ele><time>2026-03-28T11:25:10.2Z</time></trkpt><trkpt lat="39.2515694" lon="16.7363298"><ele>1110.0</ele><time>2026-03-28T11:25:12.199Z</time></trkpt><trkpt lat="39.2516578" lon="16.7364605"><ele>1108.0</ele><time>2026-03-28T11:25:14.191Z</time></trkpt><trkpt lat="39.2516941" lon="16.7365355"><ele>1106.0</ele><time>2026-03-28T11:25:15.193Z</time></trkpt><trkpt lat="39.251713" lon="16.7366781"><ele>1104.0</ele><time>2026-03-28T11:25:17.198Z</time></trkpt><trkpt lat="39.2517336" lon="16.7368006"><ele>1102.0</ele><time>2026-03-28T11:25:19.188Z</time></trkpt><trkpt lat="39.2517865" lon="16.7369336"><ele>1100.0</ele><time>2026-03-28T11:25:21.188Z</time></trkpt><trkpt lat="39.2518213" lon="16.7370028"><ele>1100.0</ele><time>2026-03-28T11:25:22.19Z</time></trkpt><trkpt lat="39.2518483" lon="16.7370802"><ele>1100.0</ele><time>2026-03-28T11:25:23.204Z</time></trkpt><trkpt lat="39.2518581" lon="16.7372356"><ele>1100.0</ele><time>2026-03-28T11:25:25.198Z</time></trkpt><trkpt lat="39.2518495" lon="16.7373663"><ele>1100.0</ele><time>2026-03-28T11:25:27.209Z</time></trkpt><trkpt lat="39.2517917" lon="16.737473"><ele>1100.0</ele><time>2026-03-28T11:25:29.199Z</time></trkpt><trkpt lat="39.2517549" lon="16.7375392"><ele>1100.0</ele><time>2026-03-28T11:25:30.197Z</time></trkpt><trkpt lat="39.2517187" lon="16.737611"><ele>1100.0</ele><time>2026-03-28T11:25:31.202Z</time></trkpt><trkpt lat="39.2516868" lon="16.7376812"><ele>1100.0</ele><time>2026-03-28T11:25:32.199Z</time></trkpt><trkpt lat="39.2516264" lon="16.7377845"><ele>1100.0</ele><time>2026-03-28T11:25:34.206Z</time></trkpt><trkpt lat="39.2515683" lon="16.7378483"><ele>1100.0</ele><time>2026-03-28T11:25:36.206Z</time></trkpt><trkpt lat="39.2515129" lon="16.7379041"><ele>1100.0</ele><time>2026-03-28T11:25:38.201Z</time></trkpt><trkpt lat="39.2514501" lon="16.7379624"><ele>1099.4</ele><time>2026-03-28T11:25:40.209Z</time></trkpt><trkpt lat="39.2513653" lon="16.7379998"><ele>1098.8</ele><time>2026-03-28T11:25:42.194Z</time></trkpt><trkpt lat="39.2512839" lon="16.7380296"><ele>1098.2</ele><time>2026-03-28T11:25:44.194Z</time></trkpt><trkpt lat="39.2511946" lon="16.7380534"><ele>1097.6</ele><time>2026-03-28T11:25:46.187Z</time></trkpt><trkpt lat="39.2511058" lon="16.7380839"><ele>1097.0</ele><time>2026-03-28T11:25:48.196Z</time></trkpt><trkpt lat="39.2509943" lon="16.7381569"><ele>1097.0</ele><time>2026-03-28T11:25:50.198Z</time></trkpt><trkpt lat="39.2509224" lon="16.7382131"><ele>1097.0</ele><time>2026-03-28T11:25:52.192Z</time></trkpt><trkpt lat="39.2508435" lon="16.7382597"><ele>1097.0</ele><time>2026-03-28T11:25:55.193Z</time></trkpt><trkpt lat="39.2508563" lon="16.7383537"><ele>1097.0</ele><time>2026-03-28T11:25:58.202Z</time></trkpt><trkpt lat="39.2509651" lon="16.7384096"><ele>1097.0</ele><time>2026-03-28T11:26:02.203Z</time></trkpt><trkpt lat="39.2510584" lon="16.7384523"><ele>1097.0</ele><time>2026-03-28T11:26:04.193Z</time></trkpt><trkpt lat="39.2511266" lon="16.7384628"><ele>1097.0</ele><time>2026-03-28T11:26:06.209Z</time></trkpt><trkpt lat="39.251194" lon="16.7384581"><ele>1097.0</ele><time>2026-03-28T11:26:08.205Z</time></trkpt><trkpt lat="39.2512586" lon="16.738426"><ele>1097.0</ele><time>2026-03-28T11:26:10.186Z</time></trkpt><trkpt lat="39.2513322" lon="16.7384019"><ele>1097.0</ele><time>2026-03-28T11:26:14.197Z</time></trkpt><trkpt lat="39.2514313" lon="16.7384135"><ele>1097.0</ele><time>2026-03-28T11:26:17.197Z</time></trkpt><trkpt lat="39.2515048" lon="16.7384235"><ele>1095.1666666666667</ele><time>2026-03-28T11:26:19.192Z</time></trkpt><trkpt lat="39.2515716" lon="16.7384144"><ele>1093.3333333333335</ele><time>2026-03-28T11:26:21.2Z</time></trkpt><trkpt lat="39.2516785" lon="16.7383969"><ele>1091.5</ele><time>2026-03-28T11:26:23.206Z</time></trkpt><trkpt lat="39.2517635" lon="16.7383767"><ele>1089.6666666666667</ele><time>2026-03-28T11:26:25.213Z</time></trkpt><trkpt lat="39.2518335" lon="16.7383596"><ele>1087.8333333333333</ele><time>2026-03-28T11:26:27.199Z</time></trkpt><trkpt lat="39.251915" lon="16.7383581"><ele>1086.0</ele><time>2026-03-28T11:26:29.193Z</time></trkpt><trkpt lat="39.2520047" lon="16.7383134"><ele>1086.0</ele><time>2026-03-28T11:26:31.211Z</time></trkpt><trkpt lat="39.2521002" lon="16.7381995"><ele>1086.0</ele><time>2026-03-28T11:26:33.196Z</time></trkpt><trkpt lat="39.2521428" lon="16.7381343"><ele>1086.0</ele><time>2026-03-28T11:26:34.199Z</time></trkpt><trkpt lat="39.2521872" lon="16.7380761"><ele>1086.0</ele><time>2026-03-28T11:26:35.191Z</time></trkpt><trkpt lat="39.2522609" lon="16.7379749"><ele>1086.0</ele><time>2026-03-28T11:26:37.194Z</time></trkpt><trkpt lat="39.2523168" lon="16.7378683"><ele>1083.3333333333333</ele><time>2026-03-28T11:26:39.199Z</time></trkpt><trkpt lat="39.2523946" lon="16.7378451"><ele>1080.6666666666667</ele><time>2026-03-28T11:26:41.212Z</time></trkpt><trkpt lat="39.2524871" lon="16.7379111"><ele>1078.0</ele><time>2026-03-28T11:26:43.192Z</time></trkpt><trkpt lat="39.2525803" lon="16.7379922"><ele>1075.3333333333335</ele><time>2026-03-28T11:26:45.199Z</time></trkpt><trkpt lat="39.2526378" lon="16.7380326"><ele>1072.6666666666667</ele><time>2026-03-28T11:26:46.202Z</time></trkpt><trkpt lat="39.2527074" lon="16.7380738"><ele>1070.0</ele><time>2026-03-28T11:26:47.198Z</time></trkpt><trkpt lat="39.2527738" lon="16.7381224"><ele>1070.0</ele><time>2026-03-28T11:26:48.197Z</time></trkpt><trkpt lat="39.2528329" lon="16.7381754"><ele>1070.0</ele><time>2026-03-28T11:26:49.205Z</time></trkpt><trkpt lat="39.2529311" lon="16.7382709"><ele>1070.0</ele><time>2026-03-28T11:26:51.197Z</time></trkpt><trkpt lat="39.2529837" lon="16.7383285"><ele>1070.0</ele><time>2026-03-28T11:26:52.205Z</time></trkpt><trkpt lat="39.2529713" lon="16.7384083"><ele>1070.0</ele><time>2026-03-28T11:26:54.191Z</time></trkpt><trkpt lat="39.252924" lon="16.7385406"><ele>1070.0</ele><time>2026-03-28T11:26:56.201Z</time></trkpt><trkpt lat="39.2529343" lon="16.738676"><ele>1068.1666666666667</ele><time>2026-03-28T11:26:58.193Z</time></trkpt><trkpt lat="39.2529377" lon="16.7387628"><ele>1066.3333333333335</ele><time>2026-03-28T11:27:00.187Z</time></trkpt><trkpt lat="39.2529962" lon="16.7388149"><ele>1064.5</ele><time>2026-03-28T11:27:03.194Z</time></trkpt><trkpt lat="39.2530695" lon="16.7387415"><ele>1062.6666666666667</ele><time>2026-03-28T11:27:06.198Z</time></trkpt><trkpt lat="39.2531457" lon="16.7386687"><ele>1060.8333333333333</ele><time>2026-03-28T11:27:08.213Z</time></trkpt><trkpt lat="39.2532469" lon="16.7385997"><ele>1059.0</ele><time>2026-03-28T11:27:10.194Z</time></trkpt><trkpt lat="39.2533453" lon="16.7385505"><ele>1059.0</ele><time>2026-03-28T11:27:12.205Z</time></trkpt><trkpt lat="39.2534501" lon="16.7384818"><ele>1059.0</ele><time>2026-03-28T11:27:14.204Z</time></trkpt><trkpt lat="39.2535294" lon="16.7384104"><ele>1059.0</ele><time>2026-03-28T11:27:16.196Z</time></trkpt><trkpt lat="39.2535889" lon="16.7383267"><ele>1059.0</ele><time>2026-03-28T11:27:18.197Z</time></trkpt><trkpt lat="39.2536566" lon="16.7382989"><ele>1059.0</ele><time>2026-03-28T11:27:20.204Z</time></trkpt><trkpt lat="39.2537603" lon="16.7383958"><ele>1059.0</ele><time>2026-03-28T11:27:22.206Z</time></trkpt><trkpt lat="39.2538255" lon="16.7384612"><ele>1059.0</ele><time>2026-03-28T11:27:23.208Z</time></trkpt><trkpt lat="39.2538919" lon="16.7385248"><ele>1059.0</ele><time>2026-03-28T11:27:24.187Z</time></trkpt><trkpt lat="39.253956" lon="16.7385867"><ele>1059.0</ele><time>2026-03-28T11:27:25.213Z</time></trkpt><trkpt lat="39.2540145" lon="16.7386389"><ele>1059.0</ele><time>2026-03-28T11:27:26.186Z</time></trkpt><trkpt lat="39.2541251" lon="16.7386971"><ele>1059.0</ele><time>2026-03-28T11:27:28.209Z</time></trkpt><trkpt lat="39.2542503" lon="16.7386539"><ele>1058.0</ele><time>2026-03-28T11:27:30.207Z</time></trkpt><trkpt lat="39.2543162" lon="16.7385935"><ele>1057.0</ele><time>2026-03-28T11:27:31.19Z</time></trkpt><trkpt lat="39.2543745" lon="16.7385151"><ele>1056.0</ele><time>2026-03-28T11:27:32.196Z</time></trkpt><trkpt lat="39.2544318" lon="16.7384226"><ele>1055.0</ele><time>2026-03-28T11:27:33.196Z</time></trkpt><trkpt lat="39.254485" lon="16.7383293"><ele>1054.0</ele><time>2026-03-28T11:27:34.194Z</time></trkpt><trkpt lat="39.2545404" lon="16.7382321"><ele>1053.0</ele><time>2026-03-28T11:27:35.198Z</time></trkpt><trkpt lat="39.2545962" lon="16.7381311"><ele>1053.0</ele><time>2026-03-28T11:27:36.213Z</time></trkpt><trkpt lat="39.2546469" lon="16.7380359"><ele>1053.0</ele><time>2026-03-28T11:27:37.197Z</time></trkpt><trkpt lat="39.2546996" lon="16.7379563"><ele>1053.0</ele><time>2026-03-28T11:27:38.196Z</time></trkpt><trkpt lat="39.2547923" lon="16.737965"><ele>1053.0</ele><time>2026-03-28T11:27:40.2Z</time></trkpt><trkpt lat="39.254859" lon="16.7381093"><ele>1053.0</ele><time>2026-03-28T11:27:42.207Z</time></trkpt><trkpt lat="39.2548995" lon="16.7381989"><ele>1051.1666666666667</ele><time>2026-03-28T11:27:43.198Z</time></trkpt><trkpt lat="39.2549362" lon="16.7382842"><ele>1049.3333333333333</ele><time>2026-03-28T11:27:44.2Z</time></trkpt><trkpt lat="39.2549832" lon="16.7383739"><ele>1047.5</ele><time>2026-03-28T11:27:46.211Z</time></trkpt><trkpt lat="39.2549862" lon="16.7384705"><ele>1045.6666666666665</ele><time>2026-03-28T11:28:01.208Z</time></trkpt><trkpt lat="39.255017" lon="16.7385815"><ele>1043.8333333333333</ele><time>2026-03-28T11:29:40.19Z</time></trkpt><trkpt lat="39.2549989" lon="16.7384934"><ele>1042.0</ele><time>2026-03-28T11:29:56.203Z</time></trkpt><trkpt lat="39.2550322" lon="16.7384161"><ele>1042.0</ele><time>2026-03-28T11:30:00.202Z</time></trkpt><trkpt lat="39.2550895" lon="16.7383473"><ele>1042.0</ele><time>2026-03-28T11:30:08.209Z</time></trkpt><trkpt lat="39.2551351" lon="16.7382792"><ele>1042.0</ele><time>2026-03-28T11:30:12.194Z</time></trkpt><trkpt lat="39.2551902" lon="16.7382149"><ele>1042.0</ele><time>2026-03-28T11:30:17.199Z</time></trkpt><trkpt lat="39.2552537" lon="16.7382382"><ele>1042.0</ele><time>2026-03-28T11:30:21.203Z</time></trkpt><trkpt lat="39.2553127" lon="16.7382768"><ele>1042.0</ele><time>2026-03-28T11:30:27.212Z</time></trkpt><trkpt lat="39.2553706" lon="16.7383276"><ele>1042.0</ele><time>2026-03-28T11:30:34.191Z</time></trkpt><trkpt lat="39.2554192" lon="16.7384041"><ele>1042.0</ele><time>2026-03-28T11:30:41.197Z</time></trkpt><trkpt lat="39.2554657" lon="16.7384863"><ele>1042.0</ele><time>2026-03-28T11:30:43.198Z</time></trkpt><trkpt lat="39.2554666" lon="16.7386156"><ele>1042.0</ele><time>2026-03-28T11:30:45.202Z</time></trkpt><trkpt lat="39.2553815" lon="16.7387263"><ele>1042.0</ele><time>2026-03-28T11:30:47.202Z</time></trkpt><trkpt lat="39.2552952" lon="16.7388395"><ele>1042.0</ele><time>2026-03-28T11:30:49.197Z</time></trkpt><trkpt lat="39.2552569" lon="16.7389083"><ele>1039.6</ele><time>2026-03-28T11:30:50.19Z</time></trkpt><trkpt lat="39.2552062" lon="16.7390386"><ele>1037.2</ele><time>2026-03-28T11:30:52.202Z</time></trkpt><trkpt lat="39.2551474" lon="16.7391734"><ele>1034.8</ele><time>2026-03-28T11:30:54.198Z</time></trkpt><trkpt lat="39.2551068" lon="16.7392567"><ele>1032.4</ele><time>2026-03-28T11:30:55.19Z</time></trkpt><trkpt lat="39.2550626" lon="16.739337"><ele>1030.0</ele><time>2026-03-28T11:30:56.201Z</time></trkpt><trkpt lat="39.2550107" lon="16.7394262"><ele>1025.5</ele><time>2026-03-28T11:30:57.193Z</time></trkpt><trkpt lat="39.2549591" lon="16.7395121"><ele>1021.0</ele><time>2026-03-28T11:30:58.192Z</time></trkpt><trkpt lat="39.2549061" lon="16.7396032"><ele>1016.5</ele><time>2026-03-28T11:30:59.212Z</time></trkpt><trkpt lat="39.2548662" lon="16.7396892"><ele>1012.0</ele><time>2026-03-28T11:31:00.199Z</time></trkpt><trkpt lat="39.2548383" lon="16.7397705"><ele>1007.4999999999999</ele><time>2026-03-28T11:31:01.187Z</time></trkpt><trkpt lat="39.2548317" lon="16.7399221"><ele>1003.0</ele><time>2026-03-28T11:31:03.202Z</time></trkpt><trkpt lat="39.2548203" lon="16.7400441"><ele>1006.1666666666666</ele><time>2026-03-28T11:31:05.19Z</time></trkpt><trkpt lat="39.2547497" lon="16.7400827"><ele>1009.3333333333333</ele><time>2026-03-28T11:31:07.212Z</time></trkpt><trkpt lat="39.2546678" lon="16.74007"><ele>1012.5</ele><time>2026-03-28T11:31:09.2Z</time></trkpt><trkpt lat="39.2546001" lon="16.7400701"><ele>1015.6666666666667</ele><time>2026-03-28T11:31:11.212Z</time></trkpt><trkpt lat="39.2545325" lon="16.7400712"><ele>1018.8333333333334</ele><time>2026-03-28T11:31:13.2Z</time></trkpt><trkpt lat="39.2544634" lon="16.7400804"><ele>1022.0</ele><time>2026-03-28T11:31:15.197Z</time></trkpt><trkpt lat="39.2543712" lon="16.7400855"><ele>1022.0000000000001</ele><time>2026-03-28T11:31:17.222Z</time></trkpt><trkpt lat="39.2542845" lon="16.7400783"><ele>1022.0</ele><time>2026-03-28T11:31:19.198Z</time></trkpt><trkpt lat="39.2542195" lon="16.7400948"><ele>1022.0</ele><time>2026-03-28T11:31:21.194Z</time></trkpt><trkpt lat="39.2541945" lon="16.7402105"><ele>1022.0</ele><time>2026-03-28T11:31:23.196Z</time></trkpt><trkpt lat="39.2542062" lon="16.7403105"><ele>1022.0000000000001</ele><time>2026-03-28T11:31:24.213Z</time></trkpt><trkpt lat="39.2542211" lon="16.7404281"><ele>1022.0</ele><time>2026-03-28T11:31:25.2Z</time></trkpt><trkpt lat="39.2542414" lon="16.7405323"><ele>1019.1666666666667</ele><time>2026-03-28T11:31:26.197Z</time></trkpt><trkpt lat="39.254256" lon="16.7406213"><ele>1016.3333333333334</ele><time>2026-03-28T11:31:27.194Z</time></trkpt><trkpt lat="39.2542427" lon="16.7407801"><ele>1013.5</ele><time>2026-03-28T11:31:29.182Z</time></trkpt><trkpt lat="39.2542063" lon="16.7408774"><ele>1010.6666666666667</ele><time>2026-03-28T11:31:30.194Z</time></trkpt><trkpt lat="39.2541485" lon="16.7409534"><ele>1007.8333333333334</ele><time>2026-03-28T11:31:31.188Z</time></trkpt><trkpt lat="39.2540793" lon="16.7410014"><ele>1005.0</ele><time>2026-03-28T11:31:32.192Z</time></trkpt><trkpt lat="39.2540048" lon="16.7410348"><ele>1006.5</ele><time>2026-03-28T11:31:33.199Z</time></trkpt><trkpt lat="39.2539231" lon="16.7410725"><ele>1008.0</ele><time>2026-03-28T11:31:34.198Z</time></trkpt><trkpt lat="39.2538423" lon="16.7411284"><ele>1009.5</ele><time>2026-03-28T11:31:35.197Z</time></trkpt><trkpt lat="39.2537583" lon="16.7411936"><ele>1011.0</ele><time>2026-03-28T11:31:36.21Z</time></trkpt><trkpt lat="39.2536834" lon="16.7412442"><ele>1012.5</ele><time>2026-03-28T11:31:37.206Z</time></trkpt><trkpt lat="39.2536085" lon="16.7412663"><ele>1014.0</ele><time>2026-03-28T11:31:38.197Z</time></trkpt><trkpt lat="39.2535348" lon="16.741265"><ele>1014.0</ele><time>2026-03-28T11:31:39.185Z</time></trkpt><trkpt lat="39.2534615" lon="16.741269"><ele>1014.0</ele><time>2026-03-28T11:31:40.19Z</time></trkpt><trkpt lat="39.2533935" lon="16.7412898"><ele>1014.0</ele><time>2026-03-28T11:31:41.201Z</time></trkpt><trkpt lat="39.2533214" lon="16.7413234"><ele>1014.0</ele><time>2026-03-28T11:31:42.201Z</time></trkpt><trkpt lat="39.2532294" lon="16.7413661"><ele>1014.0</ele><time>2026-03-28T11:31:44.197Z</time></trkpt><trkpt lat="39.2532401" lon="16.741454"><ele>1014.0</ele><time>2026-03-28T11:31:47.202Z</time></trkpt><trkpt lat="39.2533249" lon="16.7415117"><ele>1014.0</ele><time>2026-03-28T11:31:49.195Z</time></trkpt><trkpt lat="39.2534016" lon="16.7415997"><ele>1014.0</ele><time>2026-03-28T11:31:51.196Z</time></trkpt><trkpt lat="39.2534474" lon="16.741664"><ele>1014.0</ele><time>2026-03-28T11:31:52.199Z</time></trkpt><trkpt lat="39.2535019" lon="16.7417267"><ele>1014.0</ele><time>2026-03-28T11:31:53.183Z</time></trkpt><trkpt lat="39.2535717" lon="16.7417838"><ele>1014.0</ele><time>2026-03-28T11:31:54.194Z</time></trkpt><trkpt lat="39.2536549" lon="16.7418357"><ele>1014.0</ele><time>2026-03-28T11:31:55.199Z</time></trkpt><trkpt lat="39.2537419" lon="16.7418895"><ele>1013.8000000000001</ele><time>2026-03-28T11:31:56.197Z</time></trkpt><trkpt lat="39.253828" lon="16.7419481"><ele>1013.6000000000001</ele><time>2026-03-28T11:31:57.202Z</time></trkpt><trkpt lat="39.2539126" lon="16.7420134"><ele>1013.4</ele><time>2026-03-28T11:31:58.225Z</time></trkpt><trkpt lat="39.2539929" lon="16.7421009"><ele>1013.2</ele><time>2026-03-28T11:31:59.207Z</time></trkpt><trkpt lat="39.2540649" lon="16.7421924"><ele>1013.0</ele><time>2026-03-28T11:32:00.195Z</time></trkpt><trkpt lat="39.2541326" lon="16.7422727"><ele>1009.3333333333334</ele><time>2026-03-28T11:32:01.194Z</time></trkpt><trkpt lat="39.2541884" lon="16.7423541"><ele>1005.6666666666667</ele><time>2026-03-28T11:32:02.198Z</time></trkpt><trkpt lat="39.2542308" lon="16.742441"><ele>1002.0</ele><time>2026-03-28T11:32:03.195Z</time></trkpt><trkpt lat="39.2542647" lon="16.7425402"><ele>998.3333333333333</ele><time>2026-03-28T11:32:04.188Z</time></trkpt><trkpt lat="39.2542697" lon="16.7426455"><ele>994.6666666666666</ele><time>2026-03-28T11:32:05.186Z</time></trkpt><trkpt lat="39.2542593" lon="16.7427421"><ele>991.0</ele><time>2026-03-28T11:32:06.199Z</time></trkpt><trkpt lat="39.254228" lon="16.7428307"><ele>989.9999999999999</ele><time>2026-03-28T11:32:07.196Z</time></trkpt><trkpt lat="39.2541831" lon="16.7429098"><ele>989.0</ele><time>2026-03-28T11:32:08.193Z</time></trkpt><trkpt lat="39.2541408" lon="16.7429948"><ele>988.0</ele><time>2026-03-28T11:32:09.211Z</time></trkpt><trkpt lat="39.2541054" lon="16.7430823"><ele>987.0</ele><time>2026-03-28T11:32:10.205Z</time></trkpt><trkpt lat="39.2540664" lon="16.7431692"><ele>985.9999999999999</ele><time>2026-03-28T11:32:11.196Z</time></trkpt><trkpt lat="39.2540221" lon="16.7432462"><ele>985.0</ele><time>2026-03-28T11:32:12.19Z</time></trkpt><trkpt lat="39.2539647" lon="16.7433739"><ele>983.9999999999999</ele><time>2026-03-28T11:32:14.214Z</time></trkpt><trkpt lat="39.2539501" lon="16.7434953"><ele>983.0</ele><time>2026-03-28T11:32:16.194Z</time></trkpt><trkpt lat="39.2540025" lon="16.7436055"><ele>982.0</ele><time>2026-03-28T11:32:29.206Z</time></trkpt><trkpt lat="39.254061" lon="16.7436537"><ele>981.0</ele><time>2026-03-28T11:32:34.195Z</time></trkpt><trkpt lat="39.2541246" lon="16.7436749"><ele>979.9999999999999</ele><time>2026-03-28T11:32:41.196Z</time></trkpt><trkpt lat="39.2541931" lon="16.7436899"><ele>979.0</ele><time>2026-03-28T11:32:50.209Z</time></trkpt><trkpt lat="39.2541919" lon="16.7437857"><ele>978.9999999999999</ele><time>2026-03-28T11:32:53.199Z</time></trkpt><trkpt lat="39.2541763" lon="16.7438687"><ele>979.0</ele><time>2026-03-28T11:32:55.198Z</time></trkpt><trkpt lat="39.2541803" lon="16.7439726"><ele>979.0</ele><time>2026-03-28T11:32:58.199Z</time></trkpt><trkpt lat="39.254165" lon="16.7440521"><ele>979.0</ele><time>2026-03-28T11:33:01.206Z</time></trkpt><trkpt lat="39.2541825" lon="16.744171"><ele>978.9999999999999</ele><time>2026-03-28T11:33:05.197Z</time></trkpt><trkpt lat="39.2542035" lon="16.744267"><ele>979.0</ele><time>2026-03-28T11:33:07.194Z</time></trkpt><trkpt lat="39.2542048" lon="16.7443619"><ele>978.1428571428571</ele><time>2026-03-28T11:33:09.213Z</time></trkpt><trkpt lat="39.2542627" lon="16.7444232"><ele>977.2857142857143</ele><time>2026-03-28T11:33:12.199Z</time></trkpt><trkpt lat="39.254327" lon="16.7444162"><ele>976.4285714285714</ele><time>2026-03-28T11:33:15.208Z</time></trkpt><trkpt lat="39.2543594" lon="16.7444876"><ele>975.5714285714286</ele><time>2026-03-28T11:33:17.196Z</time></trkpt><trkpt lat="39.2543839" lon="16.7445875"><ele>974.7142857142858</ele><time>2026-03-28T11:33:19.184Z</time></trkpt><trkpt lat="39.2544414" lon="16.7446675"><ele>973.8571428571429</ele><time>2026-03-28T11:33:22.208Z</time></trkpt><trkpt lat="39.2544678" lon="16.744745"><ele>973.0</ele><time>2026-03-28T11:33:33.182Z</time></trkpt><trkpt lat="39.2544658" lon="16.7448498"><ele>972.9999999999999</ele><time>2026-03-28T11:33:37.198Z</time></trkpt><trkpt lat="39.254494" lon="16.7449585"><ele>973.0</ele><time>2026-03-28T11:33:39.201Z</time></trkpt><trkpt lat="39.2545364" lon="16.7450877"><ele>973.0</ele><time>2026-03-28T11:33:41.197Z</time></trkpt><trkpt lat="39.254597" lon="16.7452008"><ele>973.0</ele><time>2026-03-28T11:33:43.198Z</time></trkpt><trkpt lat="39.2546472" lon="16.7452563"><ele>972.9999999999999</ele><time>2026-03-28T11:33:44.202Z</time></trkpt><trkpt lat="39.2547061" lon="16.7453128"><ele>973.0</ele><time>2026-03-28T11:33:45.202Z</time></trkpt><trkpt lat="39.254767" lon="16.7453712"><ele>973.8333333333333</ele><time>2026-03-28T11:33:46.206Z</time></trkpt><trkpt lat="39.2548343" lon="16.7454283"><ele>974.6666666666666</ele><time>2026-03-28T11:33:47.196Z</time></trkpt><trkpt lat="39.2549003" lon="16.7454843"><ele>975.5</ele><time>2026-03-28T11:33:48.203Z</time></trkpt><trkpt lat="39.2549604" lon="16.7455389"><ele>976.3333333333333</ele><time>2026-03-28T11:33:49.204Z</time></trkpt><trkpt lat="39.255018" lon="16.7455881"><ele>977.1666666666666</ele><time>2026-03-28T11:33:50.205Z</time></trkpt><trkpt lat="39.2550718" lon="16.7456339"><ele>978.0</ele><time>2026-03-28T11:33:51.204Z</time></trkpt><trkpt lat="39.2551508" lon="16.7457402"><ele>978.0</ele><time>2026-03-28T11:33:53.205Z</time></trkpt><trkpt lat="39.2551464" lon="16.7459036"><ele>978.0</ele><time>2026-03-28T11:33:55.203Z</time></trkpt><trkpt lat="39.255129" lon="16.745998"><ele>978.0</ele><time>2026-03-28T11:33:56.197Z</time></trkpt><trkpt lat="39.2551103" lon="16.7460995"><ele>978.0</ele><time>2026-03-28T11:33:57.196Z</time></trkpt><trkpt lat="39.2550934" lon="16.7461984"><ele>978.0</ele><time>2026-03-28T11:33:58.184Z</time></trkpt><trkpt lat="39.255085" lon="16.7462887"><ele>978.0</ele><time>2026-03-28T11:33:59.206Z</time></trkpt><trkpt lat="39.2550794" lon="16.7464424"><ele>977.8333333333334</ele><time>2026-03-28T11:34:01.198Z</time></trkpt><trkpt lat="39.2550654" lon="16.7465596"><ele>977.6666666666667</ele><time>2026-03-28T11:34:03.202Z</time></trkpt><trkpt lat="39.2550506" lon="16.7466402"><ele>977.5</ele><time>2026-03-28T11:34:05.198Z</time></trkpt><trkpt lat="39.2550348" lon="16.746745"><ele>977.3333333333334</ele><time>2026-03-28T11:34:13.223Z</time></trkpt><trkpt lat="39.2550301" lon="16.7468574"><ele>977.1666666666667</ele><time>2026-03-28T11:34:16.207Z</time></trkpt><trkpt lat="39.2550267" lon="16.7469631"><ele>977.0</ele><time>2026-03-28T11:34:20.194Z</time></trkpt><trkpt lat="39.255019" lon="16.7470744"><ele>977.0</ele><time>2026-03-28T11:34:34.197Z</time></trkpt><trkpt lat="39.2550034" lon="16.747154"><ele>977.0</ele><time>2026-03-28T11:34:36.197Z</time></trkpt><trkpt lat="39.2549738" lon="16.7472731"><ele>977.0</ele><time>2026-03-28T11:34:38.203Z</time></trkpt><trkpt lat="39.254959" lon="16.7474302"><ele>977.0</ele><time>2026-03-28T11:34:40.201Z</time></trkpt><trkpt lat="39.2549699" lon="16.7475293"><ele>977.0</ele><time>2026-03-28T11:34:41.202Z</time></trkpt><trkpt lat="39.2549869" lon="16.7476511"><ele>977.2</ele><time>2026-03-28T11:34:42.208Z</time></trkpt><trkpt lat="39.254996" lon="16.7477819"><ele>977.4000000000001</ele><time>2026-03-28T11:34:43.203Z</time></trkpt><trkpt lat="39.2550061" lon="16.7479171"><ele>977.5999999999999</ele><time>2026-03-28T11:34:44.198Z</time></trkpt><trkpt lat="39.2550212" lon="16.7480539"><ele>977.8</ele><time>2026-03-28T11:34:45.2Z</time></trkpt><trkpt lat="39.2550332" lon="16.7481799"><ele>978.0</ele><time>2026-03-28T11:34:46.2Z</time></trkpt><trkpt lat="39.2550414" lon="16.7482939"><ele>978.0</ele><time>2026-03-28T11:34:47.204Z</time></trkpt><trkpt lat="39.2550485" lon="16.7483964"><ele>978.0</ele><time>2026-03-28T11:34:48.195Z</time></trkpt><trkpt lat="39.2550567" lon="16.748483"><ele>978.0</ele><time>2026-03-28T11:34:49.202Z</time></trkpt><trkpt lat="39.2550765" lon="16.7486041"><ele>978.0</ele><time>2026-03-28T11:34:51.222Z</time></trkpt><trkpt lat="39.2550852" lon="16.7486988"><ele>978.0</ele><time>2026-03-28T11:34:53.196Z</time></trkpt><trkpt lat="39.255101" lon="16.7488159"><ele>978.0</ele><time>2026-03-28T11:34:55.201Z</time></trkpt><trkpt lat="39.2551278" lon="16.7489426"><ele>978.0</ele><time>2026-03-28T11:34:57.198Z</time></trkpt><trkpt lat="39.2551454" lon="16.7490795"><ele>978.0</ele><time>2026-03-28T11:34:59.207Z</time></trkpt><trkpt lat="39.2552013" lon="16.7492167"><ele>978.0</ele><time>2026-03-28T11:35:01.204Z</time></trkpt><trkpt lat="39.2552402" lon="16.7492813"><ele>978.0</ele><time>2026-03-28T11:35:02.192Z</time></trkpt><trkpt lat="39.2552815" lon="16.7493502"><ele>978.0</ele><time>2026-03-28T11:35:03.202Z</time></trkpt><trkpt lat="39.2553298" lon="16.7494186"><ele>978.0</ele><time>2026-03-28T11:35:04.201Z</time></trkpt><trkpt lat="39.2553872" lon="16.7494806"><ele>978.5</ele><time>2026-03-28T11:35:05.2Z</time></trkpt><trkpt lat="39.2554395" lon="16.7495503"><ele>979.0</ele><time>2026-03-28T11:35:06.204Z</time></trkpt><trkpt lat="39.2554771" lon="16.7496266"><ele>979.5</ele><time>2026-03-28T11:35:07.196Z</time></trkpt><trkpt lat="39.2555182" lon="16.7496919"><ele>980.0</ele><time>2026-03-28T11:35:08.209Z</time></trkpt><trkpt lat="39.2555971" lon="16.749807"><ele>980.5</ele><time>2026-03-28T11:35:10.196Z</time></trkpt><trkpt lat="39.2556299" lon="16.7499355"><ele>981.0</ele><time>2026-03-28T11:35:12.188Z</time></trkpt><trkpt lat="39.255612" lon="16.7500789"><ele>980.8333333333334</ele><time>2026-03-28T11:35:14.19Z</time></trkpt><trkpt lat="39.2555988" lon="16.7502406"><ele>980.6666666666667</ele><time>2026-03-28T11:35:16.192Z</time></trkpt><trkpt lat="39.2555989" lon="16.7503243"><ele>980.5</ele><time>2026-03-28T11:35:17.201Z</time></trkpt><trkpt lat="39.2556038" lon="16.7504075"><ele>980.3333333333334</ele><time>2026-03-28T11:35:18.194Z</time></trkpt><trkpt lat="39.2555999" lon="16.75049"><ele>980.1666666666667</ele><time>2026-03-28T11:35:19.178Z</time></trkpt><trkpt lat="39.2555938" lon="16.7505766"><ele>980.0</ele><time>2026-03-28T11:35:20.194Z</time></trkpt><trkpt lat="39.2555874" lon="16.750664"><ele>980.0</ele><time>2026-03-28T11:35:21.192Z</time></trkpt><trkpt lat="39.2555808" lon="16.7507494"><ele>980.0</ele><time>2026-03-28T11:35:22.191Z</time></trkpt><trkpt lat="39.2555904" lon="16.7508349"><ele>980.0</ele><time>2026-03-28T11:35:23.191Z</time></trkpt><trkpt lat="39.2556133" lon="16.7509191"><ele>980.0</ele><time>2026-03-28T11:35:24.197Z</time></trkpt><trkpt lat="39.2556369" lon="16.751003"><ele>980.0</ele><time>2026-03-28T11:35:25.203Z</time></trkpt><trkpt lat="39.2556583" lon="16.7510881"><ele>980.0</ele><time>2026-03-28T11:35:26.198Z</time></trkpt><trkpt lat="39.2556636" lon="16.7512205"><ele>980.0</ele><time>2026-03-28T11:35:28.196Z</time></trkpt><trkpt lat="39.2556668" lon="16.7513331"><ele>979.4285714285714</ele><time>2026-03-28T11:35:30.208Z</time></trkpt><trkpt lat="39.2556549" lon="16.7514213"><ele>978.8571428571429</ele><time>2026-03-28T11:35:32.202Z</time></trkpt><trkpt lat="39.2556124" lon="16.7515036"><ele>978.2857142857142</ele><time>2026-03-28T11:35:34.201Z</time></trkpt><trkpt lat="39.2555434" lon="16.7515661"><ele>977.7142857142857</ele><time>2026-03-28T11:35:36.196Z</time></trkpt><trkpt lat="39.2554795" lon="16.7515978"><ele>977.1428571428571</ele><time>2026-03-28T11:35:38.198Z</time></trkpt><trkpt lat="39.2554077" lon="16.7516378"><ele>976.5714285714284</ele><time>2026-03-28T11:35:45.201Z</time></trkpt><trkpt lat="39.2553527" lon="16.7516774"><ele>975.9999999999999</ele><time>2026-03-28T11:35:51.2Z</time></trkpt><trkpt lat="39.2553158" lon="16.7517436"><ele>975.9999999999999</ele><time>2026-03-28T11:35:56.197Z</time></trkpt><trkpt lat="39.2552491" lon="16.751788"><ele>976.0</ele><time>2026-03-28T11:36:02.198Z</time></trkpt><trkpt lat="39.2551688" lon="16.7518243"><ele>975.9999999999999</ele><time>2026-03-28T11:36:06.199Z</time></trkpt><trkpt lat="39.2551127" lon="16.7518617"><ele>975.9999999999999</ele><time>2026-03-28T11:36:09.198Z</time></trkpt><trkpt lat="39.2550327" lon="16.7519052"><ele>976.0</ele><time>2026-03-28T11:36:12.194Z</time></trkpt><trkpt lat="39.2549674" lon="16.7519239"><ele>975.9999999999999</ele><time>2026-03-28T11:36:16.205Z</time></trkpt><trkpt lat="39.2549081" lon="16.7519702"><ele>975.9999999999999</ele><time>2026-03-28T11:36:23.203Z</time></trkpt><trkpt lat="39.2548489" lon="16.7520207"><ele>974.6666666666666</ele><time>2026-03-28T11:36:27.192Z</time></trkpt><trkpt lat="39.2548383" lon="16.7521011"><ele>973.3333333333333</ele><time>2026-03-28T11:36:31.201Z</time></trkpt><trkpt lat="39.2548497" lon="16.7522121"><ele>972.0</ele><time>2026-03-28T11:36:35.197Z</time></trkpt><trkpt lat="39.2548173" lon="16.7523139"><ele>970.6666666666667</ele><time>2026-03-28T11:36:38.196Z</time></trkpt><trkpt lat="39.2547772" lon="16.7523779"><ele>969.3333333333334</ele><time>2026-03-28T11:36:40.202Z</time></trkpt><trkpt lat="39.2547358" lon="16.7524627"><ele>968.0</ele><time>2026-03-28T11:36:43.194Z</time></trkpt><trkpt lat="39.2547016" lon="16.7525529"><ele>964.8333333333334</ele><time>2026-03-28T11:36:46.22Z</time></trkpt><trkpt lat="39.254665" lon="16.7526418"><ele>961.6666666666667</ele><time>2026-03-28T11:36:49.206Z</time></trkpt><trkpt lat="39.2546144" lon="16.7527056"><ele>958.5</ele><time>2026-03-28T11:36:52.198Z</time></trkpt><trkpt lat="39.2545417" lon="16.7527556"><ele>955.3333333333333</ele><time>2026-03-28T11:36:55.199Z</time></trkpt><trkpt lat="39.2544499" lon="16.7527512"><ele>952.1666666666666</ele><time>2026-03-28T11:36:58.197Z</time></trkpt><trkpt lat="39.2543708" lon="16.7527661"><ele>949.0</ele><time>2026-03-28T11:37:01.2Z</time></trkpt><trkpt lat="39.2543841" lon="16.7528908"><ele>947.857142857143</ele><time>2026-03-28T11:37:04.206Z</time></trkpt><trkpt lat="39.2544164" lon="16.7529644"><ele>946.7142857142858</ele><time>2026-03-28T11:37:06.193Z</time></trkpt><trkpt lat="39.2544502" lon="16.7530532"><ele>945.5714285714286</ele><time>2026-03-28T11:37:09.202Z</time></trkpt><trkpt lat="39.2544798" lon="16.753129"><ele>944.4285714285714</ele><time>2026-03-28T11:37:12.199Z</time></trkpt><trkpt lat="39.2544619" lon="16.753213"><ele>943.2857142857142</ele><time>2026-03-28T11:37:15.201Z</time></trkpt><trkpt lat="39.2543943" lon="16.7532075"><ele>942.142857142857</ele><time>2026-03-28T11:37:17.189Z</time></trkpt><trkpt lat="39.254325" lon="16.7531671"><ele>940.9999999999999</ele><time>2026-03-28T11:37:19.203Z</time></trkpt><trkpt lat="39.254257" lon="16.7531105"><ele>941.0000000000001</ele><time>2026-03-28T11:37:21.201Z</time></trkpt><trkpt lat="39.2541883" lon="16.7530362"><ele>941.0</ele><time>2026-03-28T11:37:23.228Z</time></trkpt><trkpt lat="39.2541196" lon="16.7529829"><ele>941.0</ele><time>2026-03-28T11:37:25.2Z</time></trkpt><trkpt lat="39.2540576" lon="16.7529387"><ele>941.0</ele><time>2026-03-28T11:37:27.201Z</time></trkpt><trkpt lat="39.25399" lon="16.7528942"><ele>941.0000000000001</ele><time>2026-03-28T11:37:29.206Z</time></trkpt><trkpt lat="39.2539216" lon="16.7528501"><ele>941.0</ele><time>2026-03-28T11:37:31.192Z</time></trkpt><trkpt lat="39.2538589" lon="16.7528143"><ele>939.0000000000001</ele><time>2026-03-28T11:37:33.198Z</time></trkpt><trkpt lat="39.2537897" lon="16.7528159"><ele>937.0</ele><time>2026-03-28T11:37:35.203Z</time></trkpt><trkpt lat="39.2537177" lon="16.7528506"><ele>935.0</ele><time>2026-03-28T11:37:37.221Z</time></trkpt><trkpt lat="39.2536559" lon="16.7528924"><ele>933.0</ele><time>2026-03-28T11:37:39.196Z</time></trkpt><trkpt lat="39.2535773" lon="16.7529453"><ele>931.0000000000001</ele><time>2026-03-28T11:37:48.206Z</time></trkpt><trkpt lat="39.2535232" lon="16.7530011"><ele>929.0</ele><time>2026-03-28T11:37:51.199Z</time></trkpt><trkpt lat="39.2534578" lon="16.753085"><ele>929.0000000000001</ele><time>2026-03-28T11:37:54.199Z</time></trkpt><trkpt lat="39.2534276" lon="16.7531606"><ele>929.0</ele><time>2026-03-28T11:37:56.202Z</time></trkpt><trkpt lat="39.2534776" lon="16.7532684"><ele>929.0</ele><time>2026-03-28T11:37:58.201Z</time></trkpt><trkpt lat="39.2535194" lon="16.753339"><ele>929.0</ele><time>2026-03-28T11:37:59.206Z</time></trkpt><trkpt lat="39.253567" lon="16.7534147"><ele>929.0000000000001</ele><time>2026-03-28T11:38:00.201Z</time></trkpt><trkpt lat="39.2536129" lon="16.7535035"><ele>929.0</ele><time>2026-03-28T11:38:01.2Z</time></trkpt><trkpt lat="39.2536554" lon="16.7536052"><ele>927.8333333333334</ele><time>2026-03-28T11:38:02.199Z</time></trkpt><trkpt lat="39.2536911" lon="16.7537243"><ele>926.6666666666667</ele><time>2026-03-28T11:38:03.193Z</time></trkpt><trkpt lat="39.2537158" lon="16.753844"><ele>925.5</ele><time>2026-03-28T11:38:04.201Z</time></trkpt><trkpt lat="39.2537338" lon="16.7539513"><ele>924.3333333333333</ele><time>2026-03-28T11:38:05.198Z</time></trkpt><trkpt lat="39.2537451" lon="16.7540462"><ele>923.1666666666666</ele><time>2026-03-28T11:38:06.207Z</time></trkpt><trkpt lat="39.2537496" lon="16.7541301"><ele>922.0</ele><time>2026-03-28T11:38:07.189Z</time></trkpt><trkpt lat="39.2537513" lon="16.7542865"><ele>920.6</ele><time>2026-03-28T11:38:09.199Z</time></trkpt><trkpt lat="39.2537401" lon="16.7544318"><ele>919.2</ele><time>2026-03-28T11:38:11.2Z</time></trkpt><trkpt lat="39.2537175" lon="16.7545871"><ele>917.8</ele><time>2026-03-28T11:38:13.198Z</time></trkpt><trkpt lat="39.2537039" lon="16.7547316"><ele>916.4</ele><time>2026-03-28T11:38:15.202Z</time></trkpt><trkpt lat="39.253707" lon="16.7548219"><ele>915.0</ele><time>2026-03-28T11:38:18.198Z</time></trkpt><trkpt lat="39.2537001" lon="16.7549129"><ele>915.0</ele><time>2026-03-28T11:38:25.199Z</time></trkpt><trkpt lat="39.2536973" lon="16.7549962"><ele>915.0000000000001</ele><time>2026-03-28T11:38:28.197Z</time></trkpt><trkpt lat="39.2536948" lon="16.7550816"><ele>915.0</ele><time>2026-03-28T11:38:30.197Z</time></trkpt><trkpt lat="39.2536564" lon="16.7551836"><ele>915.0</ele><time>2026-03-28T11:38:33.198Z</time></trkpt><trkpt lat="39.2536181" lon="16.7552557"><ele>915.0000000000001</ele><time>2026-03-28T11:38:35.233Z</time></trkpt><trkpt lat="39.2535946" lon="16.7553328"><ele>915.0</ele><time>2026-03-28T11:38:40.205Z</time></trkpt><trkpt lat="39.2535726" lon="16.7554137"><ele>915.0</ele><time>2026-03-28T11:38:46.205Z</time></trkpt><trkpt lat="39.2535423" lon="16.7554897"><ele>913.1666666666666</ele><time>2026-03-28T11:38:49.214Z</time></trkpt><trkpt lat="39.2535213" lon="16.7555724"><ele>911.3333333333333</ele><time>2026-03-28T11:38:54.197Z</time></trkpt><trkpt lat="39.2534574" lon="16.755547"><ele>909.5</ele><time>2026-03-28T11:39:05.206Z</time></trkpt><trkpt lat="39.2533939" lon="16.7555154"><ele>907.6666666666666</ele><time>2026-03-28T11:39:10.196Z</time></trkpt><trkpt lat="39.253317" lon="16.7554813"><ele>905.8333333333333</ele><time>2026-03-28T11:39:14.201Z</time></trkpt><trkpt lat="39.2532382" lon="16.7555461"><ele>904.0</ele><time>2026-03-28T11:39:17.211Z</time></trkpt><trkpt lat="39.2531854" lon="16.7556252"><ele>903.9999999999999</ele><time>2026-03-28T11:39:20.2Z</time></trkpt><trkpt lat="39.2531439" lon="16.7556907"><ele>904.0</ele><time>2026-03-28T11:39:28.208Z</time></trkpt><trkpt lat="39.2530991" lon="16.7557545"><ele>904.0</ele><time>2026-03-28T11:39:30.188Z</time></trkpt><trkpt lat="39.2530085" lon="16.7558126"><ele>904.0</ele><time>2026-03-28T11:39:32.204Z</time></trkpt><trkpt lat="39.2529374" lon="16.7558191"><ele>903.9999999999999</ele><time>2026-03-28T11:39:34.2Z</time></trkpt><trkpt lat="39.2528537" lon="16.7557966"><ele>904.0</ele><time>2026-03-28T11:39:42.202Z</time></trkpt><trkpt lat="39.2527808" lon="16.7557769"><ele>903.2</ele><time>2026-03-28T11:39:47.204Z</time></trkpt><trkpt lat="39.2527137" lon="16.75584"><ele>902.4000000000001</ele><time>2026-03-28T11:39:51.197Z</time></trkpt><trkpt lat="39.2526427" lon="16.7559301"><ele>901.6</ele><time>2026-03-28T11:39:54.195Z</time></trkpt><trkpt lat="39.2525912" lon="16.7560052"><ele>900.8</ele><time>2026-03-28T11:39:56.199Z</time></trkpt><trkpt lat="39.2525504" lon="16.7561101"><ele>900.0</ele><time>2026-03-28T11:39:58.205Z</time></trkpt><trkpt lat="39.2525112" lon="16.7562294"><ele>899.2</ele><time>2026-03-28T11:40:00.21Z</time></trkpt><trkpt lat="39.2524988" lon="16.7563519"><ele>898.4</ele><time>2026-03-28T11:40:02.204Z</time></trkpt><trkpt lat="39.2525369" lon="16.7564572"><ele>897.5999999999999</ele><time>2026-03-28T11:40:04.2Z</time></trkpt><trkpt lat="39.2525881" lon="16.7565957"><ele>896.8</ele><time>2026-03-28T11:40:06.195Z</time></trkpt><trkpt lat="39.2526262" lon="16.7567064"><ele>896.0</ele><time>2026-03-28T11:40:08.202Z</time></trkpt><trkpt lat="39.2526537" lon="16.7568189"><ele>895.0</ele><time>2026-03-28T11:40:10.198Z</time></trkpt><trkpt lat="39.2526847" lon="16.7569377"><ele>893.9999999999999</ele><time>2026-03-28T11:40:12.206Z</time></trkpt><trkpt lat="39.2526965" lon="16.7570651"><ele>892.9999999999999</ele><time>2026-03-28T11:40:14.205Z</time></trkpt><trkpt lat="39.2526792" lon="16.7571861"><ele>892.0</ele><time>2026-03-28T11:40:16.204Z</time></trkpt><trkpt lat="39.2526341" lon="16.7572944"><ele>891.0</ele><time>2026-03-28T11:40:18.204Z</time></trkpt><trkpt lat="39.2525715" lon="16.7573723"><ele>891.0</ele><time>2026-03-28T11:40:20.193Z</time></trkpt><trkpt lat="39.2525076" lon="16.7574332"><ele>891.0</ele><time>2026-03-28T11:40:22.201Z</time></trkpt><trkpt lat="39.2524317" lon="16.7574877"><ele>891.0</ele><time>2026-03-28T11:40:24.195Z</time></trkpt><trkpt lat="39.2523678" lon="16.7575284"><ele>891.0</ele><time>2026-03-28T11:40:26.202Z</time></trkpt><trkpt lat="39.2522834" lon="16.7575759"><ele>891.0</ele><time>2026-03-28T11:40:29.197Z</time></trkpt><trkpt lat="39.252226" lon="16.7576239"><ele>891.0</ele><time>2026-03-28T11:40:31.2Z</time></trkpt><trkpt lat="39.2521557" lon="16.7576896"><ele>889.8333333333334</ele><time>2026-03-28T11:40:34.2Z</time></trkpt><trkpt lat="39.2520939" lon="16.7577672"><ele>888.6666666666667</ele><time>2026-03-28T11:40:37.199Z</time></trkpt><trkpt lat="39.2520565" lon="16.7578402"><ele>887.5</ele><time>2026-03-28T11:40:39.202Z</time></trkpt><trkpt lat="39.2520133" lon="16.7579155"><ele>886.3333333333334</ele><time>2026-03-28T11:40:41.202Z</time></trkpt><trkpt lat="39.2519552" lon="16.7579823"><ele>885.1666666666667</ele><time>2026-03-28T11:40:43.19Z</time></trkpt><trkpt lat="39.2518804" lon="16.7580373"><ele>884.0</ele><time>2026-03-28T11:40:45.196Z</time></trkpt><trkpt lat="39.2518143" lon="16.7581104"><ele>884.0000000000001</ele><time>2026-03-28T11:40:47.198Z</time></trkpt><trkpt lat="39.2517722" lon="16.7582141"><ele>884.0</ele><time>2026-03-28T11:40:49.209Z</time></trkpt><trkpt lat="39.2517205" lon="16.758315"><ele>884.0</ele><time>2026-03-28T11:40:51.202Z</time></trkpt><trkpt lat="39.2516704" lon="16.7584167"><ele>884.0</ele><time>2026-03-28T11:40:53.195Z</time></trkpt><trkpt lat="39.2516293" lon="16.7585149"><ele>884.0000000000001</ele><time>2026-03-28T11:40:55.201Z</time></trkpt><trkpt lat="39.2515868" lon="16.7586001"><ele>884.0</ele><time>2026-03-28T11:40:57.184Z</time></trkpt><trkpt lat="39.2515671" lon="16.7586913"><ele>882.8333333333334</ele><time>2026-03-28T11:40:59.198Z</time></trkpt><trkpt lat="39.2515653" lon="16.7587792"><ele>881.6666666666667</ele><time>2026-03-28T11:41:01.198Z</time></trkpt><trkpt lat="39.2515665" lon="16.758891"><ele>880.5</ele><time>2026-03-28T11:41:04.201Z</time></trkpt><trkpt lat="39.2515168" lon="16.7589674"><ele>879.3333333333333</ele><time>2026-03-28T11:41:08.2Z</time></trkpt><trkpt lat="39.2514797" lon="16.7590412"><ele>878.1666666666666</ele><time>2026-03-28T11:41:10.205Z</time></trkpt><trkpt lat="39.2514419" lon="16.7591244"><ele>877.0</ele><time>2026-03-28T11:41:12.204Z</time></trkpt><trkpt lat="39.251404" lon="16.7592192"><ele>876.9999999999999</ele><time>2026-03-28T11:41:14.197Z</time></trkpt><trkpt lat="39.2513519" lon="16.7593131"><ele>877.0</ele><time>2026-03-28T11:41:16.2Z</time></trkpt><trkpt lat="39.2513026" lon="16.7593838"><ele>877.0</ele><time>2026-03-28T11:41:18.2Z</time></trkpt><trkpt lat="39.2512419" lon="16.7594436"><ele>877.0</ele><time>2026-03-28T11:41:21.185Z</time></trkpt><trkpt lat="39.251204" lon="16.7595091"><ele>876.9999999999999</ele><time>2026-03-28T11:41:25.196Z</time></trkpt><trkpt lat="39.2511602" lon="16.7595813"><ele>877.0</ele><time>2026-03-28T11:41:31.2Z</time></trkpt><trkpt lat="39.2510981" lon="16.7596554"><ele>875.1666666666666</ele><time>2026-03-28T11:41:34.203Z</time></trkpt><trkpt lat="39.2510499" lon="16.7597326"><ele>873.3333333333333</ele><time>2026-03-28T11:41:37.2Z</time></trkpt><trkpt lat="39.2510125" lon="16.7598156"><ele>871.5</ele><time>2026-03-28T11:41:41.201Z</time></trkpt><trkpt lat="39.2509764" lon="16.7599027"><ele>869.6666666666667</ele><time>2026-03-28T11:41:46.187Z</time></trkpt><trkpt lat="39.2509411" lon="16.7599973"><ele>867.8333333333334</ele><time>2026-03-28T11:41:51.2Z</time></trkpt><trkpt lat="39.2509045" lon="16.7600909"><ele>866.0</ele><time>2026-03-28T11:41:55.194Z</time></trkpt><trkpt lat="39.2508873" lon="16.7601762"><ele>864.0000000000001</ele><time>2026-03-28T11:41:59.209Z</time></trkpt><trkpt lat="39.2508479" lon="16.7602573"><ele>862.0</ele><time>2026-03-28T11:42:05.198Z</time></trkpt><trkpt lat="39.2508208" lon="16.7603499"><ele>860.0</ele><time>2026-03-28T11:42:09.198Z</time></trkpt><trkpt lat="39.2507643" lon="16.7604381"><ele>858.0</ele><time>2026-03-28T11:42:13.206Z</time></trkpt><trkpt lat="39.2507092" lon="16.7604857"><ele>856.0000000000001</ele><time>2026-03-28T11:42:15.195Z</time></trkpt><trkpt lat="39.2506423" lon="16.7605196"><ele>854.0</ele><time>2026-03-28T11:42:17.197Z</time></trkpt><trkpt lat="39.2505579" lon="16.7605548"><ele>852.8571428571429</ele><time>2026-03-28T11:42:20.181Z</time></trkpt><trkpt lat="39.2504988" lon="16.7605242"><ele>851.7142857142858</ele><time>2026-03-28T11:42:34.219Z</time></trkpt><trkpt lat="39.2504353" lon="16.7605436"><ele>850.5714285714286</ele><time>2026-03-28T11:42:38.206Z</time></trkpt><trkpt lat="39.2503859" lon="16.7605951"><ele>849.4285714285714</ele><time>2026-03-28T11:42:41.195Z</time></trkpt><trkpt lat="39.2503458" lon="16.7606678"><ele>848.2857142857143</ele><time>2026-03-28T11:42:45.208Z</time></trkpt><trkpt lat="39.2503221" lon="16.7607654"><ele>847.1428571428571</ele><time>2026-03-28T11:42:49.208Z</time></trkpt><trkpt lat="39.2503141" lon="16.7608624"><ele>846.0</ele><time>2026-03-28T11:42:53.204Z</time></trkpt><trkpt lat="39.2503224" lon="16.7609658"><ele>844.5714285714286</ele><time>2026-03-28T11:42:56.218Z</time></trkpt><trkpt lat="39.250333" lon="16.7610471"><ele>843.1428571428572</ele><time>2026-03-28T11:42:58.193Z</time></trkpt><trkpt lat="39.2503396" lon="16.7611337"><ele>841.7142857142858</ele><time>2026-03-28T11:43:00.218Z</time></trkpt><trkpt lat="39.2503347" lon="16.7612374"><ele>840.2857142857142</ele><time>2026-03-28T11:43:02.198Z</time></trkpt><trkpt lat="39.2503227" lon="16.7613343"><ele>838.8571428571429</ele><time>2026-03-28T11:43:04.214Z</time></trkpt><trkpt lat="39.2503128" lon="16.761419"><ele>837.4285714285714</ele><time>2026-03-28T11:43:06.195Z</time></trkpt><trkpt lat="39.2502947" lon="16.7615061"><ele>836.0</ele><time>2026-03-28T11:43:08.212Z</time></trkpt><trkpt lat="39.2503079" lon="16.7616266"><ele>836.0000000000001</ele><time>2026-03-28T11:43:11.196Z</time></trkpt><trkpt lat="39.2503248" lon="16.7617052"><ele>836.0</ele><time>2026-03-28T11:43:13.194Z</time></trkpt><trkpt lat="39.2503285" lon="16.7618284"><ele>836.0</ele><time>2026-03-28T11:43:16.222Z</time></trkpt><trkpt lat="39.2503226" lon="16.761942"><ele>836.0</ele><time>2026-03-28T11:43:18.201Z</time></trkpt><trkpt lat="39.2503069" lon="16.762021"><ele>836.0000000000001</ele><time>2026-03-28T11:43:20.2Z</time></trkpt><trkpt lat="39.2502572" lon="16.7621111"><ele>836.0</ele><time>2026-03-28T11:43:23.207Z</time></trkpt><trkpt lat="39.2502159" lon="16.7622141"><ele>834.3333333333334</ele><time>2026-03-28T11:43:26.183Z</time></trkpt><trkpt lat="39.2502026" lon="16.7623166"><ele>832.6666666666667</ele><time>2026-03-28T11:43:29.204Z</time></trkpt><trkpt lat="39.2501804" lon="16.7623943"><ele>831.0</ele><time>2026-03-28T11:43:35.203Z</time></trkpt><trkpt lat="39.2501206" lon="16.7624601"><ele>829.3333333333333</ele><time>2026-03-28T11:43:39.201Z</time></trkpt><trkpt lat="39.2501002" lon="16.7625805"><ele>827.6666666666666</ele><time>2026-03-28T11:43:43.204Z</time></trkpt><trkpt lat="39.2501055" lon="16.7627027"><ele>826.0</ele><time>2026-03-28T11:43:45.197Z</time></trkpt><trkpt lat="39.2501226" lon="16.7628098"><ele>824.4999999999999</ele><time>2026-03-28T11:43:47.203Z</time></trkpt><trkpt lat="39.25013" lon="16.7629085"><ele>823.0</ele><time>2026-03-28T11:43:50.196Z</time></trkpt><trkpt lat="39.2500718" lon="16.7629718"><ele>821.5</ele><time>2026-03-28T11:43:52.186Z</time></trkpt><trkpt lat="39.2499715" lon="16.7630495"><ele>820.0</ele><time>2026-03-28T11:43:54.208Z</time></trkpt><trkpt lat="39.2499197" lon="16.7630957"><ele>818.4999999999999</ele><time>2026-03-28T11:43:55.216Z</time></trkpt><trkpt lat="39.249836" lon="16.7631774"><ele>817.0</ele><time>2026-03-28T11:43:57.209Z</time></trkpt><trkpt lat="39.2497771" lon="16.7632305"><ele>816.9999999999999</ele><time>2026-03-28T11:43:59.202Z</time></trkpt><trkpt lat="39.2496995" lon="16.7632856"><ele>817.0</ele><time>2026-03-28T11:44:02.195Z</time></trkpt><trkpt lat="39.2496328" lon="16.7633259"><ele>817.0</ele><time>2026-03-28T11:44:05.199Z</time></trkpt><trkpt lat="39.2495608" lon="16.7633599"><ele>817.0</ele><time>2026-03-28T11:44:09.202Z</time></trkpt><trkpt lat="39.2494946" lon="16.7633877"><ele>816.9999999999999</ele><time>2026-03-28T11:44:13.203Z</time></trkpt><trkpt lat="39.2494325" lon="16.7634151"><ele>817.0</ele><time>2026-03-28T11:44:16.2Z</time></trkpt><trkpt lat="39.2493488" lon="16.7634437"><ele>817.0</ele><time>2026-03-28T11:44:19.192Z</time></trkpt><trkpt lat="39.2492552" lon="16.7634699"><ele>817.0</ele><time>2026-03-28T11:44:21.205Z</time></trkpt><trkpt lat="39.2491861" lon="16.7635004"><ele>817.0</ele><time>2026-03-28T11:44:22.2Z</time></trkpt><trkpt lat="39.2491112" lon="16.7635587"><ele>817.0</ele><time>2026-03-28T11:44:23.197Z</time></trkpt><trkpt lat="39.2490438" lon="16.763648"><ele>817.0</ele><time>2026-03-28T11:44:24.206Z</time></trkpt><trkpt lat="39.248983" lon="16.7637599"><ele>815.6</ele><time>2026-03-28T11:44:25.196Z</time></trkpt><trkpt lat="39.2489316" lon="16.7638793"><ele>814.2</ele><time>2026-03-28T11:44:26.197Z</time></trkpt><trkpt lat="39.2488983" lon="16.7640021"><ele>812.8</ele><time>2026-03-28T11:44:27.209Z</time></trkpt><trkpt lat="39.2488908" lon="16.7641259"><ele>811.4</ele><time>2026-03-28T11:44:28.197Z</time></trkpt><trkpt lat="39.248925" lon="16.7642459"><ele>810.0</ele><time>2026-03-28T11:44:29.198Z</time></trkpt><trkpt lat="39.2489554" lon="16.7643643"><ele>808.2</ele><time>2026-03-28T11:44:30.199Z</time></trkpt><trkpt lat="39.2489716" lon="16.7644898"><ele>806.4</ele><time>2026-03-28T11:44:31.198Z</time></trkpt><trkpt lat="39.2489618" lon="16.7646181"><ele>804.5999999999999</ele><time>2026-03-28T11:44:32.196Z</time></trkpt><trkpt lat="39.2489201" lon="16.7647365"><ele>802.8</ele><time>2026-03-28T11:44:33.201Z</time></trkpt><trkpt lat="39.2488632" lon="16.764839"><ele>801.0</ele><time>2026-03-28T11:44:34.207Z</time></trkpt><trkpt lat="39.2487802" lon="16.764899"><ele>800.6666666666666</ele><time>2026-03-28T11:44:35.197Z</time></trkpt><trkpt lat="39.248686" lon="16.7648978"><ele>800.3333333333333</ele><time>2026-03-28T11:44:36.196Z</time></trkpt><trkpt lat="39.2485992" lon="16.7648616"><ele>800.0</ele><time>2026-03-28T11:44:37.198Z</time></trkpt><trkpt lat="39.2485305" lon="16.7648126"><ele>799.6666666666666</ele><time>2026-03-28T11:44:38.202Z</time></trkpt><trkpt lat="39.2484736" lon="16.7647601"><ele>799.3333333333333</ele><time>2026-03-28T11:44:39.2Z</time></trkpt><trkpt lat="39.2484192" lon="16.7647141"><ele>799.0</ele><time>2026-03-28T11:44:40.196Z</time></trkpt><trkpt lat="39.2483635" lon="16.7646761"><ele>799.0</ele><time>2026-03-28T11:44:41.193Z</time></trkpt><trkpt lat="39.2483046" lon="16.7646463"><ele>799.0</ele><time>2026-03-28T11:44:42.203Z</time></trkpt><trkpt lat="39.2482427" lon="16.7646296"><ele>799.0</ele><time>2026-03-28T11:44:43.2Z</time></trkpt><trkpt lat="39.2481753" lon="16.7646247"><ele>799.0</ele><time>2026-03-28T11:44:44.201Z</time></trkpt><trkpt lat="39.2481" lon="16.7646332"><ele>799.0</ele><time>2026-03-28T11:44:45.2Z</time></trkpt><trkpt lat="39.2480163" lon="16.7646526"><ele>799.0</ele><time>2026-03-28T11:44:46.195Z</time></trkpt><trkpt lat="39.2479311" lon="16.764678"><ele>799.0</ele><time>2026-03-28T11:44:47.198Z</time></trkpt><trkpt lat="39.247848" lon="16.7647076"><ele>798.6666666666666</ele><time>2026-03-28T11:44:48.193Z</time></trkpt><trkpt lat="39.2477683" lon="16.7647356"><ele>798.3333333333333</ele><time>2026-03-28T11:44:49.206Z</time></trkpt><trkpt lat="39.2476914" lon="16.7647598"><ele>798.0</ele><time>2026-03-28T11:44:50.214Z</time></trkpt><trkpt lat="39.2476084" lon="16.7647828"><ele>797.6666666666667</ele><time>2026-03-28T11:44:51.193Z</time></trkpt><trkpt lat="39.2475187" lon="16.764809"><ele>797.3333333333334</ele><time>2026-03-28T11:44:52.199Z</time></trkpt><trkpt lat="39.2474348" lon="16.7648404"><ele>797.0</ele><time>2026-03-28T11:44:53.193Z</time></trkpt><trkpt lat="39.2473624" lon="16.7648805"><ele>797.0</ele><time>2026-03-28T11:44:54.199Z</time></trkpt><trkpt lat="39.2473017" lon="16.7649282"><ele>797.0</ele><time>2026-03-28T11:44:55.204Z</time></trkpt><trkpt lat="39.2472456" lon="16.7649826"><ele>797.0</ele><time>2026-03-28T11:44:56.194Z</time></trkpt><trkpt lat="39.2471291" lon="16.765135"><ele>797.0</ele><time>2026-03-28T11:44:58.19Z</time></trkpt><trkpt lat="39.2470718" lon="16.7652275"><ele>797.0</ele><time>2026-03-28T11:44:59.175Z</time></trkpt><trkpt lat="39.247026" lon="16.7653381"><ele>796.0</ele><time>2026-03-28T11:45:00.186Z</time></trkpt><trkpt lat="39.2469925" lon="16.7654548"><ele>795.0</ele><time>2026-03-28T11:45:01.178Z</time></trkpt><trkpt lat="39.2469722" lon="16.7655752"><ele>794.0</ele><time>2026-03-28T11:45:02.171Z</time></trkpt><trkpt lat="39.2469585" lon="16.7657007"><ele>793.0</ele><time>2026-03-28T11:45:03.178Z</time></trkpt><trkpt lat="39.2469474" lon="16.7658247"><ele>792.0</ele><time>2026-03-28T11:45:04.171Z</time></trkpt><trkpt lat="39.2469311" lon="16.765944"><ele>790.6</ele><time>2026-03-28T11:45:05.18Z</time></trkpt><trkpt lat="39.2469073" lon="16.7660606"><ele>789.2</ele><time>2026-03-28T11:45:06.174Z</time></trkpt><trkpt lat="39.2468536" lon="16.7661731"><ele>787.8</ele><time>2026-03-28T11:45:07.18Z</time></trkpt><trkpt lat="39.2467801" lon="16.7662732"><ele>786.4</ele><time>2026-03-28T11:45:08.179Z</time></trkpt><trkpt lat="39.2466912" lon="16.7663558"><ele>785.0</ele><time>2026-03-28T11:45:09.173Z</time></trkpt><trkpt lat="39.2465831" lon="16.7664184"><ele>785.0</ele><time>2026-03-28T11:45:10.182Z</time></trkpt><trkpt lat="39.2464765" lon="16.7664838"><ele>785.0</ele><time>2026-03-28T11:45:11.172Z</time></trkpt><trkpt lat="39.2463786" lon="16.7665686"><ele>785.0</ele><time>2026-03-28T11:45:12.179Z</time></trkpt><trkpt lat="39.2462984" lon="16.7666782"><ele>785.0</ele><time>2026-03-28T11:45:13.171Z</time></trkpt><trkpt lat="39.2462414" lon="16.7668145"><ele>781.0</ele><time>2026-03-28T11:45:14.176Z</time></trkpt><trkpt lat="39.2462108" lon="16.7669616"><ele>777.0</ele><time>2026-03-28T11:45:15.171Z</time></trkpt><trkpt lat="39.2461871" lon="16.7671125"><ele>773.0</ele><time>2026-03-28T11:45:16.176Z</time></trkpt><trkpt lat="39.2461639" lon="16.7672584"><ele>769.0</ele><time>2026-03-28T11:45:17.173Z</time></trkpt><trkpt lat="39.2461382" lon="16.7673954"><ele>768.9999999999999</ele><time>2026-03-28T11:45:18.174Z</time></trkpt><trkpt lat="39.2461144" lon="16.7675221"><ele>769.0</ele><time>2026-03-28T11:45:19.181Z</time></trkpt><trkpt lat="39.2460932" lon="16.7676393"><ele>769.0</ele><time>2026-03-28T11:45:20.184Z</time></trkpt><trkpt lat="39.2460983" lon="16.7677433"><ele>769.0</ele><time>2026-03-28T11:45:21.178Z</time></trkpt><trkpt lat="39.2461232" lon="16.7678345"><ele>768.9999999999999</ele><time>2026-03-28T11:45:22.176Z</time></trkpt><trkpt lat="39.2461632" lon="16.7679"><ele>769.0</ele><time>2026-03-28T11:45:23.174Z</time></trkpt><trkpt lat="39.2462738" lon="16.7679623"><ele>768.8333333333333</ele><time>2026-03-28T11:45:25.182Z</time></trkpt><trkpt lat="39.2463427" lon="16.7679642"><ele>768.6666666666666</ele><time>2026-03-28T11:45:26.177Z</time></trkpt><trkpt lat="39.2464159" lon="16.767935"><ele>768.5</ele><time>2026-03-28T11:45:27.176Z</time></trkpt><trkpt lat="39.2464917" lon="16.7678711"><ele>768.3333333333333</ele><time>2026-03-28T11:45:28.183Z</time></trkpt><trkpt lat="39.2465574" lon="16.7677805"><ele>768.1666666666666</ele><time>2026-03-28T11:45:29.176Z</time></trkpt><trkpt lat="39.2466205" lon="16.767683"><ele>768.0</ele><time>2026-03-28T11:45:30.196Z</time></trkpt><trkpt lat="39.2466797" lon="16.7675895"><ele>769.8333333333334</ele><time>2026-03-28T11:45:31.208Z</time></trkpt><trkpt lat="39.2467347" lon="16.7675065"><ele>771.6666666666667</ele><time>2026-03-28T11:45:32.2Z</time></trkpt><trkpt lat="39.2467864" lon="16.7674383"><ele>773.5</ele><time>2026-03-28T11:45:33.207Z</time></trkpt><trkpt lat="39.2468394" lon="16.7673935"><ele>775.3333333333334</ele><time>2026-03-28T11:45:34.202Z</time></trkpt><trkpt lat="39.2469534" lon="16.7673762"><ele>777.1666666666667</ele><time>2026-03-28T11:45:36.2Z</time></trkpt><trkpt lat="39.2470081" lon="16.7674232"><ele>779.0</ele><time>2026-03-28T11:45:37.206Z</time></trkpt><trkpt lat="39.2470518" lon="16.7675093"><ele>779.0</ele><time>2026-03-28T11:45:38.193Z</time></trkpt><trkpt lat="39.2470743" lon="16.7676261"><ele>779.0</ele><time>2026-03-28T11:45:39.191Z</time></trkpt><trkpt lat="39.2470804" lon="16.7677679"><ele>779.0</ele><time>2026-03-28T11:45:40.181Z</time></trkpt><trkpt lat="39.2470646" lon="16.7679266"><ele>779.0</ele><time>2026-03-28T11:45:41.199Z</time></trkpt><trkpt lat="39.2470498" lon="16.7680979"><ele>776.25</ele><time>2026-03-28T11:45:42.2Z</time></trkpt><trkpt lat="39.2470355" lon="16.7682832"><ele>773.5</ele><time>2026-03-28T11:45:43.198Z</time></trkpt><trkpt lat="39.2470159" lon="16.7684652"><ele>770.75</ele><time>2026-03-28T11:45:44.203Z</time></trkpt><trkpt lat="39.2469893" lon="16.768632"><ele>768.0</ele><time>2026-03-28T11:45:45.208Z</time></trkpt><trkpt lat="39.2469536" lon="16.7687851"><ele>765.25</ele><time>2026-03-28T11:45:46.199Z</time></trkpt><trkpt lat="39.2469063" lon="16.7689299"><ele>762.5</ele><time>2026-03-28T11:45:47.224Z</time></trkpt><trkpt lat="39.2468512" lon="16.7690664"><ele>759.75</ele><time>2026-03-28T11:45:48.217Z</time></trkpt><trkpt lat="39.2467946" lon="16.7691956"><ele>757.0</ele><time>2026-03-28T11:45:49.198Z</time></trkpt><trkpt lat="39.2467477" lon="16.7693177"><ele>755.0</ele><time>2026-03-28T11:45:50.198Z</time></trkpt><trkpt lat="39.2467262" lon="16.7694325"><ele>753.0</ele><time>2026-03-28T11:45:51.204Z</time></trkpt><trkpt lat="39.2467423" lon="16.7695285"><ele>751.0</ele><time>2026-03-28T11:45:52.21Z</time></trkpt><trkpt lat="39.2467866" lon="16.769596"><ele>749.0</ele><time>2026-03-28T11:45:53.208Z</time></trkpt><trkpt lat="39.2468531" lon="16.7696306"><ele>747.0</ele><time>2026-03-28T11:45:54.197Z</time></trkpt><trkpt lat="39.2469341" lon="16.769633"><ele>745.0</ele><time>2026-03-28T11:45:55.196Z</time></trkpt><trkpt lat="39.2470242" lon="16.7696261"><ele>745.0</ele><time>2026-03-28T11:45:56.221Z</time></trkpt><trkpt lat="39.2471181" lon="16.7696362"><ele>745.0</ele><time>2026-03-28T11:45:57.198Z</time></trkpt><trkpt lat="39.2472061" lon="16.7696931"><ele>745.0</ele><time>2026-03-28T11:45:58.202Z</time></trkpt><trkpt lat="39.2472777" lon="16.7697826"><ele>745.0</ele><time>2026-03-28T11:45:59.206Z</time></trkpt><trkpt lat="39.2473465" lon="16.7698712"><ele>745.0</ele><time>2026-03-28T11:46:00.2Z</time></trkpt><trkpt lat="39.247425" lon="16.7699306"><ele>747.6</ele><time>2026-03-28T11:46:01.197Z</time></trkpt><trkpt lat="39.2475117" lon="16.7699542"><ele>750.2</ele><time>2026-03-28T11:46:02.196Z</time></trkpt><trkpt lat="39.2476029" lon="16.7699454"><ele>752.8</ele><time>2026-03-28T11:46:03.203Z</time></trkpt><trkpt lat="39.2476935" lon="16.7698973"><ele>755.4</ele><time>2026-03-28T11:46:04.187Z</time></trkpt><trkpt lat="39.2477845" lon="16.7698429"><ele>758.0</ele><time>2026-03-28T11:46:05.201Z</time></trkpt><trkpt lat="39.2478728" lon="16.7697769"><ele>758.0</ele><time>2026-03-28T11:46:06.2Z</time></trkpt><trkpt lat="39.2479589" lon="16.7696985"><ele>758.0</ele><time>2026-03-28T11:46:07.201Z</time></trkpt><trkpt lat="39.2480402" lon="16.7696071"><ele>758.0</ele><time>2026-03-28T11:46:08.201Z</time></trkpt><trkpt lat="39.2481148" lon="16.7695062"><ele>758.0</ele><time>2026-03-28T11:46:09.211Z</time></trkpt><trkpt lat="39.2481786" lon="16.7694016"><ele>758.0</ele><time>2026-03-28T11:46:10.199Z</time></trkpt><trkpt lat="39.2482384" lon="16.769297"><ele>757.6666666666666</ele><time>2026-03-28T11:46:11.208Z</time></trkpt><trkpt lat="39.2482949" lon="16.7692009"><ele>757.3333333333333</ele><time>2026-03-28T11:46:12.207Z</time></trkpt><trkpt lat="39.2483585" lon="16.7691304"><ele>757.0</ele><time>2026-03-28T11:46:13.205Z</time></trkpt><trkpt lat="39.2484333" lon="16.7691104"><ele>756.6666666666666</ele><time>2026-03-28T11:46:14.21Z</time></trkpt><trkpt lat="39.2485004" lon="16.7691344"><ele>756.3333333333334</ele><time>2026-03-28T11:46:15.198Z</time></trkpt><trkpt lat="39.2485492" lon="16.7691952"><ele>756.0</ele><time>2026-03-28T11:46:16.203Z</time></trkpt><trkpt lat="39.2485789" lon="16.7692886"><ele>754.5999999999999</ele><time>2026-03-28T11:46:17.218Z</time></trkpt><trkpt lat="39.2485822" lon="16.769413"><ele>753.2</ele><time>2026-03-28T11:46:18.197Z</time></trkpt><trkpt lat="39.2485913" lon="16.7695402"><ele>751.8</ele><time>2026-03-28T11:46:19.203Z</time></trkpt><trkpt lat="39.2486067" lon="16.769661"><ele>750.4000000000001</ele><time>2026-03-28T11:46:20.203Z</time></trkpt><trkpt lat="39.2486418" lon="16.7697688"><ele>749.0</ele><time>2026-03-28T11:46:21.197Z</time></trkpt><trkpt lat="39.2486978" lon="16.769862"><ele>749.0</ele><time>2026-03-28T11:46:22.203Z</time></trkpt><trkpt lat="39.2487752" lon="16.7699315"><ele>749.0</ele><time>2026-03-28T11:46:23.202Z</time></trkpt><trkpt lat="39.248864" lon="16.7699841"><ele>749.0</ele><time>2026-03-28T11:46:24.202Z</time></trkpt><trkpt lat="39.2489621" lon="16.7700083"><ele>749.0</ele><time>2026-03-28T11:46:25.214Z</time></trkpt><trkpt lat="39.2490558" lon="16.7700417"><ele>749.0</ele><time>2026-03-28T11:46:26.213Z</time></trkpt><trkpt lat="39.2491409" lon="16.7700885"><ele>748.6666666666666</ele><time>2026-03-28T11:46:27.203Z</time></trkpt><trkpt lat="39.2492131" lon="16.7701512"><ele>748.3333333333333</ele><time>2026-03-28T11:46:28.189Z</time></trkpt><trkpt lat="39.2492736" lon="16.7702139"><ele>748.0</ele><time>2026-03-28T11:46:29.199Z</time></trkpt><trkpt lat="39.2493507" lon="16.7703005"><ele>747.6666666666666</ele><time>2026-03-28T11:46:31.199Z</time></trkpt><trkpt lat="39.249401" lon="16.7703669"><ele>747.3333333333334</ele><time>2026-03-28T11:46:35.203Z</time></trkpt><trkpt lat="39.2494351" lon="16.7704591"><ele>747.0</ele><time>2026-03-28T11:46:41.198Z</time></trkpt><trkpt lat="39.2494194" lon="16.7705405"><ele>744.6</ele><time>2026-03-28T11:46:44.198Z</time></trkpt><trkpt lat="39.2494103" lon="16.7706414"><ele>742.2</ele><time>2026-03-28T11:46:46.195Z</time></trkpt><trkpt lat="39.2494026" lon="16.7707707"><ele>739.8</ele><time>2026-03-28T11:46:48.213Z</time></trkpt><trkpt lat="39.2493964" lon="16.7709131"><ele>737.4</ele><time>2026-03-28T11:46:50.2Z</time></trkpt><trkpt lat="39.2494048" lon="16.771066"><ele>735.0</ele><time>2026-03-28T11:46:52.198Z</time></trkpt><trkpt lat="39.2494064" lon="16.7711482"><ele>733.8333333333334</ele><time>2026-03-28T11:46:53.2Z</time></trkpt><trkpt lat="39.2493986" lon="16.7712294"><ele>732.6666666666666</ele><time>2026-03-28T11:46:54.2Z</time></trkpt><trkpt lat="39.2493779" lon="16.7713859"><ele>731.5</ele><time>2026-03-28T11:46:56.186Z</time></trkpt><trkpt lat="39.2493571" lon="16.7715407"><ele>730.3333333333333</ele><time>2026-03-28T11:46:58.201Z</time></trkpt><trkpt lat="39.2493483" lon="16.771623"><ele>729.1666666666666</ele><time>2026-03-28T11:46:59.211Z</time></trkpt><trkpt lat="39.2493397" lon="16.7717065"><ele>728.0</ele><time>2026-03-28T11:47:00.214Z</time></trkpt><trkpt lat="39.2493307" lon="16.7717924"><ele>727.4</ele><time>2026-03-28T11:47:01.199Z</time></trkpt><trkpt lat="39.249322" lon="16.7718774"><ele>726.8</ele><time>2026-03-28T11:47:02.206Z</time></trkpt><trkpt lat="39.2493143" lon="16.77196"><ele>726.2</ele><time>2026-03-28T11:47:03.209Z</time></trkpt><trkpt lat="39.2492924" lon="16.7721164"><ele>725.6</ele><time>2026-03-28T11:47:05.203Z</time></trkpt><trkpt lat="39.2492694" lon="16.7722744"><ele>725.0</ele><time>2026-03-28T11:47:07.217Z</time></trkpt><trkpt lat="39.2492583" lon="16.772423"><ele>725.0</ele><time>2026-03-28T11:47:09.208Z</time></trkpt><trkpt lat="39.2492461" lon="16.7725605"><ele>725.0</ele><time>2026-03-28T11:47:11.201Z</time></trkpt><trkpt lat="39.2492333" lon="16.7726877"><ele>725.0</ele><time>2026-03-28T11:47:13.2Z</time></trkpt><trkpt lat="39.2492213" lon="16.7727994"><ele>725.0</ele><time>2026-03-28T11:47:15.2Z</time></trkpt><trkpt lat="39.2492035" lon="16.7728911"><ele>725.0</ele><time>2026-03-28T11:47:17.199Z</time></trkpt><trkpt lat="39.2491858" lon="16.7729764"><ele>725.0</ele><time>2026-03-28T11:47:19.198Z</time></trkpt><trkpt lat="39.2491618" lon="16.7730599"><ele>725.0</ele><time>2026-03-28T11:47:23.191Z</time></trkpt><trkpt lat="39.249123" lon="16.7731334"><ele>725.0</ele><time>2026-03-28T11:47:26.2Z</time></trkpt><trkpt lat="39.2490956" lon="16.7732362"><ele>725.0</ele><time>2026-03-28T11:47:29.192Z</time></trkpt><trkpt lat="39.2490748" lon="16.7733184"><ele>725.0</ele><time>2026-03-28T11:47:31.201Z</time></trkpt><trkpt lat="39.2490532" lon="16.7734332"><ele>725.0</ele><time>2026-03-28T11:47:33.199Z</time></trkpt><trkpt lat="39.2489905" lon="16.773577"><ele>725.0</ele><time>2026-03-28T11:47:35.206Z</time></trkpt><trkpt lat="39.2489371" lon="16.7736659"><ele>724.75</ele><time>2026-03-28T11:47:36.203Z</time></trkpt><trkpt lat="39.2488717" lon="16.7737773"><ele>724.5</ele><time>2026-03-28T11:47:37.207Z</time></trkpt><trkpt lat="39.2487952" lon="16.7739098"><ele>724.25</ele><time>2026-03-28T11:47:38.195Z</time></trkpt><trkpt lat="39.2487066" lon="16.7740488"><ele>724.0</ele><time>2026-03-28T11:47:39.194Z</time></trkpt><trkpt lat="39.2486143" lon="16.7741876"><ele>724.0</ele><time>2026-03-28T11:47:40.19Z</time></trkpt><trkpt lat="39.2485177" lon="16.7743328"><ele>724.0</ele><time>2026-03-28T11:47:41.193Z</time></trkpt><trkpt lat="39.2484185" lon="16.7744835"><ele>724.0</ele><time>2026-03-28T11:47:42.192Z</time></trkpt><trkpt lat="39.2483161" lon="16.7746332"><ele>721.0</ele><time>2026-03-28T11:47:43.192Z</time></trkpt><trkpt lat="39.2482097" lon="16.7747813"><ele>718.0</ele><time>2026-03-28T11:47:44.209Z</time></trkpt><trkpt lat="39.2481041" lon="16.7749263"><ele>715.0</ele><time>2026-03-28T11:47:45.198Z</time></trkpt><trkpt lat="39.2479967" lon="16.7750682"><ele>712.25</ele><time>2026-03-28T11:47:46.2Z</time></trkpt><trkpt lat="39.2478954" lon="16.7752105"><ele>709.5</ele><time>2026-03-28T11:47:47.209Z</time></trkpt><trkpt lat="39.2477992" lon="16.7753486"><ele>706.75</ele><time>2026-03-28T11:47:48.198Z</time></trkpt><trkpt lat="39.2477096" lon="16.7754859"><ele>704.0</ele><time>2026-03-28T11:47:49.211Z</time></trkpt><trkpt lat="39.2476257" lon="16.7756236"><ele>704.0</ele><time>2026-03-28T11:47:50.203Z</time></trkpt><trkpt lat="39.2475457" lon="16.7757616"><ele>704.0</ele><time>2026-03-28T11:47:51.202Z</time></trkpt><trkpt lat="39.247462" lon="16.7758991"><ele>704.0</ele><time>2026-03-28T11:47:52.221Z</time></trkpt><trkpt lat="39.2473831" lon="16.7760345"><ele>704.0</ele><time>2026-03-28T11:47:53.202Z</time></trkpt><trkpt lat="39.247309" lon="16.7761773"><ele>699.8000000000001</ele><time>2026-03-28T11:47:54.199Z</time></trkpt><trkpt lat="39.2472461" lon="16.7763215"><ele>695.6</ele><time>2026-03-28T11:47:55.2Z</time></trkpt><trkpt lat="39.2471946" lon="16.7764604"><ele>691.4</ele><time>2026-03-28T11:47:56.203Z</time></trkpt><trkpt lat="39.2471537" lon="16.7765845"><ele>687.2</ele><time>2026-03-28T11:47:57.198Z</time></trkpt><trkpt lat="39.2471208" lon="16.7766854"><ele>683.0</ele><time>2026-03-28T11:47:58.203Z</time></trkpt><trkpt lat="39.2470723" lon="16.776803"><ele>683.5</ele><time>2026-03-28T11:48:00.202Z</time></trkpt><trkpt lat="39.2469765" lon="16.7768947"><ele>684.0</ele><time>2026-03-28T11:48:02.205Z</time></trkpt><trkpt lat="39.2468783" lon="16.7769474"><ele>684.5</ele><time>2026-03-28T11:48:03.223Z</time></trkpt><trkpt lat="39.2467552" lon="16.7770008"><ele>685.0</ele><time>2026-03-28T11:48:04.194Z</time></trkpt><trkpt lat="39.2466215" lon="16.7770473"><ele>685.0</ele><time>2026-03-28T11:48:05.201Z</time></trkpt><trkpt lat="39.2464965" lon="16.7770962"><ele>685.0</ele><time>2026-03-28T11:48:06.203Z</time></trkpt><trkpt lat="39.246384" lon="16.7771657"><ele>685.0</ele><time>2026-03-28T11:48:07.2Z</time></trkpt><trkpt lat="39.2462832" lon="16.7772704"><ele>685.0</ele><time>2026-03-28T11:48:08.199Z</time></trkpt><trkpt lat="39.2462" lon="16.7774178"><ele>682.3333333333334</ele><time>2026-03-28T11:48:09.196Z</time></trkpt><trkpt lat="39.2461245" lon="16.7776067"><ele>679.6666666666666</ele><time>2026-03-28T11:48:10.206Z</time></trkpt><trkpt lat="39.2460676" lon="16.7778322"><ele>677.0</ele><time>2026-03-28T11:48:11.205Z</time></trkpt><trkpt lat="39.2460051" lon="16.7780783"><ele>676.0</ele><time>2026-03-28T11:48:12.208Z</time></trkpt><trkpt lat="39.2459399" lon="16.778326"><ele>675.0</ele><time>2026-03-28T11:48:13.196Z</time></trkpt><trkpt lat="39.2458795" lon="16.7785585"><ele>674.0</ele><time>2026-03-28T11:48:14.191Z</time></trkpt><trkpt lat="39.2458193" lon="16.7787847"><ele>673.3333333333333</ele><time>2026-03-28T11:48:15.201Z</time></trkpt><trkpt lat="39.2457593" lon="16.7790063"><ele>672.6666666666666</ele><time>2026-03-28T11:48:16.19Z</time></trkpt><trkpt lat="39.2456957" lon="16.7792233"><ele>672.0</ele><time>2026-03-28T11:48:17.206Z</time></trkpt><trkpt lat="39.2456333" lon="16.7794297"><ele>669.6666666666666</ele><time>2026-03-28T11:48:18.201Z</time></trkpt><trkpt lat="39.2455718" lon="16.7796258"><ele>667.3333333333333</ele><time>2026-03-28T11:48:19.203Z</time></trkpt><trkpt lat="39.245516" lon="16.7798125"><ele>665.0</ele><time>2026-03-28T11:48:20.197Z</time></trkpt><trkpt lat="39.2454631" lon="16.7799914"><ele>665.0</ele><time>2026-03-28T11:48:21.197Z</time></trkpt><trkpt lat="39.2454144" lon="16.7801575"><ele>665.0</ele><time>2026-03-28T11:48:22.189Z</time></trkpt><trkpt lat="39.2453705" lon="16.7803138"><ele>665.0</ele><time>2026-03-28T11:48:23.194Z</time></trkpt><trkpt lat="39.2453308" lon="16.7804604"><ele>665.0</ele><time>2026-03-28T11:48:24.196Z</time></trkpt><trkpt lat="39.2452905" lon="16.7805949"><ele>665.0</ele><time>2026-03-28T11:48:25.207Z</time></trkpt><trkpt lat="39.2452448" lon="16.7807177"><ele>665.0</ele><time>2026-03-28T11:48:26.199Z</time></trkpt><trkpt lat="39.2452005" lon="16.7808368"><ele>665.0</ele><time>2026-03-28T11:48:27.193Z</time></trkpt><trkpt lat="39.2451611" lon="16.7809556"><ele>665.0</ele><time>2026-03-28T11:48:28.213Z</time></trkpt><trkpt lat="39.2451246" lon="16.781071"><ele>665.0</ele><time>2026-03-28T11:48:29.192Z</time></trkpt><trkpt lat="39.2450901" lon="16.7811887"><ele>664.2</ele><time>2026-03-28T11:48:30.207Z</time></trkpt><trkpt lat="39.2450562" lon="16.7813093"><ele>663.4</ele><time>2026-03-28T11:48:31.196Z</time></trkpt><trkpt lat="39.2450171" lon="16.7814321"><ele>662.5999999999999</ele><time>2026-03-28T11:48:32.192Z</time></trkpt><trkpt lat="39.2449658" lon="16.781552"><ele>661.8</ele><time>2026-03-28T11:48:33.195Z</time></trkpt><trkpt lat="39.2449006" lon="16.78167"><ele>661.0</ele><time>2026-03-28T11:48:34.203Z</time></trkpt><trkpt lat="39.2448213" lon="16.7817884"><ele>658.5</ele><time>2026-03-28T11:48:35.205Z</time></trkpt><trkpt lat="39.2447372" lon="16.7819118"><ele>656.0</ele><time>2026-03-28T11:48:36.199Z</time></trkpt><trkpt lat="39.244655" lon="16.7820364"><ele>653.5</ele><time>2026-03-28T11:48:37.177Z</time></trkpt><trkpt lat="39.244576" lon="16.7821584"><ele>651.0</ele><time>2026-03-28T11:48:38.17Z</time></trkpt><trkpt lat="39.2445013" lon="16.7822768"><ele>651.0</ele><time>2026-03-28T11:48:39.178Z</time></trkpt><trkpt lat="39.244432" lon="16.7823911"><ele>651.0</ele><time>2026-03-28T11:48:40.179Z</time></trkpt><trkpt lat="39.244368" lon="16.7825032"><ele>651.0</ele><time>2026-03-28T11:48:41.207Z</time></trkpt><trkpt lat="39.2443085" lon="16.7826144"><ele>651.0</ele><time>2026-03-28T11:48:42.18Z</time></trkpt><trkpt lat="39.2442488" lon="16.7827179"><ele>651.0</ele><time>2026-03-28T11:48:43.178Z</time></trkpt><trkpt lat="39.2441936" lon="16.782815"><ele>650.5</ele><time>2026-03-28T11:48:44.172Z</time></trkpt><trkpt lat="39.24414" lon="16.7829063"><ele>650.0</ele><time>2026-03-28T11:48:45.176Z</time></trkpt><trkpt lat="39.2440936" lon="16.7829913"><ele>649.5</ele><time>2026-03-28T11:48:46.191Z</time></trkpt><trkpt lat="39.2440495" lon="16.783071"><ele>649.0</ele><time>2026-03-28T11:48:47.174Z</time></trkpt><trkpt lat="39.2440021" lon="16.7831623"><ele>648.5</ele><time>2026-03-28T11:48:48.173Z</time></trkpt><trkpt lat="39.2439498" lon="16.7832472"><ele>648.0</ele><time>2026-03-28T11:48:49.173Z</time></trkpt><trkpt lat="39.2439059" lon="16.783324"><ele>646.1666666666666</ele><time>2026-03-28T11:48:50.177Z</time></trkpt><trkpt lat="39.2438551" lon="16.7834325"><ele>644.3333333333334</ele><time>2026-03-28T11:48:52.178Z</time></trkpt><trkpt lat="39.2438191" lon="16.783523"><ele>642.5</ele><time>2026-03-28T11:48:54.193Z</time></trkpt><trkpt lat="39.2437869" lon="16.7835994"><ele>640.6666666666667</ele><time>2026-03-28T11:48:55.18Z</time></trkpt><trkpt lat="39.2437514" lon="16.783683"><ele>638.8333333333334</ele><time>2026-03-28T11:48:56.178Z</time></trkpt><trkpt lat="39.2437127" lon="16.7837609"><ele>637.0</ele><time>2026-03-28T11:48:57.179Z</time></trkpt><trkpt lat="39.243662" lon="16.783828"><ele>636.75</ele><time>2026-03-28T11:48:58.177Z</time></trkpt><trkpt lat="39.2435747" lon="16.7838894"><ele>636.5</ele><time>2026-03-28T11:48:59.187Z</time></trkpt><trkpt lat="39.2434654" lon="16.7839669"><ele>636.25</ele><time>2026-03-28T11:49:00.178Z</time></trkpt><trkpt lat="39.2433491" lon="16.784053"><ele>636.0</ele><time>2026-03-28T11:49:01.187Z</time></trkpt><trkpt lat="39.2432597" lon="16.7841629"><ele>636.0</ele><time>2026-03-28T11:49:02.175Z</time></trkpt><trkpt lat="39.2431929" lon="16.7842646"><ele>636.0</ele><time>2026-03-28T11:49:03.178Z</time></trkpt><trkpt lat="39.2431539" lon="16.7843631"><ele>636.0</ele><time>2026-03-28T11:49:04.177Z</time></trkpt><trkpt lat="39.2431313" lon="16.7844632"><ele>636.0</ele><time>2026-03-28T11:49:05.174Z</time></trkpt><trkpt lat="39.2431116" lon="16.7845837"><ele>636.0</ele><time>2026-03-28T11:49:06.177Z</time></trkpt><trkpt lat="39.2430845" lon="16.7847161"><ele>635.0</ele><time>2026-03-28T11:49:07.178Z</time></trkpt><trkpt lat="39.2430519" lon="16.7848452"><ele>634.0</ele><time>2026-03-28T11:49:08.186Z</time></trkpt><trkpt lat="39.2430186" lon="16.7849635"><ele>633.0</ele><time>2026-03-28T11:49:09.169Z</time></trkpt><trkpt lat="39.2429886" lon="16.7850809"><ele>632.0</ele><time>2026-03-28T11:49:10.18Z</time></trkpt><trkpt lat="39.2429666" lon="16.7851873"><ele>631.0</ele><time>2026-03-28T11:49:11.172Z</time></trkpt><trkpt lat="39.2429477" lon="16.7852838"><ele>630.6666666666667</ele><time>2026-03-28T11:49:12.173Z</time></trkpt><trkpt lat="39.2429325" lon="16.7853692"><ele>630.3333333333334</ele><time>2026-03-28T11:49:13.171Z</time></trkpt><trkpt lat="39.2429219" lon="16.7854525"><ele>630.0</ele><time>2026-03-28T11:49:14.178Z</time></trkpt><trkpt lat="39.2429139" lon="16.7855444"><ele>629.6666666666666</ele><time>2026-03-28T11:49:15.173Z</time></trkpt><trkpt lat="39.2429013" lon="16.7856486"><ele>629.3333333333333</ele><time>2026-03-28T11:49:16.174Z</time></trkpt><trkpt lat="39.2428818" lon="16.7857581"><ele>629.0</ele><time>2026-03-28T11:49:17.178Z</time></trkpt><trkpt lat="39.2428593" lon="16.7858673"><ele>629.0</ele><time>2026-03-28T11:49:18.176Z</time></trkpt><trkpt lat="39.2428361" lon="16.7859785"><ele>629.0</ele><time>2026-03-28T11:49:19.174Z</time></trkpt><trkpt lat="39.2428115" lon="16.7860923"><ele>629.0</ele><time>2026-03-28T11:49:20.182Z</time></trkpt><trkpt lat="39.2427869" lon="16.7862079"><ele>629.0</ele><time>2026-03-28T11:49:21.197Z</time></trkpt><trkpt lat="39.2427617" lon="16.7863244"><ele>629.0</ele><time>2026-03-28T11:49:22.179Z</time></trkpt><trkpt lat="39.2427337" lon="16.78645"><ele>628.25</ele><time>2026-03-28T11:49:23.174Z</time></trkpt><trkpt lat="39.2427025" lon="16.7865922"><ele>627.5</ele><time>2026-03-28T11:49:24.17Z</time></trkpt><trkpt lat="39.24267" lon="16.7867457"><ele>626.75</ele><time>2026-03-28T11:49:25.18Z</time></trkpt><trkpt lat="39.2426381" lon="16.7868944"><ele>626.0</ele><time>2026-03-28T11:49:26.173Z</time></trkpt><trkpt lat="39.2426086" lon="16.7870408"><ele>624.6</ele><time>2026-03-28T11:49:27.195Z</time></trkpt><trkpt lat="39.242583" lon="16.7871811"><ele>623.2</ele><time>2026-03-28T11:49:28.172Z</time></trkpt><trkpt lat="39.2425628" lon="16.787323"><ele>621.8</ele><time>2026-03-28T11:49:29.173Z</time></trkpt><trkpt lat="39.2425483" lon="16.7874603"><ele>620.4</ele><time>2026-03-28T11:49:30.18Z</time></trkpt><trkpt lat="39.2425278" lon="16.7875971"><ele>619.0</ele><time>2026-03-28T11:49:31.179Z</time></trkpt><trkpt lat="39.2424884" lon="16.7877439"><ele>617.5</ele><time>2026-03-28T11:49:32.193Z</time></trkpt><trkpt lat="39.2424344" lon="16.7878994"><ele>616.0</ele><time>2026-03-28T11:49:33.179Z</time></trkpt><trkpt lat="39.2423679" lon="16.7880663"><ele>614.5</ele><time>2026-03-28T11:49:34.178Z</time></trkpt><trkpt lat="39.2422976" lon="16.788235"><ele>613.0</ele><time>2026-03-28T11:49:35.178Z</time></trkpt><trkpt lat="39.2422308" lon="16.7884037"><ele>611.5</ele><time>2026-03-28T11:49:36.175Z</time></trkpt><trkpt lat="39.2421637" lon="16.78857"><ele>610.0</ele><time>2026-03-28T11:49:37.176Z</time></trkpt><trkpt lat="39.2420976" lon="16.7887291"><ele>608.5</ele><time>2026-03-28T11:49:38.174Z</time></trkpt><trkpt lat="39.2420359" lon="16.7888893"><ele>607.0</ele><time>2026-03-28T11:49:39.177Z</time></trkpt><trkpt lat="39.241962" lon="16.789043"><ele>607.0</ele><time>2026-03-28T11:49:40.177Z</time></trkpt><trkpt lat="39.24188" lon="16.7891829"><ele>607.0</ele><time>2026-03-28T11:49:41.172Z</time></trkpt><trkpt lat="39.2417919" lon="16.7893043"><ele>607.0</ele><time>2026-03-28T11:49:42.2Z</time></trkpt><trkpt lat="39.241707" lon="16.7894073"><ele>607.0</ele><time>2026-03-28T11:49:43.175Z</time></trkpt><trkpt lat="39.2416308" lon="16.7895045"><ele>604.8000000000001</ele><time>2026-03-28T11:49:44.17Z</time></trkpt><trkpt lat="39.2415675" lon="16.7895889"><ele>602.6</ele><time>2026-03-28T11:49:45.17Z</time></trkpt><trkpt lat="39.2415169" lon="16.7896615"><ele>600.4000000000001</ele><time>2026-03-28T11:49:46.174Z</time></trkpt><trkpt lat="39.2414758" lon="16.7897268"><ele>598.2</ele><time>2026-03-28T11:49:47.177Z</time></trkpt><trkpt lat="39.2414065" lon="16.7898416"><ele>596.0</ele><time>2026-03-28T11:49:49.203Z</time></trkpt><trkpt lat="39.2413078" lon="16.7899497"><ele>594.2</ele><time>2026-03-28T11:49:57.182Z</time></trkpt><trkpt lat="39.241211" lon="16.7899856"><ele>592.4000000000001</ele><time>2026-03-28T11:50:03.179Z</time></trkpt><trkpt lat="39.2411332" lon="16.7900106"><ele>590.6</ele><time>2026-03-28T11:50:05.176Z</time></trkpt><trkpt lat="39.2410543" lon="16.790064"><ele>588.8000000000001</ele><time>2026-03-28T11:50:07.173Z</time></trkpt><trkpt lat="39.2409665" lon="16.7901725"><ele>587.0</ele><time>2026-03-28T11:50:09.185Z</time></trkpt><trkpt lat="39.2409128" lon="16.7902993"><ele>586.4</ele><time>2026-03-28T11:50:11.173Z</time></trkpt><trkpt lat="39.2408811" lon="16.7904195"><ele>585.8000000000001</ele><time>2026-03-28T11:50:13.173Z</time></trkpt><trkpt lat="39.2408551" lon="16.7905544"><ele>585.2</ele><time>2026-03-28T11:50:15.167Z</time></trkpt><trkpt lat="39.2408118" lon="16.790665"><ele>584.6</ele><time>2026-03-28T11:50:17.172Z</time></trkpt><trkpt lat="39.2407751" lon="16.7907312"><ele>584.0</ele><time>2026-03-28T11:50:19.174Z</time></trkpt><trkpt lat="39.2407359" lon="16.7908318"><ele>584.0</ele><time>2026-03-28T11:50:22.169Z</time></trkpt><trkpt lat="39.2407125" lon="16.790954"><ele>584.0</ele><time>2026-03-28T11:50:25.172Z</time></trkpt><trkpt lat="39.2407015" lon="16.7910506"><ele>584.0</ele><time>2026-03-28T11:50:27.2Z</time></trkpt><trkpt lat="39.2406768" lon="16.7911393"><ele>584.0</ele><time>2026-03-28T11:50:29.172Z</time></trkpt><trkpt lat="39.2406664" lon="16.7912608"><ele>584.0</ele><time>2026-03-28T11:50:31.173Z</time></trkpt><trkpt lat="39.240649" lon="16.7914039"><ele>581.2</ele><time>2026-03-28T11:50:33.192Z</time></trkpt><trkpt lat="39.2406054" lon="16.7915553"><ele>578.4</ele><time>2026-03-28T11:50:35.167Z</time></trkpt><trkpt lat="39.2405672" lon="16.7916234"><ele>575.6</ele><time>2026-03-28T11:50:36.17Z</time></trkpt><trkpt lat="39.2404997" lon="16.7917489"><ele>572.8</ele><time>2026-03-28T11:50:38.186Z</time></trkpt><trkpt lat="39.240454" lon="16.7918355"><ele>570.0</ele><time>2026-03-28T11:50:40.174Z</time></trkpt><trkpt lat="39.2404256" lon="16.7919176"><ele>570.0</ele><time>2026-03-28T11:50:42.175Z</time></trkpt><trkpt lat="39.2404047" lon="16.7919991"><ele>570.0</ele><time>2026-03-28T11:50:44.175Z</time></trkpt><trkpt lat="39.2403603" lon="16.7920735"><ele>570.0</ele><time>2026-03-28T11:50:46.194Z</time></trkpt><trkpt lat="39.2402679" lon="16.7921709"><ele>570.0</ele><time>2026-03-28T11:50:48.174Z</time></trkpt><trkpt lat="39.2401856" lon="16.7922833"><ele>570.0</ele><time>2026-03-28T11:50:50.178Z</time></trkpt><trkpt lat="39.240094" lon="16.792359"><ele>570.0</ele><time>2026-03-28T11:50:52.18Z</time></trkpt><trkpt lat="39.2400131" lon="16.7924203"><ele>570.0</ele><time>2026-03-28T11:50:54.177Z</time></trkpt><trkpt lat="39.2399466" lon="16.7924803"><ele>570.0</ele><time>2026-03-28T11:50:56.177Z</time></trkpt><trkpt lat="39.2398863" lon="16.7925369"><ele>570.0</ele><time>2026-03-28T11:50:58.18Z</time></trkpt><trkpt lat="39.2398356" lon="16.7926315"><ele>570.0</ele><time>2026-03-28T11:51:00.197Z</time></trkpt><trkpt lat="39.2397841" lon="16.7927405"><ele>570.0</ele><time>2026-03-28T11:51:02.174Z</time></trkpt><trkpt lat="39.2397244" lon="16.7928136"><ele>566.0</ele><time>2026-03-28T11:51:04.172Z</time></trkpt><trkpt lat="39.2396561" lon="16.7928522"><ele>562.0</ele><time>2026-03-28T11:51:08.172Z</time></trkpt><trkpt lat="39.2395943" lon="16.7929104"><ele>558.0</ele><time>2026-03-28T11:51:12.175Z</time></trkpt><trkpt lat="39.2395668" lon="16.7930008"><ele>554.0</ele><time>2026-03-28T11:51:16.17Z</time></trkpt><trkpt lat="39.2395681" lon="16.7931005"><ele>550.0</ele><time>2026-03-28T11:51:18.174Z</time></trkpt><trkpt lat="39.2395195" lon="16.7932028"><ele>546.0</ele><time>2026-03-28T11:51:20.169Z</time></trkpt><trkpt lat="39.2394875" lon="16.7933282"><ele>546.0</ele><time>2026-03-28T11:51:22.186Z</time></trkpt><trkpt lat="39.2394869" lon="16.7934097"><ele>546.0</ele><time>2026-03-28T11:51:23.174Z</time></trkpt><trkpt lat="39.239488" lon="16.79357"><ele>546.0</ele><time>2026-03-28T11:51:25.173Z</time></trkpt><trkpt lat="39.2394927" lon="16.7937171"><ele>546.0</ele><time>2026-03-28T11:51:27.172Z</time></trkpt><trkpt lat="39.239474" lon="16.7938428"><ele>546.0</ele><time>2026-03-28T11:51:29.176Z</time></trkpt><trkpt lat="39.2394426" lon="16.7939449"><ele>546.1666666666666</ele><time>2026-03-28T11:51:31.173Z</time></trkpt><trkpt lat="39.2394491" lon="16.7940325"><ele>546.3333333333334</ele><time>2026-03-28T11:51:33.175Z</time></trkpt><trkpt lat="39.2395095" lon="16.7941065"><ele>546.5</ele><time>2026-03-28T11:51:35.17Z</time></trkpt><trkpt lat="39.2395813" lon="16.7941543"><ele>546.6666666666667</ele><time>2026-03-28T11:51:37.179Z</time></trkpt><trkpt lat="39.2396663" lon="16.7941477"><ele>546.8333333333334</ele><time>2026-03-28T11:51:40.177Z</time></trkpt><trkpt lat="39.2397509" lon="16.7941293"><ele>547.0</ele><time>2026-03-28T11:51:43.177Z</time></trkpt><trkpt lat="39.2398215" lon="16.7940836"><ele>547.0</ele><time>2026-03-28T11:51:46.17Z</time></trkpt><trkpt lat="39.2399034" lon="16.7940555"><ele>547.0</ele><time>2026-03-28T11:51:49.179Z</time></trkpt><trkpt lat="39.2399303" lon="16.7941313"><ele>547.0</ele><time>2026-03-28T11:51:51.17Z</time></trkpt><trkpt lat="39.2399048" lon="16.7942482"><ele>547.0</ele><time>2026-03-28T11:51:54.177Z</time></trkpt><trkpt lat="39.2398874" lon="16.7943286"><ele>547.0</ele><time>2026-03-28T11:51:56.178Z</time></trkpt><trkpt lat="39.2398542" lon="16.7944385"><ele>547.0</ele><time>2026-03-28T11:51:59.178Z</time></trkpt><trkpt lat="39.2398308" lon="16.7945141"><ele>545.4</ele><time>2026-03-28T11:52:01.185Z</time></trkpt><trkpt lat="39.2398011" lon="16.7946172"><ele>543.8000000000001</ele><time>2026-03-28T11:52:03.194Z</time></trkpt><trkpt lat="39.2397781" lon="16.7947328"><ele>542.2</ele><time>2026-03-28T11:52:05.175Z</time></trkpt><trkpt lat="39.2397669" lon="16.7948569"><ele>540.6</ele><time>2026-03-28T11:52:07.173Z</time></trkpt><trkpt lat="39.2397727" lon="16.7949635"><ele>539.0</ele><time>2026-03-28T11:52:09.184Z</time></trkpt><trkpt lat="39.2397903" lon="16.7950892"><ele>537.0</ele><time>2026-03-28T11:52:12.177Z</time></trkpt><trkpt lat="39.239795" lon="16.7952207"><ele>535.0</ele><time>2026-03-28T11:52:14.171Z</time></trkpt><trkpt lat="39.239793" lon="16.7953311"><ele>533.0</ele><time>2026-03-28T11:52:16.177Z</time></trkpt><trkpt lat="39.2397731" lon="16.7954734"><ele>531.0</ele><time>2026-03-28T11:52:18.178Z</time></trkpt><trkpt lat="39.2397519" lon="16.7955954"><ele>529.0</ele><time>2026-03-28T11:52:20.175Z</time></trkpt><trkpt lat="39.2397418" lon="16.7957001"><ele>529.0</ele><time>2026-03-28T11:52:22.184Z</time></trkpt><trkpt lat="39.2397171" lon="16.7957814"><ele>529.0</ele><time>2026-03-28T11:52:24.173Z</time></trkpt><trkpt lat="39.2397163" lon="16.79589"><ele>529.0</ele><time>2026-03-28T11:52:28.173Z</time></trkpt><trkpt lat="39.2397097" lon="16.7959822"><ele>529.0</ele><time>2026-03-28T11:52:30.174Z</time></trkpt><trkpt lat="39.2397094" lon="16.7960666"><ele>529.0</ele><time>2026-03-28T11:52:32.178Z</time></trkpt><trkpt lat="39.2397107" lon="16.7961633"><ele>529.0</ele><time>2026-03-28T11:52:35.17Z</time></trkpt><trkpt lat="39.2397091" lon="16.7962468"><ele>529.0</ele><time>2026-03-28T11:53:07.199Z</time></trkpt><trkpt lat="39.239683" lon="16.7963484"><ele>526.1666666666667</ele><time>2026-03-28T11:53:11.201Z</time></trkpt><trkpt lat="39.2396881" lon="16.7964759"><ele>523.3333333333334</ele><time>2026-03-28T11:54:09.2Z</time></trkpt><trkpt lat="39.2396775" lon="16.7965733"><ele>520.5</ele><time>2026-03-28T11:54:30.19Z</time></trkpt><trkpt lat="39.2397252" lon="16.7966337"><ele>517.6666666666666</ele><time>2026-03-28T11:54:36.195Z</time></trkpt><trkpt lat="39.2397806" lon="16.7966775"><ele>514.8333333333333</ele><time>2026-03-28T11:54:47.193Z</time></trkpt><trkpt lat="39.2397882" lon="16.7967652"><ele>512.0</ele><time>2026-03-28T11:54:51.196Z</time></trkpt><trkpt lat="39.2397856" lon="16.7968661"><ele>510.99999999999994</ele><time>2026-03-28T11:55:15.197Z</time></trkpt><trkpt lat="39.2397778" lon="16.7969491"><ele>510.0</ele><time>2026-03-28T11:55:23.201Z</time></trkpt><trkpt lat="39.2397688" lon="16.7970519"><ele>509.0</ele><time>2026-03-28T11:55:25.197Z</time></trkpt><trkpt lat="39.2397536" lon="16.7971549"><ele>508.0</ele><time>2026-03-28T11:55:27.193Z</time></trkpt><trkpt lat="39.2397361" lon="16.797304"><ele>506.99999999999994</ele><time>2026-03-28T11:55:29.21Z</time></trkpt><trkpt lat="39.2397165" lon="16.797382"><ele>506.0</ele><time>2026-03-28T11:55:30.212Z</time></trkpt><trkpt lat="39.2396744" lon="16.7975164"><ele>505.99999999999994</ele><time>2026-03-28T11:55:32.196Z</time></trkpt><trkpt lat="39.2396547" lon="16.7976209"><ele>506.0</ele><time>2026-03-28T11:55:34.196Z</time></trkpt><trkpt lat="39.2396152" lon="16.797728"><ele>506.0</ele><time>2026-03-28T11:55:37.192Z</time></trkpt><trkpt lat="39.2395915" lon="16.7978111"><ele>506.0</ele><time>2026-03-28T11:55:41.191Z</time></trkpt><trkpt lat="39.239549" lon="16.7979103"><ele>505.99999999999994</ele><time>2026-03-28T11:56:25.192Z</time></trkpt><trkpt lat="39.2395003" lon="16.7979831"><ele>506.0</ele><time>2026-03-28T11:56:31.194Z</time></trkpt><trkpt lat="39.2394465" lon="16.7980721"><ele>505.3333333333333</ele><time>2026-03-28T11:56:43.197Z</time></trkpt><trkpt lat="39.2394029" lon="16.7981331"><ele>504.66666666666663</ele><time>2026-03-28T11:56:48.19Z</time></trkpt><trkpt lat="39.2393427" lon="16.7981664"><ele>504.0</ele><time>2026-03-28T11:56:57.184Z</time></trkpt><trkpt lat="39.2392769" lon="16.7982301"><ele>503.33333333333337</ele><time>2026-03-28T11:57:06.197Z</time></trkpt><trkpt lat="39.2392456" lon="16.7983112"><ele>502.6666666666667</ele><time>2026-03-28T11:57:09.189Z</time></trkpt><trkpt lat="39.2392067" lon="16.7984493"><ele>502.0</ele><time>2026-03-28T11:57:13.195Z</time></trkpt><trkpt lat="39.2391961" lon="16.7985761"><ele>501.42857142857133</ele><time>2026-03-28T11:57:15.2Z</time></trkpt><trkpt lat="39.2391971" lon="16.7986714"><ele>500.85714285714283</ele><time>2026-03-28T11:57:17.195Z</time></trkpt><trkpt lat="39.2391922" lon="16.7987613"><ele>500.2857142857142</ele><time>2026-03-28T11:57:20.2Z</time></trkpt><trkpt lat="39.2392047" lon="16.7988527"><ele>499.71428571428567</ele><time>2026-03-28T11:57:27.197Z</time></trkpt><trkpt lat="39.2391974" lon="16.7989486"><ele>499.1428571428571</ele><time>2026-03-28T11:57:31.204Z</time></trkpt><trkpt lat="39.239177" lon="16.7990436"><ele>498.57142857142856</ele><time>2026-03-28T11:57:36.19Z</time></trkpt><trkpt lat="39.239152" lon="16.7991224"><ele>498.0</ele><time>2026-03-28T11:57:39.202Z</time></trkpt><trkpt lat="39.2391277" lon="16.7992024"><ele>498.0</ele><time>2026-03-28T11:57:42.213Z</time></trkpt><trkpt lat="39.2391112" lon="16.7993129"><ele>498.0</ele><time>2026-03-28T11:57:45.193Z</time></trkpt><trkpt lat="39.2391024" lon="16.7993979"><ele>498.0</ele><time>2026-03-28T11:57:47.193Z</time></trkpt><trkpt lat="39.2390953" lon="16.7994787"><ele>498.0</ele><time>2026-03-28T11:57:49.191Z</time></trkpt><trkpt lat="39.2391072" lon="16.7995951"><ele>498.0</ele><time>2026-03-28T11:57:52.189Z</time></trkpt><trkpt lat="39.2391234" lon="16.7997"><ele>498.0</ele><time>2026-03-28T11:57:55.186Z</time></trkpt><trkpt lat="39.2391075" lon="16.7997823"><ele>496.59999999999997</ele><time>2026-03-28T11:58:14.192Z</time></trkpt><trkpt lat="39.2390389" lon="16.7998402"><ele>495.19999999999993</ele><time>2026-03-28T11:58:20.192Z</time></trkpt><trkpt lat="39.238914" lon="16.7998535"><ele>493.8</ele><time>2026-03-28T11:58:22.201Z</time></trkpt><trkpt lat="39.2388248" lon="16.7999045"><ele>492.4</ele><time>2026-03-28T11:58:24.203Z</time></trkpt><trkpt lat="39.2387632" lon="16.7999555"><ele>491.0</ele><time>2026-03-28T11:58:26.211Z</time></trkpt><trkpt lat="39.2386904" lon="16.8000108"><ele>489.20000000000005</ele><time>2026-03-28T11:58:28.2Z</time></trkpt><trkpt lat="39.2385983" lon="16.8000701"><ele>487.40000000000003</ele><time>2026-03-28T11:58:30.194Z</time></trkpt><trkpt lat="39.2384912" lon="16.8001319"><ele>485.6</ele><time>2026-03-28T11:58:32.185Z</time></trkpt><trkpt lat="39.2384294" lon="16.8001986"><ele>483.8</ele><time>2026-03-28T11:58:33.2Z</time></trkpt><trkpt lat="39.2383689" lon="16.8003055"><ele>482.0</ele><time>2026-03-28T11:58:34.195Z</time></trkpt><trkpt lat="39.2383158" lon="16.8004258"><ele>481.99999999999994</ele><time>2026-03-28T11:58:35.199Z</time></trkpt><trkpt lat="39.2382703" lon="16.8005401"><ele>482.0</ele><time>2026-03-28T11:58:36.198Z</time></trkpt><trkpt lat="39.2382294" lon="16.8006384"><ele>482.0</ele><time>2026-03-28T11:58:37.187Z</time></trkpt><trkpt lat="39.238187" lon="16.8007222"><ele>482.0</ele><time>2026-03-28T11:58:38.197Z</time></trkpt><trkpt lat="39.2381472" lon="16.8007939"><ele>481.99999999999994</ele><time>2026-03-28T11:58:39.196Z</time></trkpt><trkpt lat="39.2380779" lon="16.8009147"><ele>482.0</ele><time>2026-03-28T11:58:41.203Z</time></trkpt><trkpt lat="39.2380101" lon="16.8010356"><ele>478.8333333333333</ele><time>2026-03-28T11:58:43.191Z</time></trkpt><trkpt lat="39.2379441" lon="16.8011769"><ele>475.66666666666663</ele><time>2026-03-28T11:58:45.197Z</time></trkpt><trkpt lat="39.2379131" lon="16.8012636"><ele>472.5</ele><time>2026-03-28T11:58:46.192Z</time></trkpt><trkpt lat="39.237884" lon="16.8013578"><ele>469.33333333333337</ele><time>2026-03-28T11:58:47.191Z</time></trkpt><trkpt lat="39.2378594" lon="16.8014543"><ele>466.1666666666667</ele><time>2026-03-28T11:58:48.199Z</time></trkpt><trkpt lat="39.2378385" lon="16.8015429"><ele>463.0</ele><time>2026-03-28T11:58:49.185Z</time></trkpt><trkpt lat="39.2378215" lon="16.8016266"><ele>463.00000000000006</ele><time>2026-03-28T11:58:50.197Z</time></trkpt><trkpt lat="39.2378058" lon="16.8017069"><ele>463.0</ele><time>2026-03-28T11:58:51.201Z</time></trkpt><trkpt lat="39.2377721" lon="16.8018563"><ele>463.0</ele><time>2026-03-28T11:58:53.194Z</time></trkpt><trkpt lat="39.2377367" lon="16.8019996"><ele>463.0</ele><time>2026-03-28T11:58:55.185Z</time></trkpt><trkpt lat="39.2377242" lon="16.8020818"><ele>463.00000000000006</ele><time>2026-03-28T11:58:56.198Z</time></trkpt><trkpt lat="39.2377231" lon="16.8021683"><ele>463.0</ele><time>2026-03-28T11:58:57.195Z</time></trkpt><trkpt lat="39.2377399" lon="16.8022516"><ele>463.6666666666667</ele><time>2026-03-28T11:58:58.197Z</time></trkpt><trkpt lat="39.2377733" lon="16.8023221"><ele>464.33333333333337</ele><time>2026-03-28T11:58:59.2Z</time></trkpt><trkpt lat="39.2378204" lon="16.8023803"><ele>465.0</ele><time>2026-03-28T11:59:00.189Z</time></trkpt><trkpt lat="39.2378745" lon="16.8024219"><ele>465.66666666666663</ele><time>2026-03-28T11:59:01.195Z</time></trkpt><trkpt lat="39.2379811" lon="16.8024543"><ele>466.3333333333333</ele><time>2026-03-28T11:59:03.195Z</time></trkpt><trkpt lat="39.238112" lon="16.8024248"><ele>467.0</ele><time>2026-03-28T11:59:05.203Z</time></trkpt><trkpt lat="39.2381915" lon="16.8024015"><ele>466.99999999999994</ele><time>2026-03-28T11:59:06.191Z</time></trkpt><trkpt lat="39.2382773" lon="16.802385"><ele>467.0</ele><time>2026-03-28T11:59:07.191Z</time></trkpt><trkpt lat="39.2383611" lon="16.802381"><ele>467.0</ele><time>2026-03-28T11:59:08.199Z</time></trkpt><trkpt lat="39.2384405" lon="16.8023838"><ele>467.0</ele><time>2026-03-28T11:59:09.197Z</time></trkpt><trkpt lat="39.2385218" lon="16.802394"><ele>466.99999999999994</ele><time>2026-03-28T11:59:10.197Z</time></trkpt><trkpt lat="39.2386023" lon="16.8024049"><ele>467.0</ele><time>2026-03-28T11:59:11.194Z</time></trkpt><trkpt lat="39.2386785" lon="16.8024179"><ele>466.99999999999994</ele><time>2026-03-28T11:59:12.207Z</time></trkpt><trkpt lat="39.2387521" lon="16.8024304"><ele>467.0</ele><time>2026-03-28T11:59:13.19Z</time></trkpt><trkpt lat="39.2388221" lon="16.8024452"><ele>467.0</ele><time>2026-03-28T11:59:14.198Z</time></trkpt><trkpt lat="39.2388861" lon="16.8024674"><ele>467.0</ele><time>2026-03-28T11:59:15.188Z</time></trkpt><trkpt lat="39.2389476" lon="16.8025016"><ele>466.99999999999994</ele><time>2026-03-28T11:59:16.196Z</time></trkpt><trkpt lat="39.2390168" lon="16.8025643"><ele>467.0</ele><time>2026-03-28T11:59:17.196Z</time></trkpt><trkpt lat="39.2390841" lon="16.8026668"><ele>467.20000000000005</ele><time>2026-03-28T11:59:18.193Z</time></trkpt><trkpt lat="39.2391337" lon="16.8027969"><ele>467.40000000000003</ele><time>2026-03-28T11:59:19.217Z</time></trkpt><trkpt lat="39.2391549" lon="16.8029393"><ele>467.59999999999997</ele><time>2026-03-28T11:59:20.189Z</time></trkpt><trkpt lat="39.2391556" lon="16.803067"><ele>467.79999999999995</ele><time>2026-03-28T11:59:21.193Z</time></trkpt><trkpt lat="39.2391341" lon="16.8031806"><ele>468.0</ele><time>2026-03-28T11:59:22.201Z</time></trkpt><trkpt lat="39.2390882" lon="16.8032628"><ele>468.0</ele><time>2026-03-28T11:59:23.193Z</time></trkpt><trkpt lat="39.2390252" lon="16.803305"><ele>468.0</ele><time>2026-03-28T11:59:24.196Z</time></trkpt><trkpt lat="39.238959" lon="16.8033099"><ele>468.0</ele><time>2026-03-28T11:59:25.197Z</time></trkpt><trkpt lat="39.2388692" lon="16.8032535"><ele>468.0</ele><time>2026-03-28T11:59:27.204Z</time></trkpt><trkpt lat="39.2388179" lon="16.8031761"><ele>468.0</ele><time>2026-03-28T11:59:29.183Z</time></trkpt><trkpt lat="39.2387758" lon="16.8030851"><ele>468.0</ele><time>2026-03-28T11:59:31.197Z</time></trkpt><trkpt lat="39.2387228" lon="16.8029754"><ele>465.3333333333333</ele><time>2026-03-28T11:59:33.201Z</time></trkpt><trkpt lat="39.2386787" lon="16.8028989"><ele>462.66666666666663</ele><time>2026-03-28T11:59:34.19Z</time></trkpt><trkpt lat="39.2386245" lon="16.8028303"><ele>460.0</ele><time>2026-03-28T11:59:35.197Z</time></trkpt><trkpt lat="39.2385623" lon="16.8027835"><ele>457.3333333333333</ele><time>2026-03-28T11:59:36.199Z</time></trkpt><trkpt lat="39.2384895" lon="16.8027557"><ele>454.66666666666663</ele><time>2026-03-28T11:59:37.192Z</time></trkpt><trkpt lat="39.2384131" lon="16.8027628"><ele>452.0</ele><time>2026-03-28T11:59:38.201Z</time></trkpt><trkpt lat="39.2383356" lon="16.8027909"><ele>451.99999999999994</ele><time>2026-03-28T11:59:39.212Z</time></trkpt><trkpt lat="39.2382617" lon="16.8028464"><ele>452.0</ele><time>2026-03-28T11:59:40.199Z</time></trkpt><trkpt lat="39.2381947" lon="16.802924"><ele>452.0</ele><time>2026-03-28T11:59:41.196Z</time></trkpt><trkpt lat="39.2381281" lon="16.803008"><ele>452.0</ele><time>2026-03-28T11:59:42.189Z</time></trkpt><trkpt lat="39.2380536" lon="16.8030781"><ele>451.99999999999994</ele><time>2026-03-28T11:59:43.189Z</time></trkpt><trkpt lat="39.2379738" lon="16.8031141"><ele>452.0</ele><time>2026-03-28T11:59:44.18Z</time></trkpt><trkpt lat="39.2378915" lon="16.8031139"><ele>450.20000000000005</ele><time>2026-03-28T11:59:45.189Z</time></trkpt><trkpt lat="39.2378079" lon="16.8030848"><ele>448.40000000000003</ele><time>2026-03-28T11:59:46.193Z</time></trkpt><trkpt lat="39.2377214" lon="16.8030381"><ele>446.59999999999997</ele><time>2026-03-28T11:59:47.191Z</time></trkpt><trkpt lat="39.2376312" lon="16.8029745"><ele>444.79999999999995</ele><time>2026-03-28T11:59:48.195Z</time></trkpt><trkpt lat="39.237544" lon="16.8028947"><ele>443.0</ele><time>2026-03-28T11:59:49.194Z</time></trkpt><trkpt lat="39.2374631" lon="16.8028056"><ele>443.0</ele><time>2026-03-28T11:59:50.197Z</time></trkpt><trkpt lat="39.237393" lon="16.802704"><ele>442.99999999999994</ele><time>2026-03-28T11:59:51.201Z</time></trkpt><trkpt lat="39.2373291" lon="16.8026002"><ele>442.99999999999994</ele><time>2026-03-28T11:59:52.204Z</time></trkpt><trkpt lat="39.2372666" lon="16.8025057"><ele>443.0</ele><time>2026-03-28T11:59:53.198Z</time></trkpt><trkpt lat="39.2371977" lon="16.8024332"><ele>443.0</ele><time>2026-03-28T11:59:54.198Z</time></trkpt><trkpt lat="39.2371126" lon="16.802386"><ele>443.4</ele><time>2026-03-28T11:59:55.206Z</time></trkpt><trkpt lat="39.2370135" lon="16.8023654"><ele>443.79999999999995</ele><time>2026-03-28T11:59:56.199Z</time></trkpt><trkpt lat="39.2369084" lon="16.8023515"><ele>444.2</ele><time>2026-03-28T11:59:57.196Z</time></trkpt><trkpt lat="39.2368056" lon="16.8023381"><ele>444.6</ele><time>2026-03-28T11:59:58.2Z</time></trkpt><trkpt lat="39.236714" lon="16.8023094"><ele>445.0</ele><time>2026-03-28T11:59:59.203Z</time></trkpt><trkpt lat="39.236639" lon="16.8022604"><ele>445.00000000000006</ele><time>2026-03-28T12:00:00.196Z</time></trkpt><trkpt lat="39.2365785" lon="16.8021802"><ele>445.0</ele><time>2026-03-28T12:00:01.195Z</time></trkpt><trkpt lat="39.2365242" lon="16.8020967"><ele>445.0</ele><time>2026-03-28T12:00:02.193Z</time></trkpt><trkpt lat="39.2364934" lon="16.8019958"><ele>445.0</ele><time>2026-03-28T12:00:03.195Z</time></trkpt><trkpt lat="39.2364675" lon="16.8018885"><ele>445.00000000000006</ele><time>2026-03-28T12:00:04.198Z</time></trkpt><trkpt lat="39.2364474" lon="16.8017788"><ele>445.0</ele><time>2026-03-28T12:00:05.199Z</time></trkpt><trkpt lat="39.2364278" lon="16.8016731"><ele>444.0</ele><time>2026-03-28T12:00:06.185Z</time></trkpt><trkpt lat="39.2363987" lon="16.8015685"><ele>443.0</ele><time>2026-03-28T12:00:07.188Z</time></trkpt><trkpt lat="39.2363551" lon="16.8014717"><ele>442.0</ele><time>2026-03-28T12:00:08.202Z</time></trkpt><trkpt lat="39.2362929" lon="16.8013856"><ele>441.0</ele><time>2026-03-28T12:00:09.198Z</time></trkpt><trkpt lat="39.236223" lon="16.8013056"><ele>440.0</ele><time>2026-03-28T12:00:10.191Z</time></trkpt><trkpt lat="39.2361336" lon="16.8012621"><ele>440.0</ele><time>2026-03-28T12:00:11.186Z</time></trkpt><trkpt lat="39.2360342" lon="16.8012425"><ele>440.0</ele><time>2026-03-28T12:00:12.193Z</time></trkpt><trkpt lat="39.2359312" lon="16.8012568"><ele>440.0</ele><time>2026-03-28T12:00:13.192Z</time></trkpt><trkpt lat="39.235837" lon="16.8013008"><ele>440.0</ele><time>2026-03-28T12:00:14.195Z</time></trkpt><trkpt lat="39.2357563" lon="16.8013728"><ele>440.0</ele><time>2026-03-28T12:00:15.203Z</time></trkpt><trkpt lat="39.2356844" lon="16.8014703"><ele>438.2</ele><time>2026-03-28T12:00:16.192Z</time></trkpt><trkpt lat="39.2356166" lon="16.8015894"><ele>436.4</ele><time>2026-03-28T12:00:17.193Z</time></trkpt><trkpt lat="39.2355505" lon="16.8017074"><ele>434.6</ele><time>2026-03-28T12:00:18.211Z</time></trkpt><trkpt lat="39.2354847" lon="16.8018134"><ele>432.8</ele><time>2026-03-28T12:00:19.198Z</time></trkpt><trkpt lat="39.2354179" lon="16.8019162"><ele>431.0</ele><time>2026-03-28T12:00:20.201Z</time></trkpt><trkpt lat="39.2353517" lon="16.8020179"><ele>431.0</ele><time>2026-03-28T12:00:21.193Z</time></trkpt><trkpt lat="39.2352849" lon="16.8021225"><ele>431.0</ele><time>2026-03-28T12:00:22.188Z</time></trkpt><trkpt lat="39.2352158" lon="16.802232"><ele>431.0</ele><time>2026-03-28T12:00:23.192Z</time></trkpt><trkpt lat="39.2351445" lon="16.8023434"><ele>431.0</ele><time>2026-03-28T12:00:24.201Z</time></trkpt><trkpt lat="39.2350728" lon="16.8024522"><ele>431.0</ele><time>2026-03-28T12:00:25.2Z</time></trkpt><trkpt lat="39.2350031" lon="16.8025568"><ele>431.0</ele><time>2026-03-28T12:00:26.196Z</time></trkpt><trkpt lat="39.2349363" lon="16.8026565"><ele>431.0</ele><time>2026-03-28T12:00:27.198Z</time></trkpt><trkpt lat="39.2348712" lon="16.8027547"><ele>431.0</ele><time>2026-03-28T12:00:28.199Z</time></trkpt><trkpt lat="39.2348048" lon="16.8028531"><ele>431.0</ele><time>2026-03-28T12:00:29.192Z</time></trkpt><trkpt lat="39.2347435" lon="16.8029562"><ele>431.0</ele><time>2026-03-28T12:00:30.198Z</time></trkpt><trkpt lat="39.2346869" lon="16.8030618"><ele>430.0</ele><time>2026-03-28T12:00:31.199Z</time></trkpt><trkpt lat="39.2346365" lon="16.8031713"><ele>429.0</ele><time>2026-03-28T12:00:32.196Z</time></trkpt><trkpt lat="39.2345922" lon="16.8032869"><ele>428.0</ele><time>2026-03-28T12:00:33.195Z</time></trkpt><trkpt lat="39.2345551" lon="16.8034036"><ele>427.0</ele><time>2026-03-28T12:00:34.199Z</time></trkpt><trkpt lat="39.2345231" lon="16.8035168"><ele>426.0</ele><time>2026-03-28T12:00:35.195Z</time></trkpt><trkpt lat="39.2344947" lon="16.8036281"><ele>426.0</ele><time>2026-03-28T12:00:36.199Z</time></trkpt><trkpt lat="39.23447" lon="16.8037372"><ele>426.0</ele><time>2026-03-28T12:00:37.199Z</time></trkpt><trkpt lat="39.234453" lon="16.8038507"><ele>426.0</ele><time>2026-03-28T12:00:38.206Z</time></trkpt><trkpt lat="39.2344545" lon="16.8039673"><ele>426.0</ele><time>2026-03-28T12:00:39.199Z</time></trkpt><trkpt lat="39.2344794" lon="16.8040787"><ele>426.0</ele><time>2026-03-28T12:00:40.206Z</time></trkpt><trkpt lat="39.2345333" lon="16.804173"><ele>426.0</ele><time>2026-03-28T12:00:41.217Z</time></trkpt><trkpt lat="39.2346035" lon="16.804244"><ele>426.0</ele><time>2026-03-28T12:00:42.204Z</time></trkpt><trkpt lat="39.2346844" lon="16.8042875"><ele>426.0</ele><time>2026-03-28T12:00:43.197Z</time></trkpt><trkpt lat="39.2347687" lon="16.8043015"><ele>426.0</ele><time>2026-03-28T12:00:44.204Z</time></trkpt><trkpt lat="39.2348495" lon="16.804285"><ele>426.0</ele><time>2026-03-28T12:00:45.198Z</time></trkpt><trkpt lat="39.234925" lon="16.8042753"><ele>426.0</ele><time>2026-03-28T12:00:46.198Z</time></trkpt><trkpt lat="39.2349954" lon="16.8042855"><ele>426.0</ele><time>2026-03-28T12:00:47.2Z</time></trkpt><trkpt lat="39.2350603" lon="16.8043227"><ele>424.3333333333333</ele><time>2026-03-28T12:00:48.204Z</time></trkpt><trkpt lat="39.235123" lon="16.8043699"><ele>422.66666666666663</ele><time>2026-03-28T12:00:49.202Z</time></trkpt><trkpt lat="39.2351668" lon="16.8044526"><ele>421.0</ele><time>2026-03-28T12:00:50.202Z</time></trkpt><trkpt lat="39.2351957" lon="16.8045557"><ele>419.3333333333333</ele><time>2026-03-28T12:00:51.201Z</time></trkpt><trkpt lat="39.2352091" lon="16.8046704"><ele>417.66666666666663</ele><time>2026-03-28T12:00:52.203Z</time></trkpt><trkpt lat="39.2352054" lon="16.8047917"><ele>416.0</ele><time>2026-03-28T12:00:53.188Z</time></trkpt><trkpt lat="39.2351978" lon="16.8049198"><ele>416.0</ele><time>2026-03-28T12:00:54.189Z</time></trkpt><trkpt lat="39.235188" lon="16.8050509"><ele>416.0</ele><time>2026-03-28T12:00:55.209Z</time></trkpt><trkpt lat="39.2351519" lon="16.8051689"><ele>416.0</ele><time>2026-03-28T12:00:56.217Z</time></trkpt><trkpt lat="39.235099" lon="16.8052718"><ele>416.0</ele><time>2026-03-28T12:00:57.189Z</time></trkpt><trkpt lat="39.2350313" lon="16.8053531"><ele>416.0</ele><time>2026-03-28T12:00:58.193Z</time></trkpt><trkpt lat="39.2349466" lon="16.8053954"><ele>414.4</ele><time>2026-03-28T12:00:59.191Z</time></trkpt><trkpt lat="39.2348574" lon="16.8054098"><ele>412.8</ele><time>2026-03-28T12:01:00.198Z</time></trkpt><trkpt lat="39.2347652" lon="16.805397"><ele>411.2</ele><time>2026-03-28T12:01:01.206Z</time></trkpt><trkpt lat="39.234674" lon="16.8053788"><ele>409.59999999999997</ele><time>2026-03-28T12:01:02.197Z</time></trkpt><trkpt lat="39.2345845" lon="16.8053671"><ele>408.0</ele><time>2026-03-28T12:01:03.203Z</time></trkpt><trkpt lat="39.2344965" lon="16.8053688"><ele>408.0</ele><time>2026-03-28T12:01:04.198Z</time></trkpt><trkpt lat="39.2344102" lon="16.8053984"><ele>408.0</ele><time>2026-03-28T12:01:05.195Z</time></trkpt><trkpt lat="39.2343321" lon="16.8054561"><ele>408.0</ele><time>2026-03-28T12:01:06.191Z</time></trkpt><trkpt lat="39.2342683" lon="16.8055458"><ele>408.0</ele><time>2026-03-28T12:01:07.199Z</time></trkpt><trkpt lat="39.2342281" lon="16.8056772"><ele>408.0</ele><time>2026-03-28T12:01:08.198Z</time></trkpt><trkpt lat="39.2341903" lon="16.8058078"><ele>408.0</ele><time>2026-03-28T12:01:09.205Z</time></trkpt><trkpt lat="39.2341539" lon="16.8059407"><ele>408.0</ele><time>2026-03-28T12:01:10.195Z</time></trkpt><trkpt lat="39.2341165" lon="16.8060703"><ele>408.0</ele><time>2026-03-28T12:01:11.196Z</time></trkpt><trkpt lat="39.2340812" lon="16.8061907"><ele>408.0</ele><time>2026-03-28T12:01:12.193Z</time></trkpt><trkpt lat="39.2340478" lon="16.8062987"><ele>408.0</ele><time>2026-03-28T12:01:13.195Z</time></trkpt><trkpt lat="39.2340114" lon="16.8063916"><ele>406.57142857142856</ele><time>2026-03-28T12:01:14.2Z</time></trkpt><trkpt lat="39.2339729" lon="16.8064749"><ele>405.14285714285717</ele><time>2026-03-28T12:01:15.205Z</time></trkpt><trkpt lat="39.2339159" lon="16.8065252"><ele>403.71428571428567</ele><time>2026-03-28T12:01:16.197Z</time></trkpt><trkpt lat="39.2338489" lon="16.8065435"><ele>402.2857142857143</ele><time>2026-03-28T12:01:17.2Z</time></trkpt><trkpt lat="39.2337789" lon="16.8065145"><ele>400.85714285714283</ele><time>2026-03-28T12:01:18.204Z</time></trkpt><trkpt lat="39.2337208" lon="16.8064494"><ele>399.4285714285714</ele><time>2026-03-28T12:01:19.198Z</time></trkpt><trkpt lat="39.2336786" lon="16.8063585"><ele>398.0</ele><time>2026-03-28T12:01:20.198Z</time></trkpt><trkpt lat="39.2336381" lon="16.8062686"><ele>397.66666666666663</ele><time>2026-03-28T12:01:21.192Z</time></trkpt><trkpt lat="39.2335861" lon="16.8061941"><ele>397.3333333333333</ele><time>2026-03-28T12:01:22.195Z</time></trkpt><trkpt lat="39.2335183" lon="16.8061394"><ele>397.0</ele><time>2026-03-28T12:01:23.194Z</time></trkpt><trkpt lat="39.233437" lon="16.8061089"><ele>396.66666666666663</ele><time>2026-03-28T12:01:24.198Z</time></trkpt><trkpt lat="39.2333447" lon="16.8061045"><ele>396.3333333333333</ele><time>2026-03-28T12:01:25.201Z</time></trkpt><trkpt lat="39.2332476" lon="16.8061036"><ele>396.0</ele><time>2026-03-28T12:01:26.197Z</time></trkpt><trkpt lat="39.2330423" lon="16.806108"><ele>396.6666666666667</ele><time>2026-03-28T12:01:28.172Z</time></trkpt><trkpt lat="39.232947" lon="16.806109"><ele>397.33333333333337</ele><time>2026-03-28T12:01:29.17Z</time></trkpt><trkpt lat="39.2328568" lon="16.8061089"><ele>398.0</ele><time>2026-03-28T12:01:30.184Z</time></trkpt><trkpt lat="39.2327762" lon="16.8061011"><ele>398.6666666666667</ele><time>2026-03-28T12:01:31.174Z</time></trkpt><trkpt lat="39.2326977" lon="16.8060799"><ele>399.33333333333337</ele><time>2026-03-28T12:01:32.173Z</time></trkpt><trkpt lat="39.2326157" lon="16.8060385"><ele>400.0</ele><time>2026-03-28T12:01:33.17Z</time></trkpt><trkpt lat="39.2325322" lon="16.8059781"><ele>400.0</ele><time>2026-03-28T12:01:34.173Z</time></trkpt><trkpt lat="39.2324552" lon="16.8058982"><ele>400.0</ele><time>2026-03-28T12:01:35.178Z</time></trkpt><trkpt lat="39.2323775" lon="16.8058166"><ele>400.0</ele><time>2026-03-28T12:01:36.172Z</time></trkpt><trkpt lat="39.2322883" lon="16.8057531"><ele>400.0</ele><time>2026-03-28T12:01:37.183Z</time></trkpt><trkpt lat="39.2321917" lon="16.8057151"><ele>400.0</ele><time>2026-03-28T12:01:38.178Z</time></trkpt><trkpt lat="39.232092" lon="16.8056955"><ele>399.0</ele><time>2026-03-28T12:01:39.173Z</time></trkpt><trkpt lat="39.2319942" lon="16.8056939"><ele>398.0</ele><time>2026-03-28T12:01:40.175Z</time></trkpt><trkpt lat="39.2318986" lon="16.8057113"><ele>397.0</ele><time>2026-03-28T12:01:41.172Z</time></trkpt><trkpt lat="39.2318026" lon="16.8057515"><ele>396.0</ele><time>2026-03-28T12:01:42.174Z</time></trkpt><trkpt lat="39.2317053" lon="16.8057961"><ele>395.0</ele><time>2026-03-28T12:01:43.173Z</time></trkpt><trkpt lat="39.2316122" lon="16.8058596"><ele>395.0</ele><time>2026-03-28T12:01:44.173Z</time></trkpt><trkpt lat="39.2315193" lon="16.8059468"><ele>395.0</ele><time>2026-03-28T12:01:45.175Z</time></trkpt><trkpt lat="39.2314261" lon="16.8060397"><ele>395.0</ele><time>2026-03-28T12:01:46.185Z</time></trkpt><trkpt lat="39.2313347" lon="16.8061362"><ele>395.0</ele><time>2026-03-28T12:01:47.173Z</time></trkpt><trkpt lat="39.2312438" lon="16.8062351"><ele>393.0</ele><time>2026-03-28T12:01:48.17Z</time></trkpt><trkpt lat="39.2311507" lon="16.8063364"><ele>391.0</ele><time>2026-03-28T12:01:49.174Z</time></trkpt><trkpt lat="39.2310574" lon="16.8064382"><ele>389.0</ele><time>2026-03-28T12:01:50.178Z</time></trkpt><trkpt lat="39.2309648" lon="16.8065378"><ele>387.0</ele><time>2026-03-28T12:01:51.175Z</time></trkpt><trkpt lat="39.2308766" lon="16.8066288"><ele>387.0</ele><time>2026-03-28T12:01:52.178Z</time></trkpt><trkpt lat="39.2307939" lon="16.8067129"><ele>387.0</ele><time>2026-03-28T12:01:53.176Z</time></trkpt><trkpt lat="39.230714" lon="16.8067932"><ele>387.0</ele><time>2026-03-28T12:01:54.187Z</time></trkpt><trkpt lat="39.2306356" lon="16.8068691"><ele>387.0</ele><time>2026-03-28T12:01:55.178Z</time></trkpt><trkpt lat="39.2305593" lon="16.8069456"><ele>387.0</ele><time>2026-03-28T12:01:56.177Z</time></trkpt><trkpt lat="39.2304851" lon="16.8070251"><ele>386.0</ele><time>2026-03-28T12:01:57.174Z</time></trkpt><trkpt lat="39.2304114" lon="16.8071063"><ele>385.0</ele><time>2026-03-28T12:01:58.185Z</time></trkpt><trkpt lat="39.2303393" lon="16.8071879"><ele>384.0</ele><time>2026-03-28T12:01:59.182Z</time></trkpt><trkpt lat="39.230278" lon="16.8072811"><ele>383.0</ele><time>2026-03-28T12:02:00.176Z</time></trkpt><trkpt lat="39.2302271" lon="16.8073878"><ele>382.0</ele><time>2026-03-28T12:02:01.178Z</time></trkpt><trkpt lat="39.2301773" lon="16.8074951"><ele>382.0</ele><time>2026-03-28T12:02:02.177Z</time></trkpt><trkpt lat="39.2301112" lon="16.8075845"><ele>382.0</ele><time>2026-03-28T12:02:03.18Z</time></trkpt><trkpt lat="39.2300288" lon="16.8076439"><ele>382.0</ele><time>2026-03-28T12:02:04.173Z</time></trkpt><trkpt lat="39.2299377" lon="16.8076753"><ele>382.0</ele><time>2026-03-28T12:02:05.168Z</time></trkpt><trkpt lat="39.2298408" lon="16.8077004"><ele>382.0</ele><time>2026-03-28T12:02:06.171Z</time></trkpt><trkpt lat="39.229743" lon="16.8077458"><ele>379.8</ele><time>2026-03-28T12:02:07.179Z</time></trkpt><trkpt lat="39.2296561" lon="16.8078269"><ele>377.6</ele><time>2026-03-28T12:02:08.183Z</time></trkpt><trkpt lat="39.2295738" lon="16.8079206"><ele>375.40000000000003</ele><time>2026-03-28T12:02:09.188Z</time></trkpt><trkpt lat="39.229505" lon="16.8080273"><ele>373.20000000000005</ele><time>2026-03-28T12:02:10.169Z</time></trkpt><trkpt lat="39.2294282" lon="16.8081222"><ele>371.0</ele><time>2026-03-28T12:02:11.174Z</time></trkpt><trkpt lat="39.2293435" lon="16.8081933"><ele>371.0</ele><time>2026-03-28T12:02:12.171Z</time></trkpt><trkpt lat="39.2292465" lon="16.808245"><ele>371.0</ele><time>2026-03-28T12:02:13.171Z</time></trkpt><trkpt lat="39.2291404" lon="16.8082753"><ele>371.0</ele><time>2026-03-28T12:02:14.179Z</time></trkpt><trkpt lat="39.2290296" lon="16.8082832"><ele>371.0</ele><time>2026-03-28T12:02:15.167Z</time></trkpt><trkpt lat="39.2289166" lon="16.8082715"><ele>371.0</ele><time>2026-03-28T12:02:16.185Z</time></trkpt><trkpt lat="39.2288114" lon="16.808257"><ele>370.5</ele><time>2026-03-28T12:02:17.172Z</time></trkpt><trkpt lat="39.2287128" lon="16.8082433"><ele>370.0</ele><time>2026-03-28T12:02:18.173Z</time></trkpt><trkpt lat="39.2286231" lon="16.8082291"><ele>369.5</ele><time>2026-03-28T12:02:19.177Z</time></trkpt><trkpt lat="39.2285443" lon="16.8082148"><ele>369.0</ele><time>2026-03-28T12:02:20.17Z</time></trkpt><trkpt lat="39.2284787" lon="16.8082125"><ele>368.5</ele><time>2026-03-28T12:02:21.175Z</time></trkpt><trkpt lat="39.2283834" lon="16.8082417"><ele>368.0</ele><time>2026-03-28T12:02:23.174Z</time></trkpt><trkpt lat="39.2282894" lon="16.8082964"><ele>368.0</ele><time>2026-03-28T12:02:25.179Z</time></trkpt><trkpt lat="39.2282052" lon="16.8083806"><ele>368.0</ele><time>2026-03-28T12:02:27.175Z</time></trkpt><trkpt lat="39.2281645" lon="16.8084445"><ele>368.0</ele><time>2026-03-28T12:02:28.173Z</time></trkpt><trkpt lat="39.2281275" lon="16.8085223"><ele>368.0</ele><time>2026-03-28T12:02:29.174Z</time></trkpt><trkpt lat="39.2280929" lon="16.8086139"><ele>368.0</ele><time>2026-03-28T12:02:30.18Z</time></trkpt><trkpt lat="39.2280534" lon="16.8087198"><ele>368.0</ele><time>2026-03-28T12:02:31.176Z</time></trkpt><trkpt lat="39.228002" lon="16.8088422"><ele>366.4</ele><time>2026-03-28T12:02:32.167Z</time></trkpt><trkpt lat="39.2279473" lon="16.8089729"><ele>364.79999999999995</ele><time>2026-03-28T12:02:33.175Z</time></trkpt><trkpt lat="39.2278957" lon="16.8090963"><ele>363.2</ele><time>2026-03-28T12:02:34.168Z</time></trkpt><trkpt lat="39.227847" lon="16.8092123"><ele>361.6</ele><time>2026-03-28T12:02:35.175Z</time></trkpt><trkpt lat="39.2278025" lon="16.8093234"><ele>360.0</ele><time>2026-03-28T12:02:36.173Z</time></trkpt><trkpt lat="39.2277584" lon="16.8094322"><ele>359.8333333333333</ele><time>2026-03-28T12:02:37.17Z</time></trkpt><trkpt lat="39.227711" lon="16.8095324"><ele>359.6666666666667</ele><time>2026-03-28T12:02:38.169Z</time></trkpt><trkpt lat="39.2276615" lon="16.8096212"><ele>359.5</ele><time>2026-03-28T12:02:39.175Z</time></trkpt><trkpt lat="39.2276058" lon="16.8096997"><ele>359.33333333333337</ele><time>2026-03-28T12:02:40.167Z</time></trkpt><trkpt lat="39.2275353" lon="16.8097667"><ele>359.1666666666667</ele><time>2026-03-28T12:02:41.177Z</time></trkpt><trkpt lat="39.2274594" lon="16.8098275"><ele>359.0</ele><time>2026-03-28T12:02:42.166Z</time></trkpt><trkpt lat="39.227365" lon="16.8098633"><ele>357.4</ele><time>2026-03-28T12:02:43.171Z</time></trkpt><trkpt lat="39.2272645" lon="16.8098878"><ele>355.79999999999995</ele><time>2026-03-28T12:02:44.176Z</time></trkpt><trkpt lat="39.2271619" lon="16.8099146"><ele>354.20000000000005</ele><time>2026-03-28T12:02:45.168Z</time></trkpt><trkpt lat="39.2270604" lon="16.8099434"><ele>352.6</ele><time>2026-03-28T12:02:46.181Z</time></trkpt><trkpt lat="39.2269673" lon="16.809972"><ele>351.0</ele><time>2026-03-28T12:02:47.174Z</time></trkpt><trkpt lat="39.2268785" lon="16.8099998"><ele>351.0</ele><time>2026-03-28T12:02:48.175Z</time></trkpt><trkpt lat="39.2267939" lon="16.8100278"><ele>351.0</ele><time>2026-03-28T12:02:49.17Z</time></trkpt><trkpt lat="39.22671" lon="16.810058"><ele>351.0</ele><time>2026-03-28T12:02:50.172Z</time></trkpt><trkpt lat="39.2266231" lon="16.8100878"><ele>351.0</ele><time>2026-03-28T12:02:51.17Z</time></trkpt><trkpt lat="39.2265322" lon="16.8101185"><ele>351.0</ele><time>2026-03-28T12:02:52.173Z</time></trkpt><trkpt lat="39.2264369" lon="16.8101496"><ele>349.0</ele><time>2026-03-28T12:02:53.172Z</time></trkpt><trkpt lat="39.2263367" lon="16.8101819"><ele>347.0</ele><time>2026-03-28T12:02:54.173Z</time></trkpt><trkpt lat="39.2262345" lon="16.8102165"><ele>345.0</ele><time>2026-03-28T12:02:55.186Z</time></trkpt><trkpt lat="39.2261369" lon="16.8102515"><ele>343.0</ele><time>2026-03-28T12:02:56.178Z</time></trkpt><trkpt lat="39.2260446" lon="16.8102916"><ele>341.0</ele><time>2026-03-28T12:02:57.173Z</time></trkpt><trkpt lat="39.2259625" lon="16.8103518"><ele>341.0</ele><time>2026-03-28T12:02:58.18Z</time></trkpt><trkpt lat="39.2258948" lon="16.810436"><ele>341.0</ele><time>2026-03-28T12:02:59.181Z</time></trkpt><trkpt lat="39.2258428" lon="16.8105377"><ele>341.0</ele><time>2026-03-28T12:03:00.197Z</time></trkpt><trkpt lat="39.2258012" lon="16.8106472"><ele>341.0</ele><time>2026-03-28T12:03:01.178Z</time></trkpt><trkpt lat="39.2257656" lon="16.810762"><ele>341.0</ele><time>2026-03-28T12:03:02.175Z</time></trkpt><trkpt lat="39.2257429" lon="16.8108804"><ele>339.6</ele><time>2026-03-28T12:03:03.177Z</time></trkpt><trkpt lat="39.2257283" lon="16.8110001"><ele>338.20000000000005</ele><time>2026-03-28T12:03:04.173Z</time></trkpt><trkpt lat="39.2257472" lon="16.811121"><ele>336.79999999999995</ele><time>2026-03-28T12:03:05.19Z</time></trkpt><trkpt lat="39.2257869" lon="16.8112449"><ele>335.4</ele><time>2026-03-28T12:03:06.174Z</time></trkpt><trkpt lat="39.2258336" lon="16.811374"><ele>334.0</ele><time>2026-03-28T12:03:07.171Z</time></trkpt><trkpt lat="39.2258817" lon="16.8115095"><ele>334.0</ele><time>2026-03-28T12:03:08.181Z</time></trkpt><trkpt lat="39.2259296" lon="16.8116483"><ele>334.0</ele><time>2026-03-28T12:03:09.183Z</time></trkpt><trkpt lat="39.2259777" lon="16.8117853"><ele>334.0</ele><time>2026-03-28T12:03:10.177Z</time></trkpt><trkpt lat="39.2260242" lon="16.8119215"><ele>334.0</ele><time>2026-03-28T12:03:11.187Z</time></trkpt><trkpt lat="39.2260643" lon="16.812046"><ele>333.0</ele><time>2026-03-28T12:03:12.176Z</time></trkpt><trkpt lat="39.2260955" lon="16.8121594"><ele>332.0</ele><time>2026-03-28T12:03:13.175Z</time></trkpt><trkpt lat="39.2261028" lon="16.8122662"><ele>331.0</ele><time>2026-03-28T12:03:14.172Z</time></trkpt><trkpt lat="39.2260823" lon="16.8123564"><ele>330.0</ele><time>2026-03-28T12:03:15.175Z</time></trkpt><trkpt lat="39.2260344" lon="16.8124153"><ele>329.0</ele><time>2026-03-28T12:03:16.179Z</time></trkpt><trkpt lat="39.2259714" lon="16.8124429"><ele>328.0</ele><time>2026-03-28T12:03:17.184Z</time></trkpt><trkpt lat="39.2259002" lon="16.8124616"><ele>328.0</ele><time>2026-03-28T12:03:18.185Z</time></trkpt><trkpt lat="39.2258228" lon="16.812485"><ele>328.0</ele><time>2026-03-28T12:03:19.182Z</time></trkpt><trkpt lat="39.2257458" lon="16.8125131"><ele>328.0</ele><time>2026-03-28T12:03:20.178Z</time></trkpt><trkpt lat="39.225671" lon="16.8125416"><ele>328.0</ele><time>2026-03-28T12:03:21.178Z</time></trkpt><trkpt lat="39.2256013" lon="16.8125667"><ele>328.0</ele><time>2026-03-28T12:03:22.181Z</time></trkpt><trkpt lat="39.2255403" lon="16.8125926"><ele>328.0</ele><time>2026-03-28T12:03:23.175Z</time></trkpt><trkpt lat="39.225452" lon="16.8126794"><ele>326.5</ele><time>2026-03-28T12:03:25.171Z</time></trkpt><trkpt lat="39.2254384" lon="16.8128221"><ele>325.0</ele><time>2026-03-28T12:03:27.177Z</time></trkpt><trkpt lat="39.2254867" lon="16.8128793"><ele>323.5</ele><time>2026-03-28T12:03:28.176Z</time></trkpt><trkpt lat="39.2255597" lon="16.8128984"><ele>322.0</ele><time>2026-03-28T12:03:29.186Z</time></trkpt><trkpt lat="39.2256351" lon="16.8128997"><ele>320.5</ele><time>2026-03-28T12:03:30.172Z</time></trkpt><trkpt lat="39.225706" lon="16.8129074"><ele>319.0</ele><time>2026-03-28T12:03:31.18Z</time></trkpt><trkpt lat="39.2258151" lon="16.812981"><ele>319.0</ele><time>2026-03-28T12:03:33.176Z</time></trkpt><trkpt lat="39.2258631" lon="16.8130418"><ele>319.0</ele><time>2026-03-28T12:03:34.179Z</time></trkpt><trkpt lat="39.2258891" lon="16.8131313"><ele>319.0</ele><time>2026-03-28T12:03:35.176Z</time></trkpt><trkpt lat="39.2258871" lon="16.8132429"><ele>319.0</ele><time>2026-03-28T12:03:36.185Z</time></trkpt><trkpt lat="39.2258739" lon="16.8133562"><ele>319.0</ele><time>2026-03-28T12:03:37.177Z</time></trkpt><trkpt lat="39.2258518" lon="16.8134743"><ele>319.0</ele><time>2026-03-28T12:03:38.172Z</time></trkpt><trkpt lat="39.225833" lon="16.8135937"><ele>317.4</ele><time>2026-03-28T12:03:39.172Z</time></trkpt><trkpt lat="39.2258171" lon="16.8137123"><ele>315.79999999999995</ele><time>2026-03-28T12:03:40.169Z</time></trkpt><trkpt lat="39.2257989" lon="16.8138301"><ele>314.20000000000005</ele><time>2026-03-28T12:03:41.18Z</time></trkpt><trkpt lat="39.2257739" lon="16.8139457"><ele>312.6</ele><time>2026-03-28T12:03:42.179Z</time></trkpt><trkpt lat="39.2257278" lon="16.8140431"><ele>311.0</ele><time>2026-03-28T12:03:43.173Z</time></trkpt><trkpt lat="39.2256668" lon="16.8141184"><ele>309.5</ele><time>2026-03-28T12:03:44.175Z</time></trkpt><trkpt lat="39.2255926" lon="16.8141677"><ele>308.0</ele><time>2026-03-28T12:03:45.172Z</time></trkpt><trkpt lat="39.2255072" lon="16.8141856"><ele>306.5</ele><time>2026-03-28T12:03:46.178Z</time></trkpt><trkpt lat="39.2254191" lon="16.814207"><ele>305.0</ele><time>2026-03-28T12:03:47.182Z</time></trkpt><trkpt lat="39.2253358" lon="16.8142305"><ele>303.5</ele><time>2026-03-28T12:03:48.168Z</time></trkpt><trkpt lat="39.2252585" lon="16.8142536"><ele>302.0</ele><time>2026-03-28T12:03:49.175Z</time></trkpt><trkpt lat="39.2251846" lon="16.8142748"><ele>302.0</ele><time>2026-03-28T12:03:50.173Z</time></trkpt><trkpt lat="39.2251039" lon="16.8142982"><ele>302.0</ele><time>2026-03-28T12:03:51.174Z</time></trkpt><trkpt lat="39.2250212" lon="16.8143323"><ele>302.0</ele><time>2026-03-28T12:03:52.183Z</time></trkpt><trkpt lat="39.2249515" lon="16.8143822"><ele>302.0</ele><time>2026-03-28T12:03:53.169Z</time></trkpt><trkpt lat="39.2248993" lon="16.8144502"><ele>302.0</ele><time>2026-03-28T12:03:54.174Z</time></trkpt><trkpt lat="39.2248698" lon="16.8145331"><ele>302.0</ele><time>2026-03-28T12:03:55.172Z</time></trkpt><trkpt lat="39.2248522" lon="16.8146219"><ele>301.33333333333337</ele><time>2026-03-28T12:03:56.172Z</time></trkpt><trkpt lat="39.2248626" lon="16.8147181"><ele>300.6666666666667</ele><time>2026-03-28T12:03:57.177Z</time></trkpt><trkpt lat="39.2249015" lon="16.8148095"><ele>300.0</ele><time>2026-03-28T12:03:58.18Z</time></trkpt><trkpt lat="39.2249584" lon="16.8148913"><ele>299.3333333333333</ele><time>2026-03-28T12:03:59.174Z</time></trkpt><trkpt lat="39.225029" lon="16.8149725"><ele>298.66666666666663</ele><time>2026-03-28T12:04:00.177Z</time></trkpt><trkpt lat="39.2251054" lon="16.8150611"><ele>298.0</ele><time>2026-03-28T12:04:01.169Z</time></trkpt><trkpt lat="39.2251781" lon="16.8151488"><ele>296.5</ele><time>2026-03-28T12:04:02.176Z</time></trkpt><trkpt lat="39.2252371" lon="16.8152384"><ele>295.0</ele><time>2026-03-28T12:04:03.17Z</time></trkpt><trkpt lat="39.2252716" lon="16.8153382"><ele>293.5</ele><time>2026-03-28T12:04:04.171Z</time></trkpt><trkpt lat="39.2252689" lon="16.8154414"><ele>292.0</ele><time>2026-03-28T12:04:05.168Z</time></trkpt><trkpt lat="39.2252374" lon="16.8155338"><ele>290.5</ele><time>2026-03-28T12:04:06.178Z</time></trkpt><trkpt lat="39.2251813" lon="16.815607"><ele>289.0</ele><time>2026-03-28T12:04:07.172Z</time></trkpt><trkpt lat="39.2251033" lon="16.8156523"><ele>289.0</ele><time>2026-03-28T12:04:08.186Z</time></trkpt><trkpt lat="39.2249962" lon="16.8156612"><ele>289.0</ele><time>2026-03-28T12:04:09.179Z</time></trkpt><trkpt lat="39.2248943" lon="16.8156387"><ele>289.0</ele><time>2026-03-28T12:04:10.179Z</time></trkpt><trkpt lat="39.2247943" lon="16.8155764"><ele>289.0</ele><time>2026-03-28T12:04:11.173Z</time></trkpt><trkpt lat="39.2246969" lon="16.8155293"><ele>289.0</ele><time>2026-03-28T12:04:12.174Z</time></trkpt><trkpt lat="39.2246059" lon="16.8154881"><ele>287.7142857142857</ele><time>2026-03-28T12:04:13.176Z</time></trkpt><trkpt lat="39.224522" lon="16.8154519"><ele>286.42857142857144</ele><time>2026-03-28T12:04:14.178Z</time></trkpt><trkpt lat="39.2244429" lon="16.8154324"><ele>285.1428571428571</ele><time>2026-03-28T12:04:15.177Z</time></trkpt><trkpt lat="39.2243702" lon="16.8154422"><ele>283.8571428571429</ele><time>2026-03-28T12:04:16.18Z</time></trkpt><trkpt lat="39.2243065" lon="16.8154684"><ele>282.57142857142856</ele><time>2026-03-28T12:04:17.169Z</time></trkpt><trkpt lat="39.2242715" lon="16.8155418"><ele>281.2857142857143</ele><time>2026-03-28T12:04:18.178Z</time></trkpt><trkpt lat="39.2242655" lon="16.8156334"><ele>280.0</ele><time>2026-03-28T12:04:19.173Z</time></trkpt><trkpt lat="39.2242809" lon="16.8157396"><ele>280.0</ele><time>2026-03-28T12:04:20.174Z</time></trkpt><trkpt lat="39.2243081" lon="16.8158569"><ele>280.0</ele><time>2026-03-28T12:04:21.181Z</time></trkpt><trkpt lat="39.2243334" lon="16.8159772"><ele>280.0</ele><time>2026-03-28T12:04:22.171Z</time></trkpt><trkpt lat="39.2243535" lon="16.8160948"><ele>280.0</ele><time>2026-03-28T12:04:23.187Z</time></trkpt><trkpt lat="39.2243714" lon="16.8162022"><ele>280.0</ele><time>2026-03-28T12:04:24.181Z</time></trkpt><trkpt lat="39.2243904" lon="16.8163036"><ele>278.8333333333333</ele><time>2026-03-28T12:04:25.173Z</time></trkpt><trkpt lat="39.2244116" lon="16.8164002"><ele>277.66666666666663</ele><time>2026-03-28T12:04:26.177Z</time></trkpt><trkpt lat="39.2244358" lon="16.8164936"><ele>276.5</ele><time>2026-03-28T12:04:27.169Z</time></trkpt><trkpt lat="39.224469" lon="16.816586"><ele>275.3333333333333</ele><time>2026-03-28T12:04:28.179Z</time></trkpt><trkpt lat="39.224515" lon="16.8166763"><ele>274.1666666666667</ele><time>2026-03-28T12:04:29.174Z</time></trkpt><trkpt lat="39.2245765" lon="16.8167625"><ele>273.0</ele><time>2026-03-28T12:04:30.176Z</time></trkpt><trkpt lat="39.2246476" lon="16.8168374"><ele>271.8333333333333</ele><time>2026-03-28T12:04:31.174Z</time></trkpt><trkpt lat="39.2247216" lon="16.8169037"><ele>270.6666666666667</ele><time>2026-03-28T12:04:32.174Z</time></trkpt><trkpt lat="39.224793" lon="16.8169626"><ele>269.5</ele><time>2026-03-28T12:04:33.187Z</time></trkpt><trkpt lat="39.2248582" lon="16.8170128"><ele>268.33333333333337</ele><time>2026-03-28T12:04:34.179Z</time></trkpt><trkpt lat="39.2249201" lon="16.8170608"><ele>267.1666666666667</ele><time>2026-03-28T12:04:35.178Z</time></trkpt><trkpt lat="39.2249743" lon="16.817116"><ele>266.0</ele><time>2026-03-28T12:04:36.184Z</time></trkpt><trkpt lat="39.2250193" lon="16.8171786"><ele>266.0</ele><time>2026-03-28T12:04:37.173Z</time></trkpt><trkpt lat="39.2250514" lon="16.8172516"><ele>266.0</ele><time>2026-03-28T12:04:38.188Z</time></trkpt><trkpt lat="39.2250636" lon="16.817412"><ele>266.0</ele><time>2026-03-28T12:04:40.179Z</time></trkpt><trkpt lat="39.2250288" lon="16.817494"><ele>266.0</ele><time>2026-03-28T12:04:41.171Z</time></trkpt><trkpt lat="39.2249751" lon="16.8175695"><ele>266.0</ele><time>2026-03-28T12:04:42.169Z</time></trkpt><trkpt lat="39.2249045" lon="16.8176263"><ele>266.0</ele><time>2026-03-28T12:04:43.168Z</time></trkpt><trkpt lat="39.2248225" lon="16.8176662"><ele>264.33333333333337</ele><time>2026-03-28T12:04:44.173Z</time></trkpt><trkpt lat="39.2247437" lon="16.8176993"><ele>262.6666666666667</ele><time>2026-03-28T12:04:45.179Z</time></trkpt><trkpt lat="39.2246696" lon="16.8177338"><ele>261.0</ele><time>2026-03-28T12:04:46.169Z</time></trkpt><trkpt lat="39.2245927" lon="16.8177652"><ele>259.3333333333333</ele><time>2026-03-28T12:04:47.171Z</time></trkpt><trkpt lat="39.2245137" lon="16.817796"><ele>257.66666666666663</ele><time>2026-03-28T12:04:48.168Z</time></trkpt><trkpt lat="39.2244352" lon="16.8178241"><ele>256.0</ele><time>2026-03-28T12:04:49.171Z</time></trkpt><trkpt lat="39.2243613" lon="16.8178472"><ele>256.0</ele><time>2026-03-28T12:04:50.171Z</time></trkpt><trkpt lat="39.2242915" lon="16.8178686"><ele>256.0</ele><time>2026-03-28T12:04:51.169Z</time></trkpt><trkpt lat="39.2241741" lon="16.8179031"><ele>256.0</ele><time>2026-03-28T12:04:53.172Z</time></trkpt><trkpt lat="39.2240648" lon="16.8179129"><ele>256.0</ele><time>2026-03-28T12:04:55.17Z</time></trkpt><trkpt lat="39.223952" lon="16.8178929"><ele>256.0</ele><time>2026-03-28T12:04:57.171Z</time></trkpt><trkpt lat="39.223839" lon="16.8178695"><ele>254.83333333333331</ele><time>2026-03-28T12:04:59.175Z</time></trkpt><trkpt lat="39.2237133" lon="16.8178473"><ele>253.66666666666666</ele><time>2026-03-28T12:05:01.179Z</time></trkpt><trkpt lat="39.2236448" lon="16.8178367"><ele>252.5</ele><time>2026-03-28T12:05:02.173Z</time></trkpt><trkpt lat="39.2235744" lon="16.8178271"><ele>251.33333333333331</ele><time>2026-03-28T12:05:03.173Z</time></trkpt><trkpt lat="39.2235038" lon="16.8178172"><ele>250.16666666666666</ele><time>2026-03-28T12:05:04.174Z</time></trkpt><trkpt lat="39.2234327" lon="16.8178327"><ele>249.0</ele><time>2026-03-28T12:05:05.168Z</time></trkpt><trkpt lat="39.2233763" lon="16.8178782"><ele>249.0</ele><time>2026-03-28T12:05:06.169Z</time></trkpt><trkpt lat="39.2233385" lon="16.8179506"><ele>249.0</ele><time>2026-03-28T12:05:07.178Z</time></trkpt><trkpt lat="39.2233239" lon="16.8180452"><ele>249.0</ele><time>2026-03-28T12:05:08.171Z</time></trkpt><trkpt lat="39.22333" lon="16.8181446"><ele>249.0</ele><time>2026-03-28T12:05:09.172Z</time></trkpt><trkpt lat="39.2233729" lon="16.8182289"><ele>249.0</ele><time>2026-03-28T12:05:10.174Z</time></trkpt><trkpt lat="39.2234379" lon="16.8183056"><ele>249.0</ele><time>2026-03-28T12:05:11.17Z</time></trkpt><trkpt lat="39.2235094" lon="16.8183805"><ele>249.0</ele><time>2026-03-28T12:05:12.17Z</time></trkpt><trkpt lat="39.2235782" lon="16.8184543"><ele>249.0</ele><time>2026-03-28T12:05:13.174Z</time></trkpt><trkpt lat="39.2236392" lon="16.8185204"><ele>249.0</ele><time>2026-03-28T12:05:14.168Z</time></trkpt><trkpt lat="39.2236953" lon="16.8185822"><ele>249.0</ele><time>2026-03-28T12:05:15.172Z</time></trkpt><trkpt lat="39.2237514" lon="16.8186414"><ele>249.0</ele><time>2026-03-28T12:05:16.169Z</time></trkpt><trkpt lat="39.2238125" lon="16.8186929"><ele>249.0</ele><time>2026-03-28T12:05:17.18Z</time></trkpt><trkpt lat="39.2238768" lon="16.8187285"><ele>248.16666666666666</ele><time>2026-03-28T12:05:18.178Z</time></trkpt><trkpt lat="39.2239415" lon="16.8187587"><ele>247.33333333333331</ele><time>2026-03-28T12:05:19.19Z</time></trkpt><trkpt lat="39.2240318" lon="16.8188084"><ele>246.5</ele><time>2026-03-28T12:05:21.173Z</time></trkpt><trkpt lat="39.2240876" lon="16.8188645"><ele>245.66666666666666</ele><time>2026-03-28T12:05:26.17Z</time></trkpt><trkpt lat="39.2241389" lon="16.8189447"><ele>244.83333333333331</ele><time>2026-03-28T12:05:30.181Z</time></trkpt><trkpt lat="39.2241471" lon="16.8190304"><ele>244.0</ele><time>2026-03-28T12:07:44.175Z</time></trkpt><trkpt lat="39.2241035" lon="16.8191456"><ele>244.0</ele><time>2026-03-28T12:07:47.176Z</time></trkpt><trkpt lat="39.2240136" lon="16.8192102"><ele>243.99999999999997</ele><time>2026-03-28T12:07:49.175Z</time></trkpt><trkpt lat="39.223914" lon="16.8192542"><ele>243.99999999999997</ele><time>2026-03-28T12:07:51.172Z</time></trkpt><trkpt lat="39.2238037" lon="16.8192884"><ele>244.0</ele><time>2026-03-28T12:07:53.176Z</time></trkpt><trkpt lat="39.2237082" lon="16.8193071"><ele>244.0</ele><time>2026-03-28T12:07:55.191Z</time></trkpt><trkpt lat="39.2236394" lon="16.8193091"><ele>243.49999999999997</ele><time>2026-03-28T12:07:57.173Z</time></trkpt><trkpt lat="39.223571" lon="16.8192975"><ele>243.0</ele><time>2026-03-28T12:07:59.17Z</time></trkpt><trkpt lat="39.2234929" lon="16.819281"><ele>242.5</ele><time>2026-03-28T12:08:01.17Z</time></trkpt><trkpt lat="39.2234006" lon="16.8193091"><ele>242.0</ele><time>2026-03-28T12:08:03.17Z</time></trkpt><trkpt lat="39.2233291" lon="16.8194284"><ele>241.49999999999997</ele><time>2026-03-28T12:08:05.191Z</time></trkpt><trkpt lat="39.2233027" lon="16.8195109"><ele>241.0</ele><time>2026-03-28T12:08:06.171Z</time></trkpt><trkpt lat="39.2232793" lon="16.8196027"><ele>239.49999999999997</ele><time>2026-03-28T12:08:07.174Z</time></trkpt><trkpt lat="39.2232536" lon="16.8196974"><ele>238.0</ele><time>2026-03-28T12:08:08.173Z</time></trkpt><trkpt lat="39.2232222" lon="16.8197941"><ele>236.5</ele><time>2026-03-28T12:08:09.173Z</time></trkpt><trkpt lat="39.2231875" lon="16.8198968"><ele>235.0</ele><time>2026-03-28T12:08:10.207Z</time></trkpt><trkpt lat="39.2231535" lon="16.8200059"><ele>233.49999999999997</ele><time>2026-03-28T12:08:11.179Z</time></trkpt><trkpt lat="39.2231175" lon="16.8201241"><ele>232.0</ele><time>2026-03-28T12:08:12.173Z</time></trkpt><trkpt lat="39.2230818" lon="16.8202418"><ele>230.83333333333331</ele><time>2026-03-28T12:08:13.175Z</time></trkpt><trkpt lat="39.2230482" lon="16.82035"><ele>229.66666666666666</ele><time>2026-03-28T12:08:14.17Z</time></trkpt><trkpt lat="39.2230133" lon="16.8204487"><ele>228.5</ele><time>2026-03-28T12:08:15.196Z</time></trkpt><trkpt lat="39.2229743" lon="16.8205372"><ele>227.33333333333331</ele><time>2026-03-28T12:08:16.168Z</time></trkpt><trkpt lat="39.2229295" lon="16.8206229"><ele>226.16666666666666</ele><time>2026-03-28T12:08:17.177Z</time></trkpt><trkpt lat="39.2228775" lon="16.8207051"><ele>225.0</ele><time>2026-03-28T12:08:18.177Z</time></trkpt><trkpt lat="39.2228187" lon="16.820789"><ele>225.0</ele><time>2026-03-28T12:08:19.171Z</time></trkpt><trkpt lat="39.2227575" lon="16.8208784"><ele>225.0</ele><time>2026-03-28T12:08:20.172Z</time></trkpt><trkpt lat="39.2226965" lon="16.8209654"><ele>225.0</ele><time>2026-03-28T12:08:21.171Z</time></trkpt><trkpt lat="39.2226311" lon="16.82104"><ele>225.0</ele><time>2026-03-28T12:08:22.174Z</time></trkpt><trkpt lat="39.2225629" lon="16.8211048"><ele>225.0</ele><time>2026-03-28T12:08:23.174Z</time></trkpt><trkpt lat="39.2224827" lon="16.8211385"><ele>225.0</ele><time>2026-03-28T12:08:24.188Z</time></trkpt><trkpt lat="39.2224023" lon="16.8211619"><ele>224.16666666666666</ele><time>2026-03-28T12:08:25.169Z</time></trkpt><trkpt lat="39.2223195" lon="16.8211871"><ele>223.33333333333331</ele><time>2026-03-28T12:08:26.174Z</time></trkpt><trkpt lat="39.2222408" lon="16.8212278"><ele>222.5</ele><time>2026-03-28T12:08:27.175Z</time></trkpt><trkpt lat="39.2221729" lon="16.8212874"><ele>221.66666666666666</ele><time>2026-03-28T12:08:28.179Z</time></trkpt><trkpt lat="39.2221133" lon="16.8213654"><ele>220.83333333333331</ele><time>2026-03-28T12:08:29.179Z</time></trkpt><trkpt lat="39.2220596" lon="16.8214588"><ele>220.0</ele><time>2026-03-28T12:08:30.175Z</time></trkpt><trkpt lat="39.222007" lon="16.8215594"><ele>220.0</ele><time>2026-03-28T12:08:31.183Z</time></trkpt><trkpt lat="39.2219505" lon="16.8216616"><ele>220.0</ele><time>2026-03-28T12:08:32.179Z</time></trkpt><trkpt lat="39.2218923" lon="16.8217699"><ele>220.0</ele><time>2026-03-28T12:08:33.174Z</time></trkpt><trkpt lat="39.2218339" lon="16.8218833"><ele>220.0</ele><time>2026-03-28T12:08:34.175Z</time></trkpt><trkpt lat="39.2217742" lon="16.82199"><ele>220.0</ele><time>2026-03-28T12:08:35.169Z</time></trkpt><trkpt lat="39.2217172" lon="16.8220899"><ele>219.16666666666666</ele><time>2026-03-28T12:08:36.173Z</time></trkpt><trkpt lat="39.2216639" lon="16.8221856"><ele>218.33333333333331</ele><time>2026-03-28T12:08:37.173Z</time></trkpt><trkpt lat="39.2216143" lon="16.8222768"><ele>217.5</ele><time>2026-03-28T12:08:38.174Z</time></trkpt><trkpt lat="39.2215642" lon="16.8223653"><ele>216.66666666666669</ele><time>2026-03-28T12:08:39.171Z</time></trkpt><trkpt lat="39.2215073" lon="16.82245"><ele>215.83333333333334</ele><time>2026-03-28T12:08:40.189Z</time></trkpt><trkpt lat="39.2214395" lon="16.8225272"><ele>215.0</ele><time>2026-03-28T12:08:41.169Z</time></trkpt><trkpt lat="39.221358" lon="16.822595"><ele>212.4</ele><time>2026-03-28T12:08:42.17Z</time></trkpt><trkpt lat="39.2212664" lon="16.8226514"><ele>209.8</ele><time>2026-03-28T12:08:43.17Z</time></trkpt><trkpt lat="39.2211684" lon="16.8227016"><ele>207.2</ele><time>2026-03-28T12:08:44.173Z</time></trkpt><trkpt lat="39.221066" lon="16.8227505"><ele>204.6</ele><time>2026-03-28T12:08:45.193Z</time></trkpt><trkpt lat="39.2209627" lon="16.8228001"><ele>202.0</ele><time>2026-03-28T12:08:46.178Z</time></trkpt><trkpt lat="39.2208604" lon="16.8228471"><ele>202.0</ele><time>2026-03-28T12:08:47.173Z</time></trkpt><trkpt lat="39.2207647" lon="16.8228894"><ele>202.0</ele><time>2026-03-28T12:08:48.169Z</time></trkpt><trkpt lat="39.2206777" lon="16.822928"><ele>202.0</ele><time>2026-03-28T12:08:49.175Z</time></trkpt><trkpt lat="39.2205957" lon="16.8229653"><ele>202.0</ele><time>2026-03-28T12:08:50.171Z</time></trkpt><trkpt lat="39.2205114" lon="16.823003"><ele>202.0</ele><time>2026-03-28T12:08:51.177Z</time></trkpt><trkpt lat="39.2204263" lon="16.8230408"><ele>201.49999999999997</ele><time>2026-03-28T12:08:52.179Z</time></trkpt><trkpt lat="39.2203463" lon="16.8230763"><ele>201.0</ele><time>2026-03-28T12:08:53.179Z</time></trkpt><trkpt lat="39.2202747" lon="16.8231086"><ele>200.5</ele><time>2026-03-28T12:08:54.176Z</time></trkpt><trkpt lat="39.2202111" lon="16.8231415"><ele>200.0</ele><time>2026-03-28T12:08:55.197Z</time></trkpt><trkpt lat="39.2201189" lon="16.8232277"><ele>199.49999999999997</ele><time>2026-03-28T12:08:57.178Z</time></trkpt><trkpt lat="39.2200813" lon="16.8233308"><ele>199.0</ele><time>2026-03-28T12:08:59.171Z</time></trkpt><trkpt lat="39.2201427" lon="16.823454"><ele>197.85714285714283</ele><time>2026-03-28T12:09:01.176Z</time></trkpt><trkpt lat="39.2201989" lon="16.8235019"><ele>196.71428571428572</ele><time>2026-03-28T12:09:02.192Z</time></trkpt><trkpt lat="39.2202741" lon="16.8235118"><ele>195.57142857142856</ele><time>2026-03-28T12:09:03.172Z</time></trkpt><trkpt lat="39.2203509" lon="16.8235095"><ele>194.42857142857142</ele><time>2026-03-28T12:09:04.169Z</time></trkpt><trkpt lat="39.220422" lon="16.8235262"><ele>193.28571428571428</ele><time>2026-03-28T12:09:05.176Z</time></trkpt><trkpt lat="39.2204917" lon="16.8235592"><ele>192.14285714285714</ele><time>2026-03-28T12:09:06.173Z</time></trkpt><trkpt lat="39.2205486" lon="16.8236331"><ele>191.0</ele><time>2026-03-28T12:09:07.174Z</time></trkpt><trkpt lat="39.220608" lon="16.8236977"><ele>191.16666666666666</ele><time>2026-03-28T12:09:08.175Z</time></trkpt><trkpt lat="39.220678" lon="16.8237296"><ele>191.33333333333331</ele><time>2026-03-28T12:09:09.176Z</time></trkpt><trkpt lat="39.2207491" lon="16.823732"><ele>191.5</ele><time>2026-03-28T12:09:10.192Z</time></trkpt><trkpt lat="39.2208174" lon="16.8237298"><ele>191.66666666666666</ele><time>2026-03-28T12:09:11.176Z</time></trkpt><trkpt lat="39.2208784" lon="16.823757"><ele>191.83333333333334</ele><time>2026-03-28T12:09:12.177Z</time></trkpt><trkpt lat="39.2209" lon="16.8239173"><ele>192.0</ele><time>2026-03-28T12:09:14.178Z</time></trkpt><trkpt lat="39.2208781" lon="16.8240174"><ele>192.0</ele><time>2026-03-28T12:09:15.198Z</time></trkpt><trkpt lat="39.2208664" lon="16.8241177"><ele>192.0</ele><time>2026-03-28T12:09:16.171Z</time></trkpt><trkpt lat="39.2208701" lon="16.8242216"><ele>192.0</ele><time>2026-03-28T12:09:17.17Z</time></trkpt><trkpt lat="39.2208971" lon="16.8243154"><ele>192.0</ele><time>2026-03-28T12:09:18.17Z</time></trkpt><trkpt lat="39.2209443" lon="16.8243851"><ele>192.0</ele><time>2026-03-28T12:09:19.174Z</time></trkpt><trkpt lat="39.2210103" lon="16.824427"><ele>192.0</ele><time>2026-03-28T12:09:20.174Z</time></trkpt><trkpt lat="39.2210905" lon="16.8244477"><ele>190.33333333333334</ele><time>2026-03-28T12:09:21.174Z</time></trkpt><trkpt lat="39.2211778" lon="16.8244524"><ele>188.66666666666666</ele><time>2026-03-28T12:09:22.179Z</time></trkpt><trkpt lat="39.2212663" lon="16.824458"><ele>187.0</ele><time>2026-03-28T12:09:23.172Z</time></trkpt><trkpt lat="39.2213509" lon="16.824466"><ele>185.33333333333331</ele><time>2026-03-28T12:09:24.174Z</time></trkpt><trkpt lat="39.2214277" lon="16.8244643"><ele>183.66666666666666</ele><time>2026-03-28T12:09:25.176Z</time></trkpt><trkpt lat="39.221503" lon="16.8244495"><ele>182.0</ele><time>2026-03-28T12:09:26.191Z</time></trkpt><trkpt lat="39.2215794" lon="16.824418"><ele>182.0</ele><time>2026-03-28T12:09:27.173Z</time></trkpt><trkpt lat="39.2216581" lon="16.8243712"><ele>182.0</ele><time>2026-03-28T12:09:28.175Z</time></trkpt><trkpt lat="39.2217323" lon="16.8243199"><ele>182.0</ele><time>2026-03-28T12:09:29.179Z</time></trkpt><trkpt lat="39.2218008" lon="16.8242749"><ele>182.0</ele><time>2026-03-28T12:09:30.184Z</time></trkpt><trkpt lat="39.221864" lon="16.8242402"><ele>182.0</ele><time>2026-03-28T12:09:31.174Z</time></trkpt><trkpt lat="39.2219276" lon="16.8242492"><ele>182.0</ele><time>2026-03-28T12:09:32.171Z</time></trkpt><trkpt lat="39.2220098" lon="16.8243582"><ele>182.0</ele><time>2026-03-28T12:09:34.171Z</time></trkpt><trkpt lat="39.221972" lon="16.8245281"><ele>182.0</ele><time>2026-03-28T12:09:36.18Z</time></trkpt><trkpt lat="39.2219034" lon="16.8246212"><ele>182.0</ele><time>2026-03-28T12:09:37.172Z</time></trkpt><trkpt lat="39.2218275" lon="16.8247271"><ele>182.0</ele><time>2026-03-28T12:09:38.195Z</time></trkpt><trkpt lat="39.2217563" lon="16.824836"><ele>182.0</ele><time>2026-03-28T12:09:39.172Z</time></trkpt><trkpt lat="39.2216885" lon="16.8249408"><ele>182.0</ele><time>2026-03-28T12:09:40.176Z</time></trkpt><trkpt lat="39.221626" lon="16.8250419"><ele>182.0</ele><time>2026-03-28T12:09:41.178Z</time></trkpt><trkpt lat="39.2215671" lon="16.8251392"><ele>182.0</ele><time>2026-03-28T12:09:42.179Z</time></trkpt><trkpt lat="39.2215106" lon="16.8252326"><ele>182.0</ele><time>2026-03-28T12:09:43.174Z</time></trkpt><trkpt lat="39.2214566" lon="16.8253217"><ele>181.16666666666666</ele><time>2026-03-28T12:09:44.174Z</time></trkpt><trkpt lat="39.2214071" lon="16.8254062"><ele>180.33333333333331</ele><time>2026-03-28T12:09:45.176Z</time></trkpt><trkpt lat="39.2213591" lon="16.8254829"><ele>179.5</ele><time>2026-03-28T12:09:46.178Z</time></trkpt><trkpt lat="39.2213083" lon="16.8255495"><ele>178.66666666666666</ele><time>2026-03-28T12:09:47.201Z</time></trkpt><trkpt lat="39.2212563" lon="16.8256036"><ele>177.83333333333334</ele><time>2026-03-28T12:09:48.183Z</time></trkpt><trkpt lat="39.2211568" lon="16.8256922"><ele>177.0</ele><time>2026-03-28T12:09:50.18Z</time></trkpt><trkpt lat="39.2210659" lon="16.8257891"><ele>177.0</ele><time>2026-03-28T12:09:52.202Z</time></trkpt><trkpt lat="39.2209762" lon="16.8258877"><ele>177.0</ele><time>2026-03-28T12:09:54.178Z</time></trkpt><trkpt lat="39.2208698" lon="16.8259697"><ele>177.0</ele><time>2026-03-28T12:09:56.176Z</time></trkpt><trkpt lat="39.2207508" lon="16.8260276"><ele>177.0</ele><time>2026-03-28T12:09:58.197Z</time></trkpt><trkpt lat="39.2206827" lon="16.8260465"><ele>177.0</ele><time>2026-03-28T12:09:59.175Z</time></trkpt><trkpt lat="39.2206101" lon="16.8260639"><ele>177.14285714285714</ele><time>2026-03-28T12:10:00.178Z</time></trkpt><trkpt lat="39.2205345" lon="16.8260699"><ele>177.28571428571428</ele><time>2026-03-28T12:10:01.176Z</time></trkpt><trkpt lat="39.2204648" lon="16.8260346"><ele>177.42857142857142</ele><time>2026-03-28T12:10:02.177Z</time></trkpt><trkpt lat="39.2204082" lon="16.8259692"><ele>177.57142857142856</ele><time>2026-03-28T12:10:03.18Z</time></trkpt><trkpt lat="39.220357" lon="16.8258963"><ele>177.71428571428572</ele><time>2026-03-28T12:10:04.176Z</time></trkpt><trkpt lat="39.2202991" lon="16.825844"><ele>177.85714285714283</ele><time>2026-03-28T12:10:05.178Z</time></trkpt><trkpt lat="39.2202339" lon="16.825829"><ele>178.0</ele><time>2026-03-28T12:10:06.171Z</time></trkpt><trkpt lat="39.220164" lon="16.8258324"><ele>178.0</ele><time>2026-03-28T12:10:07.192Z</time></trkpt><trkpt lat="39.220094" lon="16.8258849"><ele>178.0</ele><time>2026-03-28T12:10:08.174Z</time></trkpt><trkpt lat="39.22002" lon="16.8259571"><ele>178.0</ele><time>2026-03-28T12:10:09.171Z</time></trkpt><trkpt lat="39.2199457" lon="16.8260297"><ele>178.0</ele><time>2026-03-28T12:10:10.173Z</time></trkpt><trkpt lat="39.2198686" lon="16.826074"><ele>178.0</ele><time>2026-03-28T12:10:11.17Z</time></trkpt><trkpt lat="39.2197893" lon="16.8260701"><ele>178.0</ele><time>2026-03-28T12:10:12.2Z</time></trkpt><trkpt lat="39.2197154" lon="16.8260275"><ele>177.0</ele><time>2026-03-28T12:10:13.17Z</time></trkpt><trkpt lat="39.2196387" lon="16.8259669"><ele>176.0</ele><time>2026-03-28T12:10:14.17Z</time></trkpt><trkpt lat="39.2195592" lon="16.8258991"><ele>175.0</ele><time>2026-03-28T12:10:15.17Z</time></trkpt><trkpt lat="39.2194774" lon="16.825838"><ele>174.0</ele><time>2026-03-28T12:10:16.17Z</time></trkpt><trkpt lat="39.2193948" lon="16.8257934"><ele>173.0</ele><time>2026-03-28T12:10:17.195Z</time></trkpt><trkpt lat="39.2193114" lon="16.8257763"><ele>173.0</ele><time>2026-03-28T12:10:18.171Z</time></trkpt><trkpt lat="39.2192239" lon="16.8257885"><ele>173.0</ele><time>2026-03-28T12:10:19.172Z</time></trkpt><trkpt lat="39.2191375" lon="16.8258273"><ele>173.0</ele><time>2026-03-28T12:10:20.171Z</time></trkpt><trkpt lat="39.2190531" lon="16.8258938"><ele>173.0</ele><time>2026-03-28T12:10:21.175Z</time></trkpt><trkpt lat="39.2189727" lon="16.8259743"><ele>173.0</ele><time>2026-03-28T12:10:22.179Z</time></trkpt><trkpt lat="39.2188962" lon="16.826058"><ele>172.2</ele><time>2026-03-28T12:10:23.183Z</time></trkpt><trkpt lat="39.218826" lon="16.8261421"><ele>171.4</ele><time>2026-03-28T12:10:24.181Z</time></trkpt><trkpt lat="39.2187578" lon="16.8262241"><ele>170.6</ele><time>2026-03-28T12:10:25.192Z</time></trkpt><trkpt lat="39.2186887" lon="16.8263011"><ele>169.79999999999998</ele><time>2026-03-28T12:10:26.18Z</time></trkpt><trkpt lat="39.2186184" lon="16.8263755"><ele>169.0</ele><time>2026-03-28T12:10:27.171Z</time></trkpt><trkpt lat="39.2185484" lon="16.8264496"><ele>169.0</ele><time>2026-03-28T12:10:28.174Z</time></trkpt><trkpt lat="39.2184799" lon="16.8265222"><ele>169.0</ele><time>2026-03-28T12:10:29.179Z</time></trkpt><trkpt lat="39.2184148" lon="16.8265887"><ele>169.0</ele><time>2026-03-28T12:10:30.187Z</time></trkpt><trkpt lat="39.2183555" lon="16.8266487"><ele>169.0</ele><time>2026-03-28T12:10:31.174Z</time></trkpt><trkpt lat="39.218301" lon="16.8267062"><ele>169.0</ele><time>2026-03-28T12:10:32.168Z</time></trkpt><trkpt lat="39.2182513" lon="16.8267637"><ele>169.0</ele><time>2026-03-28T12:10:33.177Z</time></trkpt><trkpt lat="39.2181726" lon="16.8268835"><ele>168.0</ele><time>2026-03-28T12:10:35.17Z</time></trkpt><trkpt lat="39.2181506" lon="16.8270318"><ele>167.0</ele><time>2026-03-28T12:10:37.172Z</time></trkpt><trkpt lat="39.2181705" lon="16.8271148"><ele>166.0</ele><time>2026-03-28T12:10:38.168Z</time></trkpt><trkpt lat="39.2182082" lon="16.8272035"><ele>165.0</ele><time>2026-03-28T12:10:39.176Z</time></trkpt><trkpt lat="39.2182602" lon="16.8272937"><ele>164.0</ele><time>2026-03-28T12:10:40.176Z</time></trkpt><trkpt lat="39.2183201" lon="16.8273832"><ele>163.0</ele><time>2026-03-28T12:10:41.171Z</time></trkpt><trkpt lat="39.2183825" lon="16.8274716"><ele>163.0</ele><time>2026-03-28T12:10:42.196Z</time></trkpt><trkpt lat="39.2184417" lon="16.8275572"><ele>163.0</ele><time>2026-03-28T12:10:43.17Z</time></trkpt><trkpt lat="39.218492" lon="16.8276463"><ele>163.0</ele><time>2026-03-28T12:10:44.17Z</time></trkpt><trkpt lat="39.2185291" lon="16.8277377"><ele>163.0</ele><time>2026-03-28T12:10:45.172Z</time></trkpt><trkpt lat="39.218549" lon="16.8278302"><ele>163.0</ele><time>2026-03-28T12:10:46.171Z</time></trkpt><trkpt lat="39.2185526" lon="16.8279251"><ele>163.0</ele><time>2026-03-28T12:10:47.17Z</time></trkpt><trkpt lat="39.2185502" lon="16.8280228"><ele>161.83333333333334</ele><time>2026-03-28T12:10:48.181Z</time></trkpt><trkpt lat="39.2185535" lon="16.8281241"><ele>160.66666666666669</ele><time>2026-03-28T12:10:49.174Z</time></trkpt><trkpt lat="39.2185708" lon="16.8282279"><ele>159.5</ele><time>2026-03-28T12:10:50.174Z</time></trkpt><trkpt lat="39.2185968" lon="16.828333"><ele>158.33333333333334</ele><time>2026-03-28T12:10:51.2Z</time></trkpt><trkpt lat="39.2186439" lon="16.8284258"><ele>157.16666666666666</ele><time>2026-03-28T12:10:52.169Z</time></trkpt><trkpt lat="39.2186953" lon="16.8285144"><ele>156.0</ele><time>2026-03-28T12:10:53.169Z</time></trkpt><trkpt lat="39.2187495" lon="16.828597"><ele>155.5</ele><time>2026-03-28T12:10:54.17Z</time></trkpt><trkpt lat="39.2188063" lon="16.8286757"><ele>155.0</ele><time>2026-03-28T12:10:55.168Z</time></trkpt><trkpt lat="39.2188684" lon="16.8287507"><ele>154.5</ele><time>2026-03-28T12:10:56.192Z</time></trkpt><trkpt lat="39.218936" lon="16.8288196"><ele>154.0</ele><time>2026-03-28T12:10:57.172Z</time></trkpt><trkpt lat="39.219013" lon="16.8288864"><ele>153.5</ele><time>2026-03-28T12:10:58.169Z</time></trkpt><trkpt lat="39.2190912" lon="16.8289584"><ele>153.0</ele><time>2026-03-28T12:10:59.171Z</time></trkpt><trkpt lat="39.2191665" lon="16.8290299"><ele>153.0</ele><time>2026-03-28T12:11:00.175Z</time></trkpt><trkpt lat="39.2192374" lon="16.829097"><ele>153.0</ele><time>2026-03-28T12:11:01.195Z</time></trkpt><trkpt lat="39.2192923" lon="16.8291708"><ele>153.0</ele><time>2026-03-28T12:11:02.175Z</time></trkpt><trkpt lat="39.2193386" lon="16.829256"><ele>153.0</ele><time>2026-03-28T12:11:03.174Z</time></trkpt><trkpt lat="39.2193798" lon="16.8293451"><ele>153.0</ele><time>2026-03-28T12:11:04.17Z</time></trkpt><trkpt lat="39.219416" lon="16.8294397"><ele>153.0</ele><time>2026-03-28T12:11:05.176Z</time></trkpt><trkpt lat="39.2194584" lon="16.8295236"><ele>152.0</ele><time>2026-03-28T12:11:06.171Z</time></trkpt><trkpt lat="39.2195117" lon="16.8295926"><ele>151.0</ele><time>2026-03-28T12:11:07.174Z</time></trkpt><trkpt lat="39.2195731" lon="16.8296446"><ele>150.0</ele><time>2026-03-28T12:11:08.171Z</time></trkpt><trkpt lat="39.219631" lon="16.8296922"><ele>149.0</ele><time>2026-03-28T12:11:09.18Z</time></trkpt><trkpt lat="39.2196895" lon="16.8298188"><ele>148.0</ele><time>2026-03-28T12:11:11.17Z</time></trkpt><trkpt lat="39.2196573" lon="16.8299645"><ele>147.0</ele><time>2026-03-28T12:11:13.174Z</time></trkpt><trkpt lat="39.2196148" lon="16.8300333"><ele>147.0</ele><time>2026-03-28T12:11:14.173Z</time></trkpt><trkpt lat="39.2195621" lon="16.8300926"><ele>147.0</ele><time>2026-03-28T12:11:15.177Z</time></trkpt><trkpt lat="39.2194991" lon="16.8301389"><ele>147.0</ele><time>2026-03-28T12:11:16.173Z</time></trkpt><trkpt lat="39.219425" lon="16.8301828"><ele>147.0</ele><time>2026-03-28T12:11:17.17Z</time></trkpt><trkpt lat="39.2193449" lon="16.8302331"><ele>147.0</ele><time>2026-03-28T12:11:18.181Z</time></trkpt><trkpt lat="39.2192635" lon="16.8302898"><ele>147.0</ele><time>2026-03-28T12:11:19.17Z</time></trkpt><trkpt lat="39.2191853" lon="16.8303472"><ele>146.66666666666666</ele><time>2026-03-28T12:11:20.192Z</time></trkpt><trkpt lat="39.2191242" lon="16.830414"><ele>146.33333333333334</ele><time>2026-03-28T12:11:21.17Z</time></trkpt><trkpt lat="39.2190783" lon="16.830499"><ele>146.0</ele><time>2026-03-28T12:11:22.171Z</time></trkpt><trkpt lat="39.2190359" lon="16.8305881"><ele>145.66666666666669</ele><time>2026-03-28T12:11:23.17Z</time></trkpt><trkpt lat="39.2189984" lon="16.8306693"><ele>145.33333333333334</ele><time>2026-03-28T12:11:24.174Z</time></trkpt><trkpt lat="39.2189385" lon="16.8307962"><ele>145.0</ele><time>2026-03-28T12:11:26.191Z</time></trkpt><trkpt lat="39.2188997" lon="16.8308835"><ele>144.0</ele><time>2026-03-28T12:11:28.175Z</time></trkpt><trkpt lat="39.2188738" lon="16.8309873"><ele>143.0</ele><time>2026-03-28T12:11:31.171Z</time></trkpt><trkpt lat="39.2188534" lon="16.8310683"><ele>142.0</ele><time>2026-03-28T12:11:35.175Z</time></trkpt><trkpt lat="39.2188257" lon="16.8311664"><ele>141.0</ele><time>2026-03-28T12:11:39.175Z</time></trkpt><trkpt lat="39.2188072" lon="16.8312605"><ele>140.0</ele><time>2026-03-28T12:11:41.192Z</time></trkpt><trkpt lat="39.2187707" lon="16.8313578"><ele>139.0</ele><time>2026-03-28T12:11:43.171Z</time></trkpt><trkpt lat="39.2187376" lon="16.8314496"><ele>139.0</ele><time>2026-03-28T12:11:45.171Z</time></trkpt><trkpt lat="39.2187064" lon="16.8315252"><ele>139.0</ele><time>2026-03-28T12:11:47.176Z</time></trkpt><trkpt lat="39.2186707" lon="16.8316232"><ele>139.0</ele><time>2026-03-28T12:11:50.174Z</time></trkpt><trkpt lat="39.2186471" lon="16.8317058"><ele>139.0</ele><time>2026-03-28T12:11:52.174Z</time></trkpt><trkpt lat="39.2186219" lon="16.8317867"><ele>139.0</ele><time>2026-03-28T12:11:54.187Z</time></trkpt><trkpt lat="39.2185745" lon="16.8318868"><ele>139.0</ele><time>2026-03-28T12:11:57.17Z</time></trkpt><trkpt lat="39.2185364" lon="16.8319706"><ele>139.42857142857142</ele><time>2026-03-28T12:12:00.171Z</time></trkpt><trkpt lat="39.2184853" lon="16.8320587"><ele>139.85714285714286</ele><time>2026-03-28T12:12:06.177Z</time></trkpt><trkpt lat="39.2184411" lon="16.832123"><ele>140.28571428571428</ele><time>2026-03-28T12:12:09.169Z</time></trkpt><trkpt lat="39.21839" lon="16.8321706"><ele>140.71428571428572</ele><time>2026-03-28T12:12:19.175Z</time></trkpt><trkpt lat="39.21832" lon="16.8322331"><ele>141.14285714285714</ele><time>2026-03-28T12:12:23.174Z</time></trkpt><trkpt lat="39.2182707" lon="16.8322884"><ele>141.57142857142856</ele><time>2026-03-28T12:12:27.176Z</time></trkpt><trkpt lat="39.2182125" lon="16.8323523"><ele>142.0</ele><time>2026-03-28T12:12:31.195Z</time></trkpt><trkpt lat="39.2181566" lon="16.8324064"><ele>141.85714285714286</ele><time>2026-03-28T12:12:35.174Z</time></trkpt><trkpt lat="39.218124" lon="16.8324874"><ele>141.7142857142857</ele><time>2026-03-28T12:12:54.176Z</time></trkpt><trkpt lat="39.2181084" lon="16.8325736"><ele>141.57142857142856</ele><time>2026-03-28T12:12:57.175Z</time></trkpt><trkpt lat="39.2181093" lon="16.8326891"><ele>141.42857142857142</ele><time>2026-03-28T12:13:01.173Z</time></trkpt><trkpt lat="39.2181292" lon="16.8327764"><ele>141.28571428571428</ele><time>2026-03-28T12:13:04.177Z</time></trkpt><trkpt lat="39.2181544" lon="16.832874"><ele>141.14285714285714</ele><time>2026-03-28T12:13:12.174Z</time></trkpt><trkpt lat="39.2181213" lon="16.8329501"><ele>141.0</ele><time>2026-03-28T12:13:35.178Z</time></trkpt><trkpt lat="39.218087" lon="16.8330309"><ele>140.83333333333334</ele><time>2026-03-28T12:13:41.171Z</time></trkpt><trkpt lat="39.2180675" lon="16.8331165"><ele>140.66666666666666</ele><time>2026-03-28T12:13:45.173Z</time></trkpt><trkpt lat="39.2180388" lon="16.8332081"><ele>140.5</ele><time>2026-03-28T12:14:05.174Z</time></trkpt><trkpt lat="39.2180011" lon="16.8332995"><ele>140.33333333333331</ele><time>2026-03-28T12:14:08.175Z</time></trkpt><trkpt lat="39.2179643" lon="16.833391"><ele>140.16666666666666</ele><time>2026-03-28T12:14:11.173Z</time></trkpt><trkpt lat="39.2179511" lon="16.833484"><ele>140.0</ele><time>2026-03-28T12:14:15.174Z</time></trkpt><trkpt lat="39.2179665" lon="16.8335821"><ele>139.5</ele><time>2026-03-28T12:14:19.17Z</time></trkpt><trkpt lat="39.2179792" lon="16.833697"><ele>139.0</ele><time>2026-03-28T12:14:22.172Z</time></trkpt><trkpt lat="39.2179802" lon="16.8337791"><ele>138.5</ele><time>2026-03-28T12:14:24.173Z</time></trkpt><trkpt lat="39.2179495" lon="16.8338793"><ele>138.0</ele><time>2026-03-28T12:14:27.171Z</time></trkpt><trkpt lat="39.2178841" lon="16.8339571"><ele>137.5</ele><time>2026-03-28T12:14:30.177Z</time></trkpt><trkpt lat="39.2178318" lon="16.8340091"><ele>137.0</ele><time>2026-03-28T12:14:32.171Z</time></trkpt><trkpt lat="39.2177718" lon="16.834094"><ele>137.0</ele><time>2026-03-28T12:14:35.192Z</time></trkpt><trkpt lat="39.2177528" lon="16.8341722"><ele>137.0</ele><time>2026-03-28T12:14:41.189Z</time></trkpt><trkpt lat="39.2177496" lon="16.8342595"><ele>137.0</ele><time>2026-03-28T12:15:25.178Z</time></trkpt><trkpt lat="39.2177644" lon="16.8343417"><ele>137.0</ele><time>2026-03-28T12:15:27.174Z</time></trkpt><trkpt lat="39.2177908" lon="16.8344323"><ele>137.0</ele><time>2026-03-28T12:15:29.173Z</time></trkpt><trkpt lat="39.2178236" lon="16.8345595"><ele>137.0</ele><time>2026-03-28T12:15:31.179Z</time></trkpt><trkpt lat="39.2178509" lon="16.8347014"><ele>136.83333333333331</ele><time>2026-03-28T12:15:33.175Z</time></trkpt><trkpt lat="39.217875" lon="16.8348445"><ele>136.66666666666666</ele><time>2026-03-28T12:15:35.172Z</time></trkpt><trkpt lat="39.2178936" lon="16.8349643"><ele>136.5</ele><time>2026-03-28T12:15:37.173Z</time></trkpt><trkpt lat="39.2178954" lon="16.835047"><ele>136.33333333333334</ele><time>2026-03-28T12:15:39.175Z</time></trkpt><trkpt lat="39.2178761" lon="16.8351256"><ele>136.16666666666669</ele><time>2026-03-28T12:15:41.176Z</time></trkpt><trkpt lat="39.217855" lon="16.8352078"><ele>136.0</ele><time>2026-03-28T12:15:43.176Z</time></trkpt><trkpt lat="39.217825" lon="16.8352946"><ele>135.8</ele><time>2026-03-28T12:15:45.176Z</time></trkpt><trkpt lat="39.2178159" lon="16.8354001"><ele>135.6</ele><time>2026-03-28T12:15:47.175Z</time></trkpt><trkpt lat="39.2178123" lon="16.8355143"><ele>135.4</ele><time>2026-03-28T12:15:49.174Z</time></trkpt><trkpt lat="39.2178204" lon="16.8356491"><ele>135.2</ele><time>2026-03-28T12:15:51.189Z</time></trkpt><trkpt lat="39.2178287" lon="16.835781"><ele>135.0</ele><time>2026-03-28T12:15:53.169Z</time></trkpt><trkpt lat="39.2177613" lon="16.8358656"><ele>135.0</ele><time>2026-03-28T12:15:55.171Z</time></trkpt><trkpt lat="39.2176579" lon="16.8359205"><ele>135.0</ele><time>2026-03-28T12:15:57.189Z</time></trkpt><trkpt lat="39.2176049" lon="16.8359679"><ele>135.0</ele><time>2026-03-28T12:15:58.174Z</time></trkpt><trkpt lat="39.2175533" lon="16.8360257"><ele>135.0</ele><time>2026-03-28T12:15:59.17Z</time></trkpt><trkpt lat="39.2174716" lon="16.8361162"><ele>135.0</ele><time>2026-03-28T12:16:01.171Z</time></trkpt><trkpt lat="39.2175032" lon="16.8362203"><ele>135.0</ele><time>2026-03-28T12:16:03.173Z</time></trkpt><trkpt lat="39.2175264" lon="16.8363431"><ele>135.16666666666666</ele><time>2026-03-28T12:16:05.169Z</time></trkpt><trkpt lat="39.2175123" lon="16.8364664"><ele>135.33333333333334</ele><time>2026-03-28T12:16:07.175Z</time></trkpt><trkpt lat="39.2174826" lon="16.8365854"><ele>135.5</ele><time>2026-03-28T12:16:09.178Z</time></trkpt><trkpt lat="39.2174122" lon="16.8367044"><ele>135.66666666666669</ele><time>2026-03-28T12:16:11.172Z</time></trkpt><trkpt lat="39.2173665" lon="16.8367657"><ele>135.83333333333334</ele><time>2026-03-28T12:16:12.178Z</time></trkpt><trkpt lat="39.2173235" lon="16.8368334"><ele>136.0</ele><time>2026-03-28T12:16:13.176Z</time></trkpt><trkpt lat="39.2172863" lon="16.8369097"><ele>138.16666666666669</ele><time>2026-03-28T12:16:14.171Z</time></trkpt><trkpt lat="39.2172338" lon="16.8370274"><ele>140.33333333333334</ele><time>2026-03-28T12:16:16.174Z</time></trkpt><trkpt lat="39.2172103" lon="16.8371147"><ele>142.5</ele><time>2026-03-28T12:16:20.173Z</time></trkpt><trkpt lat="39.217203" lon="16.837219"><ele>144.66666666666666</ele><time>2026-03-28T12:16:24.173Z</time></trkpt><trkpt lat="39.2172037" lon="16.8373106"><ele>146.83333333333331</ele><time>2026-03-28T12:16:26.175Z</time></trkpt><trkpt lat="39.2172085" lon="16.8374206"><ele>149.0</ele><time>2026-03-28T12:16:29.173Z</time></trkpt><trkpt lat="39.217214" lon="16.837515"><ele>149.0</ele><time>2026-03-28T12:16:32.175Z</time></trkpt><trkpt lat="39.2172391" lon="16.837607"><ele>149.0</ele><time>2026-03-28T12:16:43.187Z</time></trkpt><trkpt lat="39.2172466" lon="16.83769"><ele>149.0</ele><time>2026-03-28T12:16:46.195Z</time></trkpt><trkpt lat="39.2172456" lon="16.8377794"><ele>149.0</ele><time>2026-03-28T12:16:49.184Z</time></trkpt><trkpt lat="39.2172707" lon="16.837872"><ele>149.0</ele><time>2026-03-28T12:16:53.19Z</time></trkpt><trkpt lat="39.2173142" lon="16.8379405"><ele>149.0</ele><time>2026-03-28T12:16:56.194Z</time></trkpt><trkpt lat="39.2173489" lon="16.8380198"><ele>149.0</ele><time>2026-03-28T12:16:58.205Z</time></trkpt><trkpt lat="39.2173792" lon="16.8381092"><ele>147.0</ele><time>2026-03-28T12:17:00.196Z</time></trkpt><trkpt lat="39.2174211" lon="16.8381761"><ele>145.0</ele><time>2026-03-28T12:17:02.193Z</time></trkpt><trkpt lat="39.2174731" lon="16.8382378"><ele>143.0</ele><time>2026-03-28T12:17:04.199Z</time></trkpt><trkpt lat="39.2175143" lon="16.8383017"><ele>141.0</ele><time>2026-03-28T12:17:06.204Z</time></trkpt><trkpt lat="39.2175308" lon="16.838389"><ele>139.0</ele><time>2026-03-28T12:17:08.191Z</time></trkpt><trkpt lat="39.2175706" lon="16.8384673"><ele>137.0</ele><time>2026-03-28T12:17:10.197Z</time></trkpt><trkpt lat="39.2176306" lon="16.8384985"><ele>135.0</ele><time>2026-03-28T12:17:12.205Z</time></trkpt><trkpt lat="39.2177025" lon="16.8385578"><ele>135.0</ele><time>2026-03-28T12:17:15.194Z</time></trkpt><trkpt lat="39.2177755" lon="16.838606"><ele>135.0</ele><time>2026-03-28T12:17:23.193Z</time></trkpt><trkpt lat="39.2178428" lon="16.8386384"><ele>135.0</ele><time>2026-03-28T12:17:26.193Z</time></trkpt><trkpt lat="39.2179147" lon="16.838611"><ele>135.0</ele><time>2026-03-28T12:17:30.19Z</time></trkpt><trkpt lat="39.2179839" lon="16.8386391"><ele>135.0</ele><time>2026-03-28T12:17:33.188Z</time></trkpt><trkpt lat="39.2180469" lon="16.8386365"><ele>135.0</ele><time>2026-03-28T12:17:37.194Z</time></trkpt><trkpt lat="39.2181124" lon="16.8386528"><ele>135.0</ele><time>2026-03-28T12:17:47.201Z</time></trkpt><trkpt lat="39.2181635" lon="16.8387157"><ele>135.0</ele><time>2026-03-28T12:17:54.192Z</time></trkpt><trkpt lat="39.2181864" lon="16.8387955"><ele>135.0</ele><time>2026-03-28T12:18:00.186Z</time></trkpt><trkpt lat="39.2182235" lon="16.8388775"><ele>135.0</ele><time>2026-03-28T12:18:05.189Z</time></trkpt><trkpt lat="39.2182505" lon="16.8389589"><ele>135.0</ele><time>2026-03-28T12:18:10.196Z</time></trkpt><trkpt lat="39.2182337" lon="16.8390449"><ele>135.0</ele><time>2026-03-28T12:18:15.19Z</time></trkpt><trkpt lat="39.2182219" lon="16.8391401"><ele>135.0</ele><time>2026-03-28T12:18:20.195Z</time></trkpt><trkpt lat="39.2182289" lon="16.839235"><ele>135.0</ele><time>2026-03-28T12:18:24.186Z</time></trkpt><trkpt lat="39.2182165" lon="16.8393307"><ele>135.0</ele><time>2026-03-28T12:18:29.179Z</time></trkpt><trkpt lat="39.2182067" lon="16.8394125"><ele>135.0</ele><time>2026-03-28T12:18:32.213Z</time></trkpt><trkpt lat="39.2182441" lon="16.8394814"><ele>135.0</ele><time>2026-03-28T12:18:47.195Z</time></trkpt><trkpt lat="39.2182444" lon="16.8395655"><ele>135.0</ele><time>2026-03-28T12:18:52.19Z</time></trkpt><trkpt lat="39.2182974" lon="16.8395205"><ele>135.0</ele><time>2026-03-28T12:19:11.191Z</time></trkpt><trkpt lat="39.2183556" lon="16.8395648"><ele>135.0</ele><time>2026-03-28T12:19:13.195Z</time></trkpt><trkpt lat="39.2184281" lon="16.8396138"><ele>135.0</ele><time>2026-03-28T12:19:16.193Z</time></trkpt><trkpt lat="39.2184975" lon="16.8396139"><ele>135.0</ele><time>2026-03-28T12:19:20.188Z</time></trkpt><trkpt lat="39.2185491" lon="16.8396854"><ele>135.0</ele><time>2026-03-28T12:19:24.21Z</time></trkpt><trkpt lat="39.2185967" lon="16.8397579"><ele>135.0</ele><time>2026-03-28T12:19:27.193Z</time></trkpt><trkpt lat="39.2186546" lon="16.8398186"><ele>135.0</ele><time>2026-03-28T12:19:32.19Z</time></trkpt><trkpt lat="39.2186305" lon="16.8398937"><ele>135.0</ele><time>2026-03-28T12:19:37.192Z</time></trkpt><trkpt lat="39.2185752" lon="16.8399543"><ele>135.0</ele><time>2026-03-28T12:19:41.195Z</time></trkpt><trkpt lat="39.2185568" lon="16.8400541"><ele>135.0</ele><time>2026-03-28T12:19:44.2Z</time></trkpt><trkpt lat="39.218568" lon="16.840153"><ele>138.33333333333334</ele><time>2026-03-28T12:19:46.188Z</time></trkpt><trkpt lat="39.2185986" lon="16.840249"><ele>141.66666666666666</ele><time>2026-03-28T12:19:48.201Z</time></trkpt><trkpt lat="39.218631" lon="16.840352"><ele>145.0</ele><time>2026-03-28T12:19:50.193Z</time></trkpt><trkpt lat="39.2186768" lon="16.8404521"><ele>148.33333333333331</ele><time>2026-03-28T12:19:52.193Z</time></trkpt><trkpt lat="39.2187432" lon="16.8405343"><ele>151.66666666666666</ele><time>2026-03-28T12:19:54.193Z</time></trkpt><trkpt lat="39.218806" lon="16.8406102"><ele>155.0</ele><time>2026-03-28T12:19:56.193Z</time></trkpt><trkpt lat="39.2188889" lon="16.8406961"><ele>155.0</ele><time>2026-03-28T12:19:58.188Z</time></trkpt><trkpt lat="39.2189637" lon="16.840775"><ele>155.0</ele><time>2026-03-28T12:20:00.197Z</time></trkpt><trkpt lat="39.2190412" lon="16.8408217"><ele>155.0</ele><time>2026-03-28T12:20:02.188Z</time></trkpt><trkpt lat="39.219116" lon="16.8408431"><ele>155.0</ele><time>2026-03-28T12:20:04.193Z</time></trkpt><trkpt lat="39.2192012" lon="16.8408673"><ele>155.0</ele><time>2026-03-28T12:20:07.196Z</time></trkpt><trkpt lat="39.2192542" lon="16.8409472"><ele>155.0</ele><time>2026-03-28T12:20:11.191Z</time></trkpt><trkpt lat="39.2193127" lon="16.8410099"><ele>154.16666666666666</ele><time>2026-03-28T12:20:14.191Z</time></trkpt><trkpt lat="39.2193803" lon="16.8410747"><ele>153.33333333333331</ele><time>2026-03-28T12:20:18.19Z</time></trkpt><trkpt lat="39.2194334" lon="16.8411468"><ele>152.5</ele><time>2026-03-28T12:20:22.192Z</time></trkpt><trkpt lat="39.2194792" lon="16.8412051"><ele>151.66666666666666</ele><time>2026-03-28T12:20:26.21Z</time></trkpt><trkpt lat="39.2195154" lon="16.8412966"><ele>150.83333333333334</ele><time>2026-03-28T12:20:31.204Z</time></trkpt><trkpt lat="39.2195378" lon="16.8413873"><ele>150.0</ele><time>2026-03-28T12:20:34.189Z</time></trkpt><trkpt lat="39.219574" lon="16.841496"><ele>149.99999999999997</ele><time>2026-03-28T12:20:37.2Z</time></trkpt><trkpt lat="39.2196127" lon="16.8415752"><ele>150.0</ele><time>2026-03-28T12:20:40.198Z</time></trkpt><trkpt lat="39.2196277" lon="16.841656"><ele>150.0</ele><time>2026-03-28T12:20:44.19Z</time></trkpt><trkpt lat="39.2196483" lon="16.8417409"><ele>150.0</ele><time>2026-03-28T12:20:48.195Z</time></trkpt><trkpt lat="39.2196835" lon="16.8418091"><ele>150.0</ele><time>2026-03-28T12:20:51.192Z</time></trkpt><trkpt lat="39.2197315" lon="16.8418674"><ele>149.99999999999997</ele><time>2026-03-28T12:20:55.194Z</time></trkpt><trkpt lat="39.2197602" lon="16.8419413"><ele>150.0</ele><time>2026-03-28T12:20:58.197Z</time></trkpt><trkpt lat="39.2198147" lon="16.8420099"><ele>148.42857142857142</ele><time>2026-03-28T12:21:01.197Z</time></trkpt><trkpt lat="39.2198677" lon="16.8420778"><ele>146.85714285714286</ele><time>2026-03-28T12:21:04.196Z</time></trkpt><trkpt lat="39.2199133" lon="16.8421403"><ele>145.28571428571428</ele><time>2026-03-28T12:21:07.191Z</time></trkpt><trkpt lat="39.2199771" lon="16.8422009"><ele>143.71428571428572</ele><time>2026-03-28T12:21:10.193Z</time></trkpt><trkpt lat="39.2200455" lon="16.8422523"><ele>142.14285714285714</ele><time>2026-03-28T12:21:15.191Z</time></trkpt><trkpt lat="39.2201093" lon="16.8422697"><ele>140.57142857142856</ele><time>2026-03-28T12:21:19.195Z</time></trkpt><trkpt lat="39.2201795" lon="16.8422846"><ele>139.0</ele><time>2026-03-28T12:21:22.194Z</time></trkpt><trkpt lat="39.220265" lon="16.8423166"><ele>139.0</ele><time>2026-03-28T12:21:25.198Z</time></trkpt><trkpt lat="39.2203336" lon="16.842373"><ele>139.0</ele><time>2026-03-28T12:21:28.189Z</time></trkpt><trkpt lat="39.2204034" lon="16.8424096"><ele>139.0</ele><time>2026-03-28T12:21:32.193Z</time></trkpt><trkpt lat="39.2204612" lon="16.8424781"><ele>139.0</ele><time>2026-03-28T12:21:38.196Z</time></trkpt><trkpt lat="39.2205006" lon="16.8425517"><ele>139.0</ele><time>2026-03-28T12:21:42.191Z</time></trkpt><trkpt lat="39.2205531" lon="16.842611"><ele>139.0</ele><time>2026-03-28T12:21:52.2Z</time></trkpt><trkpt lat="39.2205808" lon="16.8426966"><ele>139.0</ele><time>2026-03-28T12:22:01.196Z</time></trkpt><trkpt lat="39.2206186" lon="16.8427721"><ele>139.14285714285714</ele><time>2026-03-28T12:22:06.192Z</time></trkpt><trkpt lat="39.2206552" lon="16.8428529"><ele>139.28571428571428</ele><time>2026-03-28T12:22:09.193Z</time></trkpt><trkpt lat="39.2206989" lon="16.8429171"><ele>139.42857142857144</ele><time>2026-03-28T12:22:12.189Z</time></trkpt><trkpt lat="39.2207269" lon="16.8429966"><ele>139.57142857142856</ele><time>2026-03-28T12:22:17.199Z</time></trkpt><trkpt lat="39.2206928" lon="16.8430773"><ele>139.71428571428572</ele><time>2026-03-28T12:22:32.192Z</time></trkpt><trkpt lat="39.2206742" lon="16.8431748"><ele>139.85714285714286</ele><time>2026-03-28T12:23:24.196Z</time></trkpt><trkpt lat="39.2207013" lon="16.8432503"><ele>140.0</ele><time>2026-03-28T12:24:10.197Z</time></trkpt><trkpt lat="39.2206712" lon="16.8433231"><ele>140.0</ele><time>2026-03-28T12:24:40.195Z</time></trkpt><trkpt lat="39.2206728" lon="16.8434081"><ele>140.0</ele><time>2026-03-28T12:26:55.195Z</time></trkpt><trkpt lat="39.2206764" lon="16.8434919"><ele>140.0</ele><time>2026-03-28T12:27:01.185Z</time></trkpt><trkpt lat="39.2206693" lon="16.8435811"><ele>140.0</ele><time>2026-03-28T12:27:07.171Z</time></trkpt><trkpt lat="39.2206537" lon="16.8436652"><ele>140.0</ele><time>2026-03-28T12:27:11.174Z</time></trkpt><trkpt lat="39.2206401" lon="16.8437466"><ele>140.0</ele><time>2026-03-28T12:27:16.197Z</time></trkpt><trkpt lat="39.2206998" lon="16.8437882"><ele>140.0</ele><time>2026-03-28T12:27:27.204Z</time></trkpt><trkpt lat="39.2207586" lon="16.8438487"><ele>139.0</ele><time>2026-03-28T12:27:34.202Z</time></trkpt><trkpt lat="39.2208017" lon="16.8439286"><ele>138.0</ele><time>2026-03-28T12:27:39.194Z</time></trkpt><trkpt lat="39.220815" lon="16.844038"><ele>137.0</ele><time>2026-03-28T12:27:43.181Z</time></trkpt><trkpt lat="39.2208216" lon="16.8441321"><ele>136.0</ele><time>2026-03-28T12:27:46.18Z</time></trkpt><trkpt lat="39.2208266" lon="16.8442161"><ele>135.0</ele><time>2026-03-28T12:27:49.19Z</time></trkpt><trkpt lat="39.2208556" lon="16.8442956"><ele>134.0</ele><time>2026-03-28T12:27:52.196Z</time></trkpt><trkpt lat="39.2208988" lon="16.8443802"><ele>133.0</ele><time>2026-03-28T12:27:55.174Z</time></trkpt><trkpt lat="39.2209286" lon="16.8444643"><ele>133.0</ele><time>2026-03-28T12:27:58.182Z</time></trkpt><trkpt lat="39.2209287" lon="16.8445478"><ele>133.0</ele><time>2026-03-28T12:28:02.208Z</time></trkpt><trkpt lat="39.2209135" lon="16.8446483"><ele>133.0</ele><time>2026-03-28T12:28:07.189Z</time></trkpt><trkpt lat="39.2209221" lon="16.8447291"><ele>133.0</ele><time>2026-03-28T12:28:10.202Z</time></trkpt><trkpt lat="39.2209767" lon="16.8448074"><ele>133.0</ele><time>2026-03-28T12:28:14.186Z</time></trkpt><trkpt lat="39.2210436" lon="16.8448432"><ele>133.0</ele><time>2026-03-28T12:28:17.177Z</time></trkpt><trkpt lat="39.2211077" lon="16.8448782"><ele>133.0</ele><time>2026-03-28T12:28:20.172Z</time></trkpt><trkpt lat="39.2211781" lon="16.8448893"><ele>133.0</ele><time>2026-03-28T12:28:23.198Z</time></trkpt><trkpt lat="39.2212615" lon="16.8448768"><ele>133.0</ele><time>2026-03-28T12:28:27.186Z</time></trkpt><trkpt lat="39.2213269" lon="16.8448925"><ele>133.0</ele><time>2026-03-28T12:28:30.175Z</time></trkpt><trkpt lat="39.221398" lon="16.8449228"><ele>133.0</ele><time>2026-03-28T12:28:33.193Z</time></trkpt><trkpt lat="39.2214889" lon="16.8449557"><ele>133.0</ele><time>2026-03-28T12:28:36.192Z</time></trkpt><trkpt lat="39.2215496" lon="16.8450002"><ele>133.0</ele><time>2026-03-28T12:28:38.173Z</time></trkpt><trkpt lat="39.2216357" lon="16.845028"><ele>132.42857142857142</ele><time>2026-03-28T12:28:41.183Z</time></trkpt><trkpt lat="39.2217033" lon="16.8450225"><ele>131.85714285714286</ele><time>2026-03-28T12:28:43.177Z</time></trkpt><trkpt lat="39.221777" lon="16.8450409"><ele>131.28571428571428</ele><time>2026-03-28T12:28:45.187Z</time></trkpt><trkpt lat="39.2218457" lon="16.8450834"><ele>130.71428571428572</ele><time>2026-03-28T12:28:47.212Z</time></trkpt><trkpt lat="39.2219005" lon="16.8451484"><ele>130.14285714285714</ele><time>2026-03-28T12:28:49.185Z</time></trkpt><trkpt lat="39.2219536" lon="16.8452102"><ele>129.57142857142856</ele><time>2026-03-28T12:28:51.187Z</time></trkpt><trkpt lat="39.2220175" lon="16.8452647"><ele>129.0</ele><time>2026-03-28T12:28:53.178Z</time></trkpt><trkpt lat="39.2220831" lon="16.8453269"><ele>129.0</ele><time>2026-03-28T12:28:55.185Z</time></trkpt><trkpt lat="39.2221575" lon="16.8453824"><ele>129.0</ele><time>2026-03-28T12:28:57.174Z</time></trkpt><trkpt lat="39.2222334" lon="16.8454331"><ele>129.0</ele><time>2026-03-28T12:28:59.191Z</time></trkpt><trkpt lat="39.2222962" lon="16.8454946"><ele>129.0</ele><time>2026-03-28T12:29:01.199Z</time></trkpt><trkpt lat="39.2223604" lon="16.8455385"><ele>129.0</ele><time>2026-03-28T12:29:03.178Z</time></trkpt><trkpt lat="39.2224334" lon="16.8455496"><ele>129.0</ele><time>2026-03-28T12:29:05.172Z</time></trkpt><trkpt lat="39.2225015" lon="16.84559"><ele>128.99999999999997</ele><time>2026-03-28T12:29:08.197Z</time></trkpt><trkpt lat="39.2225169" lon="16.8456707"><ele>129.0</ele><time>2026-03-28T12:29:14.185Z</time></trkpt><trkpt lat="39.2225092" lon="16.8457518"><ele>129.0</ele><time>2026-03-28T12:29:21.181Z</time></trkpt><trkpt lat="39.2225479" lon="16.8458429"><ele>129.0</ele><time>2026-03-28T12:29:26.175Z</time></trkpt><trkpt lat="39.2226002" lon="16.8458943"><ele>129.0</ele><time>2026-03-28T12:29:30.189Z</time></trkpt><trkpt lat="39.2226805" lon="16.8458857"><ele>128.99999999999997</ele><time>2026-03-28T12:29:35.178Z</time></trkpt><trkpt lat="39.2227351" lon="16.8459288"><ele>129.0</ele><time>2026-03-28T12:29:38.173Z</time></trkpt><trkpt lat="39.2227791" lon="16.8460186"><ele>130.6</ele><time>2026-03-28T12:29:41.2Z</time></trkpt><trkpt lat="39.2228184" lon="16.8460873"><ele>132.2</ele><time>2026-03-28T12:29:43.174Z</time></trkpt><trkpt lat="39.222897" lon="16.8461657"><ele>133.79999999999998</ele><time>2026-03-28T12:29:45.177Z</time></trkpt><trkpt lat="39.2229811" lon="16.8462512"><ele>135.4</ele><time>2026-03-28T12:29:47.184Z</time></trkpt><trkpt lat="39.2230381" lon="16.8463735"><ele>137.0</ele><time>2026-03-28T12:29:49.191Z</time></trkpt><trkpt lat="39.2230794" lon="16.8464867"><ele>137.0</ele><time>2026-03-28T12:29:51.204Z</time></trkpt><trkpt lat="39.2231055" lon="16.8465763"><ele>137.0</ele><time>2026-03-28T12:29:53.178Z</time></trkpt><trkpt lat="39.2231044" lon="16.8466915"><ele>137.0</ele><time>2026-03-28T12:29:56.176Z</time></trkpt><trkpt lat="39.2230752" lon="16.846798"><ele>137.0</ele><time>2026-03-28T12:29:59.173Z</time></trkpt><trkpt lat="39.2230261" lon="16.846872"><ele>137.0</ele><time>2026-03-28T12:30:02.176Z</time></trkpt><trkpt lat="39.2229805" lon="16.846969"><ele>137.0</ele><time>2026-03-28T12:30:04.176Z</time></trkpt><trkpt lat="39.2229657" lon="16.8470745"><ele>135.71428571428572</ele><time>2026-03-28T12:30:07.183Z</time></trkpt><trkpt lat="39.2229457" lon="16.847162"><ele>134.42857142857144</ele><time>2026-03-28T12:30:11.176Z</time></trkpt><trkpt lat="39.2228965" lon="16.8472185"><ele>133.14285714285714</ele><time>2026-03-28T12:30:21.17Z</time></trkpt><trkpt lat="39.2228578" lon="16.8472992"><ele>131.85714285714286</ele><time>2026-03-28T12:30:27.189Z</time></trkpt><trkpt lat="39.2228214" lon="16.847372"><ele>130.57142857142856</ele><time>2026-03-28T12:30:34.193Z</time></trkpt><trkpt lat="39.2227597" lon="16.8474032"><ele>129.28571428571428</ele><time>2026-03-28T12:30:39.179Z</time></trkpt><trkpt lat="39.2226931" lon="16.8473828"><ele>128.0</ele><time>2026-03-28T12:30:43.181Z</time></trkpt><trkpt lat="39.2226192" lon="16.8473886"><ele>127.99999999999999</ele><time>2026-03-28T12:30:47.199Z</time></trkpt><trkpt lat="39.222541" lon="16.8473992"><ele>128.0</ele><time>2026-03-28T12:30:51.201Z</time></trkpt><trkpt lat="39.2224743" lon="16.847461"><ele>128.0</ele><time>2026-03-28T12:30:55.198Z</time></trkpt><trkpt lat="39.2224845" lon="16.8475419"><ele>128.0</ele><time>2026-03-28T12:30:59.183Z</time></trkpt><trkpt lat="39.2225433" lon="16.8476034"><ele>127.99999999999999</ele><time>2026-03-28T12:31:02.186Z</time></trkpt><trkpt lat="39.2225831" lon="16.8476931"><ele>128.0</ele><time>2026-03-28T12:31:04.17Z</time></trkpt><trkpt lat="39.2226015" lon="16.8477936"><ele>127.85714285714285</ele><time>2026-03-28T12:31:06.193Z</time></trkpt><trkpt lat="39.222607" lon="16.8478878"><ele>127.7142857142857</ele><time>2026-03-28T12:31:08.175Z</time></trkpt><trkpt lat="39.2225894" lon="16.8479728"><ele>127.57142857142857</ele><time>2026-03-28T12:31:10.187Z</time></trkpt><trkpt lat="39.2225655" lon="16.8480682"><ele>127.42857142857142</ele><time>2026-03-28T12:31:13.186Z</time></trkpt><trkpt lat="39.2226007" lon="16.8481448"><ele>127.28571428571428</ele><time>2026-03-28T12:31:15.199Z</time></trkpt><trkpt lat="39.2226325" lon="16.8482382"><ele>127.14285714285714</ele><time>2026-03-28T12:31:17.18Z</time></trkpt><trkpt lat="39.222665" lon="16.8483354"><ele>127.0</ele><time>2026-03-28T12:31:19.203Z</time></trkpt><trkpt lat="39.2226872" lon="16.8484277"><ele>128.57142857142858</ele><time>2026-03-28T12:31:21.193Z</time></trkpt><trkpt lat="39.2226805" lon="16.8485191"><ele>130.14285714285714</ele><time>2026-03-28T12:31:23.178Z</time></trkpt><trkpt lat="39.2227042" lon="16.8486143"><ele>131.71428571428572</ele><time>2026-03-28T12:31:25.18Z</time></trkpt><trkpt lat="39.2227059" lon="16.8487009"><ele>133.28571428571428</ele><time>2026-03-28T12:31:27.184Z</time></trkpt><trkpt lat="39.2227296" lon="16.8487949"><ele>134.85714285714286</ele><time>2026-03-28T12:31:30.172Z</time></trkpt><trkpt lat="39.2227853" lon="16.8488498"><ele>136.42857142857144</ele><time>2026-03-28T12:31:33.196Z</time></trkpt><trkpt lat="39.2228418" lon="16.8489069"><ele>138.0</ele><time>2026-03-28T12:31:38.179Z</time></trkpt><trkpt lat="39.2228815" lon="16.8489817"><ele>138.0</ele><time>2026-03-28T12:31:43.178Z</time></trkpt><trkpt lat="39.2229147" lon="16.8490551"><ele>138.0</ele><time>2026-03-28T12:31:51.188Z</time></trkpt><trkpt lat="39.2229655" lon="16.8491131"><ele>138.0</ele><time>2026-03-28T12:31:55.175Z</time></trkpt><trkpt lat="39.2229903" lon="16.8491952"><ele>138.0</ele><time>2026-03-28T12:32:00.171Z</time></trkpt><trkpt lat="39.2230153" lon="16.8492788"><ele>138.0</ele><time>2026-03-28T12:32:04.182Z</time></trkpt><trkpt lat="39.2230538" lon="16.8493453"><ele>138.0</ele><time>2026-03-28T12:32:07.187Z</time></trkpt><trkpt lat="39.2230254" lon="16.8494344"><ele>138.0</ele><time>2026-03-28T12:32:10.178Z</time></trkpt><trkpt lat="39.2229687" lon="16.8495111"><ele>135.6</ele><time>2026-03-28T12:32:13.174Z</time></trkpt><trkpt lat="39.2229895" lon="16.8496325"><ele>133.20000000000002</ele><time>2026-03-28T12:32:16.178Z</time></trkpt><trkpt lat="39.2230432" lon="16.8497275"><ele>130.8</ele><time>2026-03-28T12:32:18.195Z</time></trkpt><trkpt lat="39.2231227" lon="16.8497886"><ele>128.4</ele><time>2026-03-28T12:32:20.177Z</time></trkpt><trkpt lat="39.2232093" lon="16.8498272"><ele>126.0</ele><time>2026-03-28T12:32:22.191Z</time></trkpt><trkpt lat="39.2232813" lon="16.8499043"><ele>126.0</ele><time>2026-03-28T12:32:24.182Z</time></trkpt><trkpt lat="39.2233347" lon="16.8500184"><ele>126.0</ele><time>2026-03-28T12:32:26.183Z</time></trkpt><trkpt lat="39.2234022" lon="16.8501287"><ele>126.0</ele><time>2026-03-28T12:32:28.181Z</time></trkpt><trkpt lat="39.2234336" lon="16.8502595"><ele>126.0</ele><time>2026-03-28T12:32:30.178Z</time></trkpt><trkpt lat="39.2234482" lon="16.8503683"><ele>126.0</ele><time>2026-03-28T12:32:32.196Z</time></trkpt><trkpt lat="39.2234764" lon="16.850463"><ele>126.14285714285714</ele><time>2026-03-28T12:32:35.187Z</time></trkpt><trkpt lat="39.223512" lon="16.850531"><ele>126.28571428571428</ele><time>2026-03-28T12:32:40.193Z</time></trkpt><trkpt lat="39.2235442" lon="16.8506168"><ele>126.42857142857143</ele><time>2026-03-28T12:32:50.192Z</time></trkpt><trkpt lat="39.2235385" lon="16.8507093"><ele>126.57142857142857</ele><time>2026-03-28T12:32:55.18Z</time></trkpt><trkpt lat="39.2235239" lon="16.8507942"><ele>126.71428571428571</ele><time>2026-03-28T12:32:59.183Z</time></trkpt><trkpt lat="39.2235113" lon="16.8508795"><ele>126.85714285714286</ele><time>2026-03-28T12:33:03.176Z</time></trkpt><trkpt lat="39.2235031" lon="16.850989"><ele>127.0</ele><time>2026-03-28T12:33:07.204Z</time></trkpt><trkpt lat="39.2235038" lon="16.8510855"><ele>126.14285714285714</ele><time>2026-03-28T12:33:10.21Z</time></trkpt><trkpt lat="39.223515" lon="16.8511971"><ele>125.28571428571428</ele><time>2026-03-28T12:33:13.195Z</time></trkpt><trkpt lat="39.2235141" lon="16.8512806"><ele>124.42857142857142</ele><time>2026-03-28T12:33:15.19Z</time></trkpt><trkpt lat="39.223507" lon="16.8513656"><ele>123.57142857142857</ele><time>2026-03-28T12:33:17.173Z</time></trkpt><trkpt lat="39.2235009" lon="16.8514553"><ele>122.7142857142857</ele><time>2026-03-28T12:33:19.183Z</time></trkpt><trkpt lat="39.2235004" lon="16.8515542"><ele>121.85714285714285</ele><time>2026-03-28T12:33:21.202Z</time></trkpt><trkpt lat="39.2235095" lon="16.851651"><ele>121.0</ele><time>2026-03-28T12:33:23.181Z</time></trkpt><trkpt lat="39.2235081" lon="16.8517477"><ele>120.14285714285714</ele><time>2026-03-28T12:33:25.184Z</time></trkpt><trkpt lat="39.223497" lon="16.8518472"><ele>119.28571428571428</ele><time>2026-03-28T12:33:27.184Z</time></trkpt><trkpt lat="39.22349" lon="16.8519502"><ele>118.42857142857142</ele><time>2026-03-28T12:33:29.204Z</time></trkpt><trkpt lat="39.2234886" lon="16.8520447"><ele>117.57142857142856</ele><time>2026-03-28T12:33:31.189Z</time></trkpt><trkpt lat="39.223478" lon="16.852134"><ele>116.71428571428571</ele><time>2026-03-28T12:33:33.176Z</time></trkpt><trkpt lat="39.2234668" lon="16.8522201"><ele>115.85714285714283</ele><time>2026-03-28T12:33:35.205Z</time></trkpt><trkpt lat="39.2234497" lon="16.8523083"><ele>114.99999999999999</ele><time>2026-03-28T12:33:37.203Z</time></trkpt><trkpt lat="39.2234296" lon="16.8524101"><ele>115.00000000000001</ele><time>2026-03-28T12:33:39.173Z</time></trkpt><trkpt lat="39.2233924" lon="16.8524995"><ele>115.0</ele><time>2026-03-28T12:33:41.204Z</time></trkpt><trkpt lat="39.2233561" lon="16.8525744"><ele>115.0</ele><time>2026-03-28T12:33:43.187Z</time></trkpt><trkpt lat="39.2233243" lon="16.8526596"><ele>115.0</ele><time>2026-03-28T12:33:45.177Z</time></trkpt><trkpt lat="39.2232884" lon="16.8527446"><ele>115.00000000000001</ele><time>2026-03-28T12:33:47.18Z</time></trkpt><trkpt lat="39.2232566" lon="16.8528462"><ele>115.0</ele><time>2026-03-28T12:33:49.193Z</time></trkpt><trkpt lat="39.2232165" lon="16.8529544"><ele>115.0</ele><time>2026-03-28T12:33:51.186Z</time></trkpt><trkpt lat="39.2231792" lon="16.8530626"><ele>115.0</ele><time>2026-03-28T12:33:53.182Z</time></trkpt><trkpt lat="39.2231424" lon="16.8531674"><ele>115.0</ele><time>2026-03-28T12:33:55.177Z</time></trkpt><trkpt lat="39.2230941" lon="16.8532799"><ele>115.0</ele><time>2026-03-28T12:33:57.186Z</time></trkpt><trkpt lat="39.2230453" lon="16.8533911"><ele>115.0</ele><time>2026-03-28T12:33:59.202Z</time></trkpt><trkpt lat="39.2230071" lon="16.8535121"><ele>115.0</ele><time>2026-03-28T12:34:01.203Z</time></trkpt><trkpt lat="39.2229614" lon="16.8536271"><ele>115.0</ele><time>2026-03-28T12:34:03.179Z</time></trkpt><trkpt lat="39.2229197" lon="16.8537286"><ele>115.0</ele><time>2026-03-28T12:34:05.196Z</time></trkpt><trkpt lat="39.2228682" lon="16.8538227"><ele>115.0</ele><time>2026-03-28T12:34:07.189Z</time></trkpt><trkpt lat="39.2228135" lon="16.8539206"><ele>115.0</ele><time>2026-03-28T12:34:09.177Z</time></trkpt><trkpt lat="39.2227579" lon="16.8540167"><ele>115.00000000000001</ele><time>2026-03-28T12:34:11.171Z</time></trkpt><trkpt lat="39.2227057" lon="16.8541013"><ele>115.0</ele><time>2026-03-28T12:34:13.177Z</time></trkpt><trkpt lat="39.2226594" lon="16.8541711"><ele>115.0</ele><time>2026-03-28T12:34:15.196Z</time></trkpt><trkpt lat="39.2226006" lon="16.8542254"><ele>115.0</ele><time>2026-03-28T12:34:18.197Z</time></trkpt><trkpt lat="39.22253" lon="16.8542702"><ele>115.00000000000001</ele><time>2026-03-28T12:35:16.195Z</time></trkpt><trkpt lat="39.2224728" lon="16.8543298"><ele>115.0</ele><time>2026-03-28T12:35:19.178Z</time></trkpt><trkpt lat="39.2224207" lon="16.8544011"><ele>114.42857142857142</ele><time>2026-03-28T12:35:24.176Z</time></trkpt><trkpt lat="39.2223837" lon="16.8544863"><ele>113.85714285714286</ele><time>2026-03-28T12:35:27.203Z</time></trkpt><trkpt lat="39.2223346" lon="16.854579"><ele>113.28571428571428</ele><time>2026-03-28T12:35:30.203Z</time></trkpt><trkpt lat="39.2222875" lon="16.8546472"><ele>112.71428571428571</ele><time>2026-03-28T12:35:33.179Z</time></trkpt><trkpt lat="39.222238" lon="16.8547042"><ele>112.14285714285714</ele><time>2026-03-28T12:35:36.18Z</time></trkpt><trkpt lat="39.2221912" lon="16.8547695"><ele>111.57142857142857</ele><time>2026-03-28T12:35:39.174Z</time></trkpt><trkpt lat="39.222155" lon="16.8548508"><ele>111.0</ele><time>2026-03-28T12:35:44.184Z</time></trkpt><trkpt lat="39.2221161" lon="16.8549222"><ele>110.66666666666667</ele><time>2026-03-28T12:35:47.196Z</time></trkpt><trkpt lat="39.2220818" lon="16.8549989"><ele>110.33333333333334</ele><time>2026-03-28T12:35:50.189Z</time></trkpt><trkpt lat="39.2220446" lon="16.855096"><ele>110.0</ele><time>2026-03-28T12:35:53.175Z</time></trkpt><trkpt lat="39.2220141" lon="16.8552173"><ele>109.66666666666667</ele><time>2026-03-28T12:35:56.18Z</time></trkpt><trkpt lat="39.2219958" lon="16.8553296"><ele>109.33333333333334</ele><time>2026-03-28T12:35:59.183Z</time></trkpt><trkpt lat="39.2219829" lon="16.855417"><ele>109.0</ele><time>2026-03-28T12:36:04.204Z</time></trkpt><trkpt lat="39.2219766" lon="16.8555079"><ele>109.00000000000001</ele><time>2026-03-28T12:36:08.184Z</time></trkpt><trkpt lat="39.2219685" lon="16.8556106"><ele>109.0</ele><time>2026-03-28T12:36:11.184Z</time></trkpt><trkpt lat="39.2219727" lon="16.8557226"><ele>109.0</ele><time>2026-03-28T12:36:14.193Z</time></trkpt><trkpt lat="39.2219607" lon="16.8558342"><ele>109.0</ele><time>2026-03-28T12:36:20.173Z</time></trkpt><trkpt lat="39.2219259" lon="16.8559449"><ele>109.00000000000001</ele><time>2026-03-28T12:36:23.184Z</time></trkpt><trkpt lat="39.2218948" lon="16.8560405"><ele>109.0</ele><time>2026-03-28T12:36:25.199Z</time></trkpt><trkpt lat="39.2218517" lon="16.8561651"><ele>108.83333333333334</ele><time>2026-03-28T12:36:27.189Z</time></trkpt><trkpt lat="39.2217869" lon="16.8562692"><ele>108.66666666666667</ele><time>2026-03-28T12:36:29.177Z</time></trkpt><trkpt lat="39.2217313" lon="16.856339"><ele>108.5</ele><time>2026-03-28T12:36:31.195Z</time></trkpt><trkpt lat="39.2216823" lon="16.8564123"><ele>108.33333333333334</ele><time>2026-03-28T12:36:33.187Z</time></trkpt><trkpt lat="39.2216342" lon="16.8564925"><ele>108.16666666666667</ele><time>2026-03-28T12:36:35.173Z</time></trkpt><trkpt lat="39.2215833" lon="16.8565861"><ele>108.0</ele><time>2026-03-28T12:36:37.195Z</time></trkpt><trkpt lat="39.2215273" lon="16.8566746"><ele>108.0</ele><time>2026-03-28T12:36:39.184Z</time></trkpt><trkpt lat="39.221456" lon="16.8567516"><ele>108.00000000000001</ele><time>2026-03-28T12:36:41.175Z</time></trkpt><trkpt lat="39.221374" lon="16.8568335"><ele>108.00000000000001</ele><time>2026-03-28T12:36:43.184Z</time></trkpt><trkpt lat="39.2212992" lon="16.8569186"><ele>108.0</ele><time>2026-03-28T12:36:45.187Z</time></trkpt><trkpt lat="39.2212571" lon="16.8570086"><ele>108.0</ele><time>2026-03-28T12:36:47.178Z</time></trkpt><trkpt lat="39.2212303" lon="16.8570997"><ele>107.83333333333333</ele><time>2026-03-28T12:36:49.176Z</time></trkpt><trkpt lat="39.2212053" lon="16.8572003"><ele>107.66666666666666</ele><time>2026-03-28T12:36:51.182Z</time></trkpt><trkpt lat="39.221172" lon="16.8572988"><ele>107.5</ele><time>2026-03-28T12:36:53.179Z</time></trkpt><trkpt lat="39.2211243" lon="16.8573788"><ele>107.33333333333333</ele><time>2026-03-28T12:36:55.175Z</time></trkpt><trkpt lat="39.2210579" lon="16.8574287"><ele>107.16666666666666</ele><time>2026-03-28T12:36:57.18Z</time></trkpt><trkpt lat="39.2209994" lon="16.8575026"><ele>107.0</ele><time>2026-03-28T12:36:59.17Z</time></trkpt><trkpt lat="39.2209781" lon="16.8575949"><ele>107.28571428571429</ele><time>2026-03-28T12:37:01.174Z</time></trkpt><trkpt lat="39.2209672" lon="16.8576786"><ele>107.57142857142857</ele><time>2026-03-28T12:37:04.175Z</time></trkpt><trkpt lat="39.2209457" lon="16.8577699"><ele>107.85714285714286</ele><time>2026-03-28T12:37:25.192Z</time></trkpt><trkpt lat="39.2209213" lon="16.8578616"><ele>108.14285714285714</ele><time>2026-03-28T12:37:28.172Z</time></trkpt><trkpt lat="39.2208872" lon="16.8579322"><ele>108.42857142857143</ele><time>2026-03-28T12:37:31.176Z</time></trkpt><trkpt lat="39.2208654" lon="16.858029"><ele>108.71428571428572</ele><time>2026-03-28T12:37:34.184Z</time></trkpt><trkpt lat="39.220836" lon="16.858137"><ele>109.0</ele><time>2026-03-28T12:37:37.177Z</time></trkpt><trkpt lat="39.2208096" lon="16.858211"><ele>109.00000000000001</ele><time>2026-03-28T12:37:39.178Z</time></trkpt><trkpt lat="39.2207867" lon="16.8582965"><ele>109.0</ele><time>2026-03-28T12:37:41.188Z</time></trkpt><trkpt lat="39.2207734" lon="16.8583997"><ele>109.0</ele><time>2026-03-28T12:37:43.203Z</time></trkpt><trkpt lat="39.2207547" lon="16.8585104"><ele>109.0</ele><time>2026-03-28T12:37:45.193Z</time></trkpt><trkpt lat="39.2207246" lon="16.8586154"><ele>109.00000000000001</ele><time>2026-03-28T12:37:47.189Z</time></trkpt><trkpt lat="39.2206863" lon="16.8586982"><ele>109.0</ele><time>2026-03-28T12:37:49.184Z</time></trkpt><trkpt lat="39.220644" lon="16.858764"><ele>108.66666666666667</ele><time>2026-03-28T12:37:51.178Z</time></trkpt><trkpt lat="39.2206054" lon="16.8588283"><ele>108.33333333333334</ele><time>2026-03-28T12:37:53.176Z</time></trkpt><trkpt lat="39.2205767" lon="16.8589091"><ele>108.0</ele><time>2026-03-28T12:37:56.18Z</time></trkpt><trkpt lat="39.2205685" lon="16.859028"><ele>107.66666666666666</ele><time>2026-03-28T12:37:59.182Z</time></trkpt><trkpt lat="39.2205699" lon="16.8591357"><ele>107.33333333333333</ele><time>2026-03-28T12:38:02.175Z</time></trkpt><trkpt lat="39.2205398" lon="16.8592291"><ele>107.0</ele><time>2026-03-28T12:38:06.201Z</time></trkpt><trkpt lat="39.2204686" lon="16.8592679"><ele>107.0</ele><time>2026-03-28T12:38:09.175Z</time></trkpt><trkpt lat="39.2203749" lon="16.8592624"><ele>106.99999999999999</ele><time>2026-03-28T12:38:12.2Z</time></trkpt><trkpt lat="39.2203086" lon="16.8592635"><ele>106.99999999999999</ele><time>2026-03-28T12:38:14.171Z</time></trkpt><trkpt lat="39.2202356" lon="16.8592846"><ele>107.0</ele><time>2026-03-28T12:38:16.183Z</time></trkpt><trkpt lat="39.2201491" lon="16.8593407"><ele>107.0</ele><time>2026-03-28T12:38:18.189Z</time></trkpt><trkpt lat="39.2200517" lon="16.8594367"><ele>106.8</ele><time>2026-03-28T12:38:20.187Z</time></trkpt><trkpt lat="39.2199611" lon="16.8595347"><ele>106.6</ele><time>2026-03-28T12:38:22.174Z</time></trkpt><trkpt lat="39.219869" lon="16.8596361"><ele>106.39999999999999</ele><time>2026-03-28T12:38:24.174Z</time></trkpt><trkpt lat="39.2197845" lon="16.8597209"><ele>106.19999999999999</ele><time>2026-03-28T12:38:26.182Z</time></trkpt><trkpt lat="39.2197329" lon="16.8597977"><ele>106.0</ele><time>2026-03-28T12:38:28.19Z</time></trkpt><trkpt lat="39.219687" lon="16.8598745"><ele>106.0</ele><time>2026-03-28T12:38:30.181Z</time></trkpt><trkpt lat="39.2196024" lon="16.8599637"><ele>106.0</ele><time>2026-03-28T12:38:32.2Z</time></trkpt><trkpt lat="39.2194819" lon="16.8599804"><ele>106.0</ele><time>2026-03-28T12:38:34.177Z</time></trkpt><trkpt lat="39.2193646" lon="16.8599768"><ele>106.0</ele><time>2026-03-28T12:38:36.188Z</time></trkpt><trkpt lat="39.219265" lon="16.860005"><ele>106.0</ele><time>2026-03-28T12:38:38.179Z</time></trkpt><trkpt lat="39.2191623" lon="16.860067"><ele>106.0</ele><time>2026-03-28T12:38:40.178Z</time></trkpt><trkpt lat="39.2190563" lon="16.8601078"><ele>106.0</ele><time>2026-03-28T12:38:42.196Z</time></trkpt><trkpt lat="39.2189544" lon="16.8601257"><ele>106.0</ele><time>2026-03-28T12:38:44.176Z</time></trkpt><trkpt lat="39.2188517" lon="16.8601595"><ele>106.0</ele><time>2026-03-28T12:38:46.2Z</time></trkpt><trkpt lat="39.2187365" lon="16.8602117"><ele>106.00000000000001</ele><time>2026-03-28T12:38:48.171Z</time></trkpt><trkpt lat="39.2186645" lon="16.8602403"><ele>106.0</ele><time>2026-03-28T12:38:49.186Z</time></trkpt><trkpt lat="39.2185885" lon="16.8602589"><ele>106.0</ele><time>2026-03-28T12:38:50.184Z</time></trkpt><trkpt lat="39.2185099" lon="16.8602721"><ele>106.0</ele><time>2026-03-28T12:38:51.181Z</time></trkpt><trkpt lat="39.2184329" lon="16.8602824"><ele>106.00000000000001</ele><time>2026-03-28T12:38:52.171Z</time></trkpt><trkpt lat="39.2183628" lon="16.8602953"><ele>106.0</ele><time>2026-03-28T12:38:53.181Z</time></trkpt><trkpt lat="39.2182481" lon="16.8603529"><ele>106.00000000000001</ele><time>2026-03-28T12:38:55.174Z</time></trkpt><trkpt lat="39.2181917" lon="16.8603898"><ele>106.0</ele><time>2026-03-28T12:38:56.21Z</time></trkpt><trkpt lat="39.2181292" lon="16.8604142"><ele>106.0</ele><time>2026-03-28T12:38:57.182Z</time></trkpt><trkpt lat="39.2180623" lon="16.8604164"><ele>106.0</ele><time>2026-03-28T12:38:58.176Z</time></trkpt><trkpt lat="39.2179466" lon="16.8604143"><ele>106.00000000000001</ele><time>2026-03-28T12:39:00.179Z</time></trkpt><trkpt lat="39.2178732" lon="16.8604471"><ele>106.0</ele><time>2026-03-28T12:39:02.173Z</time></trkpt><trkpt lat="39.2177934" lon="16.8604985"><ele>105.6</ele><time>2026-03-28T12:39:05.173Z</time></trkpt><trkpt lat="39.2177162" lon="16.8605442"><ele>105.19999999999999</ele><time>2026-03-28T12:39:07.188Z</time></trkpt><trkpt lat="39.217628" lon="16.8605888"><ele>104.80000000000001</ele><time>2026-03-28T12:39:09.181Z</time></trkpt><trkpt lat="39.2175331" lon="16.8606563"><ele>104.4</ele><time>2026-03-28T12:39:11.197Z</time></trkpt><trkpt lat="39.2174271" lon="16.8607391"><ele>104.0</ele><time>2026-03-28T12:39:13.18Z</time></trkpt><trkpt lat="39.2173634" lon="16.8607852"><ele>103.83333333333333</ele><time>2026-03-28T12:39:14.176Z</time></trkpt><trkpt lat="39.217292" lon="16.8608298"><ele>103.66666666666666</ele><time>2026-03-28T12:39:15.183Z</time></trkpt><trkpt lat="39.2172198" lon="16.8608749"><ele>103.5</ele><time>2026-03-28T12:39:16.178Z</time></trkpt><trkpt lat="39.2171449" lon="16.8609285"><ele>103.33333333333334</ele><time>2026-03-28T12:39:17.208Z</time></trkpt><trkpt lat="39.21707" lon="16.8609741"><ele>103.16666666666667</ele><time>2026-03-28T12:39:18.216Z</time></trkpt><trkpt lat="39.2169982" lon="16.861015"><ele>103.0</ele><time>2026-03-28T12:39:19.183Z</time></trkpt><trkpt lat="39.2169269" lon="16.8610686"><ele>103.0</ele><time>2026-03-28T12:39:20.2Z</time></trkpt><trkpt lat="39.2168497" lon="16.8611282"><ele>103.0</ele><time>2026-03-28T12:39:21.209Z</time></trkpt><trkpt lat="39.216762" lon="16.8611676"><ele>103.0</ele><time>2026-03-28T12:39:22.177Z</time></trkpt><trkpt lat="39.2166626" lon="16.8611909"><ele>103.0</ele><time>2026-03-28T12:39:23.174Z</time></trkpt><trkpt lat="39.2165587" lon="16.8612102"><ele>103.0</ele><time>2026-03-28T12:39:24.175Z</time></trkpt><trkpt lat="39.2164519" lon="16.8612302"><ele>102.4</ele><time>2026-03-28T12:39:25.176Z</time></trkpt><trkpt lat="39.2163522" lon="16.8612484"><ele>101.80000000000001</ele><time>2026-03-28T12:39:26.176Z</time></trkpt><trkpt lat="39.2162573" lon="16.861267"><ele>101.2</ele><time>2026-03-28T12:39:27.173Z</time></trkpt><trkpt lat="39.2161687" lon="16.8612884"><ele>100.6</ele><time>2026-03-28T12:39:28.18Z</time></trkpt><trkpt lat="39.2160851" lon="16.8613051"><ele>100.0</ele><time>2026-03-28T12:39:29.172Z</time></trkpt><trkpt lat="39.215998" lon="16.8613223"><ele>100.00000000000001</ele><time>2026-03-28T12:39:30.187Z</time></trkpt><trkpt lat="39.21591" lon="16.861341"><ele>100.0</ele><time>2026-03-28T12:39:31.175Z</time></trkpt><trkpt lat="39.2158206" lon="16.8613566"><ele>100.0</ele><time>2026-03-28T12:39:32.181Z</time></trkpt><trkpt lat="39.2157348" lon="16.8613682"><ele>100.0</ele><time>2026-03-28T12:39:33.188Z</time></trkpt><trkpt lat="39.2156572" lon="16.8613792"><ele>100.00000000000001</ele><time>2026-03-28T12:39:34.181Z</time></trkpt><trkpt lat="39.2155567" lon="16.8613927"><ele>100.0</ele><time>2026-03-28T12:39:36.186Z</time></trkpt><trkpt lat="39.2154677" lon="16.8614246"><ele>100.2</ele><time>2026-03-28T12:39:38.174Z</time></trkpt><trkpt lat="39.2153688" lon="16.8614522"><ele>100.4</ele><time>2026-03-28T12:39:40.188Z</time></trkpt><trkpt lat="39.2153039" lon="16.8614377"><ele>100.6</ele><time>2026-03-28T12:39:42.178Z</time></trkpt><trkpt lat="39.2152065" lon="16.8614348"><ele>100.8</ele><time>2026-03-28T12:39:44.184Z</time></trkpt><trkpt lat="39.2151026" lon="16.8615194"><ele>101.0</ele><time>2026-03-28T12:39:46.173Z</time></trkpt><trkpt lat="39.21503" lon="16.8616105"><ele>100.99999999999999</ele><time>2026-03-28T12:39:48.18Z</time></trkpt><trkpt lat="39.2149774" lon="16.8616679"><ele>101.0</ele><time>2026-03-28T12:39:50.183Z</time></trkpt><trkpt lat="39.2149222" lon="16.8617225"><ele>101.0</ele><time>2026-03-28T12:39:56.178Z</time></trkpt><trkpt lat="39.2148714" lon="16.8618104"><ele>101.0</ele><time>2026-03-28T12:39:59.18Z</time></trkpt><trkpt lat="39.2148239" lon="16.8619021"><ele>100.99999999999999</ele><time>2026-03-28T12:40:02.183Z</time></trkpt><trkpt lat="39.2147754" lon="16.8619541"><ele>101.0</ele><time>2026-03-28T12:40:05.179Z</time></trkpt><trkpt lat="39.2147615" lon="16.8620559"><ele>101.0</ele><time>2026-03-28T12:40:10.175Z</time></trkpt><trkpt lat="39.2147453" lon="16.8621867"><ele>101.0</ele><time>2026-03-28T12:40:25.175Z</time></trkpt><trkpt lat="39.2146959" lon="16.8622959"><ele>101.0</ele><time>2026-03-28T12:40:27.176Z</time></trkpt><trkpt lat="39.2146348" lon="16.8623963"><ele>101.0</ele><time>2026-03-28T12:40:29.197Z</time></trkpt><trkpt lat="39.2145617" lon="16.8624561"><ele>101.0</ele><time>2026-03-28T12:40:31.207Z</time></trkpt><trkpt lat="39.2144981" lon="16.8624799"><ele>100.99999999999999</ele><time>2026-03-28T12:40:33.187Z</time></trkpt><trkpt lat="39.2144402" lon="16.8625261"><ele>101.0</ele><time>2026-03-28T12:40:43.185Z</time></trkpt><trkpt lat="39.2143963" lon="16.8625956"><ele>101.0</ele><time>2026-03-28T12:40:57.178Z</time></trkpt><trkpt lat="39.2143585" lon="16.8626803"><ele>101.0</ele><time>2026-03-28T12:40:59.183Z</time></trkpt><trkpt lat="39.2143213" lon="16.8627665"><ele>100.99999999999999</ele><time>2026-03-28T12:41:01.175Z</time></trkpt><trkpt lat="39.2142599" lon="16.8628416"><ele>101.0</ele><time>2026-03-28T12:41:03.17Z</time></trkpt><trkpt lat="39.2142102" lon="16.8629658"><ele>100.83333333333333</ele><time>2026-03-28T12:41:05.195Z</time></trkpt><trkpt lat="39.2141437" lon="16.8630824"><ele>100.66666666666666</ele><time>2026-03-28T12:41:07.184Z</time></trkpt><trkpt lat="39.2140815" lon="16.8631971"><ele>100.5</ele><time>2026-03-28T12:41:09.216Z</time></trkpt><trkpt lat="39.2140075" lon="16.8632281"><ele>100.33333333333334</ele><time>2026-03-28T12:41:11.178Z</time></trkpt><trkpt lat="39.2139621" lon="16.8631557"><ele>100.16666666666667</ele><time>2026-03-28T12:41:18.22Z</time></trkpt><trkpt lat="39.2139115" lon="16.8630974"><ele>100.0</ele><time>2026-03-28T12:41:22.19Z</time></trkpt><trkpt lat="39.213826" lon="16.8631026"><ele>100.00000000000001</ele><time>2026-03-28T12:41:26.178Z</time></trkpt><trkpt lat="39.2137444" lon="16.8631331"><ele>100.0</ele><time>2026-03-28T12:41:29.174Z</time></trkpt><trkpt lat="39.213674" lon="16.863192"><ele>100.0</ele><time>2026-03-28T12:41:31.183Z</time></trkpt><trkpt lat="39.2135938" lon="16.863178"><ele>100.0</ele><time>2026-03-28T12:41:33.178Z</time></trkpt><trkpt lat="39.2135167" lon="16.8632177"><ele>100.00000000000001</ele><time>2026-03-28T12:41:35.173Z</time></trkpt><trkpt lat="39.2134496" lon="16.8633178"><ele>100.0</ele><time>2026-03-28T12:41:37.176Z</time></trkpt><trkpt lat="39.213388" lon="16.863412"><ele>99.66666666666667</ele><time>2026-03-28T12:41:39.17Z</time></trkpt><trkpt lat="39.213313" lon="16.8634722"><ele>99.33333333333334</ele><time>2026-03-28T12:41:41.175Z</time></trkpt><trkpt lat="39.2132476" lon="16.8635624"><ele>99.0</ele><time>2026-03-28T12:41:43.196Z</time></trkpt><trkpt lat="39.2132185" lon="16.8636607"><ele>98.66666666666666</ele><time>2026-03-28T12:41:45.218Z</time></trkpt><trkpt lat="39.2132072" lon="16.8637561"><ele>98.33333333333333</ele><time>2026-03-28T12:41:47.178Z</time></trkpt><trkpt lat="39.2131935" lon="16.8638694"><ele>98.0</ele><time>2026-03-28T12:41:50.193Z</time></trkpt><trkpt lat="39.2131683" lon="16.8639663"><ele>97.99999999999999</ele><time>2026-03-28T12:41:52.174Z</time></trkpt><trkpt lat="39.2131154" lon="16.8640896"><ele>98.0</ele><time>2026-03-28T12:41:54.179Z</time></trkpt><trkpt lat="39.2130816" lon="16.8641592"><ele>98.0</ele><time>2026-03-28T12:41:55.171Z</time></trkpt><trkpt lat="39.2130216" lon="16.8643093"><ele>98.0</ele><time>2026-03-28T12:41:57.178Z</time></trkpt><trkpt lat="39.2129865" lon="16.8643893"><ele>97.99999999999999</ele><time>2026-03-28T12:41:58.202Z</time></trkpt><trkpt lat="39.2129472" lon="16.8644666"><ele>98.0</ele><time>2026-03-28T12:41:59.195Z</time></trkpt><trkpt lat="39.2129037" lon="16.8645434"><ele>97.99999999999999</ele><time>2026-03-28T12:42:00.188Z</time></trkpt><trkpt lat="39.21286" lon="16.8646172"><ele>98.0</ele><time>2026-03-28T12:42:01.185Z</time></trkpt><trkpt lat="39.212806" lon="16.86467"><ele>98.0</ele><time>2026-03-28T12:42:02.201Z</time></trkpt><trkpt lat="39.2127497" lon="16.8647121"><ele>98.0</ele><time>2026-03-28T12:42:03.192Z</time></trkpt><trkpt lat="39.2126916" lon="16.8647524"><ele>97.99999999999999</ele><time>2026-03-28T12:42:04.18Z</time></trkpt><trkpt lat="39.212638" lon="16.8647958"><ele>98.0</ele><time>2026-03-28T12:42:05.174Z</time></trkpt><trkpt lat="39.2125319" lon="16.864875"><ele>97.99999999999999</ele><time>2026-03-28T12:42:07.189Z</time></trkpt><trkpt lat="39.2124364" lon="16.8649053"><ele>98.0</ele><time>2026-03-28T12:42:09.201Z</time></trkpt><trkpt lat="39.2123484" lon="16.8649485"><ele>98.0</ele><time>2026-03-28T12:42:11.185Z</time></trkpt><trkpt lat="39.2122872" lon="16.8650246"><ele>98.0</ele><time>2026-03-28T12:42:13.178Z</time></trkpt><trkpt lat="39.2122401" lon="16.8651096"><ele>97.99999999999999</ele><time>2026-03-28T12:42:15.171Z</time></trkpt><trkpt lat="39.212175" lon="16.8651585"><ele>98.0</ele><time>2026-03-28T12:42:17.172Z</time></trkpt><trkpt lat="39.2121321" lon="16.8652296"><ele>97.99999999999999</ele><time>2026-03-28T12:42:19.182Z</time></trkpt><trkpt lat="39.2121349" lon="16.8653208"><ele>98.0</ele><time>2026-03-28T12:42:21.175Z</time></trkpt><trkpt lat="39.2121567" lon="16.8654"><ele>98.0</ele><time>2026-03-28T12:42:23.172Z</time></trkpt><trkpt lat="39.2121683" lon="16.8654821"><ele>98.0</ele><time>2026-03-28T12:42:25.178Z</time></trkpt><trkpt lat="39.2121674" lon="16.865583"><ele>97.99999999999999</ele><time>2026-03-28T12:42:27.192Z</time></trkpt><trkpt lat="39.212131" lon="16.8657073"><ele>98.0</ele><time>2026-03-28T12:42:29.183Z</time></trkpt><trkpt lat="39.2120521" lon="16.865818"><ele>97.99999999999999</ele><time>2026-03-28T12:42:31.174Z</time></trkpt><trkpt lat="39.2119942" lon="16.8658618"><ele>98.0</ele><time>2026-03-28T12:42:32.192Z</time></trkpt><trkpt lat="39.2119286" lon="16.865898"><ele>98.0</ele><time>2026-03-28T12:42:33.19Z</time></trkpt><trkpt lat="39.2118654" lon="16.8659352"><ele>98.0</ele><time>2026-03-28T12:42:34.189Z</time></trkpt><trkpt lat="39.2118157" lon="16.8659884"><ele>97.99999999999999</ele><time>2026-03-28T12:42:35.182Z</time></trkpt><trkpt lat="39.211784" lon="16.8661374"><ele>98.0</ele><time>2026-03-28T12:42:37.175Z</time></trkpt><trkpt lat="39.2118244" lon="16.866275"><ele>97.83333333333333</ele><time>2026-03-28T12:42:39.174Z</time></trkpt><trkpt lat="39.2118727" lon="16.866379"><ele>97.66666666666666</ele><time>2026-03-28T12:42:41.174Z</time></trkpt><trkpt lat="39.2118998" lon="16.8664828"><ele>97.5</ele><time>2026-03-28T12:42:43.173Z</time></trkpt><trkpt lat="39.2119095" lon="16.8665858"><ele>97.33333333333334</ele><time>2026-03-28T12:42:45.177Z</time></trkpt><trkpt lat="39.2119073" lon="16.8666747"><ele>97.16666666666667</ele><time>2026-03-28T12:42:48.179Z</time></trkpt><trkpt lat="39.2119157" lon="16.8667609"><ele>97.0</ele><time>2026-03-28T12:42:55.178Z</time></trkpt><trkpt lat="39.2119293" lon="16.8668471"><ele>97.0</ele><time>2026-03-28T12:43:00.177Z</time></trkpt><trkpt lat="39.2119416" lon="16.8669387"><ele>97.0</ele><time>2026-03-28T12:43:05.184Z</time></trkpt><trkpt lat="39.2119337" lon="16.8670198"><ele>97.0</ele><time>2026-03-28T12:43:09.173Z</time></trkpt><trkpt lat="39.2118819" lon="16.8670921"><ele>97.0</ele><time>2026-03-28T12:43:14.214Z</time></trkpt><trkpt lat="39.2118362" lon="16.8671505"><ele>97.0</ele><time>2026-03-28T12:43:18.179Z</time></trkpt><trkpt lat="39.2117888" lon="16.8672272"><ele>97.0</ele><time>2026-03-28T12:43:22.177Z</time></trkpt><trkpt lat="39.2117564" lon="16.8673062"><ele>97.0</ele><time>2026-03-28T12:43:26.175Z</time></trkpt><trkpt lat="39.2117104" lon="16.8673851"><ele>97.0</ele><time>2026-03-28T12:43:30.186Z</time></trkpt><trkpt lat="39.2116652" lon="16.8674758"><ele>97.0</ele><time>2026-03-28T12:43:34.169Z</time></trkpt><trkpt lat="39.2116381" lon="16.8675569"><ele>97.0</ele><time>2026-03-28T12:43:37.178Z</time></trkpt><trkpt lat="39.2115899" lon="16.8676456"><ele>97.0</ele><time>2026-03-28T12:43:40.173Z</time></trkpt><trkpt lat="39.2115522" lon="16.8677288"><ele>97.0</ele><time>2026-03-28T12:43:43.181Z</time></trkpt><trkpt lat="39.2115512" lon="16.867812"><ele>97.0</ele><time>2026-03-28T12:43:47.17Z</time></trkpt><trkpt lat="39.2115721" lon="16.8679041"><ele>97.0</ele><time>2026-03-28T12:43:54.175Z</time></trkpt><trkpt lat="39.2116063" lon="16.867986"><ele>97.28571428571428</ele><time>2026-03-28T12:43:58.176Z</time></trkpt><trkpt lat="39.2116457" lon="16.8680542"><ele>97.57142857142858</ele><time>2026-03-28T12:44:01.173Z</time></trkpt><trkpt lat="39.2116794" lon="16.8681371"><ele>97.85714285714286</ele><time>2026-03-28T12:44:04.192Z</time></trkpt><trkpt lat="39.2117299" lon="16.8682432"><ele>98.14285714285714</ele><time>2026-03-28T12:44:07.189Z</time></trkpt><trkpt lat="39.2117664" lon="16.8683192"><ele>98.42857142857142</ele><time>2026-03-28T12:44:09.183Z</time></trkpt><trkpt lat="39.2118073" lon="16.8683968"><ele>98.71428571428572</ele><time>2026-03-28T12:44:11.171Z</time></trkpt><trkpt lat="39.2118528" lon="16.8684608"><ele>99.0</ele><time>2026-03-28T12:44:13.179Z</time></trkpt><trkpt lat="39.211899" lon="16.8685615"><ele>100.66666666666667</ele><time>2026-03-28T12:44:16.176Z</time></trkpt><trkpt lat="39.2119256" lon="16.8686583"><ele>102.33333333333334</ele><time>2026-03-28T12:44:20.18Z</time></trkpt><trkpt lat="39.2119587" lon="16.8687435"><ele>104.0</ele><time>2026-03-28T12:44:24.171Z</time></trkpt><trkpt lat="39.2119993" lon="16.8688395"><ele>105.66666666666667</ele><time>2026-03-28T12:44:27.173Z</time></trkpt><trkpt lat="39.2120329" lon="16.8689335"><ele>107.33333333333334</ele><time>2026-03-28T12:44:30.199Z</time></trkpt><trkpt lat="39.2120558" lon="16.8690484"><ele>109.0</ele><time>2026-03-28T12:44:33.184Z</time></trkpt><trkpt lat="39.2120728" lon="16.8691357"><ele>109.00000000000001</ele><time>2026-03-28T12:44:35.21Z</time></trkpt><trkpt lat="39.2120849" lon="16.8692228"><ele>109.0</ele><time>2026-03-28T12:44:37.179Z</time></trkpt><trkpt lat="39.2120946" lon="16.8693125"><ele>109.0</ele><time>2026-03-28T12:44:39.186Z</time></trkpt><trkpt lat="39.2121074" lon="16.8694095"><ele>109.0</ele><time>2026-03-28T12:44:41.188Z</time></trkpt><trkpt lat="39.2121206" lon="16.8695098"><ele>109.00000000000001</ele><time>2026-03-28T12:44:43.176Z</time></trkpt><trkpt lat="39.2121368" lon="16.869613"><ele>109.0</ele><time>2026-03-28T12:44:45.182Z</time></trkpt><trkpt lat="39.212156" lon="16.8697189"><ele>109.50000000000001</ele><time>2026-03-28T12:44:47.18Z</time></trkpt><trkpt lat="39.2121721" lon="16.8698233"><ele>110.0</ele><time>2026-03-28T12:44:49.198Z</time></trkpt><trkpt lat="39.2121969" lon="16.8699254"><ele>110.5</ele><time>2026-03-28T12:44:51.201Z</time></trkpt><trkpt lat="39.2122371" lon="16.8700244"><ele>111.0</ele><time>2026-03-28T12:44:53.203Z</time></trkpt><trkpt lat="39.2122699" lon="16.8701204"><ele>111.50000000000001</ele><time>2026-03-28T12:44:55.179Z</time></trkpt><trkpt lat="39.2122979" lon="16.870222"><ele>112.0</ele><time>2026-03-28T12:44:57.183Z</time></trkpt><trkpt lat="39.212324" lon="16.870318"><ele>112.00000000000001</ele><time>2026-03-28T12:44:59.172Z</time></trkpt><trkpt lat="39.2123552" lon="16.8704051"><ele>112.0</ele><time>2026-03-28T12:45:01.173Z</time></trkpt><trkpt lat="39.2123833" lon="16.8705047"><ele>112.0</ele><time>2026-03-28T12:45:04.192Z</time></trkpt><trkpt lat="39.2123748" lon="16.8705967"><ele>112.0</ele><time>2026-03-28T12:45:55.182Z</time></trkpt><trkpt lat="39.2123353" lon="16.8707192"><ele>112.00000000000001</ele><time>2026-03-28T12:45:57.173Z</time></trkpt><trkpt lat="39.2123013" lon="16.8708057"><ele>112.0</ele><time>2026-03-28T12:45:59.198Z</time></trkpt><trkpt lat="39.2122926" lon="16.8708981"><ele>113.33333333333334</ele><time>2026-03-28T12:46:01.17Z</time></trkpt><trkpt lat="39.2123079" lon="16.8709889"><ele>114.66666666666667</ele><time>2026-03-28T12:46:03.196Z</time></trkpt><trkpt lat="39.2123327" lon="16.8710755"><ele>116.0</ele><time>2026-03-28T12:46:05.179Z</time></trkpt><trkpt lat="39.2123761" lon="16.8711676"><ele>117.33333333333334</ele><time>2026-03-28T12:46:07.181Z</time></trkpt><trkpt lat="39.2124483" lon="16.8712477"><ele>118.66666666666667</ele><time>2026-03-28T12:46:09.172Z</time></trkpt><trkpt lat="39.2125415" lon="16.8713136"><ele>120.0</ele><time>2026-03-28T12:46:11.196Z</time></trkpt><trkpt lat="39.2126351" lon="16.8713715"><ele>120.0</ele><time>2026-03-28T12:46:13.189Z</time></trkpt><trkpt lat="39.2127289" lon="16.8714393"><ele>120.0</ele><time>2026-03-28T12:46:15.173Z</time></trkpt><trkpt lat="39.2128353" lon="16.8715221"><ele>120.0</ele><time>2026-03-28T12:46:17.174Z</time></trkpt><trkpt lat="39.2128957" lon="16.8715662"><ele>120.0</ele><time>2026-03-28T12:46:18.181Z</time></trkpt><trkpt lat="39.2129887" lon="16.8716532"><ele>120.0</ele><time>2026-03-28T12:46:20.182Z</time></trkpt><trkpt lat="39.2130644" lon="16.8717862"><ele>121.2</ele><time>2026-03-28T12:46:22.176Z</time></trkpt><trkpt lat="39.2130936" lon="16.8718742"><ele>122.4</ele><time>2026-03-28T12:46:23.183Z</time></trkpt><trkpt lat="39.2131141" lon="16.8719591"><ele>123.6</ele><time>2026-03-28T12:46:24.18Z</time></trkpt><trkpt lat="39.213148" lon="16.8720978"><ele>124.8</ele><time>2026-03-28T12:46:26.192Z</time></trkpt><trkpt lat="39.2131882" lon="16.8722674"><ele>126.0</ele><time>2026-03-28T12:46:28.18Z</time></trkpt><trkpt lat="39.2132115" lon="16.8723759"><ele>123.4</ele><time>2026-03-28T12:46:29.216Z</time></trkpt><trkpt lat="39.2132323" lon="16.8724847"><ele>120.8</ele><time>2026-03-28T12:46:30.182Z</time></trkpt><trkpt lat="39.2132538" lon="16.8725957"><ele>118.20000000000002</ele><time>2026-03-28T12:46:31.195Z</time></trkpt><trkpt lat="39.213275" lon="16.8727085"><ele>115.60000000000001</ele><time>2026-03-28T12:46:32.169Z</time></trkpt><trkpt lat="39.2132921" lon="16.8728282"><ele>113.0</ele><time>2026-03-28T12:46:33.194Z</time></trkpt><trkpt lat="39.2133026" lon="16.872949"><ele>112.99999999999999</ele><time>2026-03-28T12:46:34.191Z</time></trkpt><trkpt lat="39.2133069" lon="16.8730703"><ele>113.0</ele><time>2026-03-28T12:46:35.182Z</time></trkpt><trkpt lat="39.2133084" lon="16.8731847"><ele>113.0</ele><time>2026-03-28T12:46:36.197Z</time></trkpt><trkpt lat="39.21331" lon="16.8732825"><ele>113.0</ele><time>2026-03-28T12:46:37.178Z</time></trkpt><trkpt lat="39.2133104" lon="16.8733647"><ele>112.99999999999999</ele><time>2026-03-28T12:46:38.188Z</time></trkpt><trkpt lat="39.2133328" lon="16.8734608"><ele>113.0</ele><time>2026-03-28T12:46:40.18Z</time></trkpt><trkpt lat="39.2133916" lon="16.8735456"><ele>113.33333333333333</ele><time>2026-03-28T12:46:42.18Z</time></trkpt><trkpt lat="39.2134382" lon="16.8736058"><ele>113.66666666666666</ele><time>2026-03-28T12:46:43.192Z</time></trkpt><trkpt lat="39.2134909" lon="16.8736725"><ele>114.0</ele><time>2026-03-28T12:46:44.198Z</time></trkpt><trkpt lat="39.2135503" lon="16.873748"><ele>114.33333333333334</ele><time>2026-03-28T12:46:45.193Z</time></trkpt><trkpt lat="39.2136154" lon="16.8738325"><ele>114.66666666666667</ele><time>2026-03-28T12:46:46.202Z</time></trkpt><trkpt lat="39.2136893" lon="16.8739322"><ele>115.0</ele><time>2026-03-28T12:46:47.181Z</time></trkpt><trkpt lat="39.2137788" lon="16.8740551"><ele>115.0</ele><time>2026-03-28T12:46:48.188Z</time></trkpt><trkpt lat="39.2138666" lon="16.874191"><ele>115.0</ele><time>2026-03-28T12:46:49.18Z</time></trkpt><trkpt lat="39.2139463" lon="16.8743395"><ele>115.0</ele><time>2026-03-28T12:46:50.179Z</time></trkpt><trkpt lat="39.2140224" lon="16.8745087"><ele>115.0</ele><time>2026-03-28T12:46:51.181Z</time></trkpt><trkpt lat="39.2140988" lon="16.8746807"><ele>115.75</ele><time>2026-03-28T12:46:52.172Z</time></trkpt><trkpt lat="39.2141729" lon="16.8748414"><ele>116.5</ele><time>2026-03-28T12:46:53.183Z</time></trkpt><trkpt lat="39.2142383" lon="16.8749885"><ele>117.25</ele><time>2026-03-28T12:46:54.179Z</time></trkpt><trkpt lat="39.2142932" lon="16.8751251"><ele>118.0</ele><time>2026-03-28T12:46:55.17Z</time></trkpt><trkpt lat="39.2143432" lon="16.8752527"><ele>119.0</ele><time>2026-03-28T12:46:56.179Z</time></trkpt><trkpt lat="39.2143887" lon="16.8753759"><ele>120.00000000000001</ele><time>2026-03-28T12:46:57.182Z</time></trkpt><trkpt lat="39.2144376" lon="16.8754997"><ele>121.00000000000001</ele><time>2026-03-28T12:46:58.191Z</time></trkpt><trkpt lat="39.2144918" lon="16.8756239"><ele>122.0</ele><time>2026-03-28T12:46:59.192Z</time></trkpt><trkpt lat="39.2145451" lon="16.8757479"><ele>123.0</ele><time>2026-03-28T12:47:00.169Z</time></trkpt><trkpt lat="39.214592" lon="16.8758764"><ele>124.75</ele><time>2026-03-28T12:47:01.172Z</time></trkpt><trkpt lat="39.2146267" lon="16.8760206"><ele>126.5</ele><time>2026-03-28T12:47:02.174Z</time></trkpt><trkpt lat="39.2146414" lon="16.8761766"><ele>128.25</ele><time>2026-03-28T12:47:03.173Z</time></trkpt><trkpt lat="39.2146534" lon="16.8763336"><ele>130.0</ele><time>2026-03-28T12:47:04.227Z</time></trkpt><trkpt lat="39.2146702" lon="16.8764764"><ele>130.0</ele><time>2026-03-28T12:47:05.184Z</time></trkpt><trkpt lat="39.2146918" lon="16.8766167"><ele>130.0</ele><time>2026-03-28T12:47:06.199Z</time></trkpt><trkpt lat="39.2147131" lon="16.876748"><ele>130.0</ele><time>2026-03-28T12:47:07.194Z</time></trkpt><trkpt lat="39.2147256" lon="16.8768733"><ele>130.0</ele><time>2026-03-28T12:47:08.198Z</time></trkpt><trkpt lat="39.2147172" lon="16.8769874"><ele>130.0</ele><time>2026-03-28T12:47:09.18Z</time></trkpt><trkpt lat="39.2146949" lon="16.8771"><ele>131.2</ele><time>2026-03-28T12:47:10.176Z</time></trkpt><trkpt lat="39.2146831" lon="16.8772212"><ele>132.4</ele><time>2026-03-28T12:47:11.171Z</time></trkpt><trkpt lat="39.2146895" lon="16.8773457"><ele>133.6</ele><time>2026-03-28T12:47:12.184Z</time></trkpt><trkpt lat="39.2147186" lon="16.8774656"><ele>134.8</ele><time>2026-03-28T12:47:13.184Z</time></trkpt><trkpt lat="39.2147673" lon="16.8775757"><ele>136.0</ele><time>2026-03-28T12:47:14.172Z</time></trkpt><trkpt lat="39.2148386" lon="16.8776645"><ele>137.66666666666669</ele><time>2026-03-28T12:47:15.179Z</time></trkpt><trkpt lat="39.2149236" lon="16.8777325"><ele>139.33333333333334</ele><time>2026-03-28T12:47:16.171Z</time></trkpt><trkpt lat="39.215011" lon="16.8777983"><ele>141.0</ele><time>2026-03-28T12:47:17.206Z</time></trkpt><trkpt lat="39.2150756" lon="16.877875"><ele>142.66666666666666</ele><time>2026-03-28T12:47:18.189Z</time></trkpt><trkpt lat="39.2151114" lon="16.8779656"><ele>144.33333333333331</ele><time>2026-03-28T12:47:19.171Z</time></trkpt><trkpt lat="39.2151362" lon="16.8780576"><ele>146.0</ele><time>2026-03-28T12:47:20.177Z</time></trkpt><trkpt lat="39.2151144" lon="16.8781657"><ele>146.0</ele><time>2026-03-28T12:47:21.169Z</time></trkpt><trkpt lat="39.2150722" lon="16.8782774"><ele>146.0</ele><time>2026-03-28T12:47:22.173Z</time></trkpt><trkpt lat="39.2150212" lon="16.8783889"><ele>146.0</ele><time>2026-03-28T12:47:23.195Z</time></trkpt><trkpt lat="39.2149594" lon="16.8784961"><ele>146.0</ele><time>2026-03-28T12:47:24.187Z</time></trkpt><trkpt lat="39.2148908" lon="16.8786039"><ele>146.0</ele><time>2026-03-28T12:47:25.17Z</time></trkpt><trkpt lat="39.2148198" lon="16.8787246"><ele>149.25</ele><time>2026-03-28T12:47:26.21Z</time></trkpt><trkpt lat="39.214752" lon="16.8788507"><ele>152.5</ele><time>2026-03-28T12:47:27.189Z</time></trkpt><trkpt lat="39.2146834" lon="16.878983"><ele>155.75</ele><time>2026-03-28T12:47:28.18Z</time></trkpt><trkpt lat="39.2146145" lon="16.8791167"><ele>159.0</ele><time>2026-03-28T12:47:29.189Z</time></trkpt><trkpt lat="39.2145535" lon="16.8792381"><ele>161.83333333333334</ele><time>2026-03-28T12:47:30.199Z</time></trkpt><trkpt lat="39.2145123" lon="16.879346"><ele>164.66666666666666</ele><time>2026-03-28T12:47:31.193Z</time></trkpt><trkpt lat="39.2144966" lon="16.8794631"><ele>167.5</ele><time>2026-03-28T12:47:32.19Z</time></trkpt><trkpt lat="39.2145035" lon="16.8795814"><ele>170.33333333333331</ele><time>2026-03-28T12:47:33.189Z</time></trkpt><trkpt lat="39.2144973" lon="16.8796747"><ele>173.16666666666666</ele><time>2026-03-28T12:47:34.176Z</time></trkpt><trkpt lat="39.2144318" lon="16.879729"><ele>176.0</ele><time>2026-03-28T12:47:36.175Z</time></trkpt><trkpt lat="39.2143374" lon="16.8795939"><ele>176.0</ele><time>2026-03-28T12:47:38.175Z</time></trkpt><trkpt lat="39.2142647" lon="16.8795037"><ele>176.0</ele><time>2026-03-28T12:47:39.175Z</time></trkpt><trkpt lat="39.2141814" lon="16.8794542"><ele>176.0</ele><time>2026-03-28T12:47:40.17Z</time></trkpt><trkpt lat="39.2140988" lon="16.879461"><ele>176.0</ele><time>2026-03-28T12:47:41.173Z</time></trkpt><trkpt lat="39.2140246" lon="16.8795188"><ele>176.0</ele><time>2026-03-28T12:47:42.169Z</time></trkpt><trkpt lat="39.2139662" lon="16.8796377"><ele>177.0</ele><time>2026-03-28T12:47:43.187Z</time></trkpt><trkpt lat="39.2139131" lon="16.879794"><ele>178.0</ele><time>2026-03-28T12:47:44.176Z</time></trkpt><trkpt lat="39.2138515" lon="16.8799599"><ele>179.0</ele><time>2026-03-28T12:47:45.188Z</time></trkpt><trkpt lat="39.2137847" lon="16.8801031"><ele>180.0</ele><time>2026-03-28T12:47:46.175Z</time></trkpt><trkpt lat="39.2137226" lon="16.8802257"><ele>182.0</ele><time>2026-03-28T12:47:47.174Z</time></trkpt><trkpt lat="39.2136911" lon="16.8803443"><ele>184.0</ele><time>2026-03-28T12:47:48.192Z</time></trkpt><trkpt lat="39.2136986" lon="16.8804512"><ele>186.0</ele><time>2026-03-28T12:47:49.178Z</time></trkpt><trkpt lat="39.2137278" lon="16.8805444"><ele>188.0</ele><time>2026-03-28T12:47:50.183Z</time></trkpt><trkpt lat="39.213753" lon="16.8806276"><ele>190.0</ele><time>2026-03-28T12:47:51.19Z</time></trkpt><trkpt lat="39.2137237" lon="16.8807311"><ele>192.0</ele><time>2026-03-28T12:47:52.174Z</time></trkpt><trkpt lat="39.2136723" lon="16.8808568"><ele>194.0</ele><time>2026-03-28T12:47:53.179Z</time></trkpt><trkpt lat="39.2136168" lon="16.8810093"><ele>196.0</ele><time>2026-03-28T12:47:54.189Z</time></trkpt><trkpt lat="39.213564" lon="16.8811639"><ele>198.0</ele><time>2026-03-28T12:47:55.196Z</time></trkpt><trkpt lat="39.2135149" lon="16.8813144"><ele>200.0</ele><time>2026-03-28T12:47:56.189Z</time></trkpt><trkpt lat="39.2134677" lon="16.8814716"><ele>200.0</ele><time>2026-03-28T12:47:57.183Z</time></trkpt><trkpt lat="39.2134232" lon="16.8816228"><ele>200.0</ele><time>2026-03-28T12:47:58.169Z</time></trkpt><trkpt lat="39.2133844" lon="16.8817574"><ele>200.0</ele><time>2026-03-28T12:47:59.177Z</time></trkpt><trkpt lat="39.2133575" lon="16.8818829"><ele>200.0</ele><time>2026-03-28T12:48:00.177Z</time></trkpt><trkpt lat="39.2133547" lon="16.8819966"><ele>200.0</ele><time>2026-03-28T12:48:01.199Z</time></trkpt><trkpt lat="39.2133915" lon="16.88209"><ele>203.25</ele><time>2026-03-28T12:48:02.208Z</time></trkpt><trkpt lat="39.2134729" lon="16.882176"><ele>206.5</ele><time>2026-03-28T12:48:03.186Z</time></trkpt><trkpt lat="39.2135755" lon="16.8822718"><ele>209.75</ele><time>2026-03-28T12:48:04.183Z</time></trkpt><trkpt lat="39.2136883" lon="16.8823843"><ele>213.0</ele><time>2026-03-28T12:48:05.17Z</time></trkpt><trkpt lat="39.2137949" lon="16.8824958"><ele>213.0</ele><time>2026-03-28T12:48:06.205Z</time></trkpt><trkpt lat="39.2138833" lon="16.882587"><ele>213.0</ele><time>2026-03-28T12:48:07.199Z</time></trkpt><trkpt lat="39.2139455" lon="16.8826712"><ele>213.0</ele><time>2026-03-28T12:48:08.173Z</time></trkpt><trkpt lat="39.2139887" lon="16.8827475"><ele>213.0</ele><time>2026-03-28T12:48:09.191Z</time></trkpt><trkpt lat="39.2139196" lon="16.8828461"><ele>213.0</ele><time>2026-03-28T12:48:11.174Z</time></trkpt><trkpt lat="39.2138353" lon="16.8828429"><ele>218.0</ele><time>2026-03-28T12:48:12.177Z</time></trkpt><trkpt lat="39.2137258" lon="16.8828195"><ele>223.0</ele><time>2026-03-28T12:48:13.171Z</time></trkpt><trkpt lat="39.2135946" lon="16.8827982"><ele>228.0</ele><time>2026-03-28T12:48:14.192Z</time></trkpt><trkpt lat="39.2134532" lon="16.8827779"><ele>233.0</ele><time>2026-03-28T12:48:15.193Z</time></trkpt><trkpt lat="39.2133152" lon="16.88276"><ele>233.0</ele><time>2026-03-28T12:48:16.188Z</time></trkpt><trkpt lat="39.2131944" lon="16.8827401"><ele>233.0</ele><time>2026-03-28T12:48:17.18Z</time></trkpt><trkpt lat="39.2130932" lon="16.8827183"><ele>233.0</ele><time>2026-03-28T12:48:18.181Z</time></trkpt><trkpt lat="39.2130061" lon="16.8827014"><ele>233.0</ele><time>2026-03-28T12:48:19.174Z</time></trkpt><trkpt lat="39.2129389" lon="16.8827936"><ele>233.0</ele><time>2026-03-28T12:48:21.196Z</time></trkpt><trkpt lat="39.2130336" lon="16.8829183"><ele>233.0</ele><time>2026-03-28T12:48:23.217Z</time></trkpt><trkpt lat="39.2131358" lon="16.882987"><ele>233.0</ele><time>2026-03-28T12:48:24.19Z</time></trkpt><trkpt lat="39.2132469" lon="16.8830671"><ele>233.0</ele><time>2026-03-28T12:48:25.185Z</time></trkpt><trkpt lat="39.2133585" lon="16.8831526"><ele>233.0</ele><time>2026-03-28T12:48:26.175Z</time></trkpt><trkpt lat="39.2134671" lon="16.8832353"><ele>233.0</ele><time>2026-03-28T12:48:27.181Z</time></trkpt><trkpt lat="39.213561" lon="16.8833029"><ele>233.0</ele><time>2026-03-28T12:48:28.177Z</time></trkpt><trkpt lat="39.2136378" lon="16.8833584"><ele>233.0</ele><time>2026-03-28T12:48:29.176Z</time></trkpt><trkpt lat="39.2136624" lon="16.8834768"><ele>233.0</ele><time>2026-03-28T12:48:31.184Z</time></trkpt><trkpt lat="39.2135231" lon="16.8834786"><ele>233.0</ele><time>2026-03-28T12:48:33.173Z</time></trkpt><trkpt lat="39.2134079" lon="16.8834313"><ele>233.0</ele><time>2026-03-28T12:48:34.178Z</time></trkpt><trkpt lat="39.2132615" lon="16.8833694"><ele>233.0</ele><time>2026-03-28T12:48:35.169Z</time></trkpt><trkpt lat="39.2130912" lon="16.8833049"><ele>233.0</ele><time>2026-03-28T12:48:36.182Z</time></trkpt><trkpt lat="39.2129234" lon="16.8832415"><ele>234.4</ele><time>2026-03-28T12:48:37.18Z</time></trkpt><trkpt lat="39.2127698" lon="16.8831902"><ele>235.8</ele><time>2026-03-28T12:48:38.194Z</time></trkpt><trkpt lat="39.2126505" lon="16.8831413"><ele>237.2</ele><time>2026-03-28T12:48:39.192Z</time></trkpt><trkpt lat="39.2125574" lon="16.8831309"><ele>238.6</ele><time>2026-03-28T12:48:40.181Z</time></trkpt><trkpt lat="39.2124976" lon="16.8831661"><ele>240.0</ele><time>2026-03-28T12:48:41.17Z</time></trkpt><trkpt lat="39.2124855" lon="16.8832856"><ele>240.0</ele><time>2026-03-28T12:48:43.179Z</time></trkpt><trkpt lat="39.2125347" lon="16.8833515"><ele>240.0</ele><time>2026-03-28T12:48:44.185Z</time></trkpt><trkpt lat="39.2126138" lon="16.8834419"><ele>240.0</ele><time>2026-03-28T12:48:45.185Z</time></trkpt><trkpt lat="39.2126849" lon="16.8835555"><ele>240.0</ele><time>2026-03-28T12:48:46.197Z</time></trkpt><trkpt lat="39.21276" lon="16.883692"><ele>240.0</ele><time>2026-03-28T12:48:47.177Z</time></trkpt><trkpt lat="39.2128404" lon="16.8838549"><ele>241.5</ele><time>2026-03-28T12:48:48.189Z</time></trkpt><trkpt lat="39.2129087" lon="16.8840127"><ele>243.0</ele><time>2026-03-28T12:48:49.185Z</time></trkpt><trkpt lat="39.2129597" lon="16.8841491"><ele>244.5</ele><time>2026-03-28T12:48:50.19Z</time></trkpt><trkpt lat="39.2130003" lon="16.8842713"><ele>246.0</ele><time>2026-03-28T12:48:51.187Z</time></trkpt><trkpt lat="39.2130345" lon="16.8843892"><ele>246.0</ele><time>2026-03-28T12:48:52.189Z</time></trkpt><trkpt lat="39.2130605" lon="16.8845064"><ele>246.0</ele><time>2026-03-28T12:48:53.187Z</time></trkpt><trkpt lat="39.2130741" lon="16.8846183"><ele>246.0</ele><time>2026-03-28T12:48:54.194Z</time></trkpt><trkpt lat="39.2130796" lon="16.8847161"><ele>246.0</ele><time>2026-03-28T12:48:55.18Z</time></trkpt><trkpt lat="39.2130828" lon="16.884855"><ele>246.0</ele><time>2026-03-28T12:48:57.176Z</time></trkpt><trkpt lat="39.213073" lon="16.8849423"><ele>246.0</ele><time>2026-03-28T12:49:13.184Z</time></trkpt><trkpt lat="39.2130347" lon="16.8851045"><ele>247.4</ele><time>2026-03-28T12:49:39.177Z</time></trkpt><trkpt lat="39.2130028" lon="16.8851751"><ele>248.8</ele><time>2026-03-28T12:49:40.172Z</time></trkpt><trkpt lat="39.2129371" lon="16.8852725"><ele>250.20000000000002</ele><time>2026-03-28T12:49:42.197Z</time></trkpt><trkpt lat="39.2128651" lon="16.8853654"><ele>251.60000000000002</ele><time>2026-03-28T12:49:44.183Z</time></trkpt><trkpt lat="39.2127901" lon="16.8854663"><ele>253.0</ele><time>2026-03-28T12:49:46.203Z</time></trkpt><trkpt lat="39.2127275" lon="16.8855558"><ele>252.99999999999997</ele><time>2026-03-28T12:49:48.175Z</time></trkpt><trkpt lat="39.2126726" lon="16.8856345"><ele>253.0</ele><time>2026-03-28T12:49:50.211Z</time></trkpt><trkpt lat="39.2126256" lon="16.8857016"><ele>253.0</ele><time>2026-03-28T12:49:52.184Z</time></trkpt><trkpt lat="39.2125706" lon="16.8857625"><ele>253.0</ele><time>2026-03-28T12:49:54.173Z</time></trkpt><trkpt lat="39.2125163" lon="16.8858282"><ele>252.99999999999997</ele><time>2026-03-28T12:49:56.17Z</time></trkpt><trkpt lat="39.2124554" lon="16.8859057"><ele>253.0</ele><time>2026-03-28T12:49:58.185Z</time></trkpt><trkpt lat="39.2124045" lon="16.8859689"><ele>253.16666666666666</ele><time>2026-03-28T12:49:59.184Z</time></trkpt><trkpt lat="39.2123464" lon="16.8860426"><ele>253.33333333333331</ele><time>2026-03-28T12:50:00.195Z</time></trkpt><trkpt lat="39.2122887" lon="16.8861328"><ele>253.5</ele><time>2026-03-28T12:50:01.171Z</time></trkpt><trkpt lat="39.2122314" lon="16.8862293"><ele>253.66666666666669</ele><time>2026-03-28T12:50:02.201Z</time></trkpt><trkpt lat="39.2121803" lon="16.8863098"><ele>253.83333333333334</ele><time>2026-03-28T12:50:03.188Z</time></trkpt><trkpt lat="39.2121353" lon="16.8863847"><ele>254.0</ele><time>2026-03-28T12:50:04.176Z</time></trkpt><trkpt lat="39.2120953" lon="16.8864621"><ele>254.00000000000003</ele><time>2026-03-28T12:50:05.173Z</time></trkpt><trkpt lat="39.2120621" lon="16.8865355"><ele>254.0</ele><time>2026-03-28T12:50:06.176Z</time></trkpt><trkpt lat="39.2120279" lon="16.8866065"><ele>254.0</ele><time>2026-03-28T12:50:07.189Z</time></trkpt><trkpt lat="39.2119933" lon="16.8866831"><ele>254.0</ele><time>2026-03-28T12:50:08.185Z</time></trkpt><trkpt lat="39.2119583" lon="16.8867728"><ele>254.00000000000003</ele><time>2026-03-28T12:50:09.189Z</time></trkpt><trkpt lat="39.2119192" lon="16.8868835"><ele>254.0</ele><time>2026-03-28T12:50:10.21Z</time></trkpt><trkpt lat="39.2118776" lon="16.8870037"><ele>255.79999999999998</ele><time>2026-03-28T12:50:11.181Z</time></trkpt><trkpt lat="39.2118347" lon="16.8871194"><ele>257.59999999999997</ele><time>2026-03-28T12:50:12.205Z</time></trkpt><trkpt lat="39.211794" lon="16.8872291"><ele>259.4</ele><time>2026-03-28T12:50:13.179Z</time></trkpt><trkpt lat="39.2117605" lon="16.8873373"><ele>261.2</ele><time>2026-03-28T12:50:14.177Z</time></trkpt><trkpt lat="39.2117303" lon="16.8874493"><ele>263.0</ele><time>2026-03-28T12:50:15.184Z</time></trkpt><trkpt lat="39.2117003" lon="16.887568"><ele>263.1666666666667</ele><time>2026-03-28T12:50:16.19Z</time></trkpt><trkpt lat="39.2116699" lon="16.8876767"><ele>263.33333333333337</ele><time>2026-03-28T12:50:17.175Z</time></trkpt><trkpt lat="39.2116426" lon="16.8877625"><ele>263.5</ele><time>2026-03-28T12:50:18.183Z</time></trkpt><trkpt lat="39.2116059" lon="16.8878751"><ele>263.6666666666667</ele><time>2026-03-28T12:50:20.188Z</time></trkpt><trkpt lat="39.2115812" lon="16.8879819"><ele>263.8333333333333</ele><time>2026-03-28T12:50:22.185Z</time></trkpt><trkpt lat="39.2116249" lon="16.8880661"><ele>264.0</ele><time>2026-03-28T12:50:24.193Z</time></trkpt><trkpt lat="39.2117436" lon="16.8880753"><ele>264.0</ele><time>2026-03-28T12:50:26.182Z</time></trkpt><trkpt lat="39.2118503" lon="16.8880438"><ele>264.0</ele><time>2026-03-28T12:50:27.209Z</time></trkpt><trkpt lat="39.2119742" lon="16.8880041"><ele>264.0</ele><time>2026-03-28T12:50:28.19Z</time></trkpt><trkpt lat="39.212093" lon="16.8879662"><ele>264.0</ele><time>2026-03-28T12:50:29.174Z</time></trkpt><trkpt lat="39.2122018" lon="16.8879256"><ele>264.0</ele><time>2026-03-28T12:50:30.175Z</time></trkpt><trkpt lat="39.2123014" lon="16.8878802"><ele>264.0</ele><time>2026-03-28T12:50:31.174Z</time></trkpt><trkpt lat="39.2123862" lon="16.887833"><ele>264.0</ele><time>2026-03-28T12:50:32.175Z</time></trkpt><trkpt lat="39.212461" lon="16.8877845"><ele>264.0</ele><time>2026-03-28T12:50:33.173Z</time></trkpt><trkpt lat="39.2125362" lon="16.8877372"><ele>264.0</ele><time>2026-03-28T12:50:34.184Z</time></trkpt><trkpt lat="39.2126101" lon="16.8876925"><ele>264.0</ele><time>2026-03-28T12:50:35.172Z</time></trkpt><trkpt lat="39.2126829" lon="16.8876406"><ele>265.6666666666667</ele><time>2026-03-28T12:50:36.172Z</time></trkpt><trkpt lat="39.2127585" lon="16.8875855"><ele>267.3333333333333</ele><time>2026-03-28T12:50:37.193Z</time></trkpt><trkpt lat="39.2128356" lon="16.8875324"><ele>269.0</ele><time>2026-03-28T12:50:38.21Z</time></trkpt><trkpt lat="39.2129113" lon="16.8874867"><ele>270.66666666666663</ele><time>2026-03-28T12:50:39.21Z</time></trkpt><trkpt lat="39.2129895" lon="16.8874421"><ele>272.3333333333333</ele><time>2026-03-28T12:50:40.185Z</time></trkpt><trkpt lat="39.2130674" lon="16.887401"><ele>274.0</ele><time>2026-03-28T12:50:41.195Z</time></trkpt><trkpt lat="39.2131413" lon="16.8873655"><ele>275.59999999999997</ele><time>2026-03-28T12:50:42.175Z</time></trkpt><trkpt lat="39.213219" lon="16.8873493"><ele>277.2</ele><time>2026-03-28T12:50:43.181Z</time></trkpt><trkpt lat="39.2133035" lon="16.8873516"><ele>278.79999999999995</ele><time>2026-03-28T12:50:44.175Z</time></trkpt><trkpt lat="39.2133964" lon="16.8873721"><ele>280.4</ele><time>2026-03-28T12:50:45.183Z</time></trkpt><trkpt lat="39.2134908" lon="16.8874001"><ele>282.0</ele><time>2026-03-28T12:50:46.176Z</time></trkpt><trkpt lat="39.2135864" lon="16.8874278"><ele>282.0</ele><time>2026-03-28T12:50:47.171Z</time></trkpt><trkpt lat="39.213681" lon="16.8874571"><ele>282.0</ele><time>2026-03-28T12:50:48.173Z</time></trkpt><trkpt lat="39.2137768" lon="16.8874878"><ele>282.0</ele><time>2026-03-28T12:50:49.173Z</time></trkpt><trkpt lat="39.2138745" lon="16.8875176"><ele>282.0</ele><time>2026-03-28T12:50:50.179Z</time></trkpt><trkpt lat="39.2139734" lon="16.8875477"><ele>282.0</ele><time>2026-03-28T12:50:51.191Z</time></trkpt><trkpt lat="39.2140732" lon="16.8875781"><ele>284.2</ele><time>2026-03-28T12:50:52.198Z</time></trkpt><trkpt lat="39.2141692" lon="16.8876156"><ele>286.4</ele><time>2026-03-28T12:50:53.196Z</time></trkpt><trkpt lat="39.2142562" lon="16.8876771"><ele>288.6</ele><time>2026-03-28T12:50:54.184Z</time></trkpt><trkpt lat="39.214328" lon="16.8877643"><ele>290.8</ele><time>2026-03-28T12:50:55.208Z</time></trkpt><trkpt lat="39.2143894" lon="16.8878709"><ele>293.0</ele><time>2026-03-28T12:50:56.18Z</time></trkpt><trkpt lat="39.214451" lon="16.8879912"><ele>293.0</ele><time>2026-03-28T12:50:57.183Z</time></trkpt><trkpt lat="39.21451" lon="16.888115"><ele>293.0</ele><time>2026-03-28T12:50:58.194Z</time></trkpt><trkpt lat="39.2145674" lon="16.8882343"><ele>293.0</ele><time>2026-03-28T12:50:59.187Z</time></trkpt><trkpt lat="39.2146262" lon="16.888342"><ele>293.0</ele><time>2026-03-28T12:51:00.189Z</time></trkpt><trkpt lat="39.2146825" lon="16.8884437"><ele>293.0</ele><time>2026-03-28T12:51:01.174Z</time></trkpt><trkpt lat="39.2147482" lon="16.8885373"><ele>292.8</ele><time>2026-03-28T12:51:02.183Z</time></trkpt><trkpt lat="39.2148228" lon="16.8886207"><ele>292.6</ele><time>2026-03-28T12:51:03.192Z</time></trkpt><trkpt lat="39.2149036" lon="16.8886898"><ele>292.4</ele><time>2026-03-28T12:51:04.189Z</time></trkpt><trkpt lat="39.2149854" lon="16.8887575"><ele>292.2</ele><time>2026-03-28T12:51:05.181Z</time></trkpt><trkpt lat="39.2150635" lon="16.8888237"><ele>292.0</ele><time>2026-03-28T12:51:06.178Z</time></trkpt><trkpt lat="39.2151327" lon="16.888885"><ele>292.0</ele><time>2026-03-28T12:51:07.187Z</time></trkpt><trkpt lat="39.2151995" lon="16.8889463"><ele>292.0</ele><time>2026-03-28T12:51:08.187Z</time></trkpt><trkpt lat="39.2152693" lon="16.8890098"><ele>292.0</ele><time>2026-03-28T12:51:09.175Z</time></trkpt><trkpt lat="39.2153441" lon="16.8890727"><ele>292.0</ele><time>2026-03-28T12:51:10.197Z</time></trkpt><trkpt lat="39.2154243" lon="16.8891274"><ele>292.0</ele><time>2026-03-28T12:51:11.198Z</time></trkpt><trkpt lat="39.2155056" lon="16.8891911"><ele>292.0</ele><time>2026-03-28T12:51:12.215Z</time></trkpt><trkpt lat="39.2155797" lon="16.8892745"><ele>290.4</ele><time>2026-03-28T12:51:13.195Z</time></trkpt><trkpt lat="39.2156515" lon="16.8893791"><ele>288.79999999999995</ele><time>2026-03-28T12:51:14.221Z</time></trkpt><trkpt lat="39.2157155" lon="16.8894954"><ele>287.2</ele><time>2026-03-28T12:51:15.198Z</time></trkpt><trkpt lat="39.2157705" lon="16.8896158"><ele>285.59999999999997</ele><time>2026-03-28T12:51:16.182Z</time></trkpt><trkpt lat="39.2158187" lon="16.8897303"><ele>284.0</ele><time>2026-03-28T12:51:17.181Z</time></trkpt><trkpt lat="39.2158624" lon="16.8898304"><ele>284.0</ele><time>2026-03-28T12:51:18.19Z</time></trkpt><trkpt lat="39.2159026" lon="16.8899206"><ele>284.0</ele><time>2026-03-28T12:51:19.184Z</time></trkpt><trkpt lat="39.2159488" lon="16.8899877"><ele>284.0</ele><time>2026-03-28T12:51:20.2Z</time></trkpt><trkpt lat="39.2159942" lon="16.8900442"><ele>284.0</ele><time>2026-03-28T12:51:21.173Z</time></trkpt><trkpt lat="39.2160598" lon="16.890155"><ele>284.0</ele><time>2026-03-28T12:51:23.196Z</time></trkpt><trkpt lat="39.2160584" lon="16.8902543"><ele>284.0</ele><time>2026-03-28T12:51:25.175Z</time></trkpt><trkpt lat="39.2160868" lon="16.8903413"><ele>279.2</ele><time>2026-03-28T12:51:27.216Z</time></trkpt><trkpt lat="39.2161631" lon="16.8904203"><ele>274.4</ele><time>2026-03-28T12:51:29.18Z</time></trkpt><trkpt lat="39.2162478" lon="16.8904883"><ele>269.6</ele><time>2026-03-28T12:51:31.18Z</time></trkpt><trkpt lat="39.2163077" lon="16.8905357"><ele>264.8</ele><time>2026-03-28T12:51:33.187Z</time></trkpt><trkpt lat="39.2163745" lon="16.8905936"><ele>260.0</ele><time>2026-03-28T12:51:35.215Z</time></trkpt><trkpt lat="39.2164603" lon="16.8906666"><ele>257.8</ele><time>2026-03-28T12:51:37.204Z</time></trkpt><trkpt lat="39.2165462" lon="16.8907441"><ele>255.6</ele><time>2026-03-28T12:51:39.177Z</time></trkpt><trkpt lat="39.2166637" lon="16.8908277"><ele>253.39999999999998</ele><time>2026-03-28T12:51:41.178Z</time></trkpt><trkpt lat="39.216727" lon="16.8908727"><ele>251.2</ele><time>2026-03-28T12:51:42.189Z</time></trkpt><trkpt lat="39.2167858" lon="16.8909195"><ele>249.0</ele><time>2026-03-28T12:51:43.174Z</time></trkpt><trkpt lat="39.2168435" lon="16.8909738"><ele>249.0</ele><time>2026-03-28T12:51:44.213Z</time></trkpt><trkpt lat="39.216899" lon="16.8910362"><ele>249.0</ele><time>2026-03-28T12:51:45.193Z</time></trkpt><trkpt lat="39.2169499" lon="16.8911101"><ele>249.0</ele><time>2026-03-28T12:51:46.181Z</time></trkpt><trkpt lat="39.2170015" lon="16.8911889"><ele>249.0</ele><time>2026-03-28T12:51:47.186Z</time></trkpt><trkpt lat="39.2170558" lon="16.8912777"><ele>249.0</ele><time>2026-03-28T12:51:48.179Z</time></trkpt><trkpt lat="39.217114" lon="16.8913714"><ele>249.0</ele><time>2026-03-28T12:51:49.192Z</time></trkpt><trkpt lat="39.2171784" lon="16.8914633"><ele>249.0</ele><time>2026-03-28T12:51:50.196Z</time></trkpt><trkpt lat="39.2172454" lon="16.891554"><ele>248.99999999999997</ele><time>2026-03-28T12:51:51.176Z</time></trkpt><trkpt lat="39.2173119" lon="16.8916448"><ele>248.99999999999997</ele><time>2026-03-28T12:51:52.194Z</time></trkpt><trkpt lat="39.2173805" lon="16.8917379"><ele>249.0</ele><time>2026-03-28T12:51:53.2Z</time></trkpt><trkpt lat="39.2174478" lon="16.8918307"><ele>249.0</ele><time>2026-03-28T12:51:54.193Z</time></trkpt><trkpt lat="39.2175157" lon="16.891925"><ele>250.79999999999998</ele><time>2026-03-28T12:51:55.21Z</time></trkpt><trkpt lat="39.2175791" lon="16.892022"><ele>252.59999999999997</ele><time>2026-03-28T12:51:56.192Z</time></trkpt><trkpt lat="39.2176474" lon="16.8921232"><ele>254.4</ele><time>2026-03-28T12:51:57.223Z</time></trkpt><trkpt lat="39.2177145" lon="16.8922229"><ele>256.2</ele><time>2026-03-28T12:51:58.177Z</time></trkpt><trkpt lat="39.2177852" lon="16.8923223"><ele>258.0</ele><time>2026-03-28T12:51:59.174Z</time></trkpt><trkpt lat="39.217853" lon="16.892416"><ele>258.0</ele><time>2026-03-28T12:52:00.192Z</time></trkpt><trkpt lat="39.2179132" lon="16.8924998"><ele>258.0</ele><time>2026-03-28T12:52:01.189Z</time></trkpt><trkpt lat="39.2179694" lon="16.8925776"><ele>258.0</ele><time>2026-03-28T12:52:02.187Z</time></trkpt><trkpt lat="39.2180233" lon="16.8926606"><ele>258.0</ele><time>2026-03-28T12:52:03.18Z</time></trkpt><trkpt lat="39.2180806" lon="16.8927506"><ele>258.0</ele><time>2026-03-28T12:52:04.191Z</time></trkpt><trkpt lat="39.2181425" lon="16.8928373"><ele>258.0</ele><time>2026-03-28T12:52:05.194Z</time></trkpt><trkpt lat="39.2182107" lon="16.8929183"><ele>259.0</ele><time>2026-03-28T12:52:06.223Z</time></trkpt><trkpt lat="39.2182813" lon="16.8929878"><ele>260.0</ele><time>2026-03-28T12:52:07.186Z</time></trkpt><trkpt lat="39.2183535" lon="16.8930471"><ele>261.0</ele><time>2026-03-28T12:52:08.172Z</time></trkpt><trkpt lat="39.2184238" lon="16.8931049"><ele>262.0</ele><time>2026-03-28T12:52:09.182Z</time></trkpt><trkpt lat="39.2184914" lon="16.8931606"><ele>263.0</ele><time>2026-03-28T12:52:10.199Z</time></trkpt><trkpt lat="39.2185541" lon="16.8932129"><ele>264.0</ele><time>2026-03-28T12:52:11.187Z</time></trkpt><trkpt lat="39.2186168" lon="16.8932676"><ele>264.0</ele><time>2026-03-28T12:52:12.177Z</time></trkpt><trkpt lat="39.218681" lon="16.8933232"><ele>264.0</ele><time>2026-03-28T12:52:13.18Z</time></trkpt><trkpt lat="39.2187482" lon="16.8933739"><ele>264.0</ele><time>2026-03-28T12:52:14.195Z</time></trkpt><trkpt lat="39.2188162" lon="16.8934188"><ele>264.0</ele><time>2026-03-28T12:52:15.187Z</time></trkpt><trkpt lat="39.2188883" lon="16.8934733"><ele>264.0</ele><time>2026-03-28T12:52:16.172Z</time></trkpt><trkpt lat="39.2189676" lon="16.893542"><ele>264.0</ele><time>2026-03-28T12:52:17.181Z</time></trkpt><trkpt lat="39.2190483" lon="16.8936166"><ele>264.59999999999997</ele><time>2026-03-28T12:52:18.22Z</time></trkpt><trkpt lat="39.2191227" lon="16.8936861"><ele>265.2</ele><time>2026-03-28T12:52:19.18Z</time></trkpt><trkpt lat="39.2191978" lon="16.8937551"><ele>265.79999999999995</ele><time>2026-03-28T12:52:20.214Z</time></trkpt><trkpt lat="39.219275" lon="16.8938197"><ele>266.4</ele><time>2026-03-28T12:52:21.214Z</time></trkpt><trkpt lat="39.219356" lon="16.8938807"><ele>267.0</ele><time>2026-03-28T12:52:22.206Z</time></trkpt><trkpt lat="39.2194336" lon="16.8939446"><ele>267.0</ele><time>2026-03-28T12:52:23.189Z</time></trkpt><trkpt lat="39.2195103" lon="16.8940103"><ele>267.0</ele><time>2026-03-28T12:52:24.197Z</time></trkpt><trkpt lat="39.2195787" lon="16.894082"><ele>267.0</ele><time>2026-03-28T12:52:25.182Z</time></trkpt><trkpt lat="39.2196469" lon="16.8941632"><ele>267.0</ele><time>2026-03-28T12:52:26.213Z</time></trkpt><trkpt lat="39.2197253" lon="16.8942476"><ele>267.0</ele><time>2026-03-28T12:52:27.186Z</time></trkpt><trkpt lat="39.2198087" lon="16.8943336"><ele>269.6</ele><time>2026-03-28T12:52:28.187Z</time></trkpt><trkpt lat="39.2198934" lon="16.894417"><ele>272.2</ele><time>2026-03-28T12:52:29.201Z</time></trkpt><trkpt lat="39.2199738" lon="16.8944998"><ele>274.8</ele><time>2026-03-28T12:52:30.194Z</time></trkpt><trkpt lat="39.2200477" lon="16.894581"><ele>277.4</ele><time>2026-03-28T12:52:31.178Z</time></trkpt><trkpt lat="39.2201268" lon="16.8946653"><ele>280.0</ele><time>2026-03-28T12:52:32.181Z</time></trkpt><trkpt lat="39.2202105" lon="16.894756"><ele>280.0</ele><time>2026-03-28T12:52:33.198Z</time></trkpt><trkpt lat="39.2202925" lon="16.8948488"><ele>280.0</ele><time>2026-03-28T12:52:34.183Z</time></trkpt><trkpt lat="39.220375" lon="16.8949426"><ele>280.0</ele><time>2026-03-28T12:52:35.218Z</time></trkpt><trkpt lat="39.2204563" lon="16.8950351"><ele>280.0</ele><time>2026-03-28T12:52:36.21Z</time></trkpt><trkpt lat="39.220535" lon="16.8951394"><ele>280.0</ele><time>2026-03-28T12:52:37.188Z</time></trkpt><trkpt lat="39.2206082" lon="16.8952525"><ele>281.75</ele><time>2026-03-28T12:52:38.172Z</time></trkpt><trkpt lat="39.2206824" lon="16.895364"><ele>283.5</ele><time>2026-03-28T12:52:39.182Z</time></trkpt><trkpt lat="39.2207635" lon="16.8954679"><ele>285.25</ele><time>2026-03-28T12:52:40.183Z</time></trkpt><trkpt lat="39.2208524" lon="16.8955743"><ele>287.0</ele><time>2026-03-28T12:52:41.191Z</time></trkpt><trkpt lat="39.2209501" lon="16.8956776"><ele>287.0</ele><time>2026-03-28T12:52:42.196Z</time></trkpt><trkpt lat="39.2210533" lon="16.8957835"><ele>287.0</ele><time>2026-03-28T12:52:43.206Z</time></trkpt><trkpt lat="39.2211601" lon="16.8958856"><ele>287.0</ele><time>2026-03-28T12:52:44.176Z</time></trkpt><trkpt lat="39.221272" lon="16.8959853"><ele>287.0</ele><time>2026-03-28T12:52:45.181Z</time></trkpt><trkpt lat="39.2213828" lon="16.8960885"><ele>288.5</ele><time>2026-03-28T12:52:46.191Z</time></trkpt><trkpt lat="39.221496" lon="16.8961933"><ele>290.0</ele><time>2026-03-28T12:52:47.18Z</time></trkpt><trkpt lat="39.2216141" lon="16.8962977"><ele>291.5</ele><time>2026-03-28T12:52:48.186Z</time></trkpt><trkpt lat="39.2217326" lon="16.8963992"><ele>293.0</ele><time>2026-03-28T12:52:49.207Z</time></trkpt><trkpt lat="39.2218463" lon="16.896501"><ele>293.0</ele><time>2026-03-28T12:52:50.204Z</time></trkpt><trkpt lat="39.2219661" lon="16.8965937"><ele>293.0</ele><time>2026-03-28T12:52:51.185Z</time></trkpt><trkpt lat="39.2220869" lon="16.8966889"><ele>293.0</ele><time>2026-03-28T12:52:52.184Z</time></trkpt><trkpt lat="39.2222106" lon="16.8968012"><ele>293.0</ele><time>2026-03-28T12:52:53.184Z</time></trkpt><trkpt lat="39.2223524" lon="16.8969282"><ele>294.6666666666667</ele><time>2026-03-28T12:52:54.203Z</time></trkpt><trkpt lat="39.2225093" lon="16.8970623"><ele>296.3333333333333</ele><time>2026-03-28T12:52:55.201Z</time></trkpt><trkpt lat="39.2226823" lon="16.8971955"><ele>298.0</ele><time>2026-03-28T12:52:56.177Z</time></trkpt><trkpt lat="39.2228622" lon="16.8973235"><ele>298.0</ele><time>2026-03-28T12:52:57.193Z</time></trkpt><trkpt lat="39.2230315" lon="16.8974453"><ele>298.0</ele><time>2026-03-28T12:52:58.182Z</time></trkpt><trkpt lat="39.2232042" lon="16.8975748"><ele>298.0</ele><time>2026-03-28T12:52:59.194Z</time></trkpt><trkpt lat="39.2233754" lon="16.8977055"><ele>298.0</ele><time>2026-03-28T12:53:00.199Z</time></trkpt><trkpt lat="39.2235368" lon="16.8978401"><ele>298.0</ele><time>2026-03-28T12:53:01.179Z</time></trkpt><trkpt lat="39.223702" lon="16.8979827"><ele>298.0</ele><time>2026-03-28T12:53:02.177Z</time></trkpt><trkpt lat="39.2238669" lon="16.8981293"><ele>294.3333333333333</ele><time>2026-03-28T12:53:03.196Z</time></trkpt><trkpt lat="39.2240201" lon="16.8982646"><ele>290.6666666666667</ele><time>2026-03-28T12:53:04.172Z</time></trkpt><trkpt lat="39.2241622" lon="16.8983934"><ele>287.0</ele><time>2026-03-28T12:53:05.187Z</time></trkpt><trkpt lat="39.2243095" lon="16.8985155"><ele>287.0</ele><time>2026-03-28T12:53:06.186Z</time></trkpt><trkpt lat="39.2244631" lon="16.8986393"><ele>287.0</ele><time>2026-03-28T12:53:07.191Z</time></trkpt><trkpt lat="39.2246174" lon="16.8987709"><ele>287.0</ele><time>2026-03-28T12:53:08.197Z</time></trkpt><trkpt lat="39.224752" lon="16.8989056"><ele>286.5</ele><time>2026-03-28T12:53:09.185Z</time></trkpt><trkpt lat="39.2248627" lon="16.8990344"><ele>286.0</ele><time>2026-03-28T12:53:10.205Z</time></trkpt><trkpt lat="39.2249611" lon="16.8991567"><ele>285.5</ele><time>2026-03-28T12:53:11.189Z</time></trkpt><trkpt lat="39.2250828" lon="16.8992984"><ele>285.0</ele><time>2026-03-28T12:53:12.202Z</time></trkpt><trkpt lat="39.2252309" lon="16.8994573"><ele>285.0</ele><time>2026-03-28T12:53:13.194Z</time></trkpt><trkpt lat="39.2253881" lon="16.899623"><ele>285.0</ele><time>2026-03-28T12:53:14.177Z</time></trkpt><trkpt lat="39.2255477" lon="16.8997973"><ele>285.0</ele><time>2026-03-28T12:53:15.171Z</time></trkpt><trkpt lat="39.2257051" lon="16.8999686"><ele>287.0</ele><time>2026-03-28T12:53:16.172Z</time></trkpt><trkpt lat="39.2258597" lon="16.9001363"><ele>289.0</ele><time>2026-03-28T12:53:17.208Z</time></trkpt><trkpt lat="39.2260017" lon="16.9002901"><ele>291.0</ele><time>2026-03-28T12:53:18.189Z</time></trkpt><trkpt lat="39.2261401" lon="16.9004395"><ele>291.0</ele><time>2026-03-28T12:53:19.177Z</time></trkpt><trkpt lat="39.2262799" lon="16.9005885"><ele>291.0</ele><time>2026-03-28T12:53:20.201Z</time></trkpt><trkpt lat="39.2264117" lon="16.9007323"><ele>291.0</ele><time>2026-03-28T12:53:21.198Z</time></trkpt><trkpt lat="39.2265351" lon="16.900874"><ele>298.25</ele><time>2026-03-28T12:53:22.213Z</time></trkpt><trkpt lat="39.2266357" lon="16.9010214"><ele>305.5</ele><time>2026-03-28T12:53:23.216Z</time></trkpt><trkpt lat="39.2267199" lon="16.9011732"><ele>312.75</ele><time>2026-03-28T12:53:24.182Z</time></trkpt><trkpt lat="39.2267815" lon="16.9013364"><ele>320.0</ele><time>2026-03-28T12:53:25.173Z</time></trkpt><trkpt lat="39.2268182" lon="16.9015131"><ele>320.0</ele><time>2026-03-28T12:53:26.173Z</time></trkpt><trkpt lat="39.2268301" lon="16.9016938"><ele>320.0</ele><time>2026-03-28T12:53:27.188Z</time></trkpt><trkpt lat="39.226843" lon="16.9018758"><ele>320.0</ele><time>2026-03-28T12:53:28.174Z</time></trkpt><trkpt lat="39.2268763" lon="16.9020519"><ele>320.0</ele><time>2026-03-28T12:53:29.191Z</time></trkpt><trkpt lat="39.2269349" lon="16.9022136"><ele>320.25</ele><time>2026-03-28T12:53:30.193Z</time></trkpt><trkpt lat="39.2270157" lon="16.9023615"><ele>320.5</ele><time>2026-03-28T12:53:31.181Z</time></trkpt><trkpt lat="39.2271125" lon="16.9025029"><ele>320.75</ele><time>2026-03-28T12:53:32.179Z</time></trkpt><trkpt lat="39.2272188" lon="16.9026441"><ele>321.0</ele><time>2026-03-28T12:53:33.187Z</time></trkpt><trkpt lat="39.2273311" lon="16.9027832"><ele>325.3333333333333</ele><time>2026-03-28T12:53:34.175Z</time></trkpt><trkpt lat="39.2274471" lon="16.9029218"><ele>329.66666666666663</ele><time>2026-03-28T12:53:35.184Z</time></trkpt><trkpt lat="39.227574" lon="16.9030591"><ele>334.0</ele><time>2026-03-28T12:53:36.195Z</time></trkpt><trkpt lat="39.227706" lon="16.9031867"><ele>334.0</ele><time>2026-03-28T12:53:37.179Z</time></trkpt><trkpt lat="39.2278302" lon="16.9033069"><ele>334.0</ele><time>2026-03-28T12:53:38.186Z</time></trkpt><trkpt lat="39.227938" lon="16.9034182"><ele>334.0</ele><time>2026-03-28T12:53:39.18Z</time></trkpt><trkpt lat="39.2280374" lon="16.9035111"><ele>334.0</ele><time>2026-03-28T12:53:40.204Z</time></trkpt><trkpt lat="39.2281361" lon="16.9035766"><ele>334.75</ele><time>2026-03-28T12:53:41.179Z</time></trkpt><trkpt lat="39.2282436" lon="16.9036003"><ele>335.5</ele><time>2026-03-28T12:53:42.204Z</time></trkpt><trkpt lat="39.2283618" lon="16.9036016"><ele>336.25</ele><time>2026-03-28T12:53:43.194Z</time></trkpt><trkpt lat="39.2284916" lon="16.9036059"><ele>337.0</ele><time>2026-03-28T12:53:44.191Z</time></trkpt><trkpt lat="39.2286285" lon="16.9036233"><ele>337.0</ele><time>2026-03-28T12:53:45.188Z</time></trkpt><trkpt lat="39.2287675" lon="16.9036442"><ele>337.0</ele><time>2026-03-28T12:53:46.198Z</time></trkpt><trkpt lat="39.2289021" lon="16.9036752"><ele>337.0</ele><time>2026-03-28T12:53:47.173Z</time></trkpt><trkpt lat="39.2290315" lon="16.9037187"><ele>337.0</ele><time>2026-03-28T12:53:48.183Z</time></trkpt><trkpt lat="39.2291465" lon="16.9037691"><ele>337.8333333333333</ele><time>2026-03-28T12:53:49.182Z</time></trkpt><trkpt lat="39.2292476" lon="16.9037966"><ele>338.66666666666663</ele><time>2026-03-28T12:53:50.186Z</time></trkpt><trkpt lat="39.2293383" lon="16.90379"><ele>339.5</ele><time>2026-03-28T12:53:51.175Z</time></trkpt><trkpt lat="39.2294228" lon="16.9037625"><ele>340.3333333333333</ele><time>2026-03-28T12:53:52.197Z</time></trkpt><trkpt lat="39.2295003" lon="16.9037307"><ele>341.1666666666667</ele><time>2026-03-28T12:53:53.172Z</time></trkpt><trkpt lat="39.2295719" lon="16.9037078"><ele>342.0</ele><time>2026-03-28T12:53:54.174Z</time></trkpt><trkpt lat="39.2296385" lon="16.9036935"><ele>342.0</ele><time>2026-03-28T12:53:55.181Z</time></trkpt><trkpt lat="39.2297024" lon="16.9036866"><ele>342.0</ele><time>2026-03-28T12:53:56.182Z</time></trkpt><trkpt lat="39.2298098" lon="16.9036861"><ele>342.0</ele><time>2026-03-28T12:53:58.185Z</time></trkpt><trkpt lat="39.2298742" lon="16.9037168"><ele>342.0</ele><time>2026-03-28T12:54:00.182Z</time></trkpt><trkpt lat="39.229918" lon="16.9037775"><ele>342.0</ele><time>2026-03-28T12:54:02.187Z</time></trkpt><trkpt lat="39.2299045" lon="16.9036722"><ele>342.0</ele><time>2026-03-28T13:54:43.168Z</time></trkpt><trkpt lat="39.2298163" lon="16.903683"><ele>342.0</ele><time>2026-03-28T13:54:46.199Z</time></trkpt><trkpt lat="39.2297248" lon="16.9036822"><ele>342.0</ele><time>2026-03-28T13:54:49.195Z</time></trkpt><trkpt lat="39.2296485" lon="16.9036788"><ele>342.0</ele><time>2026-03-28T13:54:51.178Z</time></trkpt><trkpt lat="39.2295562" lon="16.9036876"><ele>342.0</ele><time>2026-03-28T13:54:53.211Z</time></trkpt><trkpt lat="39.2294866" lon="16.9037052"><ele>342.0</ele><time>2026-03-28T13:54:54.19Z</time></trkpt><trkpt lat="39.229415" lon="16.9037215"><ele>342.0</ele><time>2026-03-28T13:54:55.173Z</time></trkpt><trkpt lat="39.2293461" lon="16.9037387"><ele>342.0</ele><time>2026-03-28T13:54:56.208Z</time></trkpt><trkpt lat="39.2292701" lon="16.903753"><ele>342.0</ele><time>2026-03-28T13:54:57.195Z</time></trkpt><trkpt lat="39.2291996" lon="16.9037554"><ele>342.0</ele><time>2026-03-28T13:54:58.171Z</time></trkpt><trkpt lat="39.2291283" lon="16.9037391"><ele>342.0</ele><time>2026-03-28T13:54:59.195Z</time></trkpt><trkpt lat="39.2290547" lon="16.903709"><ele>342.0</ele><time>2026-03-28T13:55:00.177Z</time></trkpt><trkpt lat="39.2289722" lon="16.9036714"><ele>342.0</ele><time>2026-03-28T13:55:01.181Z</time></trkpt><trkpt lat="39.2288778" lon="16.903638"><ele>341.0</ele><time>2026-03-28T13:55:02.189Z</time></trkpt><trkpt lat="39.2287753" lon="16.9036161"><ele>340.0</ele><time>2026-03-28T13:55:03.181Z</time></trkpt><trkpt lat="39.2286673" lon="16.9036006"><ele>339.0</ele><time>2026-03-28T13:55:04.199Z</time></trkpt><trkpt lat="39.228568" lon="16.9035874"><ele>338.0</ele><time>2026-03-28T13:55:05.185Z</time></trkpt><trkpt lat="39.2284783" lon="16.9035767"><ele>337.0</ele><time>2026-03-28T13:55:06.185Z</time></trkpt><trkpt lat="39.2283983" lon="16.9035695"><ele>337.0</ele><time>2026-03-28T13:55:07.19Z</time></trkpt><trkpt lat="39.2283277" lon="16.9035664"><ele>337.0</ele><time>2026-03-28T13:55:08.197Z</time></trkpt><trkpt lat="39.2282123" lon="16.9035589"><ele>337.0</ele><time>2026-03-28T13:55:10.183Z</time></trkpt><trkpt lat="39.2280942" lon="16.9035244"><ele>337.0</ele><time>2026-03-28T13:55:12.201Z</time></trkpt><trkpt lat="39.2280267" lon="16.9034799"><ele>337.0</ele><time>2026-03-28T13:55:13.176Z</time></trkpt><trkpt lat="39.2279529" lon="16.903411"><ele>336.40000000000003</ele><time>2026-03-28T13:55:14.197Z</time></trkpt><trkpt lat="39.2278761" lon="16.9033345"><ele>335.8</ele><time>2026-03-28T13:55:15.178Z</time></trkpt><trkpt lat="39.227794" lon="16.9032549"><ele>335.2</ele><time>2026-03-28T13:55:16.18Z</time></trkpt><trkpt lat="39.2277056" lon="16.903172"><ele>334.6</ele><time>2026-03-28T13:55:17.187Z</time></trkpt><trkpt lat="39.2276142" lon="16.9030841"><ele>334.0</ele><time>2026-03-28T13:55:18.183Z</time></trkpt><trkpt lat="39.2275241" lon="16.9029936"><ele>334.0</ele><time>2026-03-28T13:55:19.185Z</time></trkpt><trkpt lat="39.2274349" lon="16.9029018"><ele>334.0</ele><time>2026-03-28T13:55:20.179Z</time></trkpt><trkpt lat="39.2273474" lon="16.9028047"><ele>334.0</ele><time>2026-03-28T13:55:21.183Z</time></trkpt><trkpt lat="39.227264" lon="16.9026974"><ele>334.0</ele><time>2026-03-28T13:55:22.208Z</time></trkpt><trkpt lat="39.2271866" lon="16.9025904"><ele>331.4</ele><time>2026-03-28T13:55:23.188Z</time></trkpt><trkpt lat="39.227116" lon="16.9024866"><ele>328.79999999999995</ele><time>2026-03-28T13:55:24.177Z</time></trkpt><trkpt lat="39.2270516" lon="16.9023853"><ele>326.20000000000005</ele><time>2026-03-28T13:55:25.189Z</time></trkpt><trkpt lat="39.2269967" lon="16.9022916"><ele>323.6</ele><time>2026-03-28T13:55:26.173Z</time></trkpt><trkpt lat="39.2269483" lon="16.9021977"><ele>321.0</ele><time>2026-03-28T13:55:27.197Z</time></trkpt><trkpt lat="39.2269066" lon="16.9021009"><ele>320.99999999999994</ele><time>2026-03-28T13:55:28.183Z</time></trkpt><trkpt lat="39.2268736" lon="16.9020032"><ele>321.0</ele><time>2026-03-28T13:55:29.171Z</time></trkpt><trkpt lat="39.2268503" lon="16.9019075"><ele>321.0</ele><time>2026-03-28T13:55:30.196Z</time></trkpt><trkpt lat="39.2268329" lon="16.9018257"><ele>321.0</ele><time>2026-03-28T13:55:31.185Z</time></trkpt><trkpt lat="39.226828" lon="16.9017292"><ele>321.0</ele><time>2026-03-28T13:55:33.203Z</time></trkpt><trkpt lat="39.2268387" lon="16.9016353"><ele>320.99999999999994</ele><time>2026-03-28T13:55:37.181Z</time></trkpt><trkpt lat="39.2267843" lon="16.9015763"><ele>321.0</ele><time>2026-03-28T13:58:15.173Z</time></trkpt><trkpt lat="39.2267003" lon="16.9016217"><ele>321.0</ele><time>2026-03-28T13:58:27.177Z</time></trkpt><trkpt lat="39.2266218" lon="16.901764"><ele>321.0</ele><time>2026-03-28T13:58:29.176Z</time></trkpt><trkpt lat="39.2265745" lon="16.9018449"><ele>321.0</ele><time>2026-03-28T13:58:30.176Z</time></trkpt><trkpt lat="39.2265225" lon="16.9019277"><ele>321.0</ele><time>2026-03-28T13:58:31.197Z</time></trkpt><trkpt lat="39.2264669" lon="16.9020148"><ele>321.0</ele><time>2026-03-28T13:58:32.175Z</time></trkpt><trkpt lat="39.2264082" lon="16.9021092"><ele>317.8333333333333</ele><time>2026-03-28T13:58:33.189Z</time></trkpt><trkpt lat="39.2263522" lon="16.9022037"><ele>314.6666666666667</ele><time>2026-03-28T13:58:34.197Z</time></trkpt><trkpt lat="39.2263096" lon="16.9022937"><ele>311.5</ele><time>2026-03-28T13:58:35.174Z</time></trkpt><trkpt lat="39.2262832" lon="16.9023809"><ele>308.33333333333337</ele><time>2026-03-28T13:58:36.18Z</time></trkpt><trkpt lat="39.2262704" lon="16.9024623"><ele>305.1666666666667</ele><time>2026-03-28T13:58:37.201Z</time></trkpt><trkpt lat="39.2262779" lon="16.9026289"><ele>302.0</ele><time>2026-03-28T13:58:39.174Z</time></trkpt><trkpt lat="39.226295" lon="16.9027248"><ele>302.0</ele><time>2026-03-28T13:58:40.187Z</time></trkpt><trkpt lat="39.2263178" lon="16.9028214"><ele>302.0</ele><time>2026-03-28T13:58:41.205Z</time></trkpt><trkpt lat="39.2263428" lon="16.9029186"><ele>302.0</ele><time>2026-03-28T13:58:42.185Z</time></trkpt><trkpt lat="39.2263648" lon="16.9030289"><ele>302.0</ele><time>2026-03-28T13:58:43.198Z</time></trkpt><trkpt lat="39.2263777" lon="16.9031537"><ele>302.0</ele><time>2026-03-28T13:58:44.182Z</time></trkpt><trkpt lat="39.2263913" lon="16.9032889"><ele>302.0</ele><time>2026-03-28T13:58:45.214Z</time></trkpt><trkpt lat="39.2264063" lon="16.9034224"><ele>302.5</ele><time>2026-03-28T13:58:46.176Z</time></trkpt><trkpt lat="39.2264124" lon="16.9035662"><ele>303.0</ele><time>2026-03-28T13:58:47.184Z</time></trkpt><trkpt lat="39.2264162" lon="16.9037162"><ele>303.5</ele><time>2026-03-28T13:58:48.188Z</time></trkpt><trkpt lat="39.2264326" lon="16.9038733"><ele>304.0</ele><time>2026-03-28T13:58:49.198Z</time></trkpt><trkpt lat="39.2264676" lon="16.9040251"><ele>305.75</ele><time>2026-03-28T13:58:50.178Z</time></trkpt><trkpt lat="39.2265097" lon="16.9041845"><ele>307.5</ele><time>2026-03-28T13:58:51.179Z</time></trkpt><trkpt lat="39.2265591" lon="16.9043389"><ele>309.25</ele><time>2026-03-28T13:58:52.175Z</time></trkpt><trkpt lat="39.22661" lon="16.9044858"><ele>311.0</ele><time>2026-03-28T13:58:53.175Z</time></trkpt><trkpt lat="39.2266592" lon="16.9046217"><ele>311.0</ele><time>2026-03-28T13:58:54.219Z</time></trkpt><trkpt lat="39.2267128" lon="16.9047415"><ele>311.0</ele><time>2026-03-28T13:58:55.18Z</time></trkpt><trkpt lat="39.2267679" lon="16.9048566"><ele>311.0</ele><time>2026-03-28T13:58:56.175Z</time></trkpt><trkpt lat="39.2268135" lon="16.9049678"><ele>311.0</ele><time>2026-03-28T13:58:57.191Z</time></trkpt><trkpt lat="39.2268475" lon="16.9050724"><ele>311.0</ele><time>2026-03-28T13:58:58.19Z</time></trkpt><trkpt lat="39.2268746" lon="16.905172"><ele>309.83333333333337</ele><time>2026-03-28T13:58:59.186Z</time></trkpt><trkpt lat="39.2269036" lon="16.905261"><ele>308.6666666666667</ele><time>2026-03-28T13:59:00.215Z</time></trkpt><trkpt lat="39.226932" lon="16.9053353"><ele>307.5</ele><time>2026-03-28T13:59:01.191Z</time></trkpt><trkpt lat="39.2270103" lon="16.9054436"><ele>306.3333333333333</ele><time>2026-03-28T13:59:03.222Z</time></trkpt><trkpt lat="39.2270564" lon="16.9055025"><ele>305.16666666666663</ele><time>2026-03-28T13:59:04.2Z</time></trkpt><trkpt lat="39.2271037" lon="16.9055672"><ele>304.0</ele><time>2026-03-28T13:59:05.21Z</time></trkpt><trkpt lat="39.2271515" lon="16.9056307"><ele>304.0</ele><time>2026-03-28T13:59:06.175Z</time></trkpt><trkpt lat="39.2271984" lon="16.9056977"><ele>304.0</ele><time>2026-03-28T13:59:07.174Z</time></trkpt><trkpt lat="39.2272407" lon="16.9057703"><ele>304.0</ele><time>2026-03-28T13:59:08.17Z</time></trkpt><trkpt lat="39.2272779" lon="16.9058433"><ele>304.0</ele><time>2026-03-28T13:59:09.178Z</time></trkpt><trkpt lat="39.2273119" lon="16.9059126"><ele>304.0</ele><time>2026-03-28T13:59:10.203Z</time></trkpt><trkpt lat="39.2273771" lon="16.9060326"><ele>304.0</ele><time>2026-03-28T13:59:12.176Z</time></trkpt><trkpt lat="39.2274491" lon="16.9061562"><ele>302.4</ele><time>2026-03-28T13:59:14.183Z</time></trkpt><trkpt lat="39.2275173" lon="16.906264"><ele>300.79999999999995</ele><time>2026-03-28T13:59:16.208Z</time></trkpt><trkpt lat="39.2276105" lon="16.9063692"><ele>299.20000000000005</ele><time>2026-03-28T13:59:18.181Z</time></trkpt><trkpt lat="39.2276579" lon="16.9064289"><ele>297.6</ele><time>2026-03-28T13:59:19.213Z</time></trkpt><trkpt lat="39.2277395" lon="16.9065356"><ele>296.0</ele><time>2026-03-28T13:59:21.183Z</time></trkpt><trkpt lat="39.2278244" lon="16.9066361"><ele>296.0</ele><time>2026-03-28T13:59:23.223Z</time></trkpt><trkpt lat="39.2278949" lon="16.9067258"><ele>296.0</ele><time>2026-03-28T13:59:25.219Z</time></trkpt><trkpt lat="39.2279601" lon="16.9068033"><ele>296.0</ele><time>2026-03-28T13:59:27.206Z</time></trkpt><trkpt lat="39.2280116" lon="16.9068549"><ele>296.0</ele><time>2026-03-28T13:59:29.222Z</time></trkpt><trkpt lat="39.2280792" lon="16.906932"><ele>296.0</ele><time>2026-03-28T13:59:32.174Z</time></trkpt><trkpt lat="39.228111" lon="16.9070375"><ele>296.0</ele><time>2026-03-28T13:59:35.181Z</time></trkpt><trkpt lat="39.2281013" lon="16.9071252"><ele>292.33333333333337</ele><time>2026-03-28T13:59:37.195Z</time></trkpt><trkpt lat="39.2280956" lon="16.907229"><ele>288.6666666666667</ele><time>2026-03-28T13:59:39.181Z</time></trkpt><trkpt lat="39.2280939" lon="16.9073259"><ele>285.0</ele><time>2026-03-28T13:59:41.19Z</time></trkpt><trkpt lat="39.2281003" lon="16.9074221"><ele>281.3333333333333</ele><time>2026-03-28T13:59:43.201Z</time></trkpt><trkpt lat="39.2281253" lon="16.9075259"><ele>277.66666666666663</ele><time>2026-03-28T13:59:46.185Z</time></trkpt><trkpt lat="39.2282141" lon="16.9075884"><ele>274.0</ele><time>2026-03-28T13:59:49.189Z</time></trkpt><trkpt lat="39.2282966" lon="16.9076574"><ele>274.0</ele><time>2026-03-28T13:59:51.202Z</time></trkpt><trkpt lat="39.2283927" lon="16.9077671"><ele>274.0</ele><time>2026-03-28T13:59:53.191Z</time></trkpt><trkpt lat="39.2284499" lon="16.9078206"><ele>274.0</ele><time>2026-03-28T13:59:54.193Z</time></trkpt><trkpt lat="39.2285068" lon="16.9078749"><ele>274.0</ele><time>2026-03-28T13:59:55.18Z</time></trkpt><trkpt lat="39.2285662" lon="16.9079299"><ele>274.0</ele><time>2026-03-28T13:59:56.204Z</time></trkpt><trkpt lat="39.228622" lon="16.9079789"><ele>274.0</ele><time>2026-03-28T13:59:57.215Z</time></trkpt><trkpt lat="39.2287026" lon="16.9080516"><ele>274.0</ele><time>2026-03-28T13:59:59.2Z</time></trkpt><trkpt lat="39.2287623" lon="16.9081125"><ele>274.0</ele><time>2026-03-28T14:00:01.226Z</time></trkpt><trkpt lat="39.2288297" lon="16.9081831"><ele>274.0</ele><time>2026-03-28T14:00:04.206Z</time></trkpt><trkpt lat="39.2288823" lon="16.9082352"><ele>274.0</ele><time>2026-03-28T14:00:11.184Z</time></trkpt><trkpt lat="39.2289457" lon="16.9082866"><ele>274.0</ele><time>2026-03-28T14:00:14.211Z</time></trkpt><trkpt lat="39.2290161" lon="16.9083448"><ele>274.0</ele><time>2026-03-28T14:00:16.221Z</time></trkpt><trkpt lat="39.2290879" lon="16.9084055"><ele>272.3333333333333</ele><time>2026-03-28T14:00:18.196Z</time></trkpt><trkpt lat="39.2291363" lon="16.9084863"><ele>270.66666666666663</ele><time>2026-03-28T14:00:20.181Z</time></trkpt><trkpt lat="39.22917" lon="16.9085718"><ele>269.0</ele><time>2026-03-28T14:00:22.2Z</time></trkpt><trkpt lat="39.2292106" lon="16.9086612"><ele>267.3333333333333</ele><time>2026-03-28T14:00:24.189Z</time></trkpt><trkpt lat="39.2292498" lon="16.9087418"><ele>265.6666666666667</ele><time>2026-03-28T14:00:26.216Z</time></trkpt><trkpt lat="39.2292901" lon="16.9088228"><ele>264.0</ele><time>2026-03-28T14:00:28.203Z</time></trkpt><trkpt lat="39.2293305" lon="16.9089211"><ele>264.0</ele><time>2026-03-28T14:00:30.175Z</time></trkpt><trkpt lat="39.229371" lon="16.9089974"><ele>264.0</ele><time>2026-03-28T14:00:33.183Z</time></trkpt><trkpt lat="39.2294364" lon="16.9090538"><ele>264.0</ele><time>2026-03-28T14:00:40.193Z</time></trkpt><trkpt lat="39.229508" lon="16.9090986"><ele>264.0</ele><time>2026-03-28T14:00:44.173Z</time></trkpt><trkpt lat="39.2295666" lon="16.9091361"><ele>264.0</ele><time>2026-03-28T14:00:47.185Z</time></trkpt><trkpt lat="39.2296278" lon="16.9091605"><ele>264.0</ele><time>2026-03-28T14:00:49.192Z</time></trkpt><trkpt lat="39.229697" lon="16.9092122"><ele>264.0</ele><time>2026-03-28T14:00:51.21Z</time></trkpt><trkpt lat="39.2297827" lon="16.909247"><ele>261.3333333333333</ele><time>2026-03-28T14:00:53.207Z</time></trkpt><trkpt lat="39.2298861" lon="16.9092662"><ele>258.6666666666667</ele><time>2026-03-28T14:00:55.209Z</time></trkpt><trkpt lat="39.2300152" lon="16.9092826"><ele>256.0</ele><time>2026-03-28T14:00:57.206Z</time></trkpt><trkpt lat="39.2300857" lon="16.9092961"><ele>253.33333333333334</ele><time>2026-03-28T14:00:58.175Z</time></trkpt><trkpt lat="39.2301566" lon="16.9093127"><ele>250.66666666666669</ele><time>2026-03-28T14:00:59.209Z</time></trkpt><trkpt lat="39.2302206" lon="16.9093285"><ele>248.0</ele><time>2026-03-28T14:01:00.174Z</time></trkpt><trkpt lat="39.2302857" lon="16.9093319"><ele>248.00000000000003</ele><time>2026-03-28T14:01:01.188Z</time></trkpt><trkpt lat="39.2303498" lon="16.9093057"><ele>248.0</ele><time>2026-03-28T14:01:02.179Z</time></trkpt><trkpt lat="39.2304406" lon="16.9092427"><ele>248.0</ele><time>2026-03-28T14:01:04.183Z</time></trkpt><trkpt lat="39.2305066" lon="16.9092068"><ele>248.0</ele><time>2026-03-28T14:01:06.173Z</time></trkpt><trkpt lat="39.2305898" lon="16.9091638"><ele>248.00000000000003</ele><time>2026-03-28T14:01:08.192Z</time></trkpt><trkpt lat="39.2306853" lon="16.9091348"><ele>248.0</ele><time>2026-03-28T14:01:10.176Z</time></trkpt><trkpt lat="39.2307475" lon="16.9091524"><ele>248.50000000000003</ele><time>2026-03-28T14:01:12.195Z</time></trkpt><trkpt lat="39.2308194" lon="16.90922"><ele>249.0</ele><time>2026-03-28T14:01:15.209Z</time></trkpt><trkpt lat="39.2308755" lon="16.9092881"><ele>249.5</ele><time>2026-03-28T14:01:17.206Z</time></trkpt><trkpt lat="39.2309322" lon="16.9093786"><ele>250.0</ele><time>2026-03-28T14:01:19.219Z</time></trkpt><trkpt lat="39.230981" lon="16.9094686"><ele>250.50000000000003</ele><time>2026-03-28T14:01:21.186Z</time></trkpt><trkpt lat="39.2310165" lon="16.9095371"><ele>251.0</ele><time>2026-03-28T14:01:23.182Z</time></trkpt><trkpt lat="39.2310653" lon="16.9096435"><ele>250.99999999999997</ele><time>2026-03-28T14:01:26.216Z</time></trkpt><trkpt lat="39.2311107" lon="16.9097161"><ele>251.0</ele><time>2026-03-28T14:01:28.182Z</time></trkpt><trkpt lat="39.2311589" lon="16.9097714"><ele>250.99999999999997</ele><time>2026-03-28T14:01:30.197Z</time></trkpt><trkpt lat="39.231226" lon="16.9098379"><ele>250.99999999999997</ele><time>2026-03-28T14:01:33.194Z</time></trkpt><trkpt lat="39.2312856" lon="16.9098918"><ele>251.0</ele><time>2026-03-28T14:01:37.2Z</time></trkpt><trkpt lat="39.2313371" lon="16.9099526"><ele>250.99999999999997</ele><time>2026-03-28T14:01:47.182Z</time></trkpt><trkpt lat="39.2313846" lon="16.9100181"><ele>250.99999999999997</ele><time>2026-03-28T14:01:50.189Z</time></trkpt><trkpt lat="39.2314413" lon="16.9101026"><ele>248.66666666666669</ele><time>2026-03-28T14:01:54.18Z</time></trkpt><trkpt lat="39.2314995" lon="16.9101781"><ele>246.33333333333334</ele><time>2026-03-28T14:01:57.175Z</time></trkpt><trkpt lat="39.2315574" lon="16.9102296"><ele>244.0</ele><time>2026-03-28T14:01:59.176Z</time></trkpt><trkpt lat="39.2316057" lon="16.9103243"><ele>241.66666666666669</ele><time>2026-03-28T14:02:02.18Z</time></trkpt><trkpt lat="39.231571" lon="16.9104242"><ele>239.33333333333334</ele><time>2026-03-28T14:02:05.181Z</time></trkpt><trkpt lat="39.2314812" lon="16.9104477"><ele>237.0</ele><time>2026-03-28T14:02:08.177Z</time></trkpt><trkpt lat="39.2313929" lon="16.9104483"><ele>236.99999999999997</ele><time>2026-03-28T14:02:11.183Z</time></trkpt><trkpt lat="39.2313362" lon="16.9104977"><ele>237.0</ele><time>2026-03-28T14:02:13.175Z</time></trkpt><trkpt lat="39.2313106" lon="16.9105814"><ele>236.99999999999997</ele><time>2026-03-28T14:02:15.182Z</time></trkpt><trkpt lat="39.231352" lon="16.9106466"><ele>236.99999999999997</ele><time>2026-03-28T14:02:17.183Z</time></trkpt><trkpt lat="39.2314271" lon="16.9106804"><ele>237.0</ele><time>2026-03-28T14:02:19.18Z</time></trkpt><trkpt lat="39.2315071" lon="16.910712"><ele>236.99999999999997</ele><time>2026-03-28T14:02:21.181Z</time></trkpt><trkpt lat="39.2315794" lon="16.910747"><ele>236.99999999999997</ele><time>2026-03-28T14:02:23.182Z</time></trkpt><trkpt lat="39.2316431" lon="16.9107694"><ele>237.0</ele><time>2026-03-28T14:02:25.18Z</time></trkpt><trkpt lat="39.2317006" lon="16.9108148"><ele>237.0</ele><time>2026-03-28T14:02:28.179Z</time></trkpt><trkpt lat="39.2317891" lon="16.9108455"><ele>237.0</ele><time>2026-03-28T14:02:31.178Z</time></trkpt><trkpt lat="39.2318699" lon="16.910876"><ele>237.0</ele><time>2026-03-28T14:02:33.184Z</time></trkpt><trkpt lat="39.2319561" lon="16.9109439"><ele>237.0</ele><time>2026-03-28T14:02:35.188Z</time></trkpt><trkpt lat="39.2320156" lon="16.9110048"><ele>237.0</ele><time>2026-03-28T14:02:37.186Z</time></trkpt><trkpt lat="39.2320935" lon="16.9110858"><ele>236.0</ele><time>2026-03-28T14:02:40.181Z</time></trkpt><trkpt lat="39.2321459" lon="16.9111497"><ele>235.0</ele><time>2026-03-28T14:02:42.203Z</time></trkpt><trkpt lat="39.2321986" lon="16.9112295"><ele>234.0</ele><time>2026-03-28T14:02:44.183Z</time></trkpt><trkpt lat="39.2322591" lon="16.9113384"><ele>233.0</ele><time>2026-03-28T14:02:46.175Z</time></trkpt><trkpt lat="39.2323038" lon="16.9114346"><ele>232.0</ele><time>2026-03-28T14:02:48.178Z</time></trkpt><trkpt lat="39.2323407" lon="16.9115086"><ele>231.0</ele><time>2026-03-28T14:02:50.184Z</time></trkpt><trkpt lat="39.2323773" lon="16.9115973"><ele>231.0</ele><time>2026-03-28T14:02:52.181Z</time></trkpt><trkpt lat="39.2323979" lon="16.9116793"><ele>231.0</ele><time>2026-03-28T14:02:54.18Z</time></trkpt><trkpt lat="39.2324489" lon="16.9117734"><ele>231.0</ele><time>2026-03-28T14:02:57.179Z</time></trkpt><trkpt lat="39.232491" lon="16.911849"><ele>231.0</ele><time>2026-03-28T14:02:59.179Z</time></trkpt><trkpt lat="39.2325267" lon="16.9119166"><ele>231.0</ele><time>2026-03-28T14:03:01.179Z</time></trkpt><trkpt lat="39.2325677" lon="16.9120102"><ele>231.0</ele><time>2026-03-28T14:03:04.182Z</time></trkpt><trkpt lat="39.2325981" lon="16.9121007"><ele>229.66666666666666</ele><time>2026-03-28T14:03:06.188Z</time></trkpt><trkpt lat="39.2326359" lon="16.9121897"><ele>228.33333333333331</ele><time>2026-03-28T14:03:09.19Z</time></trkpt><trkpt lat="39.2326628" lon="16.9122676"><ele>227.0</ele><time>2026-03-28T14:03:12.187Z</time></trkpt><trkpt lat="39.2327058" lon="16.9123367"><ele>225.66666666666666</ele><time>2026-03-28T14:03:14.181Z</time></trkpt><trkpt lat="39.2327225" lon="16.9124479"><ele>224.33333333333331</ele><time>2026-03-28T14:03:17.179Z</time></trkpt><trkpt lat="39.2327419" lon="16.9125295"><ele>223.0</ele><time>2026-03-28T14:03:19.178Z</time></trkpt><trkpt lat="39.2327675" lon="16.9126624"><ele>222.99999999999997</ele><time>2026-03-28T14:03:21.186Z</time></trkpt><trkpt lat="39.2327809" lon="16.9127728"><ele>223.0</ele><time>2026-03-28T14:03:23.186Z</time></trkpt><trkpt lat="39.2327939" lon="16.9128803"><ele>223.0</ele><time>2026-03-28T14:03:25.179Z</time></trkpt><trkpt lat="39.2328026" lon="16.9129929"><ele>223.0</ele><time>2026-03-28T14:03:27.182Z</time></trkpt><trkpt lat="39.232819" lon="16.9131109"><ele>222.99999999999997</ele><time>2026-03-28T14:03:29.185Z</time></trkpt><trkpt lat="39.2328325" lon="16.9132319"><ele>223.0</ele><time>2026-03-28T14:03:31.177Z</time></trkpt><trkpt lat="39.2328368" lon="16.9133421"><ele>221.60000000000002</ele><time>2026-03-28T14:03:33.184Z</time></trkpt><trkpt lat="39.2328677" lon="16.9134711"><ele>220.20000000000002</ele><time>2026-03-28T14:03:35.193Z</time></trkpt><trkpt lat="39.2329247" lon="16.9136135"><ele>218.8</ele><time>2026-03-28T14:03:37.191Z</time></trkpt><trkpt lat="39.2329563" lon="16.9136855"><ele>217.4</ele><time>2026-03-28T14:03:38.189Z</time></trkpt><trkpt lat="39.2329865" lon="16.913835"><ele>216.0</ele><time>2026-03-28T14:03:40.192Z</time></trkpt><trkpt lat="39.2329639" lon="16.913947"><ele>216.0</ele><time>2026-03-28T14:03:42.179Z</time></trkpt><trkpt lat="39.2329321" lon="16.9140657"><ele>216.00000000000003</ele><time>2026-03-28T14:03:44.188Z</time></trkpt><trkpt lat="39.2329463" lon="16.9141946"><ele>216.00000000000003</ele><time>2026-03-28T14:03:46.187Z</time></trkpt><trkpt lat="39.232973" lon="16.9142916"><ele>216.0</ele><time>2026-03-28T14:03:48.186Z</time></trkpt><trkpt lat="39.2330342" lon="16.9143967"><ele>216.0</ele><time>2026-03-28T14:03:50.182Z</time></trkpt><trkpt lat="39.2330916" lon="16.9144979"><ele>216.16666666666666</ele><time>2026-03-28T14:03:52.182Z</time></trkpt><trkpt lat="39.2331748" lon="16.9145325"><ele>216.33333333333331</ele><time>2026-03-28T14:03:54.193Z</time></trkpt><trkpt lat="39.2332601" lon="16.9146124"><ele>216.5</ele><time>2026-03-28T14:03:56.187Z</time></trkpt><trkpt lat="39.2333123" lon="16.9147022"><ele>216.66666666666666</ele><time>2026-03-28T14:03:58.19Z</time></trkpt><trkpt lat="39.2333698" lon="16.9147744"><ele>216.83333333333331</ele><time>2026-03-28T14:04:17.181Z</time></trkpt><trkpt lat="39.233424" lon="16.9148592"><ele>217.0</ele><time>2026-03-28T14:04:20.179Z</time></trkpt><trkpt lat="39.2334623" lon="16.9149458"><ele>217.0</ele><time>2026-03-28T14:04:23.183Z</time></trkpt><trkpt lat="39.2334959" lon="16.9150262"><ele>217.0</ele><time>2026-03-28T14:04:26.186Z</time></trkpt><trkpt lat="39.2335394" lon="16.9150931"><ele>217.0</ele><time>2026-03-28T14:04:30.182Z</time></trkpt><trkpt lat="39.233566" lon="16.9151717"><ele>217.0</ele><time>2026-03-28T14:04:40.185Z</time></trkpt><trkpt lat="39.2335995" lon="16.9152563"><ele>217.0</ele><time>2026-03-28T14:04:44.183Z</time></trkpt><trkpt lat="39.2336045" lon="16.915352"><ele>217.0</ele><time>2026-03-28T14:04:47.178Z</time></trkpt><trkpt lat="39.2335885" lon="16.9154509"><ele>217.0</ele><time>2026-03-28T14:04:50.184Z</time></trkpt><trkpt lat="39.233583" lon="16.9155359"><ele>214.66666666666666</ele><time>2026-03-28T14:04:52.181Z</time></trkpt><trkpt lat="39.2335827" lon="16.9156394"><ele>212.33333333333331</ele><time>2026-03-28T14:04:55.183Z</time></trkpt><trkpt lat="39.2335293" lon="16.9156946"><ele>210.0</ele><time>2026-03-28T14:04:59.178Z</time></trkpt><trkpt lat="39.233488" lon="16.9157632"><ele>207.66666666666669</ele><time>2026-03-28T14:05:02.18Z</time></trkpt><trkpt lat="39.2334498" lon="16.915851"><ele>205.33333333333334</ele><time>2026-03-28T14:05:05.178Z</time></trkpt><trkpt lat="39.2334551" lon="16.9159735"><ele>203.0</ele><time>2026-03-28T14:05:08.186Z</time></trkpt><trkpt lat="39.2335125" lon="16.9160751"><ele>201.33333333333334</ele><time>2026-03-28T14:05:10.185Z</time></trkpt><trkpt lat="39.233589" lon="16.9161732"><ele>199.66666666666669</ele><time>2026-03-28T14:05:12.184Z</time></trkpt><trkpt lat="39.2336283" lon="16.9162378"><ele>198.0</ele><time>2026-03-28T14:05:14.183Z</time></trkpt><trkpt lat="39.2336699" lon="16.9163093"><ele>196.33333333333331</ele><time>2026-03-28T14:05:16.177Z</time></trkpt><trkpt lat="39.2337187" lon="16.9163789"><ele>194.66666666666666</ele><time>2026-03-28T14:05:18.181Z</time></trkpt><trkpt lat="39.2337724" lon="16.9164267"><ele>193.0</ele><time>2026-03-28T14:05:20.183Z</time></trkpt><trkpt lat="39.2338325" lon="16.9164909"><ele>192.99999999999997</ele><time>2026-03-28T14:05:22.186Z</time></trkpt><trkpt lat="39.2338756" lon="16.9165846"><ele>193.0</ele><time>2026-03-28T14:05:24.187Z</time></trkpt><trkpt lat="39.2339096" lon="16.9166608"><ele>193.0</ele><time>2026-03-28T14:05:26.189Z</time></trkpt><trkpt lat="39.2339517" lon="16.916744"><ele>193.0</ele><time>2026-03-28T14:05:29.187Z</time></trkpt><trkpt lat="39.2340132" lon="16.9168141"><ele>192.99999999999997</ele><time>2026-03-28T14:05:33.188Z</time></trkpt><trkpt lat="39.2340552" lon="16.916897"><ele>193.0</ele><time>2026-03-28T14:05:35.191Z</time></trkpt><trkpt lat="39.2340978" lon="16.9169645"><ele>191.33333333333331</ele><time>2026-03-28T14:05:36.181Z</time></trkpt><trkpt lat="39.2341541" lon="16.9170317"><ele>189.66666666666666</ele><time>2026-03-28T14:05:37.186Z</time></trkpt><trkpt lat="39.2342143" lon="16.9170987"><ele>188.0</ele><time>2026-03-28T14:05:38.189Z</time></trkpt><trkpt lat="39.2342706" lon="16.9171712"><ele>186.33333333333331</ele><time>2026-03-28T14:05:39.218Z</time></trkpt><trkpt lat="39.234316" lon="16.9172495"><ele>184.66666666666666</ele><time>2026-03-28T14:05:40.183Z</time></trkpt><trkpt lat="39.2343507" lon="16.9173381"><ele>183.0</ele><time>2026-03-28T14:05:41.185Z</time></trkpt><trkpt lat="39.2343879" lon="16.9174308"><ele>183.0</ele><time>2026-03-28T14:05:42.188Z</time></trkpt><trkpt lat="39.2344338" lon="16.9175264"><ele>183.0</ele><time>2026-03-28T14:05:43.186Z</time></trkpt><trkpt lat="39.2344819" lon="16.9176254"><ele>183.0</ele><time>2026-03-28T14:05:44.192Z</time></trkpt><trkpt lat="39.2345255" lon="16.9177286"><ele>183.0</ele><time>2026-03-28T14:05:45.189Z</time></trkpt><trkpt lat="39.2345601" lon="16.9178321"><ele>183.0</ele><time>2026-03-28T14:05:46.191Z</time></trkpt><trkpt lat="39.2345809" lon="16.9179331"><ele>183.0</ele><time>2026-03-28T14:05:47.193Z</time></trkpt><trkpt lat="39.2346039" lon="16.9180269"><ele>183.8</ele><time>2026-03-28T14:05:48.18Z</time></trkpt><trkpt lat="39.234642" lon="16.9181147"><ele>184.60000000000002</ele><time>2026-03-28T14:05:49.182Z</time></trkpt><trkpt lat="39.2346966" lon="16.9182082"><ele>185.39999999999998</ele><time>2026-03-28T14:05:50.19Z</time></trkpt><trkpt lat="39.234758" lon="16.9183044"><ele>186.2</ele><time>2026-03-28T14:05:51.179Z</time></trkpt><trkpt lat="39.2348225" lon="16.9183994"><ele>187.0</ele><time>2026-03-28T14:05:52.187Z</time></trkpt><trkpt lat="39.2348871" lon="16.9184947"><ele>185.16666666666669</ele><time>2026-03-28T14:05:53.184Z</time></trkpt><trkpt lat="39.2349467" lon="16.9185849"><ele>183.33333333333334</ele><time>2026-03-28T14:05:54.184Z</time></trkpt><trkpt lat="39.2349942" lon="16.9186639"><ele>181.5</ele><time>2026-03-28T14:05:55.187Z</time></trkpt><trkpt lat="39.2350309" lon="16.9187302"><ele>179.66666666666666</ele><time>2026-03-28T14:05:56.187Z</time></trkpt><trkpt lat="39.2350856" lon="16.9188249"><ele>177.83333333333331</ele><time>2026-03-28T14:05:58.196Z</time></trkpt><trkpt lat="39.2351329" lon="16.9188955"><ele>176.0</ele><time>2026-03-28T14:06:00.191Z</time></trkpt><trkpt lat="39.2351842" lon="16.9189533"><ele>176.0</ele><time>2026-03-28T14:06:03.178Z</time></trkpt><trkpt lat="39.2352285" lon="16.9190609"><ele>176.0</ele><time>2026-03-28T14:06:09.184Z</time></trkpt><trkpt lat="39.2352773" lon="16.919151"><ele>176.0</ele><time>2026-03-28T14:06:11.191Z</time></trkpt><trkpt lat="39.2353212" lon="16.9192286"><ele>176.0</ele><time>2026-03-28T14:06:13.183Z</time></trkpt><trkpt lat="39.2353641" lon="16.9193126"><ele>176.0</ele><time>2026-03-28T14:06:15.182Z</time></trkpt><trkpt lat="39.2354179" lon="16.9193963"><ele>176.0</ele><time>2026-03-28T14:06:17.187Z</time></trkpt><trkpt lat="39.2353933" lon="16.9195096"><ele>174.83333333333331</ele><time>2026-03-28T14:06:20.184Z</time></trkpt><trkpt lat="39.2353299" lon="16.9195584"><ele>173.66666666666666</ele><time>2026-03-28T14:06:22.185Z</time></trkpt><trkpt lat="39.2352683" lon="16.9196228"><ele>172.5</ele><time>2026-03-28T14:06:24.199Z</time></trkpt><trkpt lat="39.2352213" lon="16.9196867"><ele>171.33333333333334</ele><time>2026-03-28T14:06:26.224Z</time></trkpt><trkpt lat="39.2351854" lon="16.9197643"><ele>170.16666666666669</ele><time>2026-03-28T14:06:28.189Z</time></trkpt><trkpt lat="39.2351515" lon="16.9198634"><ele>169.0</ele><time>2026-03-28T14:06:30.182Z</time></trkpt><trkpt lat="39.235096" lon="16.9199407"><ele>169.0</ele><time>2026-03-28T14:06:32.181Z</time></trkpt><trkpt lat="39.2350238" lon="16.9200259"><ele>169.0</ele><time>2026-03-28T14:06:34.182Z</time></trkpt><trkpt lat="39.2349636" lon="16.9201291"><ele>169.0</ele><time>2026-03-28T14:06:36.187Z</time></trkpt><trkpt lat="39.2349108" lon="16.9202426"><ele>169.0</ele><time>2026-03-28T14:06:38.203Z</time></trkpt><trkpt lat="39.2348766" lon="16.9203174"><ele>169.0</ele><time>2026-03-28T14:06:39.185Z</time></trkpt><trkpt lat="39.2348369" lon="16.9204027"><ele>169.0</ele><time>2026-03-28T14:06:40.202Z</time></trkpt><trkpt lat="39.2347975" lon="16.9204793"><ele>166.83333333333334</ele><time>2026-03-28T14:06:41.178Z</time></trkpt><trkpt lat="39.2347612" lon="16.9205527"><ele>164.66666666666669</ele><time>2026-03-28T14:06:42.185Z</time></trkpt><trkpt lat="39.2346997" lon="16.9206801"><ele>162.5</ele><time>2026-03-28T14:06:44.183Z</time></trkpt><trkpt lat="39.2346502" lon="16.9207613"><ele>160.33333333333334</ele><time>2026-03-28T14:06:46.176Z</time></trkpt><trkpt lat="39.2345778" lon="16.9208287"><ele>158.16666666666666</ele><time>2026-03-28T14:06:49.183Z</time></trkpt><trkpt lat="39.2345021" lon="16.9208937"><ele>156.0</ele><time>2026-03-28T14:06:52.193Z</time></trkpt><trkpt lat="39.2344493" lon="16.9209674"><ele>155.66666666666666</ele><time>2026-03-28T14:06:56.182Z</time></trkpt><trkpt lat="39.2344165" lon="16.9210375"><ele>155.33333333333334</ele><time>2026-03-28T14:07:04.194Z</time></trkpt><trkpt lat="39.2343835" lon="16.921144"><ele>155.0</ele><time>2026-03-28T14:07:07.185Z</time></trkpt><trkpt lat="39.2343475" lon="16.9212454"><ele>154.66666666666669</ele><time>2026-03-28T14:07:09.185Z</time></trkpt><trkpt lat="39.2343256" lon="16.9213604"><ele>154.33333333333334</ele><time>2026-03-28T14:07:11.197Z</time></trkpt><trkpt lat="39.2343301" lon="16.9215052"><ele>154.0</ele><time>2026-03-28T14:07:13.188Z</time></trkpt><trkpt lat="39.2343123" lon="16.9216486"><ele>155.2</ele><time>2026-03-28T14:07:15.182Z</time></trkpt><trkpt lat="39.2342481" lon="16.9217712"><ele>156.4</ele><time>2026-03-28T14:07:17.181Z</time></trkpt><trkpt lat="39.2342122" lon="16.9218417"><ele>157.6</ele><time>2026-03-28T14:07:18.183Z</time></trkpt><trkpt lat="39.2341852" lon="16.9219193"><ele>158.8</ele><time>2026-03-28T14:07:19.195Z</time></trkpt><trkpt lat="39.2341284" lon="16.9220594"><ele>160.0</ele><time>2026-03-28T14:07:21.184Z</time></trkpt><trkpt lat="39.2340288" lon="16.9221619"><ele>160.0</ele><time>2026-03-28T14:07:23.184Z</time></trkpt><trkpt lat="39.2339744" lon="16.9222086"><ele>160.0</ele><time>2026-03-28T14:07:24.189Z</time></trkpt><trkpt lat="39.2339304" lon="16.9222709"><ele>160.0</ele><time>2026-03-28T14:07:25.18Z</time></trkpt><trkpt lat="39.2338595" lon="16.9223873"><ele>160.0</ele><time>2026-03-28T14:07:27.189Z</time></trkpt><trkpt lat="39.2337759" lon="16.9224852"><ele>160.0</ele><time>2026-03-28T14:07:29.184Z</time></trkpt><trkpt lat="39.2337117" lon="16.9226"><ele>159.66666666666669</ele><time>2026-03-28T14:07:31.186Z</time></trkpt><trkpt lat="39.2336532" lon="16.9226721"><ele>159.33333333333334</ele><time>2026-03-28T14:07:33.188Z</time></trkpt><trkpt lat="39.2335845" lon="16.9227025"><ele>159.0</ele><time>2026-03-28T14:07:35.19Z</time></trkpt><trkpt lat="39.2335075" lon="16.9227309"><ele>158.66666666666666</ele><time>2026-03-28T14:07:37.177Z</time></trkpt><trkpt lat="39.2334309" lon="16.9227865"><ele>158.33333333333331</ele><time>2026-03-28T14:07:39.183Z</time></trkpt><trkpt lat="39.2333685" lon="16.9228452"><ele>158.0</ele><time>2026-03-28T14:07:41.183Z</time></trkpt><trkpt lat="39.2333151" lon="16.9229061"><ele>158.0</ele><time>2026-03-28T14:07:43.181Z</time></trkpt><trkpt lat="39.233265" lon="16.9229703"><ele>158.0</ele><time>2026-03-28T14:07:45.213Z</time></trkpt><trkpt lat="39.2332173" lon="16.9230312"><ele>158.0</ele><time>2026-03-28T14:07:47.179Z</time></trkpt><trkpt lat="39.2331591" lon="16.9231044"><ele>158.0</ele><time>2026-03-28T14:07:49.189Z</time></trkpt><trkpt lat="39.2330918" lon="16.9231776"><ele>158.0</ele><time>2026-03-28T14:07:51.185Z</time></trkpt><trkpt lat="39.2330258" lon="16.9232476"><ele>158.0</ele><time>2026-03-28T14:07:53.181Z</time></trkpt><trkpt lat="39.2329612" lon="16.9233141"><ele>155.5</ele><time>2026-03-28T14:07:55.19Z</time></trkpt><trkpt lat="39.2329226" lon="16.9233822"><ele>153.0</ele><time>2026-03-28T14:07:57.176Z</time></trkpt><trkpt lat="39.2328901" lon="16.9234844"><ele>150.5</ele><time>2026-03-28T14:08:00.182Z</time></trkpt><trkpt lat="39.2328688" lon="16.9235851"><ele>148.0</ele><time>2026-03-28T14:08:05.188Z</time></trkpt><trkpt lat="39.232849" lon="16.9236938"><ele>145.5</ele><time>2026-03-28T14:08:09.189Z</time></trkpt><trkpt lat="39.2328445" lon="16.9238076"><ele>143.0</ele><time>2026-03-28T14:08:12.185Z</time></trkpt><trkpt lat="39.2328373" lon="16.9239095"><ele>141.57142857142856</ele><time>2026-03-28T14:08:15.182Z</time></trkpt><trkpt lat="39.2328246" lon="16.923992"><ele>140.14285714285714</ele><time>2026-03-28T14:08:18.189Z</time></trkpt><trkpt lat="39.2328165" lon="16.9240878"><ele>138.71428571428572</ele><time>2026-03-28T14:08:22.196Z</time></trkpt><trkpt lat="39.2327907" lon="16.9241724"><ele>137.28571428571428</ele><time>2026-03-28T14:08:29.18Z</time></trkpt><trkpt lat="39.2327469" lon="16.9242382"><ele>135.85714285714286</ele><time>2026-03-28T14:08:45.181Z</time></trkpt><trkpt lat="39.2326974" lon="16.9243147"><ele>134.42857142857142</ele><time>2026-03-28T14:08:49.176Z</time></trkpt><trkpt lat="39.2326713" lon="16.9243899"><ele>133.0</ele><time>2026-03-28T14:08:59.188Z</time></trkpt><trkpt lat="39.2326591" lon="16.9244761"><ele>131.16666666666669</ele><time>2026-03-28T14:09:06.183Z</time></trkpt><trkpt lat="39.2326622" lon="16.9245651"><ele>129.33333333333334</ele><time>2026-03-28T14:09:13.186Z</time></trkpt><trkpt lat="39.2326665" lon="16.9246557"><ele>127.5</ele><time>2026-03-28T14:09:17.187Z</time></trkpt><trkpt lat="39.2326785" lon="16.9247364"><ele>125.66666666666666</ele><time>2026-03-28T14:09:20.175Z</time></trkpt><trkpt lat="39.2326823" lon="16.9248471"><ele>123.83333333333333</ele><time>2026-03-28T14:09:24.178Z</time></trkpt><trkpt lat="39.2326985" lon="16.9249582"><ele>122.0</ele><time>2026-03-28T14:09:27.192Z</time></trkpt><trkpt lat="39.232703" lon="16.9250726"><ele>121.57142857142856</ele><time>2026-03-28T14:09:30.181Z</time></trkpt><trkpt lat="39.2327036" lon="16.9251573"><ele>121.14285714285714</ele><time>2026-03-28T14:09:32.181Z</time></trkpt><trkpt lat="39.2327006" lon="16.9252414"><ele>120.71428571428571</ele><time>2026-03-28T14:09:34.184Z</time></trkpt><trkpt lat="39.2327018" lon="16.9253235"><ele>120.28571428571428</ele><time>2026-03-28T14:09:36.186Z</time></trkpt><trkpt lat="39.2327052" lon="16.9254251"><ele>119.85714285714286</ele><time>2026-03-28T14:09:39.182Z</time></trkpt><trkpt lat="39.232683" lon="16.9255024"><ele>119.42857142857143</ele><time>2026-03-28T14:09:43.189Z</time></trkpt><trkpt lat="39.2326309" lon="16.9255815"><ele>119.0</ele><time>2026-03-28T14:09:45.19Z</time></trkpt><trkpt lat="39.2325677" lon="16.925669"><ele>118.99999999999999</ele><time>2026-03-28T14:09:47.184Z</time></trkpt><trkpt lat="39.2325108" lon="16.9257631"><ele>119.0</ele><time>2026-03-28T14:09:49.185Z</time></trkpt><trkpt lat="39.2324746" lon="16.9258507"><ele>119.0</ele><time>2026-03-28T14:09:51.19Z</time></trkpt><trkpt lat="39.2324688" lon="16.9259392"><ele>119.0</ele><time>2026-03-28T14:09:53.188Z</time></trkpt><trkpt lat="39.2324763" lon="16.9260595"><ele>118.99999999999999</ele><time>2026-03-28T14:09:56.199Z</time></trkpt><trkpt lat="39.2324792" lon="16.9261654"><ele>119.0</ele><time>2026-03-28T14:09:59.189Z</time></trkpt><trkpt lat="39.2324768" lon="16.926276"><ele>118.0</ele><time>2026-03-28T14:10:02.18Z</time></trkpt><trkpt lat="39.2324728" lon="16.9263663"><ele>117.0</ele><time>2026-03-28T14:10:04.178Z</time></trkpt><trkpt lat="39.2324655" lon="16.9264502"><ele>116.0</ele><time>2026-03-28T14:10:06.177Z</time></trkpt><trkpt lat="39.232448" lon="16.9265634"><ele>115.0</ele><time>2026-03-28T14:10:09.181Z</time></trkpt><trkpt lat="39.2324252" lon="16.9266569"><ele>114.0</ele><time>2026-03-28T14:10:12.203Z</time></trkpt><trkpt lat="39.2324132" lon="16.9267511"><ele>113.0</ele><time>2026-03-28T14:10:15.189Z</time></trkpt><trkpt lat="39.2323978" lon="16.9268442"><ele>112.0</ele><time>2026-03-28T14:10:18.186Z</time></trkpt><trkpt lat="39.232373" lon="16.9269473"><ele>111.33333333333334</ele><time>2026-03-28T14:10:21.18Z</time></trkpt><trkpt lat="39.2323447" lon="16.9270589"><ele>110.66666666666667</ele><time>2026-03-28T14:10:24.18Z</time></trkpt><trkpt lat="39.2323275" lon="16.9271462"><ele>110.0</ele><time>2026-03-28T14:10:27.185Z</time></trkpt><trkpt lat="39.2323184" lon="16.9272616"><ele>109.33333333333334</ele><time>2026-03-28T14:10:30.181Z</time></trkpt><trkpt lat="39.2323067" lon="16.9273545"><ele>108.66666666666667</ele><time>2026-03-28T14:10:32.186Z</time></trkpt><trkpt lat="39.2323035" lon="16.9274361"><ele>108.0</ele><time>2026-03-28T14:10:34.185Z</time></trkpt><trkpt lat="39.2323279" lon="16.9275172"><ele>108.33333333333333</ele><time>2026-03-28T14:10:36.183Z</time></trkpt><trkpt lat="39.2323852" lon="16.9275921"><ele>108.66666666666666</ele><time>2026-03-28T14:10:38.186Z</time></trkpt><trkpt lat="39.232412" lon="16.9276709"><ele>109.0</ele><time>2026-03-28T14:10:40.187Z</time></trkpt><trkpt lat="39.2323446" lon="16.9277092"><ele>109.33333333333333</ele><time>2026-03-28T14:10:43.175Z</time></trkpt><trkpt lat="39.2322632" lon="16.9277005"><ele>109.66666666666666</ele><time>2026-03-28T14:10:46.183Z</time></trkpt><trkpt lat="39.232177" lon="16.9276731"><ele>110.0</ele><time>2026-03-28T14:10:49.183Z</time></trkpt><trkpt lat="39.23211" lon="16.9276805"><ele>109.99999999999999</ele><time>2026-03-28T14:10:52.177Z</time></trkpt><trkpt lat="39.2320678" lon="16.9277686"><ele>110.0</ele><time>2026-03-28T14:11:03.182Z</time></trkpt><trkpt lat="39.2319992" lon="16.927811"><ele>110.0</ele><time>2026-03-28T14:11:07.184Z</time></trkpt><trkpt lat="39.2319309" lon="16.9277781"><ele>110.0</ele><time>2026-03-28T14:11:11.182Z</time></trkpt><trkpt lat="39.2318434" lon="16.9277613"><ele>109.99999999999999</ele><time>2026-03-28T14:11:16.182Z</time></trkpt><trkpt lat="39.2317702" lon="16.9277256"><ele>110.0</ele><time>2026-03-28T14:11:19.187Z</time></trkpt><trkpt lat="39.2316949" lon="16.9277201"><ele>109.99999999999999</ele><time>2026-03-28T14:11:22.185Z</time></trkpt><trkpt lat="39.2316192" lon="16.9276882"><ele>110.0</ele><time>2026-03-28T14:11:26.188Z</time></trkpt><trkpt lat="39.2315488" lon="16.9276474"><ele>110.0</ele><time>2026-03-28T14:11:29.181Z</time></trkpt><trkpt lat="39.2314813" lon="16.9276146"><ele>110.0</ele><time>2026-03-28T14:11:32.182Z</time></trkpt><trkpt lat="39.2314083" lon="16.9275875"><ele>109.99999999999999</ele><time>2026-03-28T14:11:35.184Z</time></trkpt><trkpt lat="39.2313202" lon="16.927553"><ele>110.0</ele><time>2026-03-28T14:11:38.182Z</time></trkpt><trkpt lat="39.2312482" lon="16.9275423"><ele>108.66666666666666</ele><time>2026-03-28T14:11:40.188Z</time></trkpt><trkpt lat="39.2311639" lon="16.927592"><ele>107.33333333333333</ele><time>2026-03-28T14:11:47.189Z</time></trkpt><trkpt lat="39.2310941" lon="16.927732"><ele>106.0</ele><time>2026-03-28T14:11:49.182Z</time></trkpt><trkpt lat="39.2310499" lon="16.9278027"><ele>104.66666666666666</ele><time>2026-03-28T14:11:50.19Z</time></trkpt><trkpt lat="39.2310004" lon="16.9278665"><ele>103.33333333333333</ele><time>2026-03-28T14:11:51.193Z</time></trkpt><trkpt lat="39.2309528" lon="16.9279247"><ele>102.0</ele><time>2026-03-28T14:11:52.2Z</time></trkpt><trkpt lat="39.2309174" lon="16.927996"><ele>102.0</ele><time>2026-03-28T14:11:53.178Z</time></trkpt><trkpt lat="39.2308652" lon="16.9281428"><ele>102.0</ele><time>2026-03-28T14:11:55.178Z</time></trkpt><trkpt lat="39.230844" lon="16.9282215"><ele>102.0</ele><time>2026-03-28T14:11:56.18Z</time></trkpt><trkpt lat="39.230843" lon="16.9283182"><ele>102.0</ele><time>2026-03-28T14:11:57.182Z</time></trkpt><trkpt lat="39.2308529" lon="16.9284218"><ele>102.0</ele><time>2026-03-28T14:11:58.19Z</time></trkpt><trkpt lat="39.230867" lon="16.9285215"><ele>102.0</ele><time>2026-03-28T14:11:59.186Z</time></trkpt><trkpt lat="39.2308934" lon="16.9286172"><ele>102.83333333333333</ele><time>2026-03-28T14:12:00.187Z</time></trkpt><trkpt lat="39.2309276" lon="16.9287091"><ele>103.66666666666666</ele><time>2026-03-28T14:12:01.184Z</time></trkpt><trkpt lat="39.2309485" lon="16.9288029"><ele>104.5</ele><time>2026-03-28T14:12:02.178Z</time></trkpt><trkpt lat="39.2309502" lon="16.9288992"><ele>105.33333333333333</ele><time>2026-03-28T14:12:03.21Z</time></trkpt><trkpt lat="39.230942" lon="16.9289972"><ele>106.16666666666666</ele><time>2026-03-28T14:12:04.187Z</time></trkpt><trkpt lat="39.2309385" lon="16.9291046"><ele>107.0</ele><time>2026-03-28T14:12:05.197Z</time></trkpt><trkpt lat="39.2309384" lon="16.9292122"><ele>105.8</ele><time>2026-03-28T14:12:06.178Z</time></trkpt><trkpt lat="39.2309434" lon="16.929324"><ele>104.6</ele><time>2026-03-28T14:12:07.192Z</time></trkpt><trkpt lat="39.2309534" lon="16.9294413"><ele>103.39999999999999</ele><time>2026-03-28T14:12:08.183Z</time></trkpt><trkpt lat="39.2309784" lon="16.9295686"><ele>102.19999999999999</ele><time>2026-03-28T14:12:09.183Z</time></trkpt><trkpt lat="39.2310142" lon="16.9297021"><ele>101.0</ele><time>2026-03-28T14:12:10.184Z</time></trkpt><trkpt lat="39.2310641" lon="16.9298253"><ele>101.0</ele><time>2026-03-28T14:12:11.188Z</time></trkpt><trkpt lat="39.2311247" lon="16.929942"><ele>101.0</ele><time>2026-03-28T14:12:12.178Z</time></trkpt><trkpt lat="39.2311919" lon="16.9300591"><ele>101.0</ele><time>2026-03-28T14:12:13.191Z</time></trkpt><trkpt lat="39.2312637" lon="16.9301837"><ele>101.0</ele><time>2026-03-28T14:12:14.2Z</time></trkpt><trkpt lat="39.2313332" lon="16.9303068"><ele>100.33333333333333</ele><time>2026-03-28T14:12:15.196Z</time></trkpt><trkpt lat="39.2313928" lon="16.9304201"><ele>99.66666666666666</ele><time>2026-03-28T14:12:16.188Z</time></trkpt><trkpt lat="39.2314472" lon="16.930517"><ele>99.0</ele><time>2026-03-28T14:12:17.186Z</time></trkpt><trkpt lat="39.231497" lon="16.9305999"><ele>98.33333333333334</ele><time>2026-03-28T14:12:18.191Z</time></trkpt><trkpt lat="39.2315397" lon="16.9306702"><ele>97.66666666666667</ele><time>2026-03-28T14:12:19.184Z</time></trkpt><trkpt lat="39.23159" lon="16.9307787"><ele>97.0</ele><time>2026-03-28T14:12:21.183Z</time></trkpt><trkpt lat="39.231619" lon="16.9308723"><ele>98.5</ele><time>2026-03-28T14:12:24.185Z</time></trkpt><trkpt lat="39.2316924" lon="16.9310413"><ele>100.0</ele><time>2026-03-28T14:12:26.185Z</time></trkpt><trkpt lat="39.2317524" lon="16.9311487"><ele>101.5</ele><time>2026-03-28T14:12:27.187Z</time></trkpt><trkpt lat="39.2318266" lon="16.9312739"><ele>103.0</ele><time>2026-03-28T14:12:28.189Z</time></trkpt><trkpt lat="39.2318971" lon="16.9314014"><ele>103.0</ele><time>2026-03-28T14:12:29.194Z</time></trkpt><trkpt lat="39.2319477" lon="16.9315188"><ele>103.0</ele><time>2026-03-28T14:12:30.186Z</time></trkpt><trkpt lat="39.2319682" lon="16.931632"><ele>103.0</ele><time>2026-03-28T14:12:31.197Z</time></trkpt><trkpt lat="39.2319616" lon="16.9317549"><ele>103.0</ele><time>2026-03-28T14:12:32.191Z</time></trkpt><trkpt lat="39.2319452" lon="16.931893"><ele>103.0</ele><time>2026-03-28T14:12:33.191Z</time></trkpt><trkpt lat="39.2319279" lon="16.9320341"><ele>102.60000000000001</ele><time>2026-03-28T14:12:34.191Z</time></trkpt><trkpt lat="39.2319136" lon="16.9321718"><ele>102.2</ele><time>2026-03-28T14:12:35.193Z</time></trkpt><trkpt lat="39.2319026" lon="16.9323104"><ele>101.8</ele><time>2026-03-28T14:12:36.194Z</time></trkpt><trkpt lat="39.2318999" lon="16.9324502"><ele>101.4</ele><time>2026-03-28T14:12:37.184Z</time></trkpt><trkpt lat="39.2319105" lon="16.9325952"><ele>101.0</ele><time>2026-03-28T14:12:38.219Z</time></trkpt><trkpt lat="39.2319348" lon="16.932731"><ele>101.0</ele><time>2026-03-28T14:12:39.189Z</time></trkpt><trkpt lat="39.231969" lon="16.9328527"><ele>101.0</ele><time>2026-03-28T14:12:40.191Z</time></trkpt><trkpt lat="39.2320048" lon="16.9329626"><ele>101.0</ele><time>2026-03-28T14:12:41.19Z</time></trkpt><trkpt lat="39.2320235" lon="16.9330728"><ele>101.0</ele><time>2026-03-28T14:12:42.185Z</time></trkpt><trkpt lat="39.2320343" lon="16.9331927"><ele>101.0</ele><time>2026-03-28T14:12:43.183Z</time></trkpt><trkpt lat="39.2320028" lon="16.9333308"><ele>100.5</ele><time>2026-03-28T14:12:44.188Z</time></trkpt><trkpt lat="39.2319633" lon="16.9334668"><ele>100.0</ele><time>2026-03-28T14:12:45.185Z</time></trkpt><trkpt lat="39.2319129" lon="16.933596"><ele>99.5</ele><time>2026-03-28T14:12:46.193Z</time></trkpt><trkpt lat="39.2318498" lon="16.9337137"><ele>99.0</ele><time>2026-03-28T14:12:47.183Z</time></trkpt><trkpt lat="39.2317634" lon="16.9338215"><ele>99.0</ele><time>2026-03-28T14:12:48.189Z</time></trkpt><trkpt lat="39.2316722" lon="16.9339279"><ele>99.0</ele><time>2026-03-28T14:12:49.191Z</time></trkpt><trkpt lat="39.2315822" lon="16.934042"><ele>99.0</ele><time>2026-03-28T14:12:50.191Z</time></trkpt><trkpt lat="39.231498" lon="16.9341657"><ele>99.0</ele><time>2026-03-28T14:12:51.183Z</time></trkpt><trkpt lat="39.2314206" lon="16.9342964"><ele>97.5</ele><time>2026-03-28T14:12:52.213Z</time></trkpt><trkpt lat="39.2313559" lon="16.9344271"><ele>96.0</ele><time>2026-03-28T14:12:53.188Z</time></trkpt><trkpt lat="39.2313011" lon="16.9345607"><ele>94.5</ele><time>2026-03-28T14:12:54.186Z</time></trkpt><trkpt lat="39.2312574" lon="16.934693"><ele>93.0</ele><time>2026-03-28T14:12:55.183Z</time></trkpt><trkpt lat="39.2312228" lon="16.9348184"><ele>93.0</ele><time>2026-03-28T14:12:56.186Z</time></trkpt><trkpt lat="39.2311953" lon="16.9349367"><ele>93.0</ele><time>2026-03-28T14:12:57.183Z</time></trkpt><trkpt lat="39.2311751" lon="16.9350566"><ele>93.0</ele><time>2026-03-28T14:12:58.18Z</time></trkpt><trkpt lat="39.2311569" lon="16.9351785"><ele>93.0</ele><time>2026-03-28T14:12:59.183Z</time></trkpt><trkpt lat="39.2311311" lon="16.9352923"><ele>93.0</ele><time>2026-03-28T14:13:00.192Z</time></trkpt><trkpt lat="39.2310847" lon="16.9353836"><ele>93.2</ele><time>2026-03-28T14:13:01.189Z</time></trkpt><trkpt lat="39.2310029" lon="16.9354553"><ele>93.4</ele><time>2026-03-28T14:13:02.181Z</time></trkpt><trkpt lat="39.2309225" lon="16.9355388"><ele>93.60000000000001</ele><time>2026-03-28T14:13:03.183Z</time></trkpt><trkpt lat="39.2308504" lon="16.9356403"><ele>93.80000000000001</ele><time>2026-03-28T14:13:04.187Z</time></trkpt><trkpt lat="39.2307831" lon="16.9357544"><ele>94.0</ele><time>2026-03-28T14:13:05.183Z</time></trkpt><trkpt lat="39.2307237" lon="16.9358753"><ele>94.6</ele><time>2026-03-28T14:13:06.187Z</time></trkpt><trkpt lat="39.2306674" lon="16.9359961"><ele>95.2</ele><time>2026-03-28T14:13:07.194Z</time></trkpt><trkpt lat="39.2306099" lon="16.9361137"><ele>95.8</ele><time>2026-03-28T14:13:08.19Z</time></trkpt><trkpt lat="39.2305509" lon="16.9362281"><ele>96.39999999999999</ele><time>2026-03-28T14:13:09.183Z</time></trkpt><trkpt lat="39.2304911" lon="16.9363391"><ele>97.0</ele><time>2026-03-28T14:13:10.194Z</time></trkpt><trkpt lat="39.2304356" lon="16.9364406"><ele>96.16666666666667</ele><time>2026-03-28T14:13:11.187Z</time></trkpt><trkpt lat="39.2303927" lon="16.9365279"><ele>95.33333333333334</ele><time>2026-03-28T14:13:12.196Z</time></trkpt><trkpt lat="39.2303381" lon="16.936643"><ele>94.5</ele><time>2026-03-28T14:13:14.191Z</time></trkpt><trkpt lat="39.2302779" lon="16.9367578"><ele>93.66666666666667</ele><time>2026-03-28T14:13:16.181Z</time></trkpt><trkpt lat="39.2302431" lon="16.9368339"><ele>92.83333333333334</ele><time>2026-03-28T14:13:17.191Z</time></trkpt><trkpt lat="39.2302029" lon="16.9369149"><ele>92.0</ele><time>2026-03-28T14:13:18.185Z</time></trkpt><trkpt lat="39.2301598" lon="16.9370022"><ele>92.0</ele><time>2026-03-28T14:13:19.19Z</time></trkpt><trkpt lat="39.2301166" lon="16.9370939"><ele>92.0</ele><time>2026-03-28T14:13:20.187Z</time></trkpt><trkpt lat="39.2300726" lon="16.9371861"><ele>92.0</ele><time>2026-03-28T14:13:21.185Z</time></trkpt><trkpt lat="39.2300288" lon="16.9372775"><ele>92.0</ele><time>2026-03-28T14:13:22.193Z</time></trkpt><trkpt lat="39.2299835" lon="16.9373708"><ele>92.0</ele><time>2026-03-28T14:13:23.182Z</time></trkpt><trkpt lat="39.2299309" lon="16.9374771"><ele>92.0</ele><time>2026-03-28T14:13:24.191Z</time></trkpt><trkpt lat="39.2298636" lon="16.9376108"><ele>92.0</ele><time>2026-03-28T14:13:25.181Z</time></trkpt><trkpt lat="39.229789" lon="16.9377591"><ele>92.0</ele><time>2026-03-28T14:13:26.198Z</time></trkpt><trkpt lat="39.2297177" lon="16.9379125"><ele>92.0</ele><time>2026-03-28T14:13:27.188Z</time></trkpt><trkpt lat="39.2296387" lon="16.9380531"><ele>92.0</ele><time>2026-03-28T14:13:28.184Z</time></trkpt><trkpt lat="39.2295429" lon="16.9381703"><ele>92.0</ele><time>2026-03-28T14:13:29.182Z</time></trkpt><trkpt lat="39.2294267" lon="16.9382569"><ele>92.0</ele><time>2026-03-28T14:13:30.189Z</time></trkpt><trkpt lat="39.2293074" lon="16.9383362"><ele>92.0</ele><time>2026-03-28T14:13:31.178Z</time></trkpt><trkpt lat="39.2291894" lon="16.9384168"><ele>92.0</ele><time>2026-03-28T14:13:32.179Z</time></trkpt><trkpt lat="39.2290787" lon="16.9384972"><ele>90.39999999999999</ele><time>2026-03-28T14:13:33.187Z</time></trkpt><trkpt lat="39.2289858" lon="16.9385782"><ele>88.8</ele><time>2026-03-28T14:13:34.188Z</time></trkpt><trkpt lat="39.2289169" lon="16.9386707"><ele>87.2</ele><time>2026-03-28T14:13:35.198Z</time></trkpt><trkpt lat="39.2288685" lon="16.9387733"><ele>85.6</ele><time>2026-03-28T14:13:36.183Z</time></trkpt><trkpt lat="39.2288504" lon="16.9388912"><ele>84.0</ele><time>2026-03-28T14:13:37.194Z</time></trkpt><trkpt lat="39.2288439" lon="16.9390148"><ele>84.0</ele><time>2026-03-28T14:13:38.186Z</time></trkpt><trkpt lat="39.2288328" lon="16.9391518"><ele>84.0</ele><time>2026-03-28T14:13:39.191Z</time></trkpt><trkpt lat="39.2288182" lon="16.9393006"><ele>84.0</ele><time>2026-03-28T14:13:40.184Z</time></trkpt><trkpt lat="39.2288044" lon="16.9394579"><ele>84.0</ele><time>2026-03-28T14:13:41.183Z</time></trkpt><trkpt lat="39.2287878" lon="16.9396147"><ele>84.0</ele><time>2026-03-28T14:13:42.188Z</time></trkpt><trkpt lat="39.2287741" lon="16.9397657"><ele>84.0</ele><time>2026-03-28T14:13:43.186Z</time></trkpt><trkpt lat="39.2287619" lon="16.9399123"><ele>84.0</ele><time>2026-03-28T14:13:44.185Z</time></trkpt><trkpt lat="39.2287489" lon="16.9400637"><ele>84.0</ele><time>2026-03-28T14:13:45.201Z</time></trkpt><trkpt lat="39.2287355" lon="16.9402159"><ele>83.5</ele><time>2026-03-28T14:13:46.188Z</time></trkpt><trkpt lat="39.228725" lon="16.9403707"><ele>83.0</ele><time>2026-03-28T14:13:47.185Z</time></trkpt><trkpt lat="39.2287174" lon="16.9405238"><ele>82.5</ele><time>2026-03-28T14:13:48.186Z</time></trkpt><trkpt lat="39.2287114" lon="16.9406732"><ele>82.0</ele><time>2026-03-28T14:13:49.191Z</time></trkpt><trkpt lat="39.2287102" lon="16.9408194"><ele>81.5</ele><time>2026-03-28T14:13:50.186Z</time></trkpt><trkpt lat="39.2287091" lon="16.9409562"><ele>81.0</ele><time>2026-03-28T14:13:51.185Z</time></trkpt><trkpt lat="39.2287064" lon="16.9410792"><ele>80.5</ele><time>2026-03-28T14:13:52.194Z</time></trkpt><trkpt lat="39.228695" lon="16.9411833"><ele>80.0</ele><time>2026-03-28T14:13:53.18Z</time></trkpt><trkpt lat="39.2286863" lon="16.9412661"><ele>79.5</ele><time>2026-03-28T14:13:54.19Z</time></trkpt><trkpt lat="39.2287218" lon="16.9413419"><ele>79.0</ele><time>2026-03-28T14:13:57.188Z</time></trkpt><trkpt lat="39.2288032" lon="16.9413926"><ele>79.0</ele><time>2026-03-28T14:14:01.181Z</time></trkpt><trkpt lat="39.2289122" lon="16.9414784"><ele>79.0</ele><time>2026-03-28T14:14:03.186Z</time></trkpt><trkpt lat="39.2289735" lon="16.9415175"><ele>79.0</ele><time>2026-03-28T14:14:04.191Z</time></trkpt><trkpt lat="39.2290355" lon="16.9415498"><ele>79.0</ele><time>2026-03-28T14:14:05.186Z</time></trkpt><trkpt lat="39.2290976" lon="16.9415769"><ele>79.0</ele><time>2026-03-28T14:14:06.196Z</time></trkpt><trkpt lat="39.2291599" lon="16.9416032"><ele>79.0</ele><time>2026-03-28T14:14:07.188Z</time></trkpt><trkpt lat="39.2292224" lon="16.9416355"><ele>79.66666666666666</ele><time>2026-03-28T14:14:08.192Z</time></trkpt><trkpt lat="39.2292857" lon="16.9416734"><ele>80.33333333333333</ele><time>2026-03-28T14:14:09.186Z</time></trkpt><trkpt lat="39.2293826" lon="16.9417484"><ele>81.0</ele><time>2026-03-28T14:14:11.189Z</time></trkpt><trkpt lat="39.2294538" lon="16.9418207"><ele>81.66666666666667</ele><time>2026-03-28T14:14:13.19Z</time></trkpt><trkpt lat="39.2295117" lon="16.941905"><ele>82.33333333333334</ele><time>2026-03-28T14:14:15.179Z</time></trkpt><trkpt lat="39.2295521" lon="16.9419766"><ele>83.0</ele><time>2026-03-28T14:14:17.181Z</time></trkpt><trkpt lat="39.2295937" lon="16.9420552"><ele>83.66666666666667</ele><time>2026-03-28T14:14:19.182Z</time></trkpt><trkpt lat="39.2296546" lon="16.9421579"><ele>84.33333333333334</ele><time>2026-03-28T14:14:21.181Z</time></trkpt><trkpt lat="39.2296947" lon="16.9422262"><ele>85.0</ele><time>2026-03-28T14:14:23.184Z</time></trkpt><trkpt lat="39.2297314" lon="16.9422931"><ele>85.66666666666667</ele><time>2026-03-28T14:14:26.184Z</time></trkpt><trkpt lat="39.2297799" lon="16.942393"><ele>86.33333333333333</ele><time>2026-03-28T14:14:29.18Z</time></trkpt><trkpt lat="39.2298198" lon="16.9424885"><ele>87.0</ele><time>2026-03-28T14:14:31.19Z</time></trkpt><trkpt lat="39.2298683" lon="16.9426105"><ele>88.0</ele><time>2026-03-28T14:14:33.189Z</time></trkpt><trkpt lat="39.229937" lon="16.9427229"><ele>89.0</ele><time>2026-03-28T14:14:35.186Z</time></trkpt><trkpt lat="39.2300426" lon="16.942823"><ele>90.0</ele><time>2026-03-28T14:14:37.194Z</time></trkpt><trkpt lat="39.2300919" lon="16.9428868"><ele>91.0</ele><time>2026-03-28T14:14:38.184Z</time></trkpt><trkpt lat="39.2301408" lon="16.9429462"><ele>92.0</ele><time>2026-03-28T14:14:39.184Z</time></trkpt><trkpt lat="39.2302448" lon="16.9430225"><ele>92.0</ele><time>2026-03-28T14:14:41.195Z</time></trkpt><trkpt lat="39.2303353" lon="16.9430739"><ele>92.0</ele><time>2026-03-28T14:14:43.187Z</time></trkpt><trkpt lat="39.2303935" lon="16.9431088"><ele>92.0</ele><time>2026-03-28T14:14:45.189Z</time></trkpt><trkpt lat="39.2304484" lon="16.9431562"><ele>92.0</ele><time>2026-03-28T14:14:48.179Z</time></trkpt><trkpt lat="39.2304998" lon="16.943216"><ele>92.0</ele><time>2026-03-28T14:14:50.184Z</time></trkpt><trkpt lat="39.2305442" lon="16.9433125"><ele>92.0</ele><time>2026-03-28T14:14:52.182Z</time></trkpt><trkpt lat="39.230602" lon="16.9434548"><ele>92.85714285714286</ele><time>2026-03-28T14:14:54.187Z</time></trkpt><trkpt lat="39.2306307" lon="16.9435366"><ele>93.71428571428571</ele><time>2026-03-28T14:14:55.185Z</time></trkpt><trkpt lat="39.2306584" lon="16.9436197"><ele>94.57142857142857</ele><time>2026-03-28T14:14:56.183Z</time></trkpt><trkpt lat="39.2306882" lon="16.9437011"><ele>95.42857142857143</ele><time>2026-03-28T14:14:57.187Z</time></trkpt><trkpt lat="39.2307159" lon="16.9437751"><ele>96.28571428571428</ele><time>2026-03-28T14:14:58.186Z</time></trkpt><trkpt lat="39.2307648" lon="16.9438647"><ele>97.14285714285714</ele><time>2026-03-28T14:15:00.182Z</time></trkpt><trkpt lat="39.2308146" lon="16.9439251"><ele>98.0</ele><time>2026-03-28T14:15:02.186Z</time></trkpt><trkpt lat="39.2308852" lon="16.9439896"><ele>98.0</ele><time>2026-03-28T14:15:05.181Z</time></trkpt><trkpt lat="39.2309536" lon="16.9440387"><ele>98.0</ele><time>2026-03-28T14:15:07.186Z</time></trkpt><trkpt lat="39.2310718" lon="16.9441147"><ele>98.0</ele><time>2026-03-28T14:15:09.186Z</time></trkpt><trkpt lat="39.2311464" lon="16.9441912"><ele>98.0</ele><time>2026-03-28T14:15:10.178Z</time></trkpt><trkpt lat="39.2312181" lon="16.9442869"><ele>98.0</ele><time>2026-03-28T14:15:11.182Z</time></trkpt><trkpt lat="39.2312824" lon="16.9444079"><ele>98.60000000000001</ele><time>2026-03-28T14:15:12.183Z</time></trkpt><trkpt lat="39.2313332" lon="16.9445372"><ele>99.2</ele><time>2026-03-28T14:15:13.182Z</time></trkpt><trkpt lat="39.2313723" lon="16.944661"><ele>99.8</ele><time>2026-03-28T14:15:14.19Z</time></trkpt><trkpt lat="39.2314062" lon="16.9447727"><ele>100.4</ele><time>2026-03-28T14:15:15.182Z</time></trkpt><trkpt lat="39.2314368" lon="16.9448642"><ele>101.0</ele><time>2026-03-28T14:15:16.179Z</time></trkpt><trkpt lat="39.2314836" lon="16.944962"><ele>101.0</ele><time>2026-03-28T14:15:18.181Z</time></trkpt><trkpt lat="39.2315279" lon="16.9450365"><ele>101.0</ele><time>2026-03-28T14:15:21.183Z</time></trkpt><trkpt lat="39.2315657" lon="16.9451034"><ele>101.0</ele><time>2026-03-28T14:15:23.183Z</time></trkpt><trkpt lat="39.2316135" lon="16.9451684"><ele>101.0</ele><time>2026-03-28T14:15:25.182Z</time></trkpt><trkpt lat="39.2316677" lon="16.9452277"><ele>101.0</ele><time>2026-03-28T14:15:27.181Z</time></trkpt><trkpt lat="39.2317428" lon="16.9453162"><ele>101.0</ele><time>2026-03-28T14:15:29.18Z</time></trkpt><trkpt lat="39.2317885" lon="16.9453756"><ele>101.0</ele><time>2026-03-28T14:15:30.186Z</time></trkpt><trkpt lat="39.2318358" lon="16.9454347"><ele>101.66666666666666</ele><time>2026-03-28T14:15:31.177Z</time></trkpt><trkpt lat="39.2318953" lon="16.9454721"><ele>102.33333333333333</ele><time>2026-03-28T14:15:32.191Z</time></trkpt><trkpt lat="39.2319617" lon="16.9454997"><ele>103.0</ele><time>2026-03-28T14:15:33.182Z</time></trkpt><trkpt lat="39.2320279" lon="16.9455246"><ele>103.66666666666666</ele><time>2026-03-28T14:15:34.195Z</time></trkpt><trkpt lat="39.2321444" lon="16.9455617"><ele>104.33333333333333</ele><time>2026-03-28T14:15:36.187Z</time></trkpt><trkpt lat="39.2322545" lon="16.9456044"><ele>105.0</ele><time>2026-03-28T14:15:38.194Z</time></trkpt><trkpt lat="39.2323374" lon="16.9456385"><ele>105.0</ele><time>2026-03-28T14:15:40.184Z</time></trkpt><trkpt lat="39.2324386" lon="16.9456736"><ele>105.0</ele><time>2026-03-28T14:15:42.194Z</time></trkpt><trkpt lat="39.2325475" lon="16.9457168"><ele>105.0</ele><time>2026-03-28T14:15:44.187Z</time></trkpt><trkpt lat="39.2326565" lon="16.9457461"><ele>105.0</ele><time>2026-03-28T14:15:46.18Z</time></trkpt><trkpt lat="39.23274" lon="16.9457516"><ele>105.0</ele><time>2026-03-28T14:15:48.189Z</time></trkpt><trkpt lat="39.232812" lon="16.9457651"><ele>105.0</ele><time>2026-03-28T14:15:50.186Z</time></trkpt><trkpt lat="39.232914" lon="16.9457876"><ele>105.0</ele><time>2026-03-28T14:15:52.181Z</time></trkpt><trkpt lat="39.2330143" lon="16.9458248"><ele>105.0</ele><time>2026-03-28T14:15:54.187Z</time></trkpt><trkpt lat="39.2330771" lon="16.9458511"><ele>105.0</ele><time>2026-03-28T14:16:06.186Z</time></trkpt><trkpt lat="39.2331462" lon="16.945874"><ele>105.0</ele><time>2026-03-28T14:16:08.189Z</time></trkpt><trkpt lat="39.2332239" lon="16.9458981"><ele>105.0</ele><time>2026-03-28T14:16:10.19Z</time></trkpt><trkpt lat="39.2333036" lon="16.9459171"><ele>108.16666666666667</ele><time>2026-03-28T14:16:13.194Z</time></trkpt><trkpt lat="39.233389" lon="16.9459462"><ele>111.33333333333334</ele><time>2026-03-28T14:16:16.185Z</time></trkpt><trkpt lat="39.2334702" lon="16.9459788"><ele>114.5</ele><time>2026-03-28T14:16:18.186Z</time></trkpt><trkpt lat="39.2335519" lon="16.9460208"><ele>117.66666666666667</ele><time>2026-03-28T14:16:20.183Z</time></trkpt><trkpt lat="39.2336184" lon="16.9460513"><ele>120.83333333333334</ele><time>2026-03-28T14:16:22.186Z</time></trkpt><trkpt lat="39.2336867" lon="16.9460811"><ele>124.0</ele><time>2026-03-28T14:16:24.184Z</time></trkpt><trkpt lat="39.2337653" lon="16.9461167"><ele>124.00000000000001</ele><time>2026-03-28T14:16:26.187Z</time></trkpt><trkpt lat="39.2338358" lon="16.9461519"><ele>124.0</ele><time>2026-03-28T14:16:28.178Z</time></trkpt><trkpt lat="39.2339101" lon="16.9461852"><ele>124.0</ele><time>2026-03-28T14:16:30.181Z</time></trkpt><trkpt lat="39.2339861" lon="16.9462172"><ele>124.0</ele><time>2026-03-28T14:16:32.189Z</time></trkpt><trkpt lat="39.2340664" lon="16.9462435"><ele>124.00000000000001</ele><time>2026-03-28T14:16:34.187Z</time></trkpt><trkpt lat="39.2341553" lon="16.9462681"><ele>124.0</ele><time>2026-03-28T14:16:36.193Z</time></trkpt><trkpt lat="39.2342424" lon="16.9462718"><ele>123.0</ele><time>2026-03-28T14:16:38.183Z</time></trkpt><trkpt lat="39.2343426" lon="16.9462264"><ele>122.0</ele><time>2026-03-28T14:16:41.186Z</time></trkpt><trkpt lat="39.2344066" lon="16.9461992"><ele>121.0</ele><time>2026-03-28T14:16:42.19Z</time></trkpt><trkpt lat="39.2344804" lon="16.9461677"><ele>120.0</ele><time>2026-03-28T14:16:43.186Z</time></trkpt><trkpt lat="39.2345696" lon="16.9461194"><ele>119.0</ele><time>2026-03-28T14:16:44.189Z</time></trkpt><trkpt lat="39.2346617" lon="16.946062"><ele>118.99999999999999</ele><time>2026-03-28T14:16:45.189Z</time></trkpt><trkpt lat="39.2347461" lon="16.9460099"><ele>119.0</ele><time>2026-03-28T14:16:46.18Z</time></trkpt><trkpt lat="39.2348159" lon="16.945971"><ele>119.0</ele><time>2026-03-28T14:16:47.195Z</time></trkpt><trkpt lat="39.2348737" lon="16.9459361"><ele>119.0</ele><time>2026-03-28T14:16:48.185Z</time></trkpt><trkpt lat="39.2349597" lon="16.9458459"><ele>118.99999999999999</ele><time>2026-03-28T14:16:50.19Z</time></trkpt><trkpt lat="39.2350314" lon="16.9457698"><ele>119.0</ele><time>2026-03-28T14:16:52.194Z</time></trkpt><trkpt lat="39.2351485" lon="16.9457331"><ele>119.49999999999999</ele><time>2026-03-28T14:16:54.187Z</time></trkpt><trkpt lat="39.2352254" lon="16.9457322"><ele>120.0</ele><time>2026-03-28T14:16:55.185Z</time></trkpt><trkpt lat="39.2353065" lon="16.9457374"><ele>120.5</ele><time>2026-03-28T14:16:56.187Z</time></trkpt><trkpt lat="39.2353878" lon="16.9457512"><ele>121.0</ele><time>2026-03-28T14:16:57.206Z</time></trkpt><trkpt lat="39.2354659" lon="16.9457584"><ele>121.49999999999999</ele><time>2026-03-28T14:16:58.196Z</time></trkpt><trkpt lat="39.2355402" lon="16.9457629"><ele>122.0</ele><time>2026-03-28T14:16:59.192Z</time></trkpt><trkpt lat="39.235613" lon="16.9457751"><ele>123.49999999999999</ele><time>2026-03-28T14:17:00.186Z</time></trkpt><trkpt lat="39.2356868" lon="16.9458003"><ele>125.0</ele><time>2026-03-28T14:17:01.185Z</time></trkpt><trkpt lat="39.235756" lon="16.9458335"><ele>126.5</ele><time>2026-03-28T14:17:02.2Z</time></trkpt><trkpt lat="39.235819" lon="16.9458665"><ele>128.0</ele><time>2026-03-28T14:17:03.192Z</time></trkpt><trkpt lat="39.2359256" lon="16.9458964"><ele>129.5</ele><time>2026-03-28T14:17:05.189Z</time></trkpt><trkpt lat="39.2359972" lon="16.9459576"><ele>131.0</ele><time>2026-03-28T14:17:07.195Z</time></trkpt><trkpt lat="39.2360332" lon="16.94608"><ele>132.0</ele><time>2026-03-28T14:17:09.192Z</time></trkpt><trkpt lat="39.2360639" lon="16.9462259"><ele>133.0</ele><time>2026-03-28T14:17:11.188Z</time></trkpt><trkpt lat="39.2360866" lon="16.9463028"><ele>134.0</ele><time>2026-03-28T14:17:12.191Z</time></trkpt><trkpt lat="39.236115" lon="16.9463778"><ele>135.0</ele><time>2026-03-28T14:17:13.184Z</time></trkpt><trkpt lat="39.2361457" lon="16.9464507"><ele>136.0</ele><time>2026-03-28T14:17:14.192Z</time></trkpt><trkpt lat="39.2362095" lon="16.9465858"><ele>137.0</ele><time>2026-03-28T14:17:16.179Z</time></trkpt><trkpt lat="39.2362729" lon="16.9467073"><ele>137.2</ele><time>2026-03-28T14:17:18.194Z</time></trkpt><trkpt lat="39.2363535" lon="16.9468084"><ele>137.39999999999998</ele><time>2026-03-28T14:17:20.191Z</time></trkpt><trkpt lat="39.2364566" lon="16.9468723"><ele>137.60000000000002</ele><time>2026-03-28T14:17:22.192Z</time></trkpt><trkpt lat="39.2365587" lon="16.9469365"><ele>137.8</ele><time>2026-03-28T14:17:24.186Z</time></trkpt><trkpt lat="39.2366194" lon="16.9469818"><ele>138.0</ele><time>2026-03-28T14:17:25.19Z</time></trkpt><trkpt lat="39.2366786" lon="16.9470311"><ele>140.83333333333334</ele><time>2026-03-28T14:17:26.185Z</time></trkpt><trkpt lat="39.2367435" lon="16.9470815"><ele>143.66666666666666</ele><time>2026-03-28T14:17:27.184Z</time></trkpt><trkpt lat="39.2368107" lon="16.9471356"><ele>146.5</ele><time>2026-03-28T14:17:28.186Z</time></trkpt><trkpt lat="39.2368757" lon="16.9471966"><ele>149.33333333333331</ele><time>2026-03-28T14:17:29.185Z</time></trkpt><trkpt lat="39.2369366" lon="16.947268"><ele>152.16666666666666</ele><time>2026-03-28T14:17:30.201Z</time></trkpt><trkpt lat="39.2369898" lon="16.9473452"><ele>155.0</ele><time>2026-03-28T14:17:31.186Z</time></trkpt><trkpt lat="39.2370367" lon="16.9474243"><ele>155.0</ele><time>2026-03-28T14:17:32.205Z</time></trkpt><trkpt lat="39.2370738" lon="16.9475064"><ele>155.0</ele><time>2026-03-28T14:17:33.184Z</time></trkpt><trkpt lat="39.2371014" lon="16.9475922"><ele>155.0</ele><time>2026-03-28T14:17:34.187Z</time></trkpt><trkpt lat="39.2370968" lon="16.9477346"><ele>155.0</ele><time>2026-03-28T14:17:36.183Z</time></trkpt><trkpt lat="39.2370437" lon="16.9478452"><ele>155.0</ele><time>2026-03-28T14:17:38.183Z</time></trkpt><trkpt lat="39.2370084" lon="16.9479379"><ele>155.0</ele><time>2026-03-28T14:17:40.184Z</time></trkpt><trkpt lat="39.2369994" lon="16.948053"><ele>156.14285714285714</ele><time>2026-03-28T14:18:47.182Z</time></trkpt><trkpt lat="39.2369854" lon="16.948152"><ele>157.28571428571428</ele><time>2026-03-28T14:18:49.19Z</time></trkpt><trkpt lat="39.2369687" lon="16.948235"><ele>158.42857142857144</ele><time>2026-03-28T14:18:51.185Z</time></trkpt><trkpt lat="39.2369526" lon="16.948334"><ele>159.57142857142856</ele><time>2026-03-28T14:18:54.189Z</time></trkpt><trkpt lat="39.2369492" lon="16.9484301"><ele>160.7142857142857</ele><time>2026-03-28T14:18:57.19Z</time></trkpt><trkpt lat="39.2369892" lon="16.9485067"><ele>161.85714285714286</ele><time>2026-03-28T14:19:00.199Z</time></trkpt><trkpt lat="39.2370267" lon="16.9485805"><ele>163.0</ele><time>2026-03-28T14:19:03.182Z</time></trkpt><trkpt lat="39.2370629" lon="16.9486532"><ele>163.33333333333334</ele><time>2026-03-28T14:19:06.183Z</time></trkpt><trkpt lat="39.2371063" lon="16.9487446"><ele>163.66666666666669</ele><time>2026-03-28T14:19:10.189Z</time></trkpt><trkpt lat="39.2371448" lon="16.9488153"><ele>164.0</ele><time>2026-03-28T14:19:22.189Z</time></trkpt><trkpt lat="39.2371834" lon="16.9489026"><ele>164.33333333333334</ele><time>2026-03-28T14:19:26.183Z</time></trkpt><trkpt lat="39.23722" lon="16.9489947"><ele>164.66666666666666</ele><time>2026-03-28T14:19:30.201Z</time></trkpt><trkpt lat="39.2372515" lon="16.9490744"><ele>165.0</ele><time>2026-03-28T14:19:33.189Z</time></trkpt><trkpt lat="39.2372873" lon="16.9491562"><ele>162.5</ele><time>2026-03-28T14:19:37.182Z</time></trkpt><trkpt lat="39.2373225" lon="16.9492379"><ele>160.0</ele><time>2026-03-28T14:19:40.194Z</time></trkpt><trkpt lat="39.2373616" lon="16.9493243"><ele>157.5</ele><time>2026-03-28T14:19:43.19Z</time></trkpt><trkpt lat="39.2374026" lon="16.9494248"><ele>155.0</ele><time>2026-03-28T14:19:46.19Z</time></trkpt><trkpt lat="39.2374358" lon="16.9495313"><ele>152.5</ele><time>2026-03-28T14:19:49.184Z</time></trkpt><trkpt lat="39.2374322" lon="16.9496463"><ele>150.0</ele><time>2026-03-28T14:19:52.182Z</time></trkpt><trkpt lat="39.2374239" lon="16.9497611"><ele>150.0</ele><time>2026-03-28T14:19:55.18Z</time></trkpt><trkpt lat="39.2374386" lon="16.9498759"><ele>150.0</ele><time>2026-03-28T14:19:58.18Z</time></trkpt><trkpt lat="39.2374803" lon="16.949973"><ele>150.0</ele><time>2026-03-28T14:20:01.183Z</time></trkpt><trkpt lat="39.2375447" lon="16.9500435"><ele>150.0</ele><time>2026-03-28T14:20:04.19Z</time></trkpt><trkpt lat="39.2376233" lon="16.9501194"><ele>150.0</ele><time>2026-03-28T14:20:07.185Z</time></trkpt><trkpt lat="39.2376739" lon="16.9501703"><ele>150.0</ele><time>2026-03-28T14:20:09.186Z</time></trkpt><trkpt lat="39.2377086" lon="16.9502539"><ele>149.0</ele><time>2026-03-28T14:20:13.185Z</time></trkpt><trkpt lat="39.237703" lon="16.9503658"><ele>148.0</ele><time>2026-03-28T14:20:17.186Z</time></trkpt><trkpt lat="39.2377067" lon="16.9504752"><ele>147.0</ele><time>2026-03-28T14:20:20.185Z</time></trkpt><trkpt lat="39.2377356" lon="16.9505581"><ele>146.0</ele><time>2026-03-28T14:20:23.187Z</time></trkpt><trkpt lat="39.2377438" lon="16.9506479"><ele>145.0</ele><time>2026-03-28T14:20:26.182Z</time></trkpt><trkpt lat="39.2377475" lon="16.9507543"><ele>144.0</ele><time>2026-03-28T14:20:29.185Z</time></trkpt><trkpt lat="39.2377583" lon="16.9508448"><ele>142.66666666666666</ele><time>2026-03-28T14:20:32.184Z</time></trkpt><trkpt lat="39.2377832" lon="16.9509457"><ele>141.33333333333334</ele><time>2026-03-28T14:20:36.184Z</time></trkpt><trkpt lat="39.2378151" lon="16.951045"><ele>140.0</ele><time>2026-03-28T14:20:40.184Z</time></trkpt><trkpt lat="39.237848" lon="16.9511453"><ele>138.66666666666669</ele><time>2026-03-28T14:20:43.183Z</time></trkpt><trkpt lat="39.2378787" lon="16.9512301"><ele>137.33333333333334</ele><time>2026-03-28T14:20:46.181Z</time></trkpt><trkpt lat="39.2379041" lon="16.9513136"><ele>136.0</ele><time>2026-03-28T14:20:51.18Z</time></trkpt><trkpt lat="39.2379321" lon="16.9513997"><ele>136.0</ele><time>2026-03-28T14:20:55.186Z</time></trkpt><trkpt lat="39.2379619" lon="16.9514774"><ele>136.0</ele><time>2026-03-28T14:20:59.186Z</time></trkpt><trkpt lat="39.237993" lon="16.9515646"><ele>136.0</ele><time>2026-03-28T14:21:02.189Z</time></trkpt><trkpt lat="39.2380197" lon="16.9516765"><ele>136.0</ele><time>2026-03-28T14:21:05.186Z</time></trkpt><trkpt lat="39.2380559" lon="16.9517678"><ele>136.0</ele><time>2026-03-28T14:21:08.183Z</time></trkpt><trkpt lat="39.2380922" lon="16.9518442"><ele>136.0</ele><time>2026-03-28T14:21:18.192Z</time></trkpt><trkpt lat="39.238142" lon="16.9519436"><ele>137.83333333333334</ele><time>2026-03-28T14:21:21.185Z</time></trkpt><trkpt lat="39.2381923" lon="16.9520336"><ele>139.66666666666669</ele><time>2026-03-28T14:21:25.197Z</time></trkpt><trkpt lat="39.2382328" lon="16.9521257"><ele>141.5</ele><time>2026-03-28T14:21:28.183Z</time></trkpt><trkpt lat="39.2382623" lon="16.9522121"><ele>143.33333333333334</ele><time>2026-03-28T14:21:31.186Z</time></trkpt><trkpt lat="39.2382943" lon="16.9523008"><ele>145.16666666666666</ele><time>2026-03-28T14:21:34.185Z</time></trkpt><trkpt lat="39.2383311" lon="16.9523879"><ele>147.0</ele><time>2026-03-28T14:21:37.192Z</time></trkpt><trkpt lat="39.2383655" lon="16.9524632"><ele>147.5</ele><time>2026-03-28T14:21:40.189Z</time></trkpt><trkpt lat="39.2384027" lon="16.9525468"><ele>148.0</ele><time>2026-03-28T14:21:58.18Z</time></trkpt><trkpt lat="39.2384477" lon="16.9526359"><ele>148.5</ele><time>2026-03-28T14:22:01.18Z</time></trkpt><trkpt lat="39.2384802" lon="16.9527105"><ele>149.0</ele><time>2026-03-28T14:22:04.198Z</time></trkpt><trkpt lat="39.2385108" lon="16.9527871"><ele>149.5</ele><time>2026-03-28T14:22:08.19Z</time></trkpt><trkpt lat="39.238564" lon="16.952901"><ele>150.0</ele><time>2026-03-28T14:22:52.187Z</time></trkpt><trkpt lat="39.2386014" lon="16.9529886"><ele>150.0</ele><time>2026-03-28T14:22:54.194Z</time></trkpt><trkpt lat="39.2386373" lon="16.9530778"><ele>150.0</ele><time>2026-03-28T14:22:56.188Z</time></trkpt><trkpt lat="39.2386758" lon="16.9531586"><ele>150.0</ele><time>2026-03-28T14:22:58.188Z</time></trkpt><trkpt lat="39.2387139" lon="16.953235"><ele>150.0</ele><time>2026-03-28T14:23:00.188Z</time></trkpt><trkpt lat="39.2387437" lon="16.9533075"><ele>150.0</ele><time>2026-03-28T14:23:02.183Z</time></trkpt><trkpt lat="39.2387588" lon="16.9534207"><ele>150.0</ele><time>2026-03-28T14:23:05.192Z</time></trkpt><trkpt lat="39.2387669" lon="16.9535204"><ele>149.6</ele><time>2026-03-28T14:23:08.19Z</time></trkpt><trkpt lat="39.2387725" lon="16.9536236"><ele>149.2</ele><time>2026-03-28T14:23:11.187Z</time></trkpt><trkpt lat="39.2387688" lon="16.9537497"><ele>148.8</ele><time>2026-03-28T14:23:14.183Z</time></trkpt><trkpt lat="39.2387786" lon="16.9538563"><ele>148.4</ele><time>2026-03-28T14:23:16.186Z</time></trkpt><trkpt lat="39.2388209" lon="16.953961"><ele>148.0</ele><time>2026-03-28T14:23:18.193Z</time></trkpt><trkpt lat="39.2388981" lon="16.9540461"><ele>148.0</ele><time>2026-03-28T14:23:20.198Z</time></trkpt><trkpt lat="39.2389621" lon="16.9541123"><ele>148.0</ele><time>2026-03-28T14:23:22.194Z</time></trkpt><trkpt lat="39.2390189" lon="16.9541722"><ele>148.0</ele><time>2026-03-28T14:23:24.185Z</time></trkpt><trkpt lat="39.2390685" lon="16.9542392"><ele>148.0</ele><time>2026-03-28T14:23:26.19Z</time></trkpt><trkpt lat="39.2391127" lon="16.9543211"><ele>148.0</ele><time>2026-03-28T14:23:28.188Z</time></trkpt><trkpt lat="39.2391517" lon="16.9544137"><ele>148.0</ele><time>2026-03-28T14:23:30.188Z</time></trkpt><trkpt lat="39.2391942" lon="16.954504"><ele>151.0</ele><time>2026-03-28T14:23:32.181Z</time></trkpt><trkpt lat="39.2392393" lon="16.9545958"><ele>154.0</ele><time>2026-03-28T14:23:34.185Z</time></trkpt><trkpt lat="39.2392847" lon="16.9546729"><ele>157.0</ele><time>2026-03-28T14:23:36.19Z</time></trkpt><trkpt lat="39.2393314" lon="16.954759"><ele>160.0</ele><time>2026-03-28T14:23:38.186Z</time></trkpt><trkpt lat="39.2393907" lon="16.9548555"><ele>163.0</ele><time>2026-03-28T14:23:40.185Z</time></trkpt><trkpt lat="39.2394751" lon="16.9549523"><ele>166.0</ele><time>2026-03-28T14:23:42.192Z</time></trkpt><trkpt lat="39.2395669" lon="16.9550341"><ele>166.60000000000002</ele><time>2026-03-28T14:23:44.192Z</time></trkpt><trkpt lat="39.2396665" lon="16.9550896"><ele>167.2</ele><time>2026-03-28T14:23:46.191Z</time></trkpt><trkpt lat="39.2397736" lon="16.955124"><ele>167.8</ele><time>2026-03-28T14:23:48.186Z</time></trkpt><trkpt lat="39.2398823" lon="16.9551677"><ele>168.39999999999998</ele><time>2026-03-28T14:23:50.189Z</time></trkpt><trkpt lat="39.239992" lon="16.9552178"><ele>169.0</ele><time>2026-03-28T14:23:52.185Z</time></trkpt><trkpt lat="39.240102" lon="16.9552785"><ele>169.0</ele><time>2026-03-28T14:23:54.196Z</time></trkpt><trkpt lat="39.2402116" lon="16.9553101"><ele>169.0</ele><time>2026-03-28T14:23:56.188Z</time></trkpt><trkpt lat="39.2403083" lon="16.9553191"><ele>169.0</ele><time>2026-03-28T14:23:58.181Z</time></trkpt><trkpt lat="39.2403926" lon="16.9552772"><ele>169.0</ele><time>2026-03-28T14:24:00.187Z</time></trkpt><trkpt lat="39.2404614" lon="16.9552643"><ele>169.0</ele><time>2026-03-28T14:24:02.183Z</time></trkpt><trkpt lat="39.2405469" lon="16.9552795"><ele>169.0</ele><time>2026-03-28T14:24:04.183Z</time></trkpt><trkpt lat="39.2406369" lon="16.9553043"><ele>169.0</ele><time>2026-03-28T14:24:06.185Z</time></trkpt><trkpt lat="39.2407219" lon="16.9552824"><ele>169.0</ele><time>2026-03-28T14:24:08.184Z</time></trkpt><trkpt lat="39.2408292" lon="16.9552442"><ele>169.0</ele><time>2026-03-28T14:24:10.184Z</time></trkpt><trkpt lat="39.2409476" lon="16.9552467"><ele>169.0</ele><time>2026-03-28T14:24:12.182Z</time></trkpt><trkpt lat="39.2410383" lon="16.9553224"><ele>169.0</ele><time>2026-03-28T14:24:14.184Z</time></trkpt><trkpt lat="39.2411252" lon="16.9554131"><ele>169.0</ele><time>2026-03-28T14:24:16.187Z</time></trkpt><trkpt lat="39.2412304" lon="16.9554709"><ele>169.0</ele><time>2026-03-28T14:24:18.19Z</time></trkpt><trkpt lat="39.2413087" lon="16.9554889"><ele>169.0</ele><time>2026-03-28T14:24:20.182Z</time></trkpt><trkpt lat="39.2413773" lon="16.9555655"><ele>169.0</ele><time>2026-03-28T14:24:24.186Z</time></trkpt><trkpt lat="39.2414317" lon="16.9556328"><ele>168.33333333333334</ele><time>2026-03-28T14:24:27.183Z</time></trkpt><trkpt lat="39.2415036" lon="16.9556905"><ele>167.66666666666669</ele><time>2026-03-28T14:24:30.192Z</time></trkpt><trkpt lat="39.2415691" lon="16.955722"><ele>167.0</ele><time>2026-03-28T14:24:32.184Z</time></trkpt><trkpt lat="39.2416364" lon="16.9557437"><ele>166.33333333333334</ele><time>2026-03-28T14:24:34.185Z</time></trkpt><trkpt lat="39.2417042" lon="16.9557772"><ele>165.66666666666666</ele><time>2026-03-28T14:24:36.185Z</time></trkpt><trkpt lat="39.2417806" lon="16.9558436"><ele>165.0</ele><time>2026-03-28T14:24:38.182Z</time></trkpt><trkpt lat="39.2418662" lon="16.9559141"><ele>165.0</ele><time>2026-03-28T14:24:40.2Z</time></trkpt><trkpt lat="39.2419596" lon="16.9559522"><ele>165.0</ele><time>2026-03-28T14:24:42.192Z</time></trkpt><trkpt lat="39.242048" lon="16.9559585"><ele>165.0</ele><time>2026-03-28T14:24:44.179Z</time></trkpt><trkpt lat="39.2421298" lon="16.9559751"><ele>165.0</ele><time>2026-03-28T14:24:46.182Z</time></trkpt><trkpt lat="39.2421926" lon="16.9560569"><ele>165.0</ele><time>2026-03-28T14:24:48.182Z</time></trkpt><trkpt lat="39.242255" lon="16.9561649"><ele>165.83333333333334</ele><time>2026-03-28T14:24:50.182Z</time></trkpt><trkpt lat="39.2423092" lon="16.9562722"><ele>166.66666666666666</ele><time>2026-03-28T14:24:52.185Z</time></trkpt><trkpt lat="39.2423408" lon="16.9563635"><ele>167.5</ele><time>2026-03-28T14:24:54.184Z</time></trkpt><trkpt lat="39.24233" lon="16.9564717"><ele>168.33333333333331</ele><time>2026-03-28T14:24:57.182Z</time></trkpt><trkpt lat="39.2423182" lon="16.9565874"><ele>169.16666666666666</ele><time>2026-03-28T14:24:59.182Z</time></trkpt><trkpt lat="39.2423547" lon="16.956694"><ele>170.0</ele><time>2026-03-28T14:25:01.199Z</time></trkpt><trkpt lat="39.2424021" lon="16.956765"><ele>170.0</ele><time>2026-03-28T14:25:06.186Z</time></trkpt><trkpt lat="39.2424515" lon="16.956879"><ele>170.0</ele><time>2026-03-28T14:25:08.183Z</time></trkpt><trkpt lat="39.2424844" lon="16.956952"><ele>170.0</ele><time>2026-03-28T14:25:09.182Z</time></trkpt><trkpt lat="39.2425231" lon="16.9570325"><ele>170.0</ele><time>2026-03-28T14:25:10.187Z</time></trkpt><trkpt lat="39.2425641" lon="16.9571169"><ele>170.0</ele><time>2026-03-28T14:25:11.185Z</time></trkpt><trkpt lat="39.2426035" lon="16.9572063"><ele>170.0</ele><time>2026-03-28T14:25:12.204Z</time></trkpt><trkpt lat="39.2426405" lon="16.9572983"><ele>170.0</ele><time>2026-03-28T14:25:13.184Z</time></trkpt><trkpt lat="39.242678" lon="16.9573948"><ele>170.0</ele><time>2026-03-28T14:25:14.193Z</time></trkpt><trkpt lat="39.242703" lon="16.9574946"><ele>170.0</ele><time>2026-03-28T14:25:15.177Z</time></trkpt><trkpt lat="39.2427001" lon="16.9575972"><ele>170.0</ele><time>2026-03-28T14:25:16.187Z</time></trkpt><trkpt lat="39.2426877" lon="16.9576925"><ele>170.0</ele><time>2026-03-28T14:25:17.181Z</time></trkpt><trkpt lat="39.242668" lon="16.9577798"><ele>170.0</ele><time>2026-03-28T14:25:18.182Z</time></trkpt><trkpt lat="39.2426552" lon="16.9578655"><ele>168.2</ele><time>2026-03-28T14:25:19.183Z</time></trkpt><trkpt lat="39.2426517" lon="16.9580044"><ele>166.4</ele><time>2026-03-28T14:25:21.185Z</time></trkpt><trkpt lat="39.2426751" lon="16.9580927"><ele>164.60000000000002</ele><time>2026-03-28T14:25:23.181Z</time></trkpt><trkpt lat="39.2427252" lon="16.9582069"><ele>162.8</ele><time>2026-03-28T14:25:25.179Z</time></trkpt><trkpt lat="39.242763" lon="16.9583587"><ele>161.0</ele><time>2026-03-28T14:25:27.186Z</time></trkpt><trkpt lat="39.2427963" lon="16.9585038"><ele>159.4</ele><time>2026-03-28T14:25:29.181Z</time></trkpt><trkpt lat="39.2428243" lon="16.9586244"><ele>157.8</ele><time>2026-03-28T14:25:31.183Z</time></trkpt><trkpt lat="39.2428324" lon="16.9587289"><ele>156.20000000000002</ele><time>2026-03-28T14:25:33.181Z</time></trkpt><trkpt lat="39.2428319" lon="16.9588434"><ele>154.60000000000002</ele><time>2026-03-28T14:25:35.188Z</time></trkpt><trkpt lat="39.2428376" lon="16.9589712"><ele>153.0</ele><time>2026-03-28T14:25:37.184Z</time></trkpt><trkpt lat="39.2428613" lon="16.959113"><ele>153.0</ele><time>2026-03-28T14:25:39.179Z</time></trkpt><trkpt lat="39.2428867" lon="16.9591911"><ele>153.0</ele><time>2026-03-28T14:25:40.181Z</time></trkpt><trkpt lat="39.2429294" lon="16.959264"><ele>153.0</ele><time>2026-03-28T14:25:41.181Z</time></trkpt><trkpt lat="39.2429891" lon="16.9593317"><ele>153.0</ele><time>2026-03-28T14:25:42.179Z</time></trkpt><trkpt lat="39.2430566" lon="16.9593966"><ele>153.0</ele><time>2026-03-28T14:25:43.184Z</time></trkpt><trkpt lat="39.2431252" lon="16.9594617"><ele>153.0</ele><time>2026-03-28T14:25:44.182Z</time></trkpt><trkpt lat="39.2431922" lon="16.9595279"><ele>150.33333333333334</ele><time>2026-03-28T14:25:45.187Z</time></trkpt><trkpt lat="39.2432527" lon="16.9595956"><ele>147.66666666666666</ele><time>2026-03-28T14:25:46.182Z</time></trkpt><trkpt lat="39.2433074" lon="16.9596656"><ele>145.0</ele><time>2026-03-28T14:25:47.188Z</time></trkpt><trkpt lat="39.2433451" lon="16.9597493"><ele>142.33333333333331</ele><time>2026-03-28T14:25:48.182Z</time></trkpt><trkpt lat="39.2433671" lon="16.9598472"><ele>139.66666666666666</ele><time>2026-03-28T14:25:49.179Z</time></trkpt><trkpt lat="39.2433873" lon="16.9599395"><ele>137.0</ele><time>2026-03-28T14:25:50.18Z</time></trkpt><trkpt lat="39.2434141" lon="16.9600257"><ele>136.83333333333331</ele><time>2026-03-28T14:25:51.192Z</time></trkpt><trkpt lat="39.2434476" lon="16.960113"><ele>136.66666666666666</ele><time>2026-03-28T14:25:52.184Z</time></trkpt><trkpt lat="39.2434777" lon="16.9602009"><ele>136.5</ele><time>2026-03-28T14:25:53.182Z</time></trkpt><trkpt lat="39.2435036" lon="16.960281"><ele>136.33333333333334</ele><time>2026-03-28T14:25:54.185Z</time></trkpt><trkpt lat="39.2435428" lon="16.9604117"><ele>136.16666666666669</ele><time>2026-03-28T14:25:56.186Z</time></trkpt><trkpt lat="39.2435705" lon="16.9604933"><ele>136.0</ele><time>2026-03-28T14:25:58.186Z</time></trkpt><trkpt lat="39.2436251" lon="16.9605911"><ele>136.0</ele><time>2026-03-28T14:26:02.18Z</time></trkpt><trkpt lat="39.2437369" lon="16.9606864"><ele>136.0</ele><time>2026-03-28T14:26:04.187Z</time></trkpt><trkpt lat="39.2438158" lon="16.9607357"><ele>136.0</ele><time>2026-03-28T14:26:05.184Z</time></trkpt><trkpt lat="39.243896" lon="16.9607903"><ele>136.0</ele><time>2026-03-28T14:26:06.18Z</time></trkpt><trkpt lat="39.2439616" lon="16.9608746"><ele>136.0</ele><time>2026-03-28T14:26:07.18Z</time></trkpt><trkpt lat="39.2440218" lon="16.9609605"><ele>136.16666666666669</ele><time>2026-03-28T14:26:08.177Z</time></trkpt><trkpt lat="39.2440725" lon="16.9610311"><ele>136.33333333333334</ele><time>2026-03-28T14:26:09.181Z</time></trkpt><trkpt lat="39.2441776" lon="16.9610723"><ele>136.5</ele><time>2026-03-28T14:26:11.179Z</time></trkpt><trkpt lat="39.2442465" lon="16.961052"><ele>136.66666666666666</ele><time>2026-03-28T14:26:12.198Z</time></trkpt><trkpt lat="39.2443257" lon="16.9610278"><ele>136.83333333333331</ele><time>2026-03-28T14:26:13.182Z</time></trkpt><trkpt lat="39.2444199" lon="16.9609812"><ele>137.0</ele><time>2026-03-28T14:26:14.179Z</time></trkpt><trkpt lat="39.2445293" lon="16.9609193"><ele>137.0</ele><time>2026-03-28T14:26:15.189Z</time></trkpt><trkpt lat="39.2446491" lon="16.9608667"><ele>137.0</ele><time>2026-03-28T14:26:16.184Z</time></trkpt><trkpt lat="39.244764" lon="16.9608339"><ele>137.0</ele><time>2026-03-28T14:26:17.185Z</time></trkpt><trkpt lat="39.2448658" lon="16.9608154"><ele>137.0</ele><time>2026-03-28T14:26:18.182Z</time></trkpt><trkpt lat="39.2449539" lon="16.9608048"><ele>137.0</ele><time>2026-03-28T14:26:19.186Z</time></trkpt><trkpt lat="39.2450243" lon="16.9608237"><ele>138.6</ele><time>2026-03-28T14:26:20.181Z</time></trkpt><trkpt lat="39.2450893" lon="16.960843"><ele>140.2</ele><time>2026-03-28T14:26:21.184Z</time></trkpt><trkpt lat="39.2452286" lon="16.9607784"><ele>141.8</ele><time>2026-03-28T14:26:23.195Z</time></trkpt><trkpt lat="39.245322" lon="16.9607229"><ele>143.4</ele><time>2026-03-28T14:26:24.187Z</time></trkpt><trkpt lat="39.2454247" lon="16.9606681"><ele>145.0</ele><time>2026-03-28T14:26:25.18Z</time></trkpt><trkpt lat="39.2455285" lon="16.9606129"><ele>147.0</ele><time>2026-03-28T14:26:26.193Z</time></trkpt><trkpt lat="39.2456296" lon="16.9605596"><ele>149.0</ele><time>2026-03-28T14:26:27.192Z</time></trkpt><trkpt lat="39.2457243" lon="16.9605093"><ele>151.0</ele><time>2026-03-28T14:26:28.19Z</time></trkpt><trkpt lat="39.2458146" lon="16.9604617"><ele>153.0</ele><time>2026-03-28T14:26:29.178Z</time></trkpt><trkpt lat="39.2459016" lon="16.9604143"><ele>155.0</ele><time>2026-03-28T14:26:30.198Z</time></trkpt><trkpt lat="39.2459847" lon="16.9603707"><ele>155.0</ele><time>2026-03-28T14:26:31.179Z</time></trkpt><trkpt lat="39.2460658" lon="16.9603257"><ele>155.0</ele><time>2026-03-28T14:26:32.188Z</time></trkpt><trkpt lat="39.2461382" lon="16.9602789"><ele>155.0</ele><time>2026-03-28T14:26:33.185Z</time></trkpt><trkpt lat="39.2462065" lon="16.9602262"><ele>155.0</ele><time>2026-03-28T14:26:34.193Z</time></trkpt><trkpt lat="39.2462782" lon="16.9601782"><ele>155.0</ele><time>2026-03-28T14:26:35.194Z</time></trkpt><trkpt lat="39.2463503" lon="16.9601348"><ele>155.0</ele><time>2026-03-28T14:26:36.186Z</time></trkpt><trkpt lat="39.2464182" lon="16.9600941"><ele>157.6</ele><time>2026-03-28T14:26:37.193Z</time></trkpt><trkpt lat="39.2464876" lon="16.9600835"><ele>160.2</ele><time>2026-03-28T14:26:38.193Z</time></trkpt><trkpt lat="39.2465508" lon="16.960092"><ele>162.8</ele><time>2026-03-28T14:26:39.192Z</time></trkpt><trkpt lat="39.2466618" lon="16.9601477"><ele>165.4</ele><time>2026-03-28T14:26:41.186Z</time></trkpt><trkpt lat="39.24677" lon="16.9601934"><ele>168.0</ele><time>2026-03-28T14:26:43.183Z</time></trkpt><trkpt lat="39.2468523" lon="16.9602177"><ele>168.0</ele><time>2026-03-28T14:26:45.21Z</time></trkpt><trkpt lat="39.2468958" lon="16.9601385"><ele>168.0</ele><time>2026-03-28T14:26:47.185Z</time></trkpt><trkpt lat="39.2468586" lon="16.9599832"><ele>168.0</ele><time>2026-03-28T14:26:49.182Z</time></trkpt><trkpt lat="39.2468337" lon="16.9599039"><ele>168.0</ele><time>2026-03-28T14:26:50.184Z</time></trkpt><trkpt lat="39.2468253" lon="16.9597768"><ele>168.0</ele><time>2026-03-28T14:26:52.184Z</time></trkpt><trkpt lat="39.246874" lon="16.9597154"><ele>168.0</ele><time>2026-03-28T14:26:55.189Z</time></trkpt><trkpt lat="39.2469416" lon="16.9597235"><ele>169.8</ele><time>2026-03-28T14:27:07.18Z</time></trkpt><trkpt lat="39.2470328" lon="16.9598058"><ele>171.60000000000002</ele><time>2026-03-28T14:27:09.184Z</time></trkpt><trkpt lat="39.2471369" lon="16.959908"><ele>173.39999999999998</ele><time>2026-03-28T14:27:11.183Z</time></trkpt><trkpt lat="39.2471998" lon="16.959962"><ele>175.2</ele><time>2026-03-28T14:27:12.184Z</time></trkpt><trkpt lat="39.2472696" lon="16.960003"><ele>177.0</ele><time>2026-03-28T14:27:13.182Z</time></trkpt><trkpt lat="39.2473447" lon="16.9600278"><ele>178.33333333333334</ele><time>2026-03-28T14:27:14.188Z</time></trkpt><trkpt lat="39.2474217" lon="16.960045"><ele>179.66666666666666</ele><time>2026-03-28T14:27:15.186Z</time></trkpt><trkpt lat="39.2474971" lon="16.9600675"><ele>181.0</ele><time>2026-03-28T14:27:16.193Z</time></trkpt><trkpt lat="39.2475619" lon="16.9601088"><ele>182.33333333333331</ele><time>2026-03-28T14:27:17.18Z</time></trkpt><trkpt lat="39.2476204" lon="16.9601696"><ele>183.66666666666666</ele><time>2026-03-28T14:27:18.182Z</time></trkpt><trkpt lat="39.2476864" lon="16.9602522"><ele>185.0</ele><time>2026-03-28T14:27:19.179Z</time></trkpt><trkpt lat="39.2477605" lon="16.9603313"><ele>185.0</ele><time>2026-03-28T14:27:20.185Z</time></trkpt><trkpt lat="39.2478298" lon="16.9604069"><ele>185.0</ele><time>2026-03-28T14:27:21.18Z</time></trkpt><trkpt lat="39.2478778" lon="16.9604905"><ele>185.0</ele><time>2026-03-28T14:27:22.183Z</time></trkpt><trkpt lat="39.2479169" lon="16.9605748"><ele>185.0</ele><time>2026-03-28T14:27:23.179Z</time></trkpt><trkpt lat="39.2479394" lon="16.9606663"><ele>185.0</ele><time>2026-03-28T14:27:24.178Z</time></trkpt><trkpt lat="39.2479645" lon="16.9607571"><ele>185.0</ele><time>2026-03-28T14:27:25.18Z</time></trkpt><trkpt lat="39.248005" lon="16.9608385"><ele>182.4</ele><time>2026-03-28T14:27:26.176Z</time></trkpt><trkpt lat="39.2480519" lon="16.960926"><ele>179.8</ele><time>2026-03-28T14:27:27.182Z</time></trkpt><trkpt lat="39.2481036" lon="16.9610169"><ele>177.2</ele><time>2026-03-28T14:27:28.177Z</time></trkpt><trkpt lat="39.2481604" lon="16.9611212"><ele>174.6</ele><time>2026-03-28T14:27:29.181Z</time></trkpt><trkpt lat="39.2482251" lon="16.9612336"><ele>172.0</ele><time>2026-03-28T14:27:30.189Z</time></trkpt><trkpt lat="39.2482931" lon="16.9613416"><ele>174.8</ele><time>2026-03-28T14:27:31.182Z</time></trkpt><trkpt lat="39.2483625" lon="16.9614471"><ele>177.6</ele><time>2026-03-28T14:27:32.192Z</time></trkpt><trkpt lat="39.2484317" lon="16.9615493"><ele>180.4</ele><time>2026-03-28T14:27:33.186Z</time></trkpt><trkpt lat="39.2485031" lon="16.9616432"><ele>183.20000000000002</ele><time>2026-03-28T14:27:34.183Z</time></trkpt><trkpt lat="39.248581" lon="16.9617333"><ele>186.0</ele><time>2026-03-28T14:27:35.189Z</time></trkpt><trkpt lat="39.248665" lon="16.9618181"><ele>186.0</ele><time>2026-03-28T14:27:36.181Z</time></trkpt><trkpt lat="39.2487509" lon="16.9618837"><ele>186.0</ele><time>2026-03-28T14:27:37.18Z</time></trkpt><trkpt lat="39.2488315" lon="16.9619237"><ele>186.0</ele><time>2026-03-28T14:27:38.18Z</time></trkpt><trkpt lat="39.2489011" lon="16.96192"><ele>186.0</ele><time>2026-03-28T14:27:39.205Z</time></trkpt><trkpt lat="39.2489868" lon="16.961823"><ele>186.0</ele><time>2026-03-28T14:27:41.191Z</time></trkpt><trkpt lat="39.2489835" lon="16.9617024"><ele>188.5</ele><time>2026-03-28T14:27:43.181Z</time></trkpt><trkpt lat="39.2489567" lon="16.9616104"><ele>191.0</ele><time>2026-03-28T14:29:08.201Z</time></trkpt><trkpt lat="39.2489395" lon="16.9615127"><ele>193.5</ele><time>2026-03-28T14:29:11.187Z</time></trkpt><trkpt lat="39.2489561" lon="16.9614174"><ele>196.0</ele><time>2026-03-28T14:29:15.199Z</time></trkpt><trkpt lat="39.2489202" lon="16.9612988"><ele>198.5</ele><time>2026-03-28T14:29:17.198Z</time></trkpt><trkpt lat="39.2488482" lon="16.9612383"><ele>201.0</ele><time>2026-03-28T14:29:18.191Z</time></trkpt><trkpt lat="39.248748" lon="16.9611713"><ele>201.0</ele><time>2026-03-28T14:29:19.201Z</time></trkpt><trkpt lat="39.2486416" lon="16.9611003"><ele>201.0</ele><time>2026-03-28T14:29:20.196Z</time></trkpt><trkpt lat="39.2485451" lon="16.9610249"><ele>201.0</ele><time>2026-03-28T14:29:21.198Z</time></trkpt><trkpt lat="39.2484615" lon="16.9609547"><ele>201.0</ele><time>2026-03-28T14:29:22.198Z</time></trkpt><trkpt lat="39.2483979" lon="16.9608905"><ele>201.0</ele><time>2026-03-28T14:29:23.198Z</time></trkpt><trkpt lat="39.2483768" lon="16.960801"><ele>204.5</ele><time>2026-03-28T14:29:24.194Z</time></trkpt><trkpt lat="39.2483767" lon="16.960716"><ele>208.0</ele><time>2026-03-28T14:29:25.198Z</time></trkpt><trkpt lat="39.2484249" lon="16.9606521"><ele>211.5</ele><time>2026-03-28T14:29:26.2Z</time></trkpt><trkpt lat="39.2484986" lon="16.9605945"><ele>215.0</ele><time>2026-03-28T14:29:27.197Z</time></trkpt><trkpt lat="39.2485806" lon="16.9605413"><ele>218.5</ele><time>2026-03-28T14:29:28.193Z</time></trkpt><trkpt lat="39.2486594" lon="16.9604965"><ele>222.0</ele><time>2026-03-28T14:29:29.209Z</time></trkpt><trkpt lat="39.2487364" lon="16.9604569"><ele>222.0</ele><time>2026-03-28T14:29:30.199Z</time></trkpt><trkpt lat="39.2488206" lon="16.9604452"><ele>222.0</ele><time>2026-03-28T14:29:31.195Z</time></trkpt><trkpt lat="39.248916" lon="16.9604471"><ele>222.0</ele><time>2026-03-28T14:29:32.204Z</time></trkpt><trkpt lat="39.2490428" lon="16.9604807"><ele>222.0</ele><time>2026-03-28T14:29:33.191Z</time></trkpt><trkpt lat="39.2491692" lon="16.9605251"><ele>222.0</ele><time>2026-03-28T14:29:34.2Z</time></trkpt><trkpt lat="39.2492789" lon="16.9605616"><ele>224.83333333333334</ele><time>2026-03-28T14:29:35.202Z</time></trkpt><trkpt lat="39.2493682" lon="16.9605806"><ele>227.66666666666669</ele><time>2026-03-28T14:29:36.2Z</time></trkpt><trkpt lat="39.2494384" lon="16.9605667"><ele>230.5</ele><time>2026-03-28T14:29:37.204Z</time></trkpt><trkpt lat="39.2494912" lon="16.9605074"><ele>233.33333333333334</ele><time>2026-03-28T14:29:38.211Z</time></trkpt><trkpt lat="39.249536" lon="16.960449"><ele>236.16666666666669</ele><time>2026-03-28T14:29:39.213Z</time></trkpt><trkpt lat="39.249568" lon="16.960292"><ele>239.0</ele><time>2026-03-28T14:29:41.199Z</time></trkpt><trkpt lat="39.2495821" lon="16.9601789"><ele>239.0</ele><time>2026-03-28T14:29:42.195Z</time></trkpt><trkpt lat="39.2496118" lon="16.9600474"><ele>238.99999999999997</ele><time>2026-03-28T14:29:43.197Z</time></trkpt><trkpt lat="39.2496543" lon="16.9599165"><ele>238.99999999999997</ele><time>2026-03-28T14:29:44.2Z</time></trkpt><trkpt lat="39.2497134" lon="16.9598048"><ele>239.0</ele><time>2026-03-28T14:29:45.191Z</time></trkpt><trkpt lat="39.2497699" lon="16.959702"><ele>239.0</ele><time>2026-03-28T14:29:46.201Z</time></trkpt><trkpt lat="39.2498505" lon="16.959636"><ele>238.0</ele><time>2026-03-28T14:29:47.224Z</time></trkpt><trkpt lat="39.2499502" lon="16.9595958"><ele>236.99999999999997</ele><time>2026-03-28T14:29:48.209Z</time></trkpt><trkpt lat="39.2500554" lon="16.9595622"><ele>235.99999999999997</ele><time>2026-03-28T14:29:49.205Z</time></trkpt><trkpt lat="39.2501525" lon="16.9595276"><ele>235.0</ele><time>2026-03-28T14:29:50.214Z</time></trkpt><trkpt lat="39.2502351" lon="16.9594899"><ele>234.0</ele><time>2026-03-28T14:29:51.202Z</time></trkpt><trkpt lat="39.2503109" lon="16.9594451"><ele>234.0</ele><time>2026-03-28T14:29:52.205Z</time></trkpt><trkpt lat="39.250369" lon="16.9593838"><ele>234.0</ele><time>2026-03-28T14:29:53.193Z</time></trkpt><trkpt lat="39.2504137" lon="16.9593042"><ele>234.0</ele><time>2026-03-28T14:29:54.219Z</time></trkpt><trkpt lat="39.2504437" lon="16.9592063"><ele>234.0</ele><time>2026-03-28T14:29:55.206Z</time></trkpt><trkpt lat="39.2504675" lon="16.9590866"><ele>234.0</ele><time>2026-03-28T14:29:56.203Z</time></trkpt><trkpt lat="39.2504846" lon="16.9589577"><ele>234.0</ele><time>2026-03-28T14:29:57.2Z</time></trkpt><trkpt lat="39.2504939" lon="16.9588224"><ele>238.5</ele><time>2026-03-28T14:29:58.209Z</time></trkpt><trkpt lat="39.2505051" lon="16.9586865"><ele>243.0</ele><time>2026-03-28T14:29:59.203Z</time></trkpt><trkpt lat="39.2505188" lon="16.9585497"><ele>247.5</ele><time>2026-03-28T14:30:00.206Z</time></trkpt><trkpt lat="39.2505416" lon="16.9584048"><ele>252.0</ele><time>2026-03-28T14:30:01.208Z</time></trkpt><trkpt lat="39.2505727" lon="16.9582372"><ele>252.0</ele><time>2026-03-28T14:30:02.202Z</time></trkpt><trkpt lat="39.2506174" lon="16.9580402"><ele>252.0</ele><time>2026-03-28T14:30:03.2Z</time></trkpt><trkpt lat="39.2506656" lon="16.9578349"><ele>252.0</ele><time>2026-03-28T14:30:04.215Z</time></trkpt><trkpt lat="39.2507178" lon="16.9576456"><ele>254.25</ele><time>2026-03-28T14:30:05.206Z</time></trkpt><trkpt lat="39.2507752" lon="16.9574745"><ele>256.5</ele><time>2026-03-28T14:30:06.203Z</time></trkpt><trkpt lat="39.2508445" lon="16.957322"><ele>258.75</ele><time>2026-03-28T14:30:07.201Z</time></trkpt><trkpt lat="39.2509387" lon="16.9571974"><ele>261.0</ele><time>2026-03-28T14:30:08.202Z</time></trkpt><trkpt lat="39.2510522" lon="16.9570806"><ele>261.0</ele><time>2026-03-28T14:30:09.196Z</time></trkpt><trkpt lat="39.2511788" lon="16.9569623"><ele>261.0</ele><time>2026-03-28T14:30:10.204Z</time></trkpt><trkpt lat="39.2513202" lon="16.9568459"><ele>261.0</ele><time>2026-03-28T14:30:11.196Z</time></trkpt><trkpt lat="39.2514654" lon="16.9567267"><ele>262.75</ele><time>2026-03-28T14:30:12.198Z</time></trkpt><trkpt lat="39.2515981" lon="16.9566133"><ele>264.5</ele><time>2026-03-28T14:30:13.203Z</time></trkpt><trkpt lat="39.251716" lon="16.9565049"><ele>266.25</ele><time>2026-03-28T14:30:14.192Z</time></trkpt><trkpt lat="39.2518245" lon="16.9564063"><ele>268.0</ele><time>2026-03-28T14:30:15.203Z</time></trkpt><trkpt lat="39.2519161" lon="16.9563231"><ele>268.0</ele><time>2026-03-28T14:30:16.196Z</time></trkpt><trkpt lat="39.2519942" lon="16.9562506"><ele>268.0</ele><time>2026-03-28T14:30:17.198Z</time></trkpt><trkpt lat="39.2520593" lon="16.9561893"><ele>268.0</ele><time>2026-03-28T14:30:18.202Z</time></trkpt><trkpt lat="39.2521226" lon="16.9561422"><ele>268.0</ele><time>2026-03-28T14:30:19.205Z</time></trkpt><trkpt lat="39.2522044" lon="16.9560383"><ele>268.0</ele><time>2026-03-28T14:30:21.208Z</time></trkpt><trkpt lat="39.2522416" lon="16.9559646"><ele>268.0</ele><time>2026-03-28T14:30:22.2Z</time></trkpt><trkpt lat="39.2522775" lon="16.9558906"><ele>267.3333333333333</ele><time>2026-03-28T14:30:23.202Z</time></trkpt><trkpt lat="39.2522989" lon="16.9558115"><ele>266.66666666666663</ele><time>2026-03-28T14:30:24.204Z</time></trkpt><trkpt lat="39.2523109" lon="16.9556421"><ele>266.0</ele><time>2026-03-28T14:30:26.227Z</time></trkpt><trkpt lat="39.2522996" lon="16.9555439"><ele>265.3333333333333</ele><time>2026-03-28T14:30:27.209Z</time></trkpt><trkpt lat="39.2522773" lon="16.9554411"><ele>264.6666666666667</ele><time>2026-03-28T14:30:28.205Z</time></trkpt><trkpt lat="39.2522436" lon="16.9553374"><ele>264.0</ele><time>2026-03-28T14:30:29.202Z</time></trkpt><trkpt lat="39.2522013" lon="16.9552362"><ele>266.6666666666667</ele><time>2026-03-28T14:30:30.207Z</time></trkpt><trkpt lat="39.252147" lon="16.9551506"><ele>269.3333333333333</ele><time>2026-03-28T14:30:31.189Z</time></trkpt><trkpt lat="39.2520903" lon="16.9550853"><ele>272.0</ele><time>2026-03-28T14:30:32.19Z</time></trkpt><trkpt lat="39.2520317" lon="16.9550256"><ele>274.66666666666663</ele><time>2026-03-28T14:30:33.203Z</time></trkpt><trkpt lat="39.2519681" lon="16.9549605"><ele>277.3333333333333</ele><time>2026-03-28T14:30:34.197Z</time></trkpt><trkpt lat="39.2519157" lon="16.954909"><ele>280.0</ele><time>2026-03-28T14:30:35.201Z</time></trkpt><trkpt lat="39.2518121" lon="16.9548209"><ele>280.2</ele><time>2026-03-28T14:30:37.197Z</time></trkpt><trkpt lat="39.2517273" lon="16.9547311"><ele>280.4</ele><time>2026-03-28T14:30:39.196Z</time></trkpt><trkpt lat="39.2516514" lon="16.9546383"><ele>280.6</ele><time>2026-03-28T14:30:41.2Z</time></trkpt><trkpt lat="39.2516063" lon="16.9545135"><ele>280.8</ele><time>2026-03-28T14:30:43.197Z</time></trkpt><trkpt lat="39.25157" lon="16.9543736"><ele>281.0</ele><time>2026-03-28T14:30:45.199Z</time></trkpt><trkpt lat="39.2514998" lon="16.9543175"><ele>282.28571428571433</ele><time>2026-03-28T14:30:47.197Z</time></trkpt><trkpt lat="39.2514228" lon="16.9543979"><ele>283.57142857142856</ele><time>2026-03-28T14:30:49.217Z</time></trkpt><trkpt lat="39.2514029" lon="16.9544772"><ele>284.8571428571429</ele><time>2026-03-28T14:30:50.187Z</time></trkpt><trkpt lat="39.2513905" lon="16.9545643"><ele>286.14285714285717</ele><time>2026-03-28T14:30:51.196Z</time></trkpt><trkpt lat="39.2513758" lon="16.9546507"><ele>287.42857142857144</ele><time>2026-03-28T14:30:52.205Z</time></trkpt><trkpt lat="39.2513634" lon="16.9547345"><ele>288.7142857142857</ele><time>2026-03-28T14:30:53.206Z</time></trkpt><trkpt lat="39.2513512" lon="16.9548173"><ele>290.0</ele><time>2026-03-28T14:30:54.2Z</time></trkpt><trkpt lat="39.2513405" lon="16.9549005"><ele>290.0</ele><time>2026-03-28T14:30:55.192Z</time></trkpt><trkpt lat="39.2513314" lon="16.9549873"><ele>290.0</ele><time>2026-03-28T14:30:56.2Z</time></trkpt><trkpt lat="39.251321" lon="16.9550829"><ele>290.0</ele><time>2026-03-28T14:30:57.2Z</time></trkpt><trkpt lat="39.2513094" lon="16.9551848"><ele>290.0</ele><time>2026-03-28T14:30:58.213Z</time></trkpt><trkpt lat="39.2513004" lon="16.9552901"><ele>290.0</ele><time>2026-03-28T14:30:59.186Z</time></trkpt><trkpt lat="39.2512916" lon="16.9553993"><ele>290.0</ele><time>2026-03-28T14:31:00.195Z</time></trkpt><trkpt lat="39.2512726" lon="16.9555043"><ele>289.83333333333337</ele><time>2026-03-28T14:31:01.195Z</time></trkpt><trkpt lat="39.2512418" lon="16.9555958"><ele>289.6666666666667</ele><time>2026-03-28T14:31:02.209Z</time></trkpt><trkpt lat="39.2511907" lon="16.9556736"><ele>289.5</ele><time>2026-03-28T14:31:03.196Z</time></trkpt><trkpt lat="39.2511245" lon="16.9557429"><ele>289.3333333333333</ele><time>2026-03-28T14:31:04.204Z</time></trkpt><trkpt lat="39.2510475" lon="16.955809"><ele>289.16666666666663</ele><time>2026-03-28T14:31:05.195Z</time></trkpt><trkpt lat="39.2509679" lon="16.9558647"><ele>289.0</ele><time>2026-03-28T14:31:06.202Z</time></trkpt><trkpt lat="39.2508785" lon="16.9558861"><ele>289.0</ele><time>2026-03-28T14:31:07.201Z</time></trkpt><trkpt lat="39.2507883" lon="16.9558946"><ele>289.0</ele><time>2026-03-28T14:31:08.205Z</time></trkpt><trkpt lat="39.2506946" lon="16.955857"><ele>289.0</ele><time>2026-03-28T14:31:09.198Z</time></trkpt><trkpt lat="39.2506056" lon="16.9558127"><ele>289.0</ele><time>2026-03-28T14:31:10.197Z</time></trkpt><trkpt lat="39.2505311" lon="16.955742"><ele>289.0</ele><time>2026-03-28T14:31:11.192Z</time></trkpt><trkpt lat="39.2504593" lon="16.9556643"><ele>290.4</ele><time>2026-03-28T14:31:12.203Z</time></trkpt><trkpt lat="39.2503829" lon="16.9555833"><ele>291.79999999999995</ele><time>2026-03-28T14:31:13.199Z</time></trkpt><trkpt lat="39.2502909" lon="16.9554934"><ele>293.20000000000005</ele><time>2026-03-28T14:31:14.199Z</time></trkpt><trkpt lat="39.2501973" lon="16.9554134"><ele>294.6</ele><time>2026-03-28T14:31:15.195Z</time></trkpt><trkpt lat="39.2501037" lon="16.955345"><ele>296.0</ele><time>2026-03-28T14:31:16.197Z</time></trkpt><trkpt lat="39.250007" lon="16.9552867"><ele>296.0</ele><time>2026-03-28T14:31:17.202Z</time></trkpt><trkpt lat="39.2499088" lon="16.955227"><ele>296.0</ele><time>2026-03-28T14:31:18.188Z</time></trkpt><trkpt lat="39.2497933" lon="16.9551752"><ele>296.0</ele><time>2026-03-28T14:31:19.199Z</time></trkpt><trkpt lat="39.2496598" lon="16.955165"><ele>296.0</ele><time>2026-03-28T14:31:20.201Z</time></trkpt><trkpt lat="39.2495224" lon="16.9551707"><ele>297.33333333333337</ele><time>2026-03-28T14:31:21.213Z</time></trkpt><trkpt lat="39.2494157" lon="16.9551378"><ele>298.6666666666667</ele><time>2026-03-28T14:31:22.196Z</time></trkpt><trkpt lat="39.249337" lon="16.9551167"><ele>300.0</ele><time>2026-03-28T14:31:23.204Z</time></trkpt><trkpt lat="39.2492731" lon="16.955105"><ele>301.3333333333333</ele><time>2026-03-28T14:31:24.206Z</time></trkpt><trkpt lat="39.2491585" lon="16.9551569"><ele>302.66666666666663</ele><time>2026-03-28T14:31:26.201Z</time></trkpt><trkpt lat="39.2491004" lon="16.9552024"><ele>304.0</ele><time>2026-03-28T14:31:27.197Z</time></trkpt><trkpt lat="39.2490561" lon="16.9552706"><ele>304.0</ele><time>2026-03-28T14:31:28.194Z</time></trkpt><trkpt lat="39.2490247" lon="16.9553485"><ele>304.0</ele><time>2026-03-28T14:31:29.184Z</time></trkpt><trkpt lat="39.2489946" lon="16.9554297"><ele>304.0</ele><time>2026-03-28T14:31:30.198Z</time></trkpt><trkpt lat="39.2489685" lon="16.9555101"><ele>304.0</ele><time>2026-03-28T14:31:31.205Z</time></trkpt><trkpt lat="39.2489256" lon="16.9556862"><ele>304.0</ele><time>2026-03-28T14:31:33.2Z</time></trkpt><trkpt lat="39.2489012" lon="16.9557857"><ele>304.0</ele><time>2026-03-28T14:31:34.203Z</time></trkpt><trkpt lat="39.2488618" lon="16.9558886"><ele>302.3333333333333</ele><time>2026-03-28T14:31:35.2Z</time></trkpt><trkpt lat="39.2488087" lon="16.955977"><ele>300.66666666666663</ele><time>2026-03-28T14:31:36.199Z</time></trkpt><trkpt lat="39.248752" lon="16.9560542"><ele>299.0</ele><time>2026-03-28T14:31:37.214Z</time></trkpt><trkpt lat="39.2486867" lon="16.956111"><ele>297.3333333333333</ele><time>2026-03-28T14:31:38.197Z</time></trkpt><trkpt lat="39.2486295" lon="16.9561749"><ele>295.6666666666667</ele><time>2026-03-28T14:31:39.195Z</time></trkpt><trkpt lat="39.2485749" lon="16.9562347"><ele>294.0</ele><time>2026-03-28T14:31:40.196Z</time></trkpt><trkpt lat="39.2485228" lon="16.9562935"><ele>294.0</ele><time>2026-03-28T14:31:41.197Z</time></trkpt><trkpt lat="39.2484859" lon="16.9563608"><ele>294.0</ele><time>2026-03-28T14:31:42.21Z</time></trkpt><trkpt lat="39.24847" lon="16.9565139"><ele>294.0</ele><time>2026-03-28T14:31:44.198Z</time></trkpt><trkpt lat="39.2484919" lon="16.9565968"><ele>294.0</ele><time>2026-03-28T14:31:45.184Z</time></trkpt><trkpt lat="39.2485174" lon="16.9567049"><ele>294.0</ele><time>2026-03-28T14:31:46.204Z</time></trkpt><trkpt lat="39.2485405" lon="16.9568179"><ele>294.0</ele><time>2026-03-28T14:31:47.192Z</time></trkpt><trkpt lat="39.2485672" lon="16.9569235"><ele>293.3333333333333</ele><time>2026-03-28T14:31:48.195Z</time></trkpt><trkpt lat="39.2485946" lon="16.957027"><ele>292.6666666666667</ele><time>2026-03-28T14:31:49.201Z</time></trkpt><trkpt lat="39.2486186" lon="16.9571136"><ele>292.0</ele><time>2026-03-28T14:31:50.194Z</time></trkpt><trkpt lat="39.248638" lon="16.9572106"><ele>291.33333333333337</ele><time>2026-03-28T14:31:52.197Z</time></trkpt><trkpt lat="39.2486464" lon="16.957301"><ele>290.6666666666667</ele><time>2026-03-28T14:31:55.198Z</time></trkpt><trkpt lat="39.2486616" lon="16.9574141"><ele>290.0</ele><time>2026-03-28T14:31:58.198Z</time></trkpt><trkpt lat="39.248737" lon="16.9574336"><ele>290.0</ele><time>2026-03-28T14:32:01.216Z</time></trkpt><trkpt lat="39.2487475" lon="16.9573245"><ele>290.0</ele><time>2026-03-28T14:32:03.181Z</time></trkpt><trkpt lat="39.2487196" lon="16.9571826"><ele>290.0</ele><time>2026-03-28T14:32:05.194Z</time></trkpt><trkpt lat="39.2486991" lon="16.9570786"><ele>290.0</ele><time>2026-03-28T14:32:09.197Z</time></trkpt><trkpt lat="39.2486972" lon="16.9569708"><ele>290.0</ele><time>2026-03-28T14:32:15.197Z</time></trkpt><trkpt lat="39.2487252" lon="16.9568948"><ele>290.0</ele><time>2026-03-28T14:32:52.193Z</time></trkpt><trkpt lat="39.2487727" lon="16.9568357"><ele>290.0</ele><time>2026-03-28T14:53:58.155Z</time></trkpt><trkpt lat="39.2488418" lon="16.9568056"><ele>290.0</ele><time>2026-03-28T14:54:00.185Z</time></trkpt><trkpt lat="39.248907" lon="16.9567663"><ele>290.0</ele><time>2026-03-28T14:54:02.185Z</time></trkpt><trkpt lat="39.248971" lon="16.9567117"><ele>290.0</ele><time>2026-03-28T14:54:04.191Z</time></trkpt><trkpt lat="39.2490778" lon="16.9566324"><ele>290.0</ele><time>2026-03-28T14:54:06.18Z</time></trkpt><trkpt lat="39.2491931" lon="16.9565876"><ele>289.6</ele><time>2026-03-28T14:54:08.175Z</time></trkpt><trkpt lat="39.2492626" lon="16.9566032"><ele>289.2</ele><time>2026-03-28T14:54:09.178Z</time></trkpt><trkpt lat="39.2493461" lon="16.9566557"><ele>288.8</ele><time>2026-03-28T14:54:10.177Z</time></trkpt><trkpt lat="39.2494329" lon="16.9567301"><ele>288.4</ele><time>2026-03-28T14:54:11.178Z</time></trkpt><trkpt lat="39.2495172" lon="16.9567918"><ele>288.0</ele><time>2026-03-28T14:54:12.173Z</time></trkpt><trkpt lat="39.2496028" lon="16.9568368"><ele>286.5</ele><time>2026-03-28T14:54:13.179Z</time></trkpt><trkpt lat="39.2496891" lon="16.9568664"><ele>285.0</ele><time>2026-03-28T14:54:14.176Z</time></trkpt><trkpt lat="39.2497756" lon="16.9568932"><ele>283.5</ele><time>2026-03-28T14:54:15.183Z</time></trkpt><trkpt lat="39.2498588" lon="16.9569209"><ele>282.0</ele><time>2026-03-28T14:54:16.184Z</time></trkpt><trkpt lat="39.2499409" lon="16.9569415"><ele>280.5</ele><time>2026-03-28T14:54:17.183Z</time></trkpt><trkpt lat="39.2500177" lon="16.9569575"><ele>279.0</ele><time>2026-03-28T14:54:18.173Z</time></trkpt><trkpt lat="39.2500854" lon="16.9569723"><ele>277.8</ele><time>2026-03-28T14:54:19.176Z</time></trkpt><trkpt lat="39.2500986" lon="16.9570963"><ele>276.59999999999997</ele><time>2026-03-28T14:54:21.177Z</time></trkpt><trkpt lat="39.2500439" lon="16.9572459"><ele>275.4</ele><time>2026-03-28T14:54:23.175Z</time></trkpt><trkpt lat="39.2499776" lon="16.9573218"><ele>274.2</ele><time>2026-03-28T14:54:24.182Z</time></trkpt><trkpt lat="39.2499082" lon="16.9573979"><ele>273.0</ele><time>2026-03-28T14:54:25.179Z</time></trkpt><trkpt lat="39.2498428" lon="16.9574569"><ele>273.5</ele><time>2026-03-28T14:54:26.191Z</time></trkpt><trkpt lat="39.2497903" lon="16.9575119"><ele>274.0</ele><time>2026-03-28T14:54:27.171Z</time></trkpt><trkpt lat="39.2497341" lon="16.9575487"><ele>274.5</ele><time>2026-03-28T14:54:28.177Z</time></trkpt><trkpt lat="39.2496624" lon="16.9575581"><ele>275.0</ele><time>2026-03-28T14:54:29.171Z</time></trkpt><trkpt lat="39.2495964" lon="16.9575314"><ele>275.5</ele><time>2026-03-28T14:54:30.174Z</time></trkpt><trkpt lat="39.2494849" lon="16.9574774"><ele>276.0</ele><time>2026-03-28T14:54:32.173Z</time></trkpt><trkpt lat="39.2493957" lon="16.9575181"><ele>276.0</ele><time>2026-03-28T14:54:34.184Z</time></trkpt><trkpt lat="39.2493389" lon="16.9576161"><ele>276.0</ele><time>2026-03-28T14:54:36.178Z</time></trkpt><trkpt lat="39.2493477" lon="16.9577882"><ele>276.0</ele><time>2026-03-28T14:54:38.182Z</time></trkpt><trkpt lat="39.2493491" lon="16.9578839"><ele>276.0</ele><time>2026-03-28T14:54:39.182Z</time></trkpt><trkpt lat="39.249352" lon="16.9579763"><ele>276.0</ele><time>2026-03-28T14:54:40.178Z</time></trkpt><trkpt lat="39.2493453" lon="16.9581073"><ele>276.0</ele><time>2026-03-28T14:54:42.178Z</time></trkpt><trkpt lat="39.2493411" lon="16.9582033"><ele>276.0</ele><time>2026-03-28T14:54:44.173Z</time></trkpt><trkpt lat="39.249341" lon="16.9583106"><ele>276.0</ele><time>2026-03-28T14:54:46.171Z</time></trkpt><trkpt lat="39.2493553" lon="16.958399"><ele>276.0</ele><time>2026-03-28T14:54:48.176Z</time></trkpt><trkpt lat="39.2494051" lon="16.9584574"><ele>276.0</ele><time>2026-03-28T14:54:51.182Z</time></trkpt><trkpt lat="39.2495065" lon="16.9584575"><ele>276.0</ele><time>2026-03-28T14:54:54.178Z</time></trkpt><trkpt lat="39.249606" lon="16.9584757"><ele>273.8</ele><time>2026-03-28T14:54:56.173Z</time></trkpt><trkpt lat="39.2496985" lon="16.9585531"><ele>271.6</ele><time>2026-03-28T14:54:58.172Z</time></trkpt><trkpt lat="39.2497839" lon="16.9586453"><ele>269.4</ele><time>2026-03-28T14:55:00.171Z</time></trkpt><trkpt lat="39.2498799" lon="16.958698"><ele>267.2</ele><time>2026-03-28T14:55:02.174Z</time></trkpt><trkpt lat="39.2499439" lon="16.958668"><ele>265.0</ele><time>2026-03-28T14:55:03.186Z</time></trkpt><trkpt lat="39.2500033" lon="16.9586073"><ele>264.4</ele><time>2026-03-28T14:55:04.173Z</time></trkpt><trkpt lat="39.2500672" lon="16.9585337"><ele>263.8</ele><time>2026-03-28T14:55:05.175Z</time></trkpt><trkpt lat="39.2501333" lon="16.9584422"><ele>263.2</ele><time>2026-03-28T14:55:06.176Z</time></trkpt><trkpt lat="39.2502029" lon="16.9583458"><ele>262.6</ele><time>2026-03-28T14:55:07.174Z</time></trkpt><trkpt lat="39.2502546" lon="16.958253"><ele>262.0</ele><time>2026-03-28T14:55:08.174Z</time></trkpt><trkpt lat="39.2502993" lon="16.958166"><ele>262.0</ele><time>2026-03-28T14:55:09.18Z</time></trkpt><trkpt lat="39.2503393" lon="16.9580782"><ele>262.0</ele><time>2026-03-28T14:55:10.183Z</time></trkpt><trkpt lat="39.2503768" lon="16.9579872"><ele>262.0</ele><time>2026-03-28T14:55:11.185Z</time></trkpt><trkpt lat="39.2504126" lon="16.9578964"><ele>262.0</ele><time>2026-03-28T14:55:12.184Z</time></trkpt><trkpt lat="39.2504495" lon="16.9578035"><ele>262.0</ele><time>2026-03-28T14:55:13.173Z</time></trkpt><trkpt lat="39.2504869" lon="16.9577125"><ele>262.0</ele><time>2026-03-28T14:55:14.177Z</time></trkpt><trkpt lat="39.2505224" lon="16.9576241"><ele>261.8333333333333</ele><time>2026-03-28T14:55:15.181Z</time></trkpt><trkpt lat="39.2505475" lon="16.9575304"><ele>261.66666666666663</ele><time>2026-03-28T14:55:16.178Z</time></trkpt><trkpt lat="39.2505689" lon="16.9574301"><ele>261.5</ele><time>2026-03-28T14:55:17.188Z</time></trkpt><trkpt lat="39.2505875" lon="16.9573342"><ele>261.3333333333333</ele><time>2026-03-28T14:55:18.178Z</time></trkpt><trkpt lat="39.2506055" lon="16.9572495"><ele>261.1666666666667</ele><time>2026-03-28T14:55:19.185Z</time></trkpt><trkpt lat="39.2507073" lon="16.9571519"><ele>261.0</ele><time>2026-03-28T14:55:21.18Z</time></trkpt><trkpt lat="39.2507828" lon="16.9571052"><ele>261.0</ele><time>2026-03-28T14:55:22.178Z</time></trkpt><trkpt lat="39.2508765" lon="16.9570587"><ele>261.0</ele><time>2026-03-28T14:55:23.176Z</time></trkpt><trkpt lat="39.25098" lon="16.9570085"><ele>261.0</ele><time>2026-03-28T14:55:24.173Z</time></trkpt><trkpt lat="39.2510811" lon="16.9569549"><ele>261.0</ele><time>2026-03-28T14:55:25.184Z</time></trkpt><trkpt lat="39.2511718" lon="16.9568961"><ele>261.0</ele><time>2026-03-28T14:55:26.174Z</time></trkpt><trkpt lat="39.2512573" lon="16.9568439"><ele>261.0</ele><time>2026-03-28T14:55:27.19Z</time></trkpt><trkpt lat="39.2513454" lon="16.9567997"><ele>261.0</ele><time>2026-03-28T14:55:28.173Z</time></trkpt><trkpt lat="39.2514544" lon="16.9567304"><ele>261.0</ele><time>2026-03-28T14:55:29.181Z</time></trkpt><trkpt lat="39.2515795" lon="16.9566212"><ele>261.0</ele><time>2026-03-28T14:55:30.175Z</time></trkpt><trkpt lat="39.2517041" lon="16.9565"><ele>262.40000000000003</ele><time>2026-03-28T14:55:31.182Z</time></trkpt><trkpt lat="39.2518127" lon="16.9563989"><ele>263.8</ele><time>2026-03-28T14:55:32.176Z</time></trkpt><trkpt lat="39.2519049" lon="16.9563137"><ele>265.20000000000005</ele><time>2026-03-28T14:55:33.178Z</time></trkpt><trkpt lat="39.2519848" lon="16.9562425"><ele>266.6</ele><time>2026-03-28T14:55:34.186Z</time></trkpt><trkpt lat="39.2520474" lon="16.9561858"><ele>268.0</ele><time>2026-03-28T14:55:35.185Z</time></trkpt><trkpt lat="39.2520985" lon="16.9561305"><ele>268.0</ele><time>2026-03-28T14:55:36.192Z</time></trkpt><trkpt lat="39.2521769" lon="16.9560282"><ele>268.0</ele><time>2026-03-28T14:55:38.18Z</time></trkpt><trkpt lat="39.2522332" lon="16.9559422"><ele>268.0</ele><time>2026-03-28T14:55:40.186Z</time></trkpt><trkpt lat="39.2522856" lon="16.95587"><ele>268.0</ele><time>2026-03-28T14:55:42.187Z</time></trkpt><trkpt lat="39.2523409" lon="16.9558099"><ele>268.0</ele><time>2026-03-28T14:55:44.177Z</time></trkpt><trkpt lat="39.2523734" lon="16.9557024"><ele>268.0</ele><time>2026-03-28T14:55:46.185Z</time></trkpt><trkpt lat="39.2523855" lon="16.9555584"><ele>267.2</ele><time>2026-03-28T14:55:48.181Z</time></trkpt><trkpt lat="39.2523915" lon="16.9554151"><ele>266.4</ele><time>2026-03-28T14:55:50.18Z</time></trkpt><trkpt lat="39.2523941" lon="16.955292"><ele>265.59999999999997</ele><time>2026-03-28T14:55:52.179Z</time></trkpt><trkpt lat="39.2523948" lon="16.9551772"><ele>264.8</ele><time>2026-03-28T14:55:54.18Z</time></trkpt><trkpt lat="39.252392" lon="16.9550356"><ele>264.0</ele><time>2026-03-28T14:55:56.169Z</time></trkpt><trkpt lat="39.2523842" lon="16.9549508"><ele>263.8</ele><time>2026-03-28T14:55:57.18Z</time></trkpt><trkpt lat="39.2523703" lon="16.9548636"><ele>263.59999999999997</ele><time>2026-03-28T14:55:58.174Z</time></trkpt><trkpt lat="39.2523539" lon="16.954781"><ele>263.4</ele><time>2026-03-28T14:55:59.183Z</time></trkpt><trkpt lat="39.2523335" lon="16.9546365"><ele>263.2</ele><time>2026-03-28T14:56:01.18Z</time></trkpt><trkpt lat="39.2523565" lon="16.9545034"><ele>263.0</ele><time>2026-03-28T14:56:03.185Z</time></trkpt><trkpt lat="39.2524348" lon="16.9543901"><ele>263.0</ele><time>2026-03-28T14:56:05.177Z</time></trkpt><trkpt lat="39.2524937" lon="16.9543371"><ele>263.0</ele><time>2026-03-28T14:56:06.177Z</time></trkpt><trkpt lat="39.2525504" lon="16.9542758"><ele>263.0</ele><time>2026-03-28T14:56:07.178Z</time></trkpt><trkpt lat="39.2525995" lon="16.9541982"><ele>263.0</ele><time>2026-03-28T14:56:08.183Z</time></trkpt><trkpt lat="39.2526359" lon="16.954106"><ele>263.0</ele><time>2026-03-28T14:56:09.184Z</time></trkpt><trkpt lat="39.2526557" lon="16.9540074"><ele>263.0</ele><time>2026-03-28T14:56:10.179Z</time></trkpt><trkpt lat="39.2526605" lon="16.9539061"><ele>262.0</ele><time>2026-03-28T14:56:11.179Z</time></trkpt><trkpt lat="39.2526572" lon="16.9537972"><ele>261.0</ele><time>2026-03-28T14:56:12.178Z</time></trkpt><trkpt lat="39.2526479" lon="16.9536791"><ele>260.0</ele><time>2026-03-28T14:56:13.176Z</time></trkpt><trkpt lat="39.2526325" lon="16.9535582"><ele>259.0</ele><time>2026-03-28T14:56:14.177Z</time></trkpt><trkpt lat="39.252617" lon="16.9534414"><ele>258.0</ele><time>2026-03-28T14:56:15.179Z</time></trkpt><trkpt lat="39.2526041" lon="16.9533346"><ele>257.0</ele><time>2026-03-28T14:56:16.175Z</time></trkpt><trkpt lat="39.2526183" lon="16.9532402"><ele>256.0</ele><time>2026-03-28T14:56:17.191Z</time></trkpt><trkpt lat="39.2526481" lon="16.9531509"><ele>255.0</ele><time>2026-03-28T14:56:18.175Z</time></trkpt><trkpt lat="39.2526789" lon="16.9530643"><ele>254.0</ele><time>2026-03-28T14:56:19.177Z</time></trkpt><trkpt lat="39.2527057" lon="16.9529733"><ele>253.0</ele><time>2026-03-28T14:56:20.178Z</time></trkpt><trkpt lat="39.2527159" lon="16.9528721"><ele>252.00000000000003</ele><time>2026-03-28T14:56:21.185Z</time></trkpt><trkpt lat="39.2527216" lon="16.9527648"><ele>251.0</ele><time>2026-03-28T14:56:22.177Z</time></trkpt><trkpt lat="39.2527307" lon="16.9526491"><ele>249.50000000000003</ele><time>2026-03-28T14:56:23.187Z</time></trkpt><trkpt lat="39.252746" lon="16.9525362"><ele>248.0</ele><time>2026-03-28T14:56:24.175Z</time></trkpt><trkpt lat="39.2527593" lon="16.9524287"><ele>246.5</ele><time>2026-03-28T14:56:25.18Z</time></trkpt><trkpt lat="39.2527664" lon="16.9523257"><ele>245.0</ele><time>2026-03-28T14:56:26.174Z</time></trkpt><trkpt lat="39.2527601" lon="16.9522292"><ele>243.50000000000003</ele><time>2026-03-28T14:56:27.172Z</time></trkpt><trkpt lat="39.2527597" lon="16.9521451"><ele>242.0</ele><time>2026-03-28T14:56:28.172Z</time></trkpt><trkpt lat="39.2528209" lon="16.952042"><ele>242.0</ele><time>2026-03-28T14:56:30.18Z</time></trkpt><trkpt lat="39.2529556" lon="16.9520389"><ele>242.0</ele><time>2026-03-28T14:56:32.197Z</time></trkpt><trkpt lat="39.2530407" lon="16.9520464"><ele>242.0</ele><time>2026-03-28T14:56:33.179Z</time></trkpt><trkpt lat="39.2531272" lon="16.9520464"><ele>242.0</ele><time>2026-03-28T14:56:34.174Z</time></trkpt><trkpt lat="39.2532118" lon="16.9520398"><ele>242.0</ele><time>2026-03-28T14:56:35.179Z</time></trkpt><trkpt lat="39.2532935" lon="16.952024"><ele>239.66666666666669</ele><time>2026-03-28T14:56:36.179Z</time></trkpt><trkpt lat="39.2533695" lon="16.951991"><ele>237.33333333333334</ele><time>2026-03-28T14:56:37.177Z</time></trkpt><trkpt lat="39.2534315" lon="16.9519344"><ele>235.0</ele><time>2026-03-28T14:56:38.184Z</time></trkpt><trkpt lat="39.2534737" lon="16.9518601"><ele>232.66666666666669</ele><time>2026-03-28T14:56:39.172Z</time></trkpt><trkpt lat="39.2534959" lon="16.9517633"><ele>230.33333333333334</ele><time>2026-03-28T14:56:40.182Z</time></trkpt><trkpt lat="39.2535192" lon="16.9516629"><ele>228.0</ele><time>2026-03-28T14:56:41.178Z</time></trkpt><trkpt lat="39.2535545" lon="16.9515659"><ele>228.0</ele><time>2026-03-28T14:56:42.171Z</time></trkpt><trkpt lat="39.2536034" lon="16.9514764"><ele>228.0</ele><time>2026-03-28T14:56:43.173Z</time></trkpt><trkpt lat="39.2536657" lon="16.9514035"><ele>228.0</ele><time>2026-03-28T14:56:44.175Z</time></trkpt><trkpt lat="39.2537366" lon="16.9513574"><ele>228.0</ele><time>2026-03-28T14:56:45.174Z</time></trkpt><trkpt lat="39.2538148" lon="16.9513398"><ele>228.0</ele><time>2026-03-28T14:56:46.193Z</time></trkpt><trkpt lat="39.2538959" lon="16.9513544"><ele>228.0</ele><time>2026-03-28T14:56:47.173Z</time></trkpt><trkpt lat="39.2539809" lon="16.9513573"><ele>226.16666666666666</ele><time>2026-03-28T14:56:48.18Z</time></trkpt><trkpt lat="39.2540671" lon="16.9513489"><ele>224.33333333333331</ele><time>2026-03-28T14:56:49.178Z</time></trkpt><trkpt lat="39.254153" lon="16.9513519"><ele>222.5</ele><time>2026-03-28T14:56:50.175Z</time></trkpt><trkpt lat="39.2542376" lon="16.9513681"><ele>220.66666666666666</ele><time>2026-03-28T14:56:51.181Z</time></trkpt><trkpt lat="39.2543064" lon="16.9514291"><ele>218.83333333333331</ele><time>2026-03-28T14:56:52.185Z</time></trkpt><trkpt lat="39.2543697" lon="16.9514953"><ele>217.0</ele><time>2026-03-28T14:56:53.171Z</time></trkpt><trkpt lat="39.2544276" lon="16.9515582"><ele>217.0</ele><time>2026-03-28T14:56:54.189Z</time></trkpt><trkpt lat="39.254533" lon="16.9515876"><ele>217.0</ele><time>2026-03-28T14:56:56.181Z</time></trkpt><trkpt lat="39.2546437" lon="16.951561"><ele>217.0</ele><time>2026-03-28T14:56:58.174Z</time></trkpt><trkpt lat="39.2547067" lon="16.951566"><ele>217.0</ele><time>2026-03-28T14:56:59.182Z</time></trkpt><trkpt lat="39.2547948" lon="16.9516409"><ele>217.0</ele><time>2026-03-28T14:57:01.213Z</time></trkpt><trkpt lat="39.2547975" lon="16.9517582"><ele>216.14285714285714</ele><time>2026-03-28T14:57:03.209Z</time></trkpt><trkpt lat="39.2547528" lon="16.9518883"><ele>215.28571428571428</ele><time>2026-03-28T14:57:05.201Z</time></trkpt><trkpt lat="39.2547339" lon="16.9519693"><ele>214.42857142857144</ele><time>2026-03-28T14:57:06.21Z</time></trkpt><trkpt lat="39.2547216" lon="16.9520533"><ele>213.57142857142856</ele><time>2026-03-28T14:57:07.203Z</time></trkpt><trkpt lat="39.2547386" lon="16.9521339"><ele>212.71428571428572</ele><time>2026-03-28T14:57:08.211Z</time></trkpt><trkpt lat="39.254782" lon="16.9521933"><ele>211.85714285714286</ele><time>2026-03-28T14:57:09.187Z</time></trkpt><trkpt lat="39.2548447" lon="16.9522524"><ele>211.0</ele><time>2026-03-28T14:57:10.206Z</time></trkpt><trkpt lat="39.2549104" lon="16.9523071"><ele>210.99999999999997</ele><time>2026-03-28T14:57:11.188Z</time></trkpt><trkpt lat="39.2549708" lon="16.9523585"><ele>211.0</ele><time>2026-03-28T14:57:12.209Z</time></trkpt><trkpt lat="39.2550255" lon="16.952412"><ele>211.0</ele><time>2026-03-28T14:57:13.2Z</time></trkpt><trkpt lat="39.2550764" lon="16.9524682"><ele>211.0</ele><time>2026-03-28T14:57:14.204Z</time></trkpt><trkpt lat="39.2551732" lon="16.9525575"><ele>210.99999999999997</ele><time>2026-03-28T14:57:16.204Z</time></trkpt><trkpt lat="39.255268" lon="16.9526168"><ele>211.0</ele><time>2026-03-28T14:57:18.201Z</time></trkpt><trkpt lat="39.2553469" lon="16.9526548"><ele>209.8</ele><time>2026-03-28T14:57:20.201Z</time></trkpt><trkpt lat="39.2554344" lon="16.9526822"><ele>208.60000000000002</ele><time>2026-03-28T14:57:22.197Z</time></trkpt><trkpt lat="39.2555126" lon="16.9526986"><ele>207.4</ele><time>2026-03-28T14:57:24.201Z</time></trkpt><trkpt lat="39.2556431" lon="16.9527042"><ele>206.2</ele><time>2026-03-28T14:57:26.198Z</time></trkpt><trkpt lat="39.2557282" lon="16.9527117"><ele>205.0</ele><time>2026-03-28T14:57:27.196Z</time></trkpt><trkpt lat="39.2558128" lon="16.9527193"><ele>205.0</ele><time>2026-03-28T14:57:28.201Z</time></trkpt><trkpt lat="39.2558904" lon="16.9527221"><ele>205.0</ele><time>2026-03-28T14:57:29.2Z</time></trkpt><trkpt lat="39.2559634" lon="16.9527193"><ele>205.0</ele><time>2026-03-28T14:57:30.2Z</time></trkpt><trkpt lat="39.2560303" lon="16.9527059"><ele>205.0</ele><time>2026-03-28T14:57:31.199Z</time></trkpt><trkpt lat="39.2560965" lon="16.9526849"><ele>205.0</ele><time>2026-03-28T14:57:32.196Z</time></trkpt><trkpt lat="39.2561586" lon="16.9526499"><ele>205.0</ele><time>2026-03-28T14:57:33.203Z</time></trkpt><trkpt lat="39.256224" lon="16.9526074"><ele>205.0</ele><time>2026-03-28T14:57:34.209Z</time></trkpt><trkpt lat="39.256297" lon="16.9525638"><ele>205.83333333333331</ele><time>2026-03-28T14:57:35.223Z</time></trkpt><trkpt lat="39.25637" lon="16.9525229"><ele>206.66666666666666</ele><time>2026-03-28T14:57:36.197Z</time></trkpt><trkpt lat="39.2564398" lon="16.9524782"><ele>207.5</ele><time>2026-03-28T14:57:37.199Z</time></trkpt><trkpt lat="39.2565076" lon="16.9524262"><ele>208.33333333333331</ele><time>2026-03-28T14:57:38.205Z</time></trkpt><trkpt lat="39.2565776" lon="16.9523679"><ele>209.16666666666666</ele><time>2026-03-28T14:57:39.198Z</time></trkpt><trkpt lat="39.2566525" lon="16.9523086"><ele>210.0</ele><time>2026-03-28T14:57:40.202Z</time></trkpt><trkpt lat="39.2567246" lon="16.952254"><ele>208.16666666666666</ele><time>2026-03-28T14:57:41.202Z</time></trkpt><trkpt lat="39.2567833" lon="16.9522106"><ele>206.33333333333331</ele><time>2026-03-28T14:57:42.199Z</time></trkpt><trkpt lat="39.2568638" lon="16.9521823"><ele>204.5</ele><time>2026-03-28T14:57:44.209Z</time></trkpt><trkpt lat="39.2569399" lon="16.9522203"><ele>202.66666666666666</ele><time>2026-03-28T14:57:47.197Z</time></trkpt><trkpt lat="39.2569857" lon="16.9522996"><ele>200.83333333333331</ele><time>2026-03-28T14:57:49.2Z</time></trkpt><trkpt lat="39.2570324" lon="16.9524454"><ele>199.0</ele><time>2026-03-28T14:57:51.202Z</time></trkpt><trkpt lat="39.2570518" lon="16.9525239"><ele>198.99999999999997</ele><time>2026-03-28T14:57:52.205Z</time></trkpt><trkpt lat="39.2570873" lon="16.952682"><ele>199.0</ele><time>2026-03-28T14:57:54.198Z</time></trkpt><trkpt lat="39.2571007" lon="16.9527725"><ele>199.0</ele><time>2026-03-28T14:57:55.22Z</time></trkpt><trkpt lat="39.2571043" lon="16.9528644"><ele>199.0</ele><time>2026-03-28T14:57:56.204Z</time></trkpt><trkpt lat="39.2570995" lon="16.9529613"><ele>198.99999999999997</ele><time>2026-03-28T14:57:57.209Z</time></trkpt><trkpt lat="39.257088" lon="16.9530583"><ele>199.0</ele><time>2026-03-28T14:57:58.181Z</time></trkpt><trkpt lat="39.2570768" lon="16.953147"><ele>199.0</ele><time>2026-03-28T14:57:59.196Z</time></trkpt><trkpt lat="39.2570558" lon="16.9532987"><ele>199.0</ele><time>2026-03-28T14:58:01.201Z</time></trkpt><trkpt lat="39.2570319" lon="16.9534454"><ele>199.0</ele><time>2026-03-28T14:58:03.213Z</time></trkpt><trkpt lat="39.2570174" lon="16.9536023"><ele>199.0</ele><time>2026-03-28T14:58:05.21Z</time></trkpt><trkpt lat="39.2570262" lon="16.953685"><ele>199.0</ele><time>2026-03-28T14:58:06.201Z</time></trkpt><trkpt lat="39.2570538" lon="16.9537629"><ele>197.83333333333331</ele><time>2026-03-28T14:58:07.199Z</time></trkpt><trkpt lat="39.2571041" lon="16.9538292"><ele>196.66666666666666</ele><time>2026-03-28T14:58:08.198Z</time></trkpt><trkpt lat="39.257171" lon="16.9538914"><ele>195.5</ele><time>2026-03-28T14:58:09.199Z</time></trkpt><trkpt lat="39.2572472" lon="16.9539444"><ele>194.33333333333331</ele><time>2026-03-28T14:58:10.192Z</time></trkpt><trkpt lat="39.2573156" lon="16.9539989"><ele>193.16666666666666</ele><time>2026-03-28T14:58:11.203Z</time></trkpt><trkpt lat="39.2573762" lon="16.9540546"><ele>192.0</ele><time>2026-03-28T14:58:12.195Z</time></trkpt><trkpt lat="39.257439" lon="16.9541138"><ele>190.99999999999997</ele><time>2026-03-28T14:58:13.208Z</time></trkpt><trkpt lat="39.2575025" lon="16.9541671"><ele>190.0</ele><time>2026-03-28T14:58:14.203Z</time></trkpt><trkpt lat="39.2575658" lon="16.9542124"><ele>189.0</ele><time>2026-03-28T14:58:15.212Z</time></trkpt><trkpt lat="39.2576338" lon="16.9542358"><ele>188.0</ele><time>2026-03-28T14:58:16.216Z</time></trkpt><trkpt lat="39.2576996" lon="16.9542534"><ele>187.0</ele><time>2026-03-28T14:58:17.201Z</time></trkpt><trkpt lat="39.2577647" lon="16.9542671"><ele>185.99999999999997</ele><time>2026-03-28T14:58:18.199Z</time></trkpt><trkpt lat="39.2578299" lon="16.9542789"><ele>185.0</ele><time>2026-03-28T14:58:19.195Z</time></trkpt><trkpt lat="39.2578948" lon="16.9542927"><ele>183.99999999999997</ele><time>2026-03-28T14:58:20.199Z</time></trkpt><trkpt lat="39.2579603" lon="16.9543181"><ele>183.0</ele><time>2026-03-28T14:58:21.187Z</time></trkpt><trkpt lat="39.2580275" lon="16.9543473"><ele>182.0</ele><time>2026-03-28T14:58:22.2Z</time></trkpt><trkpt lat="39.2580951" lon="16.9543785"><ele>181.0</ele><time>2026-03-28T14:58:23.2Z</time></trkpt><trkpt lat="39.2581634" lon="16.9544115"><ele>180.0</ele><time>2026-03-28T14:58:24.197Z</time></trkpt><trkpt lat="39.2582302" lon="16.9544524"><ele>178.99999999999997</ele><time>2026-03-28T14:58:25.197Z</time></trkpt><trkpt lat="39.2582929" lon="16.9545057"><ele>178.0</ele><time>2026-03-28T14:58:26.202Z</time></trkpt><trkpt lat="39.2583559" lon="16.9545712"><ele>176.4</ele><time>2026-03-28T14:58:27.194Z</time></trkpt><trkpt lat="39.2584236" lon="16.9546339"><ele>174.8</ele><time>2026-03-28T14:58:28.196Z</time></trkpt><trkpt lat="39.2585047" lon="16.9546897"><ele>173.2</ele><time>2026-03-28T14:58:29.202Z</time></trkpt><trkpt lat="39.2585902" lon="16.954747"><ele>171.6</ele><time>2026-03-28T14:58:30.21Z</time></trkpt><trkpt lat="39.2586753" lon="16.9548044"><ele>170.0</ele><time>2026-03-28T14:58:31.195Z</time></trkpt><trkpt lat="39.2587609" lon="16.9548637"><ele>170.0</ele><time>2026-03-28T14:58:32.202Z</time></trkpt><trkpt lat="39.2588461" lon="16.95492"><ele>170.0</ele><time>2026-03-28T14:58:33.19Z</time></trkpt><trkpt lat="39.2589314" lon="16.9549713"><ele>170.0</ele><time>2026-03-28T14:58:34.195Z</time></trkpt><trkpt lat="39.2590161" lon="16.9550165"><ele>170.0</ele><time>2026-03-28T14:58:35.199Z</time></trkpt><trkpt lat="39.2591032" lon="16.9550585"><ele>170.0</ele><time>2026-03-28T14:58:36.206Z</time></trkpt><trkpt lat="39.2591908" lon="16.9550952"><ele>168.5</ele><time>2026-03-28T14:58:37.2Z</time></trkpt><trkpt lat="39.2592775" lon="16.9551291"><ele>167.0</ele><time>2026-03-28T14:58:38.189Z</time></trkpt><trkpt lat="39.2593623" lon="16.955163"><ele>165.5</ele><time>2026-03-28T14:58:39.201Z</time></trkpt><trkpt lat="39.2594459" lon="16.9551981"><ele>164.0</ele><time>2026-03-28T14:58:40.203Z</time></trkpt><trkpt lat="39.2595288" lon="16.9552207"><ele>162.5</ele><time>2026-03-28T14:58:41.197Z</time></trkpt><trkpt lat="39.2596092" lon="16.9552133"><ele>161.0</ele><time>2026-03-28T14:58:42.196Z</time></trkpt><trkpt lat="39.2596844" lon="16.9551776"><ele>161.0</ele><time>2026-03-28T14:58:43.197Z</time></trkpt><trkpt lat="39.2597623" lon="16.955121"><ele>161.0</ele><time>2026-03-28T14:58:44.194Z</time></trkpt><trkpt lat="39.2598435" lon="16.9550635"><ele>161.0</ele><time>2026-03-28T14:58:45.204Z</time></trkpt><trkpt lat="39.2599237" lon="16.9550219"><ele>161.0</ele><time>2026-03-28T14:58:46.193Z</time></trkpt><trkpt lat="39.2599982" lon="16.9549953"><ele>161.0</ele><time>2026-03-28T14:58:47.196Z</time></trkpt><trkpt lat="39.2600681" lon="16.9550054"><ele>161.0</ele><time>2026-03-28T14:58:48.226Z</time></trkpt><trkpt lat="39.2601363" lon="16.9550505"><ele>159.20000000000002</ele><time>2026-03-28T14:58:49.203Z</time></trkpt><trkpt lat="39.2602019" lon="16.9551213"><ele>157.4</ele><time>2026-03-28T14:58:50.197Z</time></trkpt><trkpt lat="39.2602738" lon="16.9551873"><ele>155.6</ele><time>2026-03-28T14:58:51.187Z</time></trkpt><trkpt lat="39.2603547" lon="16.9552486"><ele>153.8</ele><time>2026-03-28T14:58:52.197Z</time></trkpt><trkpt lat="39.2604384" lon="16.9553119"><ele>152.0</ele><time>2026-03-28T14:58:53.195Z</time></trkpt><trkpt lat="39.2605285" lon="16.9553795"><ele>150.2</ele><time>2026-03-28T14:58:54.208Z</time></trkpt><trkpt lat="39.2606193" lon="16.9554468"><ele>148.39999999999998</ele><time>2026-03-28T14:58:55.212Z</time></trkpt><trkpt lat="39.2607066" lon="16.955512"><ele>146.60000000000002</ele><time>2026-03-28T14:58:56.197Z</time></trkpt><trkpt lat="39.2607933" lon="16.9555745"><ele>144.8</ele><time>2026-03-28T14:58:57.199Z</time></trkpt><trkpt lat="39.2608806" lon="16.9556358"><ele>143.0</ele><time>2026-03-28T14:58:58.201Z</time></trkpt><trkpt lat="39.2609672" lon="16.9556994"><ele>143.0</ele><time>2026-03-28T14:58:59.202Z</time></trkpt><trkpt lat="39.2610453" lon="16.9557769"><ele>143.0</ele><time>2026-03-28T14:59:00.198Z</time></trkpt><trkpt lat="39.2611197" lon="16.9558643"><ele>143.0</ele><time>2026-03-28T14:59:01.192Z</time></trkpt><trkpt lat="39.2611901" lon="16.9559542"><ele>143.0</ele><time>2026-03-28T14:59:02.211Z</time></trkpt><trkpt lat="39.2612554" lon="16.9560373"><ele>143.0</ele><time>2026-03-28T14:59:03.198Z</time></trkpt><trkpt lat="39.2613151" lon="16.9561152"><ele>142.83333333333331</ele><time>2026-03-28T14:59:04.194Z</time></trkpt><trkpt lat="39.2613652" lon="16.9561871"><ele>142.66666666666666</ele><time>2026-03-28T14:59:05.2Z</time></trkpt><trkpt lat="39.2614044" lon="16.9562559"><ele>142.5</ele><time>2026-03-28T14:59:06.205Z</time></trkpt><trkpt lat="39.261457" lon="16.9563985"><ele>142.33333333333334</ele><time>2026-03-28T14:59:08.201Z</time></trkpt><trkpt lat="39.2614722" lon="16.9564804"><ele>142.16666666666669</ele><time>2026-03-28T14:59:09.202Z</time></trkpt><trkpt lat="39.2614802" lon="16.9565658"><ele>142.0</ele><time>2026-03-28T14:59:10.203Z</time></trkpt><trkpt lat="39.2615245" lon="16.9567053"><ele>140.4</ele><time>2026-03-28T14:59:12.206Z</time></trkpt><trkpt lat="39.2616422" lon="16.956735"><ele>138.79999999999998</ele><time>2026-03-28T14:59:14.199Z</time></trkpt><trkpt lat="39.2617231" lon="16.9567222"><ele>137.2</ele><time>2026-03-28T14:59:15.204Z</time></trkpt><trkpt lat="39.2618098" lon="16.9567077"><ele>135.6</ele><time>2026-03-28T14:59:16.208Z</time></trkpt><trkpt lat="39.2618938" lon="16.9566984"><ele>134.0</ele><time>2026-03-28T14:59:17.21Z</time></trkpt><trkpt lat="39.2619793" lon="16.9566981"><ele>133.16666666666666</ele><time>2026-03-28T14:59:18.202Z</time></trkpt><trkpt lat="39.2620698" lon="16.9567122"><ele>132.33333333333331</ele><time>2026-03-28T14:59:19.204Z</time></trkpt><trkpt lat="39.2621565" lon="16.9567389"><ele>131.5</ele><time>2026-03-28T14:59:20.211Z</time></trkpt><trkpt lat="39.262233" lon="16.9567739"><ele>130.66666666666666</ele><time>2026-03-28T14:59:21.194Z</time></trkpt><trkpt lat="39.2622961" lon="16.9568267"><ele>129.83333333333334</ele><time>2026-03-28T14:59:22.206Z</time></trkpt><trkpt lat="39.2623394" lon="16.9569081"><ele>129.0</ele><time>2026-03-28T14:59:23.2Z</time></trkpt><trkpt lat="39.2623651" lon="16.9570005"><ele>127.80000000000001</ele><time>2026-03-28T14:59:24.195Z</time></trkpt><trkpt lat="39.2623832" lon="16.9570833"><ele>126.60000000000001</ele><time>2026-03-28T14:59:25.201Z</time></trkpt><trkpt lat="39.2624283" lon="16.9572106"><ele>125.4</ele><time>2026-03-28T14:59:27.196Z</time></trkpt><trkpt lat="39.2625235" lon="16.9573281"><ele>124.2</ele><time>2026-03-28T14:59:29.187Z</time></trkpt><trkpt lat="39.262591" lon="16.9573767"><ele>123.0</ele><time>2026-03-28T14:59:30.207Z</time></trkpt><trkpt lat="39.2626596" lon="16.9574212"><ele>123.0</ele><time>2026-03-28T14:59:31.204Z</time></trkpt><trkpt lat="39.2627285" lon="16.9574662"><ele>123.0</ele><time>2026-03-28T14:59:32.193Z</time></trkpt><trkpt lat="39.2627945" lon="16.9575112"><ele>123.0</ele><time>2026-03-28T14:59:33.208Z</time></trkpt><trkpt lat="39.26286" lon="16.9575552"><ele>123.0</ele><time>2026-03-28T14:59:34.199Z</time></trkpt><trkpt lat="39.2629262" lon="16.9576031"><ele>123.0</ele><time>2026-03-28T14:59:35.2Z</time></trkpt><trkpt lat="39.2629861" lon="16.9576613"><ele>123.0</ele><time>2026-03-28T14:59:36.205Z</time></trkpt><trkpt lat="39.2630446" lon="16.9577255"><ele>122.5</ele><time>2026-03-28T14:59:37.207Z</time></trkpt><trkpt lat="39.2631097" lon="16.9577806"><ele>122.0</ele><time>2026-03-28T14:59:38.208Z</time></trkpt><trkpt lat="39.2631814" lon="16.957824"><ele>121.5</ele><time>2026-03-28T14:59:39.203Z</time></trkpt><trkpt lat="39.2632566" lon="16.9578561"><ele>121.0</ele><time>2026-03-28T14:59:40.199Z</time></trkpt><trkpt lat="39.2633328" lon="16.9578776"><ele>120.5</ele><time>2026-03-28T14:59:41.204Z</time></trkpt><trkpt lat="39.2634093" lon="16.9578915"><ele>120.0</ele><time>2026-03-28T14:59:42.186Z</time></trkpt><trkpt lat="39.263485" lon="16.9579126"><ele>119.5</ele><time>2026-03-28T14:59:43.199Z</time></trkpt><trkpt lat="39.2635523" lon="16.9579409"><ele>119.0</ele><time>2026-03-28T14:59:44.201Z</time></trkpt><trkpt lat="39.2636578" lon="16.9580268"><ele>118.5</ele><time>2026-03-28T14:59:46.204Z</time></trkpt><trkpt lat="39.2637168" lon="16.9580699"><ele>118.0</ele><time>2026-03-28T14:59:47.203Z</time></trkpt><trkpt lat="39.2637831" lon="16.9581129"><ele>117.5</ele><time>2026-03-28T14:59:48.205Z</time></trkpt><trkpt lat="39.2638527" lon="16.9581578"><ele>117.0</ele><time>2026-03-28T14:59:49.194Z</time></trkpt><trkpt lat="39.2639194" lon="16.9582109"><ele>116.5</ele><time>2026-03-28T14:59:50.201Z</time></trkpt><trkpt lat="39.2639894" lon="16.9582644"><ele>116.0</ele><time>2026-03-28T14:59:51.19Z</time></trkpt><trkpt lat="39.2640605" lon="16.958324"><ele>115.5</ele><time>2026-03-28T14:59:52.212Z</time></trkpt><trkpt lat="39.2641362" lon="16.9583776"><ele>115.0</ele><time>2026-03-28T14:59:53.198Z</time></trkpt><trkpt lat="39.2642226" lon="16.958428"><ele>114.5</ele><time>2026-03-28T14:59:54.197Z</time></trkpt><trkpt lat="39.2643062" lon="16.9584749"><ele>114.0</ele><time>2026-03-28T14:59:55.187Z</time></trkpt><trkpt lat="39.2643755" lon="16.9585128"><ele>114.0</ele><time>2026-03-28T14:59:56.203Z</time></trkpt><trkpt lat="39.2644408" lon="16.9585401"><ele>114.0</ele><time>2026-03-28T14:59:57.202Z</time></trkpt><trkpt lat="39.2645092" lon="16.9585667"><ele>114.0</ele><time>2026-03-28T14:59:58.214Z</time></trkpt><trkpt lat="39.2645748" lon="16.9585975"><ele>114.0</ele><time>2026-03-28T14:59:59.205Z</time></trkpt><trkpt lat="39.2646415" lon="16.9586287"><ele>114.0</ele><time>2026-03-28T15:00:00.203Z</time></trkpt><trkpt lat="39.2647056" lon="16.9586576"><ele>114.0</ele><time>2026-03-28T15:00:01.211Z</time></trkpt><trkpt lat="39.2648004" lon="16.9587041"><ele>113.0</ele><time>2026-03-28T15:00:03.212Z</time></trkpt><trkpt lat="39.2648894" lon="16.9587427"><ele>112.0</ele><time>2026-03-28T15:00:06.206Z</time></trkpt><trkpt lat="39.2649716" lon="16.9587881"><ele>111.0</ele><time>2026-03-28T15:00:08.199Z</time></trkpt><trkpt lat="39.2650675" lon="16.9588422"><ele>110.0</ele><time>2026-03-28T15:00:10.198Z</time></trkpt><trkpt lat="39.2651576" lon="16.9588782"><ele>109.0</ele><time>2026-03-28T15:00:12.203Z</time></trkpt><trkpt lat="39.2652369" lon="16.9588866"><ele>109.00000000000001</ele><time>2026-03-28T15:00:14.208Z</time></trkpt><trkpt lat="39.2653044" lon="16.9589135"><ele>109.0</ele><time>2026-03-28T15:00:17.216Z</time></trkpt><trkpt lat="39.2653605" lon="16.9589551"><ele>109.0</ele><time>2026-03-28T15:00:22.202Z</time></trkpt><trkpt lat="39.2654278" lon="16.9590081"><ele>109.0</ele><time>2026-03-28T15:00:25.196Z</time></trkpt><trkpt lat="39.2654866" lon="16.9590836"><ele>109.00000000000001</ele><time>2026-03-28T15:00:28.2Z</time></trkpt><trkpt lat="39.2655546" lon="16.9591547"><ele>109.0</ele><time>2026-03-28T15:00:31.197Z</time></trkpt><trkpt lat="39.2656174" lon="16.9591859"><ele>109.6</ele><time>2026-03-28T15:00:33.193Z</time></trkpt><trkpt lat="39.2657023" lon="16.9592124"><ele>110.2</ele><time>2026-03-28T15:00:35.202Z</time></trkpt><trkpt lat="39.2657857" lon="16.9592662"><ele>110.79999999999998</ele><time>2026-03-28T15:00:37.225Z</time></trkpt><trkpt lat="39.2658657" lon="16.9593305"><ele>111.39999999999999</ele><time>2026-03-28T15:00:39.207Z</time></trkpt><trkpt lat="39.2659393" lon="16.9593978"><ele>112.0</ele><time>2026-03-28T15:00:41.207Z</time></trkpt><trkpt lat="39.2660214" lon="16.9594594"><ele>112.00000000000001</ele><time>2026-03-28T15:00:43.201Z</time></trkpt><trkpt lat="39.2660955" lon="16.959515"><ele>112.0</ele><time>2026-03-28T15:00:45.222Z</time></trkpt><trkpt lat="39.2661747" lon="16.9595775"><ele>112.0</ele><time>2026-03-28T15:00:47.199Z</time></trkpt><trkpt lat="39.266258" lon="16.9596305"><ele>112.0</ele><time>2026-03-28T15:00:49.211Z</time></trkpt><trkpt lat="39.2663272" lon="16.9596971"><ele>112.00000000000001</ele><time>2026-03-28T15:00:51.188Z</time></trkpt><trkpt lat="39.266403" lon="16.9597499"><ele>112.0</ele><time>2026-03-28T15:00:53.201Z</time></trkpt><trkpt lat="39.2664925" lon="16.9598334"><ele>112.33333333333334</ele><time>2026-03-28T15:00:55.207Z</time></trkpt><trkpt lat="39.2665863" lon="16.9599407"><ele>112.66666666666667</ele><time>2026-03-28T15:00:57.206Z</time></trkpt><trkpt lat="39.2666383" lon="16.9599918"><ele>113.0</ele><time>2026-03-28T15:00:58.207Z</time></trkpt><trkpt lat="39.2666943" lon="16.9600312"><ele>113.33333333333334</ele><time>2026-03-28T15:00:59.21Z</time></trkpt><trkpt lat="39.2668003" lon="16.9600959"><ele>113.66666666666667</ele><time>2026-03-28T15:01:01.204Z</time></trkpt><trkpt lat="39.2668611" lon="16.9601229"><ele>114.0</ele><time>2026-03-28T15:01:02.216Z</time></trkpt><trkpt lat="39.2669263" lon="16.9601511"><ele>115.0</ele><time>2026-03-28T15:01:03.197Z</time></trkpt><trkpt lat="39.2669882" lon="16.9601871"><ele>115.99999999999999</ele><time>2026-03-28T15:01:04.196Z</time></trkpt><trkpt lat="39.2670439" lon="16.9602258"><ele>117.0</ele><time>2026-03-28T15:01:05.2Z</time></trkpt><trkpt lat="39.2670979" lon="16.9602703"><ele>118.0</ele><time>2026-03-28T15:01:06.208Z</time></trkpt><trkpt lat="39.267154" lon="16.9603245"><ele>118.99999999999999</ele><time>2026-03-28T15:01:07.193Z</time></trkpt><trkpt lat="39.2672107" lon="16.9603779"><ele>120.0</ele><time>2026-03-28T15:01:08.215Z</time></trkpt><trkpt lat="39.267265" lon="16.9604272"><ele>121.0</ele><time>2026-03-28T15:01:09.201Z</time></trkpt><trkpt lat="39.2673231" lon="16.9604665"><ele>121.4</ele><time>2026-03-28T15:01:10.202Z</time></trkpt><trkpt lat="39.2673786" lon="16.9605049"><ele>121.8</ele><time>2026-03-28T15:01:11.205Z</time></trkpt><trkpt lat="39.2674854" lon="16.9605754"><ele>122.20000000000002</ele><time>2026-03-28T15:01:13.219Z</time></trkpt><trkpt lat="39.2675856" lon="16.9606466"><ele>122.60000000000001</ele><time>2026-03-28T15:01:15.199Z</time></trkpt><trkpt lat="39.2676899" lon="16.9607496"><ele>123.0</ele><time>2026-03-28T15:01:17.209Z</time></trkpt><trkpt lat="39.2677553" lon="16.9608157"><ele>123.0</ele><time>2026-03-28T15:01:18.199Z</time></trkpt><trkpt lat="39.2678307" lon="16.9608617"><ele>123.0</ele><time>2026-03-28T15:01:19.197Z</time></trkpt><trkpt lat="39.2679061" lon="16.9609056"><ele>123.0</ele><time>2026-03-28T15:01:20.205Z</time></trkpt><trkpt lat="39.267977" lon="16.9609518"><ele>123.0</ele><time>2026-03-28T15:01:21.211Z</time></trkpt><trkpt lat="39.2680355" lon="16.9610174"><ele>123.0</ele><time>2026-03-28T15:01:22.211Z</time></trkpt><trkpt lat="39.2680837" lon="16.9610938"><ele>123.0</ele><time>2026-03-28T15:01:23.196Z</time></trkpt><trkpt lat="39.2681183" lon="16.9611652"><ele>127.0</ele><time>2026-03-28T15:01:24.195Z</time></trkpt><trkpt lat="39.2681675" lon="16.9612899"><ele>131.0</ele><time>2026-03-28T15:01:26.202Z</time></trkpt><trkpt lat="39.2682093" lon="16.9614039"><ele>135.0</ele><time>2026-03-28T15:01:28.213Z</time></trkpt><trkpt lat="39.2682558" lon="16.961495"><ele>139.0</ele><time>2026-03-28T15:01:30.199Z</time></trkpt><trkpt lat="39.2683176" lon="16.9616114"><ele>143.0</ele><time>2026-03-28T15:01:32.209Z</time></trkpt><trkpt lat="39.268392" lon="16.9617255"><ele>143.4</ele><time>2026-03-28T15:01:34.193Z</time></trkpt><trkpt lat="39.2684982" lon="16.9618082"><ele>143.8</ele><time>2026-03-28T15:01:36.201Z</time></trkpt><trkpt lat="39.2685551" lon="16.9618501"><ele>144.2</ele><time>2026-03-28T15:01:37.199Z</time></trkpt><trkpt lat="39.2686059" lon="16.961902"><ele>144.6</ele><time>2026-03-28T15:01:38.207Z</time></trkpt><trkpt lat="39.2687042" lon="16.9619917"><ele>145.0</ele><time>2026-03-28T15:01:40.201Z</time></trkpt><trkpt lat="39.2688156" lon="16.9620638"><ele>145.0</ele><time>2026-03-28T15:01:42.206Z</time></trkpt><trkpt lat="39.2688749" lon="16.9621021"><ele>145.0</ele><time>2026-03-28T15:01:43.197Z</time></trkpt><trkpt lat="39.2689338" lon="16.9621408"><ele>145.0</ele><time>2026-03-28T15:01:44.228Z</time></trkpt><trkpt lat="39.2689931" lon="16.9621698"><ele>145.0</ele><time>2026-03-28T15:01:45.202Z</time></trkpt><trkpt lat="39.2690551" lon="16.9621975"><ele>145.0</ele><time>2026-03-28T15:01:46.215Z</time></trkpt><trkpt lat="39.2691725" lon="16.9622647"><ele>145.0</ele><time>2026-03-28T15:01:48.212Z</time></trkpt><trkpt lat="39.2692773" lon="16.9623382"><ele>146.66666666666669</ele><time>2026-03-28T15:01:50.205Z</time></trkpt><trkpt lat="39.269369" lon="16.9623828"><ele>148.33333333333334</ele><time>2026-03-28T15:01:52.204Z</time></trkpt><trkpt lat="39.269455" lon="16.9623234"><ele>150.0</ele><time>2026-03-28T15:01:54.19Z</time></trkpt><trkpt lat="39.2694941" lon="16.9622504"><ele>151.66666666666666</ele><time>2026-03-28T15:01:55.196Z</time></trkpt><trkpt lat="39.2695273" lon="16.9621757"><ele>153.33333333333331</ele><time>2026-03-28T15:01:56.204Z</time></trkpt><trkpt lat="39.2695614" lon="16.9620979"><ele>155.0</ele><time>2026-03-28T15:01:57.209Z</time></trkpt><trkpt lat="39.2695949" lon="16.9620247"><ele>155.0</ele><time>2026-03-28T15:01:58.205Z</time></trkpt><trkpt lat="39.2696988" lon="16.9619624"><ele>155.0</ele><time>2026-03-28T15:02:00.21Z</time></trkpt><trkpt lat="39.2697938" lon="16.9619536"><ele>155.0</ele><time>2026-03-28T15:02:02.211Z</time></trkpt><trkpt lat="39.2698881" lon="16.9620022"><ele>155.0</ele><time>2026-03-28T15:02:05.201Z</time></trkpt><trkpt lat="39.2699355" lon="16.9621361"><ele>155.0</ele><time>2026-03-28T15:02:07.199Z</time></trkpt><trkpt lat="39.2699806" lon="16.9622597"><ele>158.0</ele><time>2026-03-28T15:02:09.222Z</time></trkpt><trkpt lat="39.2700578" lon="16.9623453"><ele>161.0</ele><time>2026-03-28T15:02:11.195Z</time></trkpt><trkpt lat="39.2701614" lon="16.9623982"><ele>164.0</ele><time>2026-03-28T15:02:13.209Z</time></trkpt><trkpt lat="39.270268" lon="16.9624342"><ele>167.0</ele><time>2026-03-28T15:02:15.22Z</time></trkpt><trkpt lat="39.2703391" lon="16.9625314"><ele>170.0</ele><time>2026-03-28T15:02:17.21Z</time></trkpt><trkpt lat="39.2703829" lon="16.962642"><ele>170.16666666666666</ele><time>2026-03-28T15:02:19.205Z</time></trkpt><trkpt lat="39.2704265" lon="16.9627527"><ele>170.33333333333331</ele><time>2026-03-28T15:02:21.208Z</time></trkpt><trkpt lat="39.2704427" lon="16.9628596"><ele>170.5</ele><time>2026-03-28T15:02:23.214Z</time></trkpt><trkpt lat="39.2703946" lon="16.962945"><ele>170.66666666666666</ele><time>2026-03-28T15:02:25.199Z</time></trkpt><trkpt lat="39.2704253" lon="16.963036"><ele>170.83333333333334</ele><time>2026-03-28T15:02:27.203Z</time></trkpt><trkpt lat="39.2704783" lon="16.9631166"><ele>171.0</ele><time>2026-03-28T15:02:29.2Z</time></trkpt><trkpt lat="39.2705278" lon="16.9631954"><ele>171.0</ele><time>2026-03-28T15:02:31.191Z</time></trkpt><trkpt lat="39.2705671" lon="16.9632863"><ele>171.0</ele><time>2026-03-28T15:02:33.195Z</time></trkpt><trkpt lat="39.2706192" lon="16.9633778"><ele>171.0</ele><time>2026-03-28T15:02:36.203Z</time></trkpt><trkpt lat="39.2706507" lon="16.9634483"><ele>171.0</ele><time>2026-03-28T15:03:23.209Z</time></trkpt><trkpt lat="39.2706965" lon="16.9635271"><ele>171.0</ele><time>2026-03-28T15:03:27.204Z</time></trkpt><trkpt lat="39.2707403" lon="16.9636009"><ele>171.0</ele><time>2026-03-28T15:03:30.196Z</time></trkpt><trkpt lat="39.2707803" lon="16.9636881"><ele>175.33333333333334</ele><time>2026-03-28T15:03:33.215Z</time></trkpt><trkpt lat="39.2708036" lon="16.9637846"><ele>179.66666666666669</ele><time>2026-03-28T15:03:36.197Z</time></trkpt><trkpt lat="39.2707709" lon="16.9639029"><ele>184.0</ele><time>2026-03-28T15:03:39.203Z</time></trkpt><trkpt lat="39.2707597" lon="16.9640055"><ele>188.33333333333334</ele><time>2026-03-28T15:03:41.211Z</time></trkpt><trkpt lat="39.2707714" lon="16.9641082"><ele>192.66666666666669</ele><time>2026-03-28T15:03:43.195Z</time></trkpt><trkpt lat="39.2707672" lon="16.9641976"><ele>197.0</ele><time>2026-03-28T15:03:45.195Z</time></trkpt><trkpt lat="39.2707747" lon="16.964295"><ele>197.0</ele><time>2026-03-28T15:03:47.204Z</time></trkpt><trkpt lat="39.2708031" lon="16.9643968"><ele>197.0</ele><time>2026-03-28T15:03:49.197Z</time></trkpt><trkpt lat="39.2708419" lon="16.9644871"><ele>197.0</ele><time>2026-03-28T15:03:51.202Z</time></trkpt><trkpt lat="39.2708979" lon="16.9645706"><ele>197.0</ele><time>2026-03-28T15:03:53.202Z</time></trkpt><trkpt lat="39.2709763" lon="16.9646795"><ele>197.0</ele><time>2026-03-28T15:03:55.207Z</time></trkpt><trkpt lat="39.2710466" lon="16.9648022"><ele>197.00000000000003</ele><time>2026-03-28T15:03:57.204Z</time></trkpt><trkpt lat="39.2710996" lon="16.9649324"><ele>197.0</ele><time>2026-03-28T15:03:59.201Z</time></trkpt><trkpt lat="39.2711288" lon="16.9650628"><ele>197.0</ele><time>2026-03-28T15:04:01.209Z</time></trkpt><trkpt lat="39.2711412" lon="16.9651534"><ele>197.0</ele><time>2026-03-28T15:04:03.197Z</time></trkpt><trkpt lat="39.2711689" lon="16.9652265"><ele>197.00000000000003</ele><time>2026-03-28T15:04:20.201Z</time></trkpt><trkpt lat="39.27123" lon="16.9653059"><ele>197.0</ele><time>2026-03-28T15:04:23.197Z</time></trkpt><trkpt lat="39.2712965" lon="16.9653712"><ele>197.33333333333334</ele><time>2026-03-28T15:04:26.2Z</time></trkpt><trkpt lat="39.271349" lon="16.9654163"><ele>197.66666666666669</ele><time>2026-03-28T15:04:29.191Z</time></trkpt><trkpt lat="39.2713855" lon="16.9654843"><ele>198.0</ele><time>2026-03-28T15:04:32.213Z</time></trkpt><trkpt lat="39.2714098" lon="16.9655859"><ele>198.33333333333331</ele><time>2026-03-28T15:04:36.207Z</time></trkpt><trkpt lat="39.2714485" lon="16.9656953"><ele>198.66666666666666</ele><time>2026-03-28T15:04:39.205Z</time></trkpt><trkpt lat="39.2714555" lon="16.9658123"><ele>199.0</ele><time>2026-03-28T15:04:42.195Z</time></trkpt><trkpt lat="39.2714601" lon="16.9659297"><ele>203.33333333333331</ele><time>2026-03-28T15:04:45.196Z</time></trkpt><trkpt lat="39.2715371" lon="16.9659728"><ele>207.66666666666666</ele><time>2026-03-28T15:04:48.209Z</time></trkpt><trkpt lat="39.2715937" lon="16.9658983"><ele>212.0</ele><time>2026-03-28T15:04:50.211Z</time></trkpt><trkpt lat="39.271627" lon="16.9657946"><ele>216.33333333333331</ele><time>2026-03-28T15:04:52.191Z</time></trkpt><trkpt lat="39.2716693" lon="16.9657086"><ele>220.66666666666666</ele><time>2026-03-28T15:04:54.206Z</time></trkpt><trkpt lat="39.2717349" lon="16.9656691"><ele>225.0</ele><time>2026-03-28T15:04:56.203Z</time></trkpt><trkpt lat="39.2717929" lon="16.965615"><ele>225.0</ele><time>2026-03-28T15:04:58.209Z</time></trkpt><trkpt lat="39.2718412" lon="16.9655554"><ele>225.0</ele><time>2026-03-28T15:05:00.208Z</time></trkpt><trkpt lat="39.2718897" lon="16.9655001"><ele>225.0</ele><time>2026-03-28T15:05:02.204Z</time></trkpt><trkpt lat="39.2719704" lon="16.9654347"><ele>225.0</ele><time>2026-03-28T15:05:04.216Z</time></trkpt><trkpt lat="39.2720519" lon="16.9653917"><ele>225.0</ele><time>2026-03-28T15:05:06.192Z</time></trkpt><trkpt lat="39.2721261" lon="16.9653402"><ele>225.0</ele><time>2026-03-28T15:05:08.206Z</time></trkpt><trkpt lat="39.2721864" lon="16.9652628"><ele>225.0</ele><time>2026-03-28T15:05:10.194Z</time></trkpt><trkpt lat="39.2722462" lon="16.9651932"><ele>225.0</ele><time>2026-03-28T15:05:12.211Z</time></trkpt><trkpt lat="39.2723095" lon="16.9651237"><ele>225.0</ele><time>2026-03-28T15:05:14.209Z</time></trkpt><trkpt lat="39.2723651" lon="16.965052"><ele>225.0</ele><time>2026-03-28T15:05:16.198Z</time></trkpt><trkpt lat="39.2724193" lon="16.9649748"><ele>225.0</ele><time>2026-03-28T15:05:18.209Z</time></trkpt><trkpt lat="39.2724652" lon="16.9648876"><ele>225.0</ele><time>2026-03-28T15:05:20.2Z</time></trkpt><trkpt lat="39.2724899" lon="16.9647948"><ele>228.83333333333334</ele><time>2026-03-28T15:05:22.189Z</time></trkpt><trkpt lat="39.2725149" lon="16.9646769"><ele>232.66666666666669</ele><time>2026-03-28T15:05:25.211Z</time></trkpt><trkpt lat="39.2725671" lon="16.9646083"><ele>236.5</ele><time>2026-03-28T15:05:27.211Z</time></trkpt><trkpt lat="39.2726233" lon="16.9645416"><ele>240.33333333333334</ele><time>2026-03-28T15:05:29.197Z</time></trkpt><trkpt lat="39.2726802" lon="16.9644809"><ele>244.16666666666669</ele><time>2026-03-28T15:05:31.205Z</time></trkpt><trkpt lat="39.2727269" lon="16.9644182"><ele>248.0</ele><time>2026-03-28T15:05:33.216Z</time></trkpt><trkpt lat="39.2728018" lon="16.9643662"><ele>248.00000000000003</ele><time>2026-03-28T15:05:36.211Z</time></trkpt><trkpt lat="39.2728813" lon="16.9643655"><ele>248.0</ele><time>2026-03-28T15:05:38.189Z</time></trkpt><trkpt lat="39.2729576" lon="16.964381"><ele>248.0</ele><time>2026-03-28T15:05:40.211Z</time></trkpt><trkpt lat="39.2730308" lon="16.9643921"><ele>248.0</ele><time>2026-03-28T15:05:42.203Z</time></trkpt><trkpt lat="39.2730996" lon="16.9643791"><ele>248.00000000000003</ele><time>2026-03-28T15:05:44.211Z</time></trkpt><trkpt lat="39.273177" lon="16.9643567"><ele>248.0</ele><time>2026-03-28T15:05:46.197Z</time></trkpt><trkpt lat="39.2732511" lon="16.9643243"><ele>251.00000000000003</ele><time>2026-03-28T15:05:48.206Z</time></trkpt><trkpt lat="39.2733134" lon="16.9643018"><ele>254.0</ele><time>2026-03-28T15:05:50.2Z</time></trkpt><trkpt lat="39.2733999" lon="16.9642666"><ele>257.0</ele><time>2026-03-28T15:05:53.21Z</time></trkpt><trkpt lat="39.2734845" lon="16.9642145"><ele>260.0</ele><time>2026-03-28T15:05:56.2Z</time></trkpt><trkpt lat="39.2735491" lon="16.964173"><ele>263.0</ele><time>2026-03-28T15:05:58.201Z</time></trkpt><trkpt lat="39.2736168" lon="16.9641359"><ele>266.0</ele><time>2026-03-28T15:06:00.234Z</time></trkpt><trkpt lat="39.2737007" lon="16.9640852"><ele>266.0</ele><time>2026-03-28T15:06:03.201Z</time></trkpt><trkpt lat="39.2737624" lon="16.9640566"><ele>266.0</ele><time>2026-03-28T15:06:05.207Z</time></trkpt><trkpt lat="39.273827" lon="16.9640017"><ele>266.0</ele><time>2026-03-28T15:06:08.215Z</time></trkpt><trkpt lat="39.2738712" lon="16.9639296"><ele>266.0</ele><time>2026-03-28T15:06:11.213Z</time></trkpt><trkpt lat="39.273956" lon="16.9638638"><ele>266.0</ele><time>2026-03-28T15:06:14.2Z</time></trkpt><trkpt lat="39.2740239" lon="16.9638175"><ele>266.0</ele><time>2026-03-28T15:06:16.197Z</time></trkpt><trkpt lat="39.2741065" lon="16.9637963"><ele>268.6666666666667</ele><time>2026-03-28T15:06:19.195Z</time></trkpt><trkpt lat="39.2741908" lon="16.9637954"><ele>271.33333333333337</ele><time>2026-03-28T15:06:46.179Z</time></trkpt><trkpt lat="39.2742808" lon="16.9638298"><ele>274.0</ele><time>2026-03-28T15:06:49.18Z</time></trkpt><trkpt lat="39.2743529" lon="16.9638763"><ele>276.6666666666667</ele><time>2026-03-28T15:06:51.178Z</time></trkpt><trkpt lat="39.2744222" lon="16.9639332"><ele>279.3333333333333</ele><time>2026-03-28T15:06:53.178Z</time></trkpt><trkpt lat="39.2745028" lon="16.9640225"><ele>282.0</ele><time>2026-03-28T15:06:55.178Z</time></trkpt><trkpt lat="39.2745487" lon="16.9641569"><ele>281.8333333333333</ele><time>2026-03-28T15:06:57.179Z</time></trkpt><trkpt lat="39.2745539" lon="16.964279"><ele>281.6666666666667</ele><time>2026-03-28T15:06:59.18Z</time></trkpt><trkpt lat="39.274568" lon="16.9643847"><ele>281.5</ele><time>2026-03-28T15:07:01.188Z</time></trkpt><trkpt lat="39.2745863" lon="16.9644903"><ele>281.33333333333337</ele><time>2026-03-28T15:07:03.174Z</time></trkpt><trkpt lat="39.274628" lon="16.9645699"><ele>281.1666666666667</ele><time>2026-03-28T15:07:06.181Z</time></trkpt><trkpt lat="39.2747027" lon="16.9645856"><ele>281.0</ele><time>2026-03-28T15:07:14.175Z</time></trkpt><trkpt lat="39.2747943" lon="16.9645712"><ele>282.2</ele><time>2026-03-28T15:07:16.178Z</time></trkpt><trkpt lat="39.2749018" lon="16.9645645"><ele>283.40000000000003</ele><time>2026-03-28T15:07:18.176Z</time></trkpt><trkpt lat="39.2749857" lon="16.9645947"><ele>284.6</ele><time>2026-03-28T15:07:20.177Z</time></trkpt><trkpt lat="39.2750639" lon="16.9646584"><ele>285.8</ele><time>2026-03-28T15:07:22.177Z</time></trkpt><trkpt lat="39.2751597" lon="16.9646853"><ele>287.0</ele><time>2026-03-28T15:07:24.192Z</time></trkpt><trkpt lat="39.2752606" lon="16.9646682"><ele>287.0</ele><time>2026-03-28T15:07:26.178Z</time></trkpt><trkpt lat="39.2753733" lon="16.964673"><ele>287.0</ele><time>2026-03-28T15:07:28.178Z</time></trkpt><trkpt lat="39.2754913" lon="16.9647024"><ele>287.0</ele><time>2026-03-28T15:07:30.181Z</time></trkpt><trkpt lat="39.2755586" lon="16.9647164"><ele>287.0</ele><time>2026-03-28T15:07:31.174Z</time></trkpt><trkpt lat="39.2756304" lon="16.9647236"><ele>287.0</ele><time>2026-03-28T15:07:32.196Z</time></trkpt><trkpt lat="39.2756974" lon="16.9647195"><ele>287.0</ele><time>2026-03-28T15:07:33.177Z</time></trkpt><trkpt lat="39.275809" lon="16.964687"><ele>289.33333333333337</ele><time>2026-03-28T15:07:35.177Z</time></trkpt><trkpt lat="39.275904" lon="16.9646407"><ele>291.6666666666667</ele><time>2026-03-28T15:07:37.195Z</time></trkpt><trkpt lat="39.2759894" lon="16.9645893"><ele>294.0</ele><time>2026-03-28T15:07:39.177Z</time></trkpt><trkpt lat="39.2760586" lon="16.9645401"><ele>296.3333333333333</ele><time>2026-03-28T15:07:41.174Z</time></trkpt><trkpt lat="39.2761249" lon="16.9644888"><ele>298.66666666666663</ele><time>2026-03-28T15:07:43.178Z</time></trkpt><trkpt lat="39.2761939" lon="16.9644281"><ele>301.0</ele><time>2026-03-28T15:07:45.177Z</time></trkpt><trkpt lat="39.2762583" lon="16.9643506"><ele>301.0</ele><time>2026-03-28T15:07:47.208Z</time></trkpt><trkpt lat="39.2763195" lon="16.9642552"><ele>301.0</ele><time>2026-03-28T15:07:49.178Z</time></trkpt><trkpt lat="39.2763732" lon="16.9641485"><ele>301.0</ele><time>2026-03-28T15:07:51.179Z</time></trkpt><trkpt lat="39.2764079" lon="16.964028"><ele>301.0</ele><time>2026-03-28T15:07:53.197Z</time></trkpt><trkpt lat="39.2764301" lon="16.9638938"><ele>301.0</ele><time>2026-03-28T15:07:55.179Z</time></trkpt><trkpt lat="39.276458" lon="16.963761"><ele>304.6</ele><time>2026-03-28T15:07:57.178Z</time></trkpt><trkpt lat="39.2765209" lon="16.963646"><ele>308.20000000000005</ele><time>2026-03-28T15:07:59.179Z</time></trkpt><trkpt lat="39.2765908" lon="16.9635425"><ele>311.79999999999995</ele><time>2026-03-28T15:08:01.178Z</time></trkpt><trkpt lat="39.2766379" lon="16.9634457"><ele>315.4</ele><time>2026-03-28T15:08:03.179Z</time></trkpt><trkpt lat="39.2766729" lon="16.9633651"><ele>319.0</ele><time>2026-03-28T15:08:05.184Z</time></trkpt><trkpt lat="39.2767089" lon="16.9632588"><ele>319.0</ele><time>2026-03-28T15:08:08.178Z</time></trkpt><trkpt lat="39.2767557" lon="16.9631827"><ele>319.0</ele><time>2026-03-28T15:08:10.179Z</time></trkpt><trkpt lat="39.2768107" lon="16.9630935"><ele>319.0</ele><time>2026-03-28T15:08:12.18Z</time></trkpt><trkpt lat="39.2768752" lon="16.9629872"><ele>319.0</ele><time>2026-03-28T15:08:14.183Z</time></trkpt><trkpt lat="39.2769384" lon="16.9628825"><ele>319.0</ele><time>2026-03-28T15:08:16.176Z</time></trkpt><trkpt lat="39.276986" lon="16.9628256"><ele>319.0</ele><time>2026-03-28T15:08:18.179Z</time></trkpt><trkpt lat="39.2770463" lon="16.9627676"><ele>319.0</ele><time>2026-03-28T15:08:27.177Z</time></trkpt><trkpt lat="39.2770915" lon="16.9627073"><ele>319.0</ele><time>2026-03-28T15:08:29.185Z</time></trkpt><trkpt lat="39.2771646" lon="16.9626299"><ele>319.0</ele><time>2026-03-28T15:08:32.182Z</time></trkpt><trkpt lat="39.2772236" lon="16.962571"><ele>319.0</ele><time>2026-03-28T15:08:35.174Z</time></trkpt><trkpt lat="39.2772746" lon="16.962517"><ele>319.0</ele><time>2026-03-28T15:08:46.181Z</time></trkpt><trkpt lat="39.2773309" lon="16.9624669"><ele>319.0</ele><time>2026-03-28T15:08:48.175Z</time></trkpt><trkpt lat="39.2773864" lon="16.9624146"><ele>319.0</ele><time>2026-03-28T15:08:50.184Z</time></trkpt><trkpt lat="39.2774259" lon="16.9623488"><ele>322.3333333333333</ele><time>2026-03-28T15:08:52.196Z</time></trkpt><trkpt lat="39.2774877" lon="16.9623014"><ele>325.66666666666663</ele><time>2026-03-28T15:08:54.177Z</time></trkpt><trkpt lat="39.2775527" lon="16.9622471"><ele>329.0</ele><time>2026-03-28T15:08:56.175Z</time></trkpt><trkpt lat="39.2776196" lon="16.9621824"><ele>332.3333333333333</ele><time>2026-03-28T15:08:58.177Z</time></trkpt><trkpt lat="39.277687" lon="16.9621143"><ele>335.6666666666667</ele><time>2026-03-28T15:09:00.179Z</time></trkpt><trkpt lat="39.2777545" lon="16.9620505"><ele>339.0</ele><time>2026-03-28T15:09:02.18Z</time></trkpt><trkpt lat="39.2778257" lon="16.9619944"><ele>339.0</ele><time>2026-03-28T15:09:04.174Z</time></trkpt><trkpt lat="39.2778987" lon="16.9619475"><ele>339.0</ele><time>2026-03-28T15:09:06.177Z</time></trkpt><trkpt lat="39.2779727" lon="16.9618967"><ele>339.0</ele><time>2026-03-28T15:09:08.177Z</time></trkpt><trkpt lat="39.2780677" lon="16.9618613"><ele>339.0</ele><time>2026-03-28T15:09:10.177Z</time></trkpt><trkpt lat="39.2781702" lon="16.9618488"><ele>339.0</ele><time>2026-03-28T15:09:12.18Z</time></trkpt><trkpt lat="39.2782809" lon="16.9618362"><ele>341.3333333333333</ele><time>2026-03-28T15:09:14.179Z</time></trkpt><trkpt lat="39.2784066" lon="16.9618204"><ele>343.6666666666667</ele><time>2026-03-28T15:09:16.181Z</time></trkpt><trkpt lat="39.2784706" lon="16.9618107"><ele>346.0</ele><time>2026-03-28T15:09:17.176Z</time></trkpt><trkpt lat="39.2785333" lon="16.9617983"><ele>348.33333333333337</ele><time>2026-03-28T15:09:18.18Z</time></trkpt><trkpt lat="39.2786545" lon="16.9617607"><ele>350.6666666666667</ele><time>2026-03-28T15:09:20.177Z</time></trkpt><trkpt lat="39.2787174" lon="16.9617335"><ele>353.0</ele><time>2026-03-28T15:09:21.179Z</time></trkpt><trkpt lat="39.2787783" lon="16.961701"><ele>352.33333333333337</ele><time>2026-03-28T15:09:22.177Z</time></trkpt><trkpt lat="39.278834" lon="16.9616622"><ele>351.6666666666667</ele><time>2026-03-28T15:09:23.185Z</time></trkpt><trkpt lat="39.2789259" lon="16.9615857"><ele>351.0</ele><time>2026-03-28T15:09:25.175Z</time></trkpt><trkpt lat="39.2789895" lon="16.9615047"><ele>350.3333333333333</ele><time>2026-03-28T15:09:27.176Z</time></trkpt><trkpt lat="39.2790367" lon="16.9614419"><ele>349.66666666666663</ele><time>2026-03-28T15:09:29.201Z</time></trkpt><trkpt lat="39.2791009" lon="16.9613749"><ele>349.0</ele><time>2026-03-28T15:09:31.179Z</time></trkpt><trkpt lat="39.2791714" lon="16.9613017"><ele>351.2</ele><time>2026-03-28T15:09:33.177Z</time></trkpt><trkpt lat="39.2792426" lon="16.9612303"><ele>353.4</ele><time>2026-03-28T15:09:35.176Z</time></trkpt><trkpt lat="39.2793189" lon="16.961147"><ele>355.6</ele><time>2026-03-28T15:09:37.176Z</time></trkpt><trkpt lat="39.2794027" lon="16.9610629"><ele>357.8</ele><time>2026-03-28T15:09:39.211Z</time></trkpt><trkpt lat="39.2794558" lon="16.960941"><ele>360.0</ele><time>2026-03-28T15:09:41.184Z</time></trkpt><trkpt lat="39.2794455" lon="16.9607767"><ele>360.0</ele><time>2026-03-28T15:09:43.176Z</time></trkpt><trkpt lat="39.2794256" lon="16.9606971"><ele>360.0</ele><time>2026-03-28T15:09:44.177Z</time></trkpt><trkpt lat="39.2793929" lon="16.9606269"><ele>360.0</ele><time>2026-03-28T15:09:45.176Z</time></trkpt><trkpt lat="39.2793495" lon="16.9605664"><ele>360.0</ele><time>2026-03-28T15:09:46.178Z</time></trkpt><trkpt lat="39.279276" lon="16.9604554"><ele>360.0</ele><time>2026-03-28T15:09:48.173Z</time></trkpt><trkpt lat="39.2792197" lon="16.9603488"><ele>360.0</ele><time>2026-03-28T15:09:50.174Z</time></trkpt><trkpt lat="39.2791751" lon="16.9602505"><ele>360.0</ele><time>2026-03-28T15:09:52.177Z</time></trkpt><trkpt lat="39.2791463" lon="16.960169"><ele>360.0</ele><time>2026-03-28T15:09:54.177Z</time></trkpt><trkpt lat="39.279119" lon="16.9600861"><ele>360.0</ele><time>2026-03-28T15:10:10.179Z</time></trkpt><trkpt lat="39.2791176" lon="16.9599862"><ele>360.0</ele><time>2026-03-28T15:10:36.179Z</time></trkpt><trkpt lat="39.2791016" lon="16.9598828"><ele>360.0</ele><time>2026-03-28T15:10:38.177Z</time></trkpt><trkpt lat="39.2790896" lon="16.9597809"><ele>360.0</ele><time>2026-03-28T15:10:40.179Z</time></trkpt><trkpt lat="39.2790892" lon="16.9596665"><ele>360.3333333333333</ele><time>2026-03-28T15:10:42.18Z</time></trkpt><trkpt lat="39.2791267" lon="16.9595627"><ele>360.6666666666667</ele><time>2026-03-28T15:10:44.178Z</time></trkpt><trkpt lat="39.2792092" lon="16.9595184"><ele>361.0</ele><time>2026-03-28T15:10:46.177Z</time></trkpt><trkpt lat="39.2792808" lon="16.9594911"><ele>361.33333333333337</ele><time>2026-03-28T15:10:48.179Z</time></trkpt><trkpt lat="39.2793467" lon="16.9594702"><ele>361.6666666666667</ele><time>2026-03-28T15:10:50.178Z</time></trkpt><trkpt lat="39.2794386" lon="16.9594541"><ele>362.0</ele><time>2026-03-28T15:10:52.174Z</time></trkpt><trkpt lat="39.2795593" lon="16.9594274"><ele>362.0</ele><time>2026-03-28T15:10:54.175Z</time></trkpt><trkpt lat="39.279625" lon="16.9594041"><ele>362.0</ele><time>2026-03-28T15:10:55.191Z</time></trkpt><trkpt lat="39.2796857" lon="16.9593527"><ele>362.0</ele><time>2026-03-28T15:10:56.172Z</time></trkpt><trkpt lat="39.2797413" lon="16.9592899"><ele>362.0</ele><time>2026-03-28T15:10:57.189Z</time></trkpt><trkpt lat="39.2797912" lon="16.9592257"><ele>362.0</ele><time>2026-03-28T15:10:58.173Z</time></trkpt><trkpt lat="39.2798386" lon="16.9591703"><ele>362.0</ele><time>2026-03-28T15:10:59.179Z</time></trkpt><trkpt lat="39.2799166" lon="16.9590862"><ele>363.33333333333337</ele><time>2026-03-28T15:11:01.186Z</time></trkpt><trkpt lat="39.2799759" lon="16.9590156"><ele>364.6666666666667</ele><time>2026-03-28T15:11:03.182Z</time></trkpt><trkpt lat="39.2800258" lon="16.9589589"><ele>366.0</ele><time>2026-03-28T15:11:05.187Z</time></trkpt><trkpt lat="39.2800847" lon="16.9588946"><ele>367.3333333333333</ele><time>2026-03-28T15:11:07.208Z</time></trkpt><trkpt lat="39.2801547" lon="16.9588138"><ele>368.66666666666663</ele><time>2026-03-28T15:11:09.183Z</time></trkpt><trkpt lat="39.2802276" lon="16.9587144"><ele>370.0</ele><time>2026-03-28T15:11:11.176Z</time></trkpt><trkpt lat="39.2802904" lon="16.9586339"><ele>370.0</ele><time>2026-03-28T15:11:13.178Z</time></trkpt><trkpt lat="39.2803549" lon="16.9585721"><ele>370.0</ele><time>2026-03-28T15:11:15.195Z</time></trkpt><trkpt lat="39.2804213" lon="16.9585593"><ele>370.0</ele><time>2026-03-28T15:11:17.178Z</time></trkpt><trkpt lat="39.2805022" lon="16.958575"><ele>370.0</ele><time>2026-03-28T15:11:19.172Z</time></trkpt><trkpt lat="39.2805717" lon="16.9586005"><ele>370.0</ele><time>2026-03-28T15:11:21.173Z</time></trkpt><trkpt lat="39.2806569" lon="16.9586447"><ele>370.0</ele><time>2026-03-28T15:11:24.174Z</time></trkpt><trkpt lat="39.280731" lon="16.9586842"><ele>370.57142857142856</ele><time>2026-03-28T15:11:27.173Z</time></trkpt><trkpt lat="39.2808046" lon="16.9587252"><ele>371.1428571428571</ele><time>2026-03-28T15:11:30.181Z</time></trkpt><trkpt lat="39.2808785" lon="16.9587243"><ele>371.71428571428567</ele><time>2026-03-28T15:11:33.197Z</time></trkpt><trkpt lat="39.2809447" lon="16.9586973"><ele>372.2857142857143</ele><time>2026-03-28T15:11:37.172Z</time></trkpt><trkpt lat="39.2810051" lon="16.9586703"><ele>372.8571428571429</ele><time>2026-03-28T15:12:03.181Z</time></trkpt><trkpt lat="39.2810718" lon="16.9586454"><ele>373.4285714285714</ele><time>2026-03-28T15:12:05.174Z</time></trkpt><trkpt lat="39.2811355" lon="16.9586359"><ele>374.0</ele><time>2026-03-28T15:12:07.182Z</time></trkpt><trkpt lat="39.2812026" lon="16.9586219"><ele>374.0</ele><time>2026-03-28T15:12:09.177Z</time></trkpt><trkpt lat="39.2812649" lon="16.9586077"><ele>374.0</ele><time>2026-03-28T15:12:11.191Z</time></trkpt><trkpt lat="39.2813354" lon="16.9585888"><ele>374.0</ele><time>2026-03-28T15:12:14.175Z</time></trkpt><trkpt lat="39.2814138" lon="16.9585661"><ele>374.0</ele><time>2026-03-28T15:12:17.18Z</time></trkpt><trkpt lat="39.2814933" lon="16.9585265"><ele>374.0</ele><time>2026-03-28T15:12:20.181Z</time></trkpt><trkpt lat="39.2815838" lon="16.9584777"><ele>374.0</ele><time>2026-03-28T15:12:23.171Z</time></trkpt><trkpt lat="39.2816489" lon="16.9584465"><ele>373.5</ele><time>2026-03-28T15:12:25.18Z</time></trkpt><trkpt lat="39.2817189" lon="16.9584027"><ele>373.0</ele><time>2026-03-28T15:12:27.176Z</time></trkpt><trkpt lat="39.2817963" lon="16.9583568"><ele>372.5</ele><time>2026-03-28T15:12:29.173Z</time></trkpt><trkpt lat="39.2818601" lon="16.958336"><ele>372.0</ele><time>2026-03-28T15:12:31.182Z</time></trkpt><trkpt lat="39.2819393" lon="16.9583226"><ele>371.5</ele><time>2026-03-28T15:12:42.177Z</time></trkpt><trkpt lat="39.28202" lon="16.9582919"><ele>371.0</ele><time>2026-03-28T15:12:46.179Z</time></trkpt><trkpt lat="39.2820881" lon="16.9582539"><ele>370.33333333333337</ele><time>2026-03-28T15:12:49.178Z</time></trkpt><trkpt lat="39.2821559" lon="16.958239"><ele>369.6666666666667</ele><time>2026-03-28T15:12:51.191Z</time></trkpt><trkpt lat="39.282229" lon="16.9582394"><ele>369.0</ele><time>2026-03-28T15:12:53.173Z</time></trkpt><trkpt lat="39.2823027" lon="16.9582613"><ele>368.3333333333333</ele><time>2026-03-28T15:12:55.173Z</time></trkpt><trkpt lat="39.2823794" lon="16.9582813"><ele>367.66666666666663</ele><time>2026-03-28T15:12:57.175Z</time></trkpt><trkpt lat="39.2824574" lon="16.9582976"><ele>367.0</ele><time>2026-03-28T15:12:59.176Z</time></trkpt><trkpt lat="39.2825364" lon="16.9583119"><ele>364.20000000000005</ele><time>2026-03-28T15:13:01.174Z</time></trkpt><trkpt lat="39.2826123" lon="16.9583216"><ele>361.4</ele><time>2026-03-28T15:13:03.181Z</time></trkpt><trkpt lat="39.2827" lon="16.9583313"><ele>358.6</ele><time>2026-03-28T15:13:05.188Z</time></trkpt><trkpt lat="39.2828056" lon="16.9583454"><ele>355.79999999999995</ele><time>2026-03-28T15:13:07.175Z</time></trkpt><trkpt lat="39.2829067" lon="16.9583691"><ele>353.0</ele><time>2026-03-28T15:13:09.175Z</time></trkpt><trkpt lat="39.2829904" lon="16.9583942"><ele>350.4285714285714</ele><time>2026-03-28T15:13:11.186Z</time></trkpt><trkpt lat="39.2830589" lon="16.9583958"><ele>347.8571428571429</ele><time>2026-03-28T15:13:13.176Z</time></trkpt><trkpt lat="39.2831279" lon="16.9583709"><ele>345.2857142857143</ele><time>2026-03-28T15:13:15.177Z</time></trkpt><trkpt lat="39.2831869" lon="16.9583393"><ele>342.71428571428567</ele><time>2026-03-28T15:13:17.175Z</time></trkpt><trkpt lat="39.2832737" lon="16.9583124"><ele>340.1428571428571</ele><time>2026-03-28T15:13:20.192Z</time></trkpt><trkpt lat="39.2833444" lon="16.9583452"><ele>337.57142857142856</ele><time>2026-03-28T15:13:24.178Z</time></trkpt><trkpt lat="39.2834012" lon="16.9583828"><ele>335.0</ele><time>2026-03-28T15:13:27.175Z</time></trkpt><trkpt lat="39.2834805" lon="16.9584224"><ele>334.6666666666667</ele><time>2026-03-28T15:13:30.173Z</time></trkpt><trkpt lat="39.2835441" lon="16.9584397"><ele>334.33333333333337</ele><time>2026-03-28T15:13:33.174Z</time></trkpt><trkpt lat="39.2836122" lon="16.9584006"><ele>334.0</ele><time>2026-03-28T15:13:35.173Z</time></trkpt><trkpt lat="39.2837086" lon="16.9583459"><ele>333.6666666666667</ele><time>2026-03-28T15:13:37.175Z</time></trkpt><trkpt lat="39.2837894" lon="16.9583086"><ele>333.3333333333333</ele><time>2026-03-28T15:13:39.177Z</time></trkpt><trkpt lat="39.2838562" lon="16.9582811"><ele>333.0</ele><time>2026-03-28T15:13:41.178Z</time></trkpt><trkpt lat="39.2839453" lon="16.9582621"><ele>332.5714285714286</ele><time>2026-03-28T15:13:57.181Z</time></trkpt><trkpt lat="39.2840188" lon="16.9582637"><ele>332.1428571428571</ele><time>2026-03-28T15:14:01.194Z</time></trkpt><trkpt lat="39.2840932" lon="16.9582754"><ele>331.7142857142857</ele><time>2026-03-28T15:14:07.18Z</time></trkpt><trkpt lat="39.2841688" lon="16.9582803"><ele>331.28571428571433</ele><time>2026-03-28T15:14:11.175Z</time></trkpt><trkpt lat="39.284232" lon="16.9582841"><ele>330.8571428571429</ele><time>2026-03-28T15:14:13.177Z</time></trkpt><trkpt lat="39.284307" lon="16.958276"><ele>330.42857142857144</ele><time>2026-03-28T15:14:16.175Z</time></trkpt><trkpt lat="39.2843826" lon="16.9582438"><ele>330.0</ele><time>2026-03-28T15:14:19.17Z</time></trkpt><trkpt lat="39.2844496" lon="16.9581944"><ele>330.0</ele><time>2026-03-28T15:14:21.174Z</time></trkpt><trkpt lat="39.28452" lon="16.9581438"><ele>330.0</ele><time>2026-03-28T15:14:23.173Z</time></trkpt><trkpt lat="39.2845928" lon="16.9580955"><ele>330.0</ele><time>2026-03-28T15:14:25.177Z</time></trkpt><trkpt lat="39.2846656" lon="16.9580497"><ele>330.0</ele><time>2026-03-28T15:14:27.181Z</time></trkpt><trkpt lat="39.2847666" lon="16.9580163"><ele>330.0</ele><time>2026-03-28T15:14:29.176Z</time></trkpt><trkpt lat="39.2848548" lon="16.9579929"><ele>330.0</ele><time>2026-03-28T15:14:31.177Z</time></trkpt><trkpt lat="39.2849276" lon="16.9579742"><ele>329.00000000000006</ele><time>2026-03-28T15:14:33.175Z</time></trkpt><trkpt lat="39.2849911" lon="16.9579656"><ele>328.0</ele><time>2026-03-28T15:14:36.176Z</time></trkpt><trkpt lat="39.2850561" lon="16.9579565"><ele>327.0</ele><time>2026-03-28T15:14:44.177Z</time></trkpt><trkpt lat="39.2851291" lon="16.9579132"><ele>326.0</ele><time>2026-03-28T15:14:47.175Z</time></trkpt><trkpt lat="39.2851887" lon="16.9578671"><ele>325.0</ele><time>2026-03-28T15:14:49.177Z</time></trkpt><trkpt lat="39.2852435" lon="16.9578153"><ele>324.00000000000006</ele><time>2026-03-28T15:14:51.182Z</time></trkpt><trkpt lat="39.2852911" lon="16.9577586"><ele>323.0</ele><time>2026-03-28T15:14:54.177Z</time></trkpt><trkpt lat="39.2853489" lon="16.9576899"><ele>323.0</ele><time>2026-03-28T15:14:57.182Z</time></trkpt><trkpt lat="39.2854054" lon="16.9576231"><ele>323.0</ele><time>2026-03-28T15:15:00.177Z</time></trkpt><trkpt lat="39.2854635" lon="16.9575626"><ele>323.0</ele><time>2026-03-28T15:15:03.193Z</time></trkpt><trkpt lat="39.2855237" lon="16.9574921"><ele>323.0</ele><time>2026-03-28T15:15:06.17Z</time></trkpt><trkpt lat="39.2855952" lon="16.9574172"><ele>323.0</ele><time>2026-03-28T15:15:09.176Z</time></trkpt><trkpt lat="39.2856726" lon="16.9573515"><ele>323.0</ele><time>2026-03-28T15:15:12.21Z</time></trkpt><trkpt lat="39.285757" lon="16.957299"><ele>323.59999999999997</ele><time>2026-03-28T15:15:15.181Z</time></trkpt><trkpt lat="39.2858269" lon="16.9572598"><ele>324.2</ele><time>2026-03-28T15:15:17.174Z</time></trkpt><trkpt lat="39.2859161" lon="16.9572141"><ele>324.8</ele><time>2026-03-28T15:15:19.18Z</time></trkpt><trkpt lat="39.28603" lon="16.9571402"><ele>325.4</ele><time>2026-03-28T15:15:21.197Z</time></trkpt><trkpt lat="39.286082" lon="16.9570917"><ele>326.0</ele><time>2026-03-28T15:15:22.178Z</time></trkpt><trkpt lat="39.2861265" lon="16.9569648"><ele>326.0</ele><time>2026-03-28T15:15:24.18Z</time></trkpt><trkpt lat="39.2861515" lon="16.9568419"><ele>326.0</ele><time>2026-03-28T15:15:26.202Z</time></trkpt><trkpt lat="39.2861771" lon="16.9567048"><ele>326.0</ele><time>2026-03-28T15:15:28.175Z</time></trkpt><trkpt lat="39.2862226" lon="16.9565587"><ele>326.0</ele><time>2026-03-28T15:15:30.18Z</time></trkpt><trkpt lat="39.2862528" lon="16.9564843"><ele>326.0</ele><time>2026-03-28T15:15:31.184Z</time></trkpt><trkpt lat="39.286329" lon="16.9563631"><ele>327.33333333333337</ele><time>2026-03-28T15:15:33.176Z</time></trkpt><trkpt lat="39.2864275" lon="16.9562896"><ele>328.6666666666667</ele><time>2026-03-28T15:15:35.177Z</time></trkpt><trkpt lat="39.2864896" lon="16.9562663"><ele>330.0</ele><time>2026-03-28T15:15:36.181Z</time></trkpt><trkpt lat="39.2865573" lon="16.9562502"><ele>331.3333333333333</ele><time>2026-03-28T15:15:37.177Z</time></trkpt><trkpt lat="39.2866314" lon="16.9562343"><ele>332.66666666666663</ele><time>2026-03-28T15:15:38.177Z</time></trkpt><trkpt lat="39.2867073" lon="16.9562143"><ele>334.0</ele><time>2026-03-28T15:15:39.177Z</time></trkpt><trkpt lat="39.2867801" lon="16.9561889"><ele>334.3333333333333</ele><time>2026-03-28T15:15:40.173Z</time></trkpt><trkpt lat="39.2868515" lon="16.9561587"><ele>334.66666666666663</ele><time>2026-03-28T15:15:41.177Z</time></trkpt><trkpt lat="39.2869199" lon="16.9561292"><ele>335.0</ele><time>2026-03-28T15:15:42.177Z</time></trkpt><trkpt lat="39.2869838" lon="16.9561"><ele>335.3333333333333</ele><time>2026-03-28T15:15:43.181Z</time></trkpt><trkpt lat="39.2870941" lon="16.9560482"><ele>335.6666666666667</ele><time>2026-03-28T15:15:45.171Z</time></trkpt><trkpt lat="39.2871962" lon="16.9560043"><ele>336.0</ele><time>2026-03-28T15:15:47.178Z</time></trkpt><trkpt lat="39.2873095" lon="16.9559645"><ele>334.5</ele><time>2026-03-28T15:15:49.176Z</time></trkpt><trkpt lat="39.2874274" lon="16.9559013"><ele>333.0</ele><time>2026-03-28T15:15:51.171Z</time></trkpt><trkpt lat="39.2874905" lon="16.9558628"><ele>331.5</ele><time>2026-03-28T15:15:52.173Z</time></trkpt><trkpt lat="39.2875536" lon="16.9558182"><ele>330.0</ele><time>2026-03-28T15:15:53.174Z</time></trkpt><trkpt lat="39.2876158" lon="16.9557706"><ele>328.5</ele><time>2026-03-28T15:15:54.176Z</time></trkpt><trkpt lat="39.2876855" lon="16.9557367"><ele>327.0</ele><time>2026-03-28T15:15:55.178Z</time></trkpt><trkpt lat="39.2877591" lon="16.9557056"><ele>330.1666666666667</ele><time>2026-03-28T15:15:56.176Z</time></trkpt><trkpt lat="39.2878305" lon="16.9556764"><ele>333.3333333333333</ele><time>2026-03-28T15:15:57.172Z</time></trkpt><trkpt lat="39.2879033" lon="16.9556451"><ele>336.5</ele><time>2026-03-28T15:15:58.173Z</time></trkpt><trkpt lat="39.2879763" lon="16.9556103"><ele>339.66666666666663</ele><time>2026-03-28T15:15:59.196Z</time></trkpt><trkpt lat="39.2880479" lon="16.9555744"><ele>342.8333333333333</ele><time>2026-03-28T15:16:00.178Z</time></trkpt><trkpt lat="39.288119" lon="16.955534"><ele>346.0</ele><time>2026-03-28T15:16:01.175Z</time></trkpt><trkpt lat="39.2881895" lon="16.955486"><ele>346.0</ele><time>2026-03-28T15:16:02.174Z</time></trkpt><trkpt lat="39.2882592" lon="16.9554325"><ele>346.0</ele><time>2026-03-28T15:16:03.178Z</time></trkpt><trkpt lat="39.2883292" lon="16.9553773"><ele>346.0</ele><time>2026-03-28T15:16:04.174Z</time></trkpt><trkpt lat="39.2883996" lon="16.9553271"><ele>346.0</ele><time>2026-03-28T15:16:05.197Z</time></trkpt><trkpt lat="39.2884672" lon="16.9552842"><ele>346.0</ele><time>2026-03-28T15:16:06.176Z</time></trkpt><trkpt lat="39.2885324" lon="16.9552451"><ele>346.0</ele><time>2026-03-28T15:16:07.184Z</time></trkpt><trkpt lat="39.2885936" lon="16.9552096"><ele>346.0</ele><time>2026-03-28T15:16:08.178Z</time></trkpt><trkpt lat="39.288655" lon="16.9551832"><ele>346.0</ele><time>2026-03-28T15:16:09.181Z</time></trkpt><trkpt lat="39.288773" lon="16.9551669"><ele>346.0</ele><time>2026-03-28T15:16:11.173Z</time></trkpt><trkpt lat="39.2888995" lon="16.9551681"><ele>346.0</ele><time>2026-03-28T15:16:13.175Z</time></trkpt><trkpt lat="39.2889669" lon="16.9551467"><ele>346.0</ele><time>2026-03-28T15:16:14.174Z</time></trkpt><trkpt lat="39.2890339" lon="16.9551165"><ele>344.5</ele><time>2026-03-28T15:16:15.178Z</time></trkpt><trkpt lat="39.2891001" lon="16.9550848"><ele>343.0</ele><time>2026-03-28T15:16:16.177Z</time></trkpt><trkpt lat="39.2891655" lon="16.9550583"><ele>341.5</ele><time>2026-03-28T15:16:17.194Z</time></trkpt><trkpt lat="39.2892272" lon="16.9550359"><ele>340.0</ele><time>2026-03-28T15:16:18.178Z</time></trkpt><trkpt lat="39.2892896" lon="16.9550227"><ele>338.5</ele><time>2026-03-28T15:16:19.182Z</time></trkpt><trkpt lat="39.2894167" lon="16.9549977"><ele>337.0</ele><time>2026-03-28T15:16:21.18Z</time></trkpt><trkpt lat="39.2894928" lon="16.9549825"><ele>341.8</ele><time>2026-03-28T15:16:22.179Z</time></trkpt><trkpt lat="39.289577" lon="16.9549658"><ele>346.6</ele><time>2026-03-28T15:16:23.177Z</time></trkpt><trkpt lat="39.2896646" lon="16.9549443"><ele>351.40000000000003</ele><time>2026-03-28T15:16:24.175Z</time></trkpt><trkpt lat="39.2897541" lon="16.9549236"><ele>356.20000000000005</ele><time>2026-03-28T15:16:25.177Z</time></trkpt><trkpt lat="39.2898465" lon="16.9548995"><ele>361.0</ele><time>2026-03-28T15:16:26.177Z</time></trkpt><trkpt lat="39.2899394" lon="16.9548351"><ele>362.0</ele><time>2026-03-28T15:16:27.191Z</time></trkpt><trkpt lat="39.2900289" lon="16.9547634"><ele>363.0</ele><time>2026-03-28T15:16:28.175Z</time></trkpt><trkpt lat="39.2901164" lon="16.9546962"><ele>364.0</ele><time>2026-03-28T15:16:29.178Z</time></trkpt><trkpt lat="39.2902001" lon="16.9546353"><ele>365.0</ele><time>2026-03-28T15:16:30.178Z</time></trkpt><trkpt lat="39.2902761" lon="16.9545803"><ele>366.0</ele><time>2026-03-28T15:16:31.18Z</time></trkpt><trkpt lat="39.29035" lon="16.9545316"><ele>366.0</ele><time>2026-03-28T15:16:32.191Z</time></trkpt><trkpt lat="39.2904205" lon="16.9544853"><ele>366.0</ele><time>2026-03-28T15:16:33.177Z</time></trkpt><trkpt lat="39.2904853" lon="16.9544333"><ele>366.0</ele><time>2026-03-28T15:16:34.179Z</time></trkpt><trkpt lat="39.2905445" lon="16.9543788"><ele>366.0</ele><time>2026-03-28T15:16:35.185Z</time></trkpt><trkpt lat="39.2906458" lon="16.9543391"><ele>366.0</ele><time>2026-03-28T15:16:37.196Z</time></trkpt><trkpt lat="39.2907441" lon="16.9544025"><ele>366.0</ele><time>2026-03-28T15:16:39.177Z</time></trkpt><trkpt lat="39.2908029" lon="16.9544577"><ele>366.1666666666667</ele><time>2026-03-28T15:16:40.18Z</time></trkpt><trkpt lat="39.2908665" lon="16.9545008"><ele>366.3333333333333</ele><time>2026-03-28T15:16:41.178Z</time></trkpt><trkpt lat="39.2909344" lon="16.9545366"><ele>366.5</ele><time>2026-03-28T15:16:42.182Z</time></trkpt><trkpt lat="39.2910058" lon="16.9545664"><ele>366.66666666666663</ele><time>2026-03-28T15:16:43.178Z</time></trkpt><trkpt lat="39.29108" lon="16.9545929"><ele>366.8333333333333</ele><time>2026-03-28T15:16:44.178Z</time></trkpt><trkpt lat="39.2911558" lon="16.9546165"><ele>367.0</ele><time>2026-03-28T15:16:45.178Z</time></trkpt><trkpt lat="39.2912349" lon="16.9546302"><ele>367.0</ele><time>2026-03-28T15:16:46.179Z</time></trkpt><trkpt lat="39.2913156" lon="16.9546387"><ele>367.0</ele><time>2026-03-28T15:16:47.18Z</time></trkpt><trkpt lat="39.2913966" lon="16.9546457"><ele>367.0</ele><time>2026-03-28T15:16:48.179Z</time></trkpt><trkpt lat="39.291475" lon="16.9546495"><ele>367.0</ele><time>2026-03-28T15:16:49.176Z</time></trkpt><trkpt lat="39.2915513" lon="16.9546458"><ele>367.0</ele><time>2026-03-28T15:16:50.18Z</time></trkpt><trkpt lat="39.2916256" lon="16.9546349"><ele>367.0</ele><time>2026-03-28T15:16:51.181Z</time></trkpt><trkpt lat="39.2916997" lon="16.9546265"><ele>366.0</ele><time>2026-03-28T15:16:52.177Z</time></trkpt><trkpt lat="39.2917767" lon="16.9546213"><ele>365.0</ele><time>2026-03-28T15:16:53.181Z</time></trkpt><trkpt lat="39.2918564" lon="16.9546075"><ele>364.0</ele><time>2026-03-28T15:16:54.173Z</time></trkpt><trkpt lat="39.2919415" lon="16.9545866"><ele>363.0</ele><time>2026-03-28T15:16:55.194Z</time></trkpt><trkpt lat="39.2920264" lon="16.9545661"><ele>362.0</ele><time>2026-03-28T15:16:56.177Z</time></trkpt><trkpt lat="39.2921058" lon="16.9545432"><ele>361.0</ele><time>2026-03-28T15:16:57.179Z</time></trkpt><trkpt lat="39.2921738" lon="16.9545213"><ele>359.8333333333333</ele><time>2026-03-28T15:16:58.176Z</time></trkpt><trkpt lat="39.2922809" lon="16.9544733"><ele>358.66666666666663</ele><time>2026-03-28T15:17:00.179Z</time></trkpt><trkpt lat="39.2923516" lon="16.9544475"><ele>357.5</ele><time>2026-03-28T15:17:02.179Z</time></trkpt><trkpt lat="39.2924178" lon="16.9544172"><ele>356.3333333333333</ele><time>2026-03-28T15:17:04.194Z</time></trkpt><trkpt lat="39.2925027" lon="16.9543867"><ele>355.1666666666667</ele><time>2026-03-28T15:17:06.179Z</time></trkpt><trkpt lat="39.2925805" lon="16.9543744"><ele>354.0</ele><time>2026-03-28T15:17:08.181Z</time></trkpt><trkpt lat="39.2926545" lon="16.9543795"><ele>354.0</ele><time>2026-03-28T15:17:10.183Z</time></trkpt><trkpt lat="39.2927533" lon="16.9543822"><ele>354.0</ele><time>2026-03-28T15:17:12.179Z</time></trkpt><trkpt lat="39.2928202" lon="16.9543792"><ele>354.0</ele><time>2026-03-28T15:17:13.178Z</time></trkpt><trkpt lat="39.2928987" lon="16.9543492"><ele>354.0</ele><time>2026-03-28T15:17:14.177Z</time></trkpt><trkpt lat="39.2929843" lon="16.9543179"><ele>354.0</ele><time>2026-03-28T15:17:15.177Z</time></trkpt><trkpt lat="39.293075" lon="16.9542937"><ele>354.0</ele><time>2026-03-28T15:17:16.184Z</time></trkpt><trkpt lat="39.2931617" lon="16.9542678"><ele>353.3333333333333</ele><time>2026-03-28T15:17:17.177Z</time></trkpt><trkpt lat="39.2932461" lon="16.9542347"><ele>352.6666666666667</ele><time>2026-03-28T15:17:18.208Z</time></trkpt><trkpt lat="39.2933174" lon="16.9541892"><ele>352.0</ele><time>2026-03-28T15:17:19.179Z</time></trkpt><trkpt lat="39.2933741" lon="16.9541286"><ele>351.33333333333337</ele><time>2026-03-28T15:17:20.177Z</time></trkpt><trkpt lat="39.2934193" lon="16.9540545"><ele>350.6666666666667</ele><time>2026-03-28T15:17:21.178Z</time></trkpt><trkpt lat="39.2934648" lon="16.9539847"><ele>350.0</ele><time>2026-03-28T15:17:22.183Z</time></trkpt><trkpt lat="39.2935704" lon="16.9539305"><ele>354.0</ele><time>2026-03-28T15:17:24.18Z</time></trkpt><trkpt lat="39.2936726" lon="16.9539957"><ele>358.0</ele><time>2026-03-28T15:17:26.18Z</time></trkpt><trkpt lat="39.2937847" lon="16.9540525"><ele>362.0</ele><time>2026-03-28T15:17:28.176Z</time></trkpt><trkpt lat="39.2939067" lon="16.9540677"><ele>366.0</ele><time>2026-03-28T15:17:30.179Z</time></trkpt><trkpt lat="39.2940309" lon="16.9540656"><ele>367.0</ele><time>2026-03-28T15:17:32.175Z</time></trkpt><trkpt lat="39.2941029" lon="16.9540772"><ele>368.0</ele><time>2026-03-28T15:17:33.18Z</time></trkpt><trkpt lat="39.2941792" lon="16.9540968"><ele>369.0</ele><time>2026-03-28T15:17:34.196Z</time></trkpt><trkpt lat="39.2942531" lon="16.9541122"><ele>370.0</ele><time>2026-03-28T15:17:35.18Z</time></trkpt><trkpt lat="39.2943222" lon="16.9541222"><ele>371.0</ele><time>2026-03-28T15:17:36.175Z</time></trkpt><trkpt lat="39.2943904" lon="16.9541271"><ele>372.0</ele><time>2026-03-28T15:17:37.178Z</time></trkpt><trkpt lat="39.2944634" lon="16.9541321"><ele>373.0</ele><time>2026-03-28T15:17:38.179Z</time></trkpt><trkpt lat="39.2945357" lon="16.9541526"><ele>373.0</ele><time>2026-03-28T15:17:39.2Z</time></trkpt><trkpt lat="39.2946014" lon="16.9541876"><ele>373.0</ele><time>2026-03-28T15:17:40.183Z</time></trkpt><trkpt lat="39.2946669" lon="16.9542135"><ele>373.0</ele><time>2026-03-28T15:17:41.174Z</time></trkpt><trkpt lat="39.2947348" lon="16.9542184"><ele>373.0</ele><time>2026-03-28T15:17:42.186Z</time></trkpt><trkpt lat="39.2948026" lon="16.9542013"><ele>373.0</ele><time>2026-03-28T15:17:43.18Z</time></trkpt><trkpt lat="39.2948668" lon="16.9541634"><ele>373.0</ele><time>2026-03-28T15:17:44.198Z</time></trkpt><trkpt lat="39.2949178" lon="16.954106"><ele>373.0</ele><time>2026-03-28T15:17:45.182Z</time></trkpt><trkpt lat="39.2949563" lon="16.9540368"><ele>372.66666666666663</ele><time>2026-03-28T15:17:46.179Z</time></trkpt><trkpt lat="39.294993" lon="16.9539658"><ele>372.3333333333333</ele><time>2026-03-28T15:17:47.177Z</time></trkpt><trkpt lat="39.295099" lon="16.9539445"><ele>372.0</ele><time>2026-03-28T15:17:49.174Z</time></trkpt><trkpt lat="39.2951492" lon="16.9539956"><ele>371.6666666666667</ele><time>2026-03-28T15:17:50.18Z</time></trkpt><trkpt lat="39.2951808" lon="16.9540801"><ele>371.33333333333337</ele><time>2026-03-28T15:17:51.176Z</time></trkpt><trkpt lat="39.2951895" lon="16.9541737"><ele>371.0</ele><time>2026-03-28T15:17:52.178Z</time></trkpt><trkpt lat="39.2951886" lon="16.9542667"><ele>371.0</ele><time>2026-03-28T15:17:53.178Z</time></trkpt><trkpt lat="39.2951994" lon="16.9543509"><ele>371.0</ele><time>2026-03-28T15:17:54.179Z</time></trkpt><trkpt lat="39.2952895" lon="16.9544536"><ele>371.0</ele><time>2026-03-28T15:17:56.184Z</time></trkpt><trkpt lat="39.2953497" lon="16.9544819"><ele>371.0</ele><time>2026-03-28T15:17:57.183Z</time></trkpt><trkpt lat="39.2954119" lon="16.9545105"><ele>371.0</ele><time>2026-03-28T15:17:58.176Z</time></trkpt><trkpt lat="39.2954744" lon="16.9545418"><ele>371.0</ele><time>2026-03-28T15:17:59.176Z</time></trkpt><trkpt lat="39.2955394" lon="16.9545625"><ele>375.8</ele><time>2026-03-28T15:18:00.176Z</time></trkpt><trkpt lat="39.2956041" lon="16.9545793"><ele>380.6</ele><time>2026-03-28T15:18:01.177Z</time></trkpt><trkpt lat="39.2956715" lon="16.9545745"><ele>385.4</ele><time>2026-03-28T15:18:02.177Z</time></trkpt><trkpt lat="39.2957357" lon="16.9545578"><ele>390.2</ele><time>2026-03-28T15:18:03.18Z</time></trkpt><trkpt lat="39.2958607" lon="16.9545281"><ele>395.0</ele><time>2026-03-28T15:18:05.181Z</time></trkpt><trkpt lat="39.2959822" lon="16.9544941"><ele>395.0</ele><time>2026-03-28T15:18:07.178Z</time></trkpt><trkpt lat="39.2960431" lon="16.9544715"><ele>395.0</ele><time>2026-03-28T15:18:08.178Z</time></trkpt><trkpt lat="39.2961513" lon="16.9544368"><ele>395.0</ele><time>2026-03-28T15:18:10.177Z</time></trkpt><trkpt lat="39.2962617" lon="16.9544014"><ele>395.0</ele><time>2026-03-28T15:18:12.182Z</time></trkpt><trkpt lat="39.2963866" lon="16.9543618"><ele>395.0</ele><time>2026-03-28T15:18:14.18Z</time></trkpt><trkpt lat="39.2964513" lon="16.9543379"><ele>397.2857142857143</ele><time>2026-03-28T15:18:15.182Z</time></trkpt><trkpt lat="39.2965172" lon="16.9543133"><ele>399.5714285714286</ele><time>2026-03-28T15:18:16.181Z</time></trkpt><trkpt lat="39.2965852" lon="16.9542923"><ele>401.8571428571429</ele><time>2026-03-28T15:18:17.174Z</time></trkpt><trkpt lat="39.2966521" lon="16.9542842"><ele>404.1428571428571</ele><time>2026-03-28T15:18:18.186Z</time></trkpt><trkpt lat="39.2967156" lon="16.9543019"><ele>406.42857142857144</ele><time>2026-03-28T15:18:19.18Z</time></trkpt><trkpt lat="39.2967751" lon="16.9543453"><ele>408.7142857142857</ele><time>2026-03-28T15:18:20.179Z</time></trkpt><trkpt lat="39.296823" lon="16.9544125"><ele>411.0</ele><time>2026-03-28T15:18:21.183Z</time></trkpt><trkpt lat="39.296867" lon="16.9544731"><ele>411.0</ele><time>2026-03-28T15:18:22.18Z</time></trkpt><trkpt lat="39.2969262" lon="16.9546058"><ele>411.0</ele><time>2026-03-28T15:18:24.184Z</time></trkpt><trkpt lat="39.2969762" lon="16.9547551"><ele>411.0</ele><time>2026-03-28T15:18:26.175Z</time></trkpt><trkpt lat="39.2969865" lon="16.9548371"><ele>411.0</ele><time>2026-03-28T15:18:27.177Z</time></trkpt><trkpt lat="39.2969655" lon="16.9549974"><ele>411.0</ele><time>2026-03-28T15:18:29.179Z</time></trkpt><trkpt lat="39.2969617" lon="16.9551376"><ele>410.1666666666667</ele><time>2026-03-28T15:18:31.177Z</time></trkpt><trkpt lat="39.2970339" lon="16.9552063"><ele>409.33333333333337</ele><time>2026-03-28T15:18:33.198Z</time></trkpt><trkpt lat="39.2971626" lon="16.9552208"><ele>408.5</ele><time>2026-03-28T15:18:35.181Z</time></trkpt><trkpt lat="39.2972348" lon="16.9552198"><ele>407.6666666666667</ele><time>2026-03-28T15:18:36.183Z</time></trkpt><trkpt lat="39.2973077" lon="16.9552239"><ele>406.83333333333337</ele><time>2026-03-28T15:18:37.18Z</time></trkpt><trkpt lat="39.2973679" lon="16.9552489"><ele>406.0</ele><time>2026-03-28T15:18:38.181Z</time></trkpt><trkpt lat="39.2974206" lon="16.9552982"><ele>410.4</ele><time>2026-03-28T15:18:39.182Z</time></trkpt><trkpt lat="39.297515" lon="16.9554144"><ele>414.8</ele><time>2026-03-28T15:18:41.182Z</time></trkpt><trkpt lat="39.2975606" lon="16.9554711"><ele>419.19999999999993</ele><time>2026-03-28T15:18:42.177Z</time></trkpt><trkpt lat="39.2976496" lon="16.9555843"><ele>423.59999999999997</ele><time>2026-03-28T15:18:44.18Z</time></trkpt><trkpt lat="39.297723" lon="16.9557047"><ele>428.0</ele><time>2026-03-28T15:18:46.191Z</time></trkpt><trkpt lat="39.2977844" lon="16.9558183"><ele>428.4</ele><time>2026-03-28T15:18:48.178Z</time></trkpt><trkpt lat="39.2978512" lon="16.9559249"><ele>428.79999999999995</ele><time>2026-03-28T15:18:50.176Z</time></trkpt><trkpt lat="39.2979334" lon="16.956024"><ele>429.2</ele><time>2026-03-28T15:18:52.178Z</time></trkpt><trkpt lat="39.2980176" lon="16.95613"><ele>429.6</ele><time>2026-03-28T15:18:54.178Z</time></trkpt><trkpt lat="39.2980767" lon="16.9562504"><ele>430.0</ele><time>2026-03-28T15:18:56.178Z</time></trkpt><trkpt lat="39.2981131" lon="16.9563767"><ele>434.1666666666667</ele><time>2026-03-28T15:18:58.179Z</time></trkpt><trkpt lat="39.2981348" lon="16.9564635"><ele>438.33333333333337</ele><time>2026-03-28T15:19:00.179Z</time></trkpt><trkpt lat="39.298167" lon="16.9565425"><ele>442.5</ele><time>2026-03-28T15:19:09.181Z</time></trkpt><trkpt lat="39.2982462" lon="16.9565955"><ele>446.66666666666663</ele><time>2026-03-28T15:19:12.182Z</time></trkpt><trkpt lat="39.2983298" lon="16.9565858"><ele>450.8333333333333</ele><time>2026-03-28T15:19:19.177Z</time></trkpt><trkpt lat="39.2983964" lon="16.956587"><ele>455.0</ele><time>2026-03-28T15:19:22.182Z</time></trkpt><trkpt lat="39.2983552" lon="16.9566637"><ele>454.99999999999994</ele><time>2026-03-28T15:19:26.185Z</time></trkpt><trkpt lat="39.2982839" lon="16.95668"><ele>455.0</ele><time>2026-03-28T15:19:28.198Z</time></trkpt><trkpt lat="39.2982082" lon="16.9566912"><ele>455.0</ele><time>2026-03-28T15:19:30.177Z</time></trkpt><trkpt lat="39.298131" lon="16.9567025"><ele>455.0</ele><time>2026-03-28T15:19:32.177Z</time></trkpt><trkpt lat="39.2980622" lon="16.9567644"><ele>454.99999999999994</ele><time>2026-03-28T15:19:35.182Z</time></trkpt><trkpt lat="39.298041" lon="16.9568577"><ele>455.0</ele><time>2026-03-28T15:19:37.181Z</time></trkpt><trkpt lat="39.2980315" lon="16.9569726"><ele>457.8</ele><time>2026-03-28T15:19:39.182Z</time></trkpt><trkpt lat="39.2980466" lon="16.9570977"><ele>460.6</ele><time>2026-03-28T15:19:41.181Z</time></trkpt><trkpt lat="39.2980604" lon="16.9572298"><ele>463.4</ele><time>2026-03-28T15:19:43.181Z</time></trkpt><trkpt lat="39.2980985" lon="16.9573799"><ele>466.2</ele><time>2026-03-28T15:19:45.189Z</time></trkpt><trkpt lat="39.2981312" lon="16.9575316"><ele>469.0</ele><time>2026-03-28T15:19:47.183Z</time></trkpt><trkpt lat="39.2981385" lon="16.95768"><ele>472.4</ele><time>2026-03-28T15:19:49.176Z</time></trkpt><trkpt lat="39.2981363" lon="16.9578333"><ele>475.79999999999995</ele><time>2026-03-28T15:19:51.183Z</time></trkpt><trkpt lat="39.2981452" lon="16.9579761"><ele>479.20000000000005</ele><time>2026-03-28T15:19:53.18Z</time></trkpt><trkpt lat="39.2981431" lon="16.9581326"><ele>482.6</ele><time>2026-03-28T15:19:55.177Z</time></trkpt><trkpt lat="39.2981253" lon="16.9582138"><ele>486.0</ele><time>2026-03-28T15:19:56.183Z</time></trkpt><trkpt lat="39.2980996" lon="16.9582883"><ele>481.6</ele><time>2026-03-28T15:19:57.182Z</time></trkpt><trkpt lat="39.2980309" lon="16.9584213"><ele>477.20000000000005</ele><time>2026-03-28T15:19:59.181Z</time></trkpt><trkpt lat="39.297988" lon="16.9585704"><ele>472.79999999999995</ele><time>2026-03-28T15:20:01.202Z</time></trkpt><trkpt lat="39.2979736" lon="16.9586505"><ele>468.4</ele><time>2026-03-28T15:20:02.177Z</time></trkpt><trkpt lat="39.2979278" lon="16.9587965"><ele>464.0</ele><time>2026-03-28T15:20:04.178Z</time></trkpt><trkpt lat="39.2978814" lon="16.9589213"><ele>463.99999999999994</ele><time>2026-03-28T15:20:06.179Z</time></trkpt><trkpt lat="39.2978238" lon="16.9590317"><ele>464.0</ele><time>2026-03-28T15:20:08.175Z</time></trkpt><trkpt lat="39.2977578" lon="16.959158"><ele>464.0</ele><time>2026-03-28T15:20:10.185Z</time></trkpt><trkpt lat="39.2977317" lon="16.9592362"><ele>464.0</ele><time>2026-03-28T15:20:11.177Z</time></trkpt><trkpt lat="39.2977024" lon="16.9593188"><ele>463.99999999999994</ele><time>2026-03-28T15:20:12.177Z</time></trkpt><trkpt lat="39.2976682" lon="16.9593925"><ele>464.0</ele><time>2026-03-28T15:20:13.178Z</time></trkpt><trkpt lat="39.2976264" lon="16.9594582"><ele>469.0</ele><time>2026-03-28T15:20:14.176Z</time></trkpt><trkpt lat="39.2975848" lon="16.9595231"><ele>474.0</ele><time>2026-03-28T15:20:15.176Z</time></trkpt><trkpt lat="39.2975101" lon="16.9596464"><ele>479.0</ele><time>2026-03-28T15:20:17.196Z</time></trkpt><trkpt lat="39.2974364" lon="16.9597613"><ele>484.0</ele><time>2026-03-28T15:20:19.178Z</time></trkpt><trkpt lat="39.2973835" lon="16.9598864"><ele>489.0</ele><time>2026-03-28T15:20:21.175Z</time></trkpt><trkpt lat="39.2973177" lon="16.9600189"><ele>490.4</ele><time>2026-03-28T15:20:23.175Z</time></trkpt><trkpt lat="39.297275" lon="16.9600826"><ele>491.79999999999995</ele><time>2026-03-28T15:20:24.181Z</time></trkpt><trkpt lat="39.2971961" lon="16.9601912"><ele>493.20000000000005</ele><time>2026-03-28T15:20:26.178Z</time></trkpt><trkpt lat="39.2971209" lon="16.9602583"><ele>494.6</ele><time>2026-03-28T15:20:28.181Z</time></trkpt><trkpt lat="39.2970197" lon="16.960354"><ele>496.0</ele><time>2026-03-28T15:20:30.179Z</time></trkpt><trkpt lat="39.2969443" lon="16.9603976"><ele>496.0</ele><time>2026-03-28T15:20:31.179Z</time></trkpt><trkpt lat="39.2968532" lon="16.960437"><ele>496.0</ele><time>2026-03-28T15:20:32.178Z</time></trkpt><trkpt lat="39.2967537" lon="16.960499"><ele>496.0</ele><time>2026-03-28T15:20:33.178Z</time></trkpt><trkpt lat="39.296658" lon="16.9605734"><ele>496.0</ele><time>2026-03-28T15:20:34.175Z</time></trkpt><trkpt lat="39.2965655" lon="16.9606372"><ele>496.0</ele><time>2026-03-28T15:20:35.21Z</time></trkpt><trkpt lat="39.2964789" lon="16.9606724"><ele>496.50000000000006</ele><time>2026-03-28T15:20:36.178Z</time></trkpt><trkpt lat="39.2964042" lon="16.9607021"><ele>497.0</ele><time>2026-03-28T15:20:37.176Z</time></trkpt><trkpt lat="39.296352" lon="16.9607527"><ele>497.5</ele><time>2026-03-28T15:20:38.178Z</time></trkpt><trkpt lat="39.2963121" lon="16.9608265"><ele>498.0</ele><time>2026-03-28T15:20:39.186Z</time></trkpt><trkpt lat="39.2962708" lon="16.9609165"><ele>498.50000000000006</ele><time>2026-03-28T15:20:40.179Z</time></trkpt><trkpt lat="39.296224" lon="16.9610146"><ele>499.0</ele><time>2026-03-28T15:20:41.179Z</time></trkpt><trkpt lat="39.2961695" lon="16.9611114"><ele>499.0</ele><time>2026-03-28T15:20:42.187Z</time></trkpt><trkpt lat="39.2961194" lon="16.9612056"><ele>499.0</ele><time>2026-03-28T15:20:43.181Z</time></trkpt><trkpt lat="39.2960776" lon="16.9613086"><ele>499.0</ele><time>2026-03-28T15:20:44.178Z</time></trkpt><trkpt lat="39.2960321" lon="16.9614144"><ele>499.0</ele><time>2026-03-28T15:20:45.178Z</time></trkpt><trkpt lat="39.2959654" lon="16.9615051"><ele>499.0</ele><time>2026-03-28T15:20:46.174Z</time></trkpt><trkpt lat="39.2958718" lon="16.9615875"><ele>499.0</ele><time>2026-03-28T15:20:47.192Z</time></trkpt><trkpt lat="39.2957734" lon="16.9616677"><ele>499.0</ele><time>2026-03-28T15:20:48.179Z</time></trkpt><trkpt lat="39.2956789" lon="16.9617436"><ele>499.0</ele><time>2026-03-28T15:20:49.18Z</time></trkpt><trkpt lat="39.2955934" lon="16.9618088"><ele>499.0</ele><time>2026-03-28T15:20:50.179Z</time></trkpt><trkpt lat="39.2955227" lon="16.9618713"><ele>499.0</ele><time>2026-03-28T15:20:51.177Z</time></trkpt><trkpt lat="39.2954647" lon="16.9619523"><ele>498.2</ele><time>2026-03-28T15:20:52.178Z</time></trkpt><trkpt lat="39.2954021" lon="16.962053"><ele>497.4</ele><time>2026-03-28T15:20:53.179Z</time></trkpt><trkpt lat="39.2953368" lon="16.9621458"><ele>496.6</ele><time>2026-03-28T15:20:54.179Z</time></trkpt><trkpt lat="39.2952782" lon="16.9622157"><ele>495.8</ele><time>2026-03-28T15:20:55.177Z</time></trkpt><trkpt lat="39.2952146" lon="16.9622376"><ele>495.0</ele><time>2026-03-28T15:20:56.196Z</time></trkpt><trkpt lat="39.2951037" lon="16.9622708"><ele>495.0</ele><time>2026-03-28T15:20:58.18Z</time></trkpt><trkpt lat="39.2950659" lon="16.9623468"><ele>495.0</ele><time>2026-03-28T15:20:59.178Z</time></trkpt><trkpt lat="39.2950301" lon="16.9624386"><ele>495.0</ele><time>2026-03-28T15:21:00.178Z</time></trkpt><trkpt lat="39.2949914" lon="16.9625283"><ele>495.0</ele><time>2026-03-28T15:21:01.179Z</time></trkpt><trkpt lat="39.2949497" lon="16.9626124"><ele>495.0</ele><time>2026-03-28T15:21:02.174Z</time></trkpt><trkpt lat="39.2949097" lon="16.9626969"><ele>495.0</ele><time>2026-03-28T15:21:03.189Z</time></trkpt><trkpt lat="39.2948759" lon="16.9627751"><ele>497.0</ele><time>2026-03-28T15:21:04.175Z</time></trkpt><trkpt lat="39.2948449" lon="16.9629053"><ele>499.0</ele><time>2026-03-28T15:21:06.176Z</time></trkpt><trkpt lat="39.2948595" lon="16.9630112"><ele>501.0</ele><time>2026-03-28T15:21:08.182Z</time></trkpt><trkpt lat="39.2948782" lon="16.9630977"><ele>503.0</ele><time>2026-03-28T15:21:11.18Z</time></trkpt><trkpt lat="39.2948994" lon="16.9632033"><ele>505.0</ele><time>2026-03-28T15:21:17.178Z</time></trkpt><trkpt lat="39.2949253" lon="16.9633142"><ele>507.0</ele><time>2026-03-28T15:21:19.18Z</time></trkpt><trkpt lat="39.2949388" lon="16.963407"><ele>510.0</ele><time>2026-03-28T15:21:21.187Z</time></trkpt><trkpt lat="39.2949289" lon="16.9635189"><ele>513.0</ele><time>2026-03-28T15:21:24.178Z</time></trkpt><trkpt lat="39.2948917" lon="16.9636369"><ele>516.0</ele><time>2026-03-28T15:21:26.18Z</time></trkpt><trkpt lat="39.2948443" lon="16.9637542"><ele>519.0</ele><time>2026-03-28T15:21:28.189Z</time></trkpt><trkpt lat="39.2947651" lon="16.9638749"><ele>522.0</ele><time>2026-03-28T15:21:30.181Z</time></trkpt><trkpt lat="39.2947097" lon="16.9639299"><ele>519.0</ele><time>2026-03-28T15:21:31.178Z</time></trkpt><trkpt lat="39.2946617" lon="16.9639984"><ele>516.0</ele><time>2026-03-28T15:21:32.182Z</time></trkpt><trkpt lat="39.2946234" lon="16.9640819"><ele>513.0</ele><time>2026-03-28T15:21:33.179Z</time></trkpt><trkpt lat="39.2945788" lon="16.9641706"><ele>510.0</ele><time>2026-03-28T15:21:34.178Z</time></trkpt><trkpt lat="39.2945195" lon="16.9642498"><ele>507.0</ele><time>2026-03-28T15:21:35.177Z</time></trkpt><trkpt lat="39.2944604" lon="16.9643257"><ele>504.0</ele><time>2026-03-28T15:21:36.182Z</time></trkpt><trkpt lat="39.2944191" lon="16.9644138"><ele>504.0</ele><time>2026-03-28T15:21:37.178Z</time></trkpt><trkpt lat="39.2943859" lon="16.9645167"><ele>504.0</ele><time>2026-03-28T15:21:38.179Z</time></trkpt><trkpt lat="39.2943472" lon="16.9646253"><ele>504.0</ele><time>2026-03-28T15:21:39.177Z</time></trkpt><trkpt lat="39.2943038" lon="16.9647403"><ele>504.0</ele><time>2026-03-28T15:21:40.177Z</time></trkpt><trkpt lat="39.2942728" lon="16.9648654"><ele>504.0</ele><time>2026-03-28T15:21:41.177Z</time></trkpt><trkpt lat="39.2942607" lon="16.9649916"><ele>507.3333333333333</ele><time>2026-03-28T15:21:42.18Z</time></trkpt><trkpt lat="39.2942554" lon="16.9651088"><ele>510.66666666666663</ele><time>2026-03-28T15:21:43.177Z</time></trkpt><trkpt lat="39.2942276" lon="16.9652106"><ele>514.0</ele><time>2026-03-28T15:21:44.184Z</time></trkpt><trkpt lat="39.2941666" lon="16.9652903"><ele>517.3333333333333</ele><time>2026-03-28T15:21:45.178Z</time></trkpt><trkpt lat="39.2941048" lon="16.9653635"><ele>520.6666666666666</ele><time>2026-03-28T15:21:46.182Z</time></trkpt><trkpt lat="39.2940608" lon="16.9654624"><ele>524.0</ele><time>2026-03-28T15:21:47.173Z</time></trkpt><trkpt lat="39.2940334" lon="16.9656003"><ele>524.0</ele><time>2026-03-28T15:21:48.176Z</time></trkpt><trkpt lat="39.2940088" lon="16.965741"><ele>524.0</ele><time>2026-03-28T15:21:49.177Z</time></trkpt><trkpt lat="39.2939748" lon="16.965855"><ele>524.0</ele><time>2026-03-28T15:21:50.182Z</time></trkpt><trkpt lat="39.2939468" lon="16.9659411"><ele>524.0</ele><time>2026-03-28T15:21:51.181Z</time></trkpt><trkpt lat="39.2939654" lon="16.9660454"><ele>524.0</ele><time>2026-03-28T15:21:53.182Z</time></trkpt><trkpt lat="39.2940382" lon="16.966023"><ele>524.0</ele><time>2026-03-28T15:21:55.19Z</time></trkpt><trkpt lat="39.2940933" lon="16.9659393"><ele>524.0</ele><time>2026-03-28T15:21:56.178Z</time></trkpt><trkpt lat="39.2941695" lon="16.9658282"><ele>524.0</ele><time>2026-03-28T15:21:57.178Z</time></trkpt><trkpt lat="39.2942557" lon="16.9657179"><ele>524.0</ele><time>2026-03-28T15:21:58.177Z</time></trkpt><trkpt lat="39.2943365" lon="16.965626"><ele>524.0</ele><time>2026-03-28T15:21:59.18Z</time></trkpt><trkpt lat="39.2944028" lon="16.9655538"><ele>524.0</ele><time>2026-03-28T15:22:00.176Z</time></trkpt><trkpt lat="39.2944933" lon="16.9655194"><ele>524.0</ele><time>2026-03-28T15:22:02.178Z</time></trkpt><trkpt lat="39.29449" lon="16.9656077"><ele>524.0</ele><time>2026-03-28T15:22:04.174Z</time></trkpt><trkpt lat="39.2944373" lon="16.9656929"><ele>524.0</ele><time>2026-03-28T15:22:05.177Z</time></trkpt><trkpt lat="39.2943702" lon="16.9658022"><ele>524.0</ele><time>2026-03-28T15:22:06.179Z</time></trkpt><trkpt lat="39.2943132" lon="16.9659358"><ele>524.0</ele><time>2026-03-28T15:22:07.173Z</time></trkpt><trkpt lat="39.2942609" lon="16.9660898"><ele>529.75</ele><time>2026-03-28T15:22:08.173Z</time></trkpt><trkpt lat="39.2942361" lon="16.9662791"><ele>535.5</ele><time>2026-03-28T15:22:09.176Z</time></trkpt><trkpt lat="39.2942172" lon="16.9664465"><ele>541.25</ele><time>2026-03-28T15:22:10.174Z</time></trkpt><trkpt lat="39.2941964" lon="16.9665775"><ele>547.0</ele><time>2026-03-28T15:22:11.202Z</time></trkpt><trkpt lat="39.2941718" lon="16.9666745"><ele>545.5714285714286</ele><time>2026-03-28T15:22:12.173Z</time></trkpt><trkpt lat="39.2941398" lon="16.9667547"><ele>544.1428571428571</ele><time>2026-03-28T15:22:13.178Z</time></trkpt><trkpt lat="39.2941043" lon="16.9668257"><ele>542.7142857142857</ele><time>2026-03-28T15:22:14.177Z</time></trkpt><trkpt lat="39.2940602" lon="16.9668952"><ele>541.2857142857142</ele><time>2026-03-28T15:22:15.181Z</time></trkpt><trkpt lat="39.2940067" lon="16.9669588"><ele>539.8571428571429</ele><time>2026-03-28T15:22:16.189Z</time></trkpt><trkpt lat="39.2939498" lon="16.9670043"><ele>538.4285714285713</ele><time>2026-03-28T15:22:17.176Z</time></trkpt><trkpt lat="39.2938924" lon="16.9670478"><ele>537.0</ele><time>2026-03-28T15:22:18.18Z</time></trkpt><trkpt lat="39.293841" lon="16.9671007"><ele>536.9999999999999</ele><time>2026-03-28T15:22:19.177Z</time></trkpt><trkpt lat="39.2937998" lon="16.9671712"><ele>537.0</ele><time>2026-03-28T15:22:20.178Z</time></trkpt><trkpt lat="39.2937723" lon="16.9672546"><ele>537.0</ele><time>2026-03-28T15:22:21.179Z</time></trkpt><trkpt lat="39.293759" lon="16.9673464"><ele>537.0</ele><time>2026-03-28T15:22:22.178Z</time></trkpt><trkpt lat="39.2937621" lon="16.9674428"><ele>537.0</ele><time>2026-03-28T15:22:23.192Z</time></trkpt><trkpt lat="39.2937677" lon="16.967539"><ele>536.9999999999999</ele><time>2026-03-28T15:22:24.182Z</time></trkpt><trkpt lat="39.2937537" lon="16.9676289"><ele>537.0</ele><time>2026-03-28T15:22:25.175Z</time></trkpt><trkpt lat="39.2937186" lon="16.967702"><ele>542.4285714285713</ele><time>2026-03-28T15:22:26.181Z</time></trkpt><trkpt lat="39.2936751" lon="16.9677624"><ele>547.8571428571429</ele><time>2026-03-28T15:22:27.178Z</time></trkpt><trkpt lat="39.2936093" lon="16.9677958"><ele>553.2857142857142</ele><time>2026-03-28T15:22:28.179Z</time></trkpt><trkpt lat="39.2935418" lon="16.9678388"><ele>558.7142857142857</ele><time>2026-03-28T15:22:29.177Z</time></trkpt><trkpt lat="39.293473" lon="16.9678912"><ele>564.1428571428571</ele><time>2026-03-28T15:22:30.192Z</time></trkpt><trkpt lat="39.2934203" lon="16.9679566"><ele>569.5714285714286</ele><time>2026-03-28T15:22:31.177Z</time></trkpt><trkpt lat="39.2933714" lon="16.9680182"><ele>575.0</ele><time>2026-03-28T15:22:32.177Z</time></trkpt><trkpt lat="39.2933218" lon="16.968075"><ele>575.0</ele><time>2026-03-28T15:22:33.177Z</time></trkpt><trkpt lat="39.2932684" lon="16.9681222"><ele>575.0</ele><time>2026-03-28T15:22:34.18Z</time></trkpt><trkpt lat="39.2931511" lon="16.9681727"><ele>575.0</ele><time>2026-03-28T15:22:36.181Z</time></trkpt><trkpt lat="39.2930865" lon="16.9681828"><ele>575.0</ele><time>2026-03-28T15:22:37.18Z</time></trkpt><trkpt lat="39.2929815" lon="16.9681791"><ele>575.0</ele><time>2026-03-28T15:22:39.197Z</time></trkpt><trkpt lat="39.2929219" lon="16.9682307"><ele>575.0</ele><time>2026-03-28T15:22:42.18Z</time></trkpt><trkpt lat="39.2929475" lon="16.9683207"><ele>573.3333333333333</ele><time>2026-03-28T15:22:44.187Z</time></trkpt><trkpt lat="39.2930378" lon="16.9684241"><ele>571.6666666666666</ele><time>2026-03-28T15:22:46.174Z</time></trkpt><trkpt lat="39.2931033" lon="16.9684843"><ele>570.0</ele><time>2026-03-28T15:22:47.181Z</time></trkpt><trkpt lat="39.2931744" lon="16.9685426"><ele>568.3333333333334</ele><time>2026-03-28T15:22:48.182Z</time></trkpt><trkpt lat="39.2932464" lon="16.9685967"><ele>566.6666666666667</ele><time>2026-03-28T15:22:49.197Z</time></trkpt><trkpt lat="39.2933128" lon="16.9686447"><ele>565.0</ele><time>2026-03-28T15:22:50.174Z</time></trkpt><trkpt lat="39.2933734" lon="16.9687736"><ele>568.6666666666667</ele><time>2026-03-28T15:22:52.172Z</time></trkpt><trkpt lat="39.2933466" lon="16.9688911"><ele>572.3333333333334</ele><time>2026-03-28T15:22:54.175Z</time></trkpt><trkpt lat="39.2932998" lon="16.9689984"><ele>576.0</ele><time>2026-03-28T15:22:56.177Z</time></trkpt><trkpt lat="39.2932493" lon="16.9691251"><ele>579.6666666666666</ele><time>2026-03-28T15:22:58.188Z</time></trkpt><trkpt lat="39.2932263" lon="16.9692029"><ele>583.3333333333333</ele><time>2026-03-28T15:22:59.179Z</time></trkpt><trkpt lat="39.2932086" lon="16.9692825"><ele>587.0</ele><time>2026-03-28T15:23:00.177Z</time></trkpt><trkpt lat="39.2931927" lon="16.9694237"><ele>588.0</ele><time>2026-03-28T15:23:02.176Z</time></trkpt><trkpt lat="39.2931895" lon="16.9695199"><ele>589.0</ele><time>2026-03-28T15:23:04.177Z</time></trkpt><trkpt lat="39.2931879" lon="16.9696278"><ele>590.0</ele><time>2026-03-28T15:23:08.199Z</time></trkpt><trkpt lat="39.2932383" lon="16.9697111"><ele>591.0</ele><time>2026-03-28T15:23:11.181Z</time></trkpt><trkpt lat="39.2933052" lon="16.9696794"><ele>592.0</ele><time>2026-03-28T15:23:14.176Z</time></trkpt><trkpt lat="39.2933569" lon="16.9695594"><ele>593.0</ele><time>2026-03-28T15:23:16.178Z</time></trkpt><trkpt lat="39.2933964" lon="16.9694856"><ele>593.0</ele><time>2026-03-28T15:23:17.202Z</time></trkpt><trkpt lat="39.2935059" lon="16.9693443"><ele>593.0</ele><time>2026-03-28T15:23:19.178Z</time></trkpt><trkpt lat="39.2935844" lon="16.9692492"><ele>593.0</ele><time>2026-03-28T15:23:20.18Z</time></trkpt><trkpt lat="39.2936822" lon="16.9691338"><ele>593.0</ele><time>2026-03-28T15:23:21.182Z</time></trkpt><trkpt lat="39.2937975" lon="16.9689995"><ele>591.3333333333333</ele><time>2026-03-28T15:23:22.175Z</time></trkpt><trkpt lat="39.2939335" lon="16.9688552"><ele>589.6666666666666</ele><time>2026-03-28T15:23:23.187Z</time></trkpt><trkpt lat="39.2940681" lon="16.9687225"><ele>588.0</ele><time>2026-03-28T15:23:24.178Z</time></trkpt><trkpt lat="39.2941889" lon="16.9686047"><ele>588.0</ele><time>2026-03-28T15:23:25.19Z</time></trkpt><trkpt lat="39.2942938" lon="16.9685049"><ele>588.0</ele><time>2026-03-28T15:23:26.183Z</time></trkpt><trkpt lat="39.2943913" lon="16.9684104"><ele>588.0</ele><time>2026-03-28T15:23:27.185Z</time></trkpt><trkpt lat="39.2944863" lon="16.9683173"><ele>588.0</ele><time>2026-03-28T15:23:28.174Z</time></trkpt><trkpt lat="39.2945801" lon="16.9682245"><ele>589.25</ele><time>2026-03-28T15:23:29.185Z</time></trkpt><trkpt lat="39.2946726" lon="16.968138"><ele>590.5</ele><time>2026-03-28T15:23:30.178Z</time></trkpt><trkpt lat="39.2947659" lon="16.9680546"><ele>591.75</ele><time>2026-03-28T15:23:31.184Z</time></trkpt><trkpt lat="39.2948564" lon="16.9679701"><ele>593.0</ele><time>2026-03-28T15:23:32.178Z</time></trkpt><trkpt lat="39.2949519" lon="16.9678746"><ele>593.0</ele><time>2026-03-28T15:23:33.195Z</time></trkpt><trkpt lat="39.2950483" lon="16.9677641"><ele>593.0</ele><time>2026-03-28T15:23:34.184Z</time></trkpt><trkpt lat="39.2951387" lon="16.9676537"><ele>593.0</ele><time>2026-03-28T15:23:35.177Z</time></trkpt><trkpt lat="39.2952212" lon="16.9675556"><ele>593.0</ele><time>2026-03-28T15:23:36.188Z</time></trkpt><trkpt lat="39.2952966" lon="16.9674719"><ele>594.6666666666666</ele><time>2026-03-28T15:23:37.203Z</time></trkpt><trkpt lat="39.2953658" lon="16.9674017"><ele>596.3333333333333</ele><time>2026-03-28T15:23:38.193Z</time></trkpt><trkpt lat="39.2954385" lon="16.9673445"><ele>598.0</ele><time>2026-03-28T15:23:39.195Z</time></trkpt><trkpt lat="39.2955158" lon="16.9673003"><ele>599.6666666666666</ele><time>2026-03-28T15:23:40.178Z</time></trkpt><trkpt lat="39.2955945" lon="16.9672713"><ele>601.3333333333334</ele><time>2026-03-28T15:23:41.192Z</time></trkpt><trkpt lat="39.295669" lon="16.9672474"><ele>603.0</ele><time>2026-03-28T15:23:42.177Z</time></trkpt><trkpt lat="39.2957399" lon="16.9672192"><ele>603.0</ele><time>2026-03-28T15:23:43.197Z</time></trkpt><trkpt lat="39.295807" lon="16.96719"><ele>603.0</ele><time>2026-03-28T15:23:44.198Z</time></trkpt><trkpt lat="39.2958643" lon="16.96713"><ele>603.0</ele><time>2026-03-28T15:23:45.179Z</time></trkpt><trkpt lat="39.2959046" lon="16.9670607"><ele>603.0</ele><time>2026-03-28T15:23:46.194Z</time></trkpt><trkpt lat="39.2959303" lon="16.9669776"><ele>603.0</ele><time>2026-03-28T15:23:47.202Z</time></trkpt><trkpt lat="39.2959499" lon="16.9668842"><ele>603.0</ele><time>2026-03-28T15:23:48.175Z</time></trkpt><trkpt lat="39.2959799" lon="16.9667977"><ele>603.0</ele><time>2026-03-28T15:23:49.198Z</time></trkpt><trkpt lat="39.2960096" lon="16.9667171"><ele>604.5</ele><time>2026-03-28T15:23:50.215Z</time></trkpt><trkpt lat="39.2960409" lon="16.9666308"><ele>606.0</ele><time>2026-03-28T15:23:51.2Z</time></trkpt><trkpt lat="39.29607" lon="16.9665419"><ele>607.5</ele><time>2026-03-28T15:23:52.215Z</time></trkpt><trkpt lat="39.2961044" lon="16.9664502"><ele>609.0</ele><time>2026-03-28T15:23:53.21Z</time></trkpt><trkpt lat="39.2961387" lon="16.9663442"><ele>610.5</ele><time>2026-03-28T15:23:54.201Z</time></trkpt><trkpt lat="39.296171" lon="16.9662305"><ele>612.0</ele><time>2026-03-28T15:23:55.193Z</time></trkpt><trkpt lat="39.2962052" lon="16.9661178"><ele>612.0</ele><time>2026-03-28T15:23:56.233Z</time></trkpt><trkpt lat="39.2962396" lon="16.9660148"><ele>612.0</ele><time>2026-03-28T15:23:57.174Z</time></trkpt><trkpt lat="39.2962753" lon="16.965915"><ele>612.0</ele><time>2026-03-28T15:23:58.195Z</time></trkpt><trkpt lat="39.2963072" lon="16.9658208"><ele>612.0</ele><time>2026-03-28T15:23:59.193Z</time></trkpt><trkpt lat="39.2963352" lon="16.9657319"><ele>612.0</ele><time>2026-03-28T15:24:00.197Z</time></trkpt><trkpt lat="39.2963586" lon="16.9656492"><ele>612.0</ele><time>2026-03-28T15:24:01.202Z</time></trkpt><trkpt lat="39.2964057" lon="16.96553"><ele>614.1666666666666</ele><time>2026-03-28T15:24:03.18Z</time></trkpt><trkpt lat="39.2964642" lon="16.9654577"><ele>616.3333333333334</ele><time>2026-03-28T15:24:05.205Z</time></trkpt><trkpt lat="39.2965214" lon="16.9653928"><ele>618.5</ele><time>2026-03-28T15:24:07.19Z</time></trkpt><trkpt lat="39.2965717" lon="16.965303"><ele>620.6666666666667</ele><time>2026-03-28T15:24:09.204Z</time></trkpt><trkpt lat="39.2966417" lon="16.9652242"><ele>622.8333333333334</ele><time>2026-03-28T15:24:11.173Z</time></trkpt><trkpt lat="39.2967059" lon="16.9651816"><ele>625.0</ele><time>2026-03-28T15:24:13.192Z</time></trkpt><trkpt lat="39.2968013" lon="16.9651388"><ele>625.0</ele><time>2026-03-28T15:24:15.194Z</time></trkpt><trkpt lat="39.2969112" lon="16.9650774"><ele>625.0</ele><time>2026-03-28T15:24:17.19Z</time></trkpt><trkpt lat="39.2970072" lon="16.9650003"><ele>625.0</ele><time>2026-03-28T15:24:19.175Z</time></trkpt><trkpt lat="39.2970845" lon="16.9649212"><ele>625.0</ele><time>2026-03-28T15:24:21.199Z</time></trkpt><trkpt lat="39.2970998" lon="16.9648031"><ele>625.0</ele><time>2026-03-28T15:24:23.19Z</time></trkpt><trkpt lat="39.2970479" lon="16.9646782"><ele>627.0</ele><time>2026-03-28T15:24:25.176Z</time></trkpt><trkpt lat="39.2969904" lon="16.9646205"><ele>629.0</ele><time>2026-03-28T15:24:26.199Z</time></trkpt><trkpt lat="39.2969205" lon="16.9645705"><ele>631.0</ele><time>2026-03-28T15:24:27.177Z</time></trkpt><trkpt lat="39.2968501" lon="16.9645279"><ele>633.0</ele><time>2026-03-28T15:24:28.2Z</time></trkpt><trkpt lat="39.2967818" lon="16.9644951"><ele>635.0</ele><time>2026-03-28T15:24:29.231Z</time></trkpt><trkpt lat="39.296718" lon="16.9644802"><ele>637.0</ele><time>2026-03-28T15:24:30.179Z</time></trkpt><trkpt lat="39.2966298" lon="16.9644849"><ele>637.0</ele><time>2026-03-28T15:24:32.18Z</time></trkpt><trkpt lat="39.2966962" lon="16.9645077"><ele>637.0</ele><time>2026-03-28T15:35:46.178Z</time></trkpt><trkpt lat="39.2967789" lon="16.9645187"><ele>637.0</ele><time>2026-03-28T15:35:53.181Z</time></trkpt><trkpt lat="39.2968514" lon="16.9645485"><ele>637.0</ele><time>2026-03-28T15:35:55.181Z</time></trkpt><trkpt lat="39.2969241" lon="16.9645971"><ele>637.0</ele><time>2026-03-28T15:35:57.193Z</time></trkpt><trkpt lat="39.2969973" lon="16.9646555"><ele>637.0</ele><time>2026-03-28T15:35:59.178Z</time></trkpt><trkpt lat="39.2970604" lon="16.9647322"><ele>637.0</ele><time>2026-03-28T15:36:01.178Z</time></trkpt><trkpt lat="39.2970941" lon="16.9648214"><ele>637.0</ele><time>2026-03-28T15:36:03.179Z</time></trkpt><trkpt lat="39.2970905" lon="16.9649149"><ele>637.0</ele><time>2026-03-28T15:36:05.187Z</time></trkpt><trkpt lat="39.2970471" lon="16.9650048"><ele>637.0</ele><time>2026-03-28T15:36:07.187Z</time></trkpt><trkpt lat="39.2969595" lon="16.9650706"><ele>637.0</ele><time>2026-03-28T15:36:09.179Z</time></trkpt><trkpt lat="39.296852" lon="16.9651356"><ele>635.0</ele><time>2026-03-28T15:36:11.178Z</time></trkpt><trkpt lat="39.2967479" lon="16.96519"><ele>633.0</ele><time>2026-03-28T15:36:13.178Z</time></trkpt><trkpt lat="39.2966559" lon="16.9652289"><ele>631.0</ele><time>2026-03-28T15:36:15.182Z</time></trkpt><trkpt lat="39.2965724" lon="16.9652818"><ele>629.0</ele><time>2026-03-28T15:36:17.18Z</time></trkpt><trkpt lat="39.2965332" lon="16.965373"><ele>627.0</ele><time>2026-03-28T15:36:19.182Z</time></trkpt><trkpt lat="39.296484" lon="16.9654307"><ele>625.0</ele><time>2026-03-28T15:36:21.179Z</time></trkpt><trkpt lat="39.2964268" lon="16.9654718"><ele>623.1428571428572</ele><time>2026-03-28T15:36:24.185Z</time></trkpt><trkpt lat="39.2963829" lon="16.9655374"><ele>621.2857142857143</ele><time>2026-03-28T15:36:48.186Z</time></trkpt><trkpt lat="39.2963479" lon="16.9656201"><ele>619.4285714285714</ele><time>2026-03-28T15:36:53.186Z</time></trkpt><trkpt lat="39.2963214" lon="16.9657034"><ele>617.5714285714287</ele><time>2026-03-28T15:37:06.199Z</time></trkpt><trkpt lat="39.2962937" lon="16.9657918"><ele>615.7142857142858</ele><time>2026-03-28T15:37:11.18Z</time></trkpt><trkpt lat="39.2962601" lon="16.9659041"><ele>613.8571428571429</ele><time>2026-03-28T15:37:14.177Z</time></trkpt><trkpt lat="39.2962351" lon="16.9659847"><ele>612.0</ele><time>2026-03-28T15:37:16.18Z</time></trkpt><trkpt lat="39.2962028" lon="16.9660822"><ele>612.0</ele><time>2026-03-28T15:37:18.178Z</time></trkpt><trkpt lat="39.2961617" lon="16.9662095"><ele>612.0</ele><time>2026-03-28T15:37:20.176Z</time></trkpt><trkpt lat="39.2961386" lon="16.9662867"><ele>612.0</ele><time>2026-03-28T15:37:21.182Z</time></trkpt><trkpt lat="39.2960952" lon="16.9664233"><ele>612.0</ele><time>2026-03-28T15:37:23.177Z</time></trkpt><trkpt lat="39.2960615" lon="16.9665385"><ele>612.0</ele><time>2026-03-28T15:37:25.18Z</time></trkpt><trkpt lat="39.2960416" lon="16.9666398"><ele>610.5</ele><time>2026-03-28T15:37:27.18Z</time></trkpt><trkpt lat="39.2960344" lon="16.9667269"><ele>609.0</ele><time>2026-03-28T15:37:29.179Z</time></trkpt><trkpt lat="39.2960335" lon="16.9668231"><ele>607.5</ele><time>2026-03-28T15:37:31.178Z</time></trkpt><trkpt lat="39.2960152" lon="16.9669398"><ele>606.0</ele><time>2026-03-28T15:37:33.181Z</time></trkpt><trkpt lat="39.2959858" lon="16.967068"><ele>604.5</ele><time>2026-03-28T15:37:35.18Z</time></trkpt><trkpt lat="39.2959703" lon="16.9672024"><ele>603.0</ele><time>2026-03-28T15:37:37.178Z</time></trkpt><trkpt lat="39.295974" lon="16.9673392"><ele>603.0</ele><time>2026-03-28T15:37:39.181Z</time></trkpt><trkpt lat="39.2959902" lon="16.967481"><ele>603.0</ele><time>2026-03-28T15:37:41.181Z</time></trkpt><trkpt lat="39.2960151" lon="16.9676383"><ele>603.0</ele><time>2026-03-28T15:37:43.195Z</time></trkpt><trkpt lat="39.2960456" lon="16.9677832"><ele>603.0</ele><time>2026-03-28T15:37:45.175Z</time></trkpt><trkpt lat="39.2960699" lon="16.9679196"><ele>600.6</ele><time>2026-03-28T15:37:47.175Z</time></trkpt><trkpt lat="39.2960893" lon="16.9680721"><ele>598.1999999999999</ele><time>2026-03-28T15:37:49.177Z</time></trkpt><trkpt lat="39.2961002" lon="16.9682057"><ele>595.8</ele><time>2026-03-28T15:37:51.183Z</time></trkpt><trkpt lat="39.2960765" lon="16.9683459"><ele>593.4</ele><time>2026-03-28T15:37:53.18Z</time></trkpt><trkpt lat="39.2960633" lon="16.9684475"><ele>591.0</ele><time>2026-03-28T15:37:55.18Z</time></trkpt><trkpt lat="39.2960936" lon="16.9685392"><ele>589.1428571428571</ele><time>2026-03-28T15:37:57.176Z</time></trkpt><trkpt lat="39.2961373" lon="16.9686505"><ele>587.2857142857143</ele><time>2026-03-28T15:37:59.184Z</time></trkpt><trkpt lat="39.2961692" lon="16.968723"><ele>585.4285714285714</ele><time>2026-03-28T15:38:00.176Z</time></trkpt><trkpt lat="39.2962039" lon="16.968797"><ele>583.5714285714286</ele><time>2026-03-28T15:38:01.179Z</time></trkpt><trkpt lat="39.2962305" lon="16.9688781"><ele>581.7142857142857</ele><time>2026-03-28T15:38:02.177Z</time></trkpt><trkpt lat="39.2962544" lon="16.9689646"><ele>579.8571428571429</ele><time>2026-03-28T15:38:03.179Z</time></trkpt><trkpt lat="39.2962832" lon="16.9690437"><ele>578.0</ele><time>2026-03-28T15:38:04.181Z</time></trkpt><trkpt lat="39.2963189" lon="16.9691116"><ele>578.0</ele><time>2026-03-28T15:38:05.2Z</time></trkpt><trkpt lat="39.2963794" lon="16.9691524"><ele>578.0</ele><time>2026-03-28T15:38:06.182Z</time></trkpt><trkpt lat="39.2964513" lon="16.9691781"><ele>578.0</ele><time>2026-03-28T15:38:07.18Z</time></trkpt><trkpt lat="39.2965713" lon="16.9692287"><ele>578.0</ele><time>2026-03-28T15:38:09.182Z</time></trkpt><trkpt lat="39.2966646" lon="16.9692826"><ele>578.0</ele><time>2026-03-28T15:38:11.182Z</time></trkpt><trkpt lat="39.2967411" lon="16.9693407"><ele>577.3333333333333</ele><time>2026-03-28T15:38:13.18Z</time></trkpt><trkpt lat="39.296808" lon="16.969415"><ele>576.6666666666666</ele><time>2026-03-28T15:38:15.179Z</time></trkpt><trkpt lat="39.2968846" lon="16.9695074"><ele>576.0</ele><time>2026-03-28T15:38:17.175Z</time></trkpt><trkpt lat="39.2969658" lon="16.9695976"><ele>575.3333333333334</ele><time>2026-03-28T15:38:19.18Z</time></trkpt><trkpt lat="39.2970148" lon="16.9696503"><ele>574.6666666666667</ele><time>2026-03-28T15:38:20.177Z</time></trkpt><trkpt lat="39.2970693" lon="16.9697095"><ele>574.0</ele><time>2026-03-28T15:38:21.179Z</time></trkpt><trkpt lat="39.2971348" lon="16.9697794"><ele>574.0</ele><time>2026-03-28T15:38:22.177Z</time></trkpt><trkpt lat="39.2972061" lon="16.9698497"><ele>574.0</ele><time>2026-03-28T15:38:23.198Z</time></trkpt><trkpt lat="39.2972709" lon="16.9699161"><ele>574.0</ele><time>2026-03-28T15:38:24.182Z</time></trkpt><trkpt lat="39.2973215" lon="16.9699871"><ele>574.0</ele><time>2026-03-28T15:38:25.177Z</time></trkpt><trkpt lat="39.2973604" lon="16.9700683"><ele>574.0</ele><time>2026-03-28T15:38:26.181Z</time></trkpt><trkpt lat="39.2973913" lon="16.9701462"><ele>574.0</ele><time>2026-03-28T15:38:27.177Z</time></trkpt><trkpt lat="39.2974148" lon="16.9702288"><ele>573.3333333333334</ele><time>2026-03-28T15:38:28.189Z</time></trkpt><trkpt lat="39.297438" lon="16.9703108"><ele>572.6666666666667</ele><time>2026-03-28T15:38:29.178Z</time></trkpt><trkpt lat="39.2975025" lon="16.9704534"><ele>572.0</ele><time>2026-03-28T15:38:31.182Z</time></trkpt><trkpt lat="39.2975374" lon="16.9705223"><ele>571.3333333333334</ele><time>2026-03-28T15:38:32.178Z</time></trkpt><trkpt lat="39.2975722" lon="16.9705958"><ele>570.6666666666666</ele><time>2026-03-28T15:38:33.182Z</time></trkpt><trkpt lat="39.2976366" lon="16.9707281"><ele>570.0</ele><time>2026-03-28T15:38:35.205Z</time></trkpt><trkpt lat="39.2976838" lon="16.9708741"><ele>568.0</ele><time>2026-03-28T15:38:37.185Z</time></trkpt><trkpt lat="39.2977034" lon="16.9709804"><ele>566.0</ele><time>2026-03-28T15:38:38.176Z</time></trkpt><trkpt lat="39.297726" lon="16.9710931"><ele>564.0</ele><time>2026-03-28T15:38:39.179Z</time></trkpt><trkpt lat="39.2977501" lon="16.9711947"><ele>562.0</ele><time>2026-03-28T15:38:40.185Z</time></trkpt><trkpt lat="39.2977681" lon="16.9712973"><ele>560.0</ele><time>2026-03-28T15:38:41.182Z</time></trkpt><trkpt lat="39.2977771" lon="16.9714066"><ele>558.0</ele><time>2026-03-28T15:38:42.203Z</time></trkpt><trkpt lat="39.2977852" lon="16.9715188"><ele>558.0</ele><time>2026-03-28T15:38:43.18Z</time></trkpt><trkpt lat="39.2977953" lon="16.9716163"><ele>558.0</ele><time>2026-03-28T15:38:44.179Z</time></trkpt><trkpt lat="39.2978056" lon="16.9717076"><ele>558.0</ele><time>2026-03-28T15:38:45.185Z</time></trkpt><trkpt lat="39.2978093" lon="16.9717954"><ele>558.0</ele><time>2026-03-28T15:38:46.18Z</time></trkpt><trkpt lat="39.2977967" lon="16.9718829"><ele>558.0</ele><time>2026-03-28T15:38:47.198Z</time></trkpt><trkpt lat="39.2977657" lon="16.9719702"><ele>558.0</ele><time>2026-03-28T15:38:48.183Z</time></trkpt><trkpt lat="39.2977176" lon="16.972071"><ele>555.1999999999999</ele><time>2026-03-28T15:38:49.181Z</time></trkpt><trkpt lat="39.2976665" lon="16.9721723"><ele>552.4</ele><time>2026-03-28T15:38:50.187Z</time></trkpt><trkpt lat="39.2976144" lon="16.9722736"><ele>549.5999999999999</ele><time>2026-03-28T15:38:51.181Z</time></trkpt><trkpt lat="39.2975684" lon="16.9723746"><ele>546.8</ele><time>2026-03-28T15:38:52.204Z</time></trkpt><trkpt lat="39.2975336" lon="16.97248"><ele>544.0</ele><time>2026-03-28T15:38:53.18Z</time></trkpt><trkpt lat="39.2975136" lon="16.9725992"><ele>541.6666666666667</ele><time>2026-03-28T15:38:54.18Z</time></trkpt><trkpt lat="39.2974889" lon="16.9727148"><ele>539.3333333333334</ele><time>2026-03-28T15:38:55.179Z</time></trkpt><trkpt lat="39.2974595" lon="16.9728189"><ele>537.0</ele><time>2026-03-28T15:38:56.178Z</time></trkpt><trkpt lat="39.2974282" lon="16.9729102"><ele>534.6666666666666</ele><time>2026-03-28T15:38:57.185Z</time></trkpt><trkpt lat="39.2973838" lon="16.972985"><ele>532.3333333333333</ele><time>2026-03-28T15:38:58.174Z</time></trkpt><trkpt lat="39.2973385" lon="16.9730579"><ele>530.0</ele><time>2026-03-28T15:38:59.188Z</time></trkpt><trkpt lat="39.2973032" lon="16.9731402"><ele>530.0</ele><time>2026-03-28T15:39:00.177Z</time></trkpt><trkpt lat="39.2972806" lon="16.9732303"><ele>530.0</ele><time>2026-03-28T15:39:01.179Z</time></trkpt><trkpt lat="39.2972965" lon="16.9733292"><ele>530.0</ele><time>2026-03-28T15:39:02.175Z</time></trkpt><trkpt lat="39.2973218" lon="16.973427"><ele>530.0</ele><time>2026-03-28T15:39:03.176Z</time></trkpt><trkpt lat="39.2973492" lon="16.973524"><ele>530.0</ele><time>2026-03-28T15:39:04.175Z</time></trkpt><trkpt lat="39.2973796" lon="16.9736184"><ele>530.0</ele><time>2026-03-28T15:39:05.177Z</time></trkpt><trkpt lat="39.2974105" lon="16.9737173"><ele>526.2</ele><time>2026-03-28T15:39:06.178Z</time></trkpt><trkpt lat="39.2974364" lon="16.9738357"><ele>522.4</ele><time>2026-03-28T15:39:07.2Z</time></trkpt><trkpt lat="39.2974587" lon="16.9739557"><ele>518.6</ele><time>2026-03-28T15:39:08.179Z</time></trkpt><trkpt lat="39.2974828" lon="16.9740801"><ele>514.8</ele><time>2026-03-28T15:39:09.182Z</time></trkpt><trkpt lat="39.2975041" lon="16.9742037"><ele>511.0</ele><time>2026-03-28T15:39:10.181Z</time></trkpt><trkpt lat="39.2975181" lon="16.9743196"><ele>508.6666666666667</ele><time>2026-03-28T15:39:11.177Z</time></trkpt><trkpt lat="39.2975266" lon="16.974432"><ele>506.33333333333337</ele><time>2026-03-28T15:39:12.18Z</time></trkpt><trkpt lat="39.2975374" lon="16.9745349"><ele>504.0</ele><time>2026-03-28T15:39:13.181Z</time></trkpt><trkpt lat="39.2975745" lon="16.9746268"><ele>501.66666666666663</ele><time>2026-03-28T15:39:14.18Z</time></trkpt><trkpt lat="39.2976203" lon="16.974699"><ele>499.3333333333333</ele><time>2026-03-28T15:39:15.21Z</time></trkpt><trkpt lat="39.2976738" lon="16.9747627"><ele>497.0</ele><time>2026-03-28T15:39:16.178Z</time></trkpt><trkpt lat="39.297729" lon="16.9748203"><ele>496.99999999999994</ele><time>2026-03-28T15:39:17.177Z</time></trkpt><trkpt lat="39.2977701" lon="16.9748833"><ele>497.0</ele><time>2026-03-28T15:39:18.179Z</time></trkpt><trkpt lat="39.2978283" lon="16.9750266"><ele>497.0</ele><time>2026-03-28T15:39:20.181Z</time></trkpt><trkpt lat="39.2978389" lon="16.975111"><ele>497.0</ele><time>2026-03-28T15:39:21.186Z</time></trkpt><trkpt lat="39.2978504" lon="16.9752037"><ele>496.99999999999994</ele><time>2026-03-28T15:39:22.181Z</time></trkpt><trkpt lat="39.2978602" lon="16.9753165"><ele>497.0</ele><time>2026-03-28T15:39:23.182Z</time></trkpt><trkpt lat="39.297871" lon="16.9754133"><ele>493.6</ele><time>2026-03-28T15:39:24.184Z</time></trkpt><trkpt lat="39.2978928" lon="16.9754897"><ele>490.20000000000005</ele><time>2026-03-28T15:39:25.189Z</time></trkpt><trkpt lat="39.2979597" lon="16.9755929"><ele>486.8</ele><time>2026-03-28T15:39:27.184Z</time></trkpt><trkpt lat="39.2980719" lon="16.9756616"><ele>483.4</ele><time>2026-03-28T15:39:29.184Z</time></trkpt><trkpt lat="39.2981401" lon="16.9757151"><ele>480.0</ele><time>2026-03-28T15:39:30.205Z</time></trkpt><trkpt lat="39.2981984" lon="16.9757861"><ele>478.42857142857144</ele><time>2026-03-28T15:39:31.185Z</time></trkpt><trkpt lat="39.2982532" lon="16.9758574"><ele>476.85714285714283</ele><time>2026-03-28T15:39:32.184Z</time></trkpt><trkpt lat="39.2983079" lon="16.9759208"><ele>475.2857142857143</ele><time>2026-03-28T15:39:33.183Z</time></trkpt><trkpt lat="39.2983612" lon="16.9759896"><ele>473.7142857142857</ele><time>2026-03-28T15:39:34.179Z</time></trkpt><trkpt lat="39.2984066" lon="16.9760625"><ele>472.1428571428571</ele><time>2026-03-28T15:39:35.201Z</time></trkpt><trkpt lat="39.2984464" lon="16.9761381"><ele>470.57142857142856</ele><time>2026-03-28T15:39:36.182Z</time></trkpt><trkpt lat="39.2984799" lon="16.9762131"><ele>469.0</ele><time>2026-03-28T15:39:37.182Z</time></trkpt><trkpt lat="39.2985109" lon="16.9763405"><ele>469.0</ele><time>2026-03-28T15:39:39.182Z</time></trkpt><trkpt lat="39.2985607" lon="16.9762819"><ele>469.0</ele><time>2026-03-28T15:39:45.18Z</time></trkpt><trkpt lat="39.2985181" lon="16.9761702"><ele>469.0</ele><time>2026-03-28T15:39:47.198Z</time></trkpt><trkpt lat="39.2984539" lon="16.976036"><ele>469.0</ele><time>2026-03-28T15:39:49.177Z</time></trkpt><trkpt lat="39.2984101" lon="16.9759453"><ele>469.0</ele><time>2026-03-28T15:39:50.178Z</time></trkpt><trkpt lat="39.2983648" lon="16.9758445"><ele>470.57142857142856</ele><time>2026-03-28T15:39:51.184Z</time></trkpt><trkpt lat="39.2983221" lon="16.9757472"><ele>472.1428571428571</ele><time>2026-03-28T15:39:52.185Z</time></trkpt><trkpt lat="39.2982905" lon="16.9756592"><ele>473.7142857142857</ele><time>2026-03-28T15:39:53.177Z</time></trkpt><trkpt lat="39.2982837" lon="16.9755722"><ele>475.2857142857143</ele><time>2026-03-28T15:39:54.202Z</time></trkpt><trkpt lat="39.2982912" lon="16.9754799"><ele>476.85714285714283</ele><time>2026-03-28T15:39:55.183Z</time></trkpt><trkpt lat="39.2983161" lon="16.9753954"><ele>478.42857142857144</ele><time>2026-03-28T15:39:56.183Z</time></trkpt><trkpt lat="39.29835" lon="16.9753238"><ele>480.0</ele><time>2026-03-28T15:39:57.18Z</time></trkpt><trkpt lat="39.2984042" lon="16.9752591"><ele>480.0</ele><time>2026-03-28T15:39:58.174Z</time></trkpt><trkpt lat="39.2984687" lon="16.9752014"><ele>480.0</ele><time>2026-03-28T15:39:59.18Z</time></trkpt><trkpt lat="39.2985343" lon="16.9751423"><ele>480.0</ele><time>2026-03-28T15:40:00.181Z</time></trkpt><trkpt lat="39.2985546" lon="16.9750555"><ele>480.0</ele><time>2026-03-28T15:40:01.196Z</time></trkpt><trkpt lat="39.2985421" lon="16.9749648"><ele>480.0</ele><time>2026-03-28T15:40:02.18Z</time></trkpt><trkpt lat="39.2985068" lon="16.9748855"><ele>480.0</ele><time>2026-03-28T15:40:03.18Z</time></trkpt><trkpt lat="39.298451" lon="16.9748186"><ele>480.0</ele><time>2026-03-28T15:40:04.175Z</time></trkpt><trkpt lat="39.2983901" lon="16.9747552"><ele>481.3333333333333</ele><time>2026-03-28T15:40:05.184Z</time></trkpt><trkpt lat="39.2983227" lon="16.9746879"><ele>482.66666666666663</ele><time>2026-03-28T15:40:06.177Z</time></trkpt><trkpt lat="39.2982673" lon="16.9746005"><ele>484.0</ele><time>2026-03-28T15:40:07.191Z</time></trkpt><trkpt lat="39.2982168" lon="16.9745114"><ele>485.3333333333333</ele><time>2026-03-28T15:40:08.186Z</time></trkpt><trkpt lat="39.2981618" lon="16.9744328"><ele>486.66666666666663</ele><time>2026-03-28T15:40:09.176Z</time></trkpt><trkpt lat="39.2981001" lon="16.9743682"><ele>488.0</ele><time>2026-03-28T15:40:10.179Z</time></trkpt><trkpt lat="39.2980363" lon="16.9743062"><ele>487.8333333333333</ele><time>2026-03-28T15:40:11.177Z</time></trkpt><trkpt lat="39.2979804" lon="16.9742452"><ele>487.66666666666663</ele><time>2026-03-28T15:40:12.202Z</time></trkpt><trkpt lat="39.2979586" lon="16.9741059"><ele>487.5</ele><time>2026-03-28T15:40:14.178Z</time></trkpt><trkpt lat="39.2980218" lon="16.9740488"><ele>487.33333333333337</ele><time>2026-03-28T15:40:15.176Z</time></trkpt><trkpt lat="39.2980896" lon="16.9739978"><ele>487.1666666666667</ele><time>2026-03-28T15:40:16.177Z</time></trkpt><trkpt lat="39.2981705" lon="16.9739557"><ele>487.0</ele><time>2026-03-28T15:40:17.18Z</time></trkpt><trkpt lat="39.2982493" lon="16.9739135"><ele>487.00000000000006</ele><time>2026-03-28T15:40:18.181Z</time></trkpt><trkpt lat="39.2983268" lon="16.9738683"><ele>487.0</ele><time>2026-03-28T15:40:19.185Z</time></trkpt><trkpt lat="39.298404" lon="16.9738199"><ele>487.0</ele><time>2026-03-28T15:40:20.177Z</time></trkpt><trkpt lat="39.2984762" lon="16.9737814"><ele>487.0</ele><time>2026-03-28T15:40:21.201Z</time></trkpt><trkpt lat="39.2985488" lon="16.973751"><ele>487.00000000000006</ele><time>2026-03-28T15:40:22.179Z</time></trkpt><trkpt lat="39.2986226" lon="16.9737138"><ele>487.0</ele><time>2026-03-28T15:40:23.175Z</time></trkpt><trkpt lat="39.2986976" lon="16.9736788"><ele>487.00000000000006</ele><time>2026-03-28T15:40:24.181Z</time></trkpt><trkpt lat="39.2987757" lon="16.9736418"><ele>487.0</ele><time>2026-03-28T15:40:25.174Z</time></trkpt><trkpt lat="39.2988625" lon="16.9736107"><ele>487.0</ele><time>2026-03-28T15:40:26.193Z</time></trkpt><trkpt lat="39.2989469" lon="16.9735836"><ele>487.0</ele><time>2026-03-28T15:40:27.179Z</time></trkpt><trkpt lat="39.2990277" lon="16.9735697"><ele>487.00000000000006</ele><time>2026-03-28T15:40:28.178Z</time></trkpt><trkpt lat="39.2991051" lon="16.9735855"><ele>487.0</ele><time>2026-03-28T15:40:29.173Z</time></trkpt><trkpt lat="39.299178" lon="16.9736237"><ele>484.50000000000006</ele><time>2026-03-28T15:40:30.176Z</time></trkpt><trkpt lat="39.2992518" lon="16.973637"><ele>482.0</ele><time>2026-03-28T15:40:31.178Z</time></trkpt><trkpt lat="39.2993232" lon="16.973622"><ele>479.5</ele><time>2026-03-28T15:40:32.18Z</time></trkpt><trkpt lat="39.2993871" lon="16.9735839"><ele>477.0</ele><time>2026-03-28T15:40:33.195Z</time></trkpt><trkpt lat="39.2994464" lon="16.9735338"><ele>474.50000000000006</ele><time>2026-03-28T15:40:34.177Z</time></trkpt><trkpt lat="39.2995034" lon="16.9734867"><ele>472.0</ele><time>2026-03-28T15:40:35.181Z</time></trkpt><trkpt lat="39.2996093" lon="16.9733876"><ele>474.00000000000006</ele><time>2026-03-28T15:40:37.177Z</time></trkpt><trkpt lat="39.2996656" lon="16.9733314"><ele>476.0</ele><time>2026-03-28T15:40:38.174Z</time></trkpt><trkpt lat="39.2997166" lon="16.9732801"><ele>478.0</ele><time>2026-03-28T15:40:39.177Z</time></trkpt><trkpt lat="39.2997937" lon="16.9732132"><ele>480.0</ele><time>2026-03-28T15:40:41.181Z</time></trkpt><trkpt lat="39.2998676" lon="16.9732238"><ele>482.00000000000006</ele><time>2026-03-28T15:40:43.177Z</time></trkpt><trkpt lat="39.2999568" lon="16.9732606"><ele>484.0</ele><time>2026-03-28T15:40:45.184Z</time></trkpt><trkpt lat="39.3000388" lon="16.9733048"><ele>484.0</ele><time>2026-03-28T15:40:47.177Z</time></trkpt><trkpt lat="39.3001176" lon="16.973344"><ele>484.0</ele><time>2026-03-28T15:40:49.175Z</time></trkpt><trkpt lat="39.3002106" lon="16.9733559"><ele>484.0</ele><time>2026-03-28T15:40:51.179Z</time></trkpt><trkpt lat="39.3003079" lon="16.973311"><ele>484.0</ele><time>2026-03-28T15:40:53.182Z</time></trkpt><trkpt lat="39.3003922" lon="16.9732134"><ele>484.0</ele><time>2026-03-28T15:40:55.201Z</time></trkpt><trkpt lat="39.3004425" lon="16.9730708"><ele>484.0</ele><time>2026-03-28T15:40:57.183Z</time></trkpt><trkpt lat="39.300465" lon="16.972993"><ele>484.0</ele><time>2026-03-28T15:40:58.176Z</time></trkpt><trkpt lat="39.3005" lon="16.9729189"><ele>484.0</ele><time>2026-03-28T15:40:59.183Z</time></trkpt><trkpt lat="39.3005757" lon="16.9728036"><ele>484.0</ele><time>2026-03-28T15:41:01.179Z</time></trkpt><trkpt lat="39.3006112" lon="16.9726789"><ele>484.0</ele><time>2026-03-28T15:41:03.179Z</time></trkpt><trkpt lat="39.3005403" lon="16.9725446"><ele>485.6</ele><time>2026-03-28T15:41:05.177Z</time></trkpt><trkpt lat="39.3004838" lon="16.9724717"><ele>487.2</ele><time>2026-03-28T15:41:06.177Z</time></trkpt><trkpt lat="39.3004163" lon="16.9723986"><ele>488.80000000000007</ele><time>2026-03-28T15:41:07.174Z</time></trkpt><trkpt lat="39.3003439" lon="16.9723257"><ele>490.40000000000003</ele><time>2026-03-28T15:41:08.174Z</time></trkpt><trkpt lat="39.3002718" lon="16.9722464"><ele>492.0</ele><time>2026-03-28T15:41:09.178Z</time></trkpt><trkpt lat="39.3001979" lon="16.9721668"><ele>492.0</ele><time>2026-03-28T15:41:10.178Z</time></trkpt><trkpt lat="39.3001177" lon="16.9721003"><ele>492.00000000000006</ele><time>2026-03-28T15:41:11.175Z</time></trkpt><trkpt lat="39.3000455" lon="16.9720314"><ele>492.00000000000006</ele><time>2026-03-28T15:41:12.172Z</time></trkpt><trkpt lat="39.299977" lon="16.9719495"><ele>492.0</ele><time>2026-03-28T15:41:13.183Z</time></trkpt><trkpt lat="39.2999491" lon="16.9718233"><ele>492.0</ele><time>2026-03-28T15:41:14.177Z</time></trkpt><trkpt lat="39.2999298" lon="16.9716842"><ele>489.8</ele><time>2026-03-28T15:41:15.177Z</time></trkpt><trkpt lat="39.2999171" lon="16.971538"><ele>487.6</ele><time>2026-03-28T15:41:16.198Z</time></trkpt><trkpt lat="39.2998967" lon="16.9714232"><ele>485.40000000000003</ele><time>2026-03-28T15:41:17.174Z</time></trkpt><trkpt lat="39.2998786" lon="16.9713274"><ele>483.20000000000005</ele><time>2026-03-28T15:41:18.181Z</time></trkpt><trkpt lat="39.299937" lon="16.9712118"><ele>481.0</ele><time>2026-03-28T15:41:20.175Z</time></trkpt><trkpt lat="39.3000059" lon="16.9711734"><ele>481.0</ele><time>2026-03-28T15:41:21.191Z</time></trkpt><trkpt lat="39.3000955" lon="16.9711664"><ele>481.0</ele><time>2026-03-28T15:41:22.18Z</time></trkpt><trkpt lat="39.3001939" lon="16.9711613"><ele>481.0</ele><time>2026-03-28T15:41:23.172Z</time></trkpt><trkpt lat="39.3002945" lon="16.9712176"><ele>481.0</ele><time>2026-03-28T15:41:24.176Z</time></trkpt><trkpt lat="39.3003994" lon="16.9712801"><ele>481.0</ele><time>2026-03-28T15:41:25.177Z</time></trkpt><trkpt lat="39.3005114" lon="16.9713506"><ele>479.5</ele><time>2026-03-28T15:41:26.179Z</time></trkpt><trkpt lat="39.3006396" lon="16.9714276"><ele>478.0</ele><time>2026-03-28T15:41:27.172Z</time></trkpt><trkpt lat="39.3007641" lon="16.9714975"><ele>476.5</ele><time>2026-03-28T15:41:28.192Z</time></trkpt><trkpt lat="39.3008767" lon="16.9715549"><ele>475.0</ele><time>2026-03-28T15:41:29.172Z</time></trkpt><trkpt lat="39.3009736" lon="16.9716253"><ele>473.0</ele><time>2026-03-28T15:41:30.176Z</time></trkpt><trkpt lat="39.3010619" lon="16.9716992"><ele>471.0</ele><time>2026-03-28T15:41:31.176Z</time></trkpt><trkpt lat="39.301134" lon="16.9718026"><ele>469.0</ele><time>2026-03-28T15:41:32.174Z</time></trkpt><trkpt lat="39.301195" lon="16.971927"><ele>467.0</ele><time>2026-03-28T15:41:33.18Z</time></trkpt><trkpt lat="39.3012532" lon="16.9720493"><ele>465.0</ele><time>2026-03-28T15:41:34.172Z</time></trkpt><trkpt lat="39.3013158" lon="16.9721558"><ele>465.0</ele><time>2026-03-28T15:41:35.2Z</time></trkpt><trkpt lat="39.3013802" lon="16.9722328"><ele>465.0</ele><time>2026-03-28T15:41:36.178Z</time></trkpt><trkpt lat="39.3014464" lon="16.9722738"><ele>465.0</ele><time>2026-03-28T15:41:37.181Z</time></trkpt><trkpt lat="39.3015407" lon="16.9721891"><ele>465.0</ele><time>2026-03-28T15:41:39.176Z</time></trkpt><trkpt lat="39.3015727" lon="16.9720929"><ele>465.0</ele><time>2026-03-28T15:41:40.176Z</time></trkpt><trkpt lat="39.3016077" lon="16.9719802"><ele>466.2</ele><time>2026-03-28T15:41:41.18Z</time></trkpt><trkpt lat="39.301646" lon="16.971863"><ele>467.4</ele><time>2026-03-28T15:41:42.181Z</time></trkpt><trkpt lat="39.3016825" lon="16.9717432"><ele>468.6</ele><time>2026-03-28T15:41:43.199Z</time></trkpt><trkpt lat="39.3017158" lon="16.9716226"><ele>469.8</ele><time>2026-03-28T15:41:44.18Z</time></trkpt><trkpt lat="39.3017461" lon="16.9714966"><ele>471.0</ele><time>2026-03-28T15:41:45.171Z</time></trkpt><trkpt lat="39.301769" lon="16.9713695"><ele>471.0</ele><time>2026-03-28T15:41:46.175Z</time></trkpt><trkpt lat="39.3017847" lon="16.9712479"><ele>471.0</ele><time>2026-03-28T15:41:47.174Z</time></trkpt><trkpt lat="39.3017869" lon="16.9711311"><ele>471.0</ele><time>2026-03-28T15:41:48.177Z</time></trkpt><trkpt lat="39.3017819" lon="16.9710177"><ele>471.0</ele><time>2026-03-28T15:41:49.17Z</time></trkpt><trkpt lat="39.3017502" lon="16.9708913"><ele>471.0</ele><time>2026-03-28T15:41:50.193Z</time></trkpt><trkpt lat="39.3017209" lon="16.9707644"><ele>472.5</ele><time>2026-03-28T15:41:51.183Z</time></trkpt><trkpt lat="39.3016994" lon="16.9706359"><ele>474.0</ele><time>2026-03-28T15:41:52.172Z</time></trkpt><trkpt lat="39.3016965" lon="16.9705125"><ele>475.5</ele><time>2026-03-28T15:41:53.178Z</time></trkpt><trkpt lat="39.3016967" lon="16.9704103"><ele>477.0</ele><time>2026-03-28T15:41:54.174Z</time></trkpt><trkpt lat="39.3016841" lon="16.9703301"><ele>478.5</ele><time>2026-03-28T15:41:55.178Z</time></trkpt><trkpt lat="39.3016323" lon="16.9702617"><ele>480.0</ele><time>2026-03-28T15:41:56.179Z</time></trkpt><trkpt lat="39.3015721" lon="16.9701902"><ele>480.0</ele><time>2026-03-28T15:41:57.195Z</time></trkpt><trkpt lat="39.3015211" lon="16.9700915"><ele>480.0</ele><time>2026-03-28T15:41:58.18Z</time></trkpt><trkpt lat="39.3014793" lon="16.9699759"><ele>480.0</ele><time>2026-03-28T15:41:59.179Z</time></trkpt><trkpt lat="39.3014761" lon="16.9698482"><ele>480.0</ele><time>2026-03-28T15:42:00.181Z</time></trkpt><trkpt lat="39.3014797" lon="16.9697244"><ele>480.0</ele><time>2026-03-28T15:42:01.179Z</time></trkpt><trkpt lat="39.3015019" lon="16.9696085"><ele>479.6</ele><time>2026-03-28T15:42:02.204Z</time></trkpt><trkpt lat="39.3015401" lon="16.9694875"><ele>479.2</ele><time>2026-03-28T15:42:03.173Z</time></trkpt><trkpt lat="39.3015747" lon="16.9693568"><ele>478.79999999999995</ele><time>2026-03-28T15:42:04.177Z</time></trkpt><trkpt lat="39.3015893" lon="16.969219"><ele>478.4</ele><time>2026-03-28T15:42:05.18Z</time></trkpt><trkpt lat="39.3015904" lon="16.9690734"><ele>478.0</ele><time>2026-03-28T15:42:06.176Z</time></trkpt><trkpt lat="39.3015924" lon="16.9689358"><ele>478.0</ele><time>2026-03-28T15:42:07.193Z</time></trkpt><trkpt lat="39.3015771" lon="16.9688248"><ele>477.99999999999994</ele><time>2026-03-28T15:42:08.181Z</time></trkpt><trkpt lat="39.3015466" lon="16.9687199"><ele>477.99999999999994</ele><time>2026-03-28T15:42:09.171Z</time></trkpt><trkpt lat="39.301484" lon="16.9686315"><ele>478.0</ele><time>2026-03-28T15:42:10.175Z</time></trkpt><trkpt lat="39.301422" lon="16.9685452"><ele>478.0</ele><time>2026-03-28T15:42:11.177Z</time></trkpt><trkpt lat="39.3013798" lon="16.9684388"><ele>477.4</ele><time>2026-03-28T15:42:12.174Z</time></trkpt><trkpt lat="39.3013749" lon="16.9683188"><ele>476.79999999999995</ele><time>2026-03-28T15:42:13.183Z</time></trkpt><trkpt lat="39.3014192" lon="16.9681952"><ele>476.2</ele><time>2026-03-28T15:42:14.174Z</time></trkpt><trkpt lat="39.3014783" lon="16.9680803"><ele>475.6</ele><time>2026-03-28T15:42:15.174Z</time></trkpt><trkpt lat="39.3015503" lon="16.9679908"><ele>475.0</ele><time>2026-03-28T15:42:16.175Z</time></trkpt><trkpt lat="39.3016202" lon="16.967925"><ele>475.00000000000006</ele><time>2026-03-28T15:42:17.175Z</time></trkpt><trkpt lat="39.3016782" lon="16.9678575"><ele>475.0</ele><time>2026-03-28T15:42:18.191Z</time></trkpt><trkpt lat="39.3017255" lon="16.9677812"><ele>475.0</ele><time>2026-03-28T15:42:19.179Z</time></trkpt><trkpt lat="39.3017509" lon="16.9676799"><ele>475.0</ele><time>2026-03-28T15:42:20.175Z</time></trkpt><trkpt lat="39.3017785" lon="16.9675815"><ele>475.00000000000006</ele><time>2026-03-28T15:42:21.179Z</time></trkpt><trkpt lat="39.3018076" lon="16.9675037"><ele>475.0</ele><time>2026-03-28T15:42:22.175Z</time></trkpt><trkpt lat="39.3019302" lon="16.9674763"><ele>475.0</ele><time>2026-03-28T15:42:24.177Z</time></trkpt><trkpt lat="39.3020147" lon="16.9675142"><ele>475.0</ele><time>2026-03-28T15:42:25.178Z</time></trkpt><trkpt lat="39.3020995" lon="16.9675672"><ele>475.0</ele><time>2026-03-28T15:42:26.175Z</time></trkpt><trkpt lat="39.3021914" lon="16.9675956"><ele>475.0</ele><time>2026-03-28T15:42:27.178Z</time></trkpt><trkpt lat="39.3022855" lon="16.9676007"><ele>475.0</ele><time>2026-03-28T15:42:28.178Z</time></trkpt><trkpt lat="39.3023789" lon="16.9675939"><ele>474.4</ele><time>2026-03-28T15:42:29.176Z</time></trkpt><trkpt lat="39.302471" lon="16.9675494"><ele>473.8</ele><time>2026-03-28T15:42:30.195Z</time></trkpt><trkpt lat="39.3025596" lon="16.9674929"><ele>473.20000000000005</ele><time>2026-03-28T15:42:31.178Z</time></trkpt><trkpt lat="39.3026499" lon="16.9674334"><ele>472.6</ele><time>2026-03-28T15:42:32.173Z</time></trkpt><trkpt lat="39.3027378" lon="16.9673624"><ele>472.0</ele><time>2026-03-28T15:42:33.181Z</time></trkpt><trkpt lat="39.302821" lon="16.9672715"><ele>472.0</ele><time>2026-03-28T15:42:34.181Z</time></trkpt><trkpt lat="39.3029057" lon="16.9671852"><ele>472.00000000000006</ele><time>2026-03-28T15:42:35.195Z</time></trkpt><trkpt lat="39.3029866" lon="16.9671122"><ele>472.00000000000006</ele><time>2026-03-28T15:42:36.172Z</time></trkpt><trkpt lat="39.3030614" lon="16.9670409"><ele>472.0</ele><time>2026-03-28T15:42:37.175Z</time></trkpt><trkpt lat="39.303113" lon="16.9669526"><ele>472.0</ele><time>2026-03-28T15:42:38.179Z</time></trkpt><trkpt lat="39.3031507" lon="16.9668535"><ele>470.6666666666667</ele><time>2026-03-28T15:42:39.177Z</time></trkpt><trkpt lat="39.303155" lon="16.9667394"><ele>469.33333333333337</ele><time>2026-03-28T15:42:40.199Z</time></trkpt><trkpt lat="39.3031565" lon="16.9666249"><ele>468.0</ele><time>2026-03-28T15:42:41.179Z</time></trkpt><trkpt lat="39.3031704" lon="16.9665267"><ele>466.66666666666663</ele><time>2026-03-28T15:42:42.179Z</time></trkpt><trkpt lat="39.3032298" lon="16.9664208"><ele>465.3333333333333</ele><time>2026-03-28T15:42:44.178Z</time></trkpt><trkpt lat="39.3032954" lon="16.9665032"><ele>464.0</ele><time>2026-03-28T15:42:46.178Z</time></trkpt><trkpt lat="39.3033183" lon="16.9666139"><ele>462.0</ele><time>2026-03-28T15:42:47.179Z</time></trkpt><trkpt lat="39.3033493" lon="16.9667571"><ele>460.0</ele><time>2026-03-28T15:42:48.198Z</time></trkpt><trkpt lat="39.3033796" lon="16.9669184"><ele>458.0</ele><time>2026-03-28T15:42:49.177Z</time></trkpt><trkpt lat="39.3033888" lon="16.9670841"><ele>456.0</ele><time>2026-03-28T15:42:50.173Z</time></trkpt><trkpt lat="39.3034021" lon="16.967229"><ele>456.0</ele><time>2026-03-28T15:42:51.18Z</time></trkpt><trkpt lat="39.3034313" lon="16.967336"><ele>456.0</ele><time>2026-03-28T15:42:52.178Z</time></trkpt><trkpt lat="39.3034969" lon="16.9673897"><ele>456.0</ele><time>2026-03-28T15:42:53.183Z</time></trkpt><trkpt lat="39.3035882" lon="16.9674086"><ele>456.0</ele><time>2026-03-28T15:42:54.174Z</time></trkpt><trkpt lat="39.3036678" lon="16.9674544"><ele>456.0</ele><time>2026-03-28T15:42:55.187Z</time></trkpt><trkpt lat="39.3037176" lon="16.9675389"><ele>456.0</ele><time>2026-03-28T15:42:56.171Z</time></trkpt><trkpt lat="39.3037508" lon="16.9676685"><ele>454.4</ele><time>2026-03-28T15:42:57.178Z</time></trkpt><trkpt lat="39.3037714" lon="16.9678076"><ele>452.8</ele><time>2026-03-28T15:42:58.174Z</time></trkpt><trkpt lat="39.3038116" lon="16.9679259"><ele>451.19999999999993</ele><time>2026-03-28T15:42:59.173Z</time></trkpt><trkpt lat="39.3038781" lon="16.9680203"><ele>449.59999999999997</ele><time>2026-03-28T15:43:00.196Z</time></trkpt><trkpt lat="39.3039686" lon="16.9680968"><ele>448.0</ele><time>2026-03-28T15:43:01.174Z</time></trkpt><trkpt lat="39.3040524" lon="16.9681642"><ele>452.4</ele><time>2026-03-28T15:43:02.175Z</time></trkpt><trkpt lat="39.3041013" lon="16.9682261"><ele>456.79999999999995</ele><time>2026-03-28T15:43:03.178Z</time></trkpt><trkpt lat="39.3040909" lon="16.9683903"><ele>461.2</ele><time>2026-03-28T15:43:05.2Z</time></trkpt><trkpt lat="39.3041048" lon="16.968489"><ele>465.6</ele><time>2026-03-28T15:43:06.179Z</time></trkpt><trkpt lat="39.3041391" lon="16.9685954"><ele>470.0</ele><time>2026-03-28T15:43:07.183Z</time></trkpt><trkpt lat="39.304213" lon="16.9686844"><ele>470.0</ele><time>2026-03-28T15:43:08.174Z</time></trkpt><trkpt lat="39.3043028" lon="16.9687662"><ele>470.0</ele><time>2026-03-28T15:43:09.176Z</time></trkpt><trkpt lat="39.3043795" lon="16.9688426"><ele>470.0</ele><time>2026-03-28T15:43:10.183Z</time></trkpt><trkpt lat="39.3044325" lon="16.9689194"><ele>470.0</ele><time>2026-03-28T15:43:11.179Z</time></trkpt><trkpt lat="39.3044712" lon="16.9689899"><ele>470.0</ele><time>2026-03-28T15:43:12.188Z</time></trkpt><trkpt lat="39.3043644" lon="16.9690845"><ele>469.99999999999994</ele><time>2026-03-28T15:43:14.177Z</time></trkpt><trkpt lat="39.3042856" lon="16.9691304"><ele>470.0</ele><time>2026-03-28T15:43:15.18Z</time></trkpt><trkpt lat="39.3042305" lon="16.9691956"><ele>470.0</ele><time>2026-03-28T15:43:16.176Z</time></trkpt><trkpt lat="39.304208" lon="16.9692897"><ele>470.0</ele><time>2026-03-28T15:43:17.179Z</time></trkpt><trkpt lat="39.3042212" lon="16.9693955"><ele>469.99999999999994</ele><time>2026-03-28T15:43:18.177Z</time></trkpt><trkpt lat="39.3042622" lon="16.9694887"><ele>470.0</ele><time>2026-03-28T15:43:19.212Z</time></trkpt><trkpt lat="39.3043392" lon="16.9695484"><ele>469.85714285714283</ele><time>2026-03-28T15:43:20.173Z</time></trkpt><trkpt lat="39.3044092" lon="16.9695913"><ele>469.71428571428567</ele><time>2026-03-28T15:43:21.178Z</time></trkpt><trkpt lat="39.304487" lon="16.9695918"><ele>469.57142857142856</ele><time>2026-03-28T15:43:22.177Z</time></trkpt><trkpt lat="39.3045626" lon="16.9695929"><ele>469.42857142857144</ele><time>2026-03-28T15:43:23.176Z</time></trkpt><trkpt lat="39.3046317" lon="16.9696056"><ele>469.2857142857143</ele><time>2026-03-28T15:43:24.175Z</time></trkpt><trkpt lat="39.3046744" lon="16.9696755"><ele>469.1428571428571</ele><time>2026-03-28T15:43:25.179Z</time></trkpt><trkpt lat="39.3047153" lon="16.9697489"><ele>469.0</ele><time>2026-03-28T15:43:26.179Z</time></trkpt><trkpt lat="39.3047691" lon="16.9698071"><ele>471.2857142857143</ele><time>2026-03-28T15:43:27.192Z</time></trkpt><trkpt lat="39.3048359" lon="16.9698451"><ele>473.57142857142856</ele><time>2026-03-28T15:43:28.182Z</time></trkpt><trkpt lat="39.3049115" lon="16.9698617"><ele>475.8571428571429</ele><time>2026-03-28T15:43:29.178Z</time></trkpt><trkpt lat="39.3049851" lon="16.9698633"><ele>478.14285714285717</ele><time>2026-03-28T15:43:30.177Z</time></trkpt><trkpt lat="39.3050527" lon="16.9698844"><ele>480.42857142857144</ele><time>2026-03-28T15:43:31.179Z</time></trkpt><trkpt lat="39.3051125" lon="16.9699315"><ele>482.7142857142858</ele><time>2026-03-28T15:43:32.174Z</time></trkpt><trkpt lat="39.3051625" lon="16.9699854"><ele>485.00000000000006</ele><time>2026-03-28T15:43:33.196Z</time></trkpt><trkpt lat="39.305239" lon="16.9700552"><ele>485.49999999999994</ele><time>2026-03-28T15:43:35.178Z</time></trkpt><trkpt lat="39.3052899" lon="16.9701133"><ele>486.0</ele><time>2026-03-28T15:44:05.178Z</time></trkpt><trkpt lat="39.3052816" lon="16.9702273"><ele>486.5</ele><time>2026-03-28T15:44:08.179Z</time></trkpt><trkpt lat="39.3052424" lon="16.970326"><ele>487.0</ele><time>2026-03-28T15:44:10.18Z</time></trkpt><trkpt lat="39.3051861" lon="16.970434"><ele>487.49999999999994</ele><time>2026-03-28T15:44:12.178Z</time></trkpt><trkpt lat="39.3051465" lon="16.9705036"><ele>488.0</ele><time>2026-03-28T15:44:13.181Z</time></trkpt><trkpt lat="39.3051078" lon="16.9705782"><ele>487.99999999999994</ele><time>2026-03-28T15:44:14.198Z</time></trkpt><trkpt lat="39.3050746" lon="16.9706539"><ele>488.0</ele><time>2026-03-28T15:44:15.176Z</time></trkpt><trkpt lat="39.3050466" lon="16.970738"><ele>488.0</ele><time>2026-03-28T15:44:16.17Z</time></trkpt><trkpt lat="39.3050217" lon="16.9708263"><ele>488.0</ele><time>2026-03-28T15:44:17.179Z</time></trkpt><trkpt lat="39.3050211" lon="16.9709293"><ele>487.99999999999994</ele><time>2026-03-28T15:44:18.18Z</time></trkpt><trkpt lat="39.3050404" lon="16.9710368"><ele>488.0</ele><time>2026-03-28T15:44:19.183Z</time></trkpt><trkpt lat="39.3050841" lon="16.9711463"><ele>487.59999999999997</ele><time>2026-03-28T15:44:20.178Z</time></trkpt><trkpt lat="39.305161" lon="16.9712523"><ele>487.19999999999993</ele><time>2026-03-28T15:44:21.202Z</time></trkpt><trkpt lat="39.3052553" lon="16.9713411"><ele>486.8</ele><time>2026-03-28T15:44:22.186Z</time></trkpt><trkpt lat="39.3053517" lon="16.9714069"><ele>486.4</ele><time>2026-03-28T15:44:23.194Z</time></trkpt><trkpt lat="39.3054419" lon="16.9714518"><ele>486.0</ele><time>2026-03-28T15:44:24.175Z</time></trkpt><trkpt lat="39.3055274" lon="16.9714822"><ele>486.8</ele><time>2026-03-28T15:44:25.181Z</time></trkpt><trkpt lat="39.3056074" lon="16.9715071"><ele>487.6</ele><time>2026-03-28T15:44:26.179Z</time></trkpt><trkpt lat="39.3056934" lon="16.9715466"><ele>488.4</ele><time>2026-03-28T15:44:27.173Z</time></trkpt><trkpt lat="39.305792" lon="16.971603"><ele>489.2</ele><time>2026-03-28T15:44:28.177Z</time></trkpt><trkpt lat="39.305886" lon="16.9716991"><ele>490.0</ele><time>2026-03-28T15:44:29.182Z</time></trkpt><trkpt lat="39.3059742" lon="16.9718031"><ele>490.0</ele><time>2026-03-28T15:44:30.177Z</time></trkpt><trkpt lat="39.306052" lon="16.9719121"><ele>490.0</ele><time>2026-03-28T15:44:31.201Z</time></trkpt><trkpt lat="39.3061246" lon="16.9720106"><ele>490.0</ele><time>2026-03-28T15:44:32.177Z</time></trkpt><trkpt lat="39.3061958" lon="16.9721017"><ele>490.0</ele><time>2026-03-28T15:44:33.175Z</time></trkpt><trkpt lat="39.3062665" lon="16.9721884"><ele>490.0</ele><time>2026-03-28T15:44:34.175Z</time></trkpt><trkpt lat="39.306342" lon="16.9722619"><ele>490.8</ele><time>2026-03-28T15:44:35.179Z</time></trkpt><trkpt lat="39.3064217" lon="16.9723271"><ele>491.6</ele><time>2026-03-28T15:44:36.195Z</time></trkpt><trkpt lat="39.3065049" lon="16.9723856"><ele>492.4</ele><time>2026-03-28T15:44:37.178Z</time></trkpt><trkpt lat="39.3065879" lon="16.9724432"><ele>493.2</ele><time>2026-03-28T15:44:38.186Z</time></trkpt><trkpt lat="39.3066659" lon="16.9724893"><ele>494.0</ele><time>2026-03-28T15:44:39.177Z</time></trkpt><trkpt lat="39.3067513" lon="16.9725416"><ele>490.79999999999995</ele><time>2026-03-28T15:44:40.177Z</time></trkpt><trkpt lat="39.3068369" lon="16.9725896"><ele>487.59999999999997</ele><time>2026-03-28T15:44:41.176Z</time></trkpt><trkpt lat="39.3069144" lon="16.9726344"><ele>484.4</ele><time>2026-03-28T15:44:42.173Z</time></trkpt><trkpt lat="39.3069799" lon="16.972673"><ele>481.2</ele><time>2026-03-28T15:44:43.18Z</time></trkpt><trkpt lat="39.3070915" lon="16.9727371"><ele>478.0</ele><time>2026-03-28T15:44:45.195Z</time></trkpt><trkpt lat="39.30719" lon="16.972798"><ele>478.00000000000006</ele><time>2026-03-28T15:44:47.176Z</time></trkpt><trkpt lat="39.3072372" lon="16.9728973"><ele>478.0</ele><time>2026-03-28T15:44:49.178Z</time></trkpt><trkpt lat="39.307203" lon="16.9729925"><ele>478.0</ele><time>2026-03-28T15:44:51.174Z</time></trkpt><trkpt lat="39.3071412" lon="16.973089"><ele>478.0</ele><time>2026-03-28T15:44:53.175Z</time></trkpt><trkpt lat="39.3072165" lon="16.9731163"><ele>478.00000000000006</ele><time>2026-03-28T15:44:57.176Z</time></trkpt><trkpt lat="39.3072288" lon="16.9729856"><ele>478.0</ele><time>2026-03-28T15:44:59.182Z</time></trkpt><trkpt lat="39.3072634" lon="16.9728902"><ele>482.59999999999997</ele><time>2026-03-28T15:45:02.175Z</time></trkpt><trkpt lat="39.3072984" lon="16.9728049"><ele>487.19999999999993</ele><time>2026-03-28T15:45:04.176Z</time></trkpt><trkpt lat="39.3073737" lon="16.9726521"><ele>491.8</ele><time>2026-03-28T15:45:06.175Z</time></trkpt><trkpt lat="39.3074382" lon="16.9725694"><ele>496.4</ele><time>2026-03-28T15:45:07.174Z</time></trkpt><trkpt lat="39.3075402" lon="16.9725341"><ele>501.0</ele><time>2026-03-28T15:45:08.175Z</time></trkpt><trkpt lat="39.3076529" lon="16.9725379"><ele>501.0</ele><time>2026-03-28T15:45:09.175Z</time></trkpt><trkpt lat="39.3077605" lon="16.9725701"><ele>501.0</ele><time>2026-03-28T15:45:10.177Z</time></trkpt><trkpt lat="39.3078571" lon="16.9726074"><ele>501.0</ele><time>2026-03-28T15:45:11.171Z</time></trkpt><trkpt lat="39.3079407" lon="16.9726375"><ele>501.0</ele><time>2026-03-28T15:45:12.17Z</time></trkpt><trkpt lat="39.3080067" lon="16.9726279"><ele>501.0</ele><time>2026-03-28T15:45:13.177Z</time></trkpt><trkpt lat="39.3080941" lon="16.9725563"><ele>501.1666666666667</ele><time>2026-03-28T15:45:15.175Z</time></trkpt><trkpt lat="39.3081583" lon="16.9724358"><ele>501.33333333333337</ele><time>2026-03-28T15:45:17.174Z</time></trkpt><trkpt lat="39.3082381" lon="16.9723064"><ele>501.5</ele><time>2026-03-28T15:45:19.174Z</time></trkpt><trkpt lat="39.3082825" lon="16.9722475"><ele>501.6666666666667</ele><time>2026-03-28T15:45:20.176Z</time></trkpt><trkpt lat="39.3083374" lon="16.9721999"><ele>501.83333333333337</ele><time>2026-03-28T15:45:21.175Z</time></trkpt><trkpt lat="39.3084135" lon="16.9721944"><ele>502.0</ele><time>2026-03-28T15:45:22.174Z</time></trkpt><trkpt lat="39.3084956" lon="16.9722169"><ele>502.00000000000006</ele><time>2026-03-28T15:45:23.174Z</time></trkpt><trkpt lat="39.3085731" lon="16.9722673"><ele>502.0</ele><time>2026-03-28T15:45:24.194Z</time></trkpt><trkpt lat="39.3086465" lon="16.9723206"><ele>502.0</ele><time>2026-03-28T15:45:25.174Z</time></trkpt><trkpt lat="39.3087154" lon="16.9723598"><ele>502.0</ele><time>2026-03-28T15:45:26.18Z</time></trkpt><trkpt lat="39.3087799" lon="16.9723751"><ele>502.00000000000006</ele><time>2026-03-28T15:45:27.177Z</time></trkpt><trkpt lat="39.3088431" lon="16.9723522"><ele>502.0</ele><time>2026-03-28T15:45:28.17Z</time></trkpt><trkpt lat="39.3089024" lon="16.9722979"><ele>502.33333333333337</ele><time>2026-03-28T15:45:29.175Z</time></trkpt><trkpt lat="39.3089523" lon="16.972218"><ele>502.6666666666667</ele><time>2026-03-28T15:45:30.176Z</time></trkpt><trkpt lat="39.309001" lon="16.9721301"><ele>503.0</ele><time>2026-03-28T15:45:31.196Z</time></trkpt><trkpt lat="39.3090504" lon="16.9720459"><ele>503.33333333333337</ele><time>2026-03-28T15:45:32.176Z</time></trkpt><trkpt lat="39.3091138" lon="16.9719809"><ele>503.6666666666667</ele><time>2026-03-28T15:45:33.18Z</time></trkpt><trkpt lat="39.3091808" lon="16.9719339"><ele>504.0</ele><time>2026-03-28T15:45:34.176Z</time></trkpt><trkpt lat="39.3092652" lon="16.9719354"><ele>504.0</ele><time>2026-03-28T15:45:35.179Z</time></trkpt><trkpt lat="39.3093555" lon="16.9719748"><ele>504.0</ele><time>2026-03-28T15:45:36.178Z</time></trkpt><trkpt lat="39.3094424" lon="16.972046"><ele>504.0</ele><time>2026-03-28T15:45:37.189Z</time></trkpt><trkpt lat="39.3095259" lon="16.9721459"><ele>504.0</ele><time>2026-03-28T15:45:38.177Z</time></trkpt><trkpt lat="39.3096072" lon="16.972252"><ele>504.0</ele><time>2026-03-28T15:45:39.173Z</time></trkpt><trkpt lat="39.3096905" lon="16.9723452"><ele>500.75</ele><time>2026-03-28T15:45:40.182Z</time></trkpt><trkpt lat="39.3097859" lon="16.9724155"><ele>497.5</ele><time>2026-03-28T15:45:41.177Z</time></trkpt><trkpt lat="39.3098977" lon="16.9724595"><ele>494.25</ele><time>2026-03-28T15:45:42.195Z</time></trkpt><trkpt lat="39.3100312" lon="16.9724816"><ele>491.0</ele><time>2026-03-28T15:45:43.176Z</time></trkpt><trkpt lat="39.3101876" lon="16.9724932"><ele>491.0</ele><time>2026-03-28T15:45:44.179Z</time></trkpt><trkpt lat="39.310347" lon="16.9725049"><ele>491.0</ele><time>2026-03-28T15:45:45.174Z</time></trkpt><trkpt lat="39.3105013" lon="16.9725204"><ele>491.0</ele><time>2026-03-28T15:45:46.184Z</time></trkpt><trkpt lat="39.3106472" lon="16.9725389"><ele>486.25</ele><time>2026-03-28T15:45:47.175Z</time></trkpt><trkpt lat="39.3107955" lon="16.9725589"><ele>481.5</ele><time>2026-03-28T15:45:48.178Z</time></trkpt><trkpt lat="39.3109412" lon="16.9725659"><ele>476.75</ele><time>2026-03-28T15:45:49.184Z</time></trkpt><trkpt lat="39.3110784" lon="16.9725728"><ele>472.0</ele><time>2026-03-28T15:45:50.184Z</time></trkpt><trkpt lat="39.3112111" lon="16.9725754"><ele>472.0</ele><time>2026-03-28T15:45:51.177Z</time></trkpt><trkpt lat="39.3113419" lon="16.9725746"><ele>472.0</ele><time>2026-03-28T15:45:52.179Z</time></trkpt><trkpt lat="39.3114757" lon="16.9725759"><ele>472.0</ele><time>2026-03-28T15:45:53.209Z</time></trkpt><trkpt lat="39.3116053" lon="16.9725854"><ele>472.0</ele><time>2026-03-28T15:45:54.176Z</time></trkpt><trkpt lat="39.3117395" lon="16.9725994"><ele>472.25</ele><time>2026-03-28T15:45:55.175Z</time></trkpt><trkpt lat="39.3118747" lon="16.972622"><ele>472.5</ele><time>2026-03-28T15:45:56.178Z</time></trkpt><trkpt lat="39.3120086" lon="16.972665"><ele>472.75</ele><time>2026-03-28T15:45:57.178Z</time></trkpt><trkpt lat="39.3121382" lon="16.9727286"><ele>473.0</ele><time>2026-03-28T15:45:58.195Z</time></trkpt><trkpt lat="39.3122599" lon="16.9728075"><ele>472.5</ele><time>2026-03-28T15:45:59.179Z</time></trkpt><trkpt lat="39.3123789" lon="16.9728974"><ele>472.0</ele><time>2026-03-28T15:46:00.177Z</time></trkpt><trkpt lat="39.3124951" lon="16.9730086"><ele>471.5</ele><time>2026-03-28T15:46:01.172Z</time></trkpt><trkpt lat="39.3126017" lon="16.9731404"><ele>471.0</ele><time>2026-03-28T15:46:02.177Z</time></trkpt><trkpt lat="39.3126951" lon="16.9732832"><ele>467.25</ele><time>2026-03-28T15:46:03.178Z</time></trkpt><trkpt lat="39.3127819" lon="16.9734308"><ele>463.5</ele><time>2026-03-28T15:46:04.176Z</time></trkpt><trkpt lat="39.3128666" lon="16.9735742"><ele>459.75</ele><time>2026-03-28T15:46:05.176Z</time></trkpt><trkpt lat="39.312947" lon="16.9737121"><ele>456.0</ele><time>2026-03-28T15:46:06.203Z</time></trkpt><trkpt lat="39.313013" lon="16.9738452"><ele>456.0</ele><time>2026-03-28T15:46:07.176Z</time></trkpt><trkpt lat="39.3130586" lon="16.9739826"><ele>456.0</ele><time>2026-03-28T15:46:08.174Z</time></trkpt><trkpt lat="39.3130824" lon="16.9741245"><ele>456.0</ele><time>2026-03-28T15:46:09.183Z</time></trkpt><trkpt lat="39.31308" lon="16.9742795"><ele>456.0</ele><time>2026-03-28T15:46:10.179Z</time></trkpt><trkpt lat="39.3130535" lon="16.9744427"><ele>454.0</ele><time>2026-03-28T15:46:11.197Z</time></trkpt><trkpt lat="39.3130139" lon="16.9746048"><ele>452.0</ele><time>2026-03-28T15:46:12.175Z</time></trkpt><trkpt lat="39.31297" lon="16.9747727"><ele>450.0</ele><time>2026-03-28T15:46:13.179Z</time></trkpt><trkpt lat="39.3129279" lon="16.9749296"><ele>448.0</ele><time>2026-03-28T15:46:14.179Z</time></trkpt><trkpt lat="39.3129035" lon="16.9750763"><ele>446.4</ele><time>2026-03-28T15:46:15.178Z</time></trkpt><trkpt lat="39.3129068" lon="16.9752178"><ele>444.79999999999995</ele><time>2026-03-28T15:46:16.196Z</time></trkpt><trkpt lat="39.312938" lon="16.9753431"><ele>443.2</ele><time>2026-03-28T15:46:17.173Z</time></trkpt><trkpt lat="39.3130118" lon="16.9754495"><ele>441.6</ele><time>2026-03-28T15:46:18.177Z</time></trkpt><trkpt lat="39.3130852" lon="16.975554"><ele>440.0</ele><time>2026-03-28T15:46:19.178Z</time></trkpt><trkpt lat="39.3131438" lon="16.9756789"><ele>443.0</ele><time>2026-03-28T15:46:20.177Z</time></trkpt><trkpt lat="39.3131704" lon="16.9758292"><ele>446.0</ele><time>2026-03-28T15:46:21.191Z</time></trkpt><trkpt lat="39.3131672" lon="16.9759855"><ele>449.0</ele><time>2026-03-28T15:46:22.17Z</time></trkpt><trkpt lat="39.3131517" lon="16.9761383"><ele>452.0</ele><time>2026-03-28T15:46:23.177Z</time></trkpt><trkpt lat="39.3131409" lon="16.9762759"><ele>452.0</ele><time>2026-03-28T15:46:24.178Z</time></trkpt><trkpt lat="39.3131492" lon="16.9764028"><ele>452.00000000000006</ele><time>2026-03-28T15:46:25.17Z</time></trkpt><trkpt lat="39.3131894" lon="16.9765144"><ele>452.00000000000006</ele><time>2026-03-28T15:46:26.194Z</time></trkpt><trkpt lat="39.3132548" lon="16.976607"><ele>452.0</ele><time>2026-03-28T15:46:27.178Z</time></trkpt><trkpt lat="39.3133386" lon="16.9766659"><ele>452.0</ele><time>2026-03-28T15:46:28.177Z</time></trkpt><trkpt lat="39.3134421" lon="16.9766663"><ele>452.0</ele><time>2026-03-28T15:46:29.178Z</time></trkpt><trkpt lat="39.3135489" lon="16.9766226"><ele>452.0</ele><time>2026-03-28T15:46:30.176Z</time></trkpt><trkpt lat="39.3136572" lon="16.9765545"><ele>452.0</ele><time>2026-03-28T15:46:31.199Z</time></trkpt><trkpt lat="39.3137657" lon="16.9764788"><ele>452.0</ele><time>2026-03-28T15:46:32.182Z</time></trkpt><trkpt lat="39.3138685" lon="16.9763931"><ele>451.75</ele><time>2026-03-28T15:46:33.175Z</time></trkpt><trkpt lat="39.3139601" lon="16.9762852"><ele>451.5</ele><time>2026-03-28T15:46:34.177Z</time></trkpt><trkpt lat="39.3140363" lon="16.9761508"><ele>451.25</ele><time>2026-03-28T15:46:35.181Z</time></trkpt><trkpt lat="39.3140971" lon="16.9759971"><ele>451.0</ele><time>2026-03-28T15:46:36.178Z</time></trkpt><trkpt lat="39.3141441" lon="16.9758401"><ele>451.0</ele><time>2026-03-28T15:46:37.173Z</time></trkpt><trkpt lat="39.3141685" lon="16.9756898"><ele>451.0</ele><time>2026-03-28T15:46:38.183Z</time></trkpt><trkpt lat="39.3141648" lon="16.9755501"><ele>451.0</ele><time>2026-03-28T15:46:39.174Z</time></trkpt><trkpt lat="39.3141383" lon="16.975413"><ele>451.0</ele><time>2026-03-28T15:46:40.176Z</time></trkpt><trkpt lat="39.3141244" lon="16.9752738"><ele>451.0</ele><time>2026-03-28T15:46:41.174Z</time></trkpt><trkpt lat="39.314142" lon="16.9751393"><ele>451.00000000000006</ele><time>2026-03-28T15:46:42.174Z</time></trkpt><trkpt lat="39.3141867" lon="16.975028"><ele>451.0</ele><time>2026-03-28T15:46:43.177Z</time></trkpt><trkpt lat="39.3142613" lon="16.9749563"><ele>451.0</ele><time>2026-03-28T15:46:44.178Z</time></trkpt><trkpt lat="39.3143444" lon="16.974926"><ele>451.0</ele><time>2026-03-28T15:46:45.171Z</time></trkpt><trkpt lat="39.3144278" lon="16.9749338"><ele>451.00000000000006</ele><time>2026-03-28T15:46:46.175Z</time></trkpt><trkpt lat="39.3145087" lon="16.9749129"><ele>451.0</ele><time>2026-03-28T15:46:47.184Z</time></trkpt><trkpt lat="39.3145748" lon="16.9748479"><ele>453.20000000000005</ele><time>2026-03-28T15:46:48.175Z</time></trkpt><trkpt lat="39.3146192" lon="16.9747432"><ele>455.40000000000003</ele><time>2026-03-28T15:46:49.193Z</time></trkpt><trkpt lat="39.314635" lon="16.9746296"><ele>457.6</ele><time>2026-03-28T15:46:50.174Z</time></trkpt><trkpt lat="39.3146244" lon="16.9745012"><ele>459.8</ele><time>2026-03-28T15:46:51.173Z</time></trkpt><trkpt lat="39.3146101" lon="16.9743735"><ele>462.0</ele><time>2026-03-28T15:46:52.176Z</time></trkpt><trkpt lat="39.3146084" lon="16.974247"><ele>463.6666666666667</ele><time>2026-03-28T15:46:53.182Z</time></trkpt><trkpt lat="39.3146239" lon="16.9741345"><ele>465.33333333333337</ele><time>2026-03-28T15:46:54.178Z</time></trkpt><trkpt lat="39.3146635" lon="16.9740427"><ele>467.0</ele><time>2026-03-28T15:46:55.19Z</time></trkpt><trkpt lat="39.3147275" lon="16.9739833"><ele>468.6666666666667</ele><time>2026-03-28T15:46:56.177Z</time></trkpt><trkpt lat="39.3148056" lon="16.9739521"><ele>470.33333333333337</ele><time>2026-03-28T15:46:57.178Z</time></trkpt><trkpt lat="39.314893" lon="16.9739711"><ele>472.0</ele><time>2026-03-28T15:46:58.171Z</time></trkpt><trkpt lat="39.3149711" lon="16.9740797"><ele>462.75</ele><time>2026-03-28T15:46:59.173Z</time></trkpt><trkpt lat="39.315041" lon="16.9742029"><ele>453.5</ele><time>2026-03-28T15:47:00.182Z</time></trkpt><trkpt lat="39.3151087" lon="16.974342"><ele>444.25</ele><time>2026-03-28T15:47:01.172Z</time></trkpt><trkpt lat="39.3151869" lon="16.974468"><ele>435.0</ele><time>2026-03-28T15:47:02.192Z</time></trkpt><trkpt lat="39.3152827" lon="16.9745658"><ele>435.0</ele><time>2026-03-28T15:47:03.176Z</time></trkpt><trkpt lat="39.3153892" lon="16.9746445"><ele>435.0</ele><time>2026-03-28T15:47:04.175Z</time></trkpt><trkpt lat="39.3155014" lon="16.97471"><ele>435.0</ele><time>2026-03-28T15:47:05.181Z</time></trkpt><trkpt lat="39.3156122" lon="16.974772"><ele>435.0</ele><time>2026-03-28T15:47:06.18Z</time></trkpt><trkpt lat="39.3157155" lon="16.9748437"><ele>435.25</ele><time>2026-03-28T15:47:07.175Z</time></trkpt><trkpt lat="39.3158101" lon="16.9749372"><ele>435.5</ele><time>2026-03-28T15:47:08.196Z</time></trkpt><trkpt lat="39.3158987" lon="16.9750473"><ele>435.75</ele><time>2026-03-28T15:47:09.181Z</time></trkpt><trkpt lat="39.3159848" lon="16.9751688"><ele>436.0</ele><time>2026-03-28T15:47:10.172Z</time></trkpt><trkpt lat="39.3160655" lon="16.9752951"><ele>434.75</ele><time>2026-03-28T15:47:11.176Z</time></trkpt><trkpt lat="39.3161411" lon="16.9754183"><ele>433.5</ele><time>2026-03-28T15:47:12.175Z</time></trkpt><trkpt lat="39.3162147" lon="16.975538"><ele>432.25</ele><time>2026-03-28T15:47:13.209Z</time></trkpt><trkpt lat="39.3162908" lon="16.9756388"><ele>431.0</ele><time>2026-03-28T15:47:14.178Z</time></trkpt><trkpt lat="39.3163759" lon="16.9757125"><ele>429.20000000000005</ele><time>2026-03-28T15:47:15.179Z</time></trkpt><trkpt lat="39.3164677" lon="16.9757568"><ele>427.40000000000003</ele><time>2026-03-28T15:47:16.177Z</time></trkpt><trkpt lat="39.3165678" lon="16.9757735"><ele>425.6</ele><time>2026-03-28T15:47:17.177Z</time></trkpt><trkpt lat="39.3166768" lon="16.9757664"><ele>423.8</ele><time>2026-03-28T15:47:18.177Z</time></trkpt><trkpt lat="39.3167921" lon="16.9757443"><ele>422.0</ele><time>2026-03-28T15:47:19.174Z</time></trkpt><trkpt lat="39.3169104" lon="16.9757202"><ele>422.0</ele><time>2026-03-28T15:47:20.2Z</time></trkpt><trkpt lat="39.3170253" lon="16.9757139"><ele>422.0</ele><time>2026-03-28T15:47:21.179Z</time></trkpt><trkpt lat="39.3171468" lon="16.9757179"><ele>422.0</ele><time>2026-03-28T15:47:22.178Z</time></trkpt><trkpt lat="39.3172703" lon="16.9757286"><ele>422.0</ele><time>2026-03-28T15:47:23.192Z</time></trkpt><trkpt lat="39.3173932" lon="16.975753"><ele>417.8</ele><time>2026-03-28T15:47:24.2Z</time></trkpt><trkpt lat="39.3175125" lon="16.975787"><ele>413.6</ele><time>2026-03-28T15:47:25.203Z</time></trkpt><trkpt lat="39.31762" lon="16.9758321"><ele>409.40000000000003</ele><time>2026-03-28T15:47:26.194Z</time></trkpt><trkpt lat="39.3177074" lon="16.9758963"><ele>405.20000000000005</ele><time>2026-03-28T15:47:27.214Z</time></trkpt><trkpt lat="39.3177632" lon="16.9759787"><ele>401.0</ele><time>2026-03-28T15:47:28.203Z</time></trkpt><trkpt lat="39.3177859" lon="16.9760841"><ele>400.8</ele><time>2026-03-28T15:47:29.2Z</time></trkpt><trkpt lat="39.3177757" lon="16.9761898"><ele>400.6</ele><time>2026-03-28T15:47:30.207Z</time></trkpt><trkpt lat="39.3177091" lon="16.9762861"><ele>400.4</ele><time>2026-03-28T15:47:31.21Z</time></trkpt><trkpt lat="39.3176275" lon="16.976368"><ele>400.2</ele><time>2026-03-28T15:47:32.192Z</time></trkpt><trkpt lat="39.3175369" lon="16.9764486"><ele>400.0</ele><time>2026-03-28T15:47:33.201Z</time></trkpt><trkpt lat="39.317447" lon="16.976549"><ele>400.0</ele><time>2026-03-28T15:47:34.199Z</time></trkpt><trkpt lat="39.3173624" lon="16.9766814"><ele>400.0</ele><time>2026-03-28T15:47:35.217Z</time></trkpt><trkpt lat="39.3172849" lon="16.9768389"><ele>400.0</ele><time>2026-03-28T15:47:36.201Z</time></trkpt><trkpt lat="39.3172091" lon="16.9770117"><ele>400.0</ele><time>2026-03-28T15:47:37.2Z</time></trkpt><trkpt lat="39.3171337" lon="16.977189"><ele>399.33333333333337</ele><time>2026-03-28T15:47:38.201Z</time></trkpt><trkpt lat="39.3170601" lon="16.9773691"><ele>398.66666666666663</ele><time>2026-03-28T15:47:39.208Z</time></trkpt><trkpt lat="39.3169858" lon="16.9775493"><ele>398.0</ele><time>2026-03-28T15:47:40.208Z</time></trkpt><trkpt lat="39.3169074" lon="16.9777332"><ele>398.0</ele><time>2026-03-28T15:47:41.198Z</time></trkpt><trkpt lat="39.3168234" lon="16.9779217"><ele>398.0</ele><time>2026-03-28T15:47:42.201Z</time></trkpt><trkpt lat="39.3167408" lon="16.9781068"><ele>398.0</ele><time>2026-03-28T15:47:43.2Z</time></trkpt><trkpt lat="39.3166635" lon="16.9782907"><ele>395.25</ele><time>2026-03-28T15:47:44.203Z</time></trkpt><trkpt lat="39.3165923" lon="16.9784736"><ele>392.5</ele><time>2026-03-28T15:47:45.205Z</time></trkpt><trkpt lat="39.3165314" lon="16.978652"><ele>389.75</ele><time>2026-03-28T15:47:46.193Z</time></trkpt><trkpt lat="39.3164832" lon="16.9788175"><ele>387.0</ele><time>2026-03-28T15:47:47.197Z</time></trkpt><trkpt lat="39.3164515" lon="16.9789623"><ele>387.0</ele><time>2026-03-28T15:47:48.212Z</time></trkpt><trkpt lat="39.31644" lon="16.9790853"><ele>387.0</ele><time>2026-03-28T15:47:49.206Z</time></trkpt><trkpt lat="39.3164531" lon="16.9791887"><ele>387.0</ele><time>2026-03-28T15:47:50.201Z</time></trkpt><trkpt lat="39.3164884" lon="16.9792665"><ele>387.0</ele><time>2026-03-28T15:47:51.211Z</time></trkpt><trkpt lat="39.316566" lon="16.979374"><ele>387.0</ele><time>2026-03-28T15:47:53.204Z</time></trkpt><trkpt lat="39.3165684" lon="16.979462"><ele>387.0</ele><time>2026-03-28T15:47:55.21Z</time></trkpt><trkpt lat="39.3165215" lon="16.9795633"><ele>384.0</ele><time>2026-03-28T15:47:57.2Z</time></trkpt><trkpt lat="39.3164689" lon="16.9796851"><ele>381.0</ele><time>2026-03-28T15:47:59.208Z</time></trkpt><trkpt lat="39.3164146" lon="16.9798082"><ele>378.0</ele><time>2026-03-28T15:48:01.207Z</time></trkpt><trkpt lat="39.3163571" lon="16.9799449"><ele>375.0</ele><time>2026-03-28T15:48:03.208Z</time></trkpt><trkpt lat="39.3163238" lon="16.9800202"><ele>372.0</ele><time>2026-03-28T15:48:04.206Z</time></trkpt><trkpt lat="39.3162858" lon="16.9800989"><ele>368.8333333333333</ele><time>2026-03-28T15:48:05.2Z</time></trkpt><trkpt lat="39.3162454" lon="16.9801816"><ele>365.6666666666667</ele><time>2026-03-28T15:48:06.195Z</time></trkpt><trkpt lat="39.3162028" lon="16.9802663"><ele>362.5</ele><time>2026-03-28T15:48:07.203Z</time></trkpt><trkpt lat="39.3161566" lon="16.9803497"><ele>359.33333333333337</ele><time>2026-03-28T15:48:08.195Z</time></trkpt><trkpt lat="39.3161054" lon="16.9804324"><ele>356.1666666666667</ele><time>2026-03-28T15:48:09.203Z</time></trkpt><trkpt lat="39.3160584" lon="16.9805166"><ele>353.0</ele><time>2026-03-28T15:48:10.2Z</time></trkpt><trkpt lat="39.3160276" lon="16.9806125"><ele>353.0</ele><time>2026-03-28T15:48:11.204Z</time></trkpt><trkpt lat="39.3160164" lon="16.9807215"><ele>353.0</ele><time>2026-03-28T15:48:12.203Z</time></trkpt><trkpt lat="39.3160264" lon="16.980841"><ele>353.0</ele><time>2026-03-28T15:48:13.207Z</time></trkpt><trkpt lat="39.3160441" lon="16.9809683"><ele>353.0</ele><time>2026-03-28T15:48:14.204Z</time></trkpt><trkpt lat="39.3160553" lon="16.9811038"><ele>353.0</ele><time>2026-03-28T15:48:15.2Z</time></trkpt><trkpt lat="39.3160545" lon="16.9812484"><ele>351.25</ele><time>2026-03-28T15:48:16.185Z</time></trkpt><trkpt lat="39.3160475" lon="16.9814027"><ele>349.5</ele><time>2026-03-28T15:48:17.203Z</time></trkpt><trkpt lat="39.3160419" lon="16.9815677"><ele>347.75</ele><time>2026-03-28T15:48:18.207Z</time></trkpt><trkpt lat="39.3160418" lon="16.9817349"><ele>346.0</ele><time>2026-03-28T15:48:19.205Z</time></trkpt><trkpt lat="39.3160448" lon="16.9818894"><ele>344.25</ele><time>2026-03-28T15:48:20.216Z</time></trkpt><trkpt lat="39.3160545" lon="16.9820346"><ele>342.5</ele><time>2026-03-28T15:48:21.201Z</time></trkpt><trkpt lat="39.3160809" lon="16.982177"><ele>340.75</ele><time>2026-03-28T15:48:22.199Z</time></trkpt><trkpt lat="39.316133" lon="16.982311"><ele>339.0</ele><time>2026-03-28T15:48:23.209Z</time></trkpt><trkpt lat="39.3161962" lon="16.9824389"><ele>339.5</ele><time>2026-03-28T15:48:24.201Z</time></trkpt><trkpt lat="39.3162622" lon="16.9825659"><ele>340.0</ele><time>2026-03-28T15:48:25.203Z</time></trkpt><trkpt lat="39.3163289" lon="16.9826875"><ele>340.5</ele><time>2026-03-28T15:48:26.206Z</time></trkpt><trkpt lat="39.3164011" lon="16.9828127"><ele>341.0</ele><time>2026-03-28T15:48:27.203Z</time></trkpt><trkpt lat="39.3164781" lon="16.9829459"><ele>341.0</ele><time>2026-03-28T15:48:28.197Z</time></trkpt><trkpt lat="39.3165552" lon="16.9830811"><ele>341.0</ele><time>2026-03-28T15:48:29.2Z</time></trkpt><trkpt lat="39.3166259" lon="16.9832162"><ele>341.0</ele><time>2026-03-28T15:48:30.2Z</time></trkpt><trkpt lat="39.3166876" lon="16.983358"><ele>341.0</ele><time>2026-03-28T15:48:31.201Z</time></trkpt><trkpt lat="39.3167395" lon="16.9835107"><ele>338.75</ele><time>2026-03-28T15:48:32.203Z</time></trkpt><trkpt lat="39.3167765" lon="16.9836756"><ele>336.5</ele><time>2026-03-28T15:48:33.205Z</time></trkpt><trkpt lat="39.3168109" lon="16.9838511"><ele>334.25</ele><time>2026-03-28T15:48:34.211Z</time></trkpt><trkpt lat="39.3168518" lon="16.9840298"><ele>332.0</ele><time>2026-03-28T15:48:35.206Z</time></trkpt><trkpt lat="39.3169006" lon="16.9842047"><ele>329.5</ele><time>2026-03-28T15:48:36.191Z</time></trkpt><trkpt lat="39.3169604" lon="16.9843757"><ele>327.0</ele><time>2026-03-28T15:48:37.204Z</time></trkpt><trkpt lat="39.3170165" lon="16.9845439"><ele>324.5</ele><time>2026-03-28T15:48:38.2Z</time></trkpt><trkpt lat="39.3170643" lon="16.9847086"><ele>322.0</ele><time>2026-03-28T15:48:39.203Z</time></trkpt><trkpt lat="39.3171181" lon="16.9848524"><ele>322.0</ele><time>2026-03-28T15:48:40.202Z</time></trkpt><trkpt lat="39.3171885" lon="16.9849661"><ele>322.0</ele><time>2026-03-28T15:48:41.2Z</time></trkpt><trkpt lat="39.3172782" lon="16.9850366"><ele>322.0</ele><time>2026-03-28T15:48:42.216Z</time></trkpt><trkpt lat="39.3173657" lon="16.9850819"><ele>322.0</ele><time>2026-03-28T15:48:43.202Z</time></trkpt><trkpt lat="39.3174646" lon="16.9850772"><ele>322.0</ele><time>2026-03-28T15:48:44.204Z</time></trkpt><trkpt lat="39.3175666" lon="16.9850723"><ele>322.40000000000003</ele><time>2026-03-28T15:48:45.208Z</time></trkpt><trkpt lat="39.3176589" lon="16.9850877"><ele>322.8</ele><time>2026-03-28T15:48:46.205Z</time></trkpt><trkpt lat="39.3177489" lon="16.9851247"><ele>323.2</ele><time>2026-03-28T15:48:47.191Z</time></trkpt><trkpt lat="39.3178436" lon="16.9851823"><ele>323.6</ele><time>2026-03-28T15:48:48.197Z</time></trkpt><trkpt lat="39.3179433" lon="16.9852425"><ele>324.0</ele><time>2026-03-28T15:48:49.203Z</time></trkpt><trkpt lat="39.318049" lon="16.9852959"><ele>324.4</ele><time>2026-03-28T15:48:50.2Z</time></trkpt><trkpt lat="39.3181571" lon="16.9853415"><ele>324.79999999999995</ele><time>2026-03-28T15:48:51.205Z</time></trkpt><trkpt lat="39.3182625" lon="16.9853839"><ele>325.20000000000005</ele><time>2026-03-28T15:48:52.201Z</time></trkpt><trkpt lat="39.3183633" lon="16.9854263"><ele>325.6</ele><time>2026-03-28T15:48:53.201Z</time></trkpt><trkpt lat="39.3184598" lon="16.9854694"><ele>326.0</ele><time>2026-03-28T15:48:54.201Z</time></trkpt><trkpt lat="39.3185505" lon="16.985514"><ele>326.0</ele><time>2026-03-28T15:48:55.205Z</time></trkpt><trkpt lat="39.3186341" lon="16.9855635"><ele>326.0</ele><time>2026-03-28T15:48:56.204Z</time></trkpt><trkpt lat="39.3187102" lon="16.9856249"><ele>326.0</ele><time>2026-03-28T15:48:57.206Z</time></trkpt><trkpt lat="39.3187794" lon="16.9856989"><ele>326.0</ele><time>2026-03-28T15:48:58.201Z</time></trkpt><trkpt lat="39.3188366" lon="16.9857884"><ele>326.0</ele><time>2026-03-28T15:48:59.202Z</time></trkpt><trkpt lat="39.3188809" lon="16.985893"><ele>323.2</ele><time>2026-03-28T15:49:00.212Z</time></trkpt><trkpt lat="39.3189189" lon="16.9860063"><ele>320.40000000000003</ele><time>2026-03-28T15:49:01.214Z</time></trkpt><trkpt lat="39.3189605" lon="16.986117"><ele>317.6</ele><time>2026-03-28T15:49:02.195Z</time></trkpt><trkpt lat="39.3190161" lon="16.9862251"><ele>314.8</ele><time>2026-03-28T15:49:03.2Z</time></trkpt><trkpt lat="39.3190825" lon="16.9863357"><ele>312.0</ele><time>2026-03-28T15:49:04.205Z</time></trkpt><trkpt lat="39.3191501" lon="16.9864474"><ele>312.0</ele><time>2026-03-28T15:49:05.213Z</time></trkpt><trkpt lat="39.3192165" lon="16.9865634"><ele>312.0</ele><time>2026-03-28T15:49:06.207Z</time></trkpt><trkpt lat="39.3192846" lon="16.9866833"><ele>312.0</ele><time>2026-03-28T15:49:07.199Z</time></trkpt><trkpt lat="39.3193512" lon="16.986809"><ele>312.0</ele><time>2026-03-28T15:49:08.201Z</time></trkpt><trkpt lat="39.3194178" lon="16.9869468"><ele>309.5</ele><time>2026-03-28T15:49:09.206Z</time></trkpt><trkpt lat="39.3194834" lon="16.9870959"><ele>307.0</ele><time>2026-03-28T15:49:10.213Z</time></trkpt><trkpt lat="39.3195416" lon="16.9872497"><ele>304.5</ele><time>2026-03-28T15:49:11.201Z</time></trkpt><trkpt lat="39.3195925" lon="16.9874029"><ele>302.0</ele><time>2026-03-28T15:49:12.197Z</time></trkpt><trkpt lat="39.3196381" lon="16.987554"><ele>300.25</ele><time>2026-03-28T15:49:13.207Z</time></trkpt><trkpt lat="39.3196779" lon="16.9877044"><ele>298.5</ele><time>2026-03-28T15:49:14.201Z</time></trkpt><trkpt lat="39.3197134" lon="16.9878569"><ele>296.75</ele><time>2026-03-28T15:49:15.207Z</time></trkpt><trkpt lat="39.3197536" lon="16.9880078"><ele>295.0</ele><time>2026-03-28T15:49:16.201Z</time></trkpt><trkpt lat="39.3198082" lon="16.9881548"><ele>295.0</ele><time>2026-03-28T15:49:17.208Z</time></trkpt><trkpt lat="39.3198763" lon="16.988296"><ele>295.0</ele><time>2026-03-28T15:49:18.203Z</time></trkpt><trkpt lat="39.3199504" lon="16.9884366"><ele>295.0</ele><time>2026-03-28T15:49:19.201Z</time></trkpt><trkpt lat="39.3200224" lon="16.9885822"><ele>295.0</ele><time>2026-03-28T15:49:20.212Z</time></trkpt><trkpt lat="39.3200899" lon="16.9887339"><ele>292.0</ele><time>2026-03-28T15:49:21.22Z</time></trkpt><trkpt lat="39.3201544" lon="16.9888887"><ele>289.0</ele><time>2026-03-28T15:49:22.2Z</time></trkpt><trkpt lat="39.320218" lon="16.9890487"><ele>286.0</ele><time>2026-03-28T15:49:23.199Z</time></trkpt><trkpt lat="39.3202801" lon="16.9892107"><ele>283.0</ele><time>2026-03-28T15:49:24.195Z</time></trkpt><trkpt lat="39.3203368" lon="16.989377"><ele>280.0</ele><time>2026-03-28T15:49:25.205Z</time></trkpt><trkpt lat="39.3203805" lon="16.9895485"><ele>277.0</ele><time>2026-03-28T15:49:26.225Z</time></trkpt><trkpt lat="39.3204018" lon="16.989716"><ele>274.0</ele><time>2026-03-28T15:49:27.207Z</time></trkpt><trkpt lat="39.3203999" lon="16.9898691"><ele>271.0</ele><time>2026-03-28T15:49:28.198Z</time></trkpt><trkpt lat="39.3203958" lon="16.9899954"><ele>269.8</ele><time>2026-03-28T15:49:29.223Z</time></trkpt><trkpt lat="39.3204095" lon="16.9900915"><ele>268.6</ele><time>2026-03-28T15:49:30.209Z</time></trkpt><trkpt lat="39.3204818" lon="16.9902095"><ele>267.4</ele><time>2026-03-28T15:49:32.199Z</time></trkpt><trkpt lat="39.3205817" lon="16.9903108"><ele>266.2</ele><time>2026-03-28T15:49:34.212Z</time></trkpt><trkpt lat="39.3206429" lon="16.9903809"><ele>265.0</ele><time>2026-03-28T15:49:35.209Z</time></trkpt><trkpt lat="39.3207081" lon="16.9904599"><ele>265.0</ele><time>2026-03-28T15:49:36.203Z</time></trkpt><trkpt lat="39.3207769" lon="16.9905453"><ele>265.0</ele><time>2026-03-28T15:49:37.209Z</time></trkpt><trkpt lat="39.3208435" lon="16.9906407"><ele>265.0</ele><time>2026-03-28T15:49:38.198Z</time></trkpt><trkpt lat="39.3208972" lon="16.9907492"><ele>265.0</ele><time>2026-03-28T15:49:39.205Z</time></trkpt><trkpt lat="39.3209382" lon="16.9908556"><ele>265.0</ele><time>2026-03-28T15:49:40.198Z</time></trkpt><trkpt lat="39.3209477" lon="16.9909797"><ele>261.8</ele><time>2026-03-28T15:49:41.207Z</time></trkpt><trkpt lat="39.3209567" lon="16.9911047"><ele>258.6</ele><time>2026-03-28T15:49:42.206Z</time></trkpt><trkpt lat="39.3209943" lon="16.9912195"><ele>255.39999999999998</ele><time>2026-03-28T15:49:43.215Z</time></trkpt><trkpt lat="39.3210525" lon="16.9913099"><ele>252.2</ele><time>2026-03-28T15:49:44.205Z</time></trkpt><trkpt lat="39.321128" lon="16.9913778"><ele>249.0</ele><time>2026-03-28T15:49:45.198Z</time></trkpt><trkpt lat="39.3212067" lon="16.9914355"><ele>249.0</ele><time>2026-03-28T15:49:46.201Z</time></trkpt><trkpt lat="39.3212815" lon="16.9915037"><ele>248.99999999999997</ele><time>2026-03-28T15:49:47.208Z</time></trkpt><trkpt lat="39.3213342" lon="16.9916001"><ele>248.99999999999997</ele><time>2026-03-28T15:49:48.186Z</time></trkpt><trkpt lat="39.3213728" lon="16.9917216"><ele>249.0</ele><time>2026-03-28T15:49:49.198Z</time></trkpt><trkpt lat="39.3214028" lon="16.9918439"><ele>249.0</ele><time>2026-03-28T15:49:50.203Z</time></trkpt><trkpt lat="39.3214129" lon="16.9919698"><ele>249.33333333333334</ele><time>2026-03-28T15:49:51.201Z</time></trkpt><trkpt lat="39.3214106" lon="16.9920843"><ele>249.66666666666669</ele><time>2026-03-28T15:49:52.2Z</time></trkpt><trkpt lat="39.3214069" lon="16.9921831"><ele>250.0</ele><time>2026-03-28T15:49:53.202Z</time></trkpt><trkpt lat="39.3214223" lon="16.9922697"><ele>250.33333333333334</ele><time>2026-03-28T15:49:54.19Z</time></trkpt><trkpt lat="39.3214564" lon="16.9923534"><ele>250.66666666666669</ele><time>2026-03-28T15:49:55.2Z</time></trkpt><trkpt lat="39.321519" lon="16.9924277"><ele>251.0</ele><time>2026-03-28T15:49:56.207Z</time></trkpt><trkpt lat="39.3215886" lon="16.992524"><ele>249.33333333333334</ele><time>2026-03-28T15:49:57.21Z</time></trkpt><trkpt lat="39.3216502" lon="16.992616"><ele>247.66666666666669</ele><time>2026-03-28T15:49:58.199Z</time></trkpt><trkpt lat="39.3216928" lon="16.9927147"><ele>246.0</ele><time>2026-03-28T15:49:59.199Z</time></trkpt><trkpt lat="39.3217182" lon="16.9928213"><ele>244.33333333333331</ele><time>2026-03-28T15:50:00.208Z</time></trkpt><trkpt lat="39.3217586" lon="16.9929229"><ele>242.66666666666666</ele><time>2026-03-28T15:50:01.199Z</time></trkpt><trkpt lat="39.3218139" lon="16.9930082"><ele>241.0</ele><time>2026-03-28T15:50:02.208Z</time></trkpt><trkpt lat="39.3218726" lon="16.9930855"><ele>240.99999999999997</ele><time>2026-03-28T15:50:03.201Z</time></trkpt><trkpt lat="39.3219253" lon="16.9931671"><ele>241.0</ele><time>2026-03-28T15:50:04.22Z</time></trkpt><trkpt lat="39.3219647" lon="16.993256"><ele>241.0</ele><time>2026-03-28T15:50:05.204Z</time></trkpt><trkpt lat="39.3220025" lon="16.9933457"><ele>241.0</ele><time>2026-03-28T15:50:06.2Z</time></trkpt><trkpt lat="39.3220407" lon="16.9934315"><ele>240.99999999999997</ele><time>2026-03-28T15:50:07.21Z</time></trkpt><trkpt lat="39.3220789" lon="16.9935136"><ele>241.0</ele><time>2026-03-28T15:50:08.206Z</time></trkpt><trkpt lat="39.322125" lon="16.993586"><ele>237.66666666666666</ele><time>2026-03-28T15:50:09.206Z</time></trkpt><trkpt lat="39.3221882" lon="16.9936372"><ele>234.33333333333331</ele><time>2026-03-28T15:50:10.203Z</time></trkpt><trkpt lat="39.3222627" lon="16.993662"><ele>231.0</ele><time>2026-03-28T15:50:11.194Z</time></trkpt><trkpt lat="39.3223436" lon="16.993662"><ele>227.66666666666669</ele><time>2026-03-28T15:50:12.199Z</time></trkpt><trkpt lat="39.3224234" lon="16.9936366"><ele>224.33333333333334</ele><time>2026-03-28T15:50:13.207Z</time></trkpt><trkpt lat="39.3224918" lon="16.9935893"><ele>221.0</ele><time>2026-03-28T15:50:14.199Z</time></trkpt><trkpt lat="39.3225531" lon="16.9935471"><ele>221.00000000000003</ele><time>2026-03-28T15:50:15.201Z</time></trkpt><trkpt lat="39.3226627" lon="16.9934686"><ele>221.0</ele><time>2026-03-28T15:50:17.202Z</time></trkpt><trkpt lat="39.3227234" lon="16.9934267"><ele>221.0</ele><time>2026-03-28T15:50:18.195Z</time></trkpt><trkpt lat="39.3227865" lon="16.9933897"><ele>221.0</ele><time>2026-03-28T15:50:19.2Z</time></trkpt><trkpt lat="39.3228565" lon="16.9933519"><ele>221.00000000000003</ele><time>2026-03-28T15:50:20.198Z</time></trkpt><trkpt lat="39.3229253" lon="16.9933142"><ele>221.0</ele><time>2026-03-28T15:50:21.201Z</time></trkpt><trkpt lat="39.3229952" lon="16.9933191"><ele>218.0</ele><time>2026-03-28T15:50:22.197Z</time></trkpt><trkpt lat="39.3231138" lon="16.9933917"><ele>215.00000000000003</ele><time>2026-03-28T15:50:24.195Z</time></trkpt><trkpt lat="39.3231382" lon="16.993478"><ele>212.0</ele><time>2026-03-28T15:50:25.184Z</time></trkpt><trkpt lat="39.3231546" lon="16.9935792"><ele>209.0</ele><time>2026-03-28T15:50:26.202Z</time></trkpt><trkpt lat="39.3231713" lon="16.9936933"><ele>206.0</ele><time>2026-03-28T15:50:27.21Z</time></trkpt><trkpt lat="39.3231904" lon="16.993822"><ele>206.0</ele><time>2026-03-28T15:50:28.202Z</time></trkpt><trkpt lat="39.3232079" lon="16.9939637"><ele>206.0</ele><time>2026-03-28T15:50:29.197Z</time></trkpt><trkpt lat="39.3232234" lon="16.9941136"><ele>206.0</ele><time>2026-03-28T15:50:30.206Z</time></trkpt><trkpt lat="39.3232369" lon="16.9942618"><ele>206.0</ele><time>2026-03-28T15:50:31.202Z</time></trkpt><trkpt lat="39.3232449" lon="16.9944021"><ele>204.4</ele><time>2026-03-28T15:50:32.202Z</time></trkpt><trkpt lat="39.3232532" lon="16.9945346"><ele>202.8</ele><time>2026-03-28T15:50:33.207Z</time></trkpt><trkpt lat="39.3232595" lon="16.9946595"><ele>201.20000000000002</ele><time>2026-03-28T15:50:34.193Z</time></trkpt><trkpt lat="39.3232658" lon="16.9947779"><ele>199.60000000000002</ele><time>2026-03-28T15:50:35.191Z</time></trkpt><trkpt lat="39.3232843" lon="16.9948858"><ele>198.0</ele><time>2026-03-28T15:50:36.213Z</time></trkpt><trkpt lat="39.3233228" lon="16.9949785"><ele>195.33333333333334</ele><time>2026-03-28T15:50:37.206Z</time></trkpt><trkpt lat="39.3233774" lon="16.9950539"><ele>192.66666666666666</ele><time>2026-03-28T15:50:38.196Z</time></trkpt><trkpt lat="39.3234429" lon="16.9951053"><ele>190.0</ele><time>2026-03-28T15:50:39.2Z</time></trkpt><trkpt lat="39.3235228" lon="16.9951185"><ele>187.33333333333331</ele><time>2026-03-28T15:50:40.202Z</time></trkpt><trkpt lat="39.3236063" lon="16.9951206"><ele>184.66666666666666</ele><time>2026-03-28T15:50:41.214Z</time></trkpt><trkpt lat="39.3236961" lon="16.9951151"><ele>182.0</ele><time>2026-03-28T15:50:42.217Z</time></trkpt><trkpt lat="39.3237903" lon="16.9951093"><ele>182.0</ele><time>2026-03-28T15:50:43.202Z</time></trkpt><trkpt lat="39.3238879" lon="16.9951046"><ele>182.0</ele><time>2026-03-28T15:50:44.21Z</time></trkpt><trkpt lat="39.3239858" lon="16.9951008"><ele>182.0</ele><time>2026-03-28T15:50:45.2Z</time></trkpt><trkpt lat="39.3240836" lon="16.9950974"><ele>182.0</ele><time>2026-03-28T15:50:46.2Z</time></trkpt><trkpt lat="39.3241787" lon="16.995084"><ele>182.0</ele><time>2026-03-28T15:50:47.199Z</time></trkpt><trkpt lat="39.3242701" lon="16.9950546"><ele>182.16666666666666</ele><time>2026-03-28T15:50:48.205Z</time></trkpt><trkpt lat="39.3243507" lon="16.9950081"><ele>182.33333333333331</ele><time>2026-03-28T15:50:49.206Z</time></trkpt><trkpt lat="39.3244158" lon="16.994941"><ele>182.5</ele><time>2026-03-28T15:50:50.199Z</time></trkpt><trkpt lat="39.3244711" lon="16.994863"><ele>182.66666666666666</ele><time>2026-03-28T15:50:51.21Z</time></trkpt><trkpt lat="39.3245242" lon="16.9947864"><ele>182.83333333333334</ele><time>2026-03-28T15:50:52.197Z</time></trkpt><trkpt lat="39.3245764" lon="16.9947171"><ele>183.0</ele><time>2026-03-28T15:50:53.2Z</time></trkpt><trkpt lat="39.3246377" lon="16.9945894"><ele>183.60000000000002</ele><time>2026-03-28T15:50:55.197Z</time></trkpt><trkpt lat="39.3246474" lon="16.9944309"><ele>184.20000000000002</ele><time>2026-03-28T15:50:57.186Z</time></trkpt><trkpt lat="39.3246376" lon="16.9943368"><ele>184.8</ele><time>2026-03-28T15:50:58.204Z</time></trkpt><trkpt lat="39.3246196" lon="16.9942218"><ele>185.4</ele><time>2026-03-28T15:50:59.202Z</time></trkpt><trkpt lat="39.3245991" lon="16.9941116"><ele>186.0</ele><time>2026-03-28T15:51:00.198Z</time></trkpt><trkpt lat="39.324575" lon="16.9940146"><ele>186.16666666666666</ele><time>2026-03-28T15:51:01.198Z</time></trkpt><trkpt lat="39.3245523" lon="16.9939353"><ele>186.33333333333334</ele><time>2026-03-28T15:51:02.204Z</time></trkpt><trkpt lat="39.3245421" lon="16.9938252"><ele>186.5</ele><time>2026-03-28T15:51:04.205Z</time></trkpt><trkpt lat="39.3245931" lon="16.9937642"><ele>186.66666666666669</ele><time>2026-03-28T15:51:06.2Z</time></trkpt><trkpt lat="39.3246906" lon="16.9938472"><ele>186.83333333333334</ele><time>2026-03-28T15:51:08.208Z</time></trkpt><trkpt lat="39.3247451" lon="16.9939212"><ele>187.0</ele><time>2026-03-28T15:51:09.197Z</time></trkpt><trkpt lat="39.3248111" lon="16.993993"><ele>184.6</ele><time>2026-03-28T15:51:10.201Z</time></trkpt><trkpt lat="39.3248895" lon="16.9940586"><ele>182.2</ele><time>2026-03-28T15:51:11.205Z</time></trkpt><trkpt lat="39.3249746" lon="16.9941234"><ele>179.8</ele><time>2026-03-28T15:51:12.207Z</time></trkpt><trkpt lat="39.3250562" lon="16.9941948"><ele>177.4</ele><time>2026-03-28T15:51:13.2Z</time></trkpt><trkpt lat="39.3251283" lon="16.9942648"><ele>175.0</ele><time>2026-03-28T15:51:14.2Z</time></trkpt><trkpt lat="39.3251995" lon="16.994314"><ele>174.8</ele><time>2026-03-28T15:51:15.207Z</time></trkpt><trkpt lat="39.3252803" lon="16.9943371"><ele>174.6</ele><time>2026-03-28T15:51:16.201Z</time></trkpt><trkpt lat="39.3253708" lon="16.9943497"><ele>174.39999999999998</ele><time>2026-03-28T15:51:17.204Z</time></trkpt><trkpt lat="39.3254652" lon="16.9943601"><ele>174.2</ele><time>2026-03-28T15:51:18.207Z</time></trkpt><trkpt lat="39.325558" lon="16.9943663"><ele>174.0</ele><time>2026-03-28T15:51:19.206Z</time></trkpt><trkpt lat="39.325652" lon="16.9943638"><ele>174.0</ele><time>2026-03-28T15:51:20.203Z</time></trkpt><trkpt lat="39.3257526" lon="16.9943618"><ele>174.0</ele><time>2026-03-28T15:51:21.195Z</time></trkpt><trkpt lat="39.3258531" lon="16.994347"><ele>174.0</ele><time>2026-03-28T15:51:22.198Z</time></trkpt><trkpt lat="39.3259474" lon="16.9943133"><ele>174.0</ele><time>2026-03-28T15:51:23.202Z</time></trkpt><trkpt lat="39.3260352" lon="16.9942609"><ele>174.0</ele><time>2026-03-28T15:51:24.215Z</time></trkpt><trkpt lat="39.3261164" lon="16.9941942"><ele>175.33333333333334</ele><time>2026-03-28T15:51:25.208Z</time></trkpt><trkpt lat="39.3261949" lon="16.9941336"><ele>176.66666666666666</ele><time>2026-03-28T15:51:26.199Z</time></trkpt><trkpt lat="39.3262657" lon="16.9940797"><ele>178.0</ele><time>2026-03-28T15:51:27.197Z</time></trkpt><trkpt lat="39.3263275" lon="16.9940147"><ele>179.33333333333331</ele><time>2026-03-28T15:51:28.207Z</time></trkpt><trkpt lat="39.3263791" lon="16.9939224"><ele>180.66666666666666</ele><time>2026-03-28T15:51:29.2Z</time></trkpt><trkpt lat="39.3264275" lon="16.9938177"><ele>182.0</ele><time>2026-03-28T15:51:30.197Z</time></trkpt><trkpt lat="39.3264895" lon="16.9937237"><ele>182.5</ele><time>2026-03-28T15:51:31.208Z</time></trkpt><trkpt lat="39.326566" lon="16.9936613"><ele>183.0</ele><time>2026-03-28T15:51:32.2Z</time></trkpt><trkpt lat="39.326641" lon="16.9936093"><ele>183.5</ele><time>2026-03-28T15:51:33.208Z</time></trkpt><trkpt lat="39.3267169" lon="16.9935628"><ele>184.0</ele><time>2026-03-28T15:51:34.205Z</time></trkpt><trkpt lat="39.3267924" lon="16.9935137"><ele>184.5</ele><time>2026-03-28T15:51:35.201Z</time></trkpt><trkpt lat="39.3268582" lon="16.9934585"><ele>185.0</ele><time>2026-03-28T15:51:36.199Z</time></trkpt><trkpt lat="39.3269117" lon="16.9933928"><ele>185.0</ele><time>2026-03-28T15:51:37.215Z</time></trkpt><trkpt lat="39.3269513" lon="16.9933224"><ele>185.0</ele><time>2026-03-28T15:51:38.205Z</time></trkpt><trkpt lat="39.3269927" lon="16.9932136"><ele>185.0</ele><time>2026-03-28T15:51:40.202Z</time></trkpt><trkpt lat="39.3270742" lon="16.9932123"><ele>185.0</ele><time>2026-03-28T15:51:53.202Z</time></trkpt><trkpt lat="39.3271286" lon="16.9932781"><ele>185.0</ele><time>2026-03-28T15:51:55.202Z</time></trkpt><trkpt lat="39.3271958" lon="16.9933431"><ele>185.0</ele><time>2026-03-28T15:51:58.205Z</time></trkpt><trkpt lat="39.3272575" lon="16.9933684"><ele>186.0</ele><time>2026-03-28T15:52:08.206Z</time></trkpt><trkpt lat="39.3273319" lon="16.993394"><ele>187.0</ele><time>2026-03-28T15:52:16.209Z</time></trkpt><trkpt lat="39.327414" lon="16.9934184"><ele>188.0</ele><time>2026-03-28T15:52:19.198Z</time></trkpt><trkpt lat="39.3274586" lon="16.9934764"><ele>189.0</ele><time>2026-03-28T15:52:21.211Z</time></trkpt><trkpt lat="39.3274762" lon="16.9935929"><ele>190.0</ele><time>2026-03-28T15:52:23.204Z</time></trkpt><trkpt lat="39.3274844" lon="16.993675"><ele>191.0</ele><time>2026-03-28T15:52:24.215Z</time></trkpt><trkpt lat="39.3274973" lon="16.9937644"><ele>191.0</ele><time>2026-03-28T15:52:25.192Z</time></trkpt><trkpt lat="39.3275115" lon="16.9938594"><ele>191.0</ele><time>2026-03-28T15:52:26.204Z</time></trkpt><trkpt lat="39.3275268" lon="16.9939566"><ele>191.0</ele><time>2026-03-28T15:52:27.201Z</time></trkpt><trkpt lat="39.3275456" lon="16.9940544"><ele>191.0</ele><time>2026-03-28T15:52:28.204Z</time></trkpt><trkpt lat="39.3275725" lon="16.9941539"><ele>191.0</ele><time>2026-03-28T15:52:29.21Z</time></trkpt><trkpt lat="39.3276106" lon="16.9942669"><ele>191.0</ele><time>2026-03-28T15:52:30.205Z</time></trkpt><trkpt lat="39.3276619" lon="16.9944006"><ele>191.0</ele><time>2026-03-28T15:52:31.222Z</time></trkpt><trkpt lat="39.3277161" lon="16.9945404"><ele>191.0</ele><time>2026-03-28T15:52:32.207Z</time></trkpt><trkpt lat="39.3277648" lon="16.9946759"><ele>191.0</ele><time>2026-03-28T15:52:33.196Z</time></trkpt><trkpt lat="39.3277993" lon="16.9948078"><ele>191.0</ele><time>2026-03-28T15:52:34.195Z</time></trkpt><trkpt lat="39.3278203" lon="16.9949396"><ele>191.0</ele><time>2026-03-28T15:52:35.206Z</time></trkpt><trkpt lat="39.327828" lon="16.9950731"><ele>190.0</ele><time>2026-03-28T15:52:36.205Z</time></trkpt><trkpt lat="39.3278203" lon="16.9952035"><ele>189.0</ele><time>2026-03-28T15:52:37.2Z</time></trkpt><trkpt lat="39.3278022" lon="16.9953312"><ele>188.0</ele><time>2026-03-28T15:52:38.207Z</time></trkpt><trkpt lat="39.3277809" lon="16.9954598"><ele>187.0</ele><time>2026-03-28T15:52:39.207Z</time></trkpt><trkpt lat="39.3277597" lon="16.9955897"><ele>186.0</ele><time>2026-03-28T15:52:40.204Z</time></trkpt><trkpt lat="39.3277406" lon="16.99572"><ele>184.4</ele><time>2026-03-28T15:52:41.205Z</time></trkpt><trkpt lat="39.327723" lon="16.9958466"><ele>182.8</ele><time>2026-03-28T15:52:42.204Z</time></trkpt><trkpt lat="39.3277025" lon="16.9959673"><ele>181.20000000000002</ele><time>2026-03-28T15:52:43.206Z</time></trkpt><trkpt lat="39.327674" lon="16.9960784"><ele>179.60000000000002</ele><time>2026-03-28T15:52:44.201Z</time></trkpt><trkpt lat="39.3276333" lon="16.9961744"><ele>178.0</ele><time>2026-03-28T15:52:45.201Z</time></trkpt><trkpt lat="39.3275781" lon="16.9962496"><ele>178.0</ele><time>2026-03-28T15:52:46.203Z</time></trkpt><trkpt lat="39.3275064" lon="16.9962966"><ele>178.0</ele><time>2026-03-28T15:52:47.205Z</time></trkpt><trkpt lat="39.3274245" lon="16.9963227"><ele>178.0</ele><time>2026-03-28T15:52:48.21Z</time></trkpt><trkpt lat="39.3273375" lon="16.9963422"><ele>178.0</ele><time>2026-03-28T15:52:49.207Z</time></trkpt><trkpt lat="39.3272472" lon="16.9963682"><ele>178.0</ele><time>2026-03-28T15:52:50.205Z</time></trkpt><trkpt lat="39.3271504" lon="16.9963991"><ele>178.0</ele><time>2026-03-28T15:52:51.23Z</time></trkpt><trkpt lat="39.3270492" lon="16.9964314"><ele>176.8</ele><time>2026-03-28T15:52:52.201Z</time></trkpt><trkpt lat="39.326942" lon="16.9964684"><ele>175.60000000000002</ele><time>2026-03-28T15:52:53.199Z</time></trkpt><trkpt lat="39.3268308" lon="16.9965087"><ele>174.39999999999998</ele><time>2026-03-28T15:52:54.202Z</time></trkpt><trkpt lat="39.3267212" lon="16.9965495"><ele>173.2</ele><time>2026-03-28T15:52:55.2Z</time></trkpt><trkpt lat="39.3266193" lon="16.9965961"><ele>172.0</ele><time>2026-03-28T15:52:56.206Z</time></trkpt><trkpt lat="39.3265269" lon="16.9966475"><ele>169.66666666666669</ele><time>2026-03-28T15:52:57.205Z</time></trkpt><trkpt lat="39.3264416" lon="16.9966923"><ele>167.33333333333334</ele><time>2026-03-28T15:52:58.196Z</time></trkpt><trkpt lat="39.3263668" lon="16.9967336"><ele>165.0</ele><time>2026-03-28T15:52:59.197Z</time></trkpt><trkpt lat="39.3263099" lon="16.9967898"><ele>162.66666666666666</ele><time>2026-03-28T15:53:00.205Z</time></trkpt><trkpt lat="39.3262723" lon="16.9968636"><ele>160.33333333333331</ele><time>2026-03-28T15:53:01.189Z</time></trkpt><trkpt lat="39.3262493" lon="16.9969495"><ele>158.0</ele><time>2026-03-28T15:53:02.197Z</time></trkpt><trkpt lat="39.326227" lon="16.9970385"><ele>158.00000000000003</ele><time>2026-03-28T15:53:03.198Z</time></trkpt><trkpt lat="39.3261959" lon="16.997127"><ele>158.0</ele><time>2026-03-28T15:53:04.207Z</time></trkpt><trkpt lat="39.3261605" lon="16.9972133"><ele>158.0</ele><time>2026-03-28T15:53:05.209Z</time></trkpt><trkpt lat="39.3261254" lon="16.9972969"><ele>158.0</ele><time>2026-03-28T15:53:06.197Z</time></trkpt><trkpt lat="39.3260914" lon="16.9973798"><ele>158.0</ele><time>2026-03-28T15:53:07.202Z</time></trkpt><trkpt lat="39.3260574" lon="16.9974605"><ele>158.00000000000003</ele><time>2026-03-28T15:53:08.2Z</time></trkpt><trkpt lat="39.3260239" lon="16.9975348"><ele>158.0</ele><time>2026-03-28T15:53:09.201Z</time></trkpt><trkpt lat="39.32597" lon="16.9976559"><ele>157.0</ele><time>2026-03-28T15:53:11.205Z</time></trkpt><trkpt lat="39.3259285" lon="16.9977421"><ele>156.0</ele><time>2026-03-28T15:53:13.225Z</time></trkpt><trkpt lat="39.325888" lon="16.9978058"><ele>155.0</ele><time>2026-03-28T15:53:15.199Z</time></trkpt><trkpt lat="39.3258504" lon="16.9978776"><ele>154.0</ele><time>2026-03-28T15:58:11.175Z</time></trkpt><trkpt lat="39.325822" lon="16.9979554"><ele>153.0</ele><time>2026-03-28T15:58:14.176Z</time></trkpt><trkpt lat="39.3257899" lon="16.9980677"><ele>152.0</ele><time>2026-03-28T15:58:17.188Z</time></trkpt><trkpt lat="39.3257514" lon="16.9981897"><ele>148.83333333333331</ele><time>2026-03-28T15:58:19.176Z</time></trkpt><trkpt lat="39.3257035" lon="16.9983401"><ele>145.66666666666666</ele><time>2026-03-28T15:58:21.177Z</time></trkpt><trkpt lat="39.3256725" lon="16.9984308"><ele>142.5</ele><time>2026-03-28T15:58:22.174Z</time></trkpt><trkpt lat="39.3256466" lon="16.9985172"><ele>139.33333333333334</ele><time>2026-03-28T15:58:23.19Z</time></trkpt><trkpt lat="39.3256324" lon="16.9986041"><ele>136.16666666666669</ele><time>2026-03-28T15:58:24.178Z</time></trkpt><trkpt lat="39.3256357" lon="16.9986908"><ele>133.0</ele><time>2026-03-28T15:58:25.174Z</time></trkpt><trkpt lat="39.325702" lon="16.9988198"><ele>133.0</ele><time>2026-03-28T15:58:27.171Z</time></trkpt><trkpt lat="39.3257637" lon="16.998844"><ele>133.0</ele><time>2026-03-28T15:58:28.186Z</time></trkpt><trkpt lat="39.3258277" lon="16.9988345"><ele>133.0</ele><time>2026-03-28T15:58:29.175Z</time></trkpt><trkpt lat="39.3258979" lon="16.9988188"><ele>133.0</ele><time>2026-03-28T15:58:30.171Z</time></trkpt><trkpt lat="39.3259739" lon="16.9987958"><ele>133.0</ele><time>2026-03-28T15:58:31.174Z</time></trkpt><trkpt lat="39.3260523" lon="16.9987621"><ele>133.0</ele><time>2026-03-28T15:58:32.179Z</time></trkpt><trkpt lat="39.3261254" lon="16.9987063"><ele>133.0</ele><time>2026-03-28T15:58:33.186Z</time></trkpt><trkpt lat="39.3261874" lon="16.9986272"><ele>133.0</ele><time>2026-03-28T15:58:34.176Z</time></trkpt><trkpt lat="39.3262392" lon="16.9985334"><ele>133.0</ele><time>2026-03-28T15:58:35.177Z</time></trkpt><trkpt lat="39.3262817" lon="16.9984397"><ele>133.0</ele><time>2026-03-28T15:58:36.174Z</time></trkpt><trkpt lat="39.326322" lon="16.9983683"><ele>133.0</ele><time>2026-03-28T15:58:37.173Z</time></trkpt><trkpt lat="39.3263896" lon="16.9983363"><ele>133.0</ele><time>2026-03-28T15:58:39.177Z</time></trkpt><trkpt lat="39.3264194" lon="16.9984347"><ele>133.0</ele><time>2026-03-28T15:58:41.189Z</time></trkpt><trkpt lat="39.3263927" lon="16.9986116"><ele>133.0</ele><time>2026-03-28T15:58:43.173Z</time></trkpt><trkpt lat="39.3263646" lon="16.9987206"><ele>133.0</ele><time>2026-03-28T15:58:44.178Z</time></trkpt><trkpt lat="39.3263283" lon="16.998835"><ele>133.0</ele><time>2026-03-28T15:58:45.173Z</time></trkpt><trkpt lat="39.3262822" lon="16.9989497"><ele>133.0</ele><time>2026-03-28T15:58:46.189Z</time></trkpt><trkpt lat="39.3262232" lon="16.9990617"><ele>133.0</ele><time>2026-03-28T15:58:47.182Z</time></trkpt><trkpt lat="39.3261555" lon="16.999167"><ele>128.6</ele><time>2026-03-28T15:58:48.173Z</time></trkpt><trkpt lat="39.3260816" lon="16.9992618"><ele>124.20000000000002</ele><time>2026-03-28T15:58:49.187Z</time></trkpt><trkpt lat="39.3260051" lon="16.9993432"><ele>119.8</ele><time>2026-03-28T15:58:50.178Z</time></trkpt><trkpt lat="39.3259268" lon="16.999417"><ele>115.4</ele><time>2026-03-28T15:58:51.184Z</time></trkpt><trkpt lat="39.325848" lon="16.9994832"><ele>111.0</ele><time>2026-03-28T15:58:52.179Z</time></trkpt><trkpt lat="39.325767" lon="16.9995307"><ele>111.0</ele><time>2026-03-28T15:58:53.177Z</time></trkpt><trkpt lat="39.3256913" lon="16.9995688"><ele>111.0</ele><time>2026-03-28T15:58:54.182Z</time></trkpt><trkpt lat="39.3256423" lon="16.9996272"><ele>111.0</ele><time>2026-03-28T15:58:55.181Z</time></trkpt><trkpt lat="39.325643" lon="16.9997481"><ele>111.0</ele><time>2026-03-28T15:58:57.174Z</time></trkpt><trkpt lat="39.3256888" lon="16.9998065"><ele>111.0</ele><time>2026-03-28T15:58:58.181Z</time></trkpt><trkpt lat="39.3257486" lon="16.9998684"><ele>111.0</ele><time>2026-03-28T15:58:59.177Z</time></trkpt><trkpt lat="39.3258096" lon="16.9999488"><ele>111.0</ele><time>2026-03-28T15:59:00.177Z</time></trkpt><trkpt lat="39.3258588" lon="17.000051"><ele>111.0</ele><time>2026-03-28T15:59:01.184Z</time></trkpt><trkpt lat="39.3258933" lon="17.000167"><ele>111.0</ele><time>2026-03-28T15:59:02.18Z</time></trkpt><trkpt lat="39.3259108" lon="17.0002928"><ele>111.0</ele><time>2026-03-28T15:59:03.177Z</time></trkpt><trkpt lat="39.3259106" lon="17.0004271"><ele>111.0</ele><time>2026-03-28T15:59:04.192Z</time></trkpt><trkpt lat="39.3258923" lon="17.0005618"><ele>111.0</ele><time>2026-03-28T15:59:05.188Z</time></trkpt><trkpt lat="39.3258591" lon="17.0006863"><ele>111.0</ele><time>2026-03-28T15:59:06.187Z</time></trkpt><trkpt lat="39.3258119" lon="17.0007901"><ele>111.0</ele><time>2026-03-28T15:59:07.182Z</time></trkpt><trkpt lat="39.3257552" lon="17.0008688"><ele>111.0</ele><time>2026-03-28T15:59:08.178Z</time></trkpt><trkpt lat="39.325688" lon="17.0009327"><ele>111.0</ele><time>2026-03-28T15:59:09.191Z</time></trkpt><trkpt lat="39.3256195" lon="17.0010064"><ele>111.4</ele><time>2026-03-28T15:59:10.178Z</time></trkpt><trkpt lat="39.3255561" lon="17.0010873"><ele>111.8</ele><time>2026-03-28T15:59:11.177Z</time></trkpt><trkpt lat="39.3255227" lon="17.0011911"><ele>112.20000000000002</ele><time>2026-03-28T15:59:12.18Z</time></trkpt><trkpt lat="39.3255038" lon="17.0013098"><ele>112.60000000000001</ele><time>2026-03-28T15:59:13.18Z</time></trkpt><trkpt lat="39.3254903" lon="17.0014315"><ele>113.0</ele><time>2026-03-28T15:59:14.179Z</time></trkpt><trkpt lat="39.3254781" lon="17.0015502"><ele>112.66666666666666</ele><time>2026-03-28T15:59:15.178Z</time></trkpt><trkpt lat="39.3254719" lon="17.0016689"><ele>112.33333333333333</ele><time>2026-03-28T15:59:16.182Z</time></trkpt><trkpt lat="39.3254774" lon="17.0017857"><ele>112.0</ele><time>2026-03-28T15:59:17.181Z</time></trkpt><trkpt lat="39.3254933" lon="17.0018968"><ele>111.66666666666666</ele><time>2026-03-28T15:59:18.173Z</time></trkpt><trkpt lat="39.3255128" lon="17.0019975"><ele>111.33333333333333</ele><time>2026-03-28T15:59:19.194Z</time></trkpt><trkpt lat="39.325532" lon="17.0020783"><ele>111.0</ele><time>2026-03-28T15:59:20.176Z</time></trkpt><trkpt lat="39.3255527" lon="17.002174"><ele>111.0</ele><time>2026-03-28T15:59:22.183Z</time></trkpt><trkpt lat="39.3255589" lon="17.0022831"><ele>111.0</ele><time>2026-03-28T15:59:28.177Z</time></trkpt><trkpt lat="39.3255715" lon="17.0024025"><ele>111.0</ele><time>2026-03-28T15:59:30.178Z</time></trkpt><trkpt lat="39.3255822" lon="17.0025467"><ele>111.0</ele><time>2026-03-28T15:59:32.191Z</time></trkpt><trkpt lat="39.3255714" lon="17.0027067"><ele>111.0</ele><time>2026-03-28T15:59:34.175Z</time></trkpt><trkpt lat="39.3255645" lon="17.0028099"><ele>111.16666666666667</ele><time>2026-03-28T15:59:35.178Z</time></trkpt><trkpt lat="39.3255507" lon="17.0029076"><ele>111.33333333333334</ele><time>2026-03-28T15:59:36.178Z</time></trkpt><trkpt lat="39.3255228" lon="17.0029922"><ele>111.5</ele><time>2026-03-28T15:59:37.176Z</time></trkpt><trkpt lat="39.3254732" lon="17.0031069"><ele>111.66666666666667</ele><time>2026-03-28T15:59:39.185Z</time></trkpt><trkpt lat="39.3254395" lon="17.0031897"><ele>111.83333333333334</ele><time>2026-03-28T15:59:43.174Z</time></trkpt><trkpt lat="39.3254094" lon="17.0032619"><ele>112.0</ele><time>2026-03-28T15:59:54.18Z</time></trkpt><trkpt lat="39.3253759" lon="17.0033404"><ele>112.00000000000001</ele><time>2026-03-28T16:00:09.199Z</time></trkpt><trkpt lat="39.3253569" lon="17.0034337"><ele>112.0</ele><time>2026-03-28T16:00:12.195Z</time></trkpt><trkpt lat="39.3253283" lon="17.0035281"><ele>112.0</ele><time>2026-03-28T16:00:25.196Z</time></trkpt><trkpt lat="39.3252684" lon="17.003579"><ele>112.0</ele><time>2026-03-28T16:00:29.195Z</time></trkpt><trkpt lat="39.3252211" lon="17.0036701"><ele>112.00000000000001</ele><time>2026-03-28T16:00:33.198Z</time></trkpt><trkpt lat="39.325181" lon="17.0037611"><ele>112.0</ele><time>2026-03-28T16:00:36.208Z</time></trkpt><trkpt lat="39.3251617" lon="17.0038674"><ele>112.00000000000001</ele><time>2026-03-28T16:00:39.202Z</time></trkpt><trkpt lat="39.3251485" lon="17.0039518"><ele>112.0</ele><time>2026-03-28T16:00:42.199Z</time></trkpt><trkpt lat="39.3251567" lon="17.0040522"><ele>112.0</ele><time>2026-03-28T16:00:45.198Z</time></trkpt><trkpt lat="39.3251582" lon="17.0041548"><ele>112.0</ele><time>2026-03-28T16:00:47.205Z</time></trkpt><trkpt lat="39.3251621" lon="17.00426"><ele>112.00000000000001</ele><time>2026-03-28T16:00:49.205Z</time></trkpt><trkpt lat="39.3251814" lon="17.0043821"><ele>112.0</ele><time>2026-03-28T16:00:51.204Z</time></trkpt><trkpt lat="39.3251808" lon="17.0044844"><ele>111.0</ele><time>2026-03-28T16:00:53.195Z</time></trkpt><trkpt lat="39.3251745" lon="17.0046082"><ele>109.99999999999999</ele><time>2026-03-28T16:00:55.201Z</time></trkpt><trkpt lat="39.3251752" lon="17.0047519"><ele>108.99999999999999</ele><time>2026-03-28T16:00:57.198Z</time></trkpt><trkpt lat="39.3251703" lon="17.0049006"><ele>108.0</ele><time>2026-03-28T16:00:59.197Z</time></trkpt><trkpt lat="39.3251627" lon="17.005051"><ele>107.0</ele><time>2026-03-28T16:01:01.206Z</time></trkpt><trkpt lat="39.3251431" lon="17.0052022"><ele>106.83333333333333</ele><time>2026-03-28T16:01:03.198Z</time></trkpt><trkpt lat="39.3251462" lon="17.005323"><ele>106.66666666666666</ele><time>2026-03-28T16:01:05.217Z</time></trkpt><trkpt lat="39.3251646" lon="17.005401"><ele>106.5</ele><time>2026-03-28T16:01:07.192Z</time></trkpt><trkpt lat="39.3251772" lon="17.0054858"><ele>106.33333333333334</ele><time>2026-03-28T16:01:09.197Z</time></trkpt><trkpt lat="39.3251685" lon="17.0056059"><ele>106.16666666666667</ele><time>2026-03-28T16:01:11.202Z</time></trkpt><trkpt lat="39.3251621" lon="17.0057448"><ele>106.0</ele><time>2026-03-28T16:01:13.208Z</time></trkpt><trkpt lat="39.3251615" lon="17.0058896"><ele>105.50000000000001</ele><time>2026-03-28T16:01:15.205Z</time></trkpt><trkpt lat="39.325159" lon="17.0060237"><ele>105.0</ele><time>2026-03-28T16:01:17.201Z</time></trkpt><trkpt lat="39.3251362" lon="17.0061287"><ele>104.5</ele><time>2026-03-28T16:01:19.199Z</time></trkpt><trkpt lat="39.3250955" lon="17.0062071"><ele>104.0</ele><time>2026-03-28T16:01:21.197Z</time></trkpt><trkpt lat="39.3250865" lon="17.0063169"><ele>103.50000000000001</ele><time>2026-03-28T16:01:23.2Z</time></trkpt><trkpt lat="39.3250893" lon="17.006432"><ele>103.0</ele><time>2026-03-28T16:01:25.195Z</time></trkpt><trkpt lat="39.3250902" lon="17.0065261"><ele>103.00000000000001</ele><time>2026-03-28T16:01:27.199Z</time></trkpt><trkpt lat="39.3250974" lon="17.0066337"><ele>103.0</ele><time>2026-03-28T16:01:30.197Z</time></trkpt><trkpt lat="39.3251259" lon="17.0067385"><ele>103.0</ele><time>2026-03-28T16:01:33.193Z</time></trkpt><trkpt lat="39.3251467" lon="17.0068168"><ele>103.0</ele><time>2026-03-28T16:01:35.202Z</time></trkpt><trkpt lat="39.3251636" lon="17.0069062"><ele>103.00000000000001</ele><time>2026-03-28T16:01:37.201Z</time></trkpt><trkpt lat="39.3252154" lon="17.0070077"><ele>103.0</ele><time>2026-03-28T16:01:40.198Z</time></trkpt><trkpt lat="39.3252634" lon="17.007073"><ele>103.4</ele><time>2026-03-28T16:01:42.201Z</time></trkpt><trkpt lat="39.325326" lon="17.0071344"><ele>103.80000000000001</ele><time>2026-03-28T16:01:44.203Z</time></trkpt><trkpt lat="39.3254117" lon="17.007177"><ele>104.2</ele><time>2026-03-28T16:01:46.199Z</time></trkpt><trkpt lat="39.3255034" lon="17.007173"><ele>104.6</ele><time>2026-03-28T16:01:48.215Z</time></trkpt><trkpt lat="39.3255953" lon="17.0071696"><ele>105.0</ele><time>2026-03-28T16:01:50.178Z</time></trkpt><trkpt lat="39.3257135" lon="17.0071585"><ele>103.66666666666667</ele><time>2026-03-28T16:01:52.204Z</time></trkpt><trkpt lat="39.3258367" lon="17.0071542"><ele>102.33333333333334</ele><time>2026-03-28T16:01:54.199Z</time></trkpt><trkpt lat="39.3259017" lon="17.0071557"><ele>101.0</ele><time>2026-03-28T16:01:55.199Z</time></trkpt><trkpt lat="39.3259694" lon="17.0071649"><ele>99.66666666666667</ele><time>2026-03-28T16:01:56.201Z</time></trkpt><trkpt lat="39.3260356" lon="17.0071834"><ele>98.33333333333334</ele><time>2026-03-28T16:01:57.2Z</time></trkpt><trkpt lat="39.3260993" lon="17.0072108"><ele>97.0</ele><time>2026-03-28T16:01:58.196Z</time></trkpt><trkpt lat="39.3261624" lon="17.0072443"><ele>97.00000000000001</ele><time>2026-03-28T16:01:59.22Z</time></trkpt><trkpt lat="39.3262237" lon="17.007283"><ele>97.0</ele><time>2026-03-28T16:02:00.201Z</time></trkpt><trkpt lat="39.326282" lon="17.0073282"><ele>97.0</ele><time>2026-03-28T16:02:01.197Z</time></trkpt><trkpt lat="39.3263348" lon="17.0073788"><ele>97.0</ele><time>2026-03-28T16:02:02.195Z</time></trkpt><trkpt lat="39.3263867" lon="17.0074293"><ele>97.00000000000001</ele><time>2026-03-28T16:02:03.198Z</time></trkpt><trkpt lat="39.3264349" lon="17.0074838"><ele>97.0</ele><time>2026-03-28T16:02:04.202Z</time></trkpt><trkpt lat="39.3265016" lon="17.0076159"><ele>96.5</ele><time>2026-03-28T16:02:06.194Z</time></trkpt><trkpt lat="39.3265507" lon="17.0077496"><ele>96.0</ele><time>2026-03-28T16:02:08.198Z</time></trkpt><trkpt lat="39.3265965" lon="17.0079019"><ele>95.5</ele><time>2026-03-28T16:02:10.211Z</time></trkpt><trkpt lat="39.3266277" lon="17.0080496"><ele>95.0</ele><time>2026-03-28T16:02:12.201Z</time></trkpt><trkpt lat="39.3266213" lon="17.00818"><ele>95.0</ele><time>2026-03-28T16:02:14.209Z</time></trkpt><trkpt lat="39.3265699" lon="17.0082821"><ele>95.0</ele><time>2026-03-28T16:02:16.203Z</time></trkpt><trkpt lat="39.3265058" lon="17.0083963"><ele>95.0</ele><time>2026-03-28T16:02:18.21Z</time></trkpt><trkpt lat="39.3264499" lon="17.0085043"><ele>95.0</ele><time>2026-03-28T16:02:20.198Z</time></trkpt><trkpt lat="39.3264255" lon="17.0085899"><ele>95.0</ele><time>2026-03-28T16:02:22.194Z</time></trkpt><trkpt lat="39.3264208" lon="17.0087202"><ele>94.6</ele><time>2026-03-28T16:02:25.197Z</time></trkpt><trkpt lat="39.3264253" lon="17.008847"><ele>94.2</ele><time>2026-03-28T16:02:27.207Z</time></trkpt><trkpt lat="39.3264698" lon="17.0089784"><ele>93.80000000000001</ele><time>2026-03-28T16:02:29.198Z</time></trkpt><trkpt lat="39.3265465" lon="17.0090933"><ele>93.4</ele><time>2026-03-28T16:02:31.209Z</time></trkpt><trkpt lat="39.3266321" lon="17.0091627"><ele>93.0</ele><time>2026-03-28T16:02:33.203Z</time></trkpt><trkpt lat="39.3267191" lon="17.0092333"><ele>92.5</ele><time>2026-03-28T16:02:35.204Z</time></trkpt><trkpt lat="39.3268306" lon="17.0092934"><ele>92.0</ele><time>2026-03-28T16:02:37.197Z</time></trkpt><trkpt lat="39.3269011" lon="17.009306"><ele>91.5</ele><time>2026-03-28T16:02:38.203Z</time></trkpt><trkpt lat="39.3269676" lon="17.0093174"><ele>91.0</ele><time>2026-03-28T16:02:39.2Z</time></trkpt><trkpt lat="39.3270569" lon="17.0093552"><ele>90.5</ele><time>2026-03-28T16:02:41.212Z</time></trkpt><trkpt lat="39.3271101" lon="17.0094098"><ele>90.0</ele><time>2026-03-28T16:02:44.205Z</time></trkpt><trkpt lat="39.3271763" lon="17.0094769"><ele>90.8</ele><time>2026-03-28T16:02:46.197Z</time></trkpt><trkpt lat="39.3272396" lon="17.009533"><ele>91.6</ele><time>2026-03-28T16:02:48.21Z</time></trkpt><trkpt lat="39.3273081" lon="17.0095686"><ele>92.4</ele><time>2026-03-28T16:02:50.198Z</time></trkpt><trkpt lat="39.3273995" lon="17.0095864"><ele>93.2</ele><time>2026-03-28T16:02:52.194Z</time></trkpt><trkpt lat="39.3274916" lon="17.0096447"><ele>94.0</ele><time>2026-03-28T16:02:54.185Z</time></trkpt><trkpt lat="39.3275636" lon="17.0097609"><ele>94.0</ele><time>2026-03-28T16:02:56.199Z</time></trkpt><trkpt lat="39.3275404" lon="17.0099069"><ele>94.0</ele><time>2026-03-28T16:02:58.208Z</time></trkpt><trkpt lat="39.3274887" lon="17.0100401"><ele>94.0</ele><time>2026-03-28T16:03:00.196Z</time></trkpt><trkpt lat="39.3274612" lon="17.0101737"><ele>94.0</ele><time>2026-03-28T16:03:02.198Z</time></trkpt><trkpt lat="39.3274326" lon="17.0102746"><ele>94.0</ele><time>2026-03-28T16:03:04.204Z</time></trkpt><trkpt lat="39.3273867" lon="17.0103577"><ele>93.33333333333333</ele><time>2026-03-28T16:03:06.212Z</time></trkpt><trkpt lat="39.3273541" lon="17.0104498"><ele>92.66666666666666</ele><time>2026-03-28T16:03:08.2Z</time></trkpt><trkpt lat="39.3273136" lon="17.010546"><ele>92.0</ele><time>2026-03-28T16:03:10.194Z</time></trkpt><trkpt lat="39.3272784" lon="17.0106613"><ele>91.33333333333333</ele><time>2026-03-28T16:03:12.195Z</time></trkpt><trkpt lat="39.3273082" lon="17.0107847"><ele>90.66666666666667</ele><time>2026-03-28T16:03:14.21Z</time></trkpt><trkpt lat="39.3273689" lon="17.010848"><ele>90.0</ele><time>2026-03-28T16:03:16.194Z</time></trkpt><trkpt lat="39.3274342" lon="17.010883"><ele>90.0</ele><time>2026-03-28T16:03:18.196Z</time></trkpt><trkpt lat="39.3275046" lon="17.0109479"><ele>90.0</ele><time>2026-03-28T16:03:20.2Z</time></trkpt><trkpt lat="39.3275912" lon="17.0110192"><ele>90.0</ele><time>2026-03-28T16:03:22.197Z</time></trkpt><trkpt lat="39.3277041" lon="17.011113"><ele>90.0</ele><time>2026-03-28T16:03:24.197Z</time></trkpt><trkpt lat="39.3277697" lon="17.0111662"><ele>90.0</ele><time>2026-03-28T16:03:25.208Z</time></trkpt><trkpt lat="39.3278385" lon="17.0112207"><ele>90.0</ele><time>2026-03-28T16:03:26.205Z</time></trkpt><trkpt lat="39.3279038" lon="17.0112706"><ele>90.0</ele><time>2026-03-28T16:03:27.2Z</time></trkpt><trkpt lat="39.3279564" lon="17.0113173"><ele>90.0</ele><time>2026-03-28T16:03:28.199Z</time></trkpt><trkpt lat="39.3280248" lon="17.0113961"><ele>90.0</ele><time>2026-03-28T16:03:30.214Z</time></trkpt><trkpt lat="39.328071" lon="17.011471"><ele>90.0</ele><time>2026-03-28T16:03:32.193Z</time></trkpt><trkpt lat="39.3280932" lon="17.0115812"><ele>90.0</ele><time>2026-03-28T16:03:34.203Z</time></trkpt><trkpt lat="39.3280585" lon="17.0116537"><ele>91.0</ele><time>2026-03-28T16:03:36.204Z</time></trkpt><trkpt lat="39.3279868" lon="17.0116998"><ele>92.0</ele><time>2026-03-28T16:03:38.198Z</time></trkpt><trkpt lat="39.3279048" lon="17.0117534"><ele>93.0</ele><time>2026-03-28T16:03:40.189Z</time></trkpt><trkpt lat="39.3278157" lon="17.011817"><ele>94.0</ele><time>2026-03-28T16:03:42.2Z</time></trkpt><trkpt lat="39.3277318" lon="17.0118955"><ele>95.0</ele><time>2026-03-28T16:03:44.195Z</time></trkpt><trkpt lat="39.3277072" lon="17.0119829"><ele>96.0</ele><time>2026-03-28T16:03:46.199Z</time></trkpt><trkpt lat="39.3276964" lon="17.0120837"><ele>96.0</ele><time>2026-03-28T16:03:48.197Z</time></trkpt><trkpt lat="39.3276814" lon="17.0122163"><ele>96.0</ele><time>2026-03-28T16:03:50.193Z</time></trkpt><trkpt lat="39.3276853" lon="17.0123549"><ele>96.0</ele><time>2026-03-28T16:03:52.196Z</time></trkpt><trkpt lat="39.3277134" lon="17.0124898"><ele>96.0</ele><time>2026-03-28T16:03:54.198Z</time></trkpt><trkpt lat="39.3277522" lon="17.0126263"><ele>96.0</ele><time>2026-03-28T16:03:56.2Z</time></trkpt><trkpt lat="39.3278126" lon="17.012731"><ele>95.6</ele><time>2026-03-28T16:03:58.197Z</time></trkpt><trkpt lat="39.3278775" lon="17.0128028"><ele>95.19999999999999</ele><time>2026-03-28T16:04:00.196Z</time></trkpt><trkpt lat="39.3279483" lon="17.0128276"><ele>94.80000000000001</ele><time>2026-03-28T16:04:02.195Z</time></trkpt><trkpt lat="39.3280475" lon="17.0128066"><ele>94.4</ele><time>2026-03-28T16:04:04.182Z</time></trkpt><trkpt lat="39.3281594" lon="17.0127546"><ele>94.0</ele><time>2026-03-28T16:04:06.216Z</time></trkpt><trkpt lat="39.3282787" lon="17.0127136"><ele>92.5</ele><time>2026-03-28T16:04:08.198Z</time></trkpt><trkpt lat="39.3284014" lon="17.0127031"><ele>91.0</ele><time>2026-03-28T16:04:10.196Z</time></trkpt><trkpt lat="39.3285209" lon="17.0126853"><ele>89.5</ele><time>2026-03-28T16:04:13.194Z</time></trkpt><trkpt lat="39.3286163" lon="17.0127002"><ele>88.0</ele><time>2026-03-28T16:04:15.197Z</time></trkpt><trkpt lat="39.3287266" lon="17.0127184"><ele>88.0</ele><time>2026-03-28T16:04:17.204Z</time></trkpt><trkpt lat="39.328844" lon="17.0127552"><ele>88.0</ele><time>2026-03-28T16:04:19.201Z</time></trkpt><trkpt lat="39.3289085" lon="17.0127785"><ele>88.0</ele><time>2026-03-28T16:04:20.203Z</time></trkpt><trkpt lat="39.3289764" lon="17.0128036"><ele>88.0</ele><time>2026-03-28T16:04:21.195Z</time></trkpt><trkpt lat="39.3290359" lon="17.0128342"><ele>88.0</ele><time>2026-03-28T16:04:22.204Z</time></trkpt><trkpt lat="39.3291196" lon="17.0129198"><ele>88.0</ele><time>2026-03-28T16:04:24.213Z</time></trkpt><trkpt lat="39.3291173" lon="17.0130016"><ele>88.0</ele><time>2026-03-28T16:04:26.197Z</time></trkpt><trkpt lat="39.3290537" lon="17.0130981"><ele>88.0</ele><time>2026-03-28T16:04:29.196Z</time></trkpt><trkpt lat="39.3289865" lon="17.0132108"><ele>88.0</ele><time>2026-03-28T16:04:31.196Z</time></trkpt><trkpt lat="39.3289345" lon="17.0133541"><ele>88.0</ele><time>2026-03-28T16:04:33.204Z</time></trkpt><trkpt lat="39.3289082" lon="17.013505"><ele>88.0</ele><time>2026-03-28T16:04:35.215Z</time></trkpt><trkpt lat="39.3289028" lon="17.0136226"><ele>88.0</ele><time>2026-03-28T16:04:37.196Z</time></trkpt><trkpt lat="39.3289202" lon="17.013752"><ele>88.0</ele><time>2026-03-28T16:04:39.196Z</time></trkpt><trkpt lat="39.3289617" lon="17.0138987"><ele>88.0</ele><time>2026-03-28T16:04:41.196Z</time></trkpt><trkpt lat="39.3289878" lon="17.0140095"><ele>88.0</ele><time>2026-03-28T16:04:43.195Z</time></trkpt><trkpt lat="39.3289926" lon="17.014114"><ele>88.0</ele><time>2026-03-28T16:04:45.201Z</time></trkpt><trkpt lat="39.3290227" lon="17.0142203"><ele>88.0</ele><time>2026-03-28T16:04:47.2Z</time></trkpt><trkpt lat="39.3290544" lon="17.0143399"><ele>88.0</ele><time>2026-03-28T16:04:49.206Z</time></trkpt><trkpt lat="39.3290573" lon="17.0144659"><ele>88.0</ele><time>2026-03-28T16:04:51.199Z</time></trkpt><trkpt lat="39.3290678" lon="17.0145944"><ele>88.0</ele><time>2026-03-28T16:04:53.195Z</time></trkpt><trkpt lat="39.3290803" lon="17.0147336"><ele>88.0</ele><time>2026-03-28T16:04:55.2Z</time></trkpt><trkpt lat="39.3290895" lon="17.0148428"><ele>88.0</ele><time>2026-03-28T16:04:57.205Z</time></trkpt><trkpt lat="39.3290907" lon="17.0149539"><ele>88.0</ele><time>2026-03-28T16:04:59.196Z</time></trkpt><trkpt lat="39.3290893" lon="17.0150775"><ele>88.0</ele><time>2026-03-28T16:05:01.198Z</time></trkpt><trkpt lat="39.3290939" lon="17.0152148"><ele>88.0</ele><time>2026-03-28T16:05:03.201Z</time></trkpt><trkpt lat="39.3291031" lon="17.0153447"><ele>86.80000000000001</ele><time>2026-03-28T16:05:05.21Z</time></trkpt><trkpt lat="39.3291219" lon="17.0154606"><ele>85.6</ele><time>2026-03-28T16:05:07.193Z</time></trkpt><trkpt lat="39.3291351" lon="17.0155807"><ele>84.4</ele><time>2026-03-28T16:05:09.206Z</time></trkpt><trkpt lat="39.3291417" lon="17.0156986"><ele>83.19999999999999</ele><time>2026-03-28T16:05:11.189Z</time></trkpt><trkpt lat="39.329157" lon="17.0158405"><ele>82.0</ele><time>2026-03-28T16:05:13.179Z</time></trkpt><trkpt lat="39.3291878" lon="17.015973"><ele>81.83333333333333</ele><time>2026-03-28T16:05:15.171Z</time></trkpt><trkpt lat="39.3292235" lon="17.0161024"><ele>81.66666666666666</ele><time>2026-03-28T16:05:17.183Z</time></trkpt><trkpt lat="39.3292466" lon="17.0162178"><ele>81.5</ele><time>2026-03-28T16:05:19.186Z</time></trkpt><trkpt lat="39.3292796" lon="17.0163385"><ele>81.33333333333333</ele><time>2026-03-28T16:05:21.212Z</time></trkpt><trkpt lat="39.3293062" lon="17.0164171"><ele>81.16666666666667</ele><time>2026-03-28T16:05:22.189Z</time></trkpt><trkpt lat="39.3293501" lon="17.0165062"><ele>81.0</ele><time>2026-03-28T16:05:23.202Z</time></trkpt><trkpt lat="39.3294057" lon="17.0166066"><ele>81.4</ele><time>2026-03-28T16:05:24.218Z</time></trkpt><trkpt lat="39.3294699" lon="17.0167169"><ele>81.8</ele><time>2026-03-28T16:05:25.215Z</time></trkpt><trkpt lat="39.3295348" lon="17.0168294"><ele>82.2</ele><time>2026-03-28T16:05:26.202Z</time></trkpt><trkpt lat="39.3295958" lon="17.0169312"><ele>82.60000000000001</ele><time>2026-03-28T16:05:27.2Z</time></trkpt><trkpt lat="39.3296477" lon="17.0170133"><ele>83.0</ele><time>2026-03-28T16:05:28.213Z</time></trkpt><trkpt lat="39.3296955" lon="17.0170762"><ele>82.42857142857143</ele><time>2026-03-28T16:05:29.202Z</time></trkpt><trkpt lat="39.3297495" lon="17.0171282"><ele>81.85714285714286</ele><time>2026-03-28T16:05:30.205Z</time></trkpt><trkpt lat="39.3298062" lon="17.0171776"><ele>81.28571428571429</ele><time>2026-03-28T16:05:31.201Z</time></trkpt><trkpt lat="39.3298644" lon="17.0172218"><ele>80.71428571428572</ele><time>2026-03-28T16:05:32.212Z</time></trkpt><trkpt lat="39.3299235" lon="17.0172673"><ele>80.14285714285714</ele><time>2026-03-28T16:05:33.196Z</time></trkpt><trkpt lat="39.3299828" lon="17.0173243"><ele>79.57142857142858</ele><time>2026-03-28T16:05:34.195Z</time></trkpt><trkpt lat="39.3300318" lon="17.0173897"><ele>79.0</ele><time>2026-03-28T16:05:35.204Z</time></trkpt><trkpt lat="39.3300908" lon="17.0175168"><ele>79.0</ele><time>2026-03-28T16:05:37.2Z</time></trkpt><trkpt lat="39.3301486" lon="17.0176425"><ele>79.0</ele><time>2026-03-28T16:05:39.203Z</time></trkpt><trkpt lat="39.3302117" lon="17.0177804"><ele>79.0</ele><time>2026-03-28T16:05:41.211Z</time></trkpt><trkpt lat="39.3302707" lon="17.0179162"><ele>79.0</ele><time>2026-03-28T16:05:43.197Z</time></trkpt><trkpt lat="39.3302835" lon="17.0180426"><ele>79.0</ele><time>2026-03-28T16:05:45.18Z</time></trkpt><trkpt lat="39.3302994" lon="17.0181688"><ele>79.0</ele><time>2026-03-28T16:05:47.198Z</time></trkpt><trkpt lat="39.3303252" lon="17.0183121"><ele>79.0</ele><time>2026-03-28T16:05:49.198Z</time></trkpt><trkpt lat="39.3303193" lon="17.0184614"><ele>79.0</ele><time>2026-03-28T16:05:51.202Z</time></trkpt><trkpt lat="39.3303" lon="17.018627"><ele>78.83333333333333</ele><time>2026-03-28T16:05:53.197Z</time></trkpt><trkpt lat="39.3302902" lon="17.0187153"><ele>78.66666666666666</ele><time>2026-03-28T16:05:54.202Z</time></trkpt><trkpt lat="39.3302708" lon="17.0187949"><ele>78.5</ele><time>2026-03-28T16:05:55.2Z</time></trkpt><trkpt lat="39.3302349" lon="17.0189325"><ele>78.33333333333333</ele><time>2026-03-28T16:05:57.196Z</time></trkpt><trkpt lat="39.3302107" lon="17.0190403"><ele>78.16666666666667</ele><time>2026-03-28T16:05:59.2Z</time></trkpt><trkpt lat="39.3301563" lon="17.0191425"><ele>78.0</ele><time>2026-03-28T16:06:01.205Z</time></trkpt><trkpt lat="39.3300738" lon="17.0192472"><ele>77.0</ele><time>2026-03-28T16:06:03.195Z</time></trkpt><trkpt lat="39.3300013" lon="17.0193732"><ele>76.0</ele><time>2026-03-28T16:06:05.197Z</time></trkpt><trkpt lat="39.329935" lon="17.0195045"><ele>75.0</ele><time>2026-03-28T16:06:07.203Z</time></trkpt><trkpt lat="39.329898" lon="17.0195879"><ele>74.0</ele><time>2026-03-28T16:06:08.204Z</time></trkpt><trkpt lat="39.3298603" lon="17.0196763"><ele>73.0</ele><time>2026-03-28T16:06:09.217Z</time></trkpt><trkpt lat="39.3298228" lon="17.0197622"><ele>73.0</ele><time>2026-03-28T16:06:10.205Z</time></trkpt><trkpt lat="39.3297829" lon="17.0198505"><ele>73.0</ele><time>2026-03-28T16:06:11.207Z</time></trkpt><trkpt lat="39.329744" lon="17.0199437"><ele>73.0</ele><time>2026-03-28T16:06:12.204Z</time></trkpt><trkpt lat="39.3297095" lon="17.0200425"><ele>73.0</ele><time>2026-03-28T16:06:13.204Z</time></trkpt><trkpt lat="39.3296801" lon="17.0201361"><ele>73.0</ele><time>2026-03-28T16:06:14.199Z</time></trkpt><trkpt lat="39.3296501" lon="17.0202176"><ele>73.0</ele><time>2026-03-28T16:06:15.197Z</time></trkpt><trkpt lat="39.329623" lon="17.0202913"><ele>72.75</ele><time>2026-03-28T16:06:16.203Z</time></trkpt><trkpt lat="39.3295928" lon="17.0204466"><ele>72.5</ele><time>2026-03-28T16:06:18.198Z</time></trkpt><trkpt lat="39.3296233" lon="17.0205877"><ele>72.25</ele><time>2026-03-28T16:06:20.189Z</time></trkpt><trkpt lat="39.329693" lon="17.0206919"><ele>72.0</ele><time>2026-03-28T16:06:22.2Z</time></trkpt><trkpt lat="39.329773" lon="17.0208182"><ele>72.00000000000001</ele><time>2026-03-28T16:06:24.212Z</time></trkpt><trkpt lat="39.3298288" lon="17.0208898"><ele>72.0</ele><time>2026-03-28T16:06:25.209Z</time></trkpt><trkpt lat="39.3298843" lon="17.0209546"><ele>72.0</ele><time>2026-03-28T16:06:26.192Z</time></trkpt><trkpt lat="39.3299255" lon="17.0210171"><ele>72.0</ele><time>2026-03-28T16:06:27.197Z</time></trkpt><trkpt lat="39.3299469" lon="17.0210956"><ele>72.0</ele><time>2026-03-28T16:06:28.204Z</time></trkpt><trkpt lat="39.3299483" lon="17.0211918"><ele>72.00000000000001</ele><time>2026-03-28T16:06:29.207Z</time></trkpt><trkpt lat="39.3299451" lon="17.0212946"><ele>72.0</ele><time>2026-03-28T16:06:30.2Z</time></trkpt><trkpt lat="39.3299413" lon="17.0213923"><ele>72.0</ele><time>2026-03-28T16:06:31.204Z</time></trkpt><trkpt lat="39.3299503" lon="17.0214896"><ele>72.0</ele><time>2026-03-28T16:06:32.212Z</time></trkpt><trkpt lat="39.3299644" lon="17.0215984"><ele>72.0</ele><time>2026-03-28T16:06:33.211Z</time></trkpt><trkpt lat="39.3299701" lon="17.0217146"><ele>72.0</ele><time>2026-03-28T16:06:34.22Z</time></trkpt><trkpt lat="39.3299643" lon="17.0218368"><ele>72.0</ele><time>2026-03-28T16:06:35.197Z</time></trkpt><trkpt lat="39.3299534" lon="17.0219641"><ele>72.0</ele><time>2026-03-28T16:06:36.217Z</time></trkpt><trkpt lat="39.3299456" lon="17.0220742"><ele>71.6</ele><time>2026-03-28T16:06:37.208Z</time></trkpt><trkpt lat="39.3299406" lon="17.0221649"><ele>71.2</ele><time>2026-03-28T16:06:38.205Z</time></trkpt><trkpt lat="39.3299823" lon="17.0222968"><ele>70.8</ele><time>2026-03-28T16:06:40.211Z</time></trkpt><trkpt lat="39.330037" lon="17.0224095"><ele>70.4</ele><time>2026-03-28T16:06:42.205Z</time></trkpt><trkpt lat="39.3301542" lon="17.0224872"><ele>70.0</ele><time>2026-03-28T16:06:44.195Z</time></trkpt><trkpt lat="39.3302324" lon="17.0225223"><ele>70.16666666666666</ele><time>2026-03-28T16:06:45.191Z</time></trkpt><trkpt lat="39.3303115" lon="17.0225735"><ele>70.33333333333333</ele><time>2026-03-28T16:06:46.188Z</time></trkpt><trkpt lat="39.3303877" lon="17.0226334"><ele>70.5</ele><time>2026-03-28T16:06:47.202Z</time></trkpt><trkpt lat="39.330463" lon="17.0226907"><ele>70.66666666666667</ele><time>2026-03-28T16:06:48.201Z</time></trkpt><trkpt lat="39.3305382" lon="17.0227542"><ele>70.83333333333334</ele><time>2026-03-28T16:06:49.191Z</time></trkpt><trkpt lat="39.3306101" lon="17.0228327"><ele>71.0</ele><time>2026-03-28T16:06:50.202Z</time></trkpt><trkpt lat="39.3306836" lon="17.0229125"><ele>71.0</ele><time>2026-03-28T16:06:51.197Z</time></trkpt><trkpt lat="39.3307646" lon="17.0229901"><ele>71.0</ele><time>2026-03-28T16:06:52.208Z</time></trkpt><trkpt lat="39.3308469" lon="17.0230753"><ele>71.0</ele><time>2026-03-28T16:06:53.21Z</time></trkpt><trkpt lat="39.3309302" lon="17.0231638"><ele>71.0</ele><time>2026-03-28T16:06:54.198Z</time></trkpt><trkpt lat="39.3310201" lon="17.0232538"><ele>71.0</ele><time>2026-03-28T16:06:55.2Z</time></trkpt><trkpt lat="39.3311152" lon="17.0233334"><ele>70.2</ele><time>2026-03-28T16:06:56.207Z</time></trkpt><trkpt lat="39.3312164" lon="17.0234025"><ele>69.39999999999999</ele><time>2026-03-28T16:06:57.192Z</time></trkpt><trkpt lat="39.3313168" lon="17.0234684"><ele>68.6</ele><time>2026-03-28T16:06:58.197Z</time></trkpt><trkpt lat="39.3314156" lon="17.0235322"><ele>67.8</ele><time>2026-03-28T16:06:59.199Z</time></trkpt><trkpt lat="39.3315124" lon="17.0235953"><ele>67.0</ele><time>2026-03-28T16:07:00.209Z</time></trkpt><trkpt lat="39.3316016" lon="17.0236602"><ele>68.83333333333333</ele><time>2026-03-28T16:07:01.195Z</time></trkpt><trkpt lat="39.3316798" lon="17.023728"><ele>70.66666666666666</ele><time>2026-03-28T16:07:02.197Z</time></trkpt><trkpt lat="39.3317504" lon="17.0237933"><ele>72.5</ele><time>2026-03-28T16:07:03.206Z</time></trkpt><trkpt lat="39.331819" lon="17.0238524"><ele>74.33333333333333</ele><time>2026-03-28T16:07:04.199Z</time></trkpt><trkpt lat="39.3318865" lon="17.0239057"><ele>76.16666666666667</ele><time>2026-03-28T16:07:05.205Z</time></trkpt><trkpt lat="39.3319298" lon="17.0239691"><ele>78.0</ele><time>2026-03-28T16:07:06.198Z</time></trkpt><trkpt lat="39.3319558" lon="17.0240936"><ele>76.85714285714286</ele><time>2026-03-28T16:07:08.2Z</time></trkpt><trkpt lat="39.3319547" lon="17.0242237"><ele>75.71428571428571</ele><time>2026-03-28T16:07:10.2Z</time></trkpt><trkpt lat="39.3319379" lon="17.024307"><ele>74.57142857142857</ele><time>2026-03-28T16:07:11.19Z</time></trkpt><trkpt lat="39.3319039" lon="17.0243802"><ele>73.42857142857143</ele><time>2026-03-28T16:07:12.204Z</time></trkpt><trkpt lat="39.3318585" lon="17.0244499"><ele>72.28571428571428</ele><time>2026-03-28T16:07:13.202Z</time></trkpt><trkpt lat="39.3317992" lon="17.0245048"><ele>71.14285714285714</ele><time>2026-03-28T16:07:14.204Z</time></trkpt><trkpt lat="39.3317389" lon="17.0245491"><ele>70.0</ele><time>2026-03-28T16:07:15.193Z</time></trkpt><trkpt lat="39.3316737" lon="17.0245927"><ele>70.0</ele><time>2026-03-28T16:07:16.201Z</time></trkpt><trkpt lat="39.3316115" lon="17.0246346"><ele>70.0</ele><time>2026-03-28T16:07:17.193Z</time></trkpt><trkpt lat="39.3314986" lon="17.0246889"><ele>70.0</ele><time>2026-03-28T16:07:19.194Z</time></trkpt><trkpt lat="39.3313841" lon="17.0247274"><ele>70.0</ele><time>2026-03-28T16:07:21.202Z</time></trkpt><trkpt lat="39.3312716" lon="17.0247675"><ele>70.0</ele><time>2026-03-28T16:07:23.203Z</time></trkpt><trkpt lat="39.3311724" lon="17.0248266"><ele>69.0</ele><time>2026-03-28T16:07:25.184Z</time></trkpt><trkpt lat="39.331058" lon="17.0249006"><ele>68.0</ele><time>2026-03-28T16:07:27.193Z</time></trkpt><trkpt lat="39.3310026" lon="17.0249452"><ele>67.0</ele><time>2026-03-28T16:07:28.193Z</time></trkpt><trkpt lat="39.3309123" lon="17.0250304"><ele>66.0</ele><time>2026-03-28T16:07:30.196Z</time></trkpt><trkpt lat="39.3308874" lon="17.0251204"><ele>65.0</ele><time>2026-03-28T16:07:32.197Z</time></trkpt><trkpt lat="39.330903" lon="17.0252384"><ele>64.83333333333334</ele><time>2026-03-28T16:07:35.193Z</time></trkpt><trkpt lat="39.3309057" lon="17.0253206"><ele>64.66666666666667</ele><time>2026-03-28T16:07:37.183Z</time></trkpt><trkpt lat="39.330866" lon="17.0254309"><ele>64.5</ele><time>2026-03-28T16:07:40.197Z</time></trkpt><trkpt lat="39.330887" lon="17.0255218"><ele>64.33333333333333</ele><time>2026-03-28T16:07:42.196Z</time></trkpt><trkpt lat="39.3309431" lon="17.025611"><ele>64.16666666666666</ele><time>2026-03-28T16:07:44.201Z</time></trkpt><trkpt lat="39.3310143" lon="17.0256697"><ele>64.0</ele><time>2026-03-28T16:07:46.192Z</time></trkpt><trkpt lat="39.3310832" lon="17.0257139"><ele>63.99999999999999</ele><time>2026-03-28T16:07:48.224Z</time></trkpt><trkpt lat="39.3311437" lon="17.0257637"><ele>64.0</ele><time>2026-03-28T16:07:50.194Z</time></trkpt><trkpt lat="39.3311796" lon="17.0258463"><ele>64.0</ele><time>2026-03-28T16:07:52.192Z</time></trkpt><trkpt lat="39.3312092" lon="17.0259604"><ele>64.0</ele><time>2026-03-28T16:07:54.203Z</time></trkpt><trkpt lat="39.3312283" lon="17.0260754"><ele>63.99999999999999</ele><time>2026-03-28T16:07:56.208Z</time></trkpt><trkpt lat="39.3312372" lon="17.0261872"><ele>64.0</ele><time>2026-03-28T16:07:58.2Z</time></trkpt><trkpt lat="39.331233" lon="17.0263334"><ele>63.400000000000006</ele><time>2026-03-28T16:08:00.198Z</time></trkpt><trkpt lat="39.331232" lon="17.0264888"><ele>62.800000000000004</ele><time>2026-03-28T16:08:02.198Z</time></trkpt><trkpt lat="39.3312173" lon="17.0266224"><ele>62.199999999999996</ele><time>2026-03-28T16:08:04.204Z</time></trkpt><trkpt lat="39.3312085" lon="17.026744"><ele>61.599999999999994</ele><time>2026-03-28T16:08:06.203Z</time></trkpt><trkpt lat="39.3311868" lon="17.0268925"><ele>61.0</ele><time>2026-03-28T16:08:08.202Z</time></trkpt><trkpt lat="39.3311748" lon="17.0269737"><ele>60.99999999999999</ele><time>2026-03-28T16:08:09.211Z</time></trkpt><trkpt lat="39.3311619" lon="17.0270568"><ele>61.0</ele><time>2026-03-28T16:08:10.201Z</time></trkpt><trkpt lat="39.3311493" lon="17.0271434"><ele>61.0</ele><time>2026-03-28T16:08:11.202Z</time></trkpt><trkpt lat="39.3311435" lon="17.0272322"><ele>61.0</ele><time>2026-03-28T16:08:12.199Z</time></trkpt><trkpt lat="39.3311495" lon="17.0273203"><ele>60.99999999999999</ele><time>2026-03-28T16:08:13.192Z</time></trkpt><trkpt lat="39.3311821" lon="17.0274716"><ele>61.0</ele><time>2026-03-28T16:08:15.205Z</time></trkpt><trkpt lat="39.3312009" lon="17.0275502"><ele>60.99999999999999</ele><time>2026-03-28T16:08:16.21Z</time></trkpt><trkpt lat="39.3312237" lon="17.0276349"><ele>61.0</ele><time>2026-03-28T16:08:17.215Z</time></trkpt><trkpt lat="39.331267" lon="17.0277138"><ele>61.0</ele><time>2026-03-28T16:08:18.191Z</time></trkpt><trkpt lat="39.3313348" lon="17.0277888"><ele>61.0</ele><time>2026-03-28T16:08:19.203Z</time></trkpt><trkpt lat="39.3314059" lon="17.0278481"><ele>60.99999999999999</ele><time>2026-03-28T16:08:20.201Z</time></trkpt><trkpt lat="39.3314754" lon="17.0278797"><ele>61.0</ele><time>2026-03-28T16:08:21.198Z</time></trkpt><trkpt lat="39.3315436" lon="17.0279017"><ele>60.99999999999999</ele><time>2026-03-28T16:08:22.203Z</time></trkpt><trkpt lat="39.331617" lon="17.0279346"><ele>61.0</ele><time>2026-03-28T16:08:23.205Z</time></trkpt><trkpt lat="39.3316849" lon="17.027971"><ele>60.99999999999999</ele><time>2026-03-28T16:08:24.207Z</time></trkpt><trkpt lat="39.3317416" lon="17.0280078"><ele>60.99999999999999</ele><time>2026-03-28T16:08:25.212Z</time></trkpt><trkpt lat="39.3317996" lon="17.0280573"><ele>61.0</ele><time>2026-03-28T16:08:27.198Z</time></trkpt><trkpt lat="39.331855" lon="17.0281214"><ele>60.99999999999999</ele><time>2026-03-28T16:08:31.202Z</time></trkpt><trkpt lat="39.3319011" lon="17.0281992"><ele>60.99999999999999</ele><time>2026-03-28T16:08:33.209Z</time></trkpt><trkpt lat="39.3319622" lon="17.0282719"><ele>60.49999999999999</ele><time>2026-03-28T16:08:35.221Z</time></trkpt><trkpt lat="39.3320381" lon="17.0283395"><ele>60.0</ele><time>2026-03-28T16:08:37.195Z</time></trkpt><trkpt lat="39.3321176" lon="17.0284175"><ele>59.5</ele><time>2026-03-28T16:08:39.199Z</time></trkpt><trkpt lat="39.3321904" lon="17.0285186"><ele>59.0</ele><time>2026-03-28T16:08:41.195Z</time></trkpt><trkpt lat="39.3322251" lon="17.0285904"><ele>58.49999999999999</ele><time>2026-03-28T16:08:42.196Z</time></trkpt><trkpt lat="39.3322401" lon="17.0286907"><ele>58.0</ele><time>2026-03-28T16:08:43.194Z</time></trkpt><trkpt lat="39.3322384" lon="17.0288102"><ele>58.666666666666664</ele><time>2026-03-28T16:08:44.187Z</time></trkpt><trkpt lat="39.3322339" lon="17.0289329"><ele>59.33333333333333</ele><time>2026-03-28T16:08:45.203Z</time></trkpt><trkpt lat="39.3322441" lon="17.0290355"><ele>60.0</ele><time>2026-03-28T16:08:46.205Z</time></trkpt><trkpt lat="39.3322718" lon="17.029114"><ele>60.66666666666667</ele><time>2026-03-28T16:08:47.214Z</time></trkpt><trkpt lat="39.3323036" lon="17.0291896"><ele>61.333333333333336</ele><time>2026-03-28T16:08:48.198Z</time></trkpt><trkpt lat="39.3323342" lon="17.0292818"><ele>62.0</ele><time>2026-03-28T16:08:49.212Z</time></trkpt><trkpt lat="39.3323612" lon="17.0293851"><ele>62.00000000000001</ele><time>2026-03-28T16:08:50.215Z</time></trkpt><trkpt lat="39.3323829" lon="17.029494"><ele>62.0</ele><time>2026-03-28T16:08:51.199Z</time></trkpt><trkpt lat="39.3324093" lon="17.0295996"><ele>62.0</ele><time>2026-03-28T16:08:52.206Z</time></trkpt><trkpt lat="39.3324425" lon="17.0296914"><ele>62.0</ele><time>2026-03-28T16:08:53.198Z</time></trkpt><trkpt lat="39.332476" lon="17.0297732"><ele>62.00000000000001</ele><time>2026-03-28T16:08:54.202Z</time></trkpt><trkpt lat="39.3325374" lon="17.0298982"><ele>62.0</ele><time>2026-03-28T16:08:56.202Z</time></trkpt><trkpt lat="39.3325879" lon="17.0299584"><ele>62.00000000000001</ele><time>2026-03-28T16:08:58.199Z</time></trkpt><trkpt lat="39.3326511" lon="17.0299756"><ele>62.0</ele><time>2026-03-28T16:09:01.201Z</time></trkpt><trkpt lat="39.3327226" lon="17.0299698"><ele>62.0</ele><time>2026-03-28T16:09:05.197Z</time></trkpt><trkpt lat="39.3328145" lon="17.0300402"><ele>62.0</ele><time>2026-03-28T16:09:08.2Z</time></trkpt><trkpt lat="39.3328491" lon="17.0301321"><ele>62.00000000000001</ele><time>2026-03-28T16:09:09.217Z</time></trkpt><trkpt lat="39.332894" lon="17.0302236"><ele>62.0</ele><time>2026-03-28T16:09:10.206Z</time></trkpt><trkpt lat="39.3329489" lon="17.0303077"><ele>60.8</ele><time>2026-03-28T16:09:11.198Z</time></trkpt><trkpt lat="39.3330048" lon="17.0303905"><ele>59.6</ele><time>2026-03-28T16:09:12.203Z</time></trkpt><trkpt lat="39.3330604" lon="17.0304812"><ele>58.39999999999999</ele><time>2026-03-28T16:09:13.22Z</time></trkpt><trkpt lat="39.3331205" lon="17.0305812"><ele>57.199999999999996</ele><time>2026-03-28T16:09:14.217Z</time></trkpt><trkpt lat="39.3331942" lon="17.0306642"><ele>56.0</ele><time>2026-03-28T16:09:15.197Z</time></trkpt><trkpt lat="39.3332747" lon="17.0307175"><ele>55.833333333333336</ele><time>2026-03-28T16:09:16.205Z</time></trkpt><trkpt lat="39.3333452" lon="17.0307562"><ele>55.66666666666667</ele><time>2026-03-28T16:09:17.201Z</time></trkpt><trkpt lat="39.3334472" lon="17.0308175"><ele>55.5</ele><time>2026-03-28T16:09:19.197Z</time></trkpt><trkpt lat="39.3335344" lon="17.0308587"><ele>55.33333333333333</ele><time>2026-03-28T16:09:21.212Z</time></trkpt><trkpt lat="39.3336096" lon="17.0308871"><ele>55.166666666666664</ele><time>2026-03-28T16:09:23.212Z</time></trkpt><trkpt lat="39.3336771" lon="17.0309253"><ele>55.0</ele><time>2026-03-28T16:09:25.199Z</time></trkpt><trkpt lat="39.3337481" lon="17.0309689"><ele>54.71428571428571</ele><time>2026-03-28T16:09:28.208Z</time></trkpt><trkpt lat="39.333824" lon="17.0310143"><ele>54.42857142857143</ele><time>2026-03-28T16:09:31.204Z</time></trkpt><trkpt lat="39.3339003" lon="17.0310623"><ele>54.14285714285714</ele><time>2026-03-28T16:09:34.197Z</time></trkpt><trkpt lat="39.3339598" lon="17.0311059"><ele>53.857142857142854</ele><time>2026-03-28T16:09:36.204Z</time></trkpt><trkpt lat="39.3340185" lon="17.0311371"><ele>53.57142857142857</ele><time>2026-03-28T16:09:38.204Z</time></trkpt><trkpt lat="39.3340832" lon="17.0311672"><ele>53.285714285714285</ele><time>2026-03-28T16:09:40.199Z</time></trkpt><trkpt lat="39.3341466" lon="17.0312093"><ele>53.0</ele><time>2026-03-28T16:09:42.2Z</time></trkpt><trkpt lat="39.3342231" lon="17.0312816"><ele>53.00000000000001</ele><time>2026-03-28T16:09:44.2Z</time></trkpt><trkpt lat="39.3342845" lon="17.031386"><ele>53.0</ele><time>2026-03-28T16:09:46.203Z</time></trkpt><trkpt lat="39.3343453" lon="17.031462"><ele>53.0</ele><time>2026-03-28T16:09:48.206Z</time></trkpt><trkpt lat="39.3344085" lon="17.0315081"><ele>53.0</ele><time>2026-03-28T16:09:50.201Z</time></trkpt><trkpt lat="39.3344782" lon="17.0315769"><ele>53.00000000000001</ele><time>2026-03-28T16:09:52.2Z</time></trkpt><trkpt lat="39.3345367" lon="17.0316767"><ele>53.0</ele><time>2026-03-28T16:09:54.19Z</time></trkpt><trkpt lat="39.3345886" lon="17.0317881"><ele>52.599999999999994</ele><time>2026-03-28T16:09:56.21Z</time></trkpt><trkpt lat="39.3346479" lon="17.0318909"><ele>52.199999999999996</ele><time>2026-03-28T16:09:58.202Z</time></trkpt><trkpt lat="39.3347103" lon="17.0319777"><ele>51.8</ele><time>2026-03-28T16:10:00.198Z</time></trkpt><trkpt lat="39.3347527" lon="17.0320719"><ele>51.4</ele><time>2026-03-28T16:10:02.204Z</time></trkpt><trkpt lat="39.3348018" lon="17.0321855"><ele>51.0</ele><time>2026-03-28T16:10:04.203Z</time></trkpt><trkpt lat="39.3348563" lon="17.0323121"><ele>51.0</ele><time>2026-03-28T16:10:06.214Z</time></trkpt><trkpt lat="39.3349273" lon="17.0324269"><ele>51.0</ele><time>2026-03-28T16:10:08.2Z</time></trkpt><trkpt lat="39.3350363" lon="17.032529"><ele>51.0</ele><time>2026-03-28T16:10:10.214Z</time></trkpt><trkpt lat="39.3350995" lon="17.0325733"><ele>51.0</ele><time>2026-03-28T16:10:11.201Z</time></trkpt><trkpt lat="39.3352178" lon="17.0326224"><ele>51.0</ele><time>2026-03-28T16:10:13.205Z</time></trkpt><trkpt lat="39.3352905" lon="17.0326335"><ele>51.0</ele><time>2026-03-28T16:10:14.199Z</time></trkpt><trkpt lat="39.3353698" lon="17.0326951"><ele>51.0</ele><time>2026-03-28T16:10:15.204Z</time></trkpt><trkpt lat="39.3354641" lon="17.0327566"><ele>51.0</ele><time>2026-03-28T16:10:16.198Z</time></trkpt><trkpt lat="39.3355528" lon="17.0328164"><ele>51.0</ele><time>2026-03-28T16:10:17.207Z</time></trkpt><trkpt lat="39.3356214" lon="17.0328664"><ele>51.0</ele><time>2026-03-28T16:10:18.196Z</time></trkpt><trkpt lat="39.3356769" lon="17.0329089"><ele>51.0</ele><time>2026-03-28T16:10:19.215Z</time></trkpt><trkpt lat="39.3357731" lon="17.0329703"><ele>51.0</ele><time>2026-03-28T16:10:21.202Z</time></trkpt><trkpt lat="39.3358671" lon="17.0330441"><ele>51.0</ele><time>2026-03-28T16:10:23.201Z</time></trkpt><trkpt lat="39.3359293" lon="17.0331706"><ele>51.0</ele><time>2026-03-28T16:10:25.2Z</time></trkpt><trkpt lat="39.3359718" lon="17.0333168"><ele>51.0</ele><time>2026-03-28T16:10:27.205Z</time></trkpt><trkpt lat="39.3359704" lon="17.0334096"><ele>51.0</ele><time>2026-03-28T16:10:28.204Z</time></trkpt><trkpt lat="39.3359637" lon="17.0334922"><ele>50.666666666666664</ele><time>2026-03-28T16:10:29.203Z</time></trkpt><trkpt lat="39.335974" lon="17.0335899"><ele>50.33333333333333</ele><time>2026-03-28T16:10:31.207Z</time></trkpt><trkpt lat="39.3359794" lon="17.0337046"><ele>50.0</ele><time>2026-03-28T16:10:34.205Z</time></trkpt><trkpt lat="39.3359824" lon="17.0337892"><ele>49.666666666666664</ele><time>2026-03-28T16:10:36.202Z</time></trkpt><trkpt lat="39.3359846" lon="17.033884"><ele>49.33333333333333</ele><time>2026-03-28T16:10:39.202Z</time></trkpt><trkpt lat="39.3360036" lon="17.0339776"><ele>49.0</ele><time>2026-03-28T16:10:44.202Z</time></trkpt><trkpt lat="39.3359801" lon="17.0340761"><ele>48.83333333333333</ele><time>2026-03-28T16:10:47.203Z</time></trkpt><trkpt lat="39.3359211" lon="17.0341656"><ele>48.666666666666664</ele><time>2026-03-28T16:10:50.206Z</time></trkpt><trkpt lat="39.3358711" lon="17.0342195"><ele>48.5</ele><time>2026-03-28T16:10:52.204Z</time></trkpt><trkpt lat="39.3358193" lon="17.0342937"><ele>48.33333333333333</ele><time>2026-03-28T16:10:55.202Z</time></trkpt><trkpt lat="39.3357983" lon="17.0343872"><ele>48.166666666666664</ele><time>2026-03-28T16:10:58.207Z</time></trkpt><trkpt lat="39.3357909" lon="17.034517"><ele>48.0</ele><time>2026-03-28T16:11:00.203Z</time></trkpt><trkpt lat="39.3358122" lon="17.0346075"><ele>48.0</ele><time>2026-03-28T16:11:01.196Z</time></trkpt><trkpt lat="39.3358455" lon="17.0347066"><ele>48.0</ele><time>2026-03-28T16:11:02.213Z</time></trkpt><trkpt lat="39.3358767" lon="17.0348085"><ele>48.0</ele><time>2026-03-28T16:11:03.204Z</time></trkpt><trkpt lat="39.3358857" lon="17.0349176"><ele>48.0</ele><time>2026-03-28T16:11:04.21Z</time></trkpt><trkpt lat="39.3358861" lon="17.0350329"><ele>48.0</ele><time>2026-03-28T16:11:05.191Z</time></trkpt><trkpt lat="39.3358881" lon="17.0351614"><ele>48.0</ele><time>2026-03-28T16:11:06.219Z</time></trkpt><trkpt lat="39.3358843" lon="17.0352998"><ele>48.333333333333336</ele><time>2026-03-28T16:11:07.209Z</time></trkpt><trkpt lat="39.3358784" lon="17.03543"><ele>48.66666666666667</ele><time>2026-03-28T16:11:08.205Z</time></trkpt><trkpt lat="39.3358739" lon="17.0355444"><ele>49.0</ele><time>2026-03-28T16:11:09.206Z</time></trkpt><trkpt lat="39.3358716" lon="17.0356476"><ele>49.333333333333336</ele><time>2026-03-28T16:11:10.2Z</time></trkpt><trkpt lat="39.3358694" lon="17.0357387"><ele>49.66666666666667</ele><time>2026-03-28T16:11:11.203Z</time></trkpt><trkpt lat="39.3358691" lon="17.035879"><ele>50.0</ele><time>2026-03-28T16:11:13.204Z</time></trkpt><trkpt lat="39.335865" lon="17.0359613"><ele>50.00000000000001</ele><time>2026-03-28T16:11:15.197Z</time></trkpt><trkpt lat="39.335854" lon="17.0360541"><ele>50.0</ele><time>2026-03-28T16:11:18.219Z</time></trkpt><trkpt lat="39.335842" lon="17.0361514"><ele>50.0</ele><time>2026-03-28T16:11:20.195Z</time></trkpt><trkpt lat="39.3358231" lon="17.0362758"><ele>50.0</ele><time>2026-03-28T16:11:22.179Z</time></trkpt><trkpt lat="39.3357929" lon="17.0364188"><ele>50.00000000000001</ele><time>2026-03-28T16:11:24.19Z</time></trkpt><trkpt lat="39.3357878" lon="17.036501"><ele>50.0</ele><time>2026-03-28T16:11:25.202Z</time></trkpt><trkpt lat="39.3357811" lon="17.0366453"><ele>49.6</ele><time>2026-03-28T16:11:27.212Z</time></trkpt><trkpt lat="39.3357581" lon="17.0367724"><ele>49.2</ele><time>2026-03-28T16:11:29.206Z</time></trkpt><trkpt lat="39.3357444" lon="17.0369181"><ele>48.8</ele><time>2026-03-28T16:11:31.187Z</time></trkpt><trkpt lat="39.3357575" lon="17.0370226"><ele>48.4</ele><time>2026-03-28T16:11:32.201Z</time></trkpt><trkpt lat="39.3357731" lon="17.0371256"><ele>48.0</ele><time>2026-03-28T16:11:33.197Z</time></trkpt><trkpt lat="39.3357845" lon="17.0372205"><ele>47.99999999999999</ele><time>2026-03-28T16:11:34.21Z</time></trkpt><trkpt lat="39.3357951" lon="17.0373125"><ele>48.0</ele><time>2026-03-28T16:11:35.21Z</time></trkpt><trkpt lat="39.3358061" lon="17.0374049"><ele>48.0</ele><time>2026-03-28T16:11:36.208Z</time></trkpt><trkpt lat="39.3358095" lon="17.0375011"><ele>48.0</ele><time>2026-03-28T16:11:37.199Z</time></trkpt><trkpt lat="39.3358076" lon="17.0375972"><ele>48.0</ele><time>2026-03-28T16:11:38.2Z</time></trkpt><trkpt lat="39.3358076" lon="17.0376914"><ele>47.99999999999999</ele><time>2026-03-28T16:11:39.205Z</time></trkpt><trkpt lat="39.3358114" lon="17.037779"><ele>48.0</ele><time>2026-03-28T16:11:40.199Z</time></trkpt><trkpt lat="39.3358231" lon="17.0379215"><ele>47.8</ele><time>2026-03-28T16:11:42.216Z</time></trkpt><trkpt lat="39.3358504" lon="17.0380869"><ele>47.599999999999994</ele><time>2026-03-28T16:11:44.205Z</time></trkpt><trkpt lat="39.3358706" lon="17.0381873"><ele>47.400000000000006</ele><time>2026-03-28T16:11:45.2Z</time></trkpt><trkpt lat="39.3358863" lon="17.0383013"><ele>47.2</ele><time>2026-03-28T16:11:46.206Z</time></trkpt><trkpt lat="39.3359062" lon="17.0384114"><ele>47.0</ele><time>2026-03-28T16:11:47.212Z</time></trkpt><trkpt lat="39.3359137" lon="17.0385235"><ele>46.83333333333333</ele><time>2026-03-28T16:11:48.194Z</time></trkpt><trkpt lat="39.3359221" lon="17.0386456"><ele>46.666666666666664</ele><time>2026-03-28T16:11:49.213Z</time></trkpt><trkpt lat="39.3359091" lon="17.0387656"><ele>46.5</ele><time>2026-03-28T16:11:50.198Z</time></trkpt><trkpt lat="39.3358902" lon="17.0388718"><ele>46.333333333333336</ele><time>2026-03-28T16:11:51.203Z</time></trkpt><trkpt lat="39.3358726" lon="17.0389732"><ele>46.16666666666667</ele><time>2026-03-28T16:11:52.192Z</time></trkpt><trkpt lat="39.3358603" lon="17.0390845"><ele>46.0</ele><time>2026-03-28T16:11:53.201Z</time></trkpt><trkpt lat="39.3358493" lon="17.0392084"><ele>46.0</ele><time>2026-03-28T16:11:54.207Z</time></trkpt><trkpt lat="39.3358343" lon="17.039336"><ele>46.0</ele><time>2026-03-28T16:11:55.188Z</time></trkpt><trkpt lat="39.3358176" lon="17.0394693"><ele>46.0</ele><time>2026-03-28T16:11:56.201Z</time></trkpt><trkpt lat="39.3357998" lon="17.039605"><ele>46.0</ele><time>2026-03-28T16:11:57.201Z</time></trkpt><trkpt lat="39.335789" lon="17.0397436"><ele>46.0</ele><time>2026-03-28T16:11:58.201Z</time></trkpt><trkpt lat="39.3357787" lon="17.0398755"><ele>45.833333333333336</ele><time>2026-03-28T16:11:59.216Z</time></trkpt><trkpt lat="39.3357642" lon="17.0399968"><ele>45.66666666666667</ele><time>2026-03-28T16:12:00.202Z</time></trkpt><trkpt lat="39.3357547" lon="17.0401027"><ele>45.5</ele><time>2026-03-28T16:12:01.207Z</time></trkpt><trkpt lat="39.3357489" lon="17.040195"><ele>45.333333333333336</ele><time>2026-03-28T16:12:02.204Z</time></trkpt><trkpt lat="39.3357458" lon="17.0402798"><ele>45.166666666666664</ele><time>2026-03-28T16:12:03.205Z</time></trkpt><trkpt lat="39.3357413" lon="17.0403711"><ele>45.0</ele><time>2026-03-28T16:12:04.207Z</time></trkpt><trkpt lat="39.3357033" lon="17.0404776"><ele>45.0</ele><time>2026-03-28T16:12:05.204Z</time></trkpt><trkpt lat="39.3356468" lon="17.0405908"><ele>45.0</ele><time>2026-03-28T16:12:06.207Z</time></trkpt><trkpt lat="39.3355972" lon="17.0407054"><ele>45.0</ele><time>2026-03-28T16:12:07.2Z</time></trkpt><trkpt lat="39.3355574" lon="17.0408175"><ele>45.0</ele><time>2026-03-28T16:12:08.201Z</time></trkpt><trkpt lat="39.3355281" lon="17.0409349"><ele>45.0</ele><time>2026-03-28T16:12:09.205Z</time></trkpt><trkpt lat="39.3355152" lon="17.0410523"><ele>45.6</ele><time>2026-03-28T16:12:10.202Z</time></trkpt><trkpt lat="39.3355243" lon="17.0411576"><ele>46.2</ele><time>2026-03-28T16:12:11.206Z</time></trkpt><trkpt lat="39.3355692" lon="17.041258"><ele>46.8</ele><time>2026-03-28T16:12:12.199Z</time></trkpt><trkpt lat="39.3356396" lon="17.0413334"><ele>47.4</ele><time>2026-03-28T16:12:13.201Z</time></trkpt><trkpt lat="39.3357299" lon="17.0413823"><ele>48.0</ele><time>2026-03-28T16:12:14.198Z</time></trkpt><trkpt lat="39.3358238" lon="17.0414181"><ele>46.5</ele><time>2026-03-28T16:12:15.202Z</time></trkpt><trkpt lat="39.3360251" lon="17.041456"><ele>45.0</ele><time>2026-03-28T16:12:17.21Z</time></trkpt><trkpt lat="39.3361304" lon="17.0414542"><ele>43.5</ele><time>2026-03-28T16:12:18.207Z</time></trkpt><trkpt lat="39.3362322" lon="17.0414512"><ele>42.0</ele><time>2026-03-28T16:12:19.203Z</time></trkpt><trkpt lat="39.336327" lon="17.0414505"><ele>42.0</ele><time>2026-03-28T16:12:20.202Z</time></trkpt><trkpt lat="39.3364128" lon="17.041434"><ele>42.0</ele><time>2026-03-28T16:12:21.21Z</time></trkpt><trkpt lat="39.3364891" lon="17.0414209"><ele>42.0</ele><time>2026-03-28T16:12:22.205Z</time></trkpt><trkpt lat="39.3365942" lon="17.0414399"><ele>42.0</ele><time>2026-03-28T16:12:24.21Z</time></trkpt><trkpt lat="39.3366469" lon="17.041491"><ele>42.0</ele><time>2026-03-28T16:12:26.201Z</time></trkpt><trkpt lat="39.3366885" lon="17.0415625"><ele>42.0</ele><time>2026-03-28T16:12:29.21Z</time></trkpt><trkpt lat="39.3367172" lon="17.0416364"><ele>42.0</ele><time>2026-03-28T16:12:32.198Z</time></trkpt><trkpt lat="39.3367443" lon="17.0417435"><ele>42.0</ele><time>2026-03-28T16:12:35.216Z</time></trkpt><trkpt lat="39.3367659" lon="17.0418431"><ele>42.0</ele><time>2026-03-28T16:12:37.19Z</time></trkpt><trkpt lat="39.336791" lon="17.0419632"><ele>42.0</ele><time>2026-03-28T16:12:39.199Z</time></trkpt><trkpt lat="39.336801" lon="17.042102"><ele>42.0</ele><time>2026-03-28T16:12:41.205Z</time></trkpt><trkpt lat="39.3368078" lon="17.0422012"><ele>42.0</ele><time>2026-03-28T16:12:43.21Z</time></trkpt><trkpt lat="39.3368216" lon="17.0422946"><ele>42.0</ele><time>2026-03-28T16:12:45.204Z</time></trkpt><trkpt lat="39.336844" lon="17.0424186"><ele>42.0</ele><time>2026-03-28T16:12:47.219Z</time></trkpt><trkpt lat="39.3368502" lon="17.0425733"><ele>42.0</ele><time>2026-03-28T16:12:49.198Z</time></trkpt><trkpt lat="39.3368517" lon="17.0426671"><ele>42.0</ele><time>2026-03-28T16:12:50.198Z</time></trkpt><trkpt lat="39.3368569" lon="17.0427671"><ele>42.0</ele><time>2026-03-28T16:12:51.202Z</time></trkpt><trkpt lat="39.3368704" lon="17.042868"><ele>42.0</ele><time>2026-03-28T16:12:52.201Z</time></trkpt><trkpt lat="39.3368987" lon="17.0429677"><ele>42.0</ele><time>2026-03-28T16:12:53.206Z</time></trkpt><trkpt lat="39.3369332" lon="17.0430697"><ele>42.0</ele><time>2026-03-28T16:12:54.203Z</time></trkpt><trkpt lat="39.3369652" lon="17.0431795"><ele>42.0</ele><time>2026-03-28T16:12:55.211Z</time></trkpt><trkpt lat="39.3369944" lon="17.0432969"><ele>42.0</ele><time>2026-03-28T16:12:56.206Z</time></trkpt><trkpt lat="39.3370043" lon="17.0434123"><ele>42.0</ele><time>2026-03-28T16:12:57.199Z</time></trkpt><trkpt lat="39.3369888" lon="17.0435159"><ele>42.0</ele><time>2026-03-28T16:12:58.2Z</time></trkpt><trkpt lat="39.3369704" lon="17.0436051"><ele>42.0</ele><time>2026-03-28T16:12:59.198Z</time></trkpt><trkpt lat="39.336938" lon="17.04374"><ele>42.0</ele><time>2026-03-28T16:13:01.185Z</time></trkpt><trkpt lat="39.3369105" lon="17.0438472"><ele>42.0</ele><time>2026-03-28T16:13:04.209Z</time></trkpt><trkpt lat="39.3368979" lon="17.0439608"><ele>42.0</ele><time>2026-03-28T16:13:07.204Z</time></trkpt><trkpt lat="39.3368955" lon="17.0440913"><ele>42.0</ele><time>2026-03-28T16:13:10.222Z</time></trkpt><trkpt lat="39.3368987" lon="17.0441987"><ele>42.0</ele><time>2026-03-28T16:13:12.198Z</time></trkpt><trkpt lat="39.3369095" lon="17.0443258"><ele>42.0</ele><time>2026-03-28T16:13:14.204Z</time></trkpt><trkpt lat="39.3369196" lon="17.0444111"><ele>42.0</ele><time>2026-03-28T16:13:15.2Z</time></trkpt><trkpt lat="39.3369354" lon="17.0445034"><ele>42.0</ele><time>2026-03-28T16:13:16.201Z</time></trkpt><trkpt lat="39.3369577" lon="17.0445959"><ele>42.0</ele><time>2026-03-28T16:13:17.211Z</time></trkpt><trkpt lat="39.3369844" lon="17.0446915"><ele>42.0</ele><time>2026-03-28T16:13:18.215Z</time></trkpt><trkpt lat="39.337011" lon="17.0447913"><ele>42.0</ele><time>2026-03-28T16:13:19.202Z</time></trkpt><trkpt lat="39.3370316" lon="17.0448934"><ele>42.0</ele><time>2026-03-28T16:13:20.2Z</time></trkpt><trkpt lat="39.3370497" lon="17.0449958"><ele>42.0</ele><time>2026-03-28T16:13:21.202Z</time></trkpt><trkpt lat="39.3370684" lon="17.0450982"><ele>42.0</ele><time>2026-03-28T16:13:22.198Z</time></trkpt><trkpt lat="39.3370793" lon="17.0451955"><ele>42.0</ele><time>2026-03-28T16:13:23.19Z</time></trkpt><trkpt lat="39.3370752" lon="17.0453228"><ele>42.0</ele><time>2026-03-28T16:13:25.213Z</time></trkpt><trkpt lat="39.3370679" lon="17.0454236"><ele>42.0</ele><time>2026-03-28T16:13:28.198Z</time></trkpt><trkpt lat="39.3370667" lon="17.0455512"><ele>42.0</ele><time>2026-03-28T16:13:30.2Z</time></trkpt><trkpt lat="39.3370676" lon="17.0456331"><ele>42.0</ele><time>2026-03-28T16:13:31.201Z</time></trkpt><trkpt lat="39.3370689" lon="17.0457215"><ele>42.0</ele><time>2026-03-28T16:13:32.208Z</time></trkpt><trkpt lat="39.3370792" lon="17.0458157"><ele>42.0</ele><time>2026-03-28T16:13:33.211Z</time></trkpt><trkpt lat="39.3371029" lon="17.0459248"><ele>42.0</ele><time>2026-03-28T16:13:34.205Z</time></trkpt><trkpt lat="39.3371268" lon="17.0460475"><ele>42.2</ele><time>2026-03-28T16:13:35.202Z</time></trkpt><trkpt lat="39.3371537" lon="17.0461712"><ele>42.400000000000006</ele><time>2026-03-28T16:13:36.202Z</time></trkpt><trkpt lat="39.3371788" lon="17.0463002"><ele>42.599999999999994</ele><time>2026-03-28T16:13:37.211Z</time></trkpt><trkpt lat="39.3372037" lon="17.0464294"><ele>42.8</ele><time>2026-03-28T16:13:38.198Z</time></trkpt><trkpt lat="39.337226" lon="17.0465566"><ele>43.0</ele><time>2026-03-28T16:13:39.205Z</time></trkpt><trkpt lat="39.3372241" lon="17.0466895"><ele>43.0</ele><time>2026-03-28T16:13:40.208Z</time></trkpt><trkpt lat="39.3372111" lon="17.0468331"><ele>43.0</ele><time>2026-03-28T16:13:41.203Z</time></trkpt><trkpt lat="39.3371947" lon="17.0469848"><ele>43.0</ele><time>2026-03-28T16:13:42.204Z</time></trkpt><trkpt lat="39.3371753" lon="17.0471258"><ele>43.0</ele><time>2026-03-28T16:13:43.201Z</time></trkpt><trkpt lat="39.3371609" lon="17.0472587"><ele>43.0</ele><time>2026-03-28T16:13:44.221Z</time></trkpt><trkpt lat="39.3371458" lon="17.0473671"><ele>43.0</ele><time>2026-03-28T16:13:45.196Z</time></trkpt><trkpt lat="39.3370702" lon="17.0474404"><ele>43.0</ele><time>2026-03-28T16:13:47.212Z</time></trkpt><trkpt lat="39.3369676" lon="17.047484"><ele>43.0</ele><time>2026-03-28T16:13:49.2Z</time></trkpt><trkpt lat="39.3369218" lon="17.047544"><ele>43.0</ele><time>2026-03-28T16:13:50.206Z</time></trkpt><trkpt lat="39.3368765" lon="17.0476574"><ele>43.0</ele><time>2026-03-28T16:13:52.203Z</time></trkpt><trkpt lat="39.3368453" lon="17.0477553"><ele>43.0</ele><time>2026-03-28T16:13:55.199Z</time></trkpt><trkpt lat="39.3368326" lon="17.0478372"><ele>42.833333333333336</ele><time>2026-03-28T16:13:57.219Z</time></trkpt><trkpt lat="39.3368432" lon="17.0479269"><ele>42.66666666666667</ele><time>2026-03-28T16:13:59.195Z</time></trkpt><trkpt lat="39.3368394" lon="17.0480148"><ele>42.5</ele><time>2026-03-28T16:14:01.193Z</time></trkpt><trkpt lat="39.3368214" lon="17.0481175"><ele>42.333333333333336</ele><time>2026-03-28T16:14:03.219Z</time></trkpt><trkpt lat="39.3368011" lon="17.04825"><ele>42.166666666666664</ele><time>2026-03-28T16:14:05.2Z</time></trkpt><trkpt lat="39.3367998" lon="17.048337"><ele>42.0</ele><time>2026-03-28T16:14:06.216Z</time></trkpt><trkpt lat="39.336805" lon="17.048433"><ele>42.0</ele><time>2026-03-28T16:14:07.208Z</time></trkpt><trkpt lat="39.3368159" lon="17.0485321"><ele>42.0</ele><time>2026-03-28T16:14:08.2Z</time></trkpt><trkpt lat="39.3368276" lon="17.0486303"><ele>42.0</ele><time>2026-03-28T16:14:09.207Z</time></trkpt><trkpt lat="39.3368384" lon="17.0487275"><ele>42.0</ele><time>2026-03-28T16:14:10.206Z</time></trkpt><trkpt lat="39.3368496" lon="17.0488213"><ele>42.0</ele><time>2026-03-28T16:14:11.202Z</time></trkpt><trkpt lat="39.3368613" lon="17.0489114"><ele>42.0</ele><time>2026-03-28T16:14:12.201Z</time></trkpt><trkpt lat="39.3368721" lon="17.049002"><ele>42.0</ele><time>2026-03-28T16:14:13.199Z</time></trkpt><trkpt lat="39.3368826" lon="17.0490897"><ele>41.857142857142854</ele><time>2026-03-28T16:14:14.206Z</time></trkpt><trkpt lat="39.3368951" lon="17.049172"><ele>41.714285714285715</ele><time>2026-03-28T16:14:15.203Z</time></trkpt><trkpt lat="39.3369049" lon="17.0492562"><ele>41.57142857142857</ele><time>2026-03-28T16:14:16.207Z</time></trkpt><trkpt lat="39.3369125" lon="17.0493447"><ele>41.42857142857143</ele><time>2026-03-28T16:14:17.201Z</time></trkpt><trkpt lat="39.3369236" lon="17.0494395"><ele>41.285714285714285</ele><time>2026-03-28T16:14:18.205Z</time></trkpt><trkpt lat="39.3369403" lon="17.0495378"><ele>41.14285714285714</ele><time>2026-03-28T16:14:19.223Z</time></trkpt><trkpt lat="39.336957" lon="17.049639"><ele>41.0</ele><time>2026-03-28T16:14:20.211Z</time></trkpt><trkpt lat="39.3369726" lon="17.0497515"><ele>41.0</ele><time>2026-03-28T16:14:21.204Z</time></trkpt><trkpt lat="39.3369905" lon="17.0498791"><ele>41.0</ele><time>2026-03-28T16:14:22.199Z</time></trkpt><trkpt lat="39.3370106" lon="17.0500246"><ele>41.0</ele><time>2026-03-28T16:14:23.203Z</time></trkpt><trkpt lat="39.3370329" lon="17.0501848"><ele>41.0</ele><time>2026-03-28T16:14:24.191Z</time></trkpt><trkpt lat="39.3370579" lon="17.0503578"><ele>40.75</ele><time>2026-03-28T16:14:25.201Z</time></trkpt><trkpt lat="39.3370802" lon="17.050529"><ele>40.5</ele><time>2026-03-28T16:14:26.208Z</time></trkpt><trkpt lat="39.3371006" lon="17.0506914"><ele>40.25</ele><time>2026-03-28T16:14:27.206Z</time></trkpt><trkpt lat="39.3371207" lon="17.0508408"><ele>40.0</ele><time>2026-03-28T16:14:28.201Z</time></trkpt><trkpt lat="39.3371333" lon="17.0509798"><ele>40.0</ele><time>2026-03-28T16:14:29.203Z</time></trkpt><trkpt lat="39.3371367" lon="17.051114"><ele>40.0</ele><time>2026-03-28T16:14:30.199Z</time></trkpt><trkpt lat="39.3371393" lon="17.0512543"><ele>40.0</ele><time>2026-03-28T16:14:31.194Z</time></trkpt><trkpt lat="39.3371443" lon="17.0513979"><ele>40.0</ele><time>2026-03-28T16:14:32.22Z</time></trkpt><trkpt lat="39.337147" lon="17.0515252"><ele>40.0</ele><time>2026-03-28T16:14:33.206Z</time></trkpt><trkpt lat="39.3371486" lon="17.0516331"><ele>39.833333333333336</ele><time>2026-03-28T16:14:34.198Z</time></trkpt><trkpt lat="39.3371541" lon="17.0517181"><ele>39.66666666666667</ele><time>2026-03-28T16:14:35.217Z</time></trkpt><trkpt lat="39.3371493" lon="17.0518464"><ele>39.5</ele><time>2026-03-28T16:14:37.202Z</time></trkpt><trkpt lat="39.3371319" lon="17.0520089"><ele>39.333333333333336</ele><time>2026-03-28T16:14:39.21Z</time></trkpt><trkpt lat="39.3371175" lon="17.0521033"><ele>39.166666666666664</ele><time>2026-03-28T16:14:40.204Z</time></trkpt><trkpt lat="39.3371038" lon="17.0522046"><ele>39.0</ele><time>2026-03-28T16:14:41.204Z</time></trkpt><trkpt lat="39.3370918" lon="17.0523107"><ele>39.0</ele><time>2026-03-28T16:14:42.199Z</time></trkpt><trkpt lat="39.3370812" lon="17.0524195"><ele>39.0</ele><time>2026-03-28T16:14:43.205Z</time></trkpt><trkpt lat="39.3370707" lon="17.0525286"><ele>39.0</ele><time>2026-03-28T16:14:44.201Z</time></trkpt><trkpt lat="39.3370524" lon="17.0526413"><ele>39.0</ele><time>2026-03-28T16:14:45.205Z</time></trkpt><trkpt lat="39.337031" lon="17.0527475"><ele>39.0</ele><time>2026-03-28T16:14:46.212Z</time></trkpt><trkpt lat="39.3370023" lon="17.0528384"><ele>39.0</ele><time>2026-03-28T16:14:47.202Z</time></trkpt><trkpt lat="39.3369692" lon="17.0529149"><ele>38.833333333333336</ele><time>2026-03-28T16:14:48.206Z</time></trkpt><trkpt lat="39.336946" lon="17.0530523"><ele>38.666666666666664</ele><time>2026-03-28T16:14:50.208Z</time></trkpt><trkpt lat="39.337047" lon="17.0531061"><ele>38.5</ele><time>2026-03-28T16:14:52.198Z</time></trkpt><trkpt lat="39.3371163" lon="17.0530833"><ele>38.33333333333333</ele><time>2026-03-28T16:14:53.199Z</time></trkpt><trkpt lat="39.3371766" lon="17.0530368"><ele>38.166666666666664</ele><time>2026-03-28T16:14:54.191Z</time></trkpt><trkpt lat="39.3372365" lon="17.0529907"><ele>38.0</ele><time>2026-03-28T16:14:55.205Z</time></trkpt><trkpt lat="39.3373007" lon="17.0529795"><ele>37.83333333333333</ele><time>2026-03-28T16:14:56.208Z</time></trkpt><trkpt lat="39.3373726" lon="17.0530019"><ele>37.666666666666664</ele><time>2026-03-28T16:14:57.216Z</time></trkpt><trkpt lat="39.3374336" lon="17.0530428"><ele>37.5</ele><time>2026-03-28T16:14:58.201Z</time></trkpt><trkpt lat="39.3374921" lon="17.0530901"><ele>37.333333333333336</ele><time>2026-03-28T16:14:59.21Z</time></trkpt><trkpt lat="39.3375508" lon="17.0531357"><ele>37.16666666666667</ele><time>2026-03-28T16:15:00.203Z</time></trkpt><trkpt lat="39.3376294" lon="17.0532304"><ele>37.0</ele><time>2026-03-28T16:15:02.202Z</time></trkpt><trkpt lat="39.337667" lon="17.0533259"><ele>37.4</ele><time>2026-03-28T16:15:05.195Z</time></trkpt><trkpt lat="39.3377082" lon="17.0533952"><ele>37.800000000000004</ele><time>2026-03-28T16:15:07.201Z</time></trkpt><trkpt lat="39.3377711" lon="17.0534963"><ele>38.2</ele><time>2026-03-28T16:15:09.217Z</time></trkpt><trkpt lat="39.3378476" lon="17.0536104"><ele>38.6</ele><time>2026-03-28T16:15:11.199Z</time></trkpt><trkpt lat="39.3379181" lon="17.0537276"><ele>39.0</ele><time>2026-03-28T16:15:13.203Z</time></trkpt><trkpt lat="39.3379768" lon="17.0538113"><ele>39.0</ele><time>2026-03-28T16:15:15.199Z</time></trkpt><trkpt lat="39.3379873" lon="17.0538989"><ele>39.0</ele><time>2026-03-28T16:15:21.197Z</time></trkpt><trkpt lat="39.3379288" lon="17.0538467"><ele>39.0</ele><time>2026-03-28T16:15:25.201Z</time></trkpt><trkpt lat="39.3379127" lon="17.0537545"><ele>39.0</ele><time>2026-03-28T16:15:28.196Z</time></trkpt><trkpt lat="39.3378422" lon="17.0536347"><ele>39.0</ele><time>2026-03-28T16:15:31.201Z</time></trkpt><trkpt lat="39.3378073" lon="17.0535332"><ele>39.0</ele><time>2026-03-28T16:15:33.205Z</time></trkpt><trkpt lat="39.3377496" lon="17.0534586"><ele>39.0</ele><time>2026-03-28T16:15:43.204Z</time></trkpt><trkpt lat="39.3377052" lon="17.0533872"><ele>39.0</ele><time>2026-03-28T16:15:47.203Z</time></trkpt><trkpt lat="39.3377277" lon="17.0533097"><ele>39.0</ele><time>2026-03-28T16:15:54.21Z</time></trkpt><trkpt lat="39.3377741" lon="17.053228"><ele>39.0</ele><time>2026-03-28T16:15:58.204Z</time></trkpt><trkpt lat="39.3378068" lon="17.0531463"><ele>39.0</ele><time>2026-03-28T16:16:01.2Z</time></trkpt><trkpt lat="39.3378563" lon="17.0530772"><ele>39.0</ele><time>2026-03-28T16:16:04.205Z</time></trkpt><trkpt lat="39.3378168" lon="17.0529955"><ele>39.0</ele><time>2026-03-28T16:16:08.206Z</time></trkpt><trkpt lat="39.3377543" lon="17.0530213"><ele>39.0</ele><time>2026-03-28T16:22:37.174Z</time></trkpt><trkpt lat="39.3376721" lon="17.0530342"><ele>39.0</ele><time>2026-03-28T16:22:40.197Z</time></trkpt><trkpt lat="39.3376199" lon="17.0530905"><ele>39.0</ele><time>2026-03-28T16:22:42.199Z</time></trkpt><trkpt lat="39.3376055" lon="17.0531781"><ele>39.0</ele><time>2026-03-28T16:22:45.203Z</time></trkpt><trkpt lat="39.3376427" lon="17.0532583"><ele>39.0</ele><time>2026-03-28T16:23:04.205Z</time></trkpt><trkpt lat="39.3376806" lon="17.0533416"><ele>39.0</ele><time>2026-03-28T16:23:07.201Z</time></trkpt><trkpt lat="39.3377221" lon="17.0534242"><ele>39.0</ele><time>2026-03-28T16:23:10.206Z</time></trkpt><trkpt lat="39.3377683" lon="17.0535022"><ele>39.0</ele><time>2026-03-28T16:24:46.203Z</time></trkpt><trkpt lat="39.3378141" lon="17.0535829"><ele>39.0</ele><time>2026-03-28T16:24:48.197Z</time></trkpt><trkpt lat="39.3378412" lon="17.0536759"><ele>39.0</ele><time>2026-03-28T16:24:51.201Z</time></trkpt><trkpt lat="39.3379067" lon="17.0537399"><ele>39.0</ele><time>2026-03-28T16:25:04.204Z</time></trkpt><trkpt lat="39.3379542" lon="17.0537939"><ele>39.0</ele><time>2026-03-28T16:25:09.202Z</time></trkpt><trkpt lat="39.3380139" lon="17.0538481"><ele>39.0</ele><time>2026-03-28T16:25:13.209Z</time></trkpt><trkpt lat="39.338074" lon="17.0539404"><ele>39.0</ele><time>2026-03-28T16:29:06.179Z</time></trkpt><trkpt lat="39.3381644" lon="17.0540196"><ele>39.0</ele><time>2026-03-28T16:29:08.188Z</time></trkpt><trkpt lat="39.3382635" lon="17.0540808"><ele>39.0</ele><time>2026-03-28T16:29:10.185Z</time></trkpt><trkpt lat="39.3383198" lon="17.0541216"><ele>39.0</ele><time>2026-03-28T16:29:11.185Z</time></trkpt><trkpt lat="39.3383672" lon="17.0541843"><ele>39.0</ele><time>2026-03-28T16:29:12.178Z</time></trkpt><trkpt lat="39.3384123" lon="17.0542629"><ele>39.0</ele><time>2026-03-28T16:29:13.208Z</time></trkpt><trkpt lat="39.3384485" lon="17.0543585"><ele>39.0</ele><time>2026-03-28T16:29:14.183Z</time></trkpt><trkpt lat="39.3384691" lon="17.0544562"><ele>39.0</ele><time>2026-03-28T16:29:15.181Z</time></trkpt><trkpt lat="39.3384762" lon="17.0545605"><ele>39.0</ele><time>2026-03-28T16:29:16.178Z</time></trkpt><trkpt lat="39.3384807" lon="17.0546739"><ele>39.0</ele><time>2026-03-28T16:29:17.178Z</time></trkpt><trkpt lat="39.3384923" lon="17.0547912"><ele>39.0</ele><time>2026-03-28T16:29:18.183Z</time></trkpt><trkpt lat="39.3385113" lon="17.0549066"><ele>39.0</ele><time>2026-03-28T16:29:19.18Z</time></trkpt><trkpt lat="39.3385364" lon="17.0550146"><ele>39.166666666666664</ele><time>2026-03-28T16:29:20.181Z</time></trkpt><trkpt lat="39.3385646" lon="17.0551157"><ele>39.333333333333336</ele><time>2026-03-28T16:29:21.208Z</time></trkpt><trkpt lat="39.338593" lon="17.0552116"><ele>39.5</ele><time>2026-03-28T16:29:22.187Z</time></trkpt><trkpt lat="39.3386196" lon="17.0553042"><ele>39.66666666666667</ele><time>2026-03-28T16:29:23.181Z</time></trkpt><trkpt lat="39.3386461" lon="17.0553932"><ele>39.833333333333336</ele><time>2026-03-28T16:29:24.186Z</time></trkpt><trkpt lat="39.3386708" lon="17.0554801"><ele>40.0</ele><time>2026-03-28T16:29:25.18Z</time></trkpt><trkpt lat="39.3386937" lon="17.0555614"><ele>40.0</ele><time>2026-03-28T16:29:26.206Z</time></trkpt><trkpt lat="39.3387322" lon="17.0556872"><ele>40.0</ele><time>2026-03-28T16:29:28.18Z</time></trkpt><trkpt lat="39.3387686" lon="17.0557992"><ele>40.0</ele><time>2026-03-28T16:29:30.179Z</time></trkpt><trkpt lat="39.3388034" lon="17.0559277"><ele>40.0</ele><time>2026-03-28T16:29:32.182Z</time></trkpt><trkpt lat="39.3388451" lon="17.0560815"><ele>40.0</ele><time>2026-03-28T16:29:34.203Z</time></trkpt><trkpt lat="39.3388722" lon="17.0561966"><ele>40.5</ele><time>2026-03-28T16:29:35.183Z</time></trkpt><trkpt lat="39.3389172" lon="17.0563577"><ele>41.0</ele><time>2026-03-28T16:29:36.177Z</time></trkpt><trkpt lat="39.3389726" lon="17.0565253"><ele>41.5</ele><time>2026-03-28T16:29:37.184Z</time></trkpt><trkpt lat="39.3390232" lon="17.0566769"><ele>42.0</ele><time>2026-03-28T16:29:38.181Z</time></trkpt><trkpt lat="39.3390572" lon="17.056821"><ele>42.0</ele><time>2026-03-28T16:29:39.206Z</time></trkpt><trkpt lat="39.339073" lon="17.0569581"><ele>42.0</ele><time>2026-03-28T16:29:40.183Z</time></trkpt><trkpt lat="39.3390711" lon="17.0570898"><ele>42.0</ele><time>2026-03-28T16:29:41.179Z</time></trkpt><trkpt lat="39.3390567" lon="17.0572137"><ele>42.0</ele><time>2026-03-28T16:29:42.182Z</time></trkpt><trkpt lat="39.3390407" lon="17.0573266"><ele>42.0</ele><time>2026-03-28T16:29:43.184Z</time></trkpt><trkpt lat="39.3390282" lon="17.0574267"><ele>42.333333333333336</ele><time>2026-03-28T16:29:44.179Z</time></trkpt><trkpt lat="39.3390198" lon="17.0575183"><ele>42.666666666666664</ele><time>2026-03-28T16:29:45.181Z</time></trkpt><trkpt lat="39.339013" lon="17.0576022"><ele>43.0</ele><time>2026-03-28T16:29:46.179Z</time></trkpt><trkpt lat="39.3390032" lon="17.0577697"><ele>43.33333333333333</ele><time>2026-03-28T16:29:48.177Z</time></trkpt><trkpt lat="39.339003" lon="17.0578657"><ele>43.666666666666664</ele><time>2026-03-28T16:29:49.183Z</time></trkpt><trkpt lat="39.3390065" lon="17.0579606"><ele>44.0</ele><time>2026-03-28T16:29:50.183Z</time></trkpt><trkpt lat="39.3390147" lon="17.058047"><ele>44.0</ele><time>2026-03-28T16:29:51.186Z</time></trkpt><trkpt lat="39.3390269" lon="17.0581293"><ele>44.0</ele><time>2026-03-28T16:29:52.188Z</time></trkpt><trkpt lat="39.3390437" lon="17.0582121"><ele>44.0</ele><time>2026-03-28T16:29:53.186Z</time></trkpt><trkpt lat="39.3390631" lon="17.0582935"><ele>44.0</ele><time>2026-03-28T16:29:54.207Z</time></trkpt><trkpt lat="39.3390852" lon="17.0583719"><ele>44.0</ele><time>2026-03-28T16:29:55.19Z</time></trkpt><trkpt lat="39.3391138" lon="17.0584593"><ele>44.0</ele><time>2026-03-28T16:29:56.192Z</time></trkpt><trkpt lat="39.3391455" lon="17.0585592"><ele>44.0</ele><time>2026-03-28T16:29:57.189Z</time></trkpt><trkpt lat="39.3391794" lon="17.0586646"><ele>43.714285714285715</ele><time>2026-03-28T16:29:58.181Z</time></trkpt><trkpt lat="39.3392124" lon="17.0587667"><ele>43.42857142857143</ele><time>2026-03-28T16:29:59.187Z</time></trkpt><trkpt lat="39.3392397" lon="17.0588551"><ele>43.14285714285714</ele><time>2026-03-28T16:30:00.187Z</time></trkpt><trkpt lat="39.3392643" lon="17.0589335"><ele>42.85714285714286</ele><time>2026-03-28T16:30:01.183Z</time></trkpt><trkpt lat="39.3392915" lon="17.059017"><ele>42.57142857142857</ele><time>2026-03-28T16:30:02.195Z</time></trkpt><trkpt lat="39.3393192" lon="17.0591051"><ele>42.285714285714285</ele><time>2026-03-28T16:30:03.183Z</time></trkpt><trkpt lat="39.3393465" lon="17.0591967"><ele>42.0</ele><time>2026-03-28T16:30:04.18Z</time></trkpt><trkpt lat="39.3393722" lon="17.0592888"><ele>41.857142857142854</ele><time>2026-03-28T16:30:05.179Z</time></trkpt><trkpt lat="39.3393963" lon="17.0593727"><ele>41.714285714285715</ele><time>2026-03-28T16:30:06.181Z</time></trkpt><trkpt lat="39.3394217" lon="17.0594525"><ele>41.57142857142857</ele><time>2026-03-28T16:30:07.201Z</time></trkpt><trkpt lat="39.3394465" lon="17.0595356"><ele>41.42857142857143</ele><time>2026-03-28T16:30:08.186Z</time></trkpt><trkpt lat="39.3394715" lon="17.0596217"><ele>41.285714285714285</ele><time>2026-03-28T16:30:09.183Z</time></trkpt><trkpt lat="39.3394979" lon="17.0597083"><ele>41.14285714285714</ele><time>2026-03-28T16:30:10.186Z</time></trkpt><trkpt lat="39.3395278" lon="17.059802"><ele>41.0</ele><time>2026-03-28T16:30:11.181Z</time></trkpt><trkpt lat="39.33956" lon="17.059907"><ele>40.33333333333333</ele><time>2026-03-28T16:30:12.188Z</time></trkpt><trkpt lat="39.3395883" lon="17.0600121"><ele>39.666666666666664</ele><time>2026-03-28T16:30:13.182Z</time></trkpt><trkpt lat="39.3396127" lon="17.0601129"><ele>39.0</ele><time>2026-03-28T16:30:14.184Z</time></trkpt><trkpt lat="39.3396354" lon="17.0602098"><ele>38.333333333333336</ele><time>2026-03-28T16:30:15.181Z</time></trkpt><trkpt lat="39.3396586" lon="17.0603108"><ele>37.66666666666667</ele><time>2026-03-28T16:30:16.18Z</time></trkpt><trkpt lat="39.3396834" lon="17.0604217"><ele>37.0</ele><time>2026-03-28T16:30:17.181Z</time></trkpt><trkpt lat="39.3397062" lon="17.0605283"><ele>38.66666666666667</ele><time>2026-03-28T16:30:18.182Z</time></trkpt><trkpt lat="39.339724" lon="17.0606292"><ele>40.333333333333336</ele><time>2026-03-28T16:30:19.203Z</time></trkpt><trkpt lat="39.3397355" lon="17.0607314"><ele>42.0</ele><time>2026-03-28T16:30:20.18Z</time></trkpt><trkpt lat="39.3397432" lon="17.0608403"><ele>43.666666666666664</ele><time>2026-03-28T16:30:21.185Z</time></trkpt><trkpt lat="39.3397495" lon="17.0609531"><ele>45.33333333333333</ele><time>2026-03-28T16:30:22.183Z</time></trkpt><trkpt lat="39.3397555" lon="17.0610687"><ele>47.0</ele><time>2026-03-28T16:30:23.189Z</time></trkpt><trkpt lat="39.3397613" lon="17.061183"><ele>47.0</ele><time>2026-03-28T16:30:24.189Z</time></trkpt><trkpt lat="39.3397668" lon="17.0612942"><ele>47.0</ele><time>2026-03-28T16:30:25.186Z</time></trkpt><trkpt lat="39.3397719" lon="17.0614027"><ele>47.0</ele><time>2026-03-28T16:30:26.202Z</time></trkpt><trkpt lat="39.3397765" lon="17.0615066"><ele>47.0</ele><time>2026-03-28T16:30:27.187Z</time></trkpt><trkpt lat="39.3397815" lon="17.0616092"><ele>47.0</ele><time>2026-03-28T16:30:28.187Z</time></trkpt><trkpt lat="39.3397869" lon="17.0617099"><ele>47.0</ele><time>2026-03-28T16:30:29.184Z</time></trkpt><trkpt lat="39.3397922" lon="17.0618105"><ele>47.33333333333333</ele><time>2026-03-28T16:30:30.187Z</time></trkpt><trkpt lat="39.3397979" lon="17.0619137"><ele>47.666666666666664</ele><time>2026-03-28T16:30:31.185Z</time></trkpt><trkpt lat="39.3398038" lon="17.0620187"><ele>48.0</ele><time>2026-03-28T16:30:32.185Z</time></trkpt><trkpt lat="39.3398079" lon="17.0621254"><ele>48.33333333333333</ele><time>2026-03-28T16:30:33.191Z</time></trkpt><trkpt lat="39.3398113" lon="17.0622346"><ele>48.666666666666664</ele><time>2026-03-28T16:30:34.188Z</time></trkpt><trkpt lat="39.3398178" lon="17.062345"><ele>49.0</ele><time>2026-03-28T16:30:35.201Z</time></trkpt><trkpt lat="39.33983" lon="17.0624543"><ele>48.2</ele><time>2026-03-28T16:30:36.183Z</time></trkpt><trkpt lat="39.3398497" lon="17.0625649"><ele>47.400000000000006</ele><time>2026-03-28T16:30:37.184Z</time></trkpt><trkpt lat="39.3398771" lon="17.0626751"><ele>46.6</ele><time>2026-03-28T16:30:38.179Z</time></trkpt><trkpt lat="39.3399099" lon="17.0627882"><ele>45.8</ele><time>2026-03-28T16:30:39.181Z</time></trkpt><trkpt lat="39.3399455" lon="17.0629047"><ele>45.0</ele><time>2026-03-28T16:30:40.183Z</time></trkpt><trkpt lat="39.33998" lon="17.0630249"><ele>45.0</ele><time>2026-03-28T16:30:41.179Z</time></trkpt><trkpt lat="39.3400127" lon="17.0631475"><ele>45.0</ele><time>2026-03-28T16:30:42.206Z</time></trkpt><trkpt lat="39.3400453" lon="17.0632643"><ele>45.0</ele><time>2026-03-28T16:30:43.181Z</time></trkpt><trkpt lat="39.3400807" lon="17.0633825"><ele>45.0</ele><time>2026-03-28T16:30:44.183Z</time></trkpt><trkpt lat="39.3401174" lon="17.0635033"><ele>45.0</ele><time>2026-03-28T16:30:45.18Z</time></trkpt><trkpt lat="39.3401549" lon="17.0636256"><ele>43.8</ele><time>2026-03-28T16:30:46.178Z</time></trkpt><trkpt lat="39.3401935" lon="17.0637446"><ele>42.6</ele><time>2026-03-28T16:30:47.182Z</time></trkpt><trkpt lat="39.3402349" lon="17.0638566"><ele>41.4</ele><time>2026-03-28T16:30:48.186Z</time></trkpt><trkpt lat="39.3402791" lon="17.0639631"><ele>40.2</ele><time>2026-03-28T16:30:49.18Z</time></trkpt><trkpt lat="39.3403278" lon="17.0640663"><ele>39.0</ele><time>2026-03-28T16:30:50.2Z</time></trkpt><trkpt lat="39.3403799" lon="17.0641649"><ele>38.6</ele><time>2026-03-28T16:30:51.181Z</time></trkpt><trkpt lat="39.340436" lon="17.0642615"><ele>38.2</ele><time>2026-03-28T16:30:52.184Z</time></trkpt><trkpt lat="39.3404927" lon="17.0643562"><ele>37.800000000000004</ele><time>2026-03-28T16:30:53.181Z</time></trkpt><trkpt lat="39.3405494" lon="17.0644494"><ele>37.4</ele><time>2026-03-28T16:30:54.182Z</time></trkpt><trkpt lat="39.3406051" lon="17.0645418"><ele>37.0</ele><time>2026-03-28T16:30:55.178Z</time></trkpt><trkpt lat="39.3406611" lon="17.0646333"><ele>38.833333333333336</ele><time>2026-03-28T16:30:56.201Z</time></trkpt><trkpt lat="39.3407155" lon="17.0647196"><ele>40.66666666666667</ele><time>2026-03-28T16:30:57.178Z</time></trkpt><trkpt lat="39.3407653" lon="17.064808"><ele>42.5</ele><time>2026-03-28T16:30:58.185Z</time></trkpt><trkpt lat="39.3408053" lon="17.0649004"><ele>44.333333333333336</ele><time>2026-03-28T16:30:59.18Z</time></trkpt><trkpt lat="39.3408351" lon="17.0649983"><ele>46.166666666666664</ele><time>2026-03-28T16:31:00.179Z</time></trkpt><trkpt lat="39.3408557" lon="17.0651039"><ele>48.0</ele><time>2026-03-28T16:31:01.182Z</time></trkpt><trkpt lat="39.3408675" lon="17.065218"><ele>48.0</ele><time>2026-03-28T16:31:02.179Z</time></trkpt><trkpt lat="39.3408742" lon="17.0653382"><ele>48.0</ele><time>2026-03-28T16:31:03.207Z</time></trkpt><trkpt lat="39.3408783" lon="17.0654589"><ele>48.0</ele><time>2026-03-28T16:31:04.182Z</time></trkpt><trkpt lat="39.3408797" lon="17.0655849"><ele>48.0</ele><time>2026-03-28T16:31:05.181Z</time></trkpt><trkpt lat="39.3408765" lon="17.0657126"><ele>48.0</ele><time>2026-03-28T16:31:06.187Z</time></trkpt><trkpt lat="39.3408668" lon="17.0658369"><ele>47.333333333333336</ele><time>2026-03-28T16:31:07.185Z</time></trkpt><trkpt lat="39.3408512" lon="17.0659552"><ele>46.666666666666664</ele><time>2026-03-28T16:31:08.182Z</time></trkpt><trkpt lat="39.3408326" lon="17.0660667"><ele>46.0</ele><time>2026-03-28T16:31:09.198Z</time></trkpt><trkpt lat="39.340815" lon="17.0661701"><ele>45.33333333333333</ele><time>2026-03-28T16:31:10.191Z</time></trkpt><trkpt lat="39.3408004" lon="17.0662696"><ele>44.666666666666664</ele><time>2026-03-28T16:31:11.181Z</time></trkpt><trkpt lat="39.3407924" lon="17.0663678"><ele>44.0</ele><time>2026-03-28T16:31:12.181Z</time></trkpt><trkpt lat="39.3407931" lon="17.0664681"><ele>44.0</ele><time>2026-03-28T16:31:13.185Z</time></trkpt><trkpt lat="39.3408031" lon="17.0665716"><ele>44.0</ele><time>2026-03-28T16:31:14.18Z</time></trkpt><trkpt lat="39.3408199" lon="17.0666781"><ele>44.0</ele><time>2026-03-28T16:31:15.179Z</time></trkpt><trkpt lat="39.3408419" lon="17.0667865"><ele>44.0</ele><time>2026-03-28T16:31:16.197Z</time></trkpt><trkpt lat="39.3408673" lon="17.0668932"><ele>44.0</ele><time>2026-03-28T16:31:17.184Z</time></trkpt><trkpt lat="39.340894" lon="17.0669996"><ele>44.0</ele><time>2026-03-28T16:31:18.181Z</time></trkpt><trkpt lat="39.3409208" lon="17.0671046"><ele>43.33333333333333</ele><time>2026-03-28T16:31:19.184Z</time></trkpt><trkpt lat="39.3409451" lon="17.0672062"><ele>42.666666666666664</ele><time>2026-03-28T16:31:20.182Z</time></trkpt><trkpt lat="39.3409672" lon="17.0673059"><ele>42.0</ele><time>2026-03-28T16:31:21.199Z</time></trkpt><trkpt lat="39.3409889" lon="17.0674014"><ele>41.333333333333336</ele><time>2026-03-28T16:31:22.18Z</time></trkpt><trkpt lat="39.3410124" lon="17.0674955"><ele>40.66666666666667</ele><time>2026-03-28T16:31:23.182Z</time></trkpt><trkpt lat="39.341037" lon="17.067588"><ele>40.0</ele><time>2026-03-28T16:31:24.184Z</time></trkpt><trkpt lat="39.3410619" lon="17.0676766"><ele>39.857142857142854</ele><time>2026-03-28T16:31:25.179Z</time></trkpt><trkpt lat="39.3410881" lon="17.0677649"><ele>39.714285714285715</ele><time>2026-03-28T16:31:26.207Z</time></trkpt><trkpt lat="39.3411159" lon="17.0678532"><ele>39.57142857142857</ele><time>2026-03-28T16:31:27.182Z</time></trkpt><trkpt lat="39.3411466" lon="17.0679404"><ele>39.42857142857143</ele><time>2026-03-28T16:31:28.185Z</time></trkpt><trkpt lat="39.3411817" lon="17.0680229"><ele>39.285714285714285</ele><time>2026-03-28T16:31:29.185Z</time></trkpt><trkpt lat="39.3412256" lon="17.0680974"><ele>39.142857142857146</ele><time>2026-03-28T16:31:30.184Z</time></trkpt><trkpt lat="39.3412788" lon="17.0681582"><ele>39.0</ele><time>2026-03-28T16:31:31.179Z</time></trkpt><trkpt lat="39.3413396" lon="17.0682054"><ele>38.85714285714286</ele><time>2026-03-28T16:31:32.183Z</time></trkpt><trkpt lat="39.3414062" lon="17.068238"><ele>38.71428571428571</ele><time>2026-03-28T16:31:33.182Z</time></trkpt><trkpt lat="39.3414765" lon="17.0682581"><ele>38.57142857142857</ele><time>2026-03-28T16:31:34.183Z</time></trkpt><trkpt lat="39.3415477" lon="17.0682709"><ele>38.42857142857143</ele><time>2026-03-28T16:31:35.182Z</time></trkpt><trkpt lat="39.3416187" lon="17.0682783"><ele>38.28571428571429</ele><time>2026-03-28T16:31:36.184Z</time></trkpt><trkpt lat="39.3416906" lon="17.0682825"><ele>38.14285714285714</ele><time>2026-03-28T16:31:37.183Z</time></trkpt><trkpt lat="39.3417625" lon="17.0682857"><ele>38.0</ele><time>2026-03-28T16:31:38.179Z</time></trkpt><trkpt lat="39.3418306" lon="17.0682907"><ele>38.0</ele><time>2026-03-28T16:31:39.186Z</time></trkpt><trkpt lat="39.3418973" lon="17.0682983"><ele>38.0</ele><time>2026-03-28T16:31:40.183Z</time></trkpt><trkpt lat="39.3419659" lon="17.0683081"><ele>38.0</ele><time>2026-03-28T16:31:41.205Z</time></trkpt><trkpt lat="39.342032" lon="17.0683255"><ele>38.0</ele><time>2026-03-28T16:31:42.178Z</time></trkpt><trkpt lat="39.342099" lon="17.068354"><ele>38.0</ele><time>2026-03-28T16:31:43.184Z</time></trkpt><trkpt lat="39.3421676" lon="17.0683953"><ele>38.0</ele><time>2026-03-28T16:31:44.191Z</time></trkpt><trkpt lat="39.3422366" lon="17.0684507"><ele>38.0</ele><time>2026-03-28T16:31:45.18Z</time></trkpt><trkpt lat="39.3423083" lon="17.0685168"><ele>39.4</ele><time>2026-03-28T16:31:46.208Z</time></trkpt><trkpt lat="39.3423828" lon="17.0685844"><ele>40.8</ele><time>2026-03-28T16:31:47.186Z</time></trkpt><trkpt lat="39.3424604" lon="17.068655"><ele>42.2</ele><time>2026-03-28T16:31:48.181Z</time></trkpt><trkpt lat="39.3425382" lon="17.0687288"><ele>43.6</ele><time>2026-03-28T16:31:49.188Z</time></trkpt><trkpt lat="39.3426165" lon="17.0688098"><ele>45.0</ele><time>2026-03-28T16:31:50.182Z</time></trkpt><trkpt lat="39.3426958" lon="17.068903"><ele>45.0</ele><time>2026-03-28T16:31:51.184Z</time></trkpt><trkpt lat="39.3427761" lon="17.0690071"><ele>45.0</ele><time>2026-03-28T16:31:52.2Z</time></trkpt><trkpt lat="39.3428533" lon="17.0691182"><ele>45.0</ele><time>2026-03-28T16:31:53.182Z</time></trkpt><trkpt lat="39.3429277" lon="17.0692326"><ele>45.0</ele><time>2026-03-28T16:31:54.178Z</time></trkpt><trkpt lat="39.3429997" lon="17.069341"><ele>44.8</ele><time>2026-03-28T16:31:55.182Z</time></trkpt><trkpt lat="39.343071" lon="17.0694409"><ele>44.6</ele><time>2026-03-28T16:31:56.189Z</time></trkpt><trkpt lat="39.3431422" lon="17.0695333"><ele>44.400000000000006</ele><time>2026-03-28T16:31:57.182Z</time></trkpt><trkpt lat="39.343214" lon="17.069619"><ele>44.2</ele><time>2026-03-28T16:31:58.2Z</time></trkpt><trkpt lat="39.3432836" lon="17.0696984"><ele>44.0</ele><time>2026-03-28T16:31:59.181Z</time></trkpt><trkpt lat="39.3433548" lon="17.0697751"><ele>44.0</ele><time>2026-03-28T16:32:00.187Z</time></trkpt><trkpt lat="39.3434275" lon="17.0698512"><ele>44.0</ele><time>2026-03-28T16:32:01.182Z</time></trkpt><trkpt lat="39.3435115" lon="17.0699416"><ele>44.0</ele><time>2026-03-28T16:32:02.187Z</time></trkpt><trkpt lat="39.343611" lon="17.0700456"><ele>44.0</ele><time>2026-03-28T16:32:03.181Z</time></trkpt><trkpt lat="39.3437143" lon="17.0701506"><ele>44.0</ele><time>2026-03-28T16:32:04.179Z</time></trkpt><trkpt lat="39.3438092" lon="17.0702417"><ele>44.0</ele><time>2026-03-28T16:32:05.182Z</time></trkpt><trkpt lat="39.3438943" lon="17.0703209"><ele>44.0</ele><time>2026-03-28T16:32:06.18Z</time></trkpt><trkpt lat="39.3439761" lon="17.0704018"><ele>44.0</ele><time>2026-03-28T16:32:07.179Z</time></trkpt><trkpt lat="39.3440627" lon="17.0704959"><ele>44.0</ele><time>2026-03-28T16:32:08.181Z</time></trkpt><trkpt lat="39.3441557" lon="17.0705952"><ele>44.0</ele><time>2026-03-28T16:32:09.183Z</time></trkpt><trkpt lat="39.3442548" lon="17.0706906"><ele>44.0</ele><time>2026-03-28T16:32:10.181Z</time></trkpt><trkpt lat="39.3443608" lon="17.0707777"><ele>44.0</ele><time>2026-03-28T16:32:11.202Z</time></trkpt><trkpt lat="39.3444695" lon="17.0708515"><ele>44.0</ele><time>2026-03-28T16:32:12.185Z</time></trkpt><trkpt lat="39.3445812" lon="17.0709074"><ele>42.6</ele><time>2026-03-28T16:32:13.185Z</time></trkpt><trkpt lat="39.3446913" lon="17.070955"><ele>41.2</ele><time>2026-03-28T16:32:14.181Z</time></trkpt><trkpt lat="39.3448026" lon="17.0709777"><ele>39.800000000000004</ele><time>2026-03-28T16:32:15.183Z</time></trkpt><trkpt lat="39.3449076" lon="17.0709922"><ele>38.400000000000006</ele><time>2026-03-28T16:32:16.182Z</time></trkpt><trkpt lat="39.3450014" lon="17.071004"><ele>37.0</ele><time>2026-03-28T16:32:17.184Z</time></trkpt><trkpt lat="39.3450853" lon="17.0710126"><ele>37.0</ele><time>2026-03-28T16:32:18.183Z</time></trkpt><trkpt lat="39.3451639" lon="17.0710219"><ele>37.0</ele><time>2026-03-28T16:32:19.182Z</time></trkpt><trkpt lat="39.3452396" lon="17.0710358"><ele>37.0</ele><time>2026-03-28T16:32:20.187Z</time></trkpt><trkpt lat="39.3453128" lon="17.0710652"><ele>37.0</ele><time>2026-03-28T16:32:21.186Z</time></trkpt><trkpt lat="39.3453794" lon="17.0711144"><ele>37.0</ele><time>2026-03-28T16:32:22.184Z</time></trkpt><trkpt lat="39.3454345" lon="17.0711839"><ele>37.0</ele><time>2026-03-28T16:32:23.182Z</time></trkpt><trkpt lat="39.3454788" lon="17.0712707"><ele>37.0</ele><time>2026-03-28T16:32:24.206Z</time></trkpt><trkpt lat="39.3455089" lon="17.0713732"><ele>37.0</ele><time>2026-03-28T16:32:25.184Z</time></trkpt><trkpt lat="39.3455268" lon="17.0714882"><ele>37.0</ele><time>2026-03-28T16:32:26.183Z</time></trkpt><trkpt lat="39.3455407" lon="17.0716027"><ele>37.0</ele><time>2026-03-28T16:32:27.185Z</time></trkpt><trkpt lat="39.3455539" lon="17.0717134"><ele>37.0</ele><time>2026-03-28T16:32:28.181Z</time></trkpt><trkpt lat="39.3455695" lon="17.0718218"><ele>37.0</ele><time>2026-03-28T16:32:29.181Z</time></trkpt><trkpt lat="39.3455873" lon="17.0719307"><ele>35.833333333333336</ele><time>2026-03-28T16:32:30.182Z</time></trkpt><trkpt lat="39.3456072" lon="17.0720441"><ele>34.66666666666667</ele><time>2026-03-28T16:32:31.199Z</time></trkpt><trkpt lat="39.3456292" lon="17.0721557"><ele>33.5</ele><time>2026-03-28T16:32:32.184Z</time></trkpt><trkpt lat="39.3456515" lon="17.0722585"><ele>32.333333333333336</ele><time>2026-03-28T16:32:33.18Z</time></trkpt><trkpt lat="39.3456665" lon="17.0723487"><ele>31.166666666666668</ele><time>2026-03-28T16:32:34.18Z</time></trkpt><trkpt lat="39.3456795" lon="17.0724934"><ele>30.0</ele><time>2026-03-28T16:32:36.182Z</time></trkpt><trkpt lat="39.3456999" lon="17.0726437"><ele>29.8</ele><time>2026-03-28T16:32:38.18Z</time></trkpt><trkpt lat="39.3457202" lon="17.0727788"><ele>29.6</ele><time>2026-03-28T16:32:40.183Z</time></trkpt><trkpt lat="39.3457382" lon="17.072905"><ele>29.4</ele><time>2026-03-28T16:32:42.181Z</time></trkpt><trkpt lat="39.3457588" lon="17.0730323"><ele>29.2</ele><time>2026-03-28T16:32:44.182Z</time></trkpt><trkpt lat="39.3457791" lon="17.0731606"><ele>29.0</ele><time>2026-03-28T16:32:46.201Z</time></trkpt><trkpt lat="39.3457966" lon="17.0732913"><ele>28.666666666666664</ele><time>2026-03-28T16:32:48.178Z</time></trkpt><trkpt lat="39.3458196" lon="17.0734485"><ele>28.333333333333332</ele><time>2026-03-28T16:32:50.183Z</time></trkpt><trkpt lat="39.3458324" lon="17.0735337"><ele>28.0</ele><time>2026-03-28T16:32:51.186Z</time></trkpt><trkpt lat="39.3458467" lon="17.0736242"><ele>27.666666666666664</ele><time>2026-03-28T16:32:52.183Z</time></trkpt><trkpt lat="39.345863" lon="17.0737233"><ele>27.333333333333332</ele><time>2026-03-28T16:32:53.208Z</time></trkpt><trkpt lat="39.3458804" lon="17.0738292"><ele>27.0</ele><time>2026-03-28T16:32:54.19Z</time></trkpt><trkpt lat="39.3458989" lon="17.0739448"><ele>27.0</ele><time>2026-03-28T16:32:55.187Z</time></trkpt><trkpt lat="39.3459172" lon="17.0740652"><ele>27.000000000000004</ele><time>2026-03-28T16:32:56.189Z</time></trkpt><trkpt lat="39.3459333" lon="17.0741818"><ele>27.000000000000004</ele><time>2026-03-28T16:32:57.186Z</time></trkpt><trkpt lat="39.3459497" lon="17.0742963"><ele>27.0</ele><time>2026-03-28T16:32:58.208Z</time></trkpt><trkpt lat="39.345967" lon="17.0744109"><ele>27.0</ele><time>2026-03-28T16:32:59.185Z</time></trkpt><trkpt lat="39.3459864" lon="17.0745287"><ele>27.0</ele><time>2026-03-28T16:33:00.191Z</time></trkpt><trkpt lat="39.3460056" lon="17.0746453"><ele>27.000000000000004</ele><time>2026-03-28T16:33:01.182Z</time></trkpt><trkpt lat="39.346024" lon="17.0747588"><ele>27.000000000000004</ele><time>2026-03-28T16:33:02.186Z</time></trkpt><trkpt lat="39.3460429" lon="17.0748692"><ele>27.0</ele><time>2026-03-28T16:33:03.184Z</time></trkpt><trkpt lat="39.346063" lon="17.0749826"><ele>27.0</ele><time>2026-03-28T16:33:04.183Z</time></trkpt><trkpt lat="39.3460821" lon="17.0750997"><ele>27.0</ele><time>2026-03-28T16:33:05.189Z</time></trkpt><trkpt lat="39.3460989" lon="17.0752146"><ele>27.000000000000004</ele><time>2026-03-28T16:33:06.185Z</time></trkpt><trkpt lat="39.3461149" lon="17.0753296"><ele>27.000000000000004</ele><time>2026-03-28T16:33:07.215Z</time></trkpt><trkpt lat="39.3461323" lon="17.0754435"><ele>27.0</ele><time>2026-03-28T16:33:08.186Z</time></trkpt><trkpt lat="39.3461534" lon="17.0755594"><ele>27.0</ele><time>2026-03-28T16:33:09.182Z</time></trkpt><trkpt lat="39.3461779" lon="17.0756729"><ele>26.6</ele><time>2026-03-28T16:33:10.183Z</time></trkpt><trkpt lat="39.3462066" lon="17.0757848"><ele>26.200000000000003</ele><time>2026-03-28T16:33:11.186Z</time></trkpt><trkpt lat="39.3462411" lon="17.0758951"><ele>25.8</ele><time>2026-03-28T16:33:12.186Z</time></trkpt><trkpt lat="39.3462809" lon="17.0760048"><ele>25.4</ele><time>2026-03-28T16:33:13.183Z</time></trkpt><trkpt lat="39.3463229" lon="17.0761142"><ele>25.0</ele><time>2026-03-28T16:33:14.208Z</time></trkpt><trkpt lat="39.3463644" lon="17.0762197"><ele>25.2</ele><time>2026-03-28T16:33:15.18Z</time></trkpt><trkpt lat="39.3464087" lon="17.0763261"><ele>25.4</ele><time>2026-03-28T16:33:16.187Z</time></trkpt><trkpt lat="39.346456" lon="17.0764292"><ele>25.6</ele><time>2026-03-28T16:33:17.182Z</time></trkpt><trkpt lat="39.3465056" lon="17.0765285"><ele>25.8</ele><time>2026-03-28T16:33:18.186Z</time></trkpt><trkpt lat="39.3465567" lon="17.0766246"><ele>26.0</ele><time>2026-03-28T16:33:19.184Z</time></trkpt><trkpt lat="39.3466093" lon="17.0767226"><ele>26.4</ele><time>2026-03-28T16:33:20.186Z</time></trkpt><trkpt lat="39.3466626" lon="17.0768237"><ele>26.8</ele><time>2026-03-28T16:33:21.186Z</time></trkpt><trkpt lat="39.3467177" lon="17.0769256"><ele>27.199999999999996</ele><time>2026-03-28T16:33:22.19Z</time></trkpt><trkpt lat="39.346776" lon="17.0770264"><ele>27.599999999999998</ele><time>2026-03-28T16:33:23.182Z</time></trkpt><trkpt lat="39.3468372" lon="17.0771298"><ele>28.0</ele><time>2026-03-28T16:33:24.19Z</time></trkpt><trkpt lat="39.3468979" lon="17.0772377"><ele>28.0</ele><time>2026-03-28T16:33:25.184Z</time></trkpt><trkpt lat="39.3469521" lon="17.0773521"><ele>27.999999999999996</ele><time>2026-03-28T16:33:26.186Z</time></trkpt><trkpt lat="39.3469958" lon="17.0774711"><ele>27.999999999999996</ele><time>2026-03-28T16:33:27.19Z</time></trkpt><trkpt lat="39.3470256" lon="17.0775933"><ele>28.0</ele><time>2026-03-28T16:33:28.184Z</time></trkpt><trkpt lat="39.3470376" lon="17.0777188"><ele>28.0</ele><time>2026-03-28T16:33:29.202Z</time></trkpt><trkpt lat="39.347033" lon="17.0778457"><ele>28.0</ele><time>2026-03-28T16:33:30.18Z</time></trkpt><trkpt lat="39.3470149" lon="17.0779783"><ele>27.999999999999996</ele><time>2026-03-28T16:33:31.184Z</time></trkpt><trkpt lat="39.3469928" lon="17.0781167"><ele>27.999999999999996</ele><time>2026-03-28T16:33:32.185Z</time></trkpt><trkpt lat="39.3469772" lon="17.0782623"><ele>28.0</ele><time>2026-03-28T16:33:33.184Z</time></trkpt><trkpt lat="39.3469712" lon="17.0784128"><ele>28.0</ele><time>2026-03-28T16:33:34.215Z</time></trkpt><trkpt lat="39.3469721" lon="17.0785578"><ele>28.0</ele><time>2026-03-28T16:33:35.185Z</time></trkpt><trkpt lat="39.3469726" lon="17.0786995"><ele>27.999999999999996</ele><time>2026-03-28T16:33:36.183Z</time></trkpt><trkpt lat="39.3469666" lon="17.0788377"><ele>27.999999999999996</ele><time>2026-03-28T16:33:37.186Z</time></trkpt><trkpt lat="39.3469539" lon="17.0789758"><ele>28.0</ele><time>2026-03-28T16:33:38.18Z</time></trkpt><trkpt lat="39.3469368" lon="17.0791141"><ele>28.0</ele><time>2026-03-28T16:33:39.186Z</time></trkpt><trkpt lat="39.3469188" lon="17.0792484"><ele>27.799999999999997</ele><time>2026-03-28T16:33:40.189Z</time></trkpt><trkpt lat="39.3469021" lon="17.0793755"><ele>27.599999999999998</ele><time>2026-03-28T16:33:41.183Z</time></trkpt><trkpt lat="39.3468877" lon="17.0794972"><ele>27.400000000000002</ele><time>2026-03-28T16:33:42.205Z</time></trkpt><trkpt lat="39.3468757" lon="17.0796127"><ele>27.200000000000003</ele><time>2026-03-28T16:33:43.181Z</time></trkpt><trkpt lat="39.3468625" lon="17.0797327"><ele>27.0</ele><time>2026-03-28T16:33:44.181Z</time></trkpt><trkpt lat="39.3468461" lon="17.0798573"><ele>27.0</ele><time>2026-03-28T16:33:45.182Z</time></trkpt><trkpt lat="39.3468289" lon="17.0799847"><ele>27.000000000000004</ele><time>2026-03-28T16:33:46.18Z</time></trkpt><trkpt lat="39.3468145" lon="17.0801145"><ele>27.000000000000004</ele><time>2026-03-28T16:33:47.182Z</time></trkpt><trkpt lat="39.3468053" lon="17.0802474"><ele>27.0</ele><time>2026-03-28T16:33:48.18Z</time></trkpt><trkpt lat="39.3468042" lon="17.0803853"><ele>27.0</ele><time>2026-03-28T16:33:49.198Z</time></trkpt><trkpt lat="39.3468141" lon="17.0805234"><ele>27.0</ele><time>2026-03-28T16:33:50.183Z</time></trkpt><trkpt lat="39.3468365" lon="17.0806632"><ele>27.0</ele><time>2026-03-28T16:33:51.192Z</time></trkpt><trkpt lat="39.3468765" lon="17.0807996"><ele>27.0</ele><time>2026-03-28T16:33:52.182Z</time></trkpt><trkpt lat="39.3469305" lon="17.0809325"><ele>27.0</ele><time>2026-03-28T16:33:53.182Z</time></trkpt><trkpt lat="39.3469973" lon="17.0810573"><ele>26.400000000000002</ele><time>2026-03-28T16:33:54.182Z</time></trkpt><trkpt lat="39.3470694" lon="17.0811742"><ele>25.800000000000004</ele><time>2026-03-28T16:33:55.185Z</time></trkpt><trkpt lat="39.3471405" lon="17.0812853"><ele>25.2</ele><time>2026-03-28T16:33:56.182Z</time></trkpt><trkpt lat="39.3472084" lon="17.0813915"><ele>24.6</ele><time>2026-03-28T16:33:57.186Z</time></trkpt><trkpt lat="39.3472744" lon="17.0814944"><ele>24.0</ele><time>2026-03-28T16:33:58.183Z</time></trkpt><trkpt lat="39.3473401" lon="17.0815986"><ele>24.6</ele><time>2026-03-28T16:33:59.182Z</time></trkpt><trkpt lat="39.3474041" lon="17.0817055"><ele>25.2</ele><time>2026-03-28T16:34:00.185Z</time></trkpt><trkpt lat="39.3474676" lon="17.0818123"><ele>25.800000000000004</ele><time>2026-03-28T16:34:01.183Z</time></trkpt><trkpt lat="39.3475319" lon="17.081918"><ele>26.400000000000002</ele><time>2026-03-28T16:34:02.186Z</time></trkpt><trkpt lat="39.3475968" lon="17.0820211"><ele>27.0</ele><time>2026-03-28T16:34:03.183Z</time></trkpt><trkpt lat="39.3476624" lon="17.0821232"><ele>27.0</ele><time>2026-03-28T16:34:04.181Z</time></trkpt><trkpt lat="39.3477308" lon="17.0822275"><ele>27.000000000000004</ele><time>2026-03-28T16:34:05.202Z</time></trkpt><trkpt lat="39.3478007" lon="17.0823347"><ele>27.000000000000004</ele><time>2026-03-28T16:34:06.184Z</time></trkpt><trkpt lat="39.3478722" lon="17.0824489"><ele>27.0</ele><time>2026-03-28T16:34:07.18Z</time></trkpt><trkpt lat="39.3479438" lon="17.0825641"><ele>27.0</ele><time>2026-03-28T16:34:08.177Z</time></trkpt><trkpt lat="39.348015" lon="17.0826773"><ele>26.25</ele><time>2026-03-28T16:34:09.177Z</time></trkpt><trkpt lat="39.3480875" lon="17.0827906"><ele>25.5</ele><time>2026-03-28T16:34:10.18Z</time></trkpt><trkpt lat="39.3481612" lon="17.082906"><ele>24.75</ele><time>2026-03-28T16:34:11.185Z</time></trkpt><trkpt lat="39.3482348" lon="17.0830212"><ele>24.0</ele><time>2026-03-28T16:34:12.181Z</time></trkpt><trkpt lat="39.3483087" lon="17.0831369"><ele>24.0</ele><time>2026-03-28T16:34:13.199Z</time></trkpt><trkpt lat="39.3483818" lon="17.0832521"><ele>24.0</ele><time>2026-03-28T16:34:14.189Z</time></trkpt><trkpt lat="39.3484558" lon="17.0833689"><ele>24.0</ele><time>2026-03-28T16:34:15.183Z</time></trkpt><trkpt lat="39.3485305" lon="17.0834861"><ele>24.0</ele><time>2026-03-28T16:34:16.178Z</time></trkpt><trkpt lat="39.3486072" lon="17.0836056"><ele>23.5</ele><time>2026-03-28T16:34:17.184Z</time></trkpt><trkpt lat="39.3486846" lon="17.0837277"><ele>23.0</ele><time>2026-03-28T16:34:18.18Z</time></trkpt><trkpt lat="39.348762" lon="17.0838519"><ele>22.5</ele><time>2026-03-28T16:34:19.187Z</time></trkpt><trkpt lat="39.3488374" lon="17.0839764"><ele>22.0</ele><time>2026-03-28T16:34:20.182Z</time></trkpt><trkpt lat="39.348913" lon="17.084102"><ele>22.0</ele><time>2026-03-28T16:34:21.183Z</time></trkpt><trkpt lat="39.3489894" lon="17.0842303"><ele>22.0</ele><time>2026-03-28T16:34:22.178Z</time></trkpt><trkpt lat="39.3490687" lon="17.0843613"><ele>22.0</ele><time>2026-03-28T16:34:23.18Z</time></trkpt><trkpt lat="39.3491508" lon="17.0844938"><ele>22.0</ele><time>2026-03-28T16:34:24.181Z</time></trkpt><trkpt lat="39.3492338" lon="17.0846281"><ele>22.0</ele><time>2026-03-28T16:34:25.184Z</time></trkpt><trkpt lat="39.3493167" lon="17.0847623"><ele>22.0</ele><time>2026-03-28T16:34:26.184Z</time></trkpt><trkpt lat="39.3493985" lon="17.084895"><ele>22.0</ele><time>2026-03-28T16:34:27.179Z</time></trkpt><trkpt lat="39.3494782" lon="17.0850319"><ele>22.0</ele><time>2026-03-28T16:34:28.204Z</time></trkpt><trkpt lat="39.349551" lon="17.0851718"><ele>21.25</ele><time>2026-03-28T16:34:29.181Z</time></trkpt><trkpt lat="39.3496158" lon="17.0853195"><ele>20.5</ele><time>2026-03-28T16:34:30.183Z</time></trkpt><trkpt lat="39.3496689" lon="17.0854719"><ele>19.75</ele><time>2026-03-28T16:34:31.181Z</time></trkpt><trkpt lat="39.3497121" lon="17.0856281"><ele>19.0</ele><time>2026-03-28T16:34:32.18Z</time></trkpt><trkpt lat="39.3497489" lon="17.0857864"><ele>19.0</ele><time>2026-03-28T16:34:33.185Z</time></trkpt><trkpt lat="39.3497873" lon="17.0859456"><ele>19.0</ele><time>2026-03-28T16:34:34.215Z</time></trkpt><trkpt lat="39.3498263" lon="17.0861018"><ele>19.0</ele><time>2026-03-28T16:34:35.184Z</time></trkpt><trkpt lat="39.349867" lon="17.08626"><ele>19.0</ele><time>2026-03-28T16:34:36.184Z</time></trkpt><trkpt lat="39.3499069" lon="17.0864164"><ele>19.0</ele><time>2026-03-28T16:34:37.181Z</time></trkpt><trkpt lat="39.3499479" lon="17.0865768"><ele>19.0</ele><time>2026-03-28T16:34:38.182Z</time></trkpt><trkpt lat="39.3499917" lon="17.086742"><ele>19.0</ele><time>2026-03-28T16:34:39.182Z</time></trkpt><trkpt lat="39.3500427" lon="17.0869065"><ele>19.0</ele><time>2026-03-28T16:34:40.185Z</time></trkpt><trkpt lat="39.3501033" lon="17.0870717"><ele>19.0</ele><time>2026-03-28T16:34:41.206Z</time></trkpt><trkpt lat="39.3501702" lon="17.0872426"><ele>19.0</ele><time>2026-03-28T16:34:42.181Z</time></trkpt><trkpt lat="39.3502412" lon="17.0874257"><ele>19.0</ele><time>2026-03-28T16:34:43.183Z</time></trkpt><trkpt lat="39.3503133" lon="17.0876124"><ele>19.0</ele><time>2026-03-28T16:34:44.181Z</time></trkpt><trkpt lat="39.3503914" lon="17.0878121"><ele>19.0</ele><time>2026-03-28T16:34:45.185Z</time></trkpt><trkpt lat="39.3504827" lon="17.0880381"><ele>19.0</ele><time>2026-03-28T16:34:46.18Z</time></trkpt><trkpt lat="39.3505849" lon="17.0882911"><ele>18.5</ele><time>2026-03-28T16:34:47.182Z</time></trkpt><trkpt lat="39.350692" lon="17.088567"><ele>18.0</ele><time>2026-03-28T16:34:48.182Z</time></trkpt><trkpt lat="39.350805" lon="17.088861"><ele>17.5</ele><time>2026-03-28T16:34:49.185Z</time></trkpt><trkpt lat="39.3509251" lon="17.0891697"><ele>17.0</ele><time>2026-03-28T16:34:50.21Z</time></trkpt><trkpt lat="39.3510434" lon="17.0894691"><ele>17.0</ele><time>2026-03-28T16:34:51.185Z</time></trkpt><trkpt lat="39.3511598" lon="17.0897552"><ele>17.0</ele><time>2026-03-28T16:34:52.185Z</time></trkpt><trkpt lat="39.3512697" lon="17.0900247"><ele>17.333333333333336</ele><time>2026-03-28T16:34:53.188Z</time></trkpt><trkpt lat="39.3513737" lon="17.0902808"><ele>17.666666666666668</ele><time>2026-03-28T16:34:54.185Z</time></trkpt><trkpt lat="39.3514758" lon="17.0905316"><ele>18.0</ele><time>2026-03-28T16:34:55.185Z</time></trkpt><trkpt lat="39.3515822" lon="17.090794"><ele>18.333333333333332</ele><time>2026-03-28T16:34:56.22Z</time></trkpt><trkpt lat="39.3516829" lon="17.0910487"><ele>18.666666666666664</ele><time>2026-03-28T16:34:57.186Z</time></trkpt><trkpt lat="39.3517822" lon="17.0912975"><ele>19.0</ele><time>2026-03-28T16:34:58.185Z</time></trkpt><trkpt lat="39.3518858" lon="17.0915452"><ele>18.333333333333332</ele><time>2026-03-28T16:34:59.185Z</time></trkpt><trkpt lat="39.3519909" lon="17.0917945"><ele>17.666666666666668</ele><time>2026-03-28T16:35:00.18Z</time></trkpt><trkpt lat="39.3520936" lon="17.0920425"><ele>17.0</ele><time>2026-03-28T16:35:01.181Z</time></trkpt><trkpt lat="39.3521925" lon="17.092284"><ele>17.0</ele><time>2026-03-28T16:35:02.177Z</time></trkpt><trkpt lat="39.3522897" lon="17.0925061"><ele>17.0</ele><time>2026-03-28T16:35:03.182Z</time></trkpt><trkpt lat="39.3523797" lon="17.0927206"><ele>17.0</ele><time>2026-03-28T16:35:04.184Z</time></trkpt><trkpt lat="39.3524701" lon="17.0929294"><ele>17.0</ele><time>2026-03-28T16:35:05.186Z</time></trkpt><trkpt lat="39.3525626" lon="17.0931364"><ele>17.0</ele><time>2026-03-28T16:35:06.186Z</time></trkpt><trkpt lat="39.3526492" lon="17.0933411"><ele>17.0</ele><time>2026-03-28T16:35:07.188Z</time></trkpt><trkpt lat="39.3527324" lon="17.0935381"><ele>16.333333333333336</ele><time>2026-03-28T16:35:08.186Z</time></trkpt><trkpt lat="39.3528134" lon="17.0937306"><ele>15.666666666666668</ele><time>2026-03-28T16:35:09.184Z</time></trkpt><trkpt lat="39.3528934" lon="17.0939177"><ele>15.0</ele><time>2026-03-28T16:35:10.198Z</time></trkpt><trkpt lat="39.3529699" lon="17.0941021"><ele>15.0</ele><time>2026-03-28T16:35:11.181Z</time></trkpt><trkpt lat="39.3530443" lon="17.0942891"><ele>15.0</ele><time>2026-03-28T16:35:12.182Z</time></trkpt><trkpt lat="39.3531199" lon="17.0944771"><ele>15.0</ele><time>2026-03-28T16:35:13.187Z</time></trkpt><trkpt lat="39.3531939" lon="17.094661"><ele>15.0</ele><time>2026-03-28T16:35:14.183Z</time></trkpt><trkpt lat="39.353275" lon="17.0948317"><ele>15.0</ele><time>2026-03-28T16:35:15.215Z</time></trkpt><trkpt lat="39.3533736" lon="17.094982"><ele>15.0</ele><time>2026-03-28T16:35:16.184Z</time></trkpt><trkpt lat="39.3534962" lon="17.0951163"><ele>15.0</ele><time>2026-03-28T16:35:17.179Z</time></trkpt><trkpt lat="39.353633" lon="17.0952283"><ele>15.0</ele><time>2026-03-28T16:35:18.183Z</time></trkpt><trkpt lat="39.3537796" lon="17.0953333"><ele>15.0</ele><time>2026-03-28T16:35:19.184Z</time></trkpt><trkpt lat="39.3539342" lon="17.0954429"><ele>15.0</ele><time>2026-03-28T16:35:20.185Z</time></trkpt><trkpt lat="39.3540936" lon="17.0955601"><ele>15.0</ele><time>2026-03-28T16:35:21.215Z</time></trkpt><trkpt lat="39.3542522" lon="17.095679"><ele>15.0</ele><time>2026-03-28T16:35:22.182Z</time></trkpt><trkpt lat="39.3544173" lon="17.0958007"><ele>15.0</ele><time>2026-03-28T16:35:23.18Z</time></trkpt><trkpt lat="39.3545842" lon="17.0959238"><ele>15.0</ele><time>2026-03-28T16:35:24.183Z</time></trkpt><trkpt lat="39.3547519" lon="17.0960489"><ele>15.0</ele><time>2026-03-28T16:35:25.183Z</time></trkpt><trkpt lat="39.3549182" lon="17.0961714"><ele>16.333333333333332</ele><time>2026-03-28T16:35:26.183Z</time></trkpt><trkpt lat="39.3550804" lon="17.0962922"><ele>17.666666666666664</ele><time>2026-03-28T16:35:27.203Z</time></trkpt><trkpt lat="39.355236" lon="17.0964099"><ele>19.0</ele><time>2026-03-28T16:35:28.182Z</time></trkpt><trkpt lat="39.3553912" lon="17.0965266"><ele>20.333333333333332</ele><time>2026-03-28T16:35:29.188Z</time></trkpt><trkpt lat="39.3555402" lon="17.0966416"><ele>21.666666666666668</ele><time>2026-03-28T16:35:30.184Z</time></trkpt><trkpt lat="39.3556825" lon="17.0967588"><ele>23.0</ele><time>2026-03-28T16:35:31.183Z</time></trkpt><trkpt lat="39.3558179" lon="17.0968802"><ele>23.0</ele><time>2026-03-28T16:35:32.201Z</time></trkpt><trkpt lat="39.3559439" lon="17.0970072"><ele>23.0</ele><time>2026-03-28T16:35:33.182Z</time></trkpt><trkpt lat="39.3560656" lon="17.0971414"><ele>23.0</ele><time>2026-03-28T16:35:34.178Z</time></trkpt><trkpt lat="39.3561873" lon="17.0972823"><ele>22.333333333333336</ele><time>2026-03-28T16:35:35.179Z</time></trkpt><trkpt lat="39.3563119" lon="17.0974276"><ele>21.666666666666668</ele><time>2026-03-28T16:35:36.18Z</time></trkpt><trkpt lat="39.3564327" lon="17.0975685"><ele>21.0</ele><time>2026-03-28T16:35:37.18Z</time></trkpt><trkpt lat="39.3565453" lon="17.0977012"><ele>22.0</ele><time>2026-03-28T16:35:38.182Z</time></trkpt><trkpt lat="39.3566534" lon="17.097828"><ele>23.0</ele><time>2026-03-28T16:35:39.178Z</time></trkpt><trkpt lat="39.3567579" lon="17.0979512"><ele>24.0</ele><time>2026-03-28T16:35:40.183Z</time></trkpt><trkpt lat="39.3568586" lon="17.0980703"><ele>25.0</ele><time>2026-03-28T16:35:41.182Z</time></trkpt><trkpt lat="39.3569579" lon="17.0981887"><ele>24.5</ele><time>2026-03-28T16:35:42.18Z</time></trkpt><trkpt lat="39.3570529" lon="17.098312"><ele>24.0</ele><time>2026-03-28T16:35:43.181Z</time></trkpt><trkpt lat="39.3571362" lon="17.0984491"><ele>23.5</ele><time>2026-03-28T16:35:44.189Z</time></trkpt><trkpt lat="39.3572007" lon="17.0986007"><ele>23.0</ele><time>2026-03-28T16:35:45.187Z</time></trkpt><trkpt lat="39.3572467" lon="17.0987646"><ele>24.25</ele><time>2026-03-28T16:35:46.208Z</time></trkpt><trkpt lat="39.3572731" lon="17.098933"><ele>25.5</ele><time>2026-03-28T16:35:47.177Z</time></trkpt><trkpt lat="39.3572877" lon="17.0991125"><ele>26.75</ele><time>2026-03-28T16:35:48.187Z</time></trkpt><trkpt lat="39.3573" lon="17.0992924"><ele>28.0</ele><time>2026-03-28T16:35:49.185Z</time></trkpt><trkpt lat="39.3573139" lon="17.0994722"><ele>28.0</ele><time>2026-03-28T16:35:50.188Z</time></trkpt><trkpt lat="39.3573298" lon="17.0996526"><ele>28.0</ele><time>2026-03-28T16:35:51.187Z</time></trkpt><trkpt lat="39.3573533" lon="17.0998343"><ele>28.0</ele><time>2026-03-28T16:35:52.187Z</time></trkpt><trkpt lat="39.3573884" lon="17.1000152"><ele>28.0</ele><time>2026-03-28T16:35:53.186Z</time></trkpt><trkpt lat="39.3574286" lon="17.1001957"><ele>26.666666666666668</ele><time>2026-03-28T16:35:54.186Z</time></trkpt><trkpt lat="39.3574706" lon="17.1003814"><ele>25.333333333333336</ele><time>2026-03-28T16:35:55.206Z</time></trkpt><trkpt lat="39.3575132" lon="17.1005696"><ele>24.0</ele><time>2026-03-28T16:35:56.185Z</time></trkpt><trkpt lat="39.357553" lon="17.1007618"><ele>23.0</ele><time>2026-03-28T16:35:57.185Z</time></trkpt><trkpt lat="39.3575888" lon="17.1009534"><ele>22.0</ele><time>2026-03-28T16:35:58.188Z</time></trkpt><trkpt lat="39.3576199" lon="17.1011447"><ele>21.0</ele><time>2026-03-28T16:35:59.182Z</time></trkpt><trkpt lat="39.357649" lon="17.1013373"><ele>21.0</ele><time>2026-03-28T16:36:00.209Z</time></trkpt><trkpt lat="39.3576781" lon="17.1015247"><ele>21.0</ele><time>2026-03-28T16:36:01.181Z</time></trkpt><trkpt lat="39.3577051" lon="17.101715"><ele>21.0</ele><time>2026-03-28T16:36:02.181Z</time></trkpt><trkpt lat="39.3577317" lon="17.1019042"><ele>21.0</ele><time>2026-03-28T16:36:03.189Z</time></trkpt><trkpt lat="39.3577589" lon="17.1020918"><ele>21.0</ele><time>2026-03-28T16:36:04.184Z</time></trkpt><trkpt lat="39.3577865" lon="17.1022852"><ele>21.0</ele><time>2026-03-28T16:36:05.182Z</time></trkpt><trkpt lat="39.3578131" lon="17.1024832"><ele>21.0</ele><time>2026-03-28T16:36:06.212Z</time></trkpt><trkpt lat="39.3578375" lon="17.1026743"><ele>21.0</ele><time>2026-03-28T16:36:07.183Z</time></trkpt><trkpt lat="39.3578618" lon="17.1028664"><ele>21.0</ele><time>2026-03-28T16:36:08.186Z</time></trkpt><trkpt lat="39.3578873" lon="17.1030524"><ele>21.0</ele><time>2026-03-28T16:36:09.195Z</time></trkpt><trkpt lat="39.3579128" lon="17.1032274"><ele>21.0</ele><time>2026-03-28T16:36:10.186Z</time></trkpt><trkpt lat="39.3579343" lon="17.1033941"><ele>21.5</ele><time>2026-03-28T16:36:11.209Z</time></trkpt><trkpt lat="39.3579496" lon="17.1035518"><ele>22.0</ele><time>2026-03-28T16:36:12.181Z</time></trkpt><trkpt lat="39.3579604" lon="17.1037135"><ele>22.5</ele><time>2026-03-28T16:36:13.188Z</time></trkpt><trkpt lat="39.357967" lon="17.1038751"><ele>23.0</ele><time>2026-03-28T16:36:14.179Z</time></trkpt><trkpt lat="39.3579718" lon="17.1040392"><ele>22.75</ele><time>2026-03-28T16:36:15.189Z</time></trkpt><trkpt lat="39.3579772" lon="17.1042057"><ele>22.5</ele><time>2026-03-28T16:36:16.185Z</time></trkpt><trkpt lat="39.357984" lon="17.1043751"><ele>22.25</ele><time>2026-03-28T16:36:17.186Z</time></trkpt><trkpt lat="39.3579952" lon="17.1045448"><ele>22.0</ele><time>2026-03-28T16:36:18.186Z</time></trkpt><trkpt lat="39.3580105" lon="17.1047153"><ele>22.0</ele><time>2026-03-28T16:36:19.192Z</time></trkpt><trkpt lat="39.358027" lon="17.1048842"><ele>22.0</ele><time>2026-03-28T16:36:20.184Z</time></trkpt><trkpt lat="39.3580441" lon="17.1050541"><ele>22.0</ele><time>2026-03-28T16:36:21.204Z</time></trkpt><trkpt lat="39.358061" lon="17.105219"><ele>22.0</ele><time>2026-03-28T16:36:22.188Z</time></trkpt><trkpt lat="39.3580777" lon="17.1053795"><ele>22.25</ele><time>2026-03-28T16:36:23.185Z</time></trkpt><trkpt lat="39.3580936" lon="17.1055344"><ele>22.5</ele><time>2026-03-28T16:36:24.19Z</time></trkpt><trkpt lat="39.3581092" lon="17.1056848"><ele>22.75</ele><time>2026-03-28T16:36:25.187Z</time></trkpt><trkpt lat="39.3581265" lon="17.105833"><ele>23.0</ele><time>2026-03-28T16:36:26.187Z</time></trkpt><trkpt lat="39.3581448" lon="17.1059825"><ele>23.0</ele><time>2026-03-28T16:36:27.187Z</time></trkpt><trkpt lat="39.3581663" lon="17.1061323"><ele>23.0</ele><time>2026-03-28T16:36:28.189Z</time></trkpt><trkpt lat="39.3581936" lon="17.1062808"><ele>23.0</ele><time>2026-03-28T16:36:29.187Z</time></trkpt><trkpt lat="39.3582293" lon="17.1064279"><ele>23.0</ele><time>2026-03-28T16:36:30.201Z</time></trkpt><trkpt lat="39.3582767" lon="17.1065692"><ele>23.0</ele><time>2026-03-28T16:36:31.187Z</time></trkpt><trkpt lat="39.358334" lon="17.1067052"><ele>23.0</ele><time>2026-03-28T16:36:32.185Z</time></trkpt><trkpt lat="39.3583935" lon="17.1068386"><ele>23.0</ele><time>2026-03-28T16:36:33.19Z</time></trkpt><trkpt lat="39.3584492" lon="17.1069799"><ele>23.0</ele><time>2026-03-28T16:36:34.188Z</time></trkpt><trkpt lat="39.3585008" lon="17.107133"><ele>23.0</ele><time>2026-03-28T16:36:35.203Z</time></trkpt><trkpt lat="39.3585488" lon="17.1072883"><ele>23.0</ele><time>2026-03-28T16:36:36.185Z</time></trkpt><trkpt lat="39.3585971" lon="17.1074442"><ele>23.0</ele><time>2026-03-28T16:36:37.185Z</time></trkpt><trkpt lat="39.3586414" lon="17.1075943"><ele>23.0</ele><time>2026-03-28T16:36:38.181Z</time></trkpt><trkpt lat="39.3586802" lon="17.1077371"><ele>23.25</ele><time>2026-03-28T16:36:39.19Z</time></trkpt><trkpt lat="39.358719" lon="17.1078779"><ele>23.5</ele><time>2026-03-28T16:36:40.184Z</time></trkpt><trkpt lat="39.3587662" lon="17.108029"><ele>23.75</ele><time>2026-03-28T16:36:41.205Z</time></trkpt><trkpt lat="39.3588193" lon="17.1081835"><ele>24.0</ele><time>2026-03-28T16:36:42.187Z</time></trkpt><trkpt lat="39.3588734" lon="17.1083333"><ele>24.0</ele><time>2026-03-28T16:36:43.19Z</time></trkpt><trkpt lat="39.3589231" lon="17.1084711"><ele>24.0</ele><time>2026-03-28T16:36:44.188Z</time></trkpt><trkpt lat="39.3589683" lon="17.1085984"><ele>24.0</ele><time>2026-03-28T16:36:45.183Z</time></trkpt><trkpt lat="39.35901" lon="17.1087181"><ele>24.0</ele><time>2026-03-28T16:36:46.19Z</time></trkpt><trkpt lat="39.3590497" lon="17.1088313"><ele>24.0</ele><time>2026-03-28T16:36:47.186Z</time></trkpt><trkpt lat="39.3590886" lon="17.1089355"><ele>24.0</ele><time>2026-03-28T16:36:48.202Z</time></trkpt><trkpt lat="39.3591259" lon="17.1090253"><ele>24.0</ele><time>2026-03-28T16:36:49.188Z</time></trkpt><trkpt lat="39.3591575" lon="17.1091147"><ele>24.0</ele><time>2026-03-28T16:36:50.182Z</time></trkpt><trkpt lat="39.3591795" lon="17.1091978"><ele>24.0</ele><time>2026-03-28T16:36:51.182Z</time></trkpt><trkpt lat="39.3592081" lon="17.1093414"><ele>24.0</ele><time>2026-03-28T16:36:53.182Z</time></trkpt><trkpt lat="39.3592168" lon="17.1094536"><ele>24.0</ele><time>2026-03-28T16:36:55.187Z</time></trkpt><trkpt lat="39.3592219" lon="17.1095397"><ele>23.4</ele><time>2026-03-28T16:36:57.209Z</time></trkpt><trkpt lat="39.3592333" lon="17.1096751"><ele>22.799999999999997</ele><time>2026-03-28T16:36:59.186Z</time></trkpt><trkpt lat="39.3592543" lon="17.1098003"><ele>22.200000000000003</ele><time>2026-03-28T16:37:01.193Z</time></trkpt><trkpt lat="39.3593043" lon="17.1099652"><ele>21.6</ele><time>2026-03-28T16:37:03.188Z</time></trkpt><trkpt lat="39.359337" lon="17.1100693"><ele>21.0</ele><time>2026-03-28T16:37:04.188Z</time></trkpt><trkpt lat="39.359367" lon="17.1101888"><ele>21.0</ele><time>2026-03-28T16:37:05.184Z</time></trkpt><trkpt lat="39.3593897" lon="17.11032"><ele>21.0</ele><time>2026-03-28T16:37:06.191Z</time></trkpt><trkpt lat="39.3594062" lon="17.110451"><ele>21.0</ele><time>2026-03-28T16:37:07.186Z</time></trkpt><trkpt lat="39.3594139" lon="17.1105681"><ele>21.0</ele><time>2026-03-28T16:37:08.211Z</time></trkpt><trkpt lat="39.3594146" lon="17.110664"><ele>21.0</ele><time>2026-03-28T16:37:09.188Z</time></trkpt><trkpt lat="39.3594069" lon="17.1108102"><ele>21.0</ele><time>2026-03-28T16:37:11.185Z</time></trkpt><trkpt lat="39.3594172" lon="17.1108942"><ele>21.0</ele><time>2026-03-28T16:37:13.187Z</time></trkpt><trkpt lat="39.3594768" lon="17.1109774"><ele>21.0</ele><time>2026-03-28T16:37:34.186Z</time></trkpt><trkpt lat="39.3595649" lon="17.1110403"><ele>21.0</ele><time>2026-03-28T16:37:36.188Z</time></trkpt><trkpt lat="39.3596485" lon="17.1111246"><ele>21.0</ele><time>2026-03-28T16:37:38.189Z</time></trkpt><trkpt lat="39.3597069" lon="17.1112415"><ele>21.0</ele><time>2026-03-28T16:37:40.184Z</time></trkpt><trkpt lat="39.3596939" lon="17.1113913"><ele>21.0</ele><time>2026-03-28T16:37:42.187Z</time></trkpt><trkpt lat="39.3596645" lon="17.1114725"><ele>21.0</ele><time>2026-03-28T16:37:43.186Z</time></trkpt><trkpt lat="39.3596337" lon="17.1115651"><ele>21.0</ele><time>2026-03-28T16:37:44.187Z</time></trkpt><trkpt lat="39.3596039" lon="17.1116606"><ele>21.0</ele><time>2026-03-28T16:37:45.188Z</time></trkpt><trkpt lat="39.3595804" lon="17.1117534"><ele>21.0</ele><time>2026-03-28T16:37:46.183Z</time></trkpt><trkpt lat="39.3595635" lon="17.1118449"><ele>20.25</ele><time>2026-03-28T16:37:47.21Z</time></trkpt><trkpt lat="39.3595553" lon="17.1119493"><ele>19.5</ele><time>2026-03-28T16:37:49.187Z</time></trkpt><trkpt lat="39.3597043" lon="17.1120026"><ele>18.75</ele><time>2026-03-28T16:37:51.191Z</time></trkpt><trkpt lat="39.3598192" lon="17.1120407"><ele>18.0</ele><time>2026-03-28T16:37:52.19Z</time></trkpt><trkpt lat="39.3599643" lon="17.1120887"><ele>18.0</ele><time>2026-03-28T16:37:53.182Z</time></trkpt><trkpt lat="39.3601393" lon="17.1121446"><ele>18.0</ele><time>2026-03-28T16:37:54.211Z</time></trkpt><trkpt lat="39.3602925" lon="17.112197"><ele>18.0</ele><time>2026-03-28T16:37:55.185Z</time></trkpt><trkpt lat="39.3604279" lon="17.1122427"><ele>19.25</ele><time>2026-03-28T16:37:56.182Z</time></trkpt><trkpt lat="39.3605483" lon="17.1122807"><ele>20.5</ele><time>2026-03-28T16:37:57.186Z</time></trkpt><trkpt lat="39.3606566" lon="17.1123141"><ele>21.75</ele><time>2026-03-28T16:37:58.187Z</time></trkpt><trkpt lat="39.3607697" lon="17.1123476"><ele>23.0</ele><time>2026-03-28T16:37:59.214Z</time></trkpt><trkpt lat="39.3608946" lon="17.1123863"><ele>22.25</ele><time>2026-03-28T16:38:00.188Z</time></trkpt><trkpt lat="39.3610206" lon="17.1124315"><ele>21.5</ele><time>2026-03-28T16:38:01.182Z</time></trkpt><trkpt lat="39.3611383" lon="17.1124684"><ele>20.75</ele><time>2026-03-28T16:38:02.186Z</time></trkpt><trkpt lat="39.3612485" lon="17.1125014"><ele>20.0</ele><time>2026-03-28T16:38:03.184Z</time></trkpt><trkpt lat="39.3613522" lon="17.1125332"><ele>19.8</ele><time>2026-03-28T16:38:04.195Z</time></trkpt><trkpt lat="39.3614483" lon="17.1125661"><ele>19.6</ele><time>2026-03-28T16:38:05.181Z</time></trkpt><trkpt lat="39.3615427" lon="17.1126002"><ele>19.4</ele><time>2026-03-28T16:38:06.187Z</time></trkpt><trkpt lat="39.3616393" lon="17.112635"><ele>19.2</ele><time>2026-03-28T16:38:07.189Z</time></trkpt><trkpt lat="39.3617426" lon="17.1126698"><ele>19.0</ele><time>2026-03-28T16:38:08.184Z</time></trkpt><trkpt lat="39.3618509" lon="17.1127058"><ele>19.0</ele><time>2026-03-28T16:38:09.207Z</time></trkpt><trkpt lat="39.3619551" lon="17.1127396"><ele>19.0</ele><time>2026-03-28T16:38:10.183Z</time></trkpt><trkpt lat="39.3620577" lon="17.1127742"><ele>19.0</ele><time>2026-03-28T16:38:11.18Z</time></trkpt><trkpt lat="39.362156" lon="17.1128112"><ele>19.0</ele><time>2026-03-28T16:38:12.181Z</time></trkpt><trkpt lat="39.3622525" lon="17.1128473"><ele>19.0</ele><time>2026-03-28T16:38:13.18Z</time></trkpt><trkpt lat="39.3623502" lon="17.1128795"><ele>19.4</ele><time>2026-03-28T16:38:14.188Z</time></trkpt><trkpt lat="39.3624471" lon="17.1129087"><ele>19.799999999999997</ele><time>2026-03-28T16:38:15.187Z</time></trkpt><trkpt lat="39.3625418" lon="17.1129382"><ele>20.200000000000003</ele><time>2026-03-28T16:38:16.184Z</time></trkpt><trkpt lat="39.3626376" lon="17.1129731"><ele>20.6</ele><time>2026-03-28T16:38:17.204Z</time></trkpt><trkpt lat="39.3627323" lon="17.1130089"><ele>21.0</ele><time>2026-03-28T16:38:18.184Z</time></trkpt><trkpt lat="39.3628184" lon="17.1130419"><ele>21.0</ele><time>2026-03-28T16:38:19.186Z</time></trkpt><trkpt lat="39.3628898" lon="17.1130714"><ele>21.0</ele><time>2026-03-28T16:38:20.191Z</time></trkpt><trkpt lat="39.3629999" lon="17.1131103"><ele>21.0</ele><time>2026-03-28T16:38:22.208Z</time></trkpt><trkpt lat="39.3630925" lon="17.1131162"><ele>21.0</ele><time>2026-03-28T16:38:24.184Z</time></trkpt><trkpt lat="39.3631924" lon="17.1131159"><ele>21.0</ele><time>2026-03-28T16:38:26.19Z</time></trkpt><trkpt lat="39.3632543" lon="17.1131332"><ele>21.0</ele><time>2026-03-28T16:38:27.186Z</time></trkpt><trkpt lat="39.3633259" lon="17.1131669"><ele>20.666666666666668</ele><time>2026-03-28T16:38:28.21Z</time></trkpt><trkpt lat="39.3633988" lon="17.1132016"><ele>20.333333333333332</ele><time>2026-03-28T16:38:29.183Z</time></trkpt><trkpt lat="39.3634761" lon="17.1132298"><ele>20.0</ele><time>2026-03-28T16:38:30.188Z</time></trkpt><trkpt lat="39.3635552" lon="17.1132536"><ele>19.666666666666664</ele><time>2026-03-28T16:38:31.181Z</time></trkpt><trkpt lat="39.3636362" lon="17.1132751"><ele>19.333333333333332</ele><time>2026-03-28T16:38:32.186Z</time></trkpt><trkpt lat="39.3637169" lon="17.1132996"><ele>19.0</ele><time>2026-03-28T16:38:33.182Z</time></trkpt><trkpt lat="39.3638027" lon="17.1133281"><ele>19.799999999999997</ele><time>2026-03-28T16:38:34.198Z</time></trkpt><trkpt lat="39.3639022" lon="17.1133595"><ele>20.599999999999998</ele><time>2026-03-28T16:38:35.182Z</time></trkpt><trkpt lat="39.3640152" lon="17.113394"><ele>21.4</ele><time>2026-03-28T16:38:36.221Z</time></trkpt><trkpt lat="39.3641162" lon="17.113426"><ele>22.2</ele><time>2026-03-28T16:38:37.182Z</time></trkpt><trkpt lat="39.3642097" lon="17.1134566"><ele>23.0</ele><time>2026-03-28T16:38:38.184Z</time></trkpt><trkpt lat="39.3643037" lon="17.1134881"><ele>23.0</ele><time>2026-03-28T16:38:39.182Z</time></trkpt><trkpt lat="39.3644032" lon="17.1135197"><ele>23.0</ele><time>2026-03-28T16:38:40.183Z</time></trkpt><trkpt lat="39.3645057" lon="17.1135527"><ele>23.0</ele><time>2026-03-28T16:38:41.183Z</time></trkpt><trkpt lat="39.364612" lon="17.1135941"><ele>23.0</ele><time>2026-03-28T16:38:42.182Z</time></trkpt><trkpt lat="39.3647225" lon="17.1136486"><ele>23.0</ele><time>2026-03-28T16:38:43.205Z</time></trkpt><trkpt lat="39.364833" lon="17.113708"><ele>24.0</ele><time>2026-03-28T16:38:44.182Z</time></trkpt><trkpt lat="39.3649476" lon="17.1137822"><ele>25.0</ele><time>2026-03-28T16:38:45.185Z</time></trkpt><trkpt lat="39.3650632" lon="17.1138458"><ele>26.0</ele><time>2026-03-28T16:38:46.178Z</time></trkpt><trkpt lat="39.3651816" lon="17.1139114"><ele>27.0</ele><time>2026-03-28T16:38:47.185Z</time></trkpt><trkpt lat="39.3653037" lon="17.1139789"><ele>27.0</ele><time>2026-03-28T16:38:48.179Z</time></trkpt><trkpt lat="39.365428" lon="17.1140502"><ele>27.0</ele><time>2026-03-28T16:38:49.202Z</time></trkpt><trkpt lat="39.3655525" lon="17.1141194"><ele>27.0</ele><time>2026-03-28T16:38:50.189Z</time></trkpt><trkpt lat="39.36567" lon="17.114186"><ele>27.0</ele><time>2026-03-28T16:38:51.182Z</time></trkpt><trkpt lat="39.3657843" lon="17.1142473"><ele>26.200000000000003</ele><time>2026-03-28T16:38:52.181Z</time></trkpt><trkpt lat="39.3658941" lon="17.1143022"><ele>25.400000000000002</ele><time>2026-03-28T16:38:53.185Z</time></trkpt><trkpt lat="39.3659957" lon="17.1143524"><ele>24.6</ele><time>2026-03-28T16:38:54.179Z</time></trkpt><trkpt lat="39.3660947" lon="17.1144013"><ele>23.799999999999997</ele><time>2026-03-28T16:38:55.182Z</time></trkpt><trkpt lat="39.3661917" lon="17.1144507"><ele>23.0</ele><time>2026-03-28T16:38:56.183Z</time></trkpt><trkpt lat="39.3662888" lon="17.1144976"><ele>22.799999999999997</ele><time>2026-03-28T16:38:57.18Z</time></trkpt><trkpt lat="39.366385" lon="17.1145423"><ele>22.6</ele><time>2026-03-28T16:38:58.185Z</time></trkpt><trkpt lat="39.3664747" lon="17.1145788"><ele>22.4</ele><time>2026-03-28T16:38:59.183Z</time></trkpt><trkpt lat="39.3665618" lon="17.1146198"><ele>22.200000000000003</ele><time>2026-03-28T16:39:00.214Z</time></trkpt><trkpt lat="39.3666433" lon="17.1146564"><ele>22.0</ele><time>2026-03-28T16:39:01.181Z</time></trkpt><trkpt lat="39.3667241" lon="17.1146922"><ele>22.0</ele><time>2026-03-28T16:39:02.184Z</time></trkpt><trkpt lat="39.3668055" lon="17.1147207"><ele>22.0</ele><time>2026-03-28T16:39:03.185Z</time></trkpt><trkpt lat="39.3668777" lon="17.1147365"><ele>22.0</ele><time>2026-03-28T16:39:04.182Z</time></trkpt><trkpt lat="39.3669838" lon="17.114781"><ele>22.0</ele><time>2026-03-28T16:39:06.186Z</time></trkpt><trkpt lat="39.3670534" lon="17.1148321"><ele>22.0</ele><time>2026-03-28T16:39:08.184Z</time></trkpt><trkpt lat="39.3671148" lon="17.1148672"><ele>22.0</ele><time>2026-03-28T16:39:10.184Z</time></trkpt><trkpt lat="39.3671745" lon="17.1148997"><ele>22.0</ele><time>2026-03-28T16:39:15.187Z</time></trkpt><trkpt lat="39.3672367" lon="17.114923"><ele>22.0</ele><time>2026-03-28T16:39:31.185Z</time></trkpt><trkpt lat="39.3673239" lon="17.1149702"><ele>22.0</ele><time>2026-03-28T16:39:51.182Z</time></trkpt><trkpt lat="39.3673837" lon="17.1150098"><ele>22.0</ele><time>2026-03-28T16:39:53.185Z</time></trkpt><trkpt lat="39.3674482" lon="17.1150892"><ele>22.0</ele><time>2026-03-28T16:39:56.189Z</time></trkpt><trkpt lat="39.3674416" lon="17.1151767"><ele>22.0</ele><time>2026-03-28T16:39:58.182Z</time></trkpt><trkpt lat="39.3673447" lon="17.1152546"><ele>22.0</ele><time>2026-03-28T16:40:00.181Z</time></trkpt><trkpt lat="39.3672642" lon="17.1153533"><ele>22.0</ele><time>2026-03-28T16:40:02.185Z</time></trkpt><trkpt lat="39.3671904" lon="17.1154491"><ele>22.0</ele><time>2026-03-28T16:40:04.187Z</time></trkpt><trkpt lat="39.3671145" lon="17.1155589"><ele>22.0</ele><time>2026-03-28T16:40:06.186Z</time></trkpt><trkpt lat="39.3670226" lon="17.1156695"><ele>21.6</ele><time>2026-03-28T16:40:08.191Z</time></trkpt><trkpt lat="39.3669719" lon="17.1157285"><ele>21.200000000000003</ele><time>2026-03-28T16:40:09.184Z</time></trkpt><trkpt lat="39.3669206" lon="17.1157879"><ele>20.8</ele><time>2026-03-28T16:40:10.215Z</time></trkpt><trkpt lat="39.3668382" lon="17.1158999"><ele>20.4</ele><time>2026-03-28T16:40:12.197Z</time></trkpt><trkpt lat="39.3667723" lon="17.1160199"><ele>20.0</ele><time>2026-03-28T16:40:14.187Z</time></trkpt><trkpt lat="39.36671" lon="17.1161493"><ele>19.333333333333336</ele><time>2026-03-28T16:40:16.187Z</time></trkpt><trkpt lat="39.3666804" lon="17.1162271"><ele>18.666666666666668</ele><time>2026-03-28T16:40:17.182Z</time></trkpt><trkpt lat="39.366657" lon="17.1163174"><ele>18.0</ele><time>2026-03-28T16:40:18.184Z</time></trkpt><trkpt lat="39.3666445" lon="17.1164211"><ele>17.333333333333332</ele><time>2026-03-28T16:40:19.185Z</time></trkpt><trkpt lat="39.3666461" lon="17.116528"><ele>16.666666666666664</ele><time>2026-03-28T16:40:20.182Z</time></trkpt><trkpt lat="39.3666636" lon="17.1166264"><ele>16.0</ele><time>2026-03-28T16:40:21.185Z</time></trkpt><trkpt lat="39.3666886" lon="17.1167091"><ele>15.600000000000001</ele><time>2026-03-28T16:40:22.183Z</time></trkpt><trkpt lat="39.3667158" lon="17.1167827"><ele>15.200000000000001</ele><time>2026-03-28T16:40:23.204Z</time></trkpt><trkpt lat="39.3667687" lon="17.1169206"><ele>14.799999999999999</ele><time>2026-03-28T16:40:25.183Z</time></trkpt><trkpt lat="39.366807" lon="17.1170431"><ele>14.399999999999999</ele><time>2026-03-28T16:40:27.181Z</time></trkpt><trkpt lat="39.3668504" lon="17.1171752"><ele>14.0</ele><time>2026-03-28T16:40:29.188Z</time></trkpt><trkpt lat="39.3668777" lon="17.1172596"><ele>14.0</ele><time>2026-03-28T16:40:30.188Z</time></trkpt><trkpt lat="39.3669061" lon="17.1173718"><ele>13.999999999999998</ele><time>2026-03-28T16:40:31.182Z</time></trkpt><trkpt lat="39.3669333" lon="17.1175111"><ele>13.999999999999998</ele><time>2026-03-28T16:40:32.185Z</time></trkpt><trkpt lat="39.3669576" lon="17.11765"><ele>14.0</ele><time>2026-03-28T16:40:33.181Z</time></trkpt><trkpt lat="39.3669793" lon="17.1177702"><ele>14.0</ele><time>2026-03-28T16:40:34.179Z</time></trkpt><trkpt lat="39.3669964" lon="17.1178731"><ele>13.833333333333334</ele><time>2026-03-28T16:40:35.187Z</time></trkpt><trkpt lat="39.3670094" lon="17.1179678"><ele>13.666666666666668</ele><time>2026-03-28T16:40:36.187Z</time></trkpt><trkpt lat="39.3670229" lon="17.118064"><ele>13.5</ele><time>2026-03-28T16:40:37.183Z</time></trkpt><trkpt lat="39.367037" lon="17.1181647"><ele>13.333333333333332</ele><time>2026-03-28T16:40:38.212Z</time></trkpt><trkpt lat="39.3670501" lon="17.1182622"><ele>13.166666666666666</ele><time>2026-03-28T16:40:39.187Z</time></trkpt><trkpt lat="39.3670605" lon="17.1183576"><ele>13.0</ele><time>2026-03-28T16:40:40.186Z</time></trkpt><trkpt lat="39.3670694" lon="17.1184503"><ele>12.333333333333332</ele><time>2026-03-28T16:40:41.185Z</time></trkpt><trkpt lat="39.3670815" lon="17.1185428"><ele>11.666666666666666</ele><time>2026-03-28T16:40:42.19Z</time></trkpt><trkpt lat="39.3670965" lon="17.1186373"><ele>11.0</ele><time>2026-03-28T16:40:43.187Z</time></trkpt><trkpt lat="39.3671102" lon="17.1187361"><ele>10.333333333333332</ele><time>2026-03-28T16:40:44.207Z</time></trkpt><trkpt lat="39.3671227" lon="17.118837"><ele>9.666666666666666</ele><time>2026-03-28T16:40:45.185Z</time></trkpt><trkpt lat="39.3671377" lon="17.1189382"><ele>9.0</ele><time>2026-03-28T16:40:46.184Z</time></trkpt><trkpt lat="39.3671539" lon="17.1190253"><ele>8.8</ele><time>2026-03-28T16:40:47.186Z</time></trkpt><trkpt lat="39.3671775" lon="17.1191496"><ele>8.600000000000001</ele><time>2026-03-28T16:40:49.203Z</time></trkpt><trkpt lat="39.3671958" lon="17.1192732"><ele>8.4</ele><time>2026-03-28T16:40:51.188Z</time></trkpt><trkpt lat="39.3672133" lon="17.1194193"><ele>8.200000000000001</ele><time>2026-03-28T16:40:53.184Z</time></trkpt><trkpt lat="39.3672344" lon="17.1195785"><ele>8.0</ele><time>2026-03-28T16:40:55.183Z</time></trkpt><trkpt lat="39.3672473" lon="17.119664"><ele>8.4</ele><time>2026-03-28T16:40:56.186Z</time></trkpt><trkpt lat="39.3672596" lon="17.1197449"><ele>8.8</ele><time>2026-03-28T16:40:57.187Z</time></trkpt><trkpt lat="39.3672799" lon="17.1198854"><ele>9.2</ele><time>2026-03-28T16:40:59.202Z</time></trkpt><trkpt lat="39.367302" lon="17.1200429"><ele>9.6</ele><time>2026-03-28T16:41:01.181Z</time></trkpt><trkpt lat="39.3673145" lon="17.1201403"><ele>10.0</ele><time>2026-03-28T16:41:02.182Z</time></trkpt><trkpt lat="39.3673272" lon="17.1202459"><ele>10.0</ele><time>2026-03-28T16:41:03.182Z</time></trkpt><trkpt lat="39.3673415" lon="17.1203538"><ele>10.0</ele><time>2026-03-28T16:41:04.181Z</time></trkpt><trkpt lat="39.367358" lon="17.1204596"><ele>10.0</ele><time>2026-03-28T16:41:05.181Z</time></trkpt><trkpt lat="39.3673734" lon="17.1205645"><ele>10.0</ele><time>2026-03-28T16:41:06.182Z</time></trkpt><trkpt lat="39.367387" lon="17.1206634"><ele>10.0</ele><time>2026-03-28T16:41:07.186Z</time></trkpt><trkpt lat="39.3673983" lon="17.1207467"><ele>10.0</ele><time>2026-03-28T16:41:08.181Z</time></trkpt><trkpt lat="39.3674161" lon="17.1208837"><ele>9.666666666666668</ele><time>2026-03-28T16:41:10.185Z</time></trkpt><trkpt lat="39.3674284" lon="17.1209647"><ele>9.333333333333334</ele><time>2026-03-28T16:41:11.183Z</time></trkpt><trkpt lat="39.3674419" lon="17.1210478"><ele>9.0</ele><time>2026-03-28T16:41:12.177Z</time></trkpt><trkpt lat="39.3674626" lon="17.1211867"><ele>8.666666666666666</ele><time>2026-03-28T16:41:14.18Z</time></trkpt><trkpt lat="39.3674776" lon="17.1213046"><ele>8.333333333333332</ele><time>2026-03-28T16:41:16.182Z</time></trkpt><trkpt lat="39.3674974" lon="17.1214352"><ele>8.0</ele><time>2026-03-28T16:41:18.18Z</time></trkpt><trkpt lat="39.3675151" lon="17.1215595"><ele>8.166666666666666</ele><time>2026-03-28T16:41:20.179Z</time></trkpt><trkpt lat="39.3675291" lon="17.1216663"><ele>8.333333333333332</ele><time>2026-03-28T16:41:22.188Z</time></trkpt><trkpt lat="39.3675438" lon="17.1217682"><ele>8.5</ele><time>2026-03-28T16:41:24.183Z</time></trkpt><trkpt lat="39.3675557" lon="17.1218524"><ele>8.666666666666666</ele><time>2026-03-28T16:41:26.187Z</time></trkpt><trkpt lat="39.3675675" lon="17.121934"><ele>8.833333333333334</ele><time>2026-03-28T16:41:28.182Z</time></trkpt><trkpt lat="39.3675855" lon="17.1220557"><ele>9.0</ele><time>2026-03-28T16:41:31.183Z</time></trkpt><trkpt lat="39.3675987" lon="17.1221482"><ele>9.0</ele><time>2026-03-28T16:41:33.202Z</time></trkpt><trkpt lat="39.3676095" lon="17.1222306"><ele>9.0</ele><time>2026-03-28T16:41:35.182Z</time></trkpt><trkpt lat="39.3676238" lon="17.1223318"><ele>9.0</ele><time>2026-03-28T16:41:37.184Z</time></trkpt><trkpt lat="39.367636" lon="17.1224234"><ele>9.0</ele><time>2026-03-28T16:41:39.181Z</time></trkpt><trkpt lat="39.3676527" lon="17.1225431"><ele>9.0</ele><time>2026-03-28T16:41:42.184Z</time></trkpt><trkpt lat="39.3676675" lon="17.1226328"><ele>9.0</ele><time>2026-03-28T16:41:44.18Z</time></trkpt><trkpt lat="39.3676794" lon="17.1227205"><ele>9.166666666666666</ele><time>2026-03-28T16:41:46.186Z</time></trkpt><trkpt lat="39.36769" lon="17.1228034"><ele>9.333333333333334</ele><time>2026-03-28T16:41:48.182Z</time></trkpt><trkpt lat="39.3677066" lon="17.1229215"><ele>9.5</ele><time>2026-03-28T16:41:51.182Z</time></trkpt><trkpt lat="39.3677224" lon="17.1230406"><ele>9.666666666666668</ele><time>2026-03-28T16:41:54.182Z</time></trkpt><trkpt lat="39.3677339" lon="17.1231271"><ele>9.833333333333334</ele><time>2026-03-28T16:41:56.184Z</time></trkpt><trkpt lat="39.3677471" lon="17.1232235"><ele>10.0</ele><time>2026-03-28T16:41:58.183Z</time></trkpt><trkpt lat="39.3677604" lon="17.1233234"><ele>10.0</ele><time>2026-03-28T16:42:00.201Z</time></trkpt><trkpt lat="39.3677714" lon="17.1234104"><ele>10.0</ele><time>2026-03-28T16:42:02.19Z</time></trkpt><trkpt lat="39.3677687" lon="17.1235273"><ele>10.0</ele><time>2026-03-28T16:42:05.199Z</time></trkpt><trkpt lat="39.3677816" lon="17.1236346"><ele>10.0</ele><time>2026-03-28T16:42:08.181Z</time></trkpt><trkpt lat="39.3677955" lon="17.1237174"><ele>10.0</ele><time>2026-03-28T16:42:10.205Z</time></trkpt><trkpt lat="39.3678085" lon="17.1238021"><ele>10.0</ele><time>2026-03-28T16:42:12.185Z</time></trkpt><trkpt lat="39.3678077" lon="17.1238991"><ele>10.0</ele><time>2026-03-28T16:42:15.182Z</time></trkpt><trkpt lat="39.3678144" lon="17.124039"><ele>10.0</ele><time>2026-03-28T16:42:17.179Z</time></trkpt><trkpt lat="39.3678445" lon="17.1241323"><ele>10.0</ele><time>2026-03-28T16:42:18.191Z</time></trkpt><trkpt lat="39.3678752" lon="17.1242211"><ele>10.0</ele><time>2026-03-28T16:42:19.178Z</time></trkpt><trkpt lat="39.3679062" lon="17.1243454"><ele>10.0</ele><time>2026-03-28T16:42:21.183Z</time></trkpt><trkpt lat="39.3679158" lon="17.1244306"><ele>10.0</ele><time>2026-03-28T16:42:23.187Z</time></trkpt><trkpt lat="39.3679291" lon="17.1245309"><ele>10.0</ele><time>2026-03-28T16:42:25.2Z</time></trkpt><trkpt lat="39.3679475" lon="17.1246441"><ele>10.0</ele><time>2026-03-28T16:42:28.182Z</time></trkpt><trkpt lat="39.3679642" lon="17.1247385"><ele>10.0</ele><time>2026-03-28T16:42:30.183Z</time></trkpt><trkpt lat="39.3679752" lon="17.1248392"><ele>10.0</ele><time>2026-03-28T16:42:33.18Z</time></trkpt><trkpt lat="39.3680032" lon="17.1249531"><ele>10.0</ele><time>2026-03-28T16:42:50.181Z</time></trkpt><trkpt lat="39.3680221" lon="17.1250963"><ele>10.0</ele><time>2026-03-28T16:42:52.2Z</time></trkpt><trkpt lat="39.3680321" lon="17.1251851"><ele>10.0</ele><time>2026-03-28T16:42:53.183Z</time></trkpt><trkpt lat="39.3680451" lon="17.125284"><ele>10.0</ele><time>2026-03-28T16:42:54.18Z</time></trkpt><trkpt lat="39.3680685" lon="17.1254297"><ele>10.0</ele><time>2026-03-28T16:42:55.185Z</time></trkpt><trkpt lat="39.3680916" lon="17.1255879"><ele>10.0</ele><time>2026-03-28T16:42:56.183Z</time></trkpt><trkpt lat="39.3681123" lon="17.1257294"><ele>10.0</ele><time>2026-03-28T16:42:57.181Z</time></trkpt><trkpt lat="39.3681318" lon="17.1258642"><ele>10.0</ele><time>2026-03-28T16:42:58.185Z</time></trkpt><trkpt lat="39.3681499" lon="17.1259779"><ele>10.0</ele><time>2026-03-28T16:42:59.179Z</time></trkpt><trkpt lat="39.368163" lon="17.1260702"><ele>10.0</ele><time>2026-03-28T16:43:00.204Z</time></trkpt><trkpt lat="39.3681801" lon="17.1262018"><ele>10.0</ele><time>2026-03-28T16:43:02.183Z</time></trkpt><trkpt lat="39.3681911" lon="17.1263084"><ele>10.0</ele><time>2026-03-28T16:43:05.2Z</time></trkpt><trkpt lat="39.3682051" lon="17.1263896"><ele>10.0</ele><time>2026-03-28T16:43:09.187Z</time></trkpt><trkpt lat="39.3682236" lon="17.1265036"><ele>9.833333333333334</ele><time>2026-03-28T16:43:13.186Z</time></trkpt><trkpt lat="39.3682448" lon="17.1266113"><ele>9.666666666666668</ele><time>2026-03-28T16:43:16.185Z</time></trkpt><trkpt lat="39.3682632" lon="17.1267063"><ele>9.5</ele><time>2026-03-28T16:43:18.183Z</time></trkpt><trkpt lat="39.3682806" lon="17.1268356"><ele>9.333333333333334</ele><time>2026-03-28T16:43:20.186Z</time></trkpt><trkpt lat="39.3682924" lon="17.1269459"><ele>9.166666666666666</ele><time>2026-03-28T16:43:22.182Z</time></trkpt><trkpt lat="39.3683035" lon="17.1270282"><ele>9.0</ele><time>2026-03-28T16:43:24.195Z</time></trkpt><trkpt lat="39.3683197" lon="17.1271501"><ele>9.0</ele><time>2026-03-28T16:43:26.184Z</time></trkpt><trkpt lat="39.3683289" lon="17.1272504"><ele>9.0</ele><time>2026-03-28T16:43:27.178Z</time></trkpt><trkpt lat="39.3683384" lon="17.1273523"><ele>9.0</ele><time>2026-03-28T16:43:28.182Z</time></trkpt><trkpt lat="39.3683506" lon="17.1274437"><ele>9.0</ele><time>2026-03-28T16:43:29.187Z</time></trkpt><trkpt lat="39.3683719" lon="17.1275884"><ele>9.0</ele><time>2026-03-28T16:43:31.183Z</time></trkpt><trkpt lat="39.3683855" lon="17.1277065"><ele>9.0</ele><time>2026-03-28T16:43:33.189Z</time></trkpt><trkpt lat="39.3683996" lon="17.1278274"><ele>9.0</ele><time>2026-03-28T16:43:35.183Z</time></trkpt><trkpt lat="39.3684135" lon="17.1279147"><ele>9.0</ele><time>2026-03-28T16:43:37.19Z</time></trkpt><trkpt lat="39.3684299" lon="17.1280133"><ele>9.0</ele><time>2026-03-28T16:43:40.205Z</time></trkpt><trkpt lat="39.368445" lon="17.1281308"><ele>9.0</ele><time>2026-03-28T16:43:43.19Z</time></trkpt><trkpt lat="39.3684614" lon="17.1282248"><ele>9.0</ele><time>2026-03-28T16:43:45.186Z</time></trkpt><trkpt lat="39.3684814" lon="17.1283487"><ele>9.0</ele><time>2026-03-28T16:43:47.182Z</time></trkpt><trkpt lat="39.3685018" lon="17.128501"><ele>8.833333333333334</ele><time>2026-03-28T16:43:49.204Z</time></trkpt><trkpt lat="39.3685228" lon="17.1286614"><ele>8.666666666666666</ele><time>2026-03-28T16:43:51.181Z</time></trkpt><trkpt lat="39.3685364" lon="17.1287434"><ele>8.5</ele><time>2026-03-28T16:43:52.182Z</time></trkpt><trkpt lat="39.3685508" lon="17.128903"><ele>8.333333333333332</ele><time>2026-03-28T16:43:54.203Z</time></trkpt><trkpt lat="39.3685638" lon="17.1289828"><ele>8.166666666666666</ele><time>2026-03-28T16:43:55.189Z</time></trkpt><trkpt lat="39.3685788" lon="17.1290647"><ele>8.0</ele><time>2026-03-28T16:43:56.182Z</time></trkpt><trkpt lat="39.3686" lon="17.1292173"><ele>8.0</ele><time>2026-03-28T16:43:58.184Z</time></trkpt><trkpt lat="39.3686154" lon="17.1293487"><ele>8.0</ele><time>2026-03-28T16:44:00.185Z</time></trkpt><trkpt lat="39.3686317" lon="17.1294702"><ele>8.0</ele><time>2026-03-28T16:44:02.188Z</time></trkpt><trkpt lat="39.3686515" lon="17.1296046"><ele>8.0</ele><time>2026-03-28T16:44:04.185Z</time></trkpt><trkpt lat="39.3686749" lon="17.1297563"><ele>8.0</ele><time>2026-03-28T16:44:06.187Z</time></trkpt><trkpt lat="39.3686955" lon="17.1298994"><ele>7.666666666666666</ele><time>2026-03-28T16:44:08.187Z</time></trkpt><trkpt lat="39.3687084" lon="17.1300121"><ele>7.333333333333333</ele><time>2026-03-28T16:44:10.179Z</time></trkpt><trkpt lat="39.3687226" lon="17.1301036"><ele>7.0</ele><time>2026-03-28T16:44:12.208Z</time></trkpt><trkpt lat="39.3687339" lon="17.1302022"><ele>6.666666666666666</ele><time>2026-03-28T16:44:14.186Z</time></trkpt><trkpt lat="39.3687439" lon="17.130286"><ele>6.333333333333333</ele><time>2026-03-28T16:44:16.187Z</time></trkpt><trkpt lat="39.3687604" lon="17.1303974"><ele>6.0</ele><time>2026-03-28T16:44:19.184Z</time></trkpt><trkpt lat="39.3687775" lon="17.130497"><ele>6.0</ele><time>2026-03-28T16:44:21.203Z</time></trkpt><trkpt lat="39.3687916" lon="17.1306174"><ele>6.0</ele><time>2026-03-28T16:44:23.185Z</time></trkpt><trkpt lat="39.3687968" lon="17.1307131"><ele>6.0</ele><time>2026-03-28T16:44:25.185Z</time></trkpt><trkpt lat="39.3687988" lon="17.1308056"><ele>6.0</ele><time>2026-03-28T16:44:28.183Z</time></trkpt><trkpt lat="39.3688281" lon="17.1309236"><ele>6.0</ele><time>2026-03-28T16:44:40.185Z</time></trkpt><trkpt lat="39.3688452" lon="17.1310081"><ele>6.0</ele><time>2026-03-28T16:44:41.182Z</time></trkpt><trkpt lat="39.3688677" lon="17.1311537"><ele>6.0</ele><time>2026-03-28T16:44:42.182Z</time></trkpt><trkpt lat="39.3688902" lon="17.1313214"><ele>6.0</ele><time>2026-03-28T16:44:43.183Z</time></trkpt><trkpt lat="39.3689098" lon="17.131466"><ele>6.0</ele><time>2026-03-28T16:44:44.177Z</time></trkpt><trkpt lat="39.3689271" lon="17.1315865"><ele>6.0</ele><time>2026-03-28T16:44:45.18Z</time></trkpt><trkpt lat="39.3689426" lon="17.1316868"><ele>6.0</ele><time>2026-03-28T16:44:46.181Z</time></trkpt><trkpt lat="39.3689565" lon="17.1317695"><ele>6.0</ele><time>2026-03-28T16:44:47.183Z</time></trkpt><trkpt lat="39.3689776" lon="17.131887"><ele>6.0</ele><time>2026-03-28T16:44:49.179Z</time></trkpt><trkpt lat="39.3689944" lon="17.1319834"><ele>6.0</ele><time>2026-03-28T16:44:51.185Z</time></trkpt><trkpt lat="39.3690061" lon="17.1320899"><ele>6.0</ele><time>2026-03-28T16:44:53.182Z</time></trkpt><trkpt lat="39.3690166" lon="17.1321988"><ele>6.0</ele><time>2026-03-28T16:44:55.183Z</time></trkpt><trkpt lat="39.369023" lon="17.1322938"><ele>6.0</ele><time>2026-03-28T16:44:57.194Z</time></trkpt><trkpt lat="39.3690242" lon="17.1323878"><ele>6.333333333333333</ele><time>2026-03-28T16:45:00.182Z</time></trkpt><trkpt lat="39.3690202" lon="17.1324792"><ele>6.666666666666666</ele><time>2026-03-28T16:45:06.185Z</time></trkpt><trkpt lat="39.3690473" lon="17.1325751"><ele>7.0</ele><time>2026-03-28T16:45:20.184Z</time></trkpt><trkpt lat="39.369105" lon="17.1326353"><ele>7.333333333333333</ele><time>2026-03-28T16:45:22.189Z</time></trkpt><trkpt lat="39.3691681" lon="17.1326695"><ele>7.666666666666666</ele><time>2026-03-28T16:45:24.187Z</time></trkpt><trkpt lat="39.3692575" lon="17.1326958"><ele>8.0</ele><time>2026-03-28T16:45:27.189Z</time></trkpt><trkpt lat="39.369321" lon="17.1327248"><ele>7.999999999999999</ele><time>2026-03-28T16:45:29.183Z</time></trkpt><trkpt lat="39.3693585" lon="17.1328052"><ele>8.0</ele><time>2026-03-28T16:45:31.182Z</time></trkpt><trkpt lat="39.3693546" lon="17.1328956"><ele>8.0</ele><time>2026-03-28T16:45:33.184Z</time></trkpt><trkpt lat="39.3693496" lon="17.1329782"><ele>8.0</ele><time>2026-03-28T16:45:36.204Z</time></trkpt><trkpt lat="39.3693433" lon="17.1330869"><ele>7.999999999999999</ele><time>2026-03-28T16:45:39.214Z</time></trkpt><trkpt lat="39.3693048" lon="17.1331955"><ele>8.0</ele><time>2026-03-28T16:45:42.212Z</time></trkpt><trkpt lat="39.3692124" lon="17.1332516"><ele>7.999999999999999</ele><time>2026-03-28T16:45:44.205Z</time></trkpt><trkpt lat="39.3691445" lon="17.1332479"><ele>8.0</ele><time>2026-03-28T16:45:45.206Z</time></trkpt><trkpt lat="39.3690664" lon="17.133231"><ele>8.0</ele><time>2026-03-28T16:45:46.202Z</time></trkpt><trkpt lat="39.3689739" lon="17.133197"><ele>8.0</ele><time>2026-03-28T16:45:47.206Z</time></trkpt><trkpt lat="39.3688686" lon="17.1331702"><ele>7.999999999999999</ele><time>2026-03-28T16:45:48.204Z</time></trkpt><trkpt lat="39.3687748" lon="17.1331508"><ele>8.0</ele><time>2026-03-28T16:45:49.226Z</time></trkpt><trkpt lat="39.3686993" lon="17.1331362"><ele>7.999999999999999</ele><time>2026-03-28T16:45:50.202Z</time></trkpt><trkpt lat="39.3686338" lon="17.1331221"><ele>8.0</ele><time>2026-03-28T16:45:51.205Z</time></trkpt><trkpt lat="39.3685709" lon="17.1331127"><ele>8.0</ele><time>2026-03-28T16:45:52.215Z</time></trkpt><trkpt lat="39.3684706" lon="17.1331041"><ele>8.0</ele><time>2026-03-28T16:45:54.209Z</time></trkpt><trkpt lat="39.3683766" lon="17.133099"><ele>7.999999999999999</ele><time>2026-03-28T16:45:56.199Z</time></trkpt><trkpt lat="39.3682682" lon="17.1330879"><ele>8.0</ele><time>2026-03-28T16:45:58.203Z</time></trkpt><trkpt lat="39.3681597" lon="17.1330769"><ele>8.0</ele><time>2026-03-28T16:46:00.211Z</time></trkpt><trkpt lat="39.368059" lon="17.133069"><ele>8.0</ele><time>2026-03-28T16:46:02.201Z</time></trkpt><trkpt lat="39.3679761" lon="17.1330596"><ele>8.0</ele><time>2026-03-28T16:46:04.205Z</time></trkpt><trkpt lat="39.3678715" lon="17.1330556"><ele>8.0</ele><time>2026-03-28T16:46:06.212Z</time></trkpt><trkpt lat="39.367766" lon="17.13305"><ele>8.0</ele><time>2026-03-28T16:46:08.216Z</time></trkpt><trkpt lat="39.3676897" lon="17.1330504"><ele>7.999999999999999</ele><time>2026-03-28T16:46:09.208Z</time></trkpt><trkpt lat="39.3675966" lon="17.1330517"><ele>8.0</ele><time>2026-03-28T16:46:10.208Z</time></trkpt><trkpt lat="39.3675085" lon="17.1330513"><ele>8.0</ele><time>2026-03-28T16:46:11.217Z</time></trkpt><trkpt lat="39.367429" lon="17.1330489"><ele>8.0</ele><time>2026-03-28T16:46:12.205Z</time></trkpt><trkpt lat="39.3673554" lon="17.133045"><ele>7.999999999999999</ele><time>2026-03-28T16:46:13.216Z</time></trkpt><trkpt lat="39.3672884" lon="17.13304"><ele>8.0</ele><time>2026-03-28T16:46:14.209Z</time></trkpt><trkpt lat="39.3671684" lon="17.1330315"><ele>7.999999999999999</ele><time>2026-03-28T16:46:16.209Z</time></trkpt><trkpt lat="39.3671007" lon="17.1330343"><ele>8.0</ele><time>2026-03-28T16:46:17.205Z</time></trkpt><trkpt lat="39.367029" lon="17.1330384"><ele>8.0</ele><time>2026-03-28T16:46:18.209Z</time></trkpt><trkpt lat="39.3669608" lon="17.1330398"><ele>8.0</ele><time>2026-03-28T16:46:19.21Z</time></trkpt><trkpt lat="39.366897" lon="17.1330385"><ele>7.999999999999999</ele><time>2026-03-28T16:46:20.206Z</time></trkpt><trkpt lat="39.3667774" lon="17.1330353"><ele>8.0</ele><time>2026-03-28T16:46:22.196Z</time></trkpt><trkpt lat="39.3666875" lon="17.1330344"><ele>8.0</ele><time>2026-03-28T16:46:24.228Z</time></trkpt><trkpt lat="39.3666244" lon="17.1330354"><ele>8.0</ele><time>2026-03-28T16:46:26.213Z</time></trkpt><trkpt lat="39.3665216" lon="17.1330352"><ele>8.0</ele><time>2026-03-28T16:46:29.206Z</time></trkpt><trkpt lat="39.3664494" lon="17.133043"><ele>8.0</ele><time>2026-03-28T16:46:30.203Z</time></trkpt><trkpt lat="39.3663352" lon="17.1330436"><ele>8.0</ele><time>2026-03-28T16:46:31.208Z</time></trkpt><trkpt lat="39.3662017" lon="17.1330397"><ele>7.4</ele><time>2026-03-28T16:46:32.202Z</time></trkpt><trkpt lat="39.3660815" lon="17.1330358"><ele>6.800000000000001</ele><time>2026-03-28T16:46:33.208Z</time></trkpt><trkpt lat="39.3659809" lon="17.1330302"><ele>6.2</ele><time>2026-03-28T16:46:34.215Z</time></trkpt><trkpt lat="39.365892" lon="17.1330215"><ele>5.6</ele><time>2026-03-28T16:46:35.205Z</time></trkpt><trkpt lat="39.3658115" lon="17.1330121"><ele>5.0</ele><time>2026-03-28T16:46:36.206Z</time></trkpt><trkpt lat="39.3657288" lon="17.1330038"><ele>5.0</ele><time>2026-03-28T16:46:37.219Z</time></trkpt><trkpt lat="39.3656435" lon="17.1329984"><ele>5.0</ele><time>2026-03-28T16:46:38.206Z</time></trkpt><trkpt lat="39.3655551" lon="17.1329892"><ele>5.0</ele><time>2026-03-28T16:46:39.215Z</time></trkpt><trkpt lat="39.3654653" lon="17.1329766"><ele>5.0</ele><time>2026-03-28T16:46:40.236Z</time></trkpt><trkpt lat="39.3653779" lon="17.1329685"><ele>5.0</ele><time>2026-03-28T16:46:41.218Z</time></trkpt><trkpt lat="39.3652936" lon="17.1329645"><ele>5.0</ele><time>2026-03-28T16:46:42.208Z</time></trkpt><trkpt lat="39.3652101" lon="17.132957"><ele>5.0</ele><time>2026-03-28T16:46:43.21Z</time></trkpt><trkpt lat="39.3651323" lon="17.1329493"><ele>5.0</ele><time>2026-03-28T16:46:44.21Z</time></trkpt><trkpt lat="39.3650558" lon="17.1329412"><ele>5.0</ele><time>2026-03-28T16:46:45.213Z</time></trkpt><trkpt lat="39.364981" lon="17.1329349"><ele>5.0</ele><time>2026-03-28T16:46:46.211Z</time></trkpt><trkpt lat="39.3649067" lon="17.1329287"><ele>5.0</ele><time>2026-03-28T16:46:47.2Z</time></trkpt><trkpt lat="39.3648344" lon="17.1329233"><ele>5.0</ele><time>2026-03-28T16:46:48.207Z</time></trkpt><trkpt lat="39.3647664" lon="17.1329168"><ele>5.0</ele><time>2026-03-28T16:46:49.211Z</time></trkpt><trkpt lat="39.3646356" lon="17.1328959"><ele>4.833333333333334</ele><time>2026-03-28T16:46:51.228Z</time></trkpt><trkpt lat="39.3645504" lon="17.1328835"><ele>4.666666666666667</ele><time>2026-03-28T16:46:52.212Z</time></trkpt><trkpt lat="39.3644636" lon="17.132873"><ele>4.5</ele><time>2026-03-28T16:46:53.215Z</time></trkpt><trkpt lat="39.3643836" lon="17.1328618"><ele>4.333333333333333</ele><time>2026-03-28T16:46:54.211Z</time></trkpt><trkpt lat="39.3643097" lon="17.1328511"><ele>4.166666666666666</ele><time>2026-03-28T16:46:55.216Z</time></trkpt><trkpt lat="39.3642021" lon="17.1328372"><ele>4.0</ele><time>2026-03-28T16:46:57.212Z</time></trkpt><trkpt lat="39.3641017" lon="17.1328276"><ele>4.0</ele><time>2026-03-28T16:46:59.229Z</time></trkpt><trkpt lat="39.3639951" lon="17.1328157"><ele>4.0</ele><time>2026-03-28T16:47:01.22Z</time></trkpt><trkpt lat="39.363919" lon="17.1327891"><ele>4.0</ele><time>2026-03-28T16:47:03.212Z</time></trkpt><trkpt lat="39.3638415" lon="17.1327052"><ele>4.0</ele><time>2026-03-28T16:47:05.212Z</time></trkpt><trkpt lat="39.36381" lon="17.1326272"><ele>4.0</ele><time>2026-03-28T16:47:06.209Z</time></trkpt><trkpt lat="39.3637858" lon="17.1324777"><ele>4.333333333333333</ele><time>2026-03-28T16:47:08.217Z</time></trkpt><trkpt lat="39.3637652" lon="17.1323556"><ele>4.666666666666666</ele><time>2026-03-28T16:47:10.214Z</time></trkpt><trkpt lat="39.3637258" lon="17.1322437"><ele>5.0</ele><time>2026-03-28T16:47:12.21Z</time></trkpt><trkpt lat="39.363688" lon="17.1321547"><ele>5.333333333333333</ele><time>2026-03-28T16:47:14.206Z</time></trkpt><trkpt lat="39.3636581" lon="17.1320555"><ele>5.666666666666667</ele><time>2026-03-28T16:47:16.21Z</time></trkpt><trkpt lat="39.363614" lon="17.1319466"><ele>6.0</ele><time>2026-03-28T16:47:18.221Z</time></trkpt><trkpt lat="39.3635178" lon="17.1318837"><ele>6.0</ele><time>2026-03-28T16:47:20.22Z</time></trkpt><trkpt lat="39.363449" lon="17.1318995"><ele>6.0</ele><time>2026-03-28T16:47:21.209Z</time></trkpt><trkpt lat="39.3633709" lon="17.1319247"><ele>6.0</ele><time>2026-03-28T16:47:22.216Z</time></trkpt><trkpt lat="39.3632799" lon="17.1319518"><ele>6.0</ele><time>2026-03-28T16:47:23.211Z</time></trkpt><trkpt lat="39.363188" lon="17.1319685"><ele>6.0</ele><time>2026-03-28T16:47:24.212Z</time></trkpt><trkpt lat="39.3630978" lon="17.1319759"><ele>6.0</ele><time>2026-03-28T16:47:25.204Z</time></trkpt><trkpt lat="39.3630074" lon="17.1319813"><ele>5.666666666666667</ele><time>2026-03-28T16:47:26.208Z</time></trkpt><trkpt lat="39.3629197" lon="17.131978"><ele>5.333333333333333</ele><time>2026-03-28T16:47:27.21Z</time></trkpt><trkpt lat="39.3628416" lon="17.1319675"><ele>5.0</ele><time>2026-03-28T16:47:28.212Z</time></trkpt><trkpt lat="39.3627657" lon="17.1319562"><ele>4.666666666666666</ele><time>2026-03-28T16:47:29.215Z</time></trkpt><trkpt lat="39.3626874" lon="17.131945"><ele>4.333333333333333</ele><time>2026-03-28T16:47:30.213Z</time></trkpt><trkpt lat="39.3626091" lon="17.1319325"><ele>4.0</ele><time>2026-03-28T16:47:31.205Z</time></trkpt><trkpt lat="39.3625285" lon="17.1319171"><ele>3.9999999999999996</ele><time>2026-03-28T16:47:32.215Z</time></trkpt><trkpt lat="39.3624492" lon="17.1318978"><ele>4.0</ele><time>2026-03-28T16:47:33.205Z</time></trkpt><trkpt lat="39.3623714" lon="17.1318774"><ele>4.0</ele><time>2026-03-28T16:47:34.208Z</time></trkpt><trkpt lat="39.3622963" lon="17.1318597"><ele>4.0</ele><time>2026-03-28T16:47:35.205Z</time></trkpt><trkpt lat="39.3622251" lon="17.1318458"><ele>3.9999999999999996</ele><time>2026-03-28T16:47:36.206Z</time></trkpt><trkpt lat="39.3621524" lon="17.1318334"><ele>4.0</ele><time>2026-03-28T16:47:37.218Z</time></trkpt><trkpt lat="39.3620793" lon="17.131822"><ele>4.333333333333333</ele><time>2026-03-28T16:47:38.214Z</time></trkpt><trkpt lat="39.3620098" lon="17.1318116"><ele>4.666666666666666</ele><time>2026-03-28T16:47:39.216Z</time></trkpt><trkpt lat="39.3619446" lon="17.1318018"><ele>5.0</ele><time>2026-03-28T16:47:40.212Z</time></trkpt><trkpt lat="39.361879" lon="17.1317912"><ele>5.333333333333333</ele><time>2026-03-28T16:47:41.216Z</time></trkpt><trkpt lat="39.361815" lon="17.1317763"><ele>5.666666666666667</ele><time>2026-03-28T16:47:42.202Z</time></trkpt><trkpt lat="39.3616899" lon="17.1317429"><ele>6.0</ele><time>2026-03-28T16:47:44.214Z</time></trkpt><trkpt lat="39.361625" lon="17.1317282"><ele>6.0</ele><time>2026-03-28T16:47:45.216Z</time></trkpt><trkpt lat="39.3615604" lon="17.1317151"><ele>6.0</ele><time>2026-03-28T16:47:46.202Z</time></trkpt><trkpt lat="39.3614967" lon="17.1317016"><ele>6.0</ele><time>2026-03-28T16:47:47.206Z</time></trkpt><trkpt lat="39.3613801" lon="17.1316814"><ele>6.0</ele><time>2026-03-28T16:47:49.216Z</time></trkpt><trkpt lat="39.3612782" lon="17.1316669"><ele>6.0</ele><time>2026-03-28T16:47:51.224Z</time></trkpt><trkpt lat="39.3611617" lon="17.1316481"><ele>5.666666666666667</ele><time>2026-03-28T16:47:53.213Z</time></trkpt><trkpt lat="39.3610982" lon="17.1316407"><ele>5.333333333333333</ele><time>2026-03-28T16:47:54.201Z</time></trkpt><trkpt lat="39.361033" lon="17.1316314"><ele>5.0</ele><time>2026-03-28T16:47:55.213Z</time></trkpt><trkpt lat="39.3609293" lon="17.1316142"><ele>4.666666666666666</ele><time>2026-03-28T16:47:57.207Z</time></trkpt><trkpt lat="39.3608315" lon="17.1316072"><ele>4.333333333333333</ele><time>2026-03-28T16:47:59.21Z</time></trkpt><trkpt lat="39.3607378" lon="17.1315997"><ele>4.0</ele><time>2026-03-28T16:48:01.213Z</time></trkpt><trkpt lat="39.3606475" lon="17.131594"><ele>3.9999999999999996</ele><time>2026-03-28T16:48:04.215Z</time></trkpt><trkpt lat="39.3605739" lon="17.1316225"><ele>4.0</ele><time>2026-03-28T16:48:07.215Z</time></trkpt><trkpt lat="39.3605899" lon="17.1317277"><ele>4.0</ele><time>2026-03-28T16:48:09.212Z</time></trkpt><trkpt lat="39.3606593" lon="17.1317569"><ele>4.0</ele><time>2026-03-28T16:48:10.209Z</time></trkpt><trkpt lat="39.360765" lon="17.1317653"><ele>3.9999999999999996</ele><time>2026-03-28T16:48:11.248Z</time></trkpt><trkpt lat="39.3608742" lon="17.131776"><ele>4.0</ele><time>2026-03-28T16:48:12.219Z</time></trkpt><trkpt lat="39.3609699" lon="17.131782"><ele>4.0</ele><time>2026-03-28T16:48:13.209Z</time></trkpt><trkpt lat="39.3610542" lon="17.1317869"><ele>3.9999999999999996</ele><time>2026-03-28T16:48:14.21Z</time></trkpt><trkpt lat="39.3611223" lon="17.1317959"><ele>4.0</ele><time>2026-03-28T16:48:15.209Z</time></trkpt><trkpt lat="39.3611866" lon="17.1318077"><ele>4.0</ele><time>2026-03-28T16:48:16.224Z</time></trkpt><trkpt lat="39.3612509" lon="17.1318194"><ele>3.9999999999999996</ele><time>2026-03-28T16:48:17.205Z</time></trkpt><trkpt lat="39.3613246" lon="17.1318329"><ele>4.0</ele><time>2026-03-28T16:48:18.207Z</time></trkpt><trkpt lat="39.3614158" lon="17.1318509"><ele>4.0</ele><time>2026-03-28T16:48:19.216Z</time></trkpt><trkpt lat="39.3615077" lon="17.1318721"><ele>4.333333333333333</ele><time>2026-03-28T16:48:20.211Z</time></trkpt><trkpt lat="39.3615908" lon="17.1318936"><ele>4.666666666666666</ele><time>2026-03-28T16:48:21.211Z</time></trkpt><trkpt lat="39.3616681" lon="17.1319116"><ele>5.0</ele><time>2026-03-28T16:48:22.219Z</time></trkpt><trkpt lat="39.3617429" lon="17.1319266"><ele>5.333333333333333</ele><time>2026-03-28T16:48:23.202Z</time></trkpt><trkpt lat="39.3618196" lon="17.1319423"><ele>5.666666666666667</ele><time>2026-03-28T16:48:24.224Z</time></trkpt><trkpt lat="39.3618942" lon="17.1319591"><ele>6.0</ele><time>2026-03-28T16:48:25.231Z</time></trkpt><trkpt lat="39.3619647" lon="17.1319769"><ele>6.0</ele><time>2026-03-28T16:48:26.214Z</time></trkpt><trkpt lat="39.3620306" lon="17.1319934"><ele>6.0</ele><time>2026-03-28T16:48:27.208Z</time></trkpt><trkpt lat="39.3621571" lon="17.1320113"><ele>6.0</ele><time>2026-03-28T16:48:29.212Z</time></trkpt><trkpt lat="39.3622252" lon="17.1320249"><ele>6.0</ele><time>2026-03-28T16:48:30.223Z</time></trkpt><trkpt lat="39.3622915" lon="17.132039"><ele>6.0</ele><time>2026-03-28T16:48:31.215Z</time></trkpt><trkpt lat="39.3624167" lon="17.1320653"><ele>5.6</ele><time>2026-03-28T16:48:33.21Z</time></trkpt><trkpt lat="39.3624799" lon="17.1320805"><ele>5.199999999999999</ele><time>2026-03-28T16:48:34.213Z</time></trkpt><trkpt lat="39.3625424" lon="17.1320969"><ele>4.800000000000001</ele><time>2026-03-28T16:48:35.22Z</time></trkpt><trkpt lat="39.362663" lon="17.1321239"><ele>4.4</ele><time>2026-03-28T16:48:37.212Z</time></trkpt><trkpt lat="39.3627747" lon="17.1321446"><ele>4.0</ele><time>2026-03-28T16:48:39.211Z</time></trkpt><trkpt lat="39.3628827" lon="17.1321701"><ele>3.9999999999999996</ele><time>2026-03-28T16:48:41.215Z</time></trkpt><trkpt lat="39.3630149" lon="17.1321992"><ele>4.0</ele><time>2026-03-28T16:48:43.217Z</time></trkpt><trkpt lat="39.3630877" lon="17.1322173"><ele>4.0</ele><time>2026-03-28T16:48:44.214Z</time></trkpt><trkpt lat="39.3631573" lon="17.1322326"><ele>4.0</ele><time>2026-03-28T16:48:45.22Z</time></trkpt><trkpt lat="39.3632224" lon="17.1322431"><ele>3.9999999999999996</ele><time>2026-03-28T16:48:46.199Z</time></trkpt><trkpt lat="39.3632912" lon="17.1322497"><ele>4.0</ele><time>2026-03-28T16:48:47.208Z</time></trkpt><trkpt lat="39.3633595" lon="17.1322564"><ele>4.0</ele><time>2026-03-28T16:48:48.212Z</time></trkpt><trkpt lat="39.363476" lon="17.1322832"><ele>4.0</ele><time>2026-03-28T16:48:50.214Z</time></trkpt><trkpt lat="39.3635536" lon="17.1323098"><ele>4.0</ele><time>2026-03-28T16:48:52.233Z</time></trkpt><trkpt lat="39.3636121" lon="17.1323522"><ele>4.0</ele><time>2026-03-28T16:48:57.222Z</time></trkpt><trkpt lat="39.363692" lon="17.132445"><ele>4.0</ele><time>2026-03-28T16:49:03.211Z</time></trkpt><trkpt lat="39.3637358" lon="17.132557"><ele>4.0</ele><time>2026-03-28T16:49:05.206Z</time></trkpt><trkpt lat="39.3637713" lon="17.1326922"><ele>4.0</ele><time>2026-03-28T16:49:07.21Z</time></trkpt><trkpt lat="39.3638072" lon="17.1328235"><ele>4.0</ele><time>2026-03-28T16:49:09.212Z</time></trkpt><trkpt lat="39.3638685" lon="17.1329333"><ele>4.0</ele><time>2026-03-28T16:49:11.209Z</time></trkpt><trkpt lat="39.363983" lon="17.1329858"><ele>4.0</ele><time>2026-03-28T16:49:13.216Z</time></trkpt><trkpt lat="39.3640542" lon="17.1330014"><ele>4.0</ele><time>2026-03-28T16:49:14.216Z</time></trkpt><trkpt lat="39.3641263" lon="17.1330107"><ele>3.9999999999999996</ele><time>2026-03-28T16:49:15.205Z</time></trkpt><trkpt lat="39.3641978" lon="17.1330162"><ele>4.0</ele><time>2026-03-28T16:49:16.214Z</time></trkpt><trkpt lat="39.3642694" lon="17.1330225"><ele>4.0</ele><time>2026-03-28T16:49:17.225Z</time></trkpt><trkpt lat="39.364341" lon="17.1330279"><ele>3.9999999999999996</ele><time>2026-03-28T16:49:18.215Z</time></trkpt><trkpt lat="39.3644105" lon="17.1330323"><ele>4.0</ele><time>2026-03-28T16:49:19.218Z</time></trkpt><trkpt lat="39.3644806" lon="17.1330346"><ele>4.0</ele><time>2026-03-28T16:49:20.212Z</time></trkpt><trkpt lat="39.3645491" lon="17.1330389"><ele>4.0</ele><time>2026-03-28T16:49:21.216Z</time></trkpt><trkpt lat="39.3646131" lon="17.1330448"><ele>4.0</ele><time>2026-03-28T16:49:22.221Z</time></trkpt><trkpt lat="39.3647258" lon="17.1330562"><ele>4.0</ele><time>2026-03-28T16:49:24.218Z</time></trkpt><trkpt lat="39.3648596" lon="17.1330666"><ele>4.0</ele><time>2026-03-28T16:49:26.212Z</time></trkpt><trkpt lat="39.3649374" lon="17.1330771"><ele>4.0</ele><time>2026-03-28T16:49:27.208Z</time></trkpt><trkpt lat="39.3650119" lon="17.1330902"><ele>4.166666666666666</ele><time>2026-03-28T16:49:28.216Z</time></trkpt><trkpt lat="39.3650777" lon="17.1331017"><ele>4.333333333333333</ele><time>2026-03-28T16:49:29.211Z</time></trkpt><trkpt lat="39.3651414" lon="17.1331069"><ele>4.5</ele><time>2026-03-28T16:49:30.214Z</time></trkpt><trkpt lat="39.3652154" lon="17.1331101"><ele>4.666666666666667</ele><time>2026-03-28T16:49:31.212Z</time></trkpt><trkpt lat="39.3652989" lon="17.1331145"><ele>4.833333333333334</ele><time>2026-03-28T16:49:32.213Z</time></trkpt><trkpt lat="39.3653851" lon="17.1331214"><ele>5.0</ele><time>2026-03-28T16:49:33.215Z</time></trkpt><trkpt lat="39.3654713" lon="17.1331268"><ele>5.0</ele><time>2026-03-28T16:49:34.214Z</time></trkpt><trkpt lat="39.3655531" lon="17.1331305"><ele>5.0</ele><time>2026-03-28T16:49:35.21Z</time></trkpt><trkpt lat="39.365627" lon="17.1331323"><ele>5.0</ele><time>2026-03-28T16:49:36.219Z</time></trkpt><trkpt lat="39.365694" lon="17.1331341"><ele>5.0</ele><time>2026-03-28T16:49:37.216Z</time></trkpt><trkpt lat="39.3658152" lon="17.1331428"><ele>5.0</ele><time>2026-03-28T16:49:39.213Z</time></trkpt><trkpt lat="39.3659257" lon="17.1331532"><ele>5.0</ele><time>2026-03-28T16:49:41.215Z</time></trkpt><trkpt lat="39.3660383" lon="17.1331665"><ele>5.0</ele><time>2026-03-28T16:49:43.212Z</time></trkpt><trkpt lat="39.3661422" lon="17.1331904"><ele>5.0</ele><time>2026-03-28T16:49:45.22Z</time></trkpt><trkpt lat="39.3662343" lon="17.1332173"><ele>5.0</ele><time>2026-03-28T16:49:47.21Z</time></trkpt><trkpt lat="39.3663165" lon="17.1332393"><ele>5.0</ele><time>2026-03-28T16:49:49.215Z</time></trkpt><trkpt lat="39.3663782" lon="17.1332563"><ele>5.5</ele><time>2026-03-28T16:49:51.217Z</time></trkpt><trkpt lat="39.3664657" lon="17.1332105"><ele>6.0</ele><time>2026-03-28T16:49:54.208Z</time></trkpt><trkpt lat="39.366516" lon="17.1331094"><ele>6.5</ele><time>2026-03-28T16:49:56.214Z</time></trkpt><trkpt lat="39.3665776" lon="17.1330505"><ele>7.0</ele><time>2026-03-28T16:49:58.194Z</time></trkpt><trkpt lat="39.3666423" lon="17.1330374"><ele>7.499999999999999</ele><time>2026-03-28T16:49:59.211Z</time></trkpt><trkpt lat="39.3667162" lon="17.1330385"><ele>8.0</ele><time>2026-03-28T16:50:00.246Z</time></trkpt><trkpt lat="39.3667823" lon="17.1330469"><ele>8.0</ele><time>2026-03-28T16:50:01.208Z</time></trkpt><trkpt lat="39.3668882" lon="17.1330558"><ele>8.0</ele><time>2026-03-28T16:50:03.209Z</time></trkpt><trkpt lat="39.36699" lon="17.1330661"><ele>8.0</ele><time>2026-03-28T16:50:05.213Z</time></trkpt><trkpt lat="39.3670822" lon="17.1330735"><ele>8.0</ele><time>2026-03-28T16:50:07.22Z</time></trkpt><trkpt lat="39.3671767" lon="17.1330747"><ele>8.0</ele><time>2026-03-28T16:50:09.212Z</time></trkpt><trkpt lat="39.3672712" lon="17.1330838"><ele>8.0</ele><time>2026-03-28T16:50:11.215Z</time></trkpt><trkpt lat="39.367402" lon="17.1330824"><ele>8.0</ele><time>2026-03-28T16:50:13.209Z</time></trkpt><trkpt lat="39.3674888" lon="17.1330754"><ele>8.0</ele><time>2026-03-28T16:50:15.216Z</time></trkpt><trkpt lat="39.3675798" lon="17.1330697"><ele>8.0</ele><time>2026-03-28T16:50:18.208Z</time></trkpt><trkpt lat="39.3676578" lon="17.1330633"><ele>8.0</ele><time>2026-03-28T16:50:20.21Z</time></trkpt><trkpt lat="39.3677574" lon="17.133059"><ele>8.0</ele><time>2026-03-28T16:50:22.196Z</time></trkpt><trkpt lat="39.367879" lon="17.1330544"><ele>8.0</ele><time>2026-03-28T16:50:24.213Z</time></trkpt><trkpt lat="39.3679431" lon="17.1330566"><ele>8.0</ele><time>2026-03-28T16:50:25.207Z</time></trkpt><trkpt lat="39.3680256" lon="17.1330658"><ele>8.0</ele><time>2026-03-28T16:50:27.211Z</time></trkpt><trkpt lat="39.3681268" lon="17.1330824"><ele>8.0</ele><time>2026-03-28T16:50:29.237Z</time></trkpt><trkpt lat="39.3682529" lon="17.1330898"><ele>8.0</ele><time>2026-03-28T16:50:31.21Z</time></trkpt><trkpt lat="39.3683688" lon="17.1330996"><ele>8.0</ele><time>2026-03-28T16:50:33.222Z</time></trkpt><trkpt lat="39.3684615" lon="17.1331063"><ele>8.0</ele><time>2026-03-28T16:50:35.213Z</time></trkpt><trkpt lat="39.3685526" lon="17.1331149"><ele>8.0</ele><time>2026-03-28T16:50:37.211Z</time></trkpt><trkpt lat="39.3686701" lon="17.1331315"><ele>8.0</ele><time>2026-03-28T16:50:39.218Z</time></trkpt><trkpt lat="39.368768" lon="17.1331379"><ele>7.999999999999999</ele><time>2026-03-28T16:50:41.207Z</time></trkpt><trkpt lat="39.3688459" lon="17.1331471"><ele>8.0</ele><time>2026-03-28T16:50:43.205Z</time></trkpt><trkpt lat="39.368944" lon="17.133164"><ele>8.0</ele><time>2026-03-28T16:50:45.22Z</time></trkpt><trkpt lat="39.3690315" lon="17.1331799"><ele>8.0</ele><time>2026-03-28T16:50:47.199Z</time></trkpt><trkpt lat="39.3691028" lon="17.1332037"><ele>7.999999999999999</ele><time>2026-03-28T16:50:49.207Z</time></trkpt><trkpt lat="39.3691914" lon="17.1332355"><ele>8.0</ele><time>2026-03-28T16:50:52.209Z</time></trkpt><trkpt lat="39.3692694" lon="17.1332698"><ele>7.999999999999999</ele><time>2026-03-28T16:50:54.21Z</time></trkpt><trkpt lat="39.3693301" lon="17.1333022"><ele>8.0</ele><time>2026-03-28T16:50:56.21Z</time></trkpt><trkpt lat="39.369411" lon="17.133329"><ele>8.0</ele><time>2026-03-28T16:50:58.206Z</time></trkpt><trkpt lat="39.3694743" lon="17.1333445"><ele>8.0</ele><time>2026-03-28T16:50:59.21Z</time></trkpt><trkpt lat="39.369583" lon="17.1333873"><ele>7.999999999999999</ele><time>2026-03-28T16:51:01.216Z</time></trkpt><trkpt lat="39.3696564" lon="17.1334298"><ele>8.0</ele><time>2026-03-28T16:51:03.216Z</time></trkpt><trkpt lat="39.3697241" lon="17.1334774"><ele>7.999999999999999</ele><time>2026-03-28T16:51:05.21Z</time></trkpt><trkpt lat="39.3698189" lon="17.1335251"><ele>8.0</ele><time>2026-03-28T16:51:07.203Z</time></trkpt><trkpt lat="39.3698788" lon="17.1335517"><ele>8.0</ele><time>2026-03-28T16:51:08.22Z</time></trkpt><trkpt lat="39.3699457" lon="17.1335812"><ele>8.0</ele><time>2026-03-28T16:51:09.21Z</time></trkpt><trkpt lat="39.3700102" lon="17.1336094"><ele>7.999999999999999</ele><time>2026-03-28T16:51:10.208Z</time></trkpt><trkpt lat="39.3701272" lon="17.1336429"><ele>8.0</ele><time>2026-03-28T16:51:12.21Z</time></trkpt><trkpt lat="39.3702294" lon="17.1336614"><ele>8.0</ele><time>2026-03-28T16:51:14.219Z</time></trkpt><trkpt lat="39.3703304" lon="17.1336767"><ele>8.0</ele><time>2026-03-28T16:51:16.217Z</time></trkpt><trkpt lat="39.3704371" lon="17.1336929"><ele>8.0</ele><time>2026-03-28T16:51:18.219Z</time></trkpt><trkpt lat="39.3705414" lon="17.1337145"><ele>8.0</ele><time>2026-03-28T16:51:20.218Z</time></trkpt><trkpt lat="39.3706404" lon="17.1337383"><ele>8.0</ele><time>2026-03-28T16:51:22.217Z</time></trkpt><trkpt lat="39.3707243" lon="17.1337585"><ele>8.0</ele><time>2026-03-28T16:51:24.201Z</time></trkpt><trkpt lat="39.370791" lon="17.1337787"><ele>7.999999999999999</ele><time>2026-03-28T16:51:26.213Z</time></trkpt><trkpt lat="39.3708584" lon="17.1337996"><ele>8.0</ele><time>2026-03-28T16:51:28.212Z</time></trkpt><trkpt lat="39.3709218" lon="17.133821"><ele>8.0</ele><time>2026-03-28T16:51:30.217Z</time></trkpt><trkpt lat="39.3709868" lon="17.1338486"><ele>7.999999999999999</ele><time>2026-03-28T16:51:32.208Z</time></trkpt><trkpt lat="39.3710519" lon="17.133878"><ele>8.0</ele><time>2026-03-28T16:51:34.203Z</time></trkpt><trkpt lat="39.3711366" lon="17.1339049"><ele>8.0</ele><time>2026-03-28T16:51:36.197Z</time></trkpt><trkpt lat="39.371239" lon="17.133938"><ele>7.999999999999999</ele><time>2026-03-28T16:51:38.21Z</time></trkpt><trkpt lat="39.3713564" lon="17.133982"><ele>8.0</ele><time>2026-03-28T16:51:40.211Z</time></trkpt><trkpt lat="39.3714235" lon="17.1340113"><ele>8.0</ele><time>2026-03-28T16:51:41.226Z</time></trkpt><trkpt lat="39.3714937" lon="17.1340421"><ele>8.0</ele><time>2026-03-28T16:51:42.221Z</time></trkpt><trkpt lat="39.3715658" lon="17.1340736"><ele>7.999999999999999</ele><time>2026-03-28T16:51:43.214Z</time></trkpt><trkpt lat="39.3716378" lon="17.1341029"><ele>8.0</ele><time>2026-03-28T16:51:44.212Z</time></trkpt><trkpt lat="39.3717082" lon="17.1341319"><ele>7.166666666666666</ele><time>2026-03-28T16:51:45.205Z</time></trkpt><trkpt lat="39.3718484" lon="17.1341865"><ele>6.333333333333333</ele><time>2026-03-28T16:51:47.214Z</time></trkpt><trkpt lat="39.3719154" lon="17.1342139"><ele>5.5</ele><time>2026-03-28T16:51:48.211Z</time></trkpt><trkpt lat="39.3719816" lon="17.1342417"><ele>4.666666666666666</ele><time>2026-03-28T16:51:49.209Z</time></trkpt><trkpt lat="39.3720494" lon="17.1342693"><ele>3.833333333333333</ele><time>2026-03-28T16:51:50.213Z</time></trkpt><trkpt lat="39.3721174" lon="17.1342984"><ele>3.0</ele><time>2026-03-28T16:51:51.209Z</time></trkpt><trkpt lat="39.3721818" lon="17.134327"><ele>3.5999999999999996</ele><time>2026-03-28T16:51:52.21Z</time></trkpt><trkpt lat="39.3722426" lon="17.1343542"><ele>4.199999999999999</ele><time>2026-03-28T16:51:53.206Z</time></trkpt><trkpt lat="39.3723576" lon="17.134406"><ele>4.8</ele><time>2026-03-28T16:51:55.209Z</time></trkpt><trkpt lat="39.3724666" lon="17.1344549"><ele>5.3999999999999995</ele><time>2026-03-28T16:51:57.209Z</time></trkpt><trkpt lat="39.3725902" lon="17.1344958"><ele>6.0</ele><time>2026-03-28T16:51:59.205Z</time></trkpt><trkpt lat="39.3726556" lon="17.1345218"><ele>6.0</ele><time>2026-03-28T16:52:00.207Z</time></trkpt><trkpt lat="39.3727173" lon="17.1345458"><ele>6.0</ele><time>2026-03-28T16:52:01.201Z</time></trkpt><trkpt lat="39.3728368" lon="17.1345967"><ele>6.0</ele><time>2026-03-28T16:52:03.218Z</time></trkpt><trkpt lat="39.3728973" lon="17.1346219"><ele>6.0</ele><time>2026-03-28T16:52:04.207Z</time></trkpt><trkpt lat="39.3729588" lon="17.1346497"><ele>6.0</ele><time>2026-03-28T16:52:05.212Z</time></trkpt><trkpt lat="39.3730209" lon="17.1346801"><ele>6.0</ele><time>2026-03-28T16:52:06.222Z</time></trkpt><trkpt lat="39.3730814" lon="17.1347093"><ele>6.166666666666667</ele><time>2026-03-28T16:52:07.217Z</time></trkpt><trkpt lat="39.3731997" lon="17.1347698"><ele>6.333333333333334</ele><time>2026-03-28T16:52:09.216Z</time></trkpt><trkpt lat="39.3732633" lon="17.1348025"><ele>6.5</ele><time>2026-03-28T16:52:10.211Z</time></trkpt><trkpt lat="39.373329" lon="17.1348364"><ele>6.666666666666667</ele><time>2026-03-28T16:52:11.215Z</time></trkpt><trkpt lat="39.3733947" lon="17.1348712"><ele>6.833333333333334</ele><time>2026-03-28T16:52:12.213Z</time></trkpt><trkpt lat="39.3734612" lon="17.1349084"><ele>7.0</ele><time>2026-03-28T16:52:13.213Z</time></trkpt><trkpt lat="39.3735288" lon="17.1349465"><ele>6.666666666666667</ele><time>2026-03-28T16:52:14.213Z</time></trkpt><trkpt lat="39.3735948" lon="17.134984"><ele>6.333333333333334</ele><time>2026-03-28T16:52:15.206Z</time></trkpt><trkpt lat="39.373658" lon="17.1350167"><ele>6.0</ele><time>2026-03-28T16:52:16.208Z</time></trkpt><trkpt lat="39.373717" lon="17.1350456"><ele>5.666666666666667</ele><time>2026-03-28T16:52:17.215Z</time></trkpt><trkpt lat="39.373831" lon="17.1351026"><ele>5.333333333333334</ele><time>2026-03-28T16:52:19.227Z</time></trkpt><trkpt lat="39.3739357" lon="17.1351513"><ele>5.0</ele><time>2026-03-28T16:52:21.208Z</time></trkpt><trkpt lat="39.3740504" lon="17.135202"><ele>5.0</ele><time>2026-03-28T16:52:23.217Z</time></trkpt><trkpt lat="39.3741212" lon="17.1352316"><ele>5.0</ele><time>2026-03-28T16:52:24.217Z</time></trkpt><trkpt lat="39.3741929" lon="17.1352605"><ele>5.0</ele><time>2026-03-28T16:52:25.21Z</time></trkpt><trkpt lat="39.3742649" lon="17.1352906"><ele>5.0</ele><time>2026-03-28T16:52:26.223Z</time></trkpt><trkpt lat="39.3743409" lon="17.1353226"><ele>5.0</ele><time>2026-03-28T16:52:27.219Z</time></trkpt><trkpt lat="39.3744191" lon="17.1353557"><ele>5.0</ele><time>2026-03-28T16:52:28.214Z</time></trkpt><trkpt lat="39.3744979" lon="17.1353904"><ele>5.0</ele><time>2026-03-28T16:52:29.213Z</time></trkpt><trkpt lat="39.3745771" lon="17.1354267"><ele>5.0</ele><time>2026-03-28T16:52:30.235Z</time></trkpt><trkpt lat="39.3746535" lon="17.1354569"><ele>5.0</ele><time>2026-03-28T16:52:31.211Z</time></trkpt><trkpt lat="39.3747291" lon="17.135483"><ele>5.0</ele><time>2026-03-28T16:52:32.211Z</time></trkpt><trkpt lat="39.3748027" lon="17.1355112"><ele>5.0</ele><time>2026-03-28T16:52:33.215Z</time></trkpt><trkpt lat="39.3748759" lon="17.1355424"><ele>5.0</ele><time>2026-03-28T16:52:34.218Z</time></trkpt><trkpt lat="39.3749479" lon="17.1355718"><ele>5.0</ele><time>2026-03-28T16:52:35.237Z</time></trkpt><trkpt lat="39.3750153" lon="17.1355964"><ele>5.0</ele><time>2026-03-28T16:52:36.209Z</time></trkpt><trkpt lat="39.3750801" lon="17.1356179"><ele>5.0</ele><time>2026-03-28T16:52:37.213Z</time></trkpt><trkpt lat="39.375142" lon="17.135637"><ele>5.0</ele><time>2026-03-28T16:52:38.21Z</time></trkpt><trkpt lat="39.3752591" lon="17.13568"><ele>5.0</ele><time>2026-03-28T16:52:40.223Z</time></trkpt><trkpt lat="39.3753768" lon="17.1357278"><ele>5.0</ele><time>2026-03-28T16:52:42.221Z</time></trkpt><trkpt lat="39.3754399" lon="17.1357524"><ele>5.0</ele><time>2026-03-28T16:52:43.207Z</time></trkpt><trkpt lat="39.3755094" lon="17.1357783"><ele>5.0</ele><time>2026-03-28T16:52:44.211Z</time></trkpt><trkpt lat="39.3755821" lon="17.1358056"><ele>5.0</ele><time>2026-03-28T16:52:45.209Z</time></trkpt><trkpt lat="39.3756551" lon="17.1358352"><ele>5.0</ele><time>2026-03-28T16:52:46.201Z</time></trkpt><trkpt lat="39.3757259" lon="17.135866"><ele>5.0</ele><time>2026-03-28T16:52:47.208Z</time></trkpt><trkpt lat="39.3757908" lon="17.1358978"><ele>5.0</ele><time>2026-03-28T16:52:48.206Z</time></trkpt><trkpt lat="39.3758548" lon="17.13593"><ele>5.0</ele><time>2026-03-28T16:52:49.2Z</time></trkpt><trkpt lat="39.3759209" lon="17.1359661"><ele>5.0</ele><time>2026-03-28T16:52:50.212Z</time></trkpt><trkpt lat="39.3759888" lon="17.1360046"><ele>5.0</ele><time>2026-03-28T16:52:51.208Z</time></trkpt><trkpt lat="39.3760553" lon="17.136044"><ele>5.0</ele><time>2026-03-28T16:52:52.214Z</time></trkpt><trkpt lat="39.3761164" lon="17.1360816"><ele>5.0</ele><time>2026-03-28T16:52:53.212Z</time></trkpt><trkpt lat="39.3762263" lon="17.136149"><ele>5.0</ele><time>2026-03-28T16:52:55.219Z</time></trkpt><trkpt lat="39.3763369" lon="17.1362168"><ele>5.166666666666667</ele><time>2026-03-28T16:52:57.221Z</time></trkpt><trkpt lat="39.3764041" lon="17.1362578"><ele>5.333333333333334</ele><time>2026-03-28T16:52:58.208Z</time></trkpt><trkpt lat="39.3764749" lon="17.1363042"><ele>5.5</ele><time>2026-03-28T16:52:59.215Z</time></trkpt><trkpt lat="39.376543" lon="17.1363519"><ele>5.666666666666667</ele><time>2026-03-28T16:53:00.21Z</time></trkpt><trkpt lat="39.3766103" lon="17.1363989"><ele>5.833333333333333</ele><time>2026-03-28T16:53:01.217Z</time></trkpt><trkpt lat="39.3766766" lon="17.1364453"><ele>6.0</ele><time>2026-03-28T16:53:02.205Z</time></trkpt><trkpt lat="39.3767435" lon="17.1364907"><ele>6.0</ele><time>2026-03-28T16:53:03.213Z</time></trkpt><trkpt lat="39.3768089" lon="17.1365383"><ele>6.0</ele><time>2026-03-28T16:53:04.208Z</time></trkpt><trkpt lat="39.3768734" lon="17.1365915"><ele>6.0</ele><time>2026-03-28T16:53:05.226Z</time></trkpt><trkpt lat="39.3769377" lon="17.1366485"><ele>6.0</ele><time>2026-03-28T16:53:06.222Z</time></trkpt><trkpt lat="39.3770041" lon="17.1367092"><ele>6.0</ele><time>2026-03-28T16:53:07.229Z</time></trkpt><trkpt lat="39.3770719" lon="17.1367694"><ele>6.0</ele><time>2026-03-28T16:53:08.21Z</time></trkpt><trkpt lat="39.3771428" lon="17.1368309"><ele>6.0</ele><time>2026-03-28T16:53:09.21Z</time></trkpt><trkpt lat="39.3772132" lon="17.1368902"><ele>6.0</ele><time>2026-03-28T16:53:10.207Z</time></trkpt><trkpt lat="39.3772776" lon="17.1369453"><ele>6.0</ele><time>2026-03-28T16:53:11.213Z</time></trkpt><trkpt lat="39.3773356" lon="17.1369945"><ele>6.0</ele><time>2026-03-28T16:53:12.212Z</time></trkpt><trkpt lat="39.3773883" lon="17.1370403"><ele>6.0</ele><time>2026-03-28T16:53:13.225Z</time></trkpt><trkpt lat="39.3774928" lon="17.1371281"><ele>6.0</ele><time>2026-03-28T16:53:15.211Z</time></trkpt><trkpt lat="39.3775906" lon="17.1372013"><ele>6.0</ele><time>2026-03-28T16:53:17.214Z</time></trkpt><trkpt lat="39.377649" lon="17.1372448"><ele>6.0</ele><time>2026-03-28T16:53:18.21Z</time></trkpt><trkpt lat="39.3777198" lon="17.1373005"><ele>6.0</ele><time>2026-03-28T16:53:19.219Z</time></trkpt><trkpt lat="39.3777867" lon="17.1373568"><ele>6.0</ele><time>2026-03-28T16:53:20.232Z</time></trkpt><trkpt lat="39.3778427" lon="17.1374085"><ele>6.0</ele><time>2026-03-28T16:53:21.234Z</time></trkpt><trkpt lat="39.3779338" lon="17.1374885"><ele>6.0</ele><time>2026-03-28T16:53:23.215Z</time></trkpt><trkpt lat="39.3779999" lon="17.1375475"><ele>5.999999999999999</ele><time>2026-03-28T16:53:25.215Z</time></trkpt><trkpt lat="39.3780531" lon="17.1375953"><ele>6.0</ele><time>2026-03-28T16:53:27.209Z</time></trkpt><trkpt lat="39.378128" lon="17.1376287"><ele>6.0</ele><time>2026-03-28T16:53:34.237Z</time></trkpt><trkpt lat="39.3781458" lon="17.1375205"><ele>6.0</ele><time>2026-03-28T16:53:37.194Z</time></trkpt><trkpt lat="39.3780994" lon="17.1374635"><ele>6.0</ele><time>2026-03-28T16:53:38.21Z</time></trkpt><trkpt lat="39.3780406" lon="17.1374132"><ele>5.999999999999999</ele><time>2026-03-28T16:53:39.211Z</time></trkpt><trkpt lat="39.3779727" lon="17.1373728"><ele>6.0</ele><time>2026-03-28T16:53:40.224Z</time></trkpt><trkpt lat="39.3779098" lon="17.1373432"><ele>6.0</ele><time>2026-03-28T16:53:41.22Z</time></trkpt><trkpt lat="39.3778088" lon="17.1372867"><ele>6.0</ele><time>2026-03-28T16:53:43.216Z</time></trkpt><trkpt lat="39.3777376" lon="17.1372418"><ele>6.0</ele><time>2026-03-28T16:53:45.214Z</time></trkpt><trkpt lat="39.3776501" lon="17.137191"><ele>6.0</ele><time>2026-03-28T16:53:48.21Z</time></trkpt><trkpt lat="39.3775655" lon="17.1371386"><ele>6.0</ele><time>2026-03-28T16:53:50.227Z</time></trkpt><trkpt lat="39.3774776" lon="17.1370759"><ele>6.0</ele><time>2026-03-28T16:53:52.219Z</time></trkpt><trkpt lat="39.3773857" lon="17.1370044"><ele>6.0</ele><time>2026-03-28T16:53:54.226Z</time></trkpt><trkpt lat="39.3773334" lon="17.1369588"><ele>6.0</ele><time>2026-03-28T16:53:55.214Z</time></trkpt><trkpt lat="39.377279" lon="17.1369096"><ele>6.0</ele><time>2026-03-28T16:53:56.227Z</time></trkpt><trkpt lat="39.3772228" lon="17.1368591"><ele>6.0</ele><time>2026-03-28T16:53:57.217Z</time></trkpt><trkpt lat="39.3771637" lon="17.1368091"><ele>6.0</ele><time>2026-03-28T16:53:58.207Z</time></trkpt><trkpt lat="39.377101" lon="17.1367575"><ele>5.999999999999999</ele><time>2026-03-28T16:53:59.212Z</time></trkpt><trkpt lat="39.3770374" lon="17.1367077"><ele>6.0</ele><time>2026-03-28T16:54:00.218Z</time></trkpt><trkpt lat="39.3769783" lon="17.1366637"><ele>6.0</ele><time>2026-03-28T16:54:01.205Z</time></trkpt><trkpt lat="39.3769216" lon="17.1366216"><ele>6.0</ele><time>2026-03-28T16:54:02.211Z</time></trkpt><trkpt lat="39.3768658" lon="17.1365769"><ele>6.0</ele><time>2026-03-28T16:54:03.222Z</time></trkpt><trkpt lat="39.3768086" lon="17.1365306"><ele>5.999999999999999</ele><time>2026-03-28T16:54:04.21Z</time></trkpt><trkpt lat="39.3767501" lon="17.1364862"><ele>6.0</ele><time>2026-03-28T16:54:05.214Z</time></trkpt><trkpt lat="39.3766919" lon="17.136446"><ele>6.0</ele><time>2026-03-28T16:54:06.207Z</time></trkpt><trkpt lat="39.3766353" lon="17.136409"><ele>6.0</ele><time>2026-03-28T16:54:07.213Z</time></trkpt><trkpt lat="39.3765789" lon="17.1363724"><ele>6.0</ele><time>2026-03-28T16:54:08.216Z</time></trkpt><trkpt lat="39.376522" lon="17.1363363"><ele>6.0</ele><time>2026-03-28T16:54:09.21Z</time></trkpt><trkpt lat="39.3764167" lon="17.1362672"><ele>6.0</ele><time>2026-03-28T16:54:11.211Z</time></trkpt><trkpt lat="39.3763228" lon="17.1362034"><ele>6.0</ele><time>2026-03-28T16:54:13.222Z</time></trkpt><trkpt lat="39.3762158" lon="17.1361345"><ele>5.8</ele><time>2026-03-28T16:54:15.21Z</time></trkpt><trkpt lat="39.3761081" lon="17.1360629"><ele>5.6</ele><time>2026-03-28T16:54:17.194Z</time></trkpt><trkpt lat="39.3760107" lon="17.1360025"><ele>5.4</ele><time>2026-03-28T16:54:19.206Z</time></trkpt><trkpt lat="39.3759018" lon="17.1359426"><ele>5.2</ele><time>2026-03-28T16:54:21.211Z</time></trkpt><trkpt lat="39.375842" lon="17.1359116"><ele>5.0</ele><time>2026-03-28T16:54:22.207Z</time></trkpt><trkpt lat="39.3757364" lon="17.1358598"><ele>5.0</ele><time>2026-03-28T16:54:24.226Z</time></trkpt><trkpt lat="39.3756401" lon="17.1358173"><ele>5.0</ele><time>2026-03-28T16:54:26.205Z</time></trkpt><trkpt lat="39.3755172" lon="17.1357673"><ele>5.0</ele><time>2026-03-28T16:54:28.185Z</time></trkpt><trkpt lat="39.3754493" lon="17.135742"><ele>5.0</ele><time>2026-03-28T16:54:29.199Z</time></trkpt><trkpt lat="39.3753488" lon="17.1356995"><ele>5.0</ele><time>2026-03-28T16:54:31.215Z</time></trkpt><trkpt lat="39.37527" lon="17.1356643"><ele>5.666666666666667</ele><time>2026-03-28T16:54:33.212Z</time></trkpt><trkpt lat="39.3751824" lon="17.1356308"><ele>6.333333333333334</ele><time>2026-03-28T16:54:35.209Z</time></trkpt><trkpt lat="39.3750671" lon="17.1355857"><ele>7.0</ele><time>2026-03-28T16:54:37.213Z</time></trkpt><trkpt lat="39.3750035" lon="17.1355593"><ele>7.666666666666667</ele><time>2026-03-28T16:54:38.205Z</time></trkpt><trkpt lat="39.3749362" lon="17.1355326"><ele>8.333333333333334</ele><time>2026-03-28T16:54:39.19Z</time></trkpt><trkpt lat="39.3748639" lon="17.1355057"><ele>9.0</ele><time>2026-03-28T16:54:40.212Z</time></trkpt><trkpt lat="39.374792" lon="17.1354779"><ele>9.000000000000002</ele><time>2026-03-28T16:54:41.214Z</time></trkpt><trkpt lat="39.3747192" lon="17.1354482"><ele>9.0</ele><time>2026-03-28T16:54:42.211Z</time></trkpt><trkpt lat="39.3746448" lon="17.1354172"><ele>9.0</ele><time>2026-03-28T16:54:43.215Z</time></trkpt><trkpt lat="39.3745726" lon="17.1353879"><ele>9.0</ele><time>2026-03-28T16:54:44.211Z</time></trkpt><trkpt lat="39.3745029" lon="17.1353593"><ele>9.0</ele><time>2026-03-28T16:54:45.211Z</time></trkpt><trkpt lat="39.3744366" lon="17.1353311"><ele>9.000000000000002</ele><time>2026-03-28T16:54:46.211Z</time></trkpt><trkpt lat="39.3743706" lon="17.1353031"><ele>9.0</ele><time>2026-03-28T16:54:47.209Z</time></trkpt><trkpt lat="39.3743043" lon="17.1352765"><ele>8.333333333333334</ele><time>2026-03-28T16:54:48.211Z</time></trkpt><trkpt lat="39.3742382" lon="17.1352505"><ele>7.666666666666667</ele><time>2026-03-28T16:54:49.199Z</time></trkpt><trkpt lat="39.3741717" lon="17.1352242"><ele>7.0</ele><time>2026-03-28T16:54:50.206Z</time></trkpt><trkpt lat="39.3741054" lon="17.1351982"><ele>6.333333333333334</ele><time>2026-03-28T16:54:51.229Z</time></trkpt><trkpt lat="39.3740416" lon="17.1351729"><ele>5.666666666666667</ele><time>2026-03-28T16:54:52.214Z</time></trkpt><trkpt lat="39.3739807" lon="17.1351474"><ele>5.0</ele><time>2026-03-28T16:54:53.206Z</time></trkpt><trkpt lat="39.3738724" lon="17.1350943"><ele>5.0</ele><time>2026-03-28T16:54:55.213Z</time></trkpt><trkpt lat="39.3737608" lon="17.1350376"><ele>5.0</ele><time>2026-03-28T16:54:57.216Z</time></trkpt><trkpt lat="39.3736881" lon="17.1350029"><ele>5.0</ele><time>2026-03-28T16:54:58.21Z</time></trkpt><trkpt lat="39.3736072" lon="17.1349645"><ele>5.0</ele><time>2026-03-28T16:54:59.213Z</time></trkpt><trkpt lat="39.3735301" lon="17.1349235"><ele>5.0</ele><time>2026-03-28T16:55:00.213Z</time></trkpt><trkpt lat="39.3734647" lon="17.1348869"><ele>5.0</ele><time>2026-03-28T16:55:01.213Z</time></trkpt><trkpt lat="39.373375" lon="17.1348338"><ele>5.285714285714286</ele><time>2026-03-28T16:55:03.216Z</time></trkpt><trkpt lat="39.3732995" lon="17.1348019"><ele>5.571428571428571</ele><time>2026-03-28T16:55:06.212Z</time></trkpt><trkpt lat="39.373228" lon="17.134778"><ele>5.857142857142858</ele><time>2026-03-28T16:55:16.208Z</time></trkpt><trkpt lat="39.3731669" lon="17.1347512"><ele>6.142857142857142</ele><time>2026-03-28T16:55:18.205Z</time></trkpt><trkpt lat="39.373106" lon="17.1346805"><ele>6.428571428571429</ele><time>2026-03-28T16:55:22.212Z</time></trkpt><trkpt lat="39.3731023" lon="17.1345926"><ele>6.714285714285714</ele><time>2026-03-28T16:55:24.201Z</time></trkpt><trkpt lat="39.3731275" lon="17.1344936"><ele>7.0</ele><time>2026-03-28T16:55:27.203Z</time></trkpt><trkpt lat="39.373135" lon="17.1343884"><ele>7.000000000000001</ele><time>2026-03-28T16:55:30.205Z</time></trkpt><trkpt lat="39.3731451" lon="17.1342777"><ele>7.0</ele><time>2026-03-28T16:55:33.206Z</time></trkpt><trkpt lat="39.3731706" lon="17.1341697"><ele>7.0</ele><time>2026-03-28T16:55:36.205Z</time></trkpt><trkpt lat="39.3731867" lon="17.1340659"><ele>7.0</ele><time>2026-03-28T16:55:40.211Z</time></trkpt><trkpt lat="39.3731873" lon="17.1339716"><ele>7.000000000000001</ele><time>2026-03-28T16:55:42.206Z</time></trkpt><trkpt lat="39.3731291" lon="17.1339323"><ele>7.0</ele><time>2026-03-28T16:55:44.211Z</time></trkpt><trkpt lat="39.373057" lon="17.1339304"><ele>7.199999999999999</ele><time>2026-03-28T16:55:45.211Z</time></trkpt><trkpt lat="39.3729696" lon="17.1339207"><ele>7.3999999999999995</ele><time>2026-03-28T16:55:46.224Z</time></trkpt><trkpt lat="39.3728816" lon="17.1338999"><ele>7.6000000000000005</ele><time>2026-03-28T16:55:47.211Z</time></trkpt><trkpt lat="39.3728045" lon="17.1338785"><ele>7.800000000000001</ele><time>2026-03-28T16:55:48.204Z</time></trkpt><trkpt lat="39.3726728" lon="17.1338407"><ele>8.0</ele><time>2026-03-28T16:55:50.203Z</time></trkpt><trkpt lat="39.3726091" lon="17.1338206"><ele>7.999999999999999</ele><time>2026-03-28T16:55:51.219Z</time></trkpt><trkpt lat="39.3724801" lon="17.1337777"><ele>8.0</ele><time>2026-03-28T16:55:53.209Z</time></trkpt><trkpt lat="39.3724058" lon="17.1337569"><ele>8.0</ele><time>2026-03-28T16:55:54.232Z</time></trkpt><trkpt lat="39.3723306" lon="17.1337351"><ele>8.0</ele><time>2026-03-28T16:55:55.216Z</time></trkpt><trkpt lat="39.3722533" lon="17.1337127"><ele>7.999999999999999</ele><time>2026-03-28T16:55:56.205Z</time></trkpt><trkpt lat="39.3721744" lon="17.1336884"><ele>8.0</ele><time>2026-03-28T16:55:57.207Z</time></trkpt><trkpt lat="39.3720958" lon="17.1336619"><ele>8.166666666666666</ele><time>2026-03-28T16:55:58.211Z</time></trkpt><trkpt lat="39.3720182" lon="17.1336385"><ele>8.333333333333332</ele><time>2026-03-28T16:55:59.205Z</time></trkpt><trkpt lat="39.3719379" lon="17.1336154"><ele>8.5</ele><time>2026-03-28T16:56:00.207Z</time></trkpt><trkpt lat="39.3718625" lon="17.1335902"><ele>8.666666666666666</ele><time>2026-03-28T16:56:01.21Z</time></trkpt><trkpt lat="39.3717927" lon="17.133564"><ele>8.833333333333334</ele><time>2026-03-28T16:56:02.196Z</time></trkpt><trkpt lat="39.3717199" lon="17.1335409"><ele>9.0</ele><time>2026-03-28T16:56:03.215Z</time></trkpt><trkpt lat="39.3716443" lon="17.1335173"><ele>9.0</ele><time>2026-03-28T16:56:04.2Z</time></trkpt><trkpt lat="39.3715649" lon="17.1334913"><ele>9.0</ele><time>2026-03-28T16:56:05.198Z</time></trkpt><trkpt lat="39.3714818" lon="17.1334692"><ele>9.0</ele><time>2026-03-28T16:56:06.2Z</time></trkpt><trkpt lat="39.3714014" lon="17.1334462"><ele>9.0</ele><time>2026-03-28T16:56:07.208Z</time></trkpt><trkpt lat="39.3713218" lon="17.1334242"><ele>9.0</ele><time>2026-03-28T16:56:08.221Z</time></trkpt><trkpt lat="39.3712444" lon="17.133403"><ele>9.0</ele><time>2026-03-28T16:56:09.201Z</time></trkpt><trkpt lat="39.3711684" lon="17.1333826"><ele>8.833333333333334</ele><time>2026-03-28T16:56:10.208Z</time></trkpt><trkpt lat="39.3710911" lon="17.1333592"><ele>8.666666666666666</ele><time>2026-03-28T16:56:11.209Z</time></trkpt><trkpt lat="39.3710118" lon="17.1333352"><ele>8.5</ele><time>2026-03-28T16:56:12.211Z</time></trkpt><trkpt lat="39.3709375" lon="17.1333123"><ele>8.333333333333332</ele><time>2026-03-28T16:56:13.211Z</time></trkpt><trkpt lat="39.3708738" lon="17.1332932"><ele>8.166666666666666</ele><time>2026-03-28T16:56:14.242Z</time></trkpt><trkpt lat="39.3707544" lon="17.1332688"><ele>8.0</ele><time>2026-03-28T16:56:16.209Z</time></trkpt><trkpt lat="39.3706877" lon="17.1332564"><ele>7.999999999999999</ele><time>2026-03-28T16:56:17.207Z</time></trkpt><trkpt lat="39.3706183" lon="17.1332441"><ele>8.0</ele><time>2026-03-28T16:56:18.203Z</time></trkpt><trkpt lat="39.3705477" lon="17.1332298"><ele>8.0</ele><time>2026-03-28T16:56:19.206Z</time></trkpt><trkpt lat="39.3704754" lon="17.1332081"><ele>8.0</ele><time>2026-03-28T16:56:20.224Z</time></trkpt><trkpt lat="39.3704085" lon="17.1331861"><ele>7.999999999999999</ele><time>2026-03-28T16:56:21.208Z</time></trkpt><trkpt lat="39.3703458" lon="17.1331627"><ele>8.0</ele><time>2026-03-28T16:56:22.205Z</time></trkpt><trkpt lat="39.3702338" lon="17.133118"><ele>8.200000000000001</ele><time>2026-03-28T16:56:24.222Z</time></trkpt><trkpt lat="39.3701209" lon="17.133059"><ele>8.4</ele><time>2026-03-28T16:56:26.204Z</time></trkpt><trkpt lat="39.3699985" lon="17.1330027"><ele>8.600000000000001</ele><time>2026-03-28T16:56:28.211Z</time></trkpt><trkpt lat="39.3699295" lon="17.1329746"><ele>8.8</ele><time>2026-03-28T16:56:29.206Z</time></trkpt><trkpt lat="39.3698585" lon="17.1329452"><ele>9.0</ele><time>2026-03-28T16:56:30.205Z</time></trkpt><trkpt lat="39.369791" lon="17.1329195"><ele>9.0</ele><time>2026-03-28T16:56:31.219Z</time></trkpt><trkpt lat="39.3697256" lon="17.1328903"><ele>9.0</ele><time>2026-03-28T16:56:32.213Z</time></trkpt><trkpt lat="39.3696625" lon="17.1328628"><ele>9.0</ele><time>2026-03-28T16:56:33.205Z</time></trkpt><trkpt lat="39.3695645" lon="17.1328256"><ele>9.0</ele><time>2026-03-28T16:56:35.206Z</time></trkpt><trkpt lat="39.3695012" lon="17.1328059"><ele>9.0</ele><time>2026-03-28T16:56:37.212Z</time></trkpt><trkpt lat="39.3694197" lon="17.1327759"><ele>9.0</ele><time>2026-03-28T16:56:40.212Z</time></trkpt><trkpt lat="39.3693464" lon="17.1327277"><ele>8.833333333333334</ele><time>2026-03-28T16:56:43.203Z</time></trkpt><trkpt lat="39.3693444" lon="17.1326352"><ele>8.666666666666666</ele><time>2026-03-28T16:56:45.215Z</time></trkpt><trkpt lat="39.3693711" lon="17.1325302"><ele>8.5</ele><time>2026-03-28T16:56:47.215Z</time></trkpt><trkpt lat="39.3694044" lon="17.1324118"><ele>8.333333333333332</ele><time>2026-03-28T16:56:49.217Z</time></trkpt><trkpt lat="39.3694339" lon="17.132315"><ele>8.166666666666666</ele><time>2026-03-28T16:56:51.211Z</time></trkpt><trkpt lat="39.3694594" lon="17.1322172"><ele>8.0</ele><time>2026-03-28T16:56:53.206Z</time></trkpt><trkpt lat="39.3694818" lon="17.1321045"><ele>7.999999999999999</ele><time>2026-03-28T16:56:55.222Z</time></trkpt><trkpt lat="39.3695017" lon="17.1319519"><ele>8.0</ele><time>2026-03-28T16:56:57.215Z</time></trkpt><trkpt lat="39.3695241" lon="17.1318531"><ele>8.0</ele><time>2026-03-28T16:56:58.197Z</time></trkpt><trkpt lat="39.3695491" lon="17.1317505"><ele>8.0</ele><time>2026-03-28T16:56:59.211Z</time></trkpt><trkpt lat="39.3695729" lon="17.1316471"><ele>7.999999999999999</ele><time>2026-03-28T16:57:00.204Z</time></trkpt><trkpt lat="39.369596" lon="17.1315472"><ele>8.0</ele><time>2026-03-28T16:57:01.212Z</time></trkpt><trkpt lat="39.3696131" lon="17.1314517"><ele>7.999999999999999</ele><time>2026-03-28T16:57:02.21Z</time></trkpt><trkpt lat="39.3696234" lon="17.1313578"><ele>8.0</ele><time>2026-03-28T16:57:03.208Z</time></trkpt><trkpt lat="39.3696424" lon="17.1311992"><ele>8.0</ele><time>2026-03-28T16:57:05.211Z</time></trkpt><trkpt lat="39.3696444" lon="17.1311122"><ele>8.0</ele><time>2026-03-28T16:57:06.205Z</time></trkpt><trkpt lat="39.3696506" lon="17.1310211"><ele>7.999999999999999</ele><time>2026-03-28T16:57:07.208Z</time></trkpt><trkpt lat="39.3696579" lon="17.1309315"><ele>8.0</ele><time>2026-03-28T16:57:08.213Z</time></trkpt><trkpt lat="39.3696684" lon="17.1308378"><ele>7.999999999999999</ele><time>2026-03-28T16:57:09.207Z</time></trkpt><trkpt lat="39.3696816" lon="17.1307441"><ele>8.0</ele><time>2026-03-28T16:57:10.205Z</time></trkpt><trkpt lat="39.3696939" lon="17.1306399"><ele>8.0</ele><time>2026-03-28T16:57:11.209Z</time></trkpt><trkpt lat="39.3697037" lon="17.1305362"><ele>8.0</ele><time>2026-03-28T16:57:12.203Z</time></trkpt><trkpt lat="39.3697117" lon="17.1304328"><ele>7.999999999999999</ele><time>2026-03-28T16:57:13.203Z</time></trkpt><trkpt lat="39.3697189" lon="17.1303326"><ele>8.0</ele><time>2026-03-28T16:57:14.213Z</time></trkpt><trkpt lat="39.3697259" lon="17.1302409"><ele>7.833333333333333</ele><time>2026-03-28T16:57:15.196Z</time></trkpt><trkpt lat="39.3697329" lon="17.1301541"><ele>7.666666666666666</ele><time>2026-03-28T16:57:16.212Z</time></trkpt><trkpt lat="39.3697396" lon="17.1300727"><ele>7.5</ele><time>2026-03-28T16:57:17.207Z</time></trkpt><trkpt lat="39.3697566" lon="17.1299202"><ele>7.333333333333334</ele><time>2026-03-28T16:57:19.208Z</time></trkpt><trkpt lat="39.3697725" lon="17.1298147"><ele>7.166666666666667</ele><time>2026-03-28T16:57:21.203Z</time></trkpt><trkpt lat="39.3697915" lon="17.1297272"><ele>7.0</ele><time>2026-03-28T16:57:25.202Z</time></trkpt><trkpt lat="39.3698071" lon="17.1296407"><ele>7.000000000000001</ele><time>2026-03-28T16:57:31.203Z</time></trkpt><trkpt lat="39.3698181" lon="17.1295472"><ele>7.0</ele><time>2026-03-28T16:57:33.209Z</time></trkpt><trkpt lat="39.3698297" lon="17.1294565"><ele>7.0</ele><time>2026-03-28T16:57:35.205Z</time></trkpt><trkpt lat="39.369837" lon="17.1293699"><ele>7.0</ele><time>2026-03-28T16:57:37.208Z</time></trkpt><trkpt lat="39.3698302" lon="17.1292752"><ele>7.000000000000001</ele><time>2026-03-28T16:57:39.197Z</time></trkpt><trkpt lat="39.3697529" lon="17.1292032"><ele>7.0</ele><time>2026-03-28T16:57:41.207Z</time></trkpt><trkpt lat="39.3696777" lon="17.1291968"><ele>7.333333333333334</ele><time>2026-03-28T16:57:42.189Z</time></trkpt><trkpt lat="39.3695961" lon="17.1291873"><ele>7.666666666666667</ele><time>2026-03-28T16:57:43.201Z</time></trkpt><trkpt lat="39.3695209" lon="17.1291745"><ele>8.0</ele><time>2026-03-28T16:57:44.202Z</time></trkpt><trkpt lat="39.3694583" lon="17.1291629"><ele>8.333333333333334</ele><time>2026-03-28T16:57:45.21Z</time></trkpt><trkpt lat="39.3693181" lon="17.1291409"><ele>8.666666666666666</ele><time>2026-03-28T16:57:47.206Z</time></trkpt><trkpt lat="39.3692359" lon="17.1291309"><ele>9.0</ele><time>2026-03-28T16:57:48.212Z</time></trkpt><trkpt lat="39.3691656" lon="17.1291259"><ele>9.0</ele><time>2026-03-28T16:57:49.215Z</time></trkpt><trkpt lat="39.3690987" lon="17.1291144"><ele>9.0</ele><time>2026-03-28T16:57:50.202Z</time></trkpt><trkpt lat="39.369005" lon="17.1290878"><ele>9.0</ele><time>2026-03-28T16:57:52.196Z</time></trkpt><trkpt lat="39.3689318" lon="17.1290597"><ele>9.0</ele><time>2026-03-28T16:57:55.204Z</time></trkpt><trkpt lat="39.3688415" lon="17.1290621"><ele>9.0</ele><time>2026-03-28T16:58:08.202Z</time></trkpt><trkpt lat="39.368776" lon="17.1290495"><ele>9.0</ele><time>2026-03-28T16:58:10.203Z</time></trkpt><trkpt lat="39.3686959" lon="17.1290327"><ele>8.714285714285715</ele><time>2026-03-28T16:58:13.205Z</time></trkpt><trkpt lat="39.3686325" lon="17.1290272"><ele>8.428571428571429</ele><time>2026-03-28T16:58:16.186Z</time></trkpt><trkpt lat="39.368567" lon="17.1290124"><ele>8.142857142857142</ele><time>2026-03-28T16:58:21.198Z</time></trkpt><trkpt lat="39.3685529" lon="17.1289181"><ele>7.857142857142858</ele><time>2026-03-28T16:58:24.183Z</time></trkpt><trkpt lat="39.3685455" lon="17.1288184"><ele>7.571428571428571</ele><time>2026-03-28T16:58:26.185Z</time></trkpt><trkpt lat="39.368525" lon="17.1286916"><ele>7.285714285714286</ele><time>2026-03-28T16:58:28.185Z</time></trkpt><trkpt lat="39.3685145" lon="17.1286103"><ele>7.0</ele><time>2026-03-28T16:58:29.177Z</time></trkpt><trkpt lat="39.3685046" lon="17.1285191"><ele>7.000000000000001</ele><time>2026-03-28T16:58:30.185Z</time></trkpt><trkpt lat="39.3684954" lon="17.1284262"><ele>7.0</ele><time>2026-03-28T16:58:31.183Z</time></trkpt><trkpt lat="39.3684766" lon="17.1282829"><ele>7.0</ele><time>2026-03-28T16:58:33.189Z</time></trkpt><trkpt lat="39.3684649" lon="17.1281778"><ele>7.0</ele><time>2026-03-28T16:58:35.19Z</time></trkpt><trkpt lat="39.3684501" lon="17.1280866"><ele>7.000000000000001</ele><time>2026-03-28T16:58:37.181Z</time></trkpt><trkpt lat="39.3684365" lon="17.1279953"><ele>7.0</ele><time>2026-03-28T16:58:39.187Z</time></trkpt><trkpt lat="39.3684229" lon="17.1278939"><ele>7.3999999999999995</ele><time>2026-03-28T16:58:41.187Z</time></trkpt><trkpt lat="39.368404" lon="17.1277722"><ele>7.799999999999999</ele><time>2026-03-28T16:58:43.183Z</time></trkpt><trkpt lat="39.3683834" lon="17.127634"><ele>8.2</ele><time>2026-03-28T16:58:45.187Z</time></trkpt><trkpt lat="39.368365" lon="17.1274996"><ele>8.6</ele><time>2026-03-28T16:58:47.187Z</time></trkpt><trkpt lat="39.3683518" lon="17.1273686"><ele>9.0</ele><time>2026-03-28T16:58:49.189Z</time></trkpt><trkpt lat="39.368343" lon="17.1272831"><ele>9.0</ele><time>2026-03-28T16:58:51.183Z</time></trkpt><trkpt lat="39.368328" lon="17.1271721"><ele>9.0</ele><time>2026-03-28T16:58:53.187Z</time></trkpt><trkpt lat="39.3683114" lon="17.1270289"><ele>9.0</ele><time>2026-03-28T16:58:55.184Z</time></trkpt><trkpt lat="39.3682862" lon="17.1268676"><ele>9.0</ele><time>2026-03-28T16:58:57.189Z</time></trkpt><trkpt lat="39.3682733" lon="17.12678"><ele>9.0</ele><time>2026-03-28T16:58:58.182Z</time></trkpt><trkpt lat="39.3682633" lon="17.1266882"><ele>9.0</ele><time>2026-03-28T16:58:59.186Z</time></trkpt><trkpt lat="39.3682532" lon="17.1265964"><ele>9.0</ele><time>2026-03-28T16:59:00.186Z</time></trkpt><trkpt lat="39.368242" lon="17.1265077"><ele>9.0</ele><time>2026-03-28T16:59:01.182Z</time></trkpt><trkpt lat="39.3682293" lon="17.1264243"><ele>9.0</ele><time>2026-03-28T16:59:02.195Z</time></trkpt><trkpt lat="39.3682066" lon="17.1262843"><ele>9.0</ele><time>2026-03-28T16:59:04.183Z</time></trkpt><trkpt lat="39.3681955" lon="17.1261809"><ele>9.0</ele><time>2026-03-28T16:59:07.189Z</time></trkpt><trkpt lat="39.3681833" lon="17.1260781"><ele>9.166666666666666</ele><time>2026-03-28T16:59:12.182Z</time></trkpt><trkpt lat="39.3681692" lon="17.125983"><ele>9.333333333333334</ele><time>2026-03-28T16:59:14.177Z</time></trkpt><trkpt lat="39.3681541" lon="17.1258645"><ele>9.5</ele><time>2026-03-28T16:59:16.182Z</time></trkpt><trkpt lat="39.3681369" lon="17.1257387"><ele>9.666666666666668</ele><time>2026-03-28T16:59:18.191Z</time></trkpt><trkpt lat="39.3681211" lon="17.1256552"><ele>9.833333333333334</ele><time>2026-03-28T16:59:20.191Z</time></trkpt><trkpt lat="39.3681108" lon="17.1255689"><ele>10.0</ele><time>2026-03-28T16:59:23.179Z</time></trkpt><trkpt lat="39.3680951" lon="17.1254596"><ele>10.0</ele><time>2026-03-28T16:59:26.19Z</time></trkpt><trkpt lat="39.3680845" lon="17.1253613"><ele>10.0</ele><time>2026-03-28T16:59:29.182Z</time></trkpt><trkpt lat="39.3680709" lon="17.1252478"><ele>10.0</ele><time>2026-03-28T16:59:32.187Z</time></trkpt><trkpt lat="39.3680509" lon="17.1251297"><ele>10.0</ele><time>2026-03-28T16:59:34.184Z</time></trkpt><trkpt lat="39.3680281" lon="17.1250025"><ele>10.0</ele><time>2026-03-28T16:59:36.181Z</time></trkpt><trkpt lat="39.3680078" lon="17.1248467"><ele>9.714285714285714</ele><time>2026-03-28T16:59:38.181Z</time></trkpt><trkpt lat="39.3679942" lon="17.1247581"><ele>9.428571428571429</ele><time>2026-03-28T16:59:39.18Z</time></trkpt><trkpt lat="39.3679819" lon="17.1246675"><ele>9.142857142857142</ele><time>2026-03-28T16:59:40.176Z</time></trkpt><trkpt lat="39.3679723" lon="17.1245866"><ele>8.857142857142858</ele><time>2026-03-28T16:59:41.18Z</time></trkpt><trkpt lat="39.3679596" lon="17.124485"><ele>8.571428571428571</ele><time>2026-03-28T16:59:43.187Z</time></trkpt><trkpt lat="39.3679448" lon="17.1243745"><ele>8.285714285714285</ele><time>2026-03-28T16:59:46.186Z</time></trkpt><trkpt lat="39.3679337" lon="17.124289"><ele>8.0</ele><time>2026-03-28T16:59:49.2Z</time></trkpt><trkpt lat="39.3679237" lon="17.1242076"><ele>7.999999999999999</ele><time>2026-03-28T16:59:53.183Z</time></trkpt><trkpt lat="39.3679072" lon="17.1241054"><ele>8.0</ele><time>2026-03-28T16:59:56.185Z</time></trkpt><trkpt lat="39.3679055" lon="17.1239864"><ele>8.0</ele><time>2026-03-28T16:59:59.183Z</time></trkpt><trkpt lat="39.367868" lon="17.1238393"><ele>8.0</ele><time>2026-03-28T17:00:01.191Z</time></trkpt><trkpt lat="39.3678447" lon="17.1237532"><ele>7.999999999999999</ele><time>2026-03-28T17:00:02.184Z</time></trkpt><trkpt lat="39.3678285" lon="17.1236643"><ele>8.0</ele><time>2026-03-28T17:00:03.178Z</time></trkpt><trkpt lat="39.3678154" lon="17.1235791"><ele>8.333333333333332</ele><time>2026-03-28T17:00:04.183Z</time></trkpt><trkpt lat="39.367791" lon="17.1234244"><ele>8.666666666666666</ele><time>2026-03-28T17:00:06.178Z</time></trkpt><trkpt lat="39.3677783" lon="17.1233412"><ele>9.0</ele><time>2026-03-28T17:00:07.185Z</time></trkpt><trkpt lat="39.3677666" lon="17.1232584"><ele>9.333333333333334</ele><time>2026-03-28T17:00:08.182Z</time></trkpt><trkpt lat="39.3677563" lon="17.1231726"><ele>9.666666666666668</ele><time>2026-03-28T17:00:09.183Z</time></trkpt><trkpt lat="39.3677462" lon="17.123084"><ele>10.0</ele><time>2026-03-28T17:00:10.184Z</time></trkpt><trkpt lat="39.3677363" lon="17.1229981"><ele>9.8</ele><time>2026-03-28T17:00:11.184Z</time></trkpt><trkpt lat="39.3677144" lon="17.1228368"><ele>9.6</ele><time>2026-03-28T17:00:13.18Z</time></trkpt><trkpt lat="39.3677023" lon="17.1227527"><ele>9.4</ele><time>2026-03-28T17:00:14.187Z</time></trkpt><trkpt lat="39.3676905" lon="17.1226709"><ele>9.2</ele><time>2026-03-28T17:00:15.18Z</time></trkpt><trkpt lat="39.3676683" lon="17.1225149"><ele>9.0</ele><time>2026-03-28T17:00:17.177Z</time></trkpt><trkpt lat="39.3676486" lon="17.122364"><ele>9.0</ele><time>2026-03-28T17:00:19.178Z</time></trkpt><trkpt lat="39.367633" lon="17.1222356"><ele>9.0</ele><time>2026-03-28T17:00:21.186Z</time></trkpt><trkpt lat="39.3676141" lon="17.1220848"><ele>9.0</ele><time>2026-03-28T17:00:23.184Z</time></trkpt><trkpt lat="39.3676038" lon="17.1220001"><ele>9.0</ele><time>2026-03-28T17:00:24.185Z</time></trkpt><trkpt lat="39.3675931" lon="17.1219107"><ele>9.0</ele><time>2026-03-28T17:00:25.178Z</time></trkpt><trkpt lat="39.3675835" lon="17.12182"><ele>9.0</ele><time>2026-03-28T17:00:26.181Z</time></trkpt><trkpt lat="39.3675687" lon="17.1217291"><ele>9.0</ele><time>2026-03-28T17:00:27.18Z</time></trkpt><trkpt lat="39.3675541" lon="17.1216352"><ele>9.0</ele><time>2026-03-28T17:00:28.187Z</time></trkpt><trkpt lat="39.3675387" lon="17.1215372"><ele>9.0</ele><time>2026-03-28T17:00:29.178Z</time></trkpt><trkpt lat="39.3675241" lon="17.1214338"><ele>9.0</ele><time>2026-03-28T17:00:30.186Z</time></trkpt><trkpt lat="39.3675117" lon="17.1213291"><ele>9.0</ele><time>2026-03-28T17:00:31.18Z</time></trkpt><trkpt lat="39.3674979" lon="17.1212278"><ele>9.0</ele><time>2026-03-28T17:00:32.185Z</time></trkpt><trkpt lat="39.3674801" lon="17.1211331"><ele>8.833333333333334</ele><time>2026-03-28T17:00:33.185Z</time></trkpt><trkpt lat="39.3674589" lon="17.1210431"><ele>8.666666666666666</ele><time>2026-03-28T17:00:34.183Z</time></trkpt><trkpt lat="39.3674412" lon="17.1209465"><ele>8.5</ele><time>2026-03-28T17:00:35.184Z</time></trkpt><trkpt lat="39.367426" lon="17.1208326"><ele>8.333333333333332</ele><time>2026-03-28T17:00:36.187Z</time></trkpt><trkpt lat="39.3674124" lon="17.1207226"><ele>8.166666666666666</ele><time>2026-03-28T17:00:37.187Z</time></trkpt><trkpt lat="39.3674013" lon="17.1206348"><ele>8.0</ele><time>2026-03-28T17:00:38.184Z</time></trkpt><trkpt lat="39.3673883" lon="17.1205188"><ele>10.0</ele><time>2026-03-28T17:00:40.18Z</time></trkpt><trkpt lat="39.3673747" lon="17.1204239"><ele>10.0</ele><time>2026-03-28T17:01:03.185Z</time></trkpt><trkpt lat="39.3673589" lon="17.1203334"><ele>10.0</ele><time>2026-03-28T17:01:07.182Z</time></trkpt><trkpt lat="39.3673444" lon="17.1202217"><ele>10.0</ele><time>2026-03-28T17:01:23.185Z</time></trkpt><trkpt lat="39.367354" lon="17.1201124"><ele>10.0</ele><time>2026-03-28T17:01:26.18Z</time></trkpt></trkseg></trk></gpx>